<?xml version="1.0" encoding="UTF-8" standalone="no" ?>
<gpx xmlns="http://www.topografix.com/GPX/1/1" xmlns:xsi="http://www.w3.org/2001/XMLSchema-instance" xsi:schemaLocation="http://www.topografix.com/GPX/1/1 http://www.topografix.com/GPX/1/1/gpx.xsd" version="1.1" creator="VisuGPX - https://www.visugpx.com">
  <metadata>
    <name>Nantes - Les Sables d'Olonne</name>
    <desc><![CDATA[
Projet d'itinerance sur 5 jours avec tour de l'Ile de Noirmoutier]]></desc>
  </metadata>
  <trk>
    <name><![CDATA[E 0 Global Nantes*Les Sables]]></name>
    <trkseg>
      <trkpt lat="47.19763" lon="-1.59453">
        <ele>8</ele>
        <time>2019-12-08T16:13:51Z</time>
      </trkpt>
      <trkpt lat="47.19768" lon="-1.59454">
        <ele>8</ele>
        <time>2019-12-08T16:13:52Z</time>
      </trkpt>
      <trkpt lat="47.19769" lon="-1.59453">
        <ele>8</ele>
        <time>2019-12-08T16:13:52Z</time>
      </trkpt>
      <trkpt lat="47.19769" lon="-1.59451">
        <ele>8</ele>
        <time>2019-12-08T16:13:53Z</time>
      </trkpt>
      <trkpt lat="47.19769" lon="-1.5945">
        <ele>8</ele>
        <time>2019-12-08T16:13:53Z</time>
      </trkpt>
      <trkpt lat="47.1977" lon="-1.59449">
        <ele>8</ele>
        <time>2019-12-08T16:13:53Z</time>
      </trkpt>
      <trkpt lat="47.1977" lon="-1.59447">
        <ele>8</ele>
        <time>2019-12-08T16:13:53Z</time>
      </trkpt>
      <trkpt lat="47.19771" lon="-1.59446">
        <ele>8</ele>
        <time>2019-12-08T16:13:54Z</time>
      </trkpt>
      <trkpt lat="47.19771" lon="-1.59445">
        <ele>8</ele>
        <time>2019-12-08T16:13:54Z</time>
      </trkpt>
      <trkpt lat="47.19772" lon="-1.59444">
        <ele>8</ele>
        <time>2019-12-08T16:13:54Z</time>
      </trkpt>
      <trkpt lat="47.19773" lon="-1.59443">
        <ele>8</ele>
        <time>2019-12-08T16:13:55Z</time>
      </trkpt>
      <trkpt lat="47.19774" lon="-1.59442">
        <ele>8</ele>
        <time>2019-12-08T16:13:55Z</time>
      </trkpt>
      <trkpt lat="47.19774" lon="-1.59441">
        <ele>8</ele>
        <time>2019-12-08T16:13:55Z</time>
      </trkpt>
      <trkpt lat="47.19775" lon="-1.59441">
        <ele>8</ele>
        <time>2019-12-08T16:13:55Z</time>
      </trkpt>
      <trkpt lat="47.19776" lon="-1.5944">
        <ele>8</ele>
        <time>2019-12-08T16:13:56Z</time>
      </trkpt>
      <trkpt lat="47.19777" lon="-1.5944">
        <ele>8</ele>
        <time>2019-12-08T16:13:56Z</time>
      </trkpt>
      <trkpt lat="47.19778" lon="-1.5944">
        <ele>8</ele>
        <time>2019-12-08T16:13:56Z</time>
      </trkpt>
      <trkpt lat="47.19779" lon="-1.59439">
        <ele>8</ele>
        <time>2019-12-08T16:13:57Z</time>
      </trkpt>
      <trkpt lat="47.1978" lon="-1.5944">
        <ele>8</ele>
        <time>2019-12-08T16:13:57Z</time>
      </trkpt>
      <trkpt lat="47.19781" lon="-1.5944">
        <ele>8</ele>
        <time>2019-12-08T16:13:57Z</time>
      </trkpt>
      <trkpt lat="47.19782" lon="-1.5944">
        <ele>8</ele>
        <time>2019-12-08T16:13:57Z</time>
      </trkpt>
      <trkpt lat="47.19783" lon="-1.59441">
        <ele>8</ele>
        <time>2019-12-08T16:13:58Z</time>
      </trkpt>
      <trkpt lat="47.19784" lon="-1.59441">
        <ele>8</ele>
        <time>2019-12-08T16:13:58Z</time>
      </trkpt>
      <trkpt lat="47.19785" lon="-1.59442">
        <ele>8</ele>
        <time>2019-12-08T16:13:58Z</time>
      </trkpt>
      <trkpt lat="47.19786" lon="-1.59443">
        <ele>8</ele>
        <time>2019-12-08T16:13:59Z</time>
      </trkpt>
      <trkpt lat="47.19787" lon="-1.59444">
        <ele>8</ele>
        <time>2019-12-08T16:13:59Z</time>
      </trkpt>
      <trkpt lat="47.19787" lon="-1.59445">
        <ele>8</ele>
        <time>2019-12-08T16:13:59Z</time>
      </trkpt>
      <trkpt lat="47.19788" lon="-1.59446">
        <ele>8</ele>
        <time>2019-12-08T16:13:59Z</time>
      </trkpt>
      <trkpt lat="47.19789" lon="-1.59447">
        <ele>8</ele>
        <time>2019-12-08T16:14:00Z</time>
      </trkpt>
      <trkpt lat="47.19789" lon="-1.59448">
        <ele>8</ele>
        <time>2019-12-08T16:14:00Z</time>
      </trkpt>
      <trkpt lat="47.1979" lon="-1.59449">
        <ele>8</ele>
        <time>2019-12-08T16:14:00Z</time>
      </trkpt>
      <trkpt lat="47.1979" lon="-1.59451">
        <ele>8</ele>
        <time>2019-12-08T16:14:01Z</time>
      </trkpt>
      <trkpt lat="47.1979" lon="-1.59452">
        <ele>8</ele>
        <time>2019-12-08T16:14:01Z</time>
      </trkpt>
      <trkpt lat="47.19796" lon="-1.59451">
        <ele>8</ele>
        <time>2019-12-08T16:14:02Z</time>
      </trkpt>
      <trkpt lat="47.19876" lon="-1.59437">
        <ele>10</ele>
        <time>2019-12-08T16:14:24Z</time>
      </trkpt>
      <trkpt lat="47.19915" lon="-1.59432">
        <ele>14</ele>
        <time>2019-12-08T16:14:34Z</time>
      </trkpt>
      <trkpt lat="47.19912" lon="-1.59402">
        <ele>17</ele>
        <time>2019-12-08T16:14:40Z</time>
      </trkpt>
      <trkpt lat="47.19965" lon="-1.59383">
        <ele>22</ele>
        <time>2019-12-08T16:14:54Z</time>
      </trkpt>
      <trkpt lat="47.19973" lon="-1.59383">
        <ele>22</ele>
        <time>2019-12-08T16:14:57Z</time>
      </trkpt>
      <trkpt lat="47.19991" lon="-1.59388">
        <ele>23</ele>
        <time>2019-12-08T16:15:02Z</time>
      </trkpt>
      <trkpt lat="47.19999" lon="-1.5939">
        <ele>23</ele>
        <time>2019-12-08T16:15:04Z</time>
      </trkpt>
      <trkpt lat="47.20031" lon="-1.59397">
        <ele>25</ele>
        <time>2019-12-08T16:15:12Z</time>
      </trkpt>
      <trkpt lat="47.20038" lon="-1.59398">
        <ele>25</ele>
        <time>2019-12-08T16:15:14Z</time>
      </trkpt>
      <trkpt lat="47.20104" lon="-1.59412">
        <ele>28</ele>
        <time>2019-12-08T16:15:32Z</time>
      </trkpt>
      <trkpt lat="47.2011" lon="-1.59413">
        <ele>28</ele>
        <time>2019-12-08T16:15:34Z</time>
      </trkpt>
      <trkpt lat="47.20126" lon="-1.59416">
        <ele>28</ele>
        <time>2019-12-08T16:15:38Z</time>
      </trkpt>
      <trkpt lat="47.20131" lon="-1.59415">
        <ele>28</ele>
        <time>2019-12-08T16:15:39Z</time>
      </trkpt>
      <trkpt lat="47.20138" lon="-1.59414">
        <ele>29</ele>
        <time>2019-12-08T16:15:41Z</time>
      </trkpt>
      <trkpt lat="47.20167" lon="-1.59408">
        <ele>30</ele>
        <time>2019-12-08T16:15:49Z</time>
      </trkpt>
      <trkpt lat="47.20173" lon="-1.59407">
        <ele>30</ele>
        <time>2019-12-08T16:15:51Z</time>
      </trkpt>
      <trkpt lat="47.2018" lon="-1.59408">
        <ele>31</ele>
        <time>2019-12-08T16:15:52Z</time>
      </trkpt>
      <trkpt lat="47.20222" lon="-1.59416">
        <ele>32</ele>
        <time>2019-12-08T16:16:04Z</time>
      </trkpt>
      <trkpt lat="47.20226" lon="-1.59416">
        <ele>32</ele>
        <time>2019-12-08T16:16:05Z</time>
      </trkpt>
      <trkpt lat="47.20232" lon="-1.59417">
        <ele>33</ele>
        <time>2019-12-08T16:16:06Z</time>
      </trkpt>
      <trkpt lat="47.20257" lon="-1.59421">
        <ele>34</ele>
        <time>2019-12-08T16:16:13Z</time>
      </trkpt>
      <trkpt lat="47.20302" lon="-1.59422">
        <ele>35</ele>
        <time>2019-12-08T16:16:25Z</time>
      </trkpt>
      <trkpt lat="47.20355" lon="-1.59421">
        <ele>37</ele>
        <time>2019-12-08T16:16:39Z</time>
      </trkpt>
      <trkpt lat="47.20392" lon="-1.5942">
        <ele>38</ele>
        <time>2019-12-08T16:16:49Z</time>
      </trkpt>
      <trkpt lat="47.20413" lon="-1.5942">
        <ele>38</ele>
        <time>2019-12-08T16:16:55Z</time>
      </trkpt>
      <trkpt lat="47.2043" lon="-1.59424">
        <ele>38</ele>
        <time>2019-12-08T16:16:59Z</time>
      </trkpt>
      <trkpt lat="47.20459" lon="-1.59433">
        <ele>39</ele>
        <time>2019-12-08T16:17:07Z</time>
      </trkpt>
      <trkpt lat="47.20519" lon="-1.59448">
        <ele>40</ele>
        <time>2019-12-08T16:17:24Z</time>
      </trkpt>
      <trkpt lat="47.20548" lon="-1.59456">
        <ele>41</ele>
        <time>2019-12-08T16:17:32Z</time>
      </trkpt>
      <trkpt lat="47.20606" lon="-1.59472">
        <ele>43</ele>
        <time>2019-12-08T16:17:47Z</time>
      </trkpt>
      <trkpt lat="47.20667" lon="-1.5949">
        <ele>45</ele>
        <time>2019-12-08T16:18:04Z</time>
      </trkpt>
      <trkpt lat="47.2068" lon="-1.59493">
        <ele>45</ele>
        <time>2019-12-08T16:18:07Z</time>
      </trkpt>
      <trkpt lat="47.20694" lon="-1.59499">
        <ele>45</ele>
        <time>2019-12-08T16:18:11Z</time>
      </trkpt>
      <trkpt lat="47.20726" lon="-1.59515">
        <ele>45</ele>
        <time>2019-12-08T16:18:20Z</time>
      </trkpt>
      <trkpt lat="47.20761" lon="-1.59534">
        <ele>46</ele>
        <time>2019-12-08T16:18:30Z</time>
      </trkpt>
      <trkpt lat="47.20779" lon="-1.59543">
        <ele>45</ele>
        <time>2019-12-08T16:18:35Z</time>
      </trkpt>
      <trkpt lat="47.20797" lon="-1.59552">
        <ele>45</ele>
        <time>2019-12-08T16:18:40Z</time>
      </trkpt>
      <trkpt lat="47.20826" lon="-1.59567">
        <ele>45</ele>
        <time>2019-12-08T16:18:49Z</time>
      </trkpt>
      <trkpt lat="47.20836" lon="-1.59572">
        <ele>45</ele>
        <time>2019-12-08T16:18:52Z</time>
      </trkpt>
      <trkpt lat="47.20935" lon="-1.59612">
        <ele>45</ele>
        <time>2019-12-08T16:19:19Z</time>
      </trkpt>
      <trkpt lat="47.20936" lon="-1.59613">
        <ele>45</ele>
        <time>2019-12-08T16:19:19Z</time>
      </trkpt>
      <trkpt lat="47.20944" lon="-1.59617">
        <ele>45</ele>
        <time>2019-12-08T16:19:22Z</time>
      </trkpt>
      <trkpt lat="47.20947" lon="-1.5961">
        <ele>45</ele>
        <time>2019-12-08T16:19:23Z</time>
      </trkpt>
      <trkpt lat="47.2095" lon="-1.59605">
        <ele>45</ele>
        <time>2019-12-08T16:19:24Z</time>
      </trkpt>
      <trkpt lat="47.20953" lon="-1.59602">
        <ele>45</ele>
        <time>2019-12-08T16:19:25Z</time>
      </trkpt>
      <trkpt lat="47.20957" lon="-1.59601">
        <ele>45</ele>
        <time>2019-12-08T16:19:26Z</time>
      </trkpt>
      <trkpt lat="47.2096" lon="-1.59602">
        <ele>45</ele>
        <time>2019-12-08T16:19:27Z</time>
      </trkpt>
      <trkpt lat="47.20964" lon="-1.59603">
        <ele>45</ele>
        <time>2019-12-08T16:19:28Z</time>
      </trkpt>
      <trkpt lat="47.20968" lon="-1.59607">
        <ele>45</ele>
        <time>2019-12-08T16:19:29Z</time>
      </trkpt>
      <trkpt lat="47.2097" lon="-1.59611">
        <ele>45</ele>
        <time>2019-12-08T16:19:30Z</time>
      </trkpt>
      <trkpt lat="47.20971" lon="-1.59616">
        <ele>45</ele>
        <time>2019-12-08T16:19:31Z</time>
      </trkpt>
      <trkpt lat="47.20975" lon="-1.59619">
        <ele>45</ele>
        <time>2019-12-08T16:19:33Z</time>
      </trkpt>
      <trkpt lat="47.20976" lon="-1.5962">
        <ele>45</ele>
        <time>2019-12-08T16:19:33Z</time>
      </trkpt>
      <trkpt lat="47.2098" lon="-1.59623">
        <ele>45</ele>
        <time>2019-12-08T16:19:34Z</time>
      </trkpt>
      <trkpt lat="47.20988" lon="-1.59625">
        <ele>46</ele>
        <time>2019-12-08T16:19:36Z</time>
      </trkpt>
      <trkpt lat="47.20999" lon="-1.59625">
        <ele>46</ele>
        <time>2019-12-08T16:19:39Z</time>
      </trkpt>
      <trkpt lat="47.21002" lon="-1.59626">
        <ele>46</ele>
        <time>2019-12-08T16:19:40Z</time>
      </trkpt>
      <trkpt lat="47.21004" lon="-1.59627">
        <ele>46</ele>
        <time>2019-12-08T16:19:41Z</time>
      </trkpt>
      <trkpt lat="47.21005" lon="-1.59643">
        <ele>46</ele>
        <time>2019-12-08T16:19:43Z</time>
      </trkpt>
      <trkpt lat="47.21007" lon="-1.59681">
        <ele>46</ele>
        <time>2019-12-08T16:19:50Z</time>
      </trkpt>
      <trkpt lat="47.21009" lon="-1.59729">
        <ele>46</ele>
        <time>2019-12-08T16:19:59Z</time>
      </trkpt>
      <trkpt lat="47.21017" lon="-1.5989">
        <ele>45</ele>
        <time>2019-12-08T16:20:28Z</time>
      </trkpt>
      <trkpt lat="47.21026" lon="-1.60018">
        <ele>45</ele>
        <time>2019-12-08T16:20:52Z</time>
      </trkpt>
      <trkpt lat="47.21026" lon="-1.60027">
        <ele>45</ele>
        <time>2019-12-08T16:20:53Z</time>
      </trkpt>
      <trkpt lat="47.21033" lon="-1.60127">
        <ele>47</ele>
        <time>2019-12-08T16:21:12Z</time>
      </trkpt>
      <trkpt lat="47.21034" lon="-1.60132">
        <ele>47</ele>
        <time>2019-12-08T16:21:13Z</time>
      </trkpt>
      <trkpt lat="47.21037" lon="-1.60171">
        <ele>46</ele>
        <time>2019-12-08T16:21:20Z</time>
      </trkpt>
      <trkpt lat="47.21059" lon="-1.60316">
        <ele>47</ele>
        <time>2019-12-08T16:21:47Z</time>
      </trkpt>
      <trkpt lat="47.21071" lon="-1.60398">
        <ele>46</ele>
        <time>2019-12-08T16:22:02Z</time>
      </trkpt>
      <trkpt lat="47.21074" lon="-1.60421">
        <ele>46</ele>
        <time>2019-12-08T16:22:06Z</time>
      </trkpt>
      <trkpt lat="47.21073" lon="-1.60429">
        <ele>46</ele>
        <time>2019-12-08T16:22:08Z</time>
      </trkpt>
      <trkpt lat="47.21076" lon="-1.60448">
        <ele>46</ele>
        <time>2019-12-08T16:22:11Z</time>
      </trkpt>
      <trkpt lat="47.21077" lon="-1.60453">
        <ele>46</ele>
        <time>2019-12-08T16:22:12Z</time>
      </trkpt>
      <trkpt lat="47.21077" lon="-1.60462">
        <ele>46</ele>
        <time>2019-12-08T16:22:14Z</time>
      </trkpt>
      <trkpt lat="47.21144" lon="-1.6044">
        <ele>47</ele>
        <time>2019-12-08T16:22:32Z</time>
      </trkpt>
      <trkpt lat="47.21155" lon="-1.60449">
        <ele>47</ele>
        <time>2019-12-08T16:22:35Z</time>
      </trkpt>
      <trkpt lat="47.21228" lon="-1.60504">
        <ele>47</ele>
        <time>2019-12-08T16:22:57Z</time>
      </trkpt>
      <trkpt lat="47.21235" lon="-1.60508">
        <ele>47</ele>
        <time>2019-12-08T16:22:59Z</time>
      </trkpt>
      <trkpt lat="47.21269" lon="-1.60522">
        <ele>47</ele>
        <time>2019-12-08T16:23:09Z</time>
      </trkpt>
      <trkpt lat="47.21308" lon="-1.60537">
        <ele>47</ele>
        <time>2019-12-08T16:23:20Z</time>
      </trkpt>
      <trkpt lat="47.21363" lon="-1.60551">
        <ele>47</ele>
        <time>2019-12-08T16:23:34Z</time>
      </trkpt>
      <trkpt lat="47.2137" lon="-1.60553">
        <ele>47</ele>
        <time>2019-12-08T16:23:36Z</time>
      </trkpt>
      <trkpt lat="47.21374" lon="-1.60551">
        <ele>47</ele>
        <time>2019-12-08T16:23:38Z</time>
      </trkpt>
      <trkpt lat="47.21379" lon="-1.6055">
        <ele>47</ele>
        <time>2019-12-08T16:23:39Z</time>
      </trkpt>
      <trkpt lat="47.21381" lon="-1.60564">
        <ele>47</ele>
        <time>2019-12-08T16:23:41Z</time>
      </trkpt>
      <trkpt lat="47.21392" lon="-1.60634">
        <ele>47</ele>
        <time>2019-12-08T16:23:55Z</time>
      </trkpt>
      <trkpt lat="47.21396" lon="-1.60639">
        <ele>47</ele>
        <time>2019-12-08T16:23:56Z</time>
      </trkpt>
      <trkpt lat="47.21399" lon="-1.60653">
        <ele>47</ele>
        <time>2019-12-08T16:23:59Z</time>
      </trkpt>
      <trkpt lat="47.21401" lon="-1.60668">
        <ele>47</ele>
        <time>2019-12-08T16:24:01Z</time>
      </trkpt>
      <trkpt lat="47.21404" lon="-1.60683">
        <ele>47</ele>
        <time>2019-12-08T16:24:04Z</time>
      </trkpt>
      <trkpt lat="47.21407" lon="-1.60692">
        <ele>47</ele>
        <time>2019-12-08T16:24:06Z</time>
      </trkpt>
      <trkpt lat="47.21409" lon="-1.60696">
        <ele>47</ele>
        <time>2019-12-08T16:24:07Z</time>
      </trkpt>
      <trkpt lat="47.21411" lon="-1.60696">
        <ele>47</ele>
        <time>2019-12-08T16:24:07Z</time>
      </trkpt>
      <trkpt lat="47.21414" lon="-1.60696">
        <ele>47</ele>
        <time>2019-12-08T16:24:08Z</time>
      </trkpt>
      <trkpt lat="47.21417" lon="-1.60698">
        <ele>47</ele>
        <time>2019-12-08T16:24:09Z</time>
      </trkpt>
      <trkpt lat="47.2142" lon="-1.60702">
        <ele>47</ele>
        <time>2019-12-08T16:24:10Z</time>
      </trkpt>
      <trkpt lat="47.21422" lon="-1.60708">
        <ele>46</ele>
        <time>2019-12-08T16:24:11Z</time>
      </trkpt>
      <trkpt lat="47.21423" lon="-1.60712">
        <ele>46</ele>
        <time>2019-12-08T16:24:12Z</time>
      </trkpt>
      <trkpt lat="47.21422" lon="-1.60717">
        <ele>46</ele>
        <time>2019-12-08T16:24:13Z</time>
      </trkpt>
      <trkpt lat="47.21421" lon="-1.60721">
        <ele>46</ele>
        <time>2019-12-08T16:24:14Z</time>
      </trkpt>
      <trkpt lat="47.21423" lon="-1.60728">
        <ele>46</ele>
        <time>2019-12-08T16:24:15Z</time>
      </trkpt>
      <trkpt lat="47.21425" lon="-1.60735">
        <ele>46</ele>
        <time>2019-12-08T16:24:17Z</time>
      </trkpt>
      <trkpt lat="47.21427" lon="-1.60741">
        <ele>46</ele>
        <time>2019-12-08T16:24:18Z</time>
      </trkpt>
      <trkpt lat="47.2143" lon="-1.6075">
        <ele>46</ele>
        <time>2019-12-08T16:24:20Z</time>
      </trkpt>
      <trkpt lat="47.21434" lon="-1.60759">
        <ele>46</ele>
        <time>2019-12-08T16:24:22Z</time>
      </trkpt>
      <trkpt lat="47.2145" lon="-1.60783">
        <ele>45</ele>
        <time>2019-12-08T16:24:28Z</time>
      </trkpt>
      <trkpt lat="47.21457" lon="-1.60794">
        <ele>45</ele>
        <time>2019-12-08T16:24:30Z</time>
      </trkpt>
      <trkpt lat="47.2147" lon="-1.60814">
        <ele>45</ele>
        <time>2019-12-08T16:24:36Z</time>
      </trkpt>
      <trkpt lat="47.21486" lon="-1.6084">
        <ele>44</ele>
        <time>2019-12-08T16:24:42Z</time>
      </trkpt>
      <trkpt lat="47.21495" lon="-1.60855">
        <ele>44</ele>
        <time>2019-12-08T16:24:46Z</time>
      </trkpt>
      <trkpt lat="47.21513" lon="-1.60884">
        <ele>45</ele>
        <time>2019-12-08T16:24:53Z</time>
      </trkpt>
      <trkpt lat="47.21534" lon="-1.60917">
        <ele>45</ele>
        <time>2019-12-08T16:25:01Z</time>
      </trkpt>
      <trkpt lat="47.21552" lon="-1.60944">
        <ele>45</ele>
        <time>2019-12-08T16:25:08Z</time>
      </trkpt>
      <trkpt lat="47.21585" lon="-1.60994">
        <ele>46</ele>
        <time>2019-12-08T16:25:20Z</time>
      </trkpt>
      <trkpt lat="47.21613" lon="-1.61035">
        <ele>47</ele>
        <time>2019-12-08T16:25:31Z</time>
      </trkpt>
      <trkpt lat="47.21656" lon="-1.61101">
        <ele>47</ele>
        <time>2019-12-08T16:25:48Z</time>
      </trkpt>
      <trkpt lat="47.21665" lon="-1.61116">
        <ele>47</ele>
        <time>2019-12-08T16:25:51Z</time>
      </trkpt>
      <trkpt lat="47.21687" lon="-1.61151">
        <ele>47</ele>
        <time>2019-12-08T16:26:00Z</time>
      </trkpt>
      <trkpt lat="47.21702" lon="-1.6118">
        <ele>47</ele>
        <time>2019-12-08T16:26:06Z</time>
      </trkpt>
      <trkpt lat="47.21712" lon="-1.61201">
        <ele>47</ele>
        <time>2019-12-08T16:26:11Z</time>
      </trkpt>
      <trkpt lat="47.21717" lon="-1.61211">
        <ele>47</ele>
        <time>2019-12-08T16:26:13Z</time>
      </trkpt>
      <trkpt lat="47.21718" lon="-1.61211">
        <ele>47</ele>
        <time>2019-12-08T16:26:14Z</time>
      </trkpt>
      <trkpt lat="47.2172" lon="-1.61211">
        <ele>47</ele>
        <time>2019-12-08T16:26:14Z</time>
      </trkpt>
      <trkpt lat="47.21721" lon="-1.61211">
        <ele>47</ele>
        <time>2019-12-08T16:26:14Z</time>
      </trkpt>
      <trkpt lat="47.21722" lon="-1.61212">
        <ele>47</ele>
        <time>2019-12-08T16:26:15Z</time>
      </trkpt>
      <trkpt lat="47.21723" lon="-1.61212">
        <ele>47</ele>
        <time>2019-12-08T16:26:15Z</time>
      </trkpt>
      <trkpt lat="47.21724" lon="-1.61213">
        <ele>47</ele>
        <time>2019-12-08T16:26:15Z</time>
      </trkpt>
      <trkpt lat="47.21725" lon="-1.61214">
        <ele>47</ele>
        <time>2019-12-08T16:26:16Z</time>
      </trkpt>
      <trkpt lat="47.21727" lon="-1.61215">
        <ele>47</ele>
        <time>2019-12-08T16:26:16Z</time>
      </trkpt>
      <trkpt lat="47.21728" lon="-1.61216">
        <ele>47</ele>
        <time>2019-12-08T16:26:17Z</time>
      </trkpt>
      <trkpt lat="47.21729" lon="-1.61218">
        <ele>47</ele>
        <time>2019-12-08T16:26:17Z</time>
      </trkpt>
      <trkpt lat="47.21729" lon="-1.61219">
        <ele>47</ele>
        <time>2019-12-08T16:26:17Z</time>
      </trkpt>
      <trkpt lat="47.2173" lon="-1.61221">
        <ele>47</ele>
        <time>2019-12-08T16:26:18Z</time>
      </trkpt>
      <trkpt lat="47.21731" lon="-1.61223">
        <ele>47</ele>
        <time>2019-12-08T16:26:18Z</time>
      </trkpt>
      <trkpt lat="47.21731" lon="-1.61225">
        <ele>47</ele>
        <time>2019-12-08T16:26:18Z</time>
      </trkpt>
      <trkpt lat="47.21732" lon="-1.61227">
        <ele>47</ele>
        <time>2019-12-08T16:26:19Z</time>
      </trkpt>
      <trkpt lat="47.21732" lon="-1.61229">
        <ele>47</ele>
        <time>2019-12-08T16:26:19Z</time>
      </trkpt>
      <trkpt lat="47.21732" lon="-1.61231">
        <ele>47</ele>
        <time>2019-12-08T16:26:20Z</time>
      </trkpt>
      <trkpt lat="47.21732" lon="-1.61233">
        <ele>47</ele>
        <time>2019-12-08T16:26:20Z</time>
      </trkpt>
      <trkpt lat="47.21731" lon="-1.61235">
        <ele>47</ele>
        <time>2019-12-08T16:26:20Z</time>
      </trkpt>
      <trkpt lat="47.21731" lon="-1.61237">
        <ele>47</ele>
        <time>2019-12-08T16:26:21Z</time>
      </trkpt>
      <trkpt lat="47.2173" lon="-1.61239">
        <ele>47</ele>
        <time>2019-12-08T16:26:21Z</time>
      </trkpt>
      <trkpt lat="47.21734" lon="-1.61255">
        <ele>47</ele>
        <time>2019-12-08T16:26:24Z</time>
      </trkpt>
      <trkpt lat="47.21746" lon="-1.61289">
        <ele>47</ele>
        <time>2019-12-08T16:26:31Z</time>
      </trkpt>
      <trkpt lat="47.21752" lon="-1.61307">
        <ele>47</ele>
        <time>2019-12-08T16:26:35Z</time>
      </trkpt>
      <trkpt lat="47.21757" lon="-1.61323">
        <ele>46</ele>
        <time>2019-12-08T16:26:38Z</time>
      </trkpt>
      <trkpt lat="47.21766" lon="-1.61355">
        <ele>46</ele>
        <time>2019-12-08T16:26:44Z</time>
      </trkpt>
      <trkpt lat="47.21774" lon="-1.61381">
        <ele>46</ele>
        <time>2019-12-08T16:26:50Z</time>
      </trkpt>
      <trkpt lat="47.21781" lon="-1.61414">
        <ele>46</ele>
        <time>2019-12-08T16:26:56Z</time>
      </trkpt>
      <trkpt lat="47.21782" lon="-1.61421">
        <ele>46</ele>
        <time>2019-12-08T16:26:57Z</time>
      </trkpt>
      <trkpt lat="47.21785" lon="-1.61436">
        <ele>46</ele>
        <time>2019-12-08T16:27:00Z</time>
      </trkpt>
      <trkpt lat="47.21787" lon="-1.61444">
        <ele>46</ele>
        <time>2019-12-08T16:27:02Z</time>
      </trkpt>
      <trkpt lat="47.21789" lon="-1.61449">
        <ele>46</ele>
        <time>2019-12-08T16:27:03Z</time>
      </trkpt>
      <trkpt lat="47.2179" lon="-1.6145">
        <ele>46</ele>
        <time>2019-12-08T16:27:03Z</time>
      </trkpt>
      <trkpt lat="47.21791" lon="-1.61451">
        <ele>46</ele>
        <time>2019-12-08T16:27:03Z</time>
      </trkpt>
      <trkpt lat="47.21792" lon="-1.61452">
        <ele>46</ele>
        <time>2019-12-08T16:27:04Z</time>
      </trkpt>
      <trkpt lat="47.21793" lon="-1.61453">
        <ele>46</ele>
        <time>2019-12-08T16:27:04Z</time>
      </trkpt>
      <trkpt lat="47.21794" lon="-1.61454">
        <ele>46</ele>
        <time>2019-12-08T16:27:04Z</time>
      </trkpt>
      <trkpt lat="47.21795" lon="-1.61455">
        <ele>46</ele>
        <time>2019-12-08T16:27:05Z</time>
      </trkpt>
      <trkpt lat="47.21796" lon="-1.61457">
        <ele>46</ele>
        <time>2019-12-08T16:27:05Z</time>
      </trkpt>
      <trkpt lat="47.21796" lon="-1.61459">
        <ele>46</ele>
        <time>2019-12-08T16:27:05Z</time>
      </trkpt>
      <trkpt lat="47.21797" lon="-1.61461">
        <ele>46</ele>
        <time>2019-12-08T16:27:06Z</time>
      </trkpt>
      <trkpt lat="47.21797" lon="-1.61463">
        <ele>46</ele>
        <time>2019-12-08T16:27:06Z</time>
      </trkpt>
      <trkpt lat="47.21798" lon="-1.61465">
        <ele>46</ele>
        <time>2019-12-08T16:27:07Z</time>
      </trkpt>
      <trkpt lat="47.21798" lon="-1.61467">
        <ele>46</ele>
        <time>2019-12-08T16:27:07Z</time>
      </trkpt>
      <trkpt lat="47.21798" lon="-1.61469">
        <ele>46</ele>
        <time>2019-12-08T16:27:07Z</time>
      </trkpt>
      <trkpt lat="47.21798" lon="-1.61472">
        <ele>46</ele>
        <time>2019-12-08T16:27:08Z</time>
      </trkpt>
      <trkpt lat="47.21797" lon="-1.61474">
        <ele>46</ele>
        <time>2019-12-08T16:27:08Z</time>
      </trkpt>
      <trkpt lat="47.21797" lon="-1.61476">
        <ele>46</ele>
        <time>2019-12-08T16:27:09Z</time>
      </trkpt>
      <trkpt lat="47.21796" lon="-1.61477">
        <ele>46</ele>
        <time>2019-12-08T16:27:09Z</time>
      </trkpt>
      <trkpt lat="47.21795" lon="-1.61479">
        <ele>46</ele>
        <time>2019-12-08T16:27:09Z</time>
      </trkpt>
      <trkpt lat="47.21794" lon="-1.61481">
        <ele>46</ele>
        <time>2019-12-08T16:27:10Z</time>
      </trkpt>
      <trkpt lat="47.21801" lon="-1.61515">
        <ele>46</ele>
        <time>2019-12-08T16:27:16Z</time>
      </trkpt>
      <trkpt lat="47.21811" lon="-1.61561">
        <ele>47</ele>
        <time>2019-12-08T16:27:25Z</time>
      </trkpt>
      <trkpt lat="47.21835" lon="-1.61677">
        <ele>46</ele>
        <time>2019-12-08T16:27:47Z</time>
      </trkpt>
      <trkpt lat="47.21861" lon="-1.61798">
        <ele>45</ele>
        <time>2019-12-08T16:28:10Z</time>
      </trkpt>
      <trkpt lat="47.21901" lon="-1.61991">
        <ele>44</ele>
        <time>2019-12-08T16:28:47Z</time>
      </trkpt>
      <trkpt lat="47.21907" lon="-1.62009">
        <ele>44</ele>
        <time>2019-12-08T16:28:50Z</time>
      </trkpt>
      <trkpt lat="47.21914" lon="-1.62042">
        <ele>44</ele>
        <time>2019-12-08T16:28:57Z</time>
      </trkpt>
      <trkpt lat="47.21919" lon="-1.62069">
        <ele>44</ele>
        <time>2019-12-08T16:29:02Z</time>
      </trkpt>
      <trkpt lat="47.21926" lon="-1.62101">
        <ele>45</ele>
        <time>2019-12-08T16:29:08Z</time>
      </trkpt>
      <trkpt lat="47.21927" lon="-1.6212">
        <ele>45</ele>
        <time>2019-12-08T16:29:11Z</time>
      </trkpt>
      <trkpt lat="47.21928" lon="-1.62127">
        <ele>45</ele>
        <time>2019-12-08T16:29:13Z</time>
      </trkpt>
      <trkpt lat="47.21931" lon="-1.62139">
        <ele>45</ele>
        <time>2019-12-08T16:29:15Z</time>
      </trkpt>
      <trkpt lat="47.21932" lon="-1.6214">
        <ele>45</ele>
        <time>2019-12-08T16:29:15Z</time>
      </trkpt>
      <trkpt lat="47.21936" lon="-1.62144">
        <ele>45</ele>
        <time>2019-12-08T16:29:17Z</time>
      </trkpt>
      <trkpt lat="47.21939" lon="-1.6215">
        <ele>45</ele>
        <time>2019-12-08T16:29:18Z</time>
      </trkpt>
      <trkpt lat="47.2194" lon="-1.62156">
        <ele>45</ele>
        <time>2019-12-08T16:29:19Z</time>
      </trkpt>
      <trkpt lat="47.2194" lon="-1.62162">
        <ele>45</ele>
        <time>2019-12-08T16:29:20Z</time>
      </trkpt>
      <trkpt lat="47.21937" lon="-1.6217">
        <ele>45</ele>
        <time>2019-12-08T16:29:22Z</time>
      </trkpt>
      <trkpt lat="47.2194" lon="-1.62183">
        <ele>45</ele>
        <time>2019-12-08T16:29:24Z</time>
      </trkpt>
      <trkpt lat="47.21959" lon="-1.62286">
        <ele>44</ele>
        <time>2019-12-08T16:29:44Z</time>
      </trkpt>
      <trkpt lat="47.21973" lon="-1.62356">
        <ele>43</ele>
        <time>2019-12-08T16:29:57Z</time>
      </trkpt>
      <trkpt lat="47.21975" lon="-1.62363">
        <ele>43</ele>
        <time>2019-12-08T16:29:58Z</time>
      </trkpt>
      <trkpt lat="47.21978" lon="-1.62377">
        <ele>43</ele>
        <time>2019-12-08T16:30:01Z</time>
      </trkpt>
      <trkpt lat="47.2198" lon="-1.62378">
        <ele>43</ele>
        <time>2019-12-08T16:30:01Z</time>
      </trkpt>
      <trkpt lat="47.21987" lon="-1.6238">
        <ele>43</ele>
        <time>2019-12-08T16:30:03Z</time>
      </trkpt>
      <trkpt lat="47.21993" lon="-1.6238">
        <ele>42</ele>
        <time>2019-12-08T16:30:05Z</time>
      </trkpt>
      <trkpt lat="47.22014" lon="-1.62374">
        <ele>42</ele>
        <time>2019-12-08T16:30:11Z</time>
      </trkpt>
      <trkpt lat="47.22017" lon="-1.62372">
        <ele>42</ele>
        <time>2019-12-08T16:30:12Z</time>
      </trkpt>
      <trkpt lat="47.22059" lon="-1.62349">
        <ele>41</ele>
        <time>2019-12-08T16:30:24Z</time>
      </trkpt>
      <trkpt lat="47.22084" lon="-1.62336">
        <ele>42</ele>
        <time>2019-12-08T16:30:31Z</time>
      </trkpt>
      <trkpt lat="47.22137" lon="-1.62307">
        <ele>42</ele>
        <time>2019-12-08T16:30:46Z</time>
      </trkpt>
      <trkpt lat="47.22149" lon="-1.623">
        <ele>42</ele>
        <time>2019-12-08T16:30:49Z</time>
      </trkpt>
      <trkpt lat="47.22168" lon="-1.62289">
        <ele>42</ele>
        <time>2019-12-08T16:30:55Z</time>
      </trkpt>
      <trkpt lat="47.2217" lon="-1.62287">
        <ele>42</ele>
        <time>2019-12-08T16:30:55Z</time>
      </trkpt>
      <trkpt lat="47.22174" lon="-1.62284">
        <ele>42</ele>
        <time>2019-12-08T16:30:56Z</time>
      </trkpt>
      <trkpt lat="47.22178" lon="-1.62277">
        <ele>42</ele>
        <time>2019-12-08T16:30:58Z</time>
      </trkpt>
      <trkpt lat="47.22182" lon="-1.6227">
        <ele>42</ele>
        <time>2019-12-08T16:31:00Z</time>
      </trkpt>
      <trkpt lat="47.22186" lon="-1.62266">
        <ele>42</ele>
        <time>2019-12-08T16:31:01Z</time>
      </trkpt>
      <trkpt lat="47.22212" lon="-1.6226">
        <ele>42</ele>
        <time>2019-12-08T16:31:08Z</time>
      </trkpt>
      <trkpt lat="47.22241" lon="-1.62254">
        <ele>43</ele>
        <time>2019-12-08T16:31:16Z</time>
      </trkpt>
      <trkpt lat="47.2226" lon="-1.62274">
        <ele>43</ele>
        <time>2019-12-08T16:31:22Z</time>
      </trkpt>
      <trkpt lat="47.22272" lon="-1.62289">
        <ele>43</ele>
        <time>2019-12-08T16:31:26Z</time>
      </trkpt>
      <trkpt lat="47.22283" lon="-1.62298">
        <ele>44</ele>
        <time>2019-12-08T16:31:30Z</time>
      </trkpt>
      <trkpt lat="47.22289" lon="-1.62304">
        <ele>44</ele>
        <time>2019-12-08T16:31:32Z</time>
      </trkpt>
      <trkpt lat="47.22296" lon="-1.62312">
        <ele>44</ele>
        <time>2019-12-08T16:31:34Z</time>
      </trkpt>
      <trkpt lat="47.22309" lon="-1.62325">
        <ele>45</ele>
        <time>2019-12-08T16:31:38Z</time>
      </trkpt>
      <trkpt lat="47.22313" lon="-1.6233">
        <ele>45</ele>
        <time>2019-12-08T16:31:40Z</time>
      </trkpt>
      <trkpt lat="47.2232" lon="-1.62337">
        <ele>46</ele>
        <time>2019-12-08T16:31:42Z</time>
      </trkpt>
      <trkpt lat="47.22332" lon="-1.62348">
        <ele>46</ele>
        <time>2019-12-08T16:31:46Z</time>
      </trkpt>
      <trkpt lat="47.22344" lon="-1.6236">
        <ele>47</ele>
        <time>2019-12-08T16:31:50Z</time>
      </trkpt>
      <trkpt lat="47.22355" lon="-1.62371">
        <ele>47</ele>
        <time>2019-12-08T16:31:53Z</time>
      </trkpt>
      <trkpt lat="47.22363" lon="-1.62379">
        <ele>47</ele>
        <time>2019-12-08T16:31:56Z</time>
      </trkpt>
      <trkpt lat="47.22373" lon="-1.6238">
        <ele>47</ele>
        <time>2019-12-08T16:31:58Z</time>
      </trkpt>
      <trkpt lat="47.2238" lon="-1.62374">
        <ele>47</ele>
        <time>2019-12-08T16:32:01Z</time>
      </trkpt>
      <trkpt lat="47.22398" lon="-1.62368">
        <ele>48</ele>
        <time>2019-12-08T16:32:05Z</time>
      </trkpt>
      <trkpt lat="47.22408" lon="-1.62365">
        <ele>48</ele>
        <time>2019-12-08T16:32:08Z</time>
      </trkpt>
      <trkpt lat="47.22418" lon="-1.62361">
        <ele>48</ele>
        <time>2019-12-08T16:32:11Z</time>
      </trkpt>
      <trkpt lat="47.22435" lon="-1.62356">
        <ele>48</ele>
        <time>2019-12-08T16:32:16Z</time>
      </trkpt>
      <trkpt lat="47.22446" lon="-1.62366">
        <ele>48</ele>
        <time>2019-12-08T16:32:19Z</time>
      </trkpt>
      <trkpt lat="47.22447" lon="-1.62372">
        <ele>48</ele>
        <time>2019-12-08T16:32:20Z</time>
      </trkpt>
      <trkpt lat="47.22451" lon="-1.62394">
        <ele>49</ele>
        <time>2019-12-08T16:32:24Z</time>
      </trkpt>
      <trkpt lat="47.22452" lon="-1.62399">
        <ele>49</ele>
        <time>2019-12-08T16:32:25Z</time>
      </trkpt>
      <trkpt lat="47.22453" lon="-1.62406">
        <ele>49</ele>
        <time>2019-12-08T16:32:27Z</time>
      </trkpt>
      <trkpt lat="47.22455" lon="-1.62419">
        <ele>49</ele>
        <time>2019-12-08T16:32:29Z</time>
      </trkpt>
      <trkpt lat="47.22459" lon="-1.62443">
        <ele>49</ele>
        <time>2019-12-08T16:32:33Z</time>
      </trkpt>
      <trkpt lat="47.22463" lon="-1.6247">
        <ele>49</ele>
        <time>2019-12-08T16:32:38Z</time>
      </trkpt>
      <trkpt lat="47.22466" lon="-1.62479">
        <ele>49</ele>
        <time>2019-12-08T16:32:40Z</time>
      </trkpt>
      <trkpt lat="47.22504" lon="-1.62585">
        <ele>49</ele>
        <time>2019-12-08T16:33:02Z</time>
      </trkpt>
      <trkpt lat="47.22509" lon="-1.62597">
        <ele>48</ele>
        <time>2019-12-08T16:33:05Z</time>
      </trkpt>
      <trkpt lat="47.22511" lon="-1.62602">
        <ele>48</ele>
        <time>2019-12-08T16:33:06Z</time>
      </trkpt>
      <trkpt lat="47.22567" lon="-1.6266">
        <ele>46</ele>
        <time>2019-12-08T16:33:24Z</time>
      </trkpt>
      <trkpt lat="47.22569" lon="-1.62657">
        <ele>46</ele>
        <time>2019-12-08T16:33:25Z</time>
      </trkpt>
      <trkpt lat="47.22572" lon="-1.62655">
        <ele>46</ele>
        <time>2019-12-08T16:33:26Z</time>
      </trkpt>
      <trkpt lat="47.22575" lon="-1.62655">
        <ele>45</ele>
        <time>2019-12-08T16:33:26Z</time>
      </trkpt>
      <trkpt lat="47.22578" lon="-1.62657">
        <ele>45</ele>
        <time>2019-12-08T16:33:27Z</time>
      </trkpt>
      <trkpt lat="47.2258" lon="-1.6266">
        <ele>45</ele>
        <time>2019-12-08T16:33:28Z</time>
      </trkpt>
      <trkpt lat="47.22582" lon="-1.62664">
        <ele>45</ele>
        <time>2019-12-08T16:33:29Z</time>
      </trkpt>
      <trkpt lat="47.22582" lon="-1.62669">
        <ele>45</ele>
        <time>2019-12-08T16:33:30Z</time>
      </trkpt>
      <trkpt lat="47.22581" lon="-1.62673">
        <ele>45</ele>
        <time>2019-12-08T16:33:31Z</time>
      </trkpt>
      <trkpt lat="47.22579" lon="-1.62677">
        <ele>45</ele>
        <time>2019-12-08T16:33:32Z</time>
      </trkpt>
      <trkpt lat="47.22609" lon="-1.62846">
        <ele>42</ele>
        <time>2019-12-08T16:34:03Z</time>
      </trkpt>
      <trkpt lat="47.22612" lon="-1.62847">
        <ele>42</ele>
        <time>2019-12-08T16:34:04Z</time>
      </trkpt>
      <trkpt lat="47.22616" lon="-1.62849">
        <ele>42</ele>
        <time>2019-12-08T16:34:05Z</time>
      </trkpt>
      <trkpt lat="47.22619" lon="-1.62856">
        <ele>42</ele>
        <time>2019-12-08T16:34:07Z</time>
      </trkpt>
      <trkpt lat="47.22619" lon="-1.62863">
        <ele>42</ele>
        <time>2019-12-08T16:34:08Z</time>
      </trkpt>
      <trkpt lat="47.22618" lon="-1.62865">
        <ele>42</ele>
        <time>2019-12-08T16:34:08Z</time>
      </trkpt>
      <trkpt lat="47.22623" lon="-1.62872">
        <ele>42</ele>
        <time>2019-12-08T16:34:10Z</time>
      </trkpt>
      <trkpt lat="47.22623" lon="-1.62882">
        <ele>42</ele>
        <time>2019-12-08T16:34:12Z</time>
      </trkpt>
      <trkpt lat="47.22659" lon="-1.63072">
        <ele>41</ele>
        <time>2019-12-08T16:34:48Z</time>
      </trkpt>
      <trkpt lat="47.22662" lon="-1.63084">
        <ele>41</ele>
        <time>2019-12-08T16:34:50Z</time>
      </trkpt>
      <trkpt lat="47.2267" lon="-1.63097">
        <ele>42</ele>
        <time>2019-12-08T16:34:53Z</time>
      </trkpt>
      <trkpt lat="47.22674" lon="-1.63118">
        <ele>42</ele>
        <time>2019-12-08T16:34:57Z</time>
      </trkpt>
      <trkpt lat="47.22673" lon="-1.63133">
        <ele>42</ele>
        <time>2019-12-08T16:35:00Z</time>
      </trkpt>
      <trkpt lat="47.22721" lon="-1.63335">
        <ele>45</ele>
        <time>2019-12-08T16:35:39Z</time>
      </trkpt>
      <trkpt lat="47.22723" lon="-1.63349">
        <ele>45</ele>
        <time>2019-12-08T16:35:41Z</time>
      </trkpt>
      <trkpt lat="47.22723" lon="-1.63368">
        <ele>46</ele>
        <time>2019-12-08T16:35:45Z</time>
      </trkpt>
      <trkpt lat="47.22717" lon="-1.6339">
        <ele>46</ele>
        <time>2019-12-08T16:35:49Z</time>
      </trkpt>
      <trkpt lat="47.22709" lon="-1.63407">
        <ele>46</ele>
        <time>2019-12-08T16:35:53Z</time>
      </trkpt>
      <trkpt lat="47.22675" lon="-1.63445">
        <ele>47</ele>
        <time>2019-12-08T16:36:04Z</time>
      </trkpt>
      <trkpt lat="47.22673" lon="-1.63452">
        <ele>47</ele>
        <time>2019-12-08T16:36:06Z</time>
      </trkpt>
      <trkpt lat="47.22667" lon="-1.63452">
        <ele>47</ele>
        <time>2019-12-08T16:36:07Z</time>
      </trkpt>
      <trkpt lat="47.22667" lon="-1.63454">
        <ele>47</ele>
        <time>2019-12-08T16:36:08Z</time>
      </trkpt>
      <trkpt lat="47.22667" lon="-1.63456">
        <ele>47</ele>
        <time>2019-12-08T16:36:08Z</time>
      </trkpt>
      <trkpt lat="47.22671" lon="-1.63464">
        <ele>47</ele>
        <time>2019-12-08T16:36:10Z</time>
      </trkpt>
      <trkpt lat="47.22675" lon="-1.6347">
        <ele>47</ele>
        <time>2019-12-08T16:36:11Z</time>
      </trkpt>
      <trkpt lat="47.22679" lon="-1.63473">
        <ele>47</ele>
        <time>2019-12-08T16:36:13Z</time>
      </trkpt>
      <trkpt lat="47.22687" lon="-1.63478">
        <ele>47</ele>
        <time>2019-12-08T16:36:15Z</time>
      </trkpt>
      <trkpt lat="47.22695" lon="-1.6348">
        <ele>47</ele>
        <time>2019-12-08T16:36:17Z</time>
      </trkpt>
      <trkpt lat="47.22715" lon="-1.63484">
        <ele>47</ele>
        <time>2019-12-08T16:36:22Z</time>
      </trkpt>
      <trkpt lat="47.22728" lon="-1.63487">
        <ele>47</ele>
        <time>2019-12-08T16:36:26Z</time>
      </trkpt>
      <trkpt lat="47.22743" lon="-1.63491">
        <ele>47</ele>
        <time>2019-12-08T16:36:30Z</time>
      </trkpt>
      <trkpt lat="47.22751" lon="-1.63494">
        <ele>47</ele>
        <time>2019-12-08T16:36:32Z</time>
      </trkpt>
      <trkpt lat="47.22754" lon="-1.63498">
        <ele>47</ele>
        <time>2019-12-08T16:36:33Z</time>
      </trkpt>
      <trkpt lat="47.22756" lon="-1.63502">
        <ele>47</ele>
        <time>2019-12-08T16:36:34Z</time>
      </trkpt>
      <trkpt lat="47.22758" lon="-1.63515">
        <ele>47</ele>
        <time>2019-12-08T16:36:37Z</time>
      </trkpt>
      <trkpt lat="47.22761" lon="-1.63529">
        <ele>47</ele>
        <time>2019-12-08T16:36:39Z</time>
      </trkpt>
      <trkpt lat="47.22763" lon="-1.6354">
        <ele>47</ele>
        <time>2019-12-08T16:36:41Z</time>
      </trkpt>
      <trkpt lat="47.22766" lon="-1.6355">
        <ele>47</ele>
        <time>2019-12-08T16:36:43Z</time>
      </trkpt>
      <trkpt lat="47.22768" lon="-1.63554">
        <ele>47</ele>
        <time>2019-12-08T16:36:44Z</time>
      </trkpt>
      <trkpt lat="47.22772" lon="-1.63548">
        <ele>47</ele>
        <time>2019-12-08T16:36:46Z</time>
      </trkpt>
      <trkpt lat="47.22775" lon="-1.63545">
        <ele>47</ele>
        <time>2019-12-08T16:36:47Z</time>
      </trkpt>
      <trkpt lat="47.22777" lon="-1.63543">
        <ele>47</ele>
        <time>2019-12-08T16:36:47Z</time>
      </trkpt>
      <trkpt lat="47.22779" lon="-1.63542">
        <ele>47</ele>
        <time>2019-12-08T16:36:48Z</time>
      </trkpt>
      <trkpt lat="47.22782" lon="-1.63541">
        <ele>48</ele>
        <time>2019-12-08T16:36:49Z</time>
      </trkpt>
      <trkpt lat="47.22785" lon="-1.63541">
        <ele>48</ele>
        <time>2019-12-08T16:36:50Z</time>
      </trkpt>
      <trkpt lat="47.22787" lon="-1.63542">
        <ele>48</ele>
        <time>2019-12-08T16:36:50Z</time>
      </trkpt>
      <trkpt lat="47.22789" lon="-1.63542">
        <ele>48</ele>
        <time>2019-12-08T16:36:51Z</time>
      </trkpt>
      <trkpt lat="47.22793" lon="-1.63543">
        <ele>48</ele>
        <time>2019-12-08T16:36:52Z</time>
      </trkpt>
      <trkpt lat="47.22795" lon="-1.63544">
        <ele>48</ele>
        <time>2019-12-08T16:36:52Z</time>
      </trkpt>
      <trkpt lat="47.22798" lon="-1.63544">
        <ele>48</ele>
        <time>2019-12-08T16:36:53Z</time>
      </trkpt>
      <trkpt lat="47.228" lon="-1.63544">
        <ele>48</ele>
        <time>2019-12-08T16:36:54Z</time>
      </trkpt>
      <trkpt lat="47.22802" lon="-1.63542">
        <ele>48</ele>
        <time>2019-12-08T16:36:54Z</time>
      </trkpt>
      <trkpt lat="47.22817" lon="-1.63524">
        <ele>48</ele>
        <time>2019-12-08T16:37:00Z</time>
      </trkpt>
      <trkpt lat="47.22819" lon="-1.63521">
        <ele>48</ele>
        <time>2019-12-08T16:37:00Z</time>
      </trkpt>
      <trkpt lat="47.22821" lon="-1.63518">
        <ele>48</ele>
        <time>2019-12-08T16:37:01Z</time>
      </trkpt>
      <trkpt lat="47.22821" lon="-1.63515">
        <ele>48</ele>
        <time>2019-12-08T16:37:02Z</time>
      </trkpt>
      <trkpt lat="47.2282" lon="-1.63511">
        <ele>48</ele>
        <time>2019-12-08T16:37:02Z</time>
      </trkpt>
      <trkpt lat="47.2282" lon="-1.63507">
        <ele>48</ele>
        <time>2019-12-08T16:37:03Z</time>
      </trkpt>
      <trkpt lat="47.2282" lon="-1.63504">
        <ele>48</ele>
        <time>2019-12-08T16:37:04Z</time>
      </trkpt>
      <trkpt lat="47.22821" lon="-1.635">
        <ele>48</ele>
        <time>2019-12-08T16:37:04Z</time>
      </trkpt>
      <trkpt lat="47.22821" lon="-1.63497">
        <ele>48</ele>
        <time>2019-12-08T16:37:05Z</time>
      </trkpt>
      <trkpt lat="47.22822" lon="-1.63494">
        <ele>48</ele>
        <time>2019-12-08T16:37:06Z</time>
      </trkpt>
      <trkpt lat="47.22823" lon="-1.63491">
        <ele>48</ele>
        <time>2019-12-08T16:37:06Z</time>
      </trkpt>
      <trkpt lat="47.22826" lon="-1.63486">
        <ele>48</ele>
        <time>2019-12-08T16:37:07Z</time>
      </trkpt>
      <trkpt lat="47.22828" lon="-1.63482">
        <ele>48</ele>
        <time>2019-12-08T16:37:08Z</time>
      </trkpt>
      <trkpt lat="47.22831" lon="-1.63479">
        <ele>48</ele>
        <time>2019-12-08T16:37:09Z</time>
      </trkpt>
      <trkpt lat="47.22834" lon="-1.63477">
        <ele>48</ele>
        <time>2019-12-08T16:37:10Z</time>
      </trkpt>
      <trkpt lat="47.22836" lon="-1.63477">
        <ele>48</ele>
        <time>2019-12-08T16:37:11Z</time>
      </trkpt>
      <trkpt lat="47.22838" lon="-1.63476">
        <ele>48</ele>
        <time>2019-12-08T16:37:11Z</time>
      </trkpt>
      <trkpt lat="47.2284" lon="-1.63476">
        <ele>48</ele>
        <time>2019-12-08T16:37:12Z</time>
      </trkpt>
      <trkpt lat="47.22843" lon="-1.63476">
        <ele>48</ele>
        <time>2019-12-08T16:37:13Z</time>
      </trkpt>
      <trkpt lat="47.22846" lon="-1.63476">
        <ele>48</ele>
        <time>2019-12-08T16:37:13Z</time>
      </trkpt>
      <trkpt lat="47.2285" lon="-1.63478">
        <ele>48</ele>
        <time>2019-12-08T16:37:14Z</time>
      </trkpt>
      <trkpt lat="47.22852" lon="-1.6348">
        <ele>48</ele>
        <time>2019-12-08T16:37:15Z</time>
      </trkpt>
      <trkpt lat="47.22854" lon="-1.63482">
        <ele>48</ele>
        <time>2019-12-08T16:37:16Z</time>
      </trkpt>
      <trkpt lat="47.22856" lon="-1.63485">
        <ele>48</ele>
        <time>2019-12-08T16:37:17Z</time>
      </trkpt>
      <trkpt lat="47.2287" lon="-1.63474">
        <ele>48</ele>
        <time>2019-12-08T16:37:21Z</time>
      </trkpt>
      <trkpt lat="47.22941" lon="-1.63391">
        <ele>48</ele>
        <time>2019-12-08T16:37:45Z</time>
      </trkpt>
      <trkpt lat="47.22945" lon="-1.63387">
        <ele>48</ele>
        <time>2019-12-08T16:37:46Z</time>
      </trkpt>
      <trkpt lat="47.22944" lon="-1.63386">
        <ele>48</ele>
        <time>2019-12-08T16:37:47Z</time>
      </trkpt>
      <trkpt lat="47.22944" lon="-1.63384">
        <ele>48</ele>
        <time>2019-12-08T16:37:47Z</time>
      </trkpt>
      <trkpt lat="47.22944" lon="-1.63383">
        <ele>48</ele>
        <time>2019-12-08T16:37:47Z</time>
      </trkpt>
      <trkpt lat="47.22944" lon="-1.63382">
        <ele>48</ele>
        <time>2019-12-08T16:37:47Z</time>
      </trkpt>
      <trkpt lat="47.22944" lon="-1.63381">
        <ele>48</ele>
        <time>2019-12-08T16:37:48Z</time>
      </trkpt>
      <trkpt lat="47.22944" lon="-1.63379">
        <ele>48</ele>
        <time>2019-12-08T16:37:48Z</time>
      </trkpt>
      <trkpt lat="47.22944" lon="-1.63378">
        <ele>48</ele>
        <time>2019-12-08T16:37:48Z</time>
      </trkpt>
      <trkpt lat="47.22944" lon="-1.63377">
        <ele>48</ele>
        <time>2019-12-08T16:37:48Z</time>
      </trkpt>
      <trkpt lat="47.22944" lon="-1.63376">
        <ele>48</ele>
        <time>2019-12-08T16:37:48Z</time>
      </trkpt>
      <trkpt lat="47.22945" lon="-1.63374">
        <ele>48</ele>
        <time>2019-12-08T16:37:49Z</time>
      </trkpt>
      <trkpt lat="47.22945" lon="-1.63373">
        <ele>48</ele>
        <time>2019-12-08T16:37:49Z</time>
      </trkpt>
      <trkpt lat="47.22946" lon="-1.63372">
        <ele>48</ele>
        <time>2019-12-08T16:37:49Z</time>
      </trkpt>
      <trkpt lat="47.22946" lon="-1.63371">
        <ele>48</ele>
        <time>2019-12-08T16:37:50Z</time>
      </trkpt>
      <trkpt lat="47.22947" lon="-1.6337">
        <ele>48</ele>
        <time>2019-12-08T16:37:50Z</time>
      </trkpt>
      <trkpt lat="47.22948" lon="-1.6337">
        <ele>48</ele>
        <time>2019-12-08T16:37:50Z</time>
      </trkpt>
      <trkpt lat="47.22949" lon="-1.63369">
        <ele>48</ele>
        <time>2019-12-08T16:37:50Z</time>
      </trkpt>
      <trkpt lat="47.22949" lon="-1.63368">
        <ele>48</ele>
        <time>2019-12-08T16:37:51Z</time>
      </trkpt>
      <trkpt lat="47.2295" lon="-1.63368">
        <ele>48</ele>
        <time>2019-12-08T16:37:51Z</time>
      </trkpt>
      <trkpt lat="47.22951" lon="-1.63368">
        <ele>48</ele>
        <time>2019-12-08T16:37:51Z</time>
      </trkpt>
      <trkpt lat="47.22952" lon="-1.63368">
        <ele>48</ele>
        <time>2019-12-08T16:37:51Z</time>
      </trkpt>
      <trkpt lat="47.22953" lon="-1.63368">
        <ele>48</ele>
        <time>2019-12-08T16:37:52Z</time>
      </trkpt>
      <trkpt lat="47.22954" lon="-1.63368">
        <ele>48</ele>
        <time>2019-12-08T16:37:52Z</time>
      </trkpt>
      <trkpt lat="47.22955" lon="-1.63368">
        <ele>48</ele>
        <time>2019-12-08T16:37:52Z</time>
      </trkpt>
      <trkpt lat="47.22955" lon="-1.63368">
        <ele>48</ele>
        <time>2019-12-08T16:37:52Z</time>
      </trkpt>
      <trkpt lat="47.22956" lon="-1.63369">
        <ele>48</ele>
        <time>2019-12-08T16:37:53Z</time>
      </trkpt>
      <trkpt lat="47.22957" lon="-1.63369">
        <ele>48</ele>
        <time>2019-12-08T16:37:53Z</time>
      </trkpt>
      <trkpt lat="47.22958" lon="-1.6337">
        <ele>48</ele>
        <time>2019-12-08T16:37:53Z</time>
      </trkpt>
      <trkpt lat="47.22959" lon="-1.63371">
        <ele>48</ele>
        <time>2019-12-08T16:37:53Z</time>
      </trkpt>
      <trkpt lat="47.22959" lon="-1.63372">
        <ele>48</ele>
        <time>2019-12-08T16:37:54Z</time>
      </trkpt>
      <trkpt lat="47.2296" lon="-1.63373">
        <ele>48</ele>
        <time>2019-12-08T16:37:54Z</time>
      </trkpt>
      <trkpt lat="47.2296" lon="-1.63374">
        <ele>48</ele>
        <time>2019-12-08T16:37:54Z</time>
      </trkpt>
      <trkpt lat="47.22961" lon="-1.63375">
        <ele>48</ele>
        <time>2019-12-08T16:37:54Z</time>
      </trkpt>
      <trkpt lat="47.22961" lon="-1.63376">
        <ele>48</ele>
        <time>2019-12-08T16:37:55Z</time>
      </trkpt>
      <trkpt lat="47.22961" lon="-1.63378">
        <ele>48</ele>
        <time>2019-12-08T16:37:55Z</time>
      </trkpt>
      <trkpt lat="47.22962" lon="-1.63379">
        <ele>48</ele>
        <time>2019-12-08T16:37:55Z</time>
      </trkpt>
      <trkpt lat="47.22962" lon="-1.63381">
        <ele>48</ele>
        <time>2019-12-08T16:37:56Z</time>
      </trkpt>
      <trkpt lat="47.22962" lon="-1.63382">
        <ele>48</ele>
        <time>2019-12-08T16:37:56Z</time>
      </trkpt>
      <trkpt lat="47.22962" lon="-1.63383">
        <ele>48</ele>
        <time>2019-12-08T16:37:56Z</time>
      </trkpt>
      <trkpt lat="47.22961" lon="-1.63385">
        <ele>48</ele>
        <time>2019-12-08T16:37:57Z</time>
      </trkpt>
      <trkpt lat="47.22961" lon="-1.63386">
        <ele>48</ele>
        <time>2019-12-08T16:37:57Z</time>
      </trkpt>
      <trkpt lat="47.22961" lon="-1.63387">
        <ele>48</ele>
        <time>2019-12-08T16:37:57Z</time>
      </trkpt>
      <trkpt lat="47.2296" lon="-1.63389">
        <ele>48</ele>
        <time>2019-12-08T16:37:57Z</time>
      </trkpt>
      <trkpt lat="47.22959" lon="-1.6339">
        <ele>48</ele>
        <time>2019-12-08T16:37:58Z</time>
      </trkpt>
      <trkpt lat="47.22959" lon="-1.63391">
        <ele>48</ele>
        <time>2019-12-08T16:37:58Z</time>
      </trkpt>
      <trkpt lat="47.22962" lon="-1.63395">
        <ele>48</ele>
        <time>2019-12-08T16:37:59Z</time>
      </trkpt>
      <trkpt lat="47.23014" lon="-1.63479">
        <ele>49</ele>
        <time>2019-12-08T16:38:20Z</time>
      </trkpt>
      <trkpt lat="47.23057" lon="-1.63546">
        <ele>50</ele>
        <time>2019-12-08T16:38:36Z</time>
      </trkpt>
      <trkpt lat="47.23061" lon="-1.63556">
        <ele>50</ele>
        <time>2019-12-08T16:38:38Z</time>
      </trkpt>
      <trkpt lat="47.23082" lon="-1.6362">
        <ele>50</ele>
        <time>2019-12-08T16:38:51Z</time>
      </trkpt>
      <trkpt lat="47.22993" lon="-1.63446">
        <ele>51</ele>
      </trkpt>
      <trkpt lat="47.22958" lon="-1.63387">
        <ele>50.7734375</ele>
      </trkpt>
      <trkpt lat="47.22955" lon="-1.63389">
        <ele>50.7890625</ele>
      </trkpt>
      <trkpt lat="47.22952" lon="-1.63391">
        <ele>50.76171875</ele>
      </trkpt>
      <trkpt lat="47.22947" lon="-1.63389">
        <ele>50.68359375</ele>
      </trkpt>
      <trkpt lat="47.22944" lon="-1.63383">
        <ele>50.54296875</ele>
      </trkpt>
      <trkpt lat="47.22849" lon="-1.63494">
        <ele>49.37109375</ele>
      </trkpt>
      <trkpt lat="47.22851" lon="-1.635">
        <ele>49.296875</ele>
      </trkpt>
      <trkpt lat="47.22851" lon="-1.63505">
        <ele>49.2109375</ele>
      </trkpt>
      <trkpt lat="47.22849" lon="-1.63512">
        <ele>49.06640625</ele>
      </trkpt>
      <trkpt lat="47.22844" lon="-1.63518">
        <ele>48.875</ele>
      </trkpt>
      <trkpt lat="47.22841" lon="-1.63519">
        <ele>48.8046875</ele>
      </trkpt>
      <trkpt lat="47.22837" lon="-1.63519">
        <ele>48.73828125</ele>
      </trkpt>
      <trkpt lat="47.22831" lon="-1.63514">
        <ele>48.73046875</ele>
      </trkpt>
      <trkpt lat="47.22808" lon="-1.63541">
        <ele>48.16015625</ele>
      </trkpt>
      <trkpt lat="47.22792" lon="-1.63558">
        <ele>48.0078125</ele>
      </trkpt>
      <trkpt lat="47.22794" lon="-1.63564">
        <ele>48.00390625</ele>
      </trkpt>
      <trkpt lat="47.22794" lon="-1.63569">
        <ele>48</ele>
      </trkpt>
      <trkpt lat="47.22793" lon="-1.63575">
        <ele>48</ele>
      </trkpt>
      <trkpt lat="47.22792" lon="-1.63579">
        <ele>48</ele>
      </trkpt>
      <trkpt lat="47.22784" lon="-1.63585">
        <ele>48</ele>
      </trkpt>
      <trkpt lat="47.22785" lon="-1.63601">
        <ele>48</ele>
      </trkpt>
      <trkpt lat="47.22786" lon="-1.63605">
        <ele>48</ele>
      </trkpt>
      <trkpt lat="47.22793" lon="-1.63617">
        <ele>48</ele>
      </trkpt>
      <trkpt lat="47.22801" lon="-1.63629">
        <ele>48</ele>
      </trkpt>
      <trkpt lat="47.22813" lon="-1.63647">
        <ele>48</ele>
      </trkpt>
      <trkpt lat="47.22823" lon="-1.63667">
        <ele>48</ele>
      </trkpt>
      <trkpt lat="47.22826" lon="-1.63674">
        <ele>48</ele>
      </trkpt>
      <trkpt lat="47.22842" lon="-1.63722">
        <ele>48</ele>
      </trkpt>
      <trkpt lat="47.22858" lon="-1.63765">
        <ele>48.24609375</ele>
      </trkpt>
      <trkpt lat="47.22878" lon="-1.6381">
        <ele>48.74609375</ele>
      </trkpt>
      <trkpt lat="47.22898" lon="-1.63862">
        <ele>49.01171875</ele>
      </trkpt>
      <trkpt lat="47.22911" lon="-1.63897">
        <ele>49.203125</ele>
      </trkpt>
      <trkpt lat="47.22915" lon="-1.63913">
        <ele>49.26953125</ele>
      </trkpt>
      <trkpt lat="47.22965" lon="-1.64069">
        <ele>51</ele>
      </trkpt>
      <trkpt lat="47.22977" lon="-1.64105">
        <ele>51</ele>
      </trkpt>
      <trkpt lat="47.22884" lon="-1.64161">
        <ele>49.796875</ele>
      </trkpt>
      <trkpt lat="47.22877" lon="-1.64165">
        <ele>49.671875</ele>
      </trkpt>
      <trkpt lat="47.22844" lon="-1.64181">
        <ele>48.92578125</ele>
      </trkpt>
      <trkpt lat="47.22831" lon="-1.64189">
        <ele>48.328125</ele>
      </trkpt>
      <trkpt lat="47.22799" lon="-1.64203">
        <ele>46.91796875</ele>
      </trkpt>
      <trkpt lat="47.22759" lon="-1.64219">
        <ele>46.1171875</ele>
      </trkpt>
      <trkpt lat="47.22715" lon="-1.64232">
        <ele>46.34375</ele>
      </trkpt>
      <trkpt lat="47.22673" lon="-1.64242">
        <ele>47.09765625</ele>
      </trkpt>
      <trkpt lat="47.22601" lon="-1.64258">
        <ele>48.390625</ele>
      </trkpt>
      <trkpt lat="47.22558" lon="-1.64271">
        <ele>49</ele>
      </trkpt>
      <trkpt lat="47.22517" lon="-1.64286">
        <ele>49</ele>
      </trkpt>
      <trkpt lat="47.22472" lon="-1.64314">
        <ele>49</ele>
      </trkpt>
      <trkpt lat="47.22441" lon="-1.64337">
        <ele>49</ele>
      </trkpt>
      <trkpt lat="47.22425" lon="-1.64351">
        <ele>48.8828125</ele>
      </trkpt>
      <trkpt lat="47.22393" lon="-1.64382">
        <ele>48.27734375</ele>
      </trkpt>
      <trkpt lat="47.22393" lon="-1.64386">
        <ele>48.2109375</ele>
      </trkpt>
      <trkpt lat="47.22393" lon="-1.6439">
        <ele>48.14453125</ele>
      </trkpt>
      <trkpt lat="47.22389" lon="-1.64395">
        <ele>48.07421875</ele>
      </trkpt>
      <trkpt lat="47.22384" lon="-1.64396">
        <ele>48.05078125</ele>
      </trkpt>
      <trkpt lat="47.2238" lon="-1.6439">
        <ele>48.10546875</ele>
      </trkpt>
      <trkpt lat="47.21933" lon="-1.64689">
        <ele>39.46875</ele>
      </trkpt>
      <trkpt lat="47.21924" lon="-1.64695">
        <ele>39.28125</ele>
      </trkpt>
      <trkpt lat="47.21897" lon="-1.64714">
        <ele>38.93359375</ele>
      </trkpt>
      <trkpt lat="47.21868" lon="-1.64735">
        <ele>38.3984375</ele>
      </trkpt>
      <trkpt lat="47.21854" lon="-1.64751">
        <ele>38.109375</ele>
      </trkpt>
      <trkpt lat="47.21839" lon="-1.64762">
        <ele>37.8359375</ele>
      </trkpt>
      <trkpt lat="47.21876" lon="-1.64978">
        <ele>36.5859375</ele>
      </trkpt>
      <trkpt lat="47.21891" lon="-1.65077">
        <ele>35.83203125</ele>
      </trkpt>
      <trkpt lat="47.21916" lon="-1.65231">
        <ele>35</ele>
      </trkpt>
      <trkpt lat="47.21916" lon="-1.65267">
        <ele>34.546875</ele>
      </trkpt>
      <trkpt lat="47.21936" lon="-1.65357">
        <ele>34</ele>
      </trkpt>
      <trkpt lat="47.21937" lon="-1.65391">
        <ele>34</ele>
      </trkpt>
      <trkpt lat="47.21927" lon="-1.6542">
        <ele>33.796875</ele>
      </trkpt>
      <trkpt lat="47.21901" lon="-1.65437">
        <ele>33.3203125</ele>
      </trkpt>
      <trkpt lat="47.21843" lon="-1.65444">
        <ele>31.953125</ele>
      </trkpt>
      <trkpt lat="47.21843" lon="-1.65452">
        <ele>31.96875</ele>
      </trkpt>
      <trkpt lat="47.21837" lon="-1.65452">
        <ele>31.84765625</ele>
      </trkpt>
      <trkpt lat="47.21835" lon="-1.6545">
        <ele>31.80859375</ele>
      </trkpt>
      <trkpt lat="47.2183" lon="-1.65441">
        <ele>31.7265625</ele>
      </trkpt>
      <trkpt lat="47.21742" lon="-1.65454">
        <ele>31</ele>
      </trkpt>
      <trkpt lat="47.21696" lon="-1.65472">
        <ele>30.69140625</ele>
      </trkpt>
      <trkpt lat="47.2167" lon="-1.65487">
        <ele>30.6640625</ele>
      </trkpt>
      <trkpt lat="47.21606" lon="-1.65541">
        <ele>31.93359375</ele>
      </trkpt>
      <trkpt lat="47.21601" lon="-1.65543">
        <ele>32.0390625</ele>
      </trkpt>
      <trkpt lat="47.21542" lon="-1.65588">
        <ele>32.09765625</ele>
      </trkpt>
      <trkpt lat="47.21537" lon="-1.6559">
        <ele>32.0625</ele>
      </trkpt>
      <trkpt lat="47.21518" lon="-1.65594">
        <ele>31.99609375</ele>
      </trkpt>
      <trkpt lat="47.21505" lon="-1.65594">
        <ele>31.75</ele>
      </trkpt>
      <trkpt lat="47.21504" lon="-1.656">
        <ele>31.69921875</ele>
      </trkpt>
      <trkpt lat="47.21497" lon="-1.65607">
        <ele>31.45703125</ele>
      </trkpt>
      <trkpt lat="47.21493" lon="-1.65598">
        <ele>31.296875</ele>
      </trkpt>
      <trkpt lat="47.21481" lon="-1.65591">
        <ele>30.890625</ele>
      </trkpt>
      <trkpt lat="47.21387" lon="-1.65563">
        <ele>28.75390625</ele>
      </trkpt>
      <trkpt lat="47.21303" lon="-1.65564">
        <ele>26.453125</ele>
      </trkpt>
      <trkpt lat="47.21278" lon="-1.65572">
        <ele>25.56640625</ele>
      </trkpt>
      <trkpt lat="47.21243" lon="-1.65586">
        <ele>24.2890625</ele>
      </trkpt>
      <trkpt lat="47.21213" lon="-1.65597">
        <ele>22.8125</ele>
      </trkpt>
      <trkpt lat="47.21203" lon="-1.65602">
        <ele>22.27734375</ele>
      </trkpt>
      <trkpt lat="47.21188" lon="-1.65609">
        <ele>21.4765625</ele>
      </trkpt>
      <trkpt lat="47.21169" lon="-1.65617">
        <ele>20.43359375</ele>
      </trkpt>
      <trkpt lat="47.2111" lon="-1.65641">
        <ele>17.859375</ele>
      </trkpt>
      <trkpt lat="47.21077" lon="-1.65654">
        <ele>16.93359375</ele>
      </trkpt>
      <trkpt lat="47.21058" lon="-1.65665">
        <ele>16.7890625</ele>
      </trkpt>
      <trkpt lat="47.21052" lon="-1.65667">
        <ele>16.82421875</ele>
      </trkpt>
      <trkpt lat="47.21047" lon="-1.65673">
        <ele>16.921875</ele>
      </trkpt>
      <trkpt lat="47.21048" lon="-1.65678">
        <ele>17.02734375</ele>
      </trkpt>
      <trkpt lat="47.21047" lon="-1.65683">
        <ele>17.16015625</ele>
      </trkpt>
      <trkpt lat="47.21046" lon="-1.65689">
        <ele>17.296875</ele>
      </trkpt>
      <trkpt lat="47.21044" lon="-1.65693">
        <ele>17.4140625</ele>
      </trkpt>
      <trkpt lat="47.2104" lon="-1.65695">
        <ele>17.49609375</ele>
      </trkpt>
      <trkpt lat="47.21037" lon="-1.65696">
        <ele>17.54296875</ele>
      </trkpt>
      <trkpt lat="47.21032" lon="-1.65691">
        <ele>17.4140625</ele>
      </trkpt>
      <trkpt lat="47.2103" lon="-1.65688">
        <ele>17.32421875</ele>
      </trkpt>
      <trkpt lat="47.21019" lon="-1.65692">
        <ele>17.5078125</ele>
      </trkpt>
      <trkpt lat="47.20916" lon="-1.65782">
        <ele>20.94140625</ele>
      </trkpt>
      <trkpt lat="47.209" lon="-1.65798">
        <ele>21.18359375</ele>
      </trkpt>
      <trkpt lat="47.20869" lon="-1.65833">
        <ele>21.8203125</ele>
      </trkpt>
      <trkpt lat="47.2082" lon="-1.65887">
        <ele>23.22265625</ele>
      </trkpt>
      <trkpt lat="47.20797" lon="-1.65913">
        <ele>23.59765625</ele>
      </trkpt>
      <trkpt lat="47.20774" lon="-1.65936">
        <ele>23.8515625</ele>
      </trkpt>
      <trkpt lat="47.20752" lon="-1.65948">
        <ele>23.48046875</ele>
      </trkpt>
      <trkpt lat="47.20728" lon="-1.65963">
        <ele>22.8984375</ele>
      </trkpt>
      <trkpt lat="47.20699" lon="-1.65982">
        <ele>22.18359375</ele>
      </trkpt>
      <trkpt lat="47.20634" lon="-1.66017">
        <ele>19.56640625</ele>
      </trkpt>
      <trkpt lat="47.20614" lon="-1.66023">
        <ele>18.46484375</ele>
      </trkpt>
      <trkpt lat="47.20575" lon="-1.66034">
        <ele>16.375</ele>
      </trkpt>
      <trkpt lat="47.20554" lon="-1.66043">
        <ele>14.6953125</ele>
      </trkpt>
      <trkpt lat="47.20533" lon="-1.66053">
        <ele>12.859375</ele>
      </trkpt>
      <trkpt lat="47.2052" lon="-1.66061">
        <ele>11.69921875</ele>
      </trkpt>
      <trkpt lat="47.2051" lon="-1.6607">
        <ele>10.71875</ele>
      </trkpt>
      <trkpt lat="47.205" lon="-1.66079">
        <ele>9.90234375</ele>
      </trkpt>
      <trkpt lat="47.2049" lon="-1.66092">
        <ele>9.109375</ele>
      </trkpt>
      <trkpt lat="47.20487" lon="-1.66095">
        <ele>8.875</ele>
      </trkpt>
      <trkpt lat="47.20485" lon="-1.66101">
        <ele>8.69140625</ele>
      </trkpt>
      <trkpt lat="47.20483" lon="-1.66106">
        <ele>8.515625</ele>
      </trkpt>
      <trkpt lat="47.20482" lon="-1.66112">
        <ele>8.40234375</ele>
      </trkpt>
      <trkpt lat="47.20481" lon="-1.66125">
        <ele>8.19921875</ele>
      </trkpt>
      <trkpt lat="47.20483" lon="-1.66139">
        <ele>8.0625</ele>
      </trkpt>
      <trkpt lat="47.20486" lon="-1.66155">
        <ele>7.9453125</ele>
      </trkpt>
      <trkpt lat="47.2049" lon="-1.66168">
        <ele>7.9453125</ele>
      </trkpt>
      <trkpt lat="47.20495" lon="-1.66186">
        <ele>8.02734375</ele>
      </trkpt>
      <trkpt lat="47.20496" lon="-1.66196">
        <ele>8.0859375</ele>
      </trkpt>
      <trkpt lat="47.20494" lon="-1.66203">
        <ele>7.97265625</ele>
      </trkpt>
      <trkpt lat="47.20489" lon="-1.66215">
        <ele>7.73828125</ele>
      </trkpt>
      <trkpt lat="47.20487" lon="-1.66224">
        <ele>7.625</ele>
      </trkpt>
      <trkpt lat="47.20488" lon="-1.66229">
        <ele>7.6796875</ele>
      </trkpt>
      <trkpt lat="47.20503" lon="-1.66282">
        <ele>8.33984375</ele>
      </trkpt>
      <trkpt lat="47.20507" lon="-1.66292">
        <ele>8.5</ele>
      </trkpt>
      <trkpt lat="47.20525" lon="-1.66337">
        <ele>9.421875</ele>
      </trkpt>
      <trkpt lat="47.20517" lon="-1.66348">
        <ele>8.46875</ele>
      </trkpt>
      <trkpt lat="47.20505" lon="-1.66365">
        <ele>7.7890625</ele>
      </trkpt>
      <trkpt lat="47.20495" lon="-1.66377">
        <ele>7.5546875</ele>
      </trkpt>
      <trkpt lat="47.20481" lon="-1.66389">
        <ele>7.328125</ele>
      </trkpt>
      <trkpt lat="47.20461" lon="-1.66402">
        <ele>6.8828125</ele>
      </trkpt>
      <trkpt lat="47.2045" lon="-1.66406">
        <ele>6.34765625</ele>
      </trkpt>
      <trkpt lat="47.20386" lon="-1.6642">
        <ele>4.44140625</ele>
      </trkpt>
      <trkpt lat="47.20375" lon="-1.66424">
        <ele>4.28125</ele>
      </trkpt>
      <trkpt lat="47.20367" lon="-1.66427">
        <ele>4.1875</ele>
      </trkpt>
      <trkpt lat="47.20347" lon="-1.66441">
        <ele>4.00390625</ele>
      </trkpt>
      <trkpt lat="47.20339" lon="-1.66448">
        <ele>3.98828125</ele>
      </trkpt>
      <trkpt lat="47.20328" lon="-1.66461">
        <ele>4</ele>
      </trkpt>
      <trkpt lat="47.20323" lon="-1.66471">
        <ele>4</ele>
      </trkpt>
      <trkpt lat="47.20319" lon="-1.66477">
        <ele>4</ele>
      </trkpt>
      <trkpt lat="47.20312" lon="-1.66486">
        <ele>4</ele>
      </trkpt>
      <trkpt lat="47.20266" lon="-1.6655">
        <ele>4.73046875</ele>
      </trkpt>
      <trkpt lat="47.20244" lon="-1.66583">
        <ele>5</ele>
      </trkpt>
      <trkpt lat="47.20224" lon="-1.66608">
        <ele>5</ele>
      </trkpt>
      <trkpt lat="47.20212" lon="-1.66631">
        <ele>5</ele>
      </trkpt>
      <trkpt lat="47.20204" lon="-1.66667">
        <ele>5</ele>
      </trkpt>
      <trkpt lat="47.20205" lon="-1.6669">
        <ele>5</ele>
      </trkpt>
      <trkpt lat="47.20205" lon="-1.6671">
        <ele>5</ele>
      </trkpt>
      <trkpt lat="47.20187" lon="-1.66715">
        <ele>5</ele>
      </trkpt>
      <trkpt lat="47.20171" lon="-1.66722">
        <ele>5</ele>
      </trkpt>
      <trkpt lat="47.20155" lon="-1.66733">
        <ele>5</ele>
      </trkpt>
      <trkpt lat="47.20152" lon="-1.66736">
        <ele>5</ele>
      </trkpt>
      <trkpt lat="47.20134" lon="-1.66754">
        <ele>5</ele>
      </trkpt>
      <trkpt lat="47.2014" lon="-1.66767">
        <ele>5</ele>
      </trkpt>
      <trkpt lat="47.2014" lon="-1.66771">
        <ele>5</ele>
      </trkpt>
      <trkpt lat="47.20141" lon="-1.6678">
        <ele>5</ele>
      </trkpt>
      <trkpt lat="47.20137" lon="-1.66794">
        <ele>5.08984375</ele>
      </trkpt>
      <trkpt lat="47.20134" lon="-1.66803">
        <ele>5.23828125</ele>
      </trkpt>
      <trkpt lat="47.20127" lon="-1.66813">
        <ele>5.44140625</ele>
      </trkpt>
      <trkpt lat="47.20117" lon="-1.66815">
        <ele>5.4375</ele>
      </trkpt>
      <trkpt lat="47.2011" lon="-1.66815">
        <ele>5.37109375</ele>
      </trkpt>
      <trkpt lat="47.20098" lon="-1.66808">
        <ele>5.19140625</ele>
      </trkpt>
      <trkpt lat="47.20087" lon="-1.66816">
        <ele>5.17578125</ele>
      </trkpt>
      <trkpt lat="47.20082" lon="-1.66824">
        <ele>5.15625</ele>
      </trkpt>
      <trkpt lat="47.20076" lon="-1.66831">
        <ele>5.109375</ele>
      </trkpt>
      <trkpt lat="47.20065" lon="-1.66852">
        <ele>5.1484375</ele>
      </trkpt>
      <trkpt lat="47.20039" lon="-1.66892">
        <ele>5.4140625</ele>
      </trkpt>
      <trkpt lat="47.20034" lon="-1.66901">
        <ele>5.41796875</ele>
      </trkpt>
      <trkpt lat="47.20025" lon="-1.66916">
        <ele>5.46484375</ele>
      </trkpt>
      <trkpt lat="47.20026" lon="-1.6692">
        <ele>5.53515625</ele>
      </trkpt>
      <trkpt lat="47.20023" lon="-1.66926">
        <ele>5.58203125</ele>
      </trkpt>
      <trkpt lat="47.20017" lon="-1.66927">
        <ele>5.55078125</ele>
      </trkpt>
      <trkpt lat="47.20011" lon="-1.66939">
        <ele>5.76171875</ele>
      </trkpt>
      <trkpt lat="47.20006" lon="-1.66948">
        <ele>6.03515625</ele>
      </trkpt>
      <trkpt lat="47.2" lon="-1.66957">
        <ele>6.24609375</ele>
      </trkpt>
      <trkpt lat="47.19994" lon="-1.66968">
        <ele>6.43359375</ele>
      </trkpt>
      <trkpt lat="47.19981" lon="-1.66989">
        <ele>6.9453125</ele>
      </trkpt>
      <trkpt lat="47.19974" lon="-1.66999">
        <ele>7.2578125</ele>
      </trkpt>
      <trkpt lat="47.19969" lon="-1.67009">
        <ele>7.5859375</ele>
      </trkpt>
      <trkpt lat="47.19963" lon="-1.67017">
        <ele>7.953125</ele>
      </trkpt>
      <trkpt lat="47.19953" lon="-1.67032">
        <ele>8.83203125</ele>
      </trkpt>
      <trkpt lat="47.19948" lon="-1.6704">
        <ele>9.43359375</ele>
      </trkpt>
      <trkpt lat="47.19945" lon="-1.67048">
        <ele>9.69921875</ele>
      </trkpt>
      <trkpt lat="47.19944" lon="-1.67052">
        <ele>9.828125</ele>
      </trkpt>
      <trkpt lat="47.19941" lon="-1.67055">
        <ele>10.109375</ele>
      </trkpt>
      <trkpt lat="47.19936" lon="-1.67055">
        <ele>10.52734375</ele>
      </trkpt>
      <trkpt lat="47.1993" lon="-1.67066">
        <ele>10.953125</ele>
      </trkpt>
      <trkpt lat="47.19929" lon="-1.67078">
        <ele>11.02734375</ele>
      </trkpt>
      <trkpt lat="47.19938" lon="-1.67106">
        <ele>10.62890625</ele>
      </trkpt>
      <trkpt lat="47.19952" lon="-1.6716">
        <ele>10.6953125</ele>
      </trkpt>
      <trkpt lat="47.19957" lon="-1.67174">
        <ele>10.953125</ele>
      </trkpt>
      <trkpt lat="47.19963" lon="-1.67193">
        <ele>10.56640625</ele>
      </trkpt>
      <trkpt lat="47.19964" lon="-1.67197">
        <ele>10.48046875</ele>
      </trkpt>
      <trkpt lat="47.19963" lon="-1.67213">
        <ele>10.26953125</ele>
      </trkpt>
      <trkpt lat="47.1996" lon="-1.67224">
        <ele>10.12109375</ele>
      </trkpt>
      <trkpt lat="47.19955" lon="-1.67234">
        <ele>9.953125</ele>
      </trkpt>
      <trkpt lat="47.1994" lon="-1.67253">
        <ele>9.44140625</ele>
      </trkpt>
      <trkpt lat="47.19925" lon="-1.67271">
        <ele>8.578125</ele>
      </trkpt>
      <trkpt lat="47.19919" lon="-1.67277">
        <ele>8.1640625</ele>
      </trkpt>
      <trkpt lat="47.1991" lon="-1.67281">
        <ele>7.625</ele>
      </trkpt>
      <trkpt lat="47.19845" lon="-1.67315">
        <ele>5.4609375</ele>
      </trkpt>
      <trkpt lat="47.19817" lon="-1.67323">
        <ele>4.29296875</ele>
      </trkpt>
      <trkpt lat="47.19804" lon="-1.67301">
        <ele>4.2109375</ele>
      </trkpt>
      <trkpt lat="47.19796" lon="-1.67314">
        <ele>3.69140625</ele>
      </trkpt>
      <trkpt lat="47.19795" lon="-1.67312">
        <ele>3.70703125</ele>
      </trkpt>
      <trkpt lat="47.19765" lon="-1.67343">
        <ele>3</ele>
        <time>2019-11-03T14:57:07Z</time>
      </trkpt>
      <trkpt lat="47.19756" lon="-1.67356">
        <ele>3</ele>
        <time>2019-11-03T14:57:10Z</time>
      </trkpt>
      <trkpt lat="47.19749" lon="-1.67359">
        <ele>3</ele>
        <time>2019-11-03T14:57:11Z</time>
      </trkpt>
      <trkpt lat="47.19745" lon="-1.67362">
        <ele>3</ele>
        <time>2019-11-03T14:57:12Z</time>
      </trkpt>
      <trkpt lat="47.19748" lon="-1.67411">
        <ele>2.2</ele>
        <time>2019-11-03T14:57:19Z</time>
      </trkpt>
      <trkpt lat="47.19748" lon="-1.67431">
        <ele>2</ele>
        <time>2019-11-03T14:57:22Z</time>
      </trkpt>
      <trkpt lat="47.19751" lon="-1.67521">
        <ele>2</ele>
        <time>2019-11-03T14:57:34Z</time>
      </trkpt>
      <trkpt lat="47.19748" lon="-1.67557">
        <ele>2</ele>
        <time>2019-11-03T14:57:39Z</time>
      </trkpt>
      <trkpt lat="47.1974" lon="-1.67594">
        <ele>2</ele>
        <time>2019-11-03T14:57:44Z</time>
      </trkpt>
      <trkpt lat="47.19726" lon="-1.67622">
        <ele>2</ele>
        <time>2019-11-03T14:57:49Z</time>
      </trkpt>
      <trkpt lat="47.19703" lon="-1.67642">
        <ele>1</ele>
        <time>2019-11-03T14:57:54Z</time>
      </trkpt>
      <trkpt lat="47.19675" lon="-1.67646">
        <ele>1</ele>
        <time>2019-11-03T14:58:00Z</time>
      </trkpt>
      <trkpt lat="47.19643" lon="-1.67637">
        <ele>1</ele>
        <time>2019-11-03T14:58:06Z</time>
      </trkpt>
      <trkpt lat="47.19614" lon="-1.67615">
        <ele>3</ele>
        <time>2019-11-03T14:58:13Z</time>
      </trkpt>
      <trkpt lat="47.19577" lon="-1.67575">
        <ele>3</ele>
        <time>2019-11-03T14:58:22Z</time>
      </trkpt>
      <trkpt lat="47.19565" lon="-1.67559">
        <ele>3</ele>
        <time>2019-11-03T14:58:25Z</time>
      </trkpt>
      <trkpt lat="47.19539" lon="-1.67527">
        <ele>7</ele>
        <time>2019-11-03T14:58:32Z</time>
      </trkpt>
      <trkpt lat="47.19529" lon="-1.67522">
        <ele>7</ele>
        <time>2019-11-03T14:58:34Z</time>
      </trkpt>
      <trkpt lat="47.19521" lon="-1.67528">
        <ele>7</ele>
        <time>2019-11-03T14:58:36Z</time>
      </trkpt>
      <trkpt lat="47.19516" lon="-1.67537">
        <ele>7</ele>
        <time>2019-11-03T14:58:38Z</time>
      </trkpt>
      <trkpt lat="47.19504" lon="-1.6754">
        <ele>7</ele>
        <time>2019-11-03T14:58:40Z</time>
      </trkpt>
      <trkpt lat="47.19497" lon="-1.67544">
        <ele>7</ele>
        <time>2019-11-03T14:58:42Z</time>
      </trkpt>
      <trkpt lat="47.19482" lon="-1.67555">
        <ele>7</ele>
        <time>2019-11-03T14:58:45Z</time>
      </trkpt>
      <trkpt lat="47.19477" lon="-1.67559">
        <ele>7</ele>
        <time>2019-11-03T14:58:46Z</time>
      </trkpt>
      <trkpt lat="47.19469" lon="-1.67565">
        <ele>8</ele>
        <time>2019-11-03T14:58:48Z</time>
      </trkpt>
      <trkpt lat="47.19452" lon="-1.67581">
        <ele>8</ele>
        <time>2019-11-03T14:58:52Z</time>
      </trkpt>
      <trkpt lat="47.19441" lon="-1.67592">
        <ele>8</ele>
        <time>2019-11-03T14:58:55Z</time>
      </trkpt>
      <trkpt lat="47.19429" lon="-1.67606">
        <ele>8</ele>
        <time>2019-11-03T14:58:58Z</time>
      </trkpt>
      <trkpt lat="47.19421" lon="-1.67618">
        <ele>8</ele>
        <time>2019-11-03T14:59:00Z</time>
      </trkpt>
      <trkpt lat="47.19414" lon="-1.6763">
        <ele>8</ele>
        <time>2019-11-03T14:59:02Z</time>
      </trkpt>
      <trkpt lat="47.19406" lon="-1.67646">
        <ele>8</ele>
        <time>2019-11-03T14:59:05Z</time>
      </trkpt>
      <trkpt lat="47.19399" lon="-1.67661">
        <ele>3</ele>
        <time>2019-11-03T14:59:07Z</time>
      </trkpt>
      <trkpt lat="47.19393" lon="-1.67678">
        <ele>3</ele>
        <time>2019-11-03T14:59:10Z</time>
      </trkpt>
      <trkpt lat="47.19387" lon="-1.67697">
        <ele>3</ele>
        <time>2019-11-03T14:59:13Z</time>
      </trkpt>
      <trkpt lat="47.19382" lon="-1.67715">
        <ele>3</ele>
        <time>2019-11-03T14:59:15Z</time>
      </trkpt>
      <trkpt lat="47.1938" lon="-1.67727">
        <ele>3</ele>
        <time>2019-11-03T14:59:17Z</time>
      </trkpt>
      <trkpt lat="47.19378" lon="-1.67738">
        <ele>3</ele>
        <time>2019-11-03T14:59:19Z</time>
      </trkpt>
      <trkpt lat="47.19376" lon="-1.67753">
        <ele>3</ele>
        <time>2019-11-03T14:59:21Z</time>
      </trkpt>
      <trkpt lat="47.19374" lon="-1.67764">
        <ele>3</ele>
        <time>2019-11-03T14:59:22Z</time>
      </trkpt>
      <trkpt lat="47.19373" lon="-1.67779">
        <ele>3</ele>
        <time>2019-11-03T14:59:24Z</time>
      </trkpt>
      <trkpt lat="47.19373" lon="-1.67793">
        <ele>3</ele>
        <time>2019-11-03T14:59:26Z</time>
      </trkpt>
      <trkpt lat="47.19373" lon="-1.6781">
        <ele>3</ele>
        <time>2019-11-03T14:59:28Z</time>
      </trkpt>
      <trkpt lat="47.19374" lon="-1.67831">
        <ele>3</ele>
        <time>2019-11-03T14:59:31Z</time>
      </trkpt>
      <trkpt lat="47.19375" lon="-1.67845">
        <ele>3</ele>
        <time>2019-11-03T14:59:33Z</time>
      </trkpt>
      <trkpt lat="47.19378" lon="-1.67862">
        <ele>3</ele>
        <time>2019-11-03T14:59:36Z</time>
      </trkpt>
      <trkpt lat="47.19388" lon="-1.67904">
        <ele>3</ele>
        <time>2019-11-03T14:59:42Z</time>
      </trkpt>
      <trkpt lat="47.1939" lon="-1.67914">
        <ele>3</ele>
        <time>2019-11-03T14:59:43Z</time>
      </trkpt>
      <trkpt lat="47.19397" lon="-1.67922">
        <ele>4</ele>
        <time>2019-11-03T14:59:45Z</time>
      </trkpt>
      <trkpt lat="47.19401" lon="-1.67933">
        <ele>4</ele>
        <time>2019-11-03T14:59:47Z</time>
      </trkpt>
      <trkpt lat="47.19407" lon="-1.67954">
        <ele>4</ele>
        <time>2019-11-03T14:59:50Z</time>
      </trkpt>
      <trkpt lat="47.19423" lon="-1.68011">
        <ele>4</ele>
        <time>2019-11-03T14:59:58Z</time>
      </trkpt>
      <trkpt lat="47.1943" lon="-1.68036">
        <ele>4</ele>
        <time>2019-11-03T15:00:02Z</time>
      </trkpt>
      <trkpt lat="47.19439" lon="-1.6804">
        <ele>6</ele>
        <time>2019-11-03T15:00:04Z</time>
      </trkpt>
      <trkpt lat="47.19441" lon="-1.68041">
        <ele>6</ele>
        <time>2019-11-03T15:00:04Z</time>
      </trkpt>
      <trkpt lat="47.19444" lon="-1.68048">
        <ele>6</ele>
        <time>2019-11-03T15:00:05Z</time>
      </trkpt>
      <trkpt lat="47.19446" lon="-1.68052">
        <ele>6</ele>
        <time>2019-11-03T15:00:06Z</time>
      </trkpt>
      <trkpt lat="47.19446" lon="-1.6806">
        <ele>6</ele>
        <time>2019-11-03T15:00:07Z</time>
      </trkpt>
      <trkpt lat="47.19444" lon="-1.68065">
        <ele>6</ele>
        <time>2019-11-03T15:00:08Z</time>
      </trkpt>
      <trkpt lat="47.19441" lon="-1.68069">
        <ele>6</ele>
        <time>2019-11-03T15:00:09Z</time>
      </trkpt>
      <trkpt lat="47.19439" lon="-1.68074">
        <ele>6</ele>
        <time>2019-11-03T15:00:09Z</time>
      </trkpt>
      <trkpt lat="47.19438" lon="-1.68083">
        <ele>6</ele>
        <time>2019-11-03T15:00:11Z</time>
      </trkpt>
      <trkpt lat="47.19453" lon="-1.68142">
        <ele>6</ele>
        <time>2019-11-03T15:00:19Z</time>
      </trkpt>
      <trkpt lat="47.19456" lon="-1.68151">
        <ele>6</ele>
        <time>2019-11-03T15:00:21Z</time>
      </trkpt>
      <trkpt lat="47.19459" lon="-1.68162">
        <ele>6</ele>
        <time>2019-11-03T15:00:22Z</time>
      </trkpt>
      <trkpt lat="47.19463" lon="-1.68176">
        <ele>6</ele>
        <time>2019-11-03T15:00:24Z</time>
      </trkpt>
      <trkpt lat="47.19471" lon="-1.68193">
        <ele>6</ele>
        <time>2019-11-03T15:00:27Z</time>
      </trkpt>
      <trkpt lat="47.19477" lon="-1.68209">
        <ele>6</ele>
        <time>2019-11-03T15:00:30Z</time>
      </trkpt>
      <trkpt lat="47.19486" lon="-1.68229">
        <ele>6</ele>
        <time>2019-11-03T15:00:33Z</time>
      </trkpt>
      <trkpt lat="47.19503" lon="-1.68274">
        <ele>7</ele>
        <time>2019-11-03T15:00:40Z</time>
      </trkpt>
      <trkpt lat="47.19513" lon="-1.68302">
        <ele>7</ele>
        <time>2019-11-03T15:00:44Z</time>
      </trkpt>
      <trkpt lat="47.19536" lon="-1.68371">
        <ele>7</ele>
        <time>2019-11-03T15:00:55Z</time>
      </trkpt>
      <trkpt lat="47.19535" lon="-1.68385">
        <ele>7</ele>
        <time>2019-11-03T15:00:57Z</time>
      </trkpt>
      <trkpt lat="47.19541" lon="-1.68402">
        <ele>5</ele>
        <time>2019-11-03T15:00:59Z</time>
      </trkpt>
      <trkpt lat="47.1955" lon="-1.68431">
        <ele>5</ele>
        <time>2019-11-03T15:01:03Z</time>
      </trkpt>
      <trkpt lat="47.19555" lon="-1.68436">
        <ele>5</ele>
        <time>2019-11-03T15:01:05Z</time>
      </trkpt>
      <trkpt lat="47.19565" lon="-1.68474">
        <ele>5</ele>
        <time>2019-11-03T15:01:10Z</time>
      </trkpt>
      <trkpt lat="47.19579" lon="-1.68521">
        <ele>5</ele>
        <time>2019-11-03T15:01:17Z</time>
      </trkpt>
      <trkpt lat="47.19587" lon="-1.68538">
        <ele>5</ele>
        <time>2019-11-03T15:01:20Z</time>
      </trkpt>
      <trkpt lat="47.19592" lon="-1.68553">
        <ele>5</ele>
        <time>2019-11-03T15:01:22Z</time>
      </trkpt>
      <trkpt lat="47.19594" lon="-1.68567">
        <ele>5</ele>
        <time>2019-11-03T15:01:24Z</time>
      </trkpt>
      <trkpt lat="47.19604" lon="-1.68609">
        <ele>5</ele>
        <time>2019-11-03T15:01:30Z</time>
      </trkpt>
      <trkpt lat="47.19615" lon="-1.68643">
        <ele>5</ele>
        <time>2019-11-03T15:01:35Z</time>
      </trkpt>
      <trkpt lat="47.19624" lon="-1.68674">
        <ele>6</ele>
        <time>2019-11-03T15:01:40Z</time>
      </trkpt>
      <trkpt lat="47.1965" lon="-1.68758">
        <ele>6</ele>
        <time>2019-11-03T15:01:53Z</time>
      </trkpt>
      <trkpt lat="47.19662" lon="-1.68797">
        <ele>6</ele>
        <time>2019-11-03T15:01:58Z</time>
      </trkpt>
      <trkpt lat="47.19668" lon="-1.6882">
        <ele>6</ele>
        <time>2019-11-03T15:02:02Z</time>
      </trkpt>
      <trkpt lat="47.19672" lon="-1.68839">
        <ele>6</ele>
        <time>2019-11-03T15:02:04Z</time>
      </trkpt>
      <trkpt lat="47.19676" lon="-1.68873">
        <ele>6</ele>
        <time>2019-11-03T15:02:09Z</time>
      </trkpt>
      <trkpt lat="47.19678" lon="-1.68907">
        <ele>6</ele>
        <time>2019-11-03T15:02:14Z</time>
      </trkpt>
      <trkpt lat="47.19678" lon="-1.68927">
        <ele>4</ele>
        <time>2019-11-03T15:02:17Z</time>
      </trkpt>
      <trkpt lat="47.19676" lon="-1.68958">
        <ele>4</ele>
        <time>2019-11-03T15:02:21Z</time>
      </trkpt>
      <trkpt lat="47.19672" lon="-1.69002">
        <ele>4</ele>
        <time>2019-11-03T15:02:27Z</time>
      </trkpt>
      <trkpt lat="47.19668" lon="-1.69029">
        <ele>4</ele>
        <time>2019-11-03T15:02:31Z</time>
      </trkpt>
      <trkpt lat="47.19662" lon="-1.69053">
        <ele>4</ele>
        <time>2019-11-03T15:02:34Z</time>
      </trkpt>
      <trkpt lat="47.1966" lon="-1.69063">
        <ele>3</ele>
        <time>2019-11-03T15:02:35Z</time>
      </trkpt>
      <trkpt lat="47.19648" lon="-1.69075">
        <ele>3</ele>
        <time>2019-11-03T15:02:38Z</time>
      </trkpt>
      <trkpt lat="47.19642" lon="-1.69091">
        <ele>3</ele>
        <time>2019-11-03T15:02:41Z</time>
      </trkpt>
      <trkpt lat="47.19637" lon="-1.69103">
        <ele>3</ele>
        <time>2019-11-03T15:02:43Z</time>
      </trkpt>
      <trkpt lat="47.19632" lon="-1.69112">
        <ele>3</ele>
        <time>2019-11-03T15:02:44Z</time>
      </trkpt>
      <trkpt lat="47.19625" lon="-1.69124">
        <ele>3</ele>
        <time>2019-11-03T15:02:47Z</time>
      </trkpt>
      <trkpt lat="47.19618" lon="-1.69135">
        <ele>3</ele>
        <time>2019-11-03T15:02:49Z</time>
      </trkpt>
      <trkpt lat="47.19608" lon="-1.6915">
        <ele>3</ele>
        <time>2019-11-03T15:02:51Z</time>
      </trkpt>
      <trkpt lat="47.19595" lon="-1.69169">
        <ele>2</ele>
        <time>2019-11-03T15:02:55Z</time>
      </trkpt>
      <trkpt lat="47.19559" lon="-1.69217">
        <ele>2</ele>
        <time>2019-11-03T15:03:05Z</time>
      </trkpt>
      <trkpt lat="47.1952" lon="-1.69267">
        <ele>7</ele>
        <time>2019-11-03T15:03:15Z</time>
      </trkpt>
      <trkpt lat="47.1951" lon="-1.69281">
        <ele>7</ele>
        <time>2019-11-03T15:03:18Z</time>
      </trkpt>
      <trkpt lat="47.19499" lon="-1.69295">
        <ele>7</ele>
        <time>2019-11-03T15:03:21Z</time>
      </trkpt>
      <trkpt lat="47.19483" lon="-1.69315">
        <ele>7</ele>
        <time>2019-11-03T15:03:25Z</time>
      </trkpt>
      <trkpt lat="47.19467" lon="-1.69332">
        <ele>7</ele>
        <time>2019-11-03T15:03:29Z</time>
      </trkpt>
      <trkpt lat="47.19425" lon="-1.69377">
        <ele>15</ele>
        <time>2019-11-03T15:03:39Z</time>
      </trkpt>
      <trkpt lat="47.19428" lon="-1.69381">
        <ele>15</ele>
        <time>2019-11-03T15:03:40Z</time>
      </trkpt>
      <trkpt lat="47.19432" lon="-1.69385">
        <ele>15</ele>
        <time>2019-11-03T15:03:41Z</time>
      </trkpt>
      <trkpt lat="47.19434" lon="-1.69386">
        <ele>15</ele>
        <time>2019-11-03T15:03:42Z</time>
      </trkpt>
      <trkpt lat="47.19442" lon="-1.69389">
        <ele>15</ele>
        <time>2019-11-03T15:03:43Z</time>
      </trkpt>
      <trkpt lat="47.19445" lon="-1.6939">
        <ele>9</ele>
        <time>2019-11-03T15:03:44Z</time>
      </trkpt>
      <trkpt lat="47.19457" lon="-1.69393">
        <ele>9</ele>
        <time>2019-11-03T15:03:46Z</time>
      </trkpt>
      <trkpt lat="47.19468" lon="-1.69396">
        <ele>9</ele>
        <time>2019-11-03T15:03:49Z</time>
      </trkpt>
      <trkpt lat="47.1948" lon="-1.69403">
        <ele>9</ele>
        <time>2019-11-03T15:03:51Z</time>
      </trkpt>
      <trkpt lat="47.19488" lon="-1.69411">
        <ele>9</ele>
        <time>2019-11-03T15:03:53Z</time>
      </trkpt>
      <trkpt lat="47.19494" lon="-1.69417">
        <ele>9</ele>
        <time>2019-11-03T15:03:55Z</time>
      </trkpt>
      <trkpt lat="47.19498" lon="-1.69423">
        <ele>9</ele>
        <time>2019-11-03T15:03:56Z</time>
      </trkpt>
      <trkpt lat="47.19503" lon="-1.69434">
        <ele>9</ele>
        <time>2019-11-03T15:03:58Z</time>
      </trkpt>
      <trkpt lat="47.1951" lon="-1.6945">
        <ele>9</ele>
        <time>2019-11-03T15:04:00Z</time>
      </trkpt>
      <trkpt lat="47.19528" lon="-1.69498">
        <ele>9</ele>
        <time>2019-11-03T15:04:08Z</time>
      </trkpt>
      <trkpt lat="47.19559" lon="-1.69576">
        <ele>9</ele>
        <time>2019-11-03T15:04:20Z</time>
      </trkpt>
      <trkpt lat="47.19578" lon="-1.69621">
        <ele>11</ele>
        <time>2019-11-03T15:04:27Z</time>
      </trkpt>
      <trkpt lat="47.19599" lon="-1.69667">
        <ele>11</ele>
        <time>2019-11-03T15:04:35Z</time>
      </trkpt>
      <trkpt lat="47.19617" lon="-1.69703">
        <ele>11</ele>
        <time>2019-11-03T15:04:41Z</time>
      </trkpt>
      <trkpt lat="47.19629" lon="-1.69735">
        <ele>11</ele>
        <time>2019-11-03T15:04:46Z</time>
      </trkpt>
      <trkpt lat="47.19644" lon="-1.69788">
        <ele>11</ele>
        <time>2019-11-03T15:04:54Z</time>
      </trkpt>
      <trkpt lat="47.19673" lon="-1.69802">
        <ele>14</ele>
        <time>2019-11-03T15:05:00Z</time>
      </trkpt>
      <trkpt lat="47.19683" lon="-1.69821">
        <ele>14</ele>
        <time>2019-11-03T15:05:03Z</time>
      </trkpt>
      <trkpt lat="47.19684" lon="-1.69831">
        <ele>14</ele>
        <time>2019-11-03T15:05:04Z</time>
      </trkpt>
      <trkpt lat="47.19683" lon="-1.6984">
        <ele>14</ele>
        <time>2019-11-03T15:05:06Z</time>
      </trkpt>
      <trkpt lat="47.19681" lon="-1.69848">
        <ele>14</ele>
        <time>2019-11-03T15:05:07Z</time>
      </trkpt>
      <trkpt lat="47.19678" lon="-1.69861">
        <ele>14</ele>
        <time>2019-11-03T15:05:09Z</time>
      </trkpt>
      <trkpt lat="47.19675" lon="-1.69875">
        <ele>14</ele>
        <time>2019-11-03T15:05:11Z</time>
      </trkpt>
      <trkpt lat="47.19674" lon="-1.69889">
        <ele>14</ele>
        <time>2019-11-03T15:05:13Z</time>
      </trkpt>
      <trkpt lat="47.19674" lon="-1.69901">
        <ele>14</ele>
        <time>2019-11-03T15:05:14Z</time>
      </trkpt>
      <trkpt lat="47.19678" lon="-1.69927">
        <ele>18</ele>
        <time>2019-11-03T15:05:18Z</time>
      </trkpt>
      <trkpt lat="47.19682" lon="-1.69943">
        <ele>18</ele>
        <time>2019-11-03T15:05:20Z</time>
      </trkpt>
      <trkpt lat="47.19685" lon="-1.69964">
        <ele>18</ele>
        <time>2019-11-03T15:05:23Z</time>
      </trkpt>
      <trkpt lat="47.19688" lon="-1.70002">
        <ele>18</ele>
        <time>2019-11-03T15:05:28Z</time>
      </trkpt>
      <trkpt lat="47.19688" lon="-1.70027">
        <ele>18</ele>
        <time>2019-11-03T15:05:32Z</time>
      </trkpt>
      <trkpt lat="47.19689" lon="-1.70052">
        <ele>18</ele>
        <time>2019-11-03T15:05:35Z</time>
      </trkpt>
      <trkpt lat="47.19687" lon="-1.70064">
        <ele>21</ele>
        <time>2019-11-03T15:05:37Z</time>
      </trkpt>
      <trkpt lat="47.19686" lon="-1.70075">
        <ele>21</ele>
        <time>2019-11-03T15:05:38Z</time>
      </trkpt>
      <trkpt lat="47.19682" lon="-1.70091">
        <ele>21</ele>
        <time>2019-11-03T15:05:41Z</time>
      </trkpt>
      <trkpt lat="47.19682" lon="-1.70103">
        <ele>21</ele>
        <time>2019-11-03T15:05:42Z</time>
      </trkpt>
      <trkpt lat="47.19682" lon="-1.70119">
        <ele>21</ele>
        <time>2019-11-03T15:05:44Z</time>
      </trkpt>
      <trkpt lat="47.19679" lon="-1.70136">
        <ele>21</ele>
        <time>2019-11-03T15:05:47Z</time>
      </trkpt>
      <trkpt lat="47.19676" lon="-1.70153">
        <ele>21</ele>
        <time>2019-11-03T15:05:49Z</time>
      </trkpt>
      <trkpt lat="47.19671" lon="-1.70169">
        <ele>21</ele>
        <time>2019-11-03T15:05:52Z</time>
      </trkpt>
      <trkpt lat="47.1967" lon="-1.70182">
        <ele>20</ele>
        <time>2019-11-03T15:05:53Z</time>
      </trkpt>
      <trkpt lat="47.1967" lon="-1.70195">
        <ele>20</ele>
        <time>2019-11-03T15:05:55Z</time>
      </trkpt>
      <trkpt lat="47.19672" lon="-1.70206">
        <ele>20</ele>
        <time>2019-11-03T15:05:57Z</time>
      </trkpt>
      <trkpt lat="47.19678" lon="-1.70222">
        <ele>20</ele>
        <time>2019-11-03T15:05:59Z</time>
      </trkpt>
      <trkpt lat="47.19681" lon="-1.70238">
        <ele>20</ele>
        <time>2019-11-03T15:06:01Z</time>
      </trkpt>
      <trkpt lat="47.19681" lon="-1.70252">
        <ele>20</ele>
        <time>2019-11-03T15:06:03Z</time>
      </trkpt>
      <trkpt lat="47.19678" lon="-1.70273">
        <ele>20</ele>
        <time>2019-11-03T15:06:06Z</time>
      </trkpt>
      <trkpt lat="47.19678" lon="-1.70288">
        <ele>20</ele>
        <time>2019-11-03T15:06:08Z</time>
      </trkpt>
      <trkpt lat="47.19683" lon="-1.70319">
        <ele>18</ele>
        <time>2019-11-03T15:06:13Z</time>
      </trkpt>
      <trkpt lat="47.19691" lon="-1.7035">
        <ele>18</ele>
        <time>2019-11-03T15:06:17Z</time>
      </trkpt>
      <trkpt lat="47.19699" lon="-1.70376">
        <ele>18</ele>
        <time>2019-11-03T15:06:21Z</time>
      </trkpt>
      <trkpt lat="47.19708" lon="-1.70411">
        <ele>22</ele>
        <time>2019-11-03T15:06:26Z</time>
      </trkpt>
      <trkpt lat="47.19711" lon="-1.7044">
        <ele>22</ele>
        <time>2019-11-03T15:06:30Z</time>
      </trkpt>
      <trkpt lat="47.19712" lon="-1.70461">
        <ele>22</ele>
        <time>2019-11-03T15:06:33Z</time>
      </trkpt>
      <trkpt lat="47.19711" lon="-1.70478">
        <ele>22</ele>
        <time>2019-11-03T15:06:35Z</time>
      </trkpt>
      <trkpt lat="47.19708" lon="-1.70487">
        <ele>22</ele>
        <time>2019-11-03T15:06:37Z</time>
      </trkpt>
      <trkpt lat="47.19707" lon="-1.70499">
        <ele>22</ele>
        <time>2019-11-03T15:06:38Z</time>
      </trkpt>
      <trkpt lat="47.19708" lon="-1.70509">
        <ele>22</ele>
        <time>2019-11-03T15:06:40Z</time>
      </trkpt>
      <trkpt lat="47.19712" lon="-1.70517">
        <ele>22</ele>
        <time>2019-11-03T15:06:41Z</time>
      </trkpt>
      <trkpt lat="47.19719" lon="-1.70538">
        <ele>25</ele>
        <time>2019-11-03T15:06:44Z</time>
      </trkpt>
      <trkpt lat="47.19717" lon="-1.70545">
        <ele>25</ele>
        <time>2019-11-03T15:06:45Z</time>
      </trkpt>
      <trkpt lat="47.19713" lon="-1.7055">
        <ele>25</ele>
        <time>2019-11-03T15:06:46Z</time>
      </trkpt>
      <trkpt lat="47.1971" lon="-1.70559">
        <ele>25</ele>
        <time>2019-11-03T15:06:48Z</time>
      </trkpt>
      <trkpt lat="47.19709" lon="-1.70567">
        <ele>25</ele>
        <time>2019-11-03T15:06:49Z</time>
      </trkpt>
      <trkpt lat="47.19709" lon="-1.70579">
        <ele>25</ele>
        <time>2019-11-03T15:06:50Z</time>
      </trkpt>
      <trkpt lat="47.19707" lon="-1.70589">
        <ele>25</ele>
        <time>2019-11-03T15:06:52Z</time>
      </trkpt>
      <trkpt lat="47.19703" lon="-1.70595">
        <ele>25</ele>
        <time>2019-11-03T15:06:53Z</time>
      </trkpt>
      <trkpt lat="47.197" lon="-1.70598">
        <ele>25</ele>
        <time>2019-11-03T15:06:54Z</time>
      </trkpt>
      <trkpt lat="47.19695" lon="-1.706">
        <ele>25</ele>
        <time>2019-11-03T15:06:55Z</time>
      </trkpt>
      <trkpt lat="47.19688" lon="-1.70597">
        <ele>25</ele>
        <time>2019-11-03T15:06:56Z</time>
      </trkpt>
      <trkpt lat="47.19686" lon="-1.70598">
        <ele>25</ele>
        <time>2019-11-03T15:06:57Z</time>
      </trkpt>
      <trkpt lat="47.19685" lon="-1.70601">
        <ele>26</ele>
        <time>2019-11-03T15:06:57Z</time>
      </trkpt>
      <trkpt lat="47.19685" lon="-1.70603">
        <ele>26</ele>
        <time>2019-11-03T15:06:57Z</time>
      </trkpt>
      <trkpt lat="47.19697" lon="-1.70627">
        <ele>26</ele>
        <time>2019-11-03T15:07:01Z</time>
      </trkpt>
      <trkpt lat="47.19715" lon="-1.7068">
        <ele>26</ele>
        <time>2019-11-03T15:07:09Z</time>
      </trkpt>
      <trkpt lat="47.19722" lon="-1.70709">
        <ele>26</ele>
        <time>2019-11-03T15:07:14Z</time>
      </trkpt>
      <trkpt lat="47.19726" lon="-1.70737">
        <ele>27</ele>
        <time>2019-11-03T15:07:18Z</time>
      </trkpt>
      <trkpt lat="47.19727" lon="-1.70758">
        <ele>27</ele>
        <time>2019-11-03T15:07:20Z</time>
      </trkpt>
      <trkpt lat="47.19724" lon="-1.70788">
        <ele>27</ele>
        <time>2019-11-03T15:07:25Z</time>
      </trkpt>
      <trkpt lat="47.1972" lon="-1.70813">
        <ele>27</ele>
        <time>2019-11-03T15:07:28Z</time>
      </trkpt>
      <trkpt lat="47.19716" lon="-1.70847">
        <ele>27</ele>
        <time>2019-11-03T15:07:33Z</time>
      </trkpt>
      <trkpt lat="47.19709" lon="-1.70871">
        <ele>31</ele>
        <time>2019-11-03T15:07:36Z</time>
      </trkpt>
      <trkpt lat="47.19708" lon="-1.70888">
        <ele>31</ele>
        <time>2019-11-03T15:07:39Z</time>
      </trkpt>
      <trkpt lat="47.19708" lon="-1.70907">
        <ele>31</ele>
        <time>2019-11-03T15:07:41Z</time>
      </trkpt>
      <trkpt lat="47.19703" lon="-1.70926">
        <ele>31</ele>
        <time>2019-11-03T15:07:44Z</time>
      </trkpt>
      <trkpt lat="47.19693" lon="-1.7095">
        <ele>31</ele>
        <time>2019-11-03T15:07:48Z</time>
      </trkpt>
      <trkpt lat="47.19684" lon="-1.70957">
        <ele>31</ele>
        <time>2019-11-03T15:07:50Z</time>
      </trkpt>
      <trkpt lat="47.1968" lon="-1.70961">
        <ele>31</ele>
        <time>2019-11-03T15:07:51Z</time>
      </trkpt>
      <trkpt lat="47.1967" lon="-1.70968">
        <ele>31</ele>
        <time>2019-11-03T15:07:53Z</time>
      </trkpt>
      <trkpt lat="47.19655" lon="-1.70977">
        <ele>29</ele>
        <time>2019-11-03T15:07:56Z</time>
      </trkpt>
      <trkpt lat="47.19644" lon="-1.70984">
        <ele>29</ele>
        <time>2019-11-03T15:07:59Z</time>
      </trkpt>
      <trkpt lat="47.19603" lon="-1.71009">
        <ele>29</ele>
        <time>2019-11-03T15:08:08Z</time>
      </trkpt>
      <trkpt lat="47.19573" lon="-1.71024">
        <ele>26</ele>
        <time>2019-11-03T15:08:14Z</time>
      </trkpt>
      <trkpt lat="47.19567" lon="-1.71026">
        <ele>26</ele>
        <time>2019-11-03T15:08:15Z</time>
      </trkpt>
      <trkpt lat="47.19552" lon="-1.71034">
        <ele>26</ele>
        <time>2019-11-03T15:08:18Z</time>
      </trkpt>
      <trkpt lat="47.19529" lon="-1.71045">
        <ele>26</ele>
        <time>2019-11-03T15:08:23Z</time>
      </trkpt>
      <trkpt lat="47.1952" lon="-1.7105">
        <ele>26</ele>
        <time>2019-11-03T15:08:25Z</time>
      </trkpt>
      <trkpt lat="47.19513" lon="-1.71055">
        <ele>26</ele>
        <time>2019-11-03T15:08:27Z</time>
      </trkpt>
      <trkpt lat="47.19509" lon="-1.71056">
        <ele>26</ele>
        <time>2019-11-03T15:08:28Z</time>
      </trkpt>
      <trkpt lat="47.19504" lon="-1.71056">
        <ele>26</ele>
        <time>2019-11-03T15:08:29Z</time>
      </trkpt>
      <trkpt lat="47.19498" lon="-1.71071">
        <ele>22</ele>
        <time>2019-11-03T15:08:31Z</time>
      </trkpt>
      <trkpt lat="47.19493" lon="-1.71079">
        <ele>22</ele>
        <time>2019-11-03T15:08:32Z</time>
      </trkpt>
      <trkpt lat="47.19489" lon="-1.7109">
        <ele>22</ele>
        <time>2019-11-03T15:08:34Z</time>
      </trkpt>
      <trkpt lat="47.19486" lon="-1.71102">
        <ele>22</ele>
        <time>2019-11-03T15:08:36Z</time>
      </trkpt>
      <trkpt lat="47.19484" lon="-1.71117">
        <ele>22</ele>
        <time>2019-11-03T15:08:38Z</time>
      </trkpt>
      <trkpt lat="47.19483" lon="-1.71133">
        <ele>22</ele>
        <time>2019-11-03T15:08:40Z</time>
      </trkpt>
      <trkpt lat="47.19482" lon="-1.71148">
        <ele>22</ele>
        <time>2019-11-03T15:08:42Z</time>
      </trkpt>
      <trkpt lat="47.19482" lon="-1.71161">
        <ele>22</ele>
        <time>2019-11-03T15:08:44Z</time>
      </trkpt>
      <trkpt lat="47.19483" lon="-1.71172">
        <ele>22</ele>
        <time>2019-11-03T15:08:45Z</time>
      </trkpt>
      <trkpt lat="47.19485" lon="-1.71182">
        <ele>22</ele>
        <time>2019-11-03T15:08:47Z</time>
      </trkpt>
      <trkpt lat="47.1949" lon="-1.71204">
        <ele>19</ele>
        <time>2019-11-03T15:08:50Z</time>
      </trkpt>
      <trkpt lat="47.19496" lon="-1.71223">
        <ele>19</ele>
        <time>2019-11-03T15:08:53Z</time>
      </trkpt>
      <trkpt lat="47.19499" lon="-1.71232">
        <ele>19</ele>
        <time>2019-11-03T15:08:54Z</time>
      </trkpt>
      <trkpt lat="47.19502" lon="-1.71243">
        <ele>19</ele>
        <time>2019-11-03T15:08:56Z</time>
      </trkpt>
      <trkpt lat="47.19506" lon="-1.71251">
        <ele>19</ele>
        <time>2019-11-03T15:08:57Z</time>
      </trkpt>
      <trkpt lat="47.19509" lon="-1.7126">
        <ele>19</ele>
        <time>2019-11-03T15:08:59Z</time>
      </trkpt>
      <trkpt lat="47.19512" lon="-1.71266">
        <ele>19</ele>
        <time>2019-11-03T15:09:00Z</time>
      </trkpt>
      <trkpt lat="47.19516" lon="-1.71271">
        <ele>19</ele>
        <time>2019-11-03T15:09:01Z</time>
      </trkpt>
      <trkpt lat="47.19527" lon="-1.71286">
        <ele>19</ele>
        <time>2019-11-03T15:09:04Z</time>
      </trkpt>
      <trkpt lat="47.19544" lon="-1.7131">
        <ele>19</ele>
        <time>2019-11-03T15:09:08Z</time>
      </trkpt>
      <trkpt lat="47.1956" lon="-1.71331">
        <ele>19</ele>
        <time>2019-11-03T15:09:13Z</time>
      </trkpt>
      <trkpt lat="47.19592" lon="-1.71372">
        <ele>19</ele>
        <time>2019-11-03T15:09:21Z</time>
      </trkpt>
      <trkpt lat="47.19597" lon="-1.71378">
        <ele>19</ele>
        <time>2019-11-03T15:09:22Z</time>
      </trkpt>
      <trkpt lat="47.19598" lon="-1.71382">
        <ele>19</ele>
        <time>2019-11-03T15:09:23Z</time>
      </trkpt>
      <trkpt lat="47.19598" lon="-1.71385">
        <ele>19</ele>
        <time>2019-11-03T15:09:23Z</time>
      </trkpt>
      <trkpt lat="47.19597" lon="-1.71388">
        <ele>19</ele>
        <time>2019-11-03T15:09:24Z</time>
      </trkpt>
      <trkpt lat="47.19596" lon="-1.7139">
        <ele>19</ele>
        <time>2019-11-03T15:09:24Z</time>
      </trkpt>
      <trkpt lat="47.1959" lon="-1.71394">
        <ele>19</ele>
        <time>2019-11-03T15:09:26Z</time>
      </trkpt>
      <trkpt lat="47.19508" lon="-1.71436">
        <ele>15</ele>
        <time>2019-11-03T15:09:43Z</time>
      </trkpt>
      <trkpt lat="47.19509" lon="-1.7144">
        <ele>15</ele>
        <time>2019-11-03T15:09:43Z</time>
      </trkpt>
      <trkpt lat="47.19529" lon="-1.71528">
        <ele>12</ele>
        <time>2019-11-03T15:09:56Z</time>
      </trkpt>
      <trkpt lat="47.19548" lon="-1.71603">
        <ele>10</ele>
        <time>2019-11-03T15:10:07Z</time>
      </trkpt>
      <trkpt lat="47.19562" lon="-1.71674">
        <ele>10</ele>
        <time>2019-11-03T15:10:17Z</time>
      </trkpt>
      <trkpt lat="47.19571" lon="-1.71728">
        <ele>7</ele>
        <time>2019-11-03T15:10:25Z</time>
      </trkpt>
      <trkpt lat="47.19578" lon="-1.71775">
        <ele>7</ele>
        <time>2019-11-03T15:10:31Z</time>
      </trkpt>
      <trkpt lat="47.19582" lon="-1.71807">
        <ele>7</ele>
        <time>2019-11-03T15:10:36Z</time>
      </trkpt>
      <trkpt lat="47.19586" lon="-1.71836">
        <ele>6</ele>
        <time>2019-11-03T15:10:40Z</time>
      </trkpt>
      <trkpt lat="47.19593" lon="-1.71865">
        <ele>6</ele>
        <time>2019-11-03T15:10:44Z</time>
      </trkpt>
      <trkpt lat="47.196" lon="-1.719">
        <ele>6</ele>
        <time>2019-11-03T15:10:49Z</time>
      </trkpt>
      <trkpt lat="47.19603" lon="-1.71917">
        <ele>12</ele>
        <time>2019-11-03T15:10:51Z</time>
      </trkpt>
      <trkpt lat="47.19607" lon="-1.71949">
        <ele>12</ele>
        <time>2019-11-03T15:10:56Z</time>
      </trkpt>
      <trkpt lat="47.19612" lon="-1.71981">
        <ele>12</ele>
        <time>2019-11-03T15:11:00Z</time>
      </trkpt>
      <trkpt lat="47.19614" lon="-1.71985">
        <ele>12</ele>
        <time>2019-11-03T15:11:01Z</time>
      </trkpt>
      <trkpt lat="47.19617" lon="-1.71988">
        <ele>12</ele>
        <time>2019-11-03T15:11:02Z</time>
      </trkpt>
      <trkpt lat="47.19622" lon="-1.71986">
        <ele>12</ele>
        <time>2019-11-03T15:11:03Z</time>
      </trkpt>
      <trkpt lat="47.19638" lon="-1.71975">
        <ele>12</ele>
        <time>2019-11-03T15:11:06Z</time>
      </trkpt>
      <trkpt lat="47.19646" lon="-1.71969">
        <ele>11</ele>
        <time>2019-11-03T15:11:08Z</time>
      </trkpt>
      <trkpt lat="47.19647" lon="-1.71963">
        <ele>11</ele>
        <time>2019-11-03T15:11:09Z</time>
      </trkpt>
      <trkpt lat="47.19647" lon="-1.71956">
        <ele>11</ele>
        <time>2019-11-03T15:11:10Z</time>
      </trkpt>
      <trkpt lat="47.19645" lon="-1.71947">
        <ele>11</ele>
        <time>2019-11-03T15:11:11Z</time>
      </trkpt>
      <trkpt lat="47.19643" lon="-1.71941">
        <ele>11</ele>
        <time>2019-11-03T15:11:12Z</time>
      </trkpt>
      <trkpt lat="47.19644" lon="-1.71935">
        <ele>11</ele>
        <time>2019-11-03T15:11:13Z</time>
      </trkpt>
      <trkpt lat="47.19646" lon="-1.71932">
        <ele>11</ele>
        <time>2019-11-03T15:11:13Z</time>
      </trkpt>
      <trkpt lat="47.19648" lon="-1.71931">
        <ele>11</ele>
        <time>2019-11-03T15:11:14Z</time>
      </trkpt>
      <trkpt lat="47.1965" lon="-1.71932">
        <ele>11</ele>
        <time>2019-11-03T15:11:14Z</time>
      </trkpt>
      <trkpt lat="47.19655" lon="-1.71935">
        <ele>11</ele>
        <time>2019-11-03T15:11:15Z</time>
      </trkpt>
      <trkpt lat="47.1968" lon="-1.7195">
        <ele>11</ele>
        <time>2019-11-03T15:11:21Z</time>
      </trkpt>
      <trkpt lat="47.19706" lon="-1.71963">
        <ele>11</ele>
        <time>2019-11-03T15:11:26Z</time>
      </trkpt>
      <trkpt lat="47.19718" lon="-1.71968">
        <ele>12</ele>
        <time>2019-11-03T15:11:29Z</time>
      </trkpt>
      <trkpt lat="47.19714" lon="-1.7199">
        <ele>12</ele>
        <time>2019-11-03T15:11:32Z</time>
      </trkpt>
      <trkpt lat="47.19712" lon="-1.72023">
        <ele>12</ele>
        <time>2019-11-03T15:11:36Z</time>
      </trkpt>
      <trkpt lat="47.19711" lon="-1.72136">
        <ele>17</ele>
        <time>2019-11-03T15:11:52Z</time>
      </trkpt>
      <trkpt lat="47.19714" lon="-1.72176">
        <ele>17</ele>
        <time>2019-11-03T15:11:57Z</time>
      </trkpt>
      <trkpt lat="47.19715" lon="-1.72205">
        <ele>17</ele>
        <time>2019-11-03T15:12:01Z</time>
      </trkpt>
      <trkpt lat="47.19716" lon="-1.7224">
        <ele>12</ele>
        <time>2019-11-03T15:12:06Z</time>
      </trkpt>
      <trkpt lat="47.19717" lon="-1.72248">
        <ele>12</ele>
        <time>2019-11-03T15:12:07Z</time>
      </trkpt>
      <trkpt lat="47.19718" lon="-1.72255">
        <ele>12</ele>
        <time>2019-11-03T15:12:08Z</time>
      </trkpt>
      <trkpt lat="47.19721" lon="-1.72259">
        <ele>12</ele>
        <time>2019-11-03T15:12:09Z</time>
      </trkpt>
      <trkpt lat="47.19725" lon="-1.72262">
        <ele>12</ele>
        <time>2019-11-03T15:12:10Z</time>
      </trkpt>
      <trkpt lat="47.19738" lon="-1.72265">
        <ele>12</ele>
        <time>2019-11-03T15:12:12Z</time>
      </trkpt>
      <trkpt lat="47.19786" lon="-1.72268">
        <ele>11</ele>
        <time>2019-11-03T15:12:22Z</time>
      </trkpt>
      <trkpt lat="47.19804" lon="-1.72264">
        <ele>11</ele>
        <time>2019-11-03T15:12:26Z</time>
      </trkpt>
      <trkpt lat="47.19832" lon="-1.7226">
        <ele>11</ele>
        <time>2019-11-03T15:12:31Z</time>
      </trkpt>
      <trkpt lat="47.19878" lon="-1.72252">
        <ele>10</ele>
        <time>2019-11-03T15:12:40Z</time>
      </trkpt>
      <trkpt lat="47.19898" lon="-1.72247">
        <ele>10</ele>
        <time>2019-11-03T15:12:45Z</time>
      </trkpt>
      <trkpt lat="47.19901" lon="-1.72247">
        <ele>10</ele>
        <time>2019-11-03T15:12:45Z</time>
      </trkpt>
      <trkpt lat="47.19903" lon="-1.72244">
        <ele>10</ele>
        <time>2019-11-03T15:12:46Z</time>
      </trkpt>
      <trkpt lat="47.19904" lon="-1.72237">
        <ele>10</ele>
        <time>2019-11-03T15:12:47Z</time>
      </trkpt>
      <trkpt lat="47.19904" lon="-1.72225">
        <ele>14</ele>
        <time>2019-11-03T15:12:48Z</time>
      </trkpt>
      <trkpt lat="47.19902" lon="-1.72218">
        <ele>14</ele>
        <time>2019-11-03T15:12:49Z</time>
      </trkpt>
      <trkpt lat="47.19908" lon="-1.72221">
        <ele>14</ele>
        <time>2019-11-03T15:12:51Z</time>
      </trkpt>
      <trkpt lat="47.19916" lon="-1.72237">
        <ele>14</ele>
        <time>2019-11-03T15:12:53Z</time>
      </trkpt>
      <trkpt lat="47.19918" lon="-1.72241">
        <ele>14</ele>
        <time>2019-11-03T15:12:54Z</time>
      </trkpt>
      <trkpt lat="47.19921" lon="-1.72244">
        <ele>14</ele>
        <time>2019-11-03T15:12:55Z</time>
      </trkpt>
      <trkpt lat="47.19928" lon="-1.7225">
        <ele>14</ele>
        <time>2019-11-03T15:12:56Z</time>
      </trkpt>
      <trkpt lat="47.19932" lon="-1.72254">
        <ele>14</ele>
        <time>2019-11-03T15:12:57Z</time>
      </trkpt>
      <trkpt lat="47.19936" lon="-1.72258">
        <ele>14</ele>
        <time>2019-11-03T15:12:58Z</time>
      </trkpt>
      <trkpt lat="47.19937" lon="-1.72263">
        <ele>14</ele>
        <time>2019-11-03T15:12:59Z</time>
      </trkpt>
      <trkpt lat="47.19937" lon="-1.72269">
        <ele>14</ele>
        <time>2019-11-03T15:13:00Z</time>
      </trkpt>
      <trkpt lat="47.19937" lon="-1.72276">
        <ele>14</ele>
        <time>2019-11-03T15:13:01Z</time>
      </trkpt>
      <trkpt lat="47.19936" lon="-1.72292">
        <ele>14</ele>
        <time>2019-11-03T15:13:03Z</time>
      </trkpt>
      <trkpt lat="47.19936" lon="-1.72313">
        <ele>7</ele>
        <time>2019-11-03T15:13:06Z</time>
      </trkpt>
      <trkpt lat="47.19938" lon="-1.72328">
        <ele>7</ele>
        <time>2019-11-03T15:13:08Z</time>
      </trkpt>
      <trkpt lat="47.19941" lon="-1.72342">
        <ele>7</ele>
        <time>2019-11-03T15:13:10Z</time>
      </trkpt>
      <trkpt lat="47.19944" lon="-1.72349">
        <ele>7</ele>
        <time>2019-11-03T15:13:11Z</time>
      </trkpt>
      <trkpt lat="47.19947" lon="-1.72356">
        <ele>7</ele>
        <time>2019-11-03T15:13:12Z</time>
      </trkpt>
      <trkpt lat="47.19952" lon="-1.72361">
        <ele>7</ele>
        <time>2019-11-03T15:13:13Z</time>
      </trkpt>
      <trkpt lat="47.19957" lon="-1.72365">
        <ele>7</ele>
        <time>2019-11-03T15:13:15Z</time>
      </trkpt>
      <trkpt lat="47.19962" lon="-1.72369">
        <ele>7</ele>
        <time>2019-11-03T15:13:16Z</time>
      </trkpt>
      <trkpt lat="47.19966" lon="-1.72373">
        <ele>7</ele>
        <time>2019-11-03T15:13:17Z</time>
      </trkpt>
      <trkpt lat="47.1997" lon="-1.7238">
        <ele>7</ele>
        <time>2019-11-03T15:13:18Z</time>
      </trkpt>
      <trkpt lat="47.19971" lon="-1.72386">
        <ele>7</ele>
        <time>2019-11-03T15:13:19Z</time>
      </trkpt>
      <trkpt lat="47.1997" lon="-1.72395">
        <ele>7</ele>
        <time>2019-11-03T15:13:20Z</time>
      </trkpt>
      <trkpt lat="47.19969" lon="-1.72408">
        <ele>7</ele>
        <time>2019-11-03T15:13:22Z</time>
      </trkpt>
      <trkpt lat="47.19967" lon="-1.72418">
        <ele>9</ele>
        <time>2019-11-03T15:13:23Z</time>
      </trkpt>
      <trkpt lat="47.19964" lon="-1.7243">
        <ele>9</ele>
        <time>2019-11-03T15:13:25Z</time>
      </trkpt>
      <trkpt lat="47.19962" lon="-1.72436">
        <ele>9</ele>
        <time>2019-11-03T15:13:26Z</time>
      </trkpt>
      <trkpt lat="47.19956" lon="-1.72437">
        <ele>9</ele>
        <time>2019-11-03T15:13:27Z</time>
      </trkpt>
      <trkpt lat="47.19954" lon="-1.72443">
        <ele>9</ele>
        <time>2019-11-03T15:13:28Z</time>
      </trkpt>
      <trkpt lat="47.19951" lon="-1.72446">
        <ele>9</ele>
        <time>2019-11-03T15:13:29Z</time>
      </trkpt>
      <trkpt lat="47.19949" lon="-1.72447">
        <ele>9</ele>
        <time>2019-11-03T15:13:29Z</time>
      </trkpt>
      <trkpt lat="47.19945" lon="-1.72449">
        <ele>9</ele>
        <time>2019-11-03T15:13:30Z</time>
      </trkpt>
      <trkpt lat="47.1994" lon="-1.72449">
        <ele>9</ele>
        <time>2019-11-03T15:13:31Z</time>
      </trkpt>
      <trkpt lat="47.19926" lon="-1.72451">
        <ele>9</ele>
        <time>2019-11-03T15:13:34Z</time>
      </trkpt>
      <trkpt lat="47.19902" lon="-1.72453">
        <ele>9</ele>
        <time>2019-11-03T15:13:39Z</time>
      </trkpt>
      <trkpt lat="47.19897" lon="-1.72453">
        <ele>9</ele>
        <time>2019-11-03T15:13:40Z</time>
      </trkpt>
      <trkpt lat="47.19893" lon="-1.72455">
        <ele>9</ele>
        <time>2019-11-03T15:13:40Z</time>
      </trkpt>
      <trkpt lat="47.1989" lon="-1.72456">
        <ele>9</ele>
        <time>2019-11-03T15:13:41Z</time>
      </trkpt>
      <trkpt lat="47.19888" lon="-1.72457">
        <ele>13</ele>
        <time>2019-11-03T15:13:41Z</time>
      </trkpt>
      <trkpt lat="47.19886" lon="-1.72459">
        <ele>13</ele>
        <time>2019-11-03T15:13:42Z</time>
      </trkpt>
      <trkpt lat="47.19884" lon="-1.72462">
        <ele>13</ele>
        <time>2019-11-03T15:13:42Z</time>
      </trkpt>
      <trkpt lat="47.19883" lon="-1.72466">
        <ele>13</ele>
        <time>2019-11-03T15:13:43Z</time>
      </trkpt>
      <trkpt lat="47.19883" lon="-1.72469">
        <ele>13</ele>
        <time>2019-11-03T15:13:43Z</time>
      </trkpt>
      <trkpt lat="47.19885" lon="-1.72473">
        <ele>13</ele>
        <time>2019-11-03T15:13:44Z</time>
      </trkpt>
      <trkpt lat="47.19886" lon="-1.72474">
        <ele>13</ele>
        <time>2019-11-03T15:13:44Z</time>
      </trkpt>
      <trkpt lat="47.19899" lon="-1.7249">
        <ele>13</ele>
        <time>2019-11-03T15:13:48Z</time>
      </trkpt>
      <trkpt lat="47.19905" lon="-1.72499">
        <ele>13</ele>
        <time>2019-11-03T15:13:50Z</time>
      </trkpt>
      <trkpt lat="47.1991" lon="-1.72509">
        <ele>13</ele>
        <time>2019-11-03T15:13:51Z</time>
      </trkpt>
      <trkpt lat="47.19921" lon="-1.72533">
        <ele>13</ele>
        <time>2019-11-03T15:13:55Z</time>
      </trkpt>
      <trkpt lat="47.19923" lon="-1.72537">
        <ele>13</ele>
        <time>2019-11-03T15:13:56Z</time>
      </trkpt>
      <trkpt lat="47.19927" lon="-1.72547">
        <ele>13</ele>
        <time>2019-11-03T15:13:57Z</time>
      </trkpt>
      <trkpt lat="47.19931" lon="-1.72558">
        <ele>13</ele>
        <time>2019-11-03T15:13:59Z</time>
      </trkpt>
      <trkpt lat="47.19939" lon="-1.72575">
        <ele>10</ele>
        <time>2019-11-03T15:14:02Z</time>
      </trkpt>
      <trkpt lat="47.19953" lon="-1.72605">
        <ele>10</ele>
        <time>2019-11-03T15:14:07Z</time>
      </trkpt>
      <trkpt lat="47.19961" lon="-1.72629">
        <ele>10</ele>
        <time>2019-11-03T15:14:11Z</time>
      </trkpt>
      <trkpt lat="47.19967" lon="-1.72657">
        <ele>10</ele>
        <time>2019-11-03T15:14:15Z</time>
      </trkpt>
      <trkpt lat="47.19972" lon="-1.72684">
        <ele>10</ele>
        <time>2019-11-03T15:14:18Z</time>
      </trkpt>
      <trkpt lat="47.19973" lon="-1.7273">
        <ele>10</ele>
        <time>2019-11-03T15:14:25Z</time>
      </trkpt>
      <trkpt lat="47.1998" lon="-1.72772">
        <ele>10</ele>
        <time>2019-11-03T15:14:30Z</time>
      </trkpt>
      <trkpt lat="47.19989" lon="-1.72804">
        <ele>10</ele>
        <time>2019-11-03T15:14:35Z</time>
      </trkpt>
      <trkpt lat="47.19999" lon="-1.72825">
        <ele>12</ele>
        <time>2019-11-03T15:14:39Z</time>
      </trkpt>
      <trkpt lat="47.20007" lon="-1.72854">
        <ele>12</ele>
        <time>2019-11-03T15:14:43Z</time>
      </trkpt>
      <trkpt lat="47.20021" lon="-1.72915">
        <ele>12</ele>
        <time>2019-11-03T15:14:52Z</time>
      </trkpt>
      <trkpt lat="47.20021" lon="-1.72945">
        <ele>12</ele>
        <time>2019-11-03T15:14:56Z</time>
      </trkpt>
      <trkpt lat="47.2002" lon="-1.72953">
        <ele>14</ele>
        <time>2019-11-03T15:14:57Z</time>
      </trkpt>
      <trkpt lat="47.20022" lon="-1.72961">
        <ele>14</ele>
        <time>2019-11-03T15:14:58Z</time>
      </trkpt>
      <trkpt lat="47.20025" lon="-1.72966">
        <ele>14</ele>
        <time>2019-11-03T15:14:59Z</time>
      </trkpt>
      <trkpt lat="47.20029" lon="-1.72969">
        <ele>14</ele>
        <time>2019-11-03T15:15:00Z</time>
      </trkpt>
      <trkpt lat="47.20036" lon="-1.72975">
        <ele>14</ele>
        <time>2019-11-03T15:15:01Z</time>
      </trkpt>
      <trkpt lat="47.20039" lon="-1.7298">
        <ele>14</ele>
        <time>2019-11-03T15:15:02Z</time>
      </trkpt>
      <trkpt lat="47.2004" lon="-1.72983">
        <ele>14</ele>
        <time>2019-11-03T15:15:03Z</time>
      </trkpt>
      <trkpt lat="47.20042" lon="-1.72991">
        <ele>14</ele>
        <time>2019-11-03T15:15:04Z</time>
      </trkpt>
      <trkpt lat="47.20043" lon="-1.73001">
        <ele>14</ele>
        <time>2019-11-03T15:15:05Z</time>
      </trkpt>
      <trkpt lat="47.20048" lon="-1.73027">
        <ele>14</ele>
        <time>2019-11-03T15:15:09Z</time>
      </trkpt>
      <trkpt lat="47.2005" lon="-1.73039">
        <ele>14</ele>
        <time>2019-11-03T15:15:11Z</time>
      </trkpt>
      <trkpt lat="47.2005" lon="-1.73065">
        <ele>13</ele>
        <time>2019-11-03T15:15:14Z</time>
      </trkpt>
      <trkpt lat="47.20052" lon="-1.73082">
        <ele>13</ele>
        <time>2019-11-03T15:15:17Z</time>
      </trkpt>
      <trkpt lat="47.20055" lon="-1.73103">
        <ele>13</ele>
        <time>2019-11-03T15:15:20Z</time>
      </trkpt>
      <trkpt lat="47.20059" lon="-1.7312">
        <ele>13</ele>
        <time>2019-11-03T15:15:22Z</time>
      </trkpt>
      <trkpt lat="47.20061" lon="-1.73139">
        <ele>13</ele>
        <time>2019-11-03T15:15:25Z</time>
      </trkpt>
      <trkpt lat="47.20062" lon="-1.73169">
        <ele>13</ele>
        <time>2019-11-03T15:15:29Z</time>
      </trkpt>
      <trkpt lat="47.20067" lon="-1.73198">
        <ele>13</ele>
        <time>2019-11-03T15:15:33Z</time>
      </trkpt>
      <trkpt lat="47.20068" lon="-1.73207">
        <ele>13</ele>
        <time>2019-11-03T15:15:34Z</time>
      </trkpt>
      <trkpt lat="47.20069" lon="-1.73219">
        <ele>13</ele>
        <time>2019-11-03T15:15:36Z</time>
      </trkpt>
      <trkpt lat="47.20069" lon="-1.73233">
        <ele>13</ele>
        <time>2019-11-03T15:15:38Z</time>
      </trkpt>
      <trkpt lat="47.20067" lon="-1.73253">
        <ele>13</ele>
        <time>2019-11-03T15:15:40Z</time>
      </trkpt>
      <trkpt lat="47.20064" lon="-1.7328">
        <ele>13</ele>
        <time>2019-11-03T15:15:44Z</time>
      </trkpt>
      <trkpt lat="47.20065" lon="-1.73297">
        <ele>13</ele>
        <time>2019-11-03T15:15:46Z</time>
      </trkpt>
      <trkpt lat="47.20068" lon="-1.73312">
        <ele>16</ele>
        <time>2019-11-03T15:15:49Z</time>
      </trkpt>
      <trkpt lat="47.20068" lon="-1.73332">
        <ele>16</ele>
        <time>2019-11-03T15:15:51Z</time>
      </trkpt>
      <trkpt lat="47.20066" lon="-1.73358">
        <ele>16</ele>
        <time>2019-11-03T15:15:55Z</time>
      </trkpt>
      <trkpt lat="47.20065" lon="-1.73372">
        <ele>16</ele>
        <time>2019-11-03T15:15:57Z</time>
      </trkpt>
      <trkpt lat="47.20068" lon="-1.73388">
        <ele>16</ele>
        <time>2019-11-03T15:15:59Z</time>
      </trkpt>
      <trkpt lat="47.20071" lon="-1.73404">
        <ele>16</ele>
        <time>2019-11-03T15:16:01Z</time>
      </trkpt>
      <trkpt lat="47.20072" lon="-1.7342">
        <ele>16</ele>
        <time>2019-11-03T15:16:03Z</time>
      </trkpt>
      <trkpt lat="47.20071" lon="-1.73439">
        <ele>16</ele>
        <time>2019-11-03T15:16:06Z</time>
      </trkpt>
      <trkpt lat="47.20072" lon="-1.73454">
        <ele>17</ele>
        <time>2019-11-03T15:16:08Z</time>
      </trkpt>
      <trkpt lat="47.20075" lon="-1.73468">
        <ele>17</ele>
        <time>2019-11-03T15:16:10Z</time>
      </trkpt>
      <trkpt lat="47.20076" lon="-1.7348">
        <ele>17</ele>
        <time>2019-11-03T15:16:12Z</time>
      </trkpt>
      <trkpt lat="47.20079" lon="-1.73503">
        <ele>17</ele>
        <time>2019-11-03T15:16:15Z</time>
      </trkpt>
      <trkpt lat="47.20078" lon="-1.73533">
        <ele>17</ele>
        <time>2019-11-03T15:16:19Z</time>
      </trkpt>
      <trkpt lat="47.20068" lon="-1.73549">
        <ele>17</ele>
        <time>2019-11-03T15:16:22Z</time>
      </trkpt>
      <trkpt lat="47.20061" lon="-1.73558">
        <ele>17</ele>
        <time>2019-11-03T15:16:24Z</time>
      </trkpt>
      <trkpt lat="47.20045" lon="-1.73571">
        <ele>18</ele>
        <time>2019-11-03T15:16:27Z</time>
      </trkpt>
      <trkpt lat="47.20046" lon="-1.73578">
        <ele>18</ele>
        <time>2019-11-03T15:16:28Z</time>
      </trkpt>
      <trkpt lat="47.20047" lon="-1.73588">
        <ele>18</ele>
        <time>2019-11-03T15:16:30Z</time>
      </trkpt>
      <trkpt lat="47.20047" lon="-1.73604">
        <ele>18</ele>
        <time>2019-11-03T15:16:32Z</time>
      </trkpt>
      <trkpt lat="47.20048" lon="-1.73616">
        <ele>18</ele>
        <time>2019-11-03T15:16:34Z</time>
      </trkpt>
      <trkpt lat="47.20049" lon="-1.73632">
        <ele>18</ele>
        <time>2019-11-03T15:16:36Z</time>
      </trkpt>
      <trkpt lat="47.20048" lon="-1.73645">
        <ele>18</ele>
        <time>2019-11-03T15:16:38Z</time>
      </trkpt>
      <trkpt lat="47.20046" lon="-1.73669">
        <ele>18</ele>
        <time>2019-11-03T15:16:41Z</time>
      </trkpt>
      <trkpt lat="47.20041" lon="-1.73707">
        <ele>18</ele>
        <time>2019-11-03T15:16:46Z</time>
      </trkpt>
      <trkpt lat="47.20037" lon="-1.73771">
        <ele>18</ele>
        <time>2019-11-03T15:16:55Z</time>
      </trkpt>
      <trkpt lat="47.20035" lon="-1.7378">
        <ele>18</ele>
        <time>2019-11-03T15:16:56Z</time>
      </trkpt>
      <trkpt lat="47.20033" lon="-1.73793">
        <ele>18</ele>
        <time>2019-11-03T15:16:58Z</time>
      </trkpt>
      <trkpt lat="47.2003" lon="-1.73804">
        <ele>18</ele>
        <time>2019-11-03T15:17:00Z</time>
      </trkpt>
      <trkpt lat="47.20023" lon="-1.73833">
        <ele>15</ele>
        <time>2019-11-03T15:17:04Z</time>
      </trkpt>
      <trkpt lat="47.20019" lon="-1.73844">
        <ele>15</ele>
        <time>2019-11-03T15:17:06Z</time>
      </trkpt>
      <trkpt lat="47.20015" lon="-1.73854">
        <ele>15</ele>
        <time>2019-11-03T15:17:07Z</time>
      </trkpt>
      <trkpt lat="47.20013" lon="-1.73857">
        <ele>15</ele>
        <time>2019-11-03T15:17:08Z</time>
      </trkpt>
      <trkpt lat="47.2001" lon="-1.73858">
        <ele>15</ele>
        <time>2019-11-03T15:17:08Z</time>
      </trkpt>
      <trkpt lat="47.20007" lon="-1.73859">
        <ele>15</ele>
        <time>2019-11-03T15:17:09Z</time>
      </trkpt>
      <trkpt lat="47.20006" lon="-1.73867">
        <ele>15</ele>
        <time>2019-11-03T15:17:10Z</time>
      </trkpt>
      <trkpt lat="47.20005" lon="-1.73887">
        <ele>15</ele>
        <time>2019-11-03T15:17:13Z</time>
      </trkpt>
      <trkpt lat="47.20004" lon="-1.73895">
        <ele>15</ele>
        <time>2019-11-03T15:17:14Z</time>
      </trkpt>
      <trkpt lat="47.20003" lon="-1.73901">
        <ele>15</ele>
        <time>2019-11-03T15:17:15Z</time>
      </trkpt>
      <trkpt lat="47.20001" lon="-1.73908">
        <ele>15</ele>
        <time>2019-11-03T15:17:16Z</time>
      </trkpt>
      <trkpt lat="47.19998" lon="-1.73915">
        <ele>15</ele>
        <time>2019-11-03T15:17:17Z</time>
      </trkpt>
      <trkpt lat="47.19993" lon="-1.73926">
        <ele>15</ele>
        <time>2019-11-03T15:17:19Z</time>
      </trkpt>
      <trkpt lat="47.19989" lon="-1.73934">
        <ele>15</ele>
        <time>2019-11-03T15:17:20Z</time>
      </trkpt>
      <trkpt lat="47.19985" lon="-1.7394">
        <ele>10</ele>
        <time>2019-11-03T15:17:21Z</time>
      </trkpt>
      <trkpt lat="47.19972" lon="-1.73955">
        <ele>10</ele>
        <time>2019-11-03T15:17:24Z</time>
      </trkpt>
      <trkpt lat="47.19966" lon="-1.73963">
        <ele>10</ele>
        <time>2019-11-03T15:17:26Z</time>
      </trkpt>
      <trkpt lat="47.19963" lon="-1.73966">
        <ele>10</ele>
        <time>2019-11-03T15:17:27Z</time>
      </trkpt>
      <trkpt lat="47.19964" lon="-1.73968">
        <ele>10</ele>
        <time>2019-11-03T15:17:27Z</time>
      </trkpt>
      <trkpt lat="47.19965" lon="-1.73971">
        <ele>10</ele>
        <time>2019-11-03T15:17:28Z</time>
      </trkpt>
      <trkpt lat="47.19965" lon="-1.73974">
        <ele>10</ele>
        <time>2019-11-03T15:17:28Z</time>
      </trkpt>
      <trkpt lat="47.19964" lon="-1.73976">
        <ele>10</ele>
        <time>2019-11-03T15:17:28Z</time>
      </trkpt>
      <trkpt lat="47.19964" lon="-1.73978">
        <ele>10</ele>
        <time>2019-11-03T15:17:29Z</time>
      </trkpt>
      <trkpt lat="47.19963" lon="-1.7398">
        <ele>10</ele>
        <time>2019-11-03T15:17:29Z</time>
      </trkpt>
      <trkpt lat="47.19962" lon="-1.73981">
        <ele>10</ele>
        <time>2019-11-03T15:17:29Z</time>
      </trkpt>
      <trkpt lat="47.1996" lon="-1.73982">
        <ele>10</ele>
        <time>2019-11-03T15:17:30Z</time>
      </trkpt>
      <trkpt lat="47.19959" lon="-1.73982">
        <ele>10</ele>
        <time>2019-11-03T15:17:30Z</time>
      </trkpt>
      <trkpt lat="47.19959" lon="-1.73987">
        <ele>10</ele>
        <time>2019-11-03T15:17:31Z</time>
      </trkpt>
      <trkpt lat="47.19981" lon="-1.74152">
        <ele>6</ele>
        <time>2019-11-03T15:17:53Z</time>
      </trkpt>
      <trkpt lat="47.19985" lon="-1.74183">
        <ele>6</ele>
        <time>2019-11-03T15:17:58Z</time>
      </trkpt>
      <trkpt lat="47.19988" lon="-1.74225">
        <ele>5</ele>
        <time>2019-11-03T15:18:03Z</time>
      </trkpt>
      <trkpt lat="47.19989" lon="-1.74232">
        <ele>5</ele>
        <time>2019-11-03T15:18:04Z</time>
      </trkpt>
      <trkpt lat="47.19991" lon="-1.74239">
        <ele>5</ele>
        <time>2019-11-03T15:18:05Z</time>
      </trkpt>
      <trkpt lat="47.19994" lon="-1.74245">
        <ele>5</ele>
        <time>2019-11-03T15:18:06Z</time>
      </trkpt>
      <trkpt lat="47.20012" lon="-1.74274">
        <ele>5</ele>
        <time>2019-11-03T15:18:12Z</time>
      </trkpt>
      <trkpt lat="47.20024" lon="-1.74296">
        <ele>5</ele>
        <time>2019-11-03T15:18:16Z</time>
      </trkpt>
      <trkpt lat="47.2003" lon="-1.74307">
        <ele>5</ele>
        <time>2019-11-03T15:18:18Z</time>
      </trkpt>
      <trkpt lat="47.20034" lon="-1.74319">
        <ele>5</ele>
        <time>2019-11-03T15:18:19Z</time>
      </trkpt>
      <trkpt lat="47.20039" lon="-1.74334">
        <ele>5</ele>
        <time>2019-11-03T15:18:22Z</time>
      </trkpt>
      <trkpt lat="47.20042" lon="-1.7435">
        <ele>5</ele>
        <time>2019-11-03T15:18:24Z</time>
      </trkpt>
      <trkpt lat="47.20048" lon="-1.74379">
        <ele>5</ele>
        <time>2019-11-03T15:18:28Z</time>
      </trkpt>
      <trkpt lat="47.20053" lon="-1.74404">
        <ele>5</ele>
        <time>2019-11-03T15:18:32Z</time>
      </trkpt>
      <trkpt lat="47.20085" lon="-1.74584">
        <ele>5</ele>
        <time>2019-11-03T15:18:57Z</time>
      </trkpt>
      <trkpt lat="47.20126" lon="-1.748">
        <ele>7</ele>
        <time>2019-11-03T15:19:27Z</time>
      </trkpt>
      <trkpt lat="47.20132" lon="-1.74834">
        <ele>7</ele>
        <time>2019-11-03T15:19:32Z</time>
      </trkpt>
      <trkpt lat="47.20135" lon="-1.74853">
        <ele>7</ele>
        <time>2019-11-03T15:19:35Z</time>
      </trkpt>
      <trkpt lat="47.20137" lon="-1.74866">
        <ele>9</ele>
        <time>2019-11-03T15:19:37Z</time>
      </trkpt>
      <trkpt lat="47.20137" lon="-1.74877">
        <ele>9</ele>
        <time>2019-11-03T15:19:38Z</time>
      </trkpt>
      <trkpt lat="47.20137" lon="-1.74881">
        <ele>9</ele>
        <time>2019-11-03T15:19:39Z</time>
      </trkpt>
      <trkpt lat="47.20139" lon="-1.74881">
        <ele>9</ele>
        <time>2019-11-03T15:19:39Z</time>
      </trkpt>
      <trkpt lat="47.20141" lon="-1.74882">
        <ele>9</ele>
        <time>2019-11-03T15:19:40Z</time>
      </trkpt>
      <trkpt lat="47.20143" lon="-1.74884">
        <ele>9</ele>
        <time>2019-11-03T15:19:40Z</time>
      </trkpt>
      <trkpt lat="47.20144" lon="-1.74886">
        <ele>9</ele>
        <time>2019-11-03T15:19:40Z</time>
      </trkpt>
      <trkpt lat="47.20145" lon="-1.74889">
        <ele>9</ele>
        <time>2019-11-03T15:19:41Z</time>
      </trkpt>
      <trkpt lat="47.20145" lon="-1.74892">
        <ele>9</ele>
        <time>2019-11-03T15:19:41Z</time>
      </trkpt>
      <trkpt lat="47.20144" lon="-1.74895">
        <ele>9</ele>
        <time>2019-11-03T15:19:42Z</time>
      </trkpt>
      <trkpt lat="47.20143" lon="-1.74898">
        <ele>9</ele>
        <time>2019-11-03T15:19:42Z</time>
      </trkpt>
      <trkpt lat="47.20141" lon="-1.74899">
        <ele>9</ele>
        <time>2019-11-03T15:19:43Z</time>
      </trkpt>
      <trkpt lat="47.20144" lon="-1.74915">
        <ele>9</ele>
        <time>2019-11-03T15:19:45Z</time>
      </trkpt>
      <trkpt lat="47.20155" lon="-1.74966">
        <ele>9</ele>
        <time>2019-11-03T15:19:52Z</time>
      </trkpt>
      <trkpt lat="47.20171" lon="-1.75042">
        <ele>9</ele>
        <time>2019-11-03T15:20:03Z</time>
      </trkpt>
      <trkpt lat="47.20179" lon="-1.75083">
        <ele>9</ele>
        <time>2019-11-03T15:20:09Z</time>
      </trkpt>
      <trkpt lat="47.20184" lon="-1.75107">
        <ele>9</ele>
        <time>2019-11-03T15:20:12Z</time>
      </trkpt>
      <trkpt lat="47.20185" lon="-1.75115">
        <ele>9</ele>
        <time>2019-11-03T15:20:13Z</time>
      </trkpt>
      <trkpt lat="47.2019" lon="-1.75138">
        <ele>9</ele>
        <time>2019-11-03T15:20:17Z</time>
      </trkpt>
      <trkpt lat="47.20192" lon="-1.75146">
        <ele>9</ele>
        <time>2019-11-03T15:20:18Z</time>
      </trkpt>
      <trkpt lat="47.20195" lon="-1.75154">
        <ele>9</ele>
        <time>2019-11-03T15:20:19Z</time>
      </trkpt>
      <trkpt lat="47.202" lon="-1.75167">
        <ele>9</ele>
        <time>2019-11-03T15:20:21Z</time>
      </trkpt>
      <trkpt lat="47.20214" lon="-1.75215">
        <ele>9</ele>
        <time>2019-11-03T15:20:28Z</time>
      </trkpt>
      <trkpt lat="47.20223" lon="-1.75248">
        <ele>9</ele>
        <time>2019-11-03T15:20:33Z</time>
      </trkpt>
      <trkpt lat="47.20231" lon="-1.75276">
        <ele>9</ele>
        <time>2019-11-03T15:20:37Z</time>
      </trkpt>
      <trkpt lat="47.20263" lon="-1.75394">
        <ele>9</ele>
        <time>2019-11-03T15:20:54Z</time>
      </trkpt>
      <trkpt lat="47.20272" lon="-1.75431">
        <ele>9</ele>
        <time>2019-11-03T15:21:00Z</time>
      </trkpt>
      <trkpt lat="47.20277" lon="-1.75447">
        <ele>9</ele>
        <time>2019-11-03T15:21:02Z</time>
      </trkpt>
      <trkpt lat="47.20288" lon="-1.7549">
        <ele>9</ele>
        <time>2019-11-03T15:21:08Z</time>
      </trkpt>
      <trkpt lat="47.20292" lon="-1.75504">
        <ele>9</ele>
        <time>2019-11-03T15:21:11Z</time>
      </trkpt>
      <trkpt lat="47.20294" lon="-1.75513">
        <ele>10</ele>
        <time>2019-11-03T15:21:12Z</time>
      </trkpt>
      <trkpt lat="47.20296" lon="-1.75522">
        <ele>10</ele>
        <time>2019-11-03T15:21:13Z</time>
      </trkpt>
      <trkpt lat="47.20312" lon="-1.7558">
        <ele>10</ele>
        <time>2019-11-03T15:21:22Z</time>
      </trkpt>
      <trkpt lat="47.20324" lon="-1.75627">
        <ele>10</ele>
        <time>2019-11-03T15:21:28Z</time>
      </trkpt>
      <trkpt lat="47.2033" lon="-1.75648">
        <ele>11</ele>
        <time>2019-11-03T15:21:32Z</time>
      </trkpt>
      <trkpt lat="47.20336" lon="-1.75672">
        <ele>11</ele>
        <time>2019-11-03T15:21:35Z</time>
      </trkpt>
      <trkpt lat="47.20339" lon="-1.75685">
        <ele>11</ele>
        <time>2019-11-03T15:21:37Z</time>
      </trkpt>
      <trkpt lat="47.20339" lon="-1.75692">
        <ele>11</ele>
        <time>2019-11-03T15:21:38Z</time>
      </trkpt>
      <trkpt lat="47.20339" lon="-1.75704">
        <ele>11</ele>
        <time>2019-11-03T15:21:39Z</time>
      </trkpt>
      <trkpt lat="47.20341" lon="-1.75715">
        <ele>11</ele>
        <time>2019-11-03T15:21:41Z</time>
      </trkpt>
      <trkpt lat="47.20343" lon="-1.75731">
        <ele>11</ele>
        <time>2019-11-03T15:21:43Z</time>
      </trkpt>
      <trkpt lat="47.20347" lon="-1.7575">
        <ele>11</ele>
        <time>2019-11-03T15:21:46Z</time>
      </trkpt>
      <trkpt lat="47.2037" lon="-1.75846">
        <ele>10</ele>
        <time>2019-11-03T15:22:00Z</time>
      </trkpt>
      <trkpt lat="47.20378" lon="-1.75885">
        <ele>10</ele>
        <time>2019-11-03T15:22:05Z</time>
      </trkpt>
      <trkpt lat="47.20388" lon="-1.75935">
        <ele>11</ele>
        <time>2019-11-03T15:22:12Z</time>
      </trkpt>
      <trkpt lat="47.2039" lon="-1.75949">
        <ele>11</ele>
        <time>2019-11-03T15:22:14Z</time>
      </trkpt>
      <trkpt lat="47.20394" lon="-1.75971">
        <ele>11</ele>
        <time>2019-11-03T15:22:18Z</time>
      </trkpt>
      <trkpt lat="47.20397" lon="-1.75997">
        <ele>11</ele>
        <time>2019-11-03T15:22:21Z</time>
      </trkpt>
      <trkpt lat="47.204" lon="-1.76033">
        <ele>11</ele>
        <time>2019-11-03T15:22:26Z</time>
      </trkpt>
      <trkpt lat="47.20405" lon="-1.7606">
        <ele>7</ele>
        <time>2019-11-03T15:22:30Z</time>
      </trkpt>
      <trkpt lat="47.20408" lon="-1.76083">
        <ele>7</ele>
        <time>2019-11-03T15:22:33Z</time>
      </trkpt>
      <trkpt lat="47.2041" lon="-1.76105">
        <ele>7</ele>
        <time>2019-11-03T15:22:36Z</time>
      </trkpt>
      <trkpt lat="47.20409" lon="-1.76116">
        <ele>7</ele>
        <time>2019-11-03T15:22:38Z</time>
      </trkpt>
      <trkpt lat="47.2041" lon="-1.76133">
        <ele>7</ele>
        <time>2019-11-03T15:22:40Z</time>
      </trkpt>
      <trkpt lat="47.20415" lon="-1.76166">
        <ele>7</ele>
        <time>2019-11-03T15:22:44Z</time>
      </trkpt>
      <trkpt lat="47.20418" lon="-1.76182">
        <ele>6</ele>
        <time>2019-11-03T15:22:47Z</time>
      </trkpt>
      <trkpt lat="47.20421" lon="-1.762">
        <ele>6</ele>
        <time>2019-11-03T15:22:49Z</time>
      </trkpt>
      <trkpt lat="47.20431" lon="-1.76255">
        <ele>6</ele>
        <time>2019-11-03T15:22:57Z</time>
      </trkpt>
      <trkpt lat="47.20441" lon="-1.76326">
        <ele>7</ele>
        <time>2019-11-03T15:23:07Z</time>
      </trkpt>
      <trkpt lat="47.20455" lon="-1.76414">
        <ele>7</ele>
        <time>2019-11-03T15:23:19Z</time>
      </trkpt>
      <trkpt lat="47.2046" lon="-1.76443">
        <ele>7</ele>
        <time>2019-11-03T15:23:23Z</time>
      </trkpt>
      <trkpt lat="47.20463" lon="-1.76466">
        <ele>11</ele>
        <time>2019-11-03T15:23:26Z</time>
      </trkpt>
      <trkpt lat="47.20465" lon="-1.76491">
        <ele>11</ele>
        <time>2019-11-03T15:23:30Z</time>
      </trkpt>
      <trkpt lat="47.20464" lon="-1.76524">
        <ele>11</ele>
        <time>2019-11-03T15:23:34Z</time>
      </trkpt>
      <trkpt lat="47.20465" lon="-1.76538">
        <ele>11</ele>
        <time>2019-11-03T15:23:36Z</time>
      </trkpt>
      <trkpt lat="47.20468" lon="-1.76548">
        <ele>11</ele>
        <time>2019-11-03T15:23:38Z</time>
      </trkpt>
      <trkpt lat="47.20471" lon="-1.76554">
        <ele>11</ele>
        <time>2019-11-03T15:23:39Z</time>
      </trkpt>
      <trkpt lat="47.20475" lon="-1.76559">
        <ele>11</ele>
        <time>2019-11-03T15:23:40Z</time>
      </trkpt>
      <trkpt lat="47.20475" lon="-1.76565">
        <ele>11</ele>
        <time>2019-11-03T15:23:41Z</time>
      </trkpt>
      <trkpt lat="47.20476" lon="-1.76578">
        <ele>11</ele>
        <time>2019-11-03T15:23:42Z</time>
      </trkpt>
      <trkpt lat="47.20499" lon="-1.7669">
        <ele>12</ele>
        <time>2019-11-03T15:23:58Z</time>
      </trkpt>
      <trkpt lat="47.20501" lon="-1.76702">
        <ele>12</ele>
        <time>2019-11-03T15:24:00Z</time>
      </trkpt>
      <trkpt lat="47.205" lon="-1.76709">
        <ele>12</ele>
        <time>2019-11-03T15:24:01Z</time>
      </trkpt>
      <trkpt lat="47.20498" lon="-1.76715">
        <ele>12</ele>
        <time>2019-11-03T15:24:02Z</time>
      </trkpt>
      <trkpt lat="47.205" lon="-1.7673">
        <ele>11</ele>
        <time>2019-11-03T15:24:04Z</time>
      </trkpt>
      <trkpt lat="47.20506" lon="-1.76764">
        <ele>11</ele>
        <time>2019-11-03T15:24:09Z</time>
      </trkpt>
      <trkpt lat="47.20511" lon="-1.76779">
        <ele>11</ele>
        <time>2019-11-03T15:24:11Z</time>
      </trkpt>
      <trkpt lat="47.20523" lon="-1.76819">
        <ele>11</ele>
        <time>2019-11-03T15:24:17Z</time>
      </trkpt>
      <trkpt lat="47.20529" lon="-1.76846">
        <ele>11</ele>
        <time>2019-11-03T15:24:21Z</time>
      </trkpt>
      <trkpt lat="47.20536" lon="-1.76881">
        <ele>12</ele>
        <time>2019-11-03T15:24:26Z</time>
      </trkpt>
      <trkpt lat="47.20545" lon="-1.76921">
        <ele>12</ele>
        <time>2019-11-03T15:24:32Z</time>
      </trkpt>
      <trkpt lat="47.20551" lon="-1.76955">
        <ele>12</ele>
        <time>2019-11-03T15:24:36Z</time>
      </trkpt>
      <trkpt lat="47.20554" lon="-1.77">
        <ele>13</ele>
        <time>2019-11-03T15:24:43Z</time>
      </trkpt>
      <trkpt lat="47.20557" lon="-1.77032">
        <ele>13</ele>
        <time>2019-11-03T15:24:47Z</time>
      </trkpt>
      <trkpt lat="47.20564" lon="-1.77112">
        <ele>13</ele>
        <time>2019-11-03T15:24:58Z</time>
      </trkpt>
      <trkpt lat="47.20567" lon="-1.77142">
        <ele>14</ele>
        <time>2019-11-03T15:25:02Z</time>
      </trkpt>
      <trkpt lat="47.20569" lon="-1.77173">
        <ele>14</ele>
        <time>2019-11-03T15:25:06Z</time>
      </trkpt>
      <trkpt lat="47.20571" lon="-1.77213">
        <ele>14</ele>
        <time>2019-11-03T15:25:12Z</time>
      </trkpt>
      <trkpt lat="47.20571" lon="-1.77245">
        <ele>14</ele>
        <time>2019-11-03T15:25:16Z</time>
      </trkpt>
      <trkpt lat="47.20571" lon="-1.77276">
        <ele>12</ele>
        <time>2019-11-03T15:25:20Z</time>
      </trkpt>
      <trkpt lat="47.2057" lon="-1.77288">
        <ele>12</ele>
        <time>2019-11-03T15:25:22Z</time>
      </trkpt>
      <trkpt lat="47.20568" lon="-1.773">
        <ele>12</ele>
        <time>2019-11-03T15:25:24Z</time>
      </trkpt>
      <trkpt lat="47.20567" lon="-1.77309">
        <ele>12</ele>
        <time>2019-11-03T15:25:25Z</time>
      </trkpt>
      <trkpt lat="47.20568" lon="-1.77327">
        <ele>12</ele>
        <time>2019-11-03T15:25:27Z</time>
      </trkpt>
      <trkpt lat="47.20571" lon="-1.77347">
        <ele>12</ele>
        <time>2019-11-03T15:25:30Z</time>
      </trkpt>
      <trkpt lat="47.20575" lon="-1.77369">
        <ele>12</ele>
        <time>2019-11-03T15:25:33Z</time>
      </trkpt>
      <trkpt lat="47.20581" lon="-1.77396">
        <ele>12</ele>
        <time>2019-11-03T15:25:37Z</time>
      </trkpt>
      <trkpt lat="47.20585" lon="-1.77418">
        <ele>14</ele>
        <time>2019-11-03T15:25:40Z</time>
      </trkpt>
      <trkpt lat="47.20586" lon="-1.7743">
        <ele>14</ele>
        <time>2019-11-03T15:25:42Z</time>
      </trkpt>
      <trkpt lat="47.20585" lon="-1.7744">
        <ele>14</ele>
        <time>2019-11-03T15:25:43Z</time>
      </trkpt>
      <trkpt lat="47.20588" lon="-1.7745">
        <ele>14</ele>
        <time>2019-11-03T15:25:45Z</time>
      </trkpt>
      <trkpt lat="47.20597" lon="-1.77481">
        <ele>14</ele>
        <time>2019-11-03T15:25:49Z</time>
      </trkpt>
      <trkpt lat="47.206" lon="-1.77487">
        <ele>14</ele>
        <time>2019-11-03T15:25:50Z</time>
      </trkpt>
      <trkpt lat="47.20602" lon="-1.77496">
        <ele>14</ele>
        <time>2019-11-03T15:25:52Z</time>
      </trkpt>
      <trkpt lat="47.20605" lon="-1.77516">
        <ele>14</ele>
        <time>2019-11-03T15:25:54Z</time>
      </trkpt>
      <trkpt lat="47.20611" lon="-1.7757">
        <ele>16</ele>
        <time>2019-11-03T15:26:02Z</time>
      </trkpt>
      <trkpt lat="47.20612" lon="-1.77586">
        <ele>16</ele>
        <time>2019-11-03T15:26:04Z</time>
      </trkpt>
      <trkpt lat="47.20611" lon="-1.776">
        <ele>16</ele>
        <time>2019-11-03T15:26:06Z</time>
      </trkpt>
      <trkpt lat="47.2061" lon="-1.77624">
        <ele>16</ele>
        <time>2019-11-03T15:26:09Z</time>
      </trkpt>
      <trkpt lat="47.20609" lon="-1.77637">
        <ele>16</ele>
        <time>2019-11-03T15:26:11Z</time>
      </trkpt>
      <trkpt lat="47.20607" lon="-1.77645">
        <ele>16</ele>
        <time>2019-11-03T15:26:12Z</time>
      </trkpt>
      <trkpt lat="47.20604" lon="-1.77658">
        <ele>16</ele>
        <time>2019-11-03T15:26:14Z</time>
      </trkpt>
      <trkpt lat="47.20599" lon="-1.77679">
        <ele>14</ele>
        <time>2019-11-03T15:26:17Z</time>
      </trkpt>
      <trkpt lat="47.20596" lon="-1.77694">
        <ele>14</ele>
        <time>2019-11-03T15:26:19Z</time>
      </trkpt>
      <trkpt lat="47.20596" lon="-1.77704">
        <ele>14</ele>
        <time>2019-11-03T15:26:21Z</time>
      </trkpt>
      <trkpt lat="47.20598" lon="-1.77723">
        <ele>14</ele>
        <time>2019-11-03T15:26:23Z</time>
      </trkpt>
      <trkpt lat="47.20598" lon="-1.77757">
        <ele>14</ele>
        <time>2019-11-03T15:26:28Z</time>
      </trkpt>
      <trkpt lat="47.20598" lon="-1.77781">
        <ele>14</ele>
        <time>2019-11-03T15:26:31Z</time>
      </trkpt>
      <trkpt lat="47.20597" lon="-1.77795">
        <ele>14</ele>
        <time>2019-11-03T15:26:33Z</time>
      </trkpt>
      <trkpt lat="47.20596" lon="-1.77811">
        <ele>14</ele>
        <time>2019-11-03T15:26:35Z</time>
      </trkpt>
      <trkpt lat="47.20593" lon="-1.77831">
        <ele>11</ele>
        <time>2019-11-03T15:26:38Z</time>
      </trkpt>
      <trkpt lat="47.20589" lon="-1.7785">
        <ele>11</ele>
        <time>2019-11-03T15:26:41Z</time>
      </trkpt>
      <trkpt lat="47.20584" lon="-1.77882">
        <ele>11</ele>
        <time>2019-11-03T15:26:45Z</time>
      </trkpt>
      <trkpt lat="47.20582" lon="-1.77896">
        <ele>11</ele>
        <time>2019-11-03T15:26:47Z</time>
      </trkpt>
      <trkpt lat="47.20581" lon="-1.77912">
        <ele>11</ele>
        <time>2019-11-03T15:26:49Z</time>
      </trkpt>
      <trkpt lat="47.2058" lon="-1.77925">
        <ele>11</ele>
        <time>2019-11-03T15:26:51Z</time>
      </trkpt>
      <trkpt lat="47.2058" lon="-1.77943">
        <ele>11</ele>
        <time>2019-11-03T15:26:54Z</time>
      </trkpt>
      <trkpt lat="47.20582" lon="-1.77971">
        <ele>10</ele>
        <time>2019-11-03T15:26:57Z</time>
      </trkpt>
      <trkpt lat="47.20584" lon="-1.78028">
        <ele>10</ele>
        <time>2019-11-03T15:27:05Z</time>
      </trkpt>
      <trkpt lat="47.20586" lon="-1.78061">
        <ele>10</ele>
        <time>2019-11-03T15:27:10Z</time>
      </trkpt>
      <trkpt lat="47.20586" lon="-1.78092">
        <ele>10</ele>
        <time>2019-11-03T15:27:14Z</time>
      </trkpt>
      <trkpt lat="47.20587" lon="-1.78133">
        <ele>7</ele>
        <time>2019-11-03T15:27:19Z</time>
      </trkpt>
      <trkpt lat="47.20588" lon="-1.78146">
        <ele>7</ele>
        <time>2019-11-03T15:27:21Z</time>
      </trkpt>
      <trkpt lat="47.2059" lon="-1.78161">
        <ele>7</ele>
        <time>2019-11-03T15:27:23Z</time>
      </trkpt>
      <trkpt lat="47.20601" lon="-1.78233">
        <ele>7</ele>
        <time>2019-11-03T15:27:33Z</time>
      </trkpt>
      <trkpt lat="47.20617" lon="-1.78338">
        <ele>7</ele>
        <time>2019-11-03T15:27:48Z</time>
      </trkpt>
      <trkpt lat="47.2062" lon="-1.78373">
        <ele>9</ele>
        <time>2019-11-03T15:27:53Z</time>
      </trkpt>
      <trkpt lat="47.20623" lon="-1.78403">
        <ele>9</ele>
        <time>2019-11-03T15:27:57Z</time>
      </trkpt>
      <trkpt lat="47.20625" lon="-1.78447">
        <ele>9</ele>
        <time>2019-11-03T15:28:03Z</time>
      </trkpt>
      <trkpt lat="47.20626" lon="-1.78461">
        <ele>9</ele>
        <time>2019-11-03T15:28:05Z</time>
      </trkpt>
      <trkpt lat="47.20625" lon="-1.78475">
        <ele>9</ele>
        <time>2019-11-03T15:28:07Z</time>
      </trkpt>
      <trkpt lat="47.20621" lon="-1.78503">
        <ele>5</ele>
        <time>2019-11-03T15:28:11Z</time>
      </trkpt>
      <trkpt lat="47.2062" lon="-1.78515">
        <ele>5</ele>
        <time>2019-11-03T15:28:12Z</time>
      </trkpt>
      <trkpt lat="47.20636" lon="-1.78535">
        <ele>5</ele>
        <time>2019-11-03T15:28:17Z</time>
      </trkpt>
      <trkpt lat="47.2064" lon="-1.78538">
        <ele>5</ele>
        <time>2019-11-03T15:28:17Z</time>
      </trkpt>
      <trkpt lat="47.2065" lon="-1.78543">
        <ele>5</ele>
        <time>2019-11-03T15:28:20Z</time>
      </trkpt>
      <trkpt lat="47.20667" lon="-1.78552">
        <ele>5</ele>
        <time>2019-11-03T15:28:23Z</time>
      </trkpt>
      <trkpt lat="47.20669" lon="-1.78553">
        <ele>5</ele>
        <time>2019-11-03T15:28:24Z</time>
      </trkpt>
      <trkpt lat="47.20675" lon="-1.78555">
        <ele>5</ele>
        <time>2019-11-03T15:28:25Z</time>
      </trkpt>
      <trkpt lat="47.20683" lon="-1.78557">
        <ele>5</ele>
        <time>2019-11-03T15:28:26Z</time>
      </trkpt>
      <trkpt lat="47.20695" lon="-1.78556">
        <ele>3</ele>
        <time>2019-11-03T15:28:29Z</time>
      </trkpt>
      <trkpt lat="47.20709" lon="-1.78556">
        <ele>3</ele>
        <time>2019-11-03T15:28:32Z</time>
      </trkpt>
      <trkpt lat="47.20725" lon="-1.7856">
        <ele>3</ele>
        <time>2019-11-03T15:28:35Z</time>
      </trkpt>
      <trkpt lat="47.20728" lon="-1.7856">
        <ele>3</ele>
        <time>2019-11-03T15:28:35Z</time>
      </trkpt>
      <trkpt lat="47.20742" lon="-1.78566">
        <ele>3</ele>
        <time>2019-11-03T15:28:38Z</time>
      </trkpt>
      <trkpt lat="47.20759" lon="-1.78572">
        <ele>3</ele>
        <time>2019-11-03T15:28:42Z</time>
      </trkpt>
      <trkpt lat="47.20778" lon="-1.78583">
        <ele>3</ele>
        <time>2019-11-03T15:28:46Z</time>
      </trkpt>
      <trkpt lat="47.20803" lon="-1.786">
        <ele>3</ele>
        <time>2019-11-03T15:28:52Z</time>
      </trkpt>
      <trkpt lat="47.20816" lon="-1.78612">
        <ele>3</ele>
        <time>2019-11-03T15:28:55Z</time>
      </trkpt>
      <trkpt lat="47.20823" lon="-1.78625">
        <ele>3</ele>
        <time>2019-11-03T15:28:57Z</time>
      </trkpt>
      <trkpt lat="47.20828" lon="-1.78644">
        <ele>3</ele>
        <time>2019-11-03T15:29:00Z</time>
      </trkpt>
      <trkpt lat="47.2083" lon="-1.78679">
        <ele>3</ele>
        <time>2019-11-03T15:29:04Z</time>
      </trkpt>
      <trkpt lat="47.20829" lon="-1.78707">
        <ele>4</ele>
        <time>2019-11-03T15:29:08Z</time>
      </trkpt>
      <trkpt lat="47.20825" lon="-1.78733">
        <ele>4</ele>
        <time>2019-11-03T15:29:12Z</time>
      </trkpt>
      <trkpt lat="47.20798" lon="-1.78857">
        <ele>6</ele>
        <time>2019-11-03T15:29:30Z</time>
      </trkpt>
      <trkpt lat="47.20787" lon="-1.78908">
        <ele>6</ele>
        <time>2019-11-03T15:29:37Z</time>
      </trkpt>
      <trkpt lat="47.20781" lon="-1.78935">
        <ele>6</ele>
        <time>2019-11-03T15:29:41Z</time>
      </trkpt>
      <trkpt lat="47.2077" lon="-1.78959">
        <ele>4</ele>
        <time>2019-11-03T15:29:45Z</time>
      </trkpt>
      <trkpt lat="47.20758" lon="-1.78979">
        <ele>4</ele>
        <time>2019-11-03T15:29:48Z</time>
      </trkpt>
      <trkpt lat="47.20746" lon="-1.78999">
        <ele>4</ele>
        <time>2019-11-03T15:29:52Z</time>
      </trkpt>
      <trkpt lat="47.20728" lon="-1.79038">
        <ele>4</ele>
        <time>2019-11-03T15:29:58Z</time>
      </trkpt>
      <trkpt lat="47.20717" lon="-1.79068">
        <ele>2</ele>
        <time>2019-11-03T15:30:03Z</time>
      </trkpt>
      <trkpt lat="47.2071" lon="-1.79096">
        <ele>2</ele>
        <time>2019-11-03T15:30:07Z</time>
      </trkpt>
      <trkpt lat="47.207" lon="-1.792">
        <ele>2</ele>
        <time>2019-11-03T15:30:21Z</time>
      </trkpt>
      <trkpt lat="47.207" lon="-1.79211">
        <ele>2</ele>
        <time>2019-11-03T15:30:23Z</time>
      </trkpt>
      <trkpt lat="47.207" lon="-1.79221">
        <ele>2</ele>
        <time>2019-11-03T15:30:24Z</time>
      </trkpt>
      <trkpt lat="47.20707" lon="-1.79258">
        <ele>2</ele>
        <time>2019-11-03T15:30:29Z</time>
      </trkpt>
      <trkpt lat="47.20709" lon="-1.79289">
        <ele>2</ele>
        <time>2019-11-03T15:30:34Z</time>
      </trkpt>
      <trkpt lat="47.2071" lon="-1.79317">
        <ele>2</ele>
        <time>2019-11-03T15:30:38Z</time>
      </trkpt>
      <trkpt lat="47.20708" lon="-1.79348">
        <ele>3</ele>
        <time>2019-11-03T15:30:42Z</time>
      </trkpt>
      <trkpt lat="47.20704" lon="-1.79373">
        <ele>3</ele>
        <time>2019-11-03T15:30:45Z</time>
      </trkpt>
      <trkpt lat="47.20691" lon="-1.79402">
        <ele>3</ele>
        <time>2019-11-03T15:30:50Z</time>
      </trkpt>
      <trkpt lat="47.20685" lon="-1.79418">
        <ele>3</ele>
        <time>2019-11-03T15:30:52Z</time>
      </trkpt>
      <trkpt lat="47.20682" lon="-1.79451">
        <ele>3</ele>
        <time>2019-11-03T15:30:57Z</time>
      </trkpt>
      <trkpt lat="47.20682" lon="-1.79648">
        <ele>3</ele>
        <time>2019-11-03T15:31:24Z</time>
      </trkpt>
      <trkpt lat="47.20693" lon="-1.79868">
        <ele>4</ele>
        <time>2019-11-03T15:31:54Z</time>
      </trkpt>
      <trkpt lat="47.20713" lon="-1.80165">
        <ele>3</ele>
        <time>2019-11-03T15:32:34Z</time>
      </trkpt>
      <trkpt lat="47.20729" lon="-1.80385">
        <ele>4</ele>
        <time>2019-11-03T15:33:05Z</time>
      </trkpt>
      <trkpt lat="47.20735" lon="-1.80494">
        <ele>5</ele>
        <time>2019-11-03T15:33:19Z</time>
      </trkpt>
      <trkpt lat="47.20747" lon="-1.80603">
        <ele>5</ele>
        <time>2019-11-03T15:33:35Z</time>
      </trkpt>
      <trkpt lat="47.20762" lon="-1.80729">
        <ele>5</ele>
        <time>2019-11-03T15:33:52Z</time>
      </trkpt>
      <trkpt lat="47.20781" lon="-1.80861">
        <ele>5</ele>
        <time>2019-11-03T15:34:10Z</time>
      </trkpt>
      <trkpt lat="47.2079" lon="-1.80912">
        <ele>3</ele>
        <time>2019-11-03T15:34:17Z</time>
      </trkpt>
      <trkpt lat="47.20804" lon="-1.80978">
        <ele>3</ele>
        <time>2019-11-03T15:34:27Z</time>
      </trkpt>
      <trkpt lat="47.20855" lon="-1.81188">
        <ele>3</ele>
        <time>2019-11-03T15:34:57Z</time>
      </trkpt>
      <trkpt lat="47.20912" lon="-1.81374">
        <ele>4</ele>
        <time>2019-11-03T15:35:25Z</time>
      </trkpt>
      <trkpt lat="47.20998" lon="-1.81599">
        <ele>3</ele>
        <time>2019-11-03T15:36:00Z</time>
      </trkpt>
      <trkpt lat="47.21069" lon="-1.81746">
        <ele>5</ele>
        <time>2019-11-03T15:36:25Z</time>
      </trkpt>
      <trkpt lat="47.21383" lon="-1.82275">
        <ele>3</ele>
        <time>2019-11-03T15:38:00Z</time>
      </trkpt>
      <trkpt lat="47.21412" lon="-1.82279">
        <ele>3</ele>
        <time>2019-11-03T15:38:06Z</time>
      </trkpt>
      <trkpt lat="47.21419" lon="-1.8229">
        <ele>3</ele>
        <time>2019-11-03T15:38:08Z</time>
      </trkpt>
      <trkpt lat="47.21443" lon="-1.82337">
        <ele>2</ele>
        <time>2019-11-03T15:38:16Z</time>
      </trkpt>
      <trkpt lat="47.21449" lon="-1.82346">
        <ele>2</ele>
        <time>2019-11-03T15:38:18Z</time>
      </trkpt>
      <trkpt lat="47.21423" lon="-1.82376">
        <ele>2</ele>
        <time>2019-11-03T15:38:25Z</time>
      </trkpt>
      <trkpt lat="47.21387" lon="-1.82425">
        <ele>1</ele>
        <time>2019-11-03T15:38:34Z</time>
      </trkpt>
      <trkpt lat="47.2138" lon="-1.82435">
        <ele>1</ele>
        <time>2019-11-03T15:38:36Z</time>
      </trkpt>
      <trkpt lat="47.21441" lon="-1.82535">
        <ele>1</ele>
        <time>2019-11-03T15:38:55Z</time>
      </trkpt>
      <trkpt lat="47.21603" lon="-1.82807">
        <ele>2</ele>
        <time>2019-11-03T15:39:44Z</time>
      </trkpt>
      <trkpt lat="47.21744" lon="-1.83084">
        <ele>1</ele>
        <time>2019-11-03T15:40:31Z</time>
      </trkpt>
      <trkpt lat="47.2197" lon="-1.83522">
        <ele>2.8</ele>
        <time>2019-11-03T15:41:46Z</time>
      </trkpt>
      <trkpt lat="47.21982" lon="-1.83544">
        <ele>2.1</ele>
        <time>2019-11-03T15:41:50Z</time>
      </trkpt>
      <trkpt lat="47.22195" lon="-1.83964">
        <ele>3</ele>
        <time>2019-11-03T15:43:01Z</time>
      </trkpt>
      <trkpt lat="47.22379" lon="-1.84352">
        <ele>2.8</ele>
        <time>2019-11-03T15:44:05Z</time>
      </trkpt>
      <trkpt lat="47.22393" lon="-1.84392">
        <ele>2</ele>
        <time>2019-11-03T15:44:12Z</time>
      </trkpt>
      <trkpt lat="47.22403" lon="-1.84453">
        <ele>1</ele>
        <time>2019-11-03T15:44:20Z</time>
      </trkpt>
      <trkpt lat="47.2241" lon="-1.8448">
        <ele>1</ele>
        <time>2019-11-03T15:44:24Z</time>
      </trkpt>
      <trkpt lat="47.2248" lon="-1.8462">
        <ele>2</ele>
        <time>2019-11-03T15:44:48Z</time>
      </trkpt>
      <trkpt lat="47.22523" lon="-1.84655">
        <ele>4</ele>
        <time>2019-11-03T15:44:58Z</time>
      </trkpt>
      <trkpt lat="47.22539" lon="-1.84677">
        <ele>4</ele>
        <time>2019-11-03T15:45:02Z</time>
      </trkpt>
      <trkpt lat="47.22627" lon="-1.84845">
        <ele>4</ele>
        <time>2019-11-03T15:45:31Z</time>
      </trkpt>
      <trkpt lat="47.22717" lon="-1.85025">
        <ele>3</ele>
        <time>2019-11-03T15:46:01Z</time>
      </trkpt>
      <trkpt lat="47.22827" lon="-1.85244">
        <ele>2</ele>
        <time>2019-11-03T15:46:38Z</time>
      </trkpt>
      <trkpt lat="47.22987" lon="-1.85566">
        <ele>3</ele>
        <time>2019-11-03T15:47:33Z</time>
      </trkpt>
      <trkpt lat="47.23062" lon="-1.85715">
        <ele>3</ele>
        <time>2019-11-03T15:47:58Z</time>
      </trkpt>
      <trkpt lat="47.23162" lon="-1.85921">
        <ele>2</ele>
        <time>2019-11-03T15:48:32Z</time>
      </trkpt>
      <trkpt lat="47.23414" lon="-1.86422">
        <ele>2</ele>
        <time>2019-11-03T15:49:57Z</time>
      </trkpt>
      <trkpt lat="47.2354" lon="-1.86677">
        <ele>3</ele>
        <time>2019-11-03T15:50:40Z</time>
      </trkpt>
      <trkpt lat="47.23546" lon="-1.86687">
        <ele>3</ele>
        <time>2019-11-03T15:50:42Z</time>
      </trkpt>
      <trkpt lat="47.23557" lon="-1.86711">
        <ele>3</ele>
        <time>2019-11-03T15:50:46Z</time>
      </trkpt>
      <trkpt lat="47.23651" lon="-1.86898">
        <ele>1</ele>
        <time>2019-11-03T15:51:17Z</time>
      </trkpt>
      <trkpt lat="47.2374" lon="-1.87076">
        <ele>2</ele>
        <time>2019-11-03T15:51:47Z</time>
      </trkpt>
      <trkpt lat="47.23806" lon="-1.87202">
        <ele>3</ele>
        <time>2019-11-03T15:52:09Z</time>
      </trkpt>
      <trkpt lat="47.23813" lon="-1.87217">
        <ele>3</ele>
        <time>2019-11-03T15:52:12Z</time>
      </trkpt>
      <trkpt lat="47.23824" lon="-1.87242">
        <ele>3</ele>
        <time>2019-11-03T15:52:16Z</time>
      </trkpt>
      <trkpt lat="47.23829" lon="-1.87254">
        <ele>2</ele>
        <time>2019-11-03T15:52:18Z</time>
      </trkpt>
      <trkpt lat="47.23837" lon="-1.87271">
        <ele>2</ele>
        <time>2019-11-03T15:52:20Z</time>
      </trkpt>
      <trkpt lat="47.24195" lon="-1.87995">
        <ele>1</ele>
        <time>2019-11-03T15:54:22Z</time>
      </trkpt>
      <trkpt lat="47.24286" lon="-1.88174">
        <ele>1</ele>
        <time>2019-11-03T15:54:53Z</time>
      </trkpt>
      <trkpt lat="47.24377" lon="-1.88363">
        <ele>1</ele>
        <time>2019-11-03T15:55:24Z</time>
      </trkpt>
      <trkpt lat="47.24466" lon="-1.88566">
        <ele>2</ele>
        <time>2019-11-03T15:55:57Z</time>
      </trkpt>
      <trkpt lat="47.24545" lon="-1.88754">
        <ele>2</ele>
        <time>2019-11-03T15:56:27Z</time>
      </trkpt>
      <trkpt lat="47.24969" lon="-1.89803">
        <ele>1</ele>
        <time>2019-11-03T15:59:13Z</time>
      </trkpt>
      <trkpt lat="47.24972" lon="-1.89903">
        <ele>1</ele>
        <time>2019-11-03T15:59:27Z</time>
      </trkpt>
      <trkpt lat="47.24988" lon="-1.89949">
        <ele>1</ele>
        <time>2019-11-03T15:59:34Z</time>
      </trkpt>
      <trkpt lat="47.25052" lon="-1.90073">
        <ele>1</ele>
        <time>2019-11-03T15:59:55Z</time>
      </trkpt>
      <trkpt lat="47.25071" lon="-1.90095">
        <ele>2.4</ele>
        <time>2019-11-03T16:00:00Z</time>
      </trkpt>
      <trkpt lat="47.25102" lon="-1.90106">
        <ele>2.6</ele>
        <time>2019-11-03T16:00:06Z</time>
      </trkpt>
      <trkpt lat="47.25115" lon="-1.90115">
        <ele>2.7</ele>
        <time>2019-11-03T16:00:09Z</time>
      </trkpt>
      <trkpt lat="47.25244" lon="-1.90347">
        <ele>1</ele>
        <time>2019-11-03T16:00:50Z</time>
      </trkpt>
      <trkpt lat="47.25631" lon="-1.91044">
        <ele>2</ele>
        <time>2019-11-03T16:02:52Z</time>
      </trkpt>
      <trkpt lat="47.25799" lon="-1.91363">
        <ele>2</ele>
        <time>2019-11-03T16:03:47Z</time>
      </trkpt>
      <trkpt lat="47.25801" lon="-1.91373">
        <ele>2</ele>
        <time>2019-11-03T16:03:49Z</time>
      </trkpt>
      <trkpt lat="47.25805" lon="-1.91374">
        <ele>2</ele>
        <time>2019-11-03T16:03:50Z</time>
      </trkpt>
      <trkpt lat="47.25808" lon="-1.91378">
        <ele>2</ele>
        <time>2019-11-03T16:03:50Z</time>
      </trkpt>
      <trkpt lat="47.25832" lon="-1.91419">
        <ele>2</ele>
        <time>2019-11-03T16:03:58Z</time>
      </trkpt>
      <trkpt lat="47.25848" lon="-1.91448">
        <ele>2</ele>
        <time>2019-11-03T16:04:03Z</time>
      </trkpt>
      <trkpt lat="47.25912" lon="-1.91565">
        <ele>2</ele>
        <time>2019-11-03T16:04:23Z</time>
      </trkpt>
      <trkpt lat="47.26009" lon="-1.91744">
        <ele>2</ele>
        <time>2019-11-03T16:04:54Z</time>
      </trkpt>
      <trkpt lat="47.26062" lon="-1.91866">
        <ele>3</ele>
        <time>2019-11-03T16:05:14Z</time>
      </trkpt>
      <trkpt lat="47.26082" lon="-1.91918">
        <ele>1</ele>
        <time>2019-11-03T16:05:22Z</time>
      </trkpt>
      <trkpt lat="47.26094" lon="-1.91933">
        <ele>1</ele>
        <time>2019-11-03T16:05:25Z</time>
      </trkpt>
      <trkpt lat="47.26104" lon="-1.91955">
        <ele>1</ele>
        <time>2019-11-03T16:05:29Z</time>
      </trkpt>
      <trkpt lat="47.2611" lon="-1.91979">
        <ele>1</ele>
        <time>2019-11-03T16:05:32Z</time>
      </trkpt>
      <trkpt lat="47.2611" lon="-1.91994">
        <ele>1</ele>
        <time>2019-11-03T16:05:35Z</time>
      </trkpt>
      <trkpt lat="47.26114" lon="-1.92">
        <ele>1</ele>
        <time>2019-11-03T16:05:36Z</time>
      </trkpt>
      <trkpt lat="47.26125" lon="-1.92019">
        <ele>1</ele>
        <time>2019-11-03T16:05:39Z</time>
      </trkpt>
      <trkpt lat="47.26202" lon="-1.92229">
        <ele>3</ele>
        <time>2019-11-03T16:06:12Z</time>
      </trkpt>
      <trkpt lat="47.26235" lon="-1.92336">
        <ele>4</ele>
        <time>2019-11-03T16:06:27Z</time>
      </trkpt>
      <trkpt lat="47.26294" lon="-1.92544">
        <ele>2</ele>
        <time>2019-11-03T16:06:58Z</time>
      </trkpt>
      <trkpt lat="47.26395" lon="-1.9306">
        <ele>2</ele>
        <time>2019-11-03T16:08:11Z</time>
      </trkpt>
      <trkpt lat="47.26485" lon="-1.9356">
        <ele>2</ele>
        <time>2019-11-03T16:09:22Z</time>
      </trkpt>
      <trkpt lat="47.26581" lon="-1.94101">
        <ele>2</ele>
        <time>2019-11-03T16:10:38Z</time>
      </trkpt>
      <trkpt lat="47.26579" lon="-1.94197">
        <ele>2</ele>
        <time>2019-11-03T16:10:51Z</time>
      </trkpt>
      <trkpt lat="47.26571" lon="-1.94313">
        <ele>2</ele>
        <time>2019-11-03T16:11:06Z</time>
      </trkpt>
      <trkpt lat="47.2661" lon="-1.9449">
        <ele>2</ele>
        <time>2019-11-03T16:11:32Z</time>
      </trkpt>
      <trkpt lat="47.26619" lon="-1.94531">
        <ele>2</ele>
        <time>2019-11-03T16:11:38Z</time>
      </trkpt>
      <trkpt lat="47.26627" lon="-1.9463">
        <ele>2</ele>
        <time>2019-11-03T16:11:51Z</time>
      </trkpt>
      <trkpt lat="47.26634" lon="-1.94656">
        <ele>2</ele>
        <time>2019-11-03T16:11:55Z</time>
      </trkpt>
      <trkpt lat="47.26723" lon="-1.94845">
        <ele>4</ele>
        <time>2019-11-03T16:12:26Z</time>
      </trkpt>
      <trkpt lat="47.26727" lon="-1.94853">
        <ele>4</ele>
        <time>2019-11-03T16:12:28Z</time>
      </trkpt>
      <trkpt lat="47.26723" lon="-1.94873">
        <ele>4</ele>
        <time>2019-11-03T16:12:30Z</time>
      </trkpt>
      <trkpt lat="47.267" lon="-1.94902">
        <ele>4</ele>
        <time>2019-11-03T16:12:37Z</time>
      </trkpt>
      <trkpt lat="47.26679" lon="-1.94942">
        <ele>4</ele>
        <time>2019-11-03T16:12:43Z</time>
      </trkpt>
      <trkpt lat="47.26651" lon="-1.95016">
        <ele>4</ele>
        <time>2019-11-03T16:12:55Z</time>
      </trkpt>
      <trkpt lat="47.26621" lon="-1.9506">
        <ele>3</ele>
        <time>2019-11-03T16:13:03Z</time>
      </trkpt>
      <trkpt lat="47.26602" lon="-1.95077">
        <ele>3</ele>
        <time>2019-11-03T16:13:08Z</time>
      </trkpt>
      <trkpt lat="47.26578" lon="-1.95086">
        <ele>3</ele>
        <time>2019-11-03T16:13:13Z</time>
      </trkpt>
      <trkpt lat="47.26482" lon="-1.95087">
        <ele>3</ele>
        <time>2019-11-03T16:13:32Z</time>
      </trkpt>
      <trkpt lat="47.26468" lon="-1.95087">
        <ele>3</ele>
        <time>2019-11-03T16:13:35Z</time>
      </trkpt>
      <trkpt lat="47.26467" lon="-1.95183">
        <ele>4</ele>
        <time>2019-11-03T16:13:48Z</time>
      </trkpt>
      <trkpt lat="47.26494" lon="-1.95361">
        <ele>5</ele>
        <time>2019-11-03T16:14:13Z</time>
      </trkpt>
      <trkpt lat="47.26549" lon="-1.95451">
        <ele>8</ele>
        <time>2019-11-03T16:14:29Z</time>
      </trkpt>
      <trkpt lat="47.26564" lon="-1.95489">
        <ele>6</ele>
        <time>2019-11-03T16:14:35Z</time>
      </trkpt>
      <trkpt lat="47.26598" lon="-1.95641">
        <ele>6</ele>
        <time>2019-11-03T16:14:57Z</time>
      </trkpt>
      <trkpt lat="47.26614" lon="-1.95698">
        <ele>6</ele>
        <time>2019-11-03T16:15:05Z</time>
      </trkpt>
      <trkpt lat="47.26647" lon="-1.95782">
        <ele>9</ele>
        <time>2019-11-03T16:15:19Z</time>
      </trkpt>
      <trkpt lat="47.26702" lon="-1.95921">
        <ele>12</ele>
        <time>2019-11-03T16:15:40Z</time>
      </trkpt>
      <trkpt lat="47.26732" lon="-1.96038">
        <ele>12</ele>
        <time>2019-11-03T16:15:57Z</time>
      </trkpt>
      <trkpt lat="47.26761" lon="-1.96147">
        <ele>12</ele>
        <time>2019-11-03T16:16:13Z</time>
      </trkpt>
      <trkpt lat="47.26809" lon="-1.96334">
        <ele>13</ele>
        <time>2019-11-03T16:16:41Z</time>
      </trkpt>
      <trkpt lat="47.26845" lon="-1.96423">
        <ele>16</ele>
        <time>2019-11-03T16:16:55Z</time>
      </trkpt>
      <trkpt lat="47.26918" lon="-1.9661">
        <ele>14</ele>
        <time>2019-11-03T16:17:24Z</time>
      </trkpt>
      <trkpt lat="47.26996" lon="-1.96813">
        <ele>13</ele>
        <time>2019-11-03T16:17:56Z</time>
      </trkpt>
      <trkpt lat="47.27076" lon="-1.96963">
        <ele>14</ele>
        <time>2019-11-03T16:18:22Z</time>
      </trkpt>
      <trkpt lat="47.27093" lon="-1.97136">
        <ele>7</ele>
        <time>2019-11-03T16:18:45Z</time>
      </trkpt>
      <trkpt lat="47.27109" lon="-1.9718">
        <ele>7</ele>
        <time>2019-11-03T16:18:52Z</time>
      </trkpt>
      <trkpt lat="47.27238" lon="-1.97386">
        <ele>9</ele>
        <time>2019-11-03T16:19:30Z</time>
      </trkpt>
      <trkpt lat="47.27242" lon="-1.97405">
        <ele>9</ele>
        <time>2019-11-03T16:19:33Z</time>
      </trkpt>
      <trkpt lat="47.27272" lon="-1.97522">
        <ele>10</ele>
        <time>2019-11-03T16:19:50Z</time>
      </trkpt>
      <trkpt lat="47.27291" lon="-1.97643">
        <ele>9</ele>
        <time>2019-11-03T16:20:07Z</time>
      </trkpt>
      <trkpt lat="47.27289" lon="-1.97687">
        <ele>9</ele>
        <time>2019-11-03T16:20:13Z</time>
      </trkpt>
      <trkpt lat="47.27311" lon="-1.97732">
        <ele>8</ele>
        <time>2019-11-03T16:20:20Z</time>
      </trkpt>
      <trkpt lat="47.27329" lon="-1.9775">
        <ele>8</ele>
        <time>2019-11-03T16:20:25Z</time>
      </trkpt>
      <trkpt lat="47.27377" lon="-1.97769">
        <ele>8</ele>
        <time>2019-11-03T16:20:35Z</time>
      </trkpt>
      <trkpt lat="47.274" lon="-1.97788">
        <ele>9</ele>
        <time>2019-11-03T16:20:40Z</time>
      </trkpt>
      <trkpt lat="47.27402" lon="-1.97809">
        <ele>9</ele>
        <time>2019-11-03T16:20:43Z</time>
      </trkpt>
      <trkpt lat="47.27414" lon="-1.97853">
        <ele>9</ele>
        <time>2019-11-03T16:20:49Z</time>
      </trkpt>
      <trkpt lat="47.27435" lon="-1.97942">
        <ele>10</ele>
        <time>2019-11-03T16:21:02Z</time>
      </trkpt>
      <trkpt lat="47.27446" lon="-1.98052">
        <ele>10</ele>
        <time>2019-11-03T16:21:17Z</time>
      </trkpt>
      <trkpt lat="47.27446" lon="-1.98134">
        <ele>10</ele>
        <time>2019-11-03T16:21:28Z</time>
      </trkpt>
      <trkpt lat="47.27443" lon="-1.98194">
        <ele>7</ele>
        <time>2019-11-03T16:21:37Z</time>
      </trkpt>
      <trkpt lat="47.2744" lon="-1.98206">
        <ele>7</ele>
        <time>2019-11-03T16:21:38Z</time>
      </trkpt>
      <trkpt lat="47.27408" lon="-1.98441">
        <ele>7</ele>
        <time>2019-11-03T16:22:11Z</time>
      </trkpt>
      <trkpt lat="47.27404" lon="-1.98478">
        <ele>7</ele>
        <time>2019-11-03T16:22:16Z</time>
      </trkpt>
      <trkpt lat="47.27425" lon="-1.98499">
        <ele>7</ele>
        <time>2019-11-03T16:22:21Z</time>
      </trkpt>
      <trkpt lat="47.27492" lon="-1.98571">
        <ele>4</ele>
        <time>2019-11-03T16:22:38Z</time>
      </trkpt>
      <trkpt lat="47.2751" lon="-1.98602">
        <ele>4</ele>
        <time>2019-11-03T16:22:43Z</time>
      </trkpt>
      <trkpt lat="47.27525" lon="-1.98638">
        <ele>4</ele>
        <time>2019-11-03T16:22:49Z</time>
      </trkpt>
      <trkpt lat="47.27592" lon="-1.9891">
        <ele>3</ele>
        <time>2019-11-03T16:23:28Z</time>
      </trkpt>
      <trkpt lat="47.27596" lon="-1.98939">
        <ele>2</ele>
        <time>2019-11-03T16:23:32Z</time>
      </trkpt>
      <trkpt lat="47.27569" lon="-1.99002">
        <ele>2</ele>
        <time>2019-11-03T16:23:42Z</time>
      </trkpt>
      <trkpt lat="47.27563" lon="-1.99034">
        <ele>2</ele>
        <time>2019-11-03T16:23:47Z</time>
      </trkpt>
      <trkpt lat="47.27566" lon="-1.99157">
        <ele>2</ele>
        <time>2019-11-03T16:24:04Z</time>
      </trkpt>
      <trkpt lat="47.27528" lon="-1.99239">
        <ele>3</ele>
        <time>2019-11-03T16:24:17Z</time>
      </trkpt>
      <trkpt lat="47.27524" lon="-1.99311">
        <ele>3</ele>
        <time>2019-11-03T16:24:27Z</time>
      </trkpt>
      <trkpt lat="47.27501" lon="-1.99392">
        <ele>4</ele>
        <time>2019-11-03T16:24:39Z</time>
      </trkpt>
      <trkpt lat="47.27501" lon="-1.9943">
        <ele>4</ele>
        <time>2019-11-03T16:24:44Z</time>
      </trkpt>
      <trkpt lat="47.27505" lon="-1.99441">
        <ele>4</ele>
        <time>2019-11-03T16:24:46Z</time>
      </trkpt>
      <trkpt lat="47.27512" lon="-1.99464">
        <ele>4</ele>
        <time>2019-11-03T16:24:49Z</time>
      </trkpt>
      <trkpt lat="47.27533" lon="-1.9953">
        <ele>4</ele>
        <time>2019-11-03T16:24:59Z</time>
      </trkpt>
      <trkpt lat="47.27561" lon="-1.9965">
        <ele>4</ele>
        <time>2019-11-03T16:25:16Z</time>
      </trkpt>
      <trkpt lat="47.27563" lon="-1.99662">
        <ele>4</ele>
        <time>2019-11-03T16:25:18Z</time>
      </trkpt>
      <trkpt lat="47.2757" lon="-1.99728">
        <ele>4</ele>
        <time>2019-11-03T16:25:27Z</time>
      </trkpt>
      <trkpt lat="47.27572" lon="-1.99778">
        <ele>4</ele>
        <time>2019-11-03T16:25:34Z</time>
      </trkpt>
      <trkpt lat="47.27573" lon="-1.99811">
        <ele>4</ele>
        <time>2019-11-03T16:25:39Z</time>
      </trkpt>
      <trkpt lat="47.27569" lon="-1.99845">
        <ele>4</ele>
        <time>2019-11-03T16:25:43Z</time>
      </trkpt>
      <trkpt lat="47.27565" lon="-1.99886">
        <ele>5</ele>
        <time>2019-11-03T16:25:49Z</time>
      </trkpt>
      <trkpt lat="47.2757" lon="-1.99937">
        <ele>5</ele>
        <time>2019-11-03T16:25:56Z</time>
      </trkpt>
      <trkpt lat="47.27574" lon="-1.9995">
        <ele>5</ele>
        <time>2019-11-03T16:25:58Z</time>
      </trkpt>
      <trkpt lat="47.27582" lon="-1.99975">
        <ele>5</ele>
        <time>2019-11-03T16:26:02Z</time>
      </trkpt>
      <trkpt lat="47.276" lon="-2.0001">
        <ele>4</ele>
        <time>2019-11-03T16:26:08Z</time>
      </trkpt>
      <trkpt lat="47.27624" lon="-2.0005">
        <ele>4</ele>
        <time>2019-11-03T16:26:15Z</time>
      </trkpt>
      <trkpt lat="47.27638" lon="-2.00074">
        <ele>4</ele>
        <time>2019-11-03T16:26:19Z</time>
      </trkpt>
      <trkpt lat="47.27658" lon="-2.00143">
        <ele>5</ele>
        <time>2019-11-03T16:26:29Z</time>
      </trkpt>
      <trkpt lat="47.27681" lon="-2.00224">
        <ele>4</ele>
        <time>2019-11-03T16:26:41Z</time>
      </trkpt>
      <trkpt lat="47.27678" lon="-2.00246">
        <ele>4</ele>
        <time>2019-11-03T16:26:44Z</time>
      </trkpt>
      <trkpt lat="47.27676" lon="-2.00275">
        <ele>4</ele>
        <time>2019-11-03T16:26:48Z</time>
      </trkpt>
      <trkpt lat="47.27674" lon="-2.00338">
        <ele>4</ele>
        <time>2019-11-03T16:26:57Z</time>
      </trkpt>
      <trkpt lat="47.2767" lon="-2.00393">
        <ele>5</ele>
        <time>2019-11-03T16:27:04Z</time>
      </trkpt>
      <trkpt lat="47.27669" lon="-2.00441">
        <ele>5</ele>
        <time>2019-11-03T16:27:11Z</time>
      </trkpt>
      <trkpt lat="47.27757" lon="-2.00451">
        <ele>5</ele>
        <time>2019-11-03T16:27:29Z</time>
      </trkpt>
      <trkpt lat="47.27766" lon="-2.00454">
        <ele>5</ele>
        <time>2019-11-03T16:27:30Z</time>
      </trkpt>
      <trkpt lat="47.27775" lon="-2.00458">
        <ele>5</ele>
        <time>2019-11-03T16:27:32Z</time>
      </trkpt>
      <trkpt lat="47.27787" lon="-2.00465">
        <ele>5</ele>
        <time>2019-11-03T16:27:35Z</time>
      </trkpt>
      <trkpt lat="47.27798" lon="-2.00472">
        <ele>6</ele>
        <time>2019-11-03T16:27:37Z</time>
      </trkpt>
      <trkpt lat="47.2781" lon="-2.0048">
        <ele>6</ele>
        <time>2019-11-03T16:27:40Z</time>
      </trkpt>
      <trkpt lat="47.27822" lon="-2.0049">
        <ele>6</ele>
        <time>2019-11-03T16:27:43Z</time>
      </trkpt>
      <trkpt lat="47.27848" lon="-2.00518">
        <ele>6</ele>
        <time>2019-11-03T16:27:49Z</time>
      </trkpt>
      <trkpt lat="47.27874" lon="-2.00545">
        <ele>6</ele>
        <time>2019-11-03T16:27:56Z</time>
      </trkpt>
      <trkpt lat="47.27883" lon="-2.00552">
        <ele>4</ele>
        <time>2019-11-03T16:27:58Z</time>
      </trkpt>
      <trkpt lat="47.2792" lon="-2.00581">
        <ele>4</ele>
        <time>2019-11-03T16:28:06Z</time>
      </trkpt>
      <trkpt lat="47.27925" lon="-2.00587">
        <ele>4</ele>
        <time>2019-11-03T16:28:07Z</time>
      </trkpt>
      <trkpt lat="47.27931" lon="-2.00593">
        <ele>4</ele>
        <time>2019-11-03T16:28:09Z</time>
      </trkpt>
      <trkpt lat="47.27934" lon="-2.00598">
        <ele>4</ele>
        <time>2019-11-03T16:28:10Z</time>
      </trkpt>
      <trkpt lat="47.27937" lon="-2.00604">
        <ele>4</ele>
        <time>2019-11-03T16:28:11Z</time>
      </trkpt>
      <trkpt lat="47.2794" lon="-2.0061">
        <ele>4</ele>
        <time>2019-11-03T16:28:12Z</time>
      </trkpt>
      <trkpt lat="47.27942" lon="-2.00616">
        <ele>4</ele>
        <time>2019-11-03T16:28:13Z</time>
      </trkpt>
      <trkpt lat="47.27944" lon="-2.00622">
        <ele>4</ele>
        <time>2019-11-03T16:28:13Z</time>
      </trkpt>
      <trkpt lat="47.2795" lon="-2.00653">
        <ele>3</ele>
        <time>2019-11-03T16:28:18Z</time>
      </trkpt>
      <trkpt lat="47.27952" lon="-2.00666">
        <ele>3</ele>
        <time>2019-11-03T16:28:20Z</time>
      </trkpt>
      <trkpt lat="47.27952" lon="-2.00678">
        <ele>3</ele>
        <time>2019-11-03T16:28:21Z</time>
      </trkpt>
      <trkpt lat="47.2795" lon="-2.00687">
        <ele>3</ele>
        <time>2019-11-03T16:28:23Z</time>
      </trkpt>
      <trkpt lat="47.27947" lon="-2.00693">
        <ele>3</ele>
        <time>2019-11-03T16:28:24Z</time>
      </trkpt>
      <trkpt lat="47.2786" lon="-2.00787">
        <ele>3</ele>
        <time>2019-11-03T16:28:45Z</time>
      </trkpt>
      <trkpt lat="47.2784" lon="-2.0081">
        <ele>3</ele>
        <time>2019-11-03T16:28:50Z</time>
      </trkpt>
      <trkpt lat="47.27822" lon="-2.00833">
        <ele>5</ele>
        <time>2019-11-03T16:28:55Z</time>
      </trkpt>
      <trkpt lat="47.27808" lon="-2.00857">
        <ele>5</ele>
        <time>2019-11-03T16:28:59Z</time>
      </trkpt>
      <trkpt lat="47.27752" lon="-2.00956">
        <ele>6</ele>
        <time>2019-11-03T16:29:17Z</time>
      </trkpt>
      <trkpt lat="47.27761" lon="-2.00978">
        <ele>6</ele>
        <time>2019-11-03T16:29:20Z</time>
      </trkpt>
      <trkpt lat="47.27856" lon="-2.01185">
        <ele>6</ele>
        <time>2019-11-03T16:29:54Z</time>
      </trkpt>
      <trkpt lat="47.27866" lon="-2.01207">
        <ele>6</ele>
        <time>2019-11-03T16:29:58Z</time>
      </trkpt>
      <trkpt lat="47.2792" lon="-2.01359">
        <ele>5</ele>
        <time>2019-11-03T16:30:21Z</time>
      </trkpt>
      <trkpt lat="47.27927" lon="-2.01392">
        <ele>4</ele>
        <time>2019-11-03T16:30:26Z</time>
      </trkpt>
      <trkpt lat="47.27933" lon="-2.01471">
        <ele>4</ele>
        <time>2019-11-03T16:30:37Z</time>
      </trkpt>
      <trkpt lat="47.27934" lon="-2.01477">
        <ele>4</ele>
        <time>2019-11-03T16:30:38Z</time>
      </trkpt>
      <trkpt lat="47.27935" lon="-2.01481">
        <ele>4</ele>
        <time>2019-11-03T16:30:38Z</time>
      </trkpt>
      <trkpt lat="47.27937" lon="-2.01484">
        <ele>4</ele>
        <time>2019-11-03T16:30:39Z</time>
      </trkpt>
      <trkpt lat="47.27938" lon="-2.01484">
        <ele>4</ele>
        <time>2019-11-03T16:30:39Z</time>
      </trkpt>
      <trkpt lat="47.2794" lon="-2.01486">
        <ele>4</ele>
        <time>2019-11-03T16:30:39Z</time>
      </trkpt>
      <trkpt lat="47.27943" lon="-2.01487">
        <ele>4</ele>
        <time>2019-11-03T16:30:40Z</time>
      </trkpt>
      <trkpt lat="47.27954" lon="-2.01491">
        <ele>4</ele>
        <time>2019-11-03T16:30:42Z</time>
      </trkpt>
      <trkpt lat="47.28065" lon="-2.01523">
        <ele>3</ele>
        <time>2019-11-03T16:31:05Z</time>
      </trkpt>
      <trkpt lat="47.28077" lon="-2.01527">
        <ele>3</ele>
        <time>2019-11-03T16:31:07Z</time>
      </trkpt>
      <trkpt lat="47.28085" lon="-2.01529">
        <ele>3</ele>
        <time>2019-11-03T16:31:09Z</time>
      </trkpt>
      <trkpt lat="47.28087" lon="-2.01528">
        <ele>3</ele>
        <time>2019-11-03T16:31:09Z</time>
      </trkpt>
      <trkpt lat="47.28091" lon="-2.01528">
        <ele>3</ele>
        <time>2019-11-03T16:31:10Z</time>
      </trkpt>
      <trkpt lat="47.28109" lon="-2.01534">
        <ele>3</ele>
        <time>2019-11-03T16:31:14Z</time>
      </trkpt>
      <trkpt lat="47.28117" lon="-2.01537">
        <ele>3</ele>
        <time>2019-11-03T16:31:16Z</time>
      </trkpt>
      <trkpt lat="47.28127" lon="-2.01543">
        <ele>3</ele>
        <time>2019-11-03T16:31:18Z</time>
      </trkpt>
      <trkpt lat="47.28193" lon="-2.01563">
        <ele>2</ele>
        <time>2019-11-03T16:31:31Z</time>
      </trkpt>
      <trkpt lat="47.28204" lon="-2.01565">
        <ele>2</ele>
        <time>2019-11-03T16:31:34Z</time>
      </trkpt>
      <trkpt lat="47.2828" lon="-2.01588">
        <ele>2</ele>
        <time>2019-11-03T16:31:49Z</time>
      </trkpt>
      <trkpt lat="47.28288" lon="-2.01587">
        <ele>2</ele>
        <time>2019-11-03T16:31:51Z</time>
      </trkpt>
      <trkpt lat="47.28293" lon="-2.01587">
        <ele>2</ele>
        <time>2019-11-03T16:31:52Z</time>
      </trkpt>
      <trkpt lat="47.28312" lon="-2.01593">
        <ele>2</ele>
        <time>2019-11-03T16:31:56Z</time>
      </trkpt>
      <trkpt lat="47.28316" lon="-2.01594">
        <ele>2</ele>
        <time>2019-11-03T16:31:56Z</time>
      </trkpt>
      <trkpt lat="47.2832" lon="-2.01593">
        <ele>2</ele>
        <time>2019-11-03T16:31:57Z</time>
      </trkpt>
      <trkpt lat="47.28324" lon="-2.01591">
        <ele>2</ele>
        <time>2019-11-03T16:31:58Z</time>
      </trkpt>
      <trkpt lat="47.28326" lon="-2.01588">
        <ele>2</ele>
        <time>2019-11-03T16:31:59Z</time>
      </trkpt>
      <trkpt lat="47.28328" lon="-2.01584">
        <ele>2</ele>
        <time>2019-11-03T16:31:59Z</time>
      </trkpt>
      <trkpt lat="47.2833" lon="-2.01582">
        <ele>2</ele>
        <time>2019-11-03T16:32:00Z</time>
      </trkpt>
      <trkpt lat="47.28331" lon="-2.01583">
        <ele>2</ele>
        <time>2019-11-03T16:32:00Z</time>
      </trkpt>
      <trkpt lat="47.28332" lon="-2.01584">
        <ele>2</ele>
        <time>2019-11-03T16:32:00Z</time>
      </trkpt>
      <trkpt lat="47.28335" lon="-2.01586">
        <ele>2</ele>
        <time>2019-11-03T16:32:01Z</time>
      </trkpt>
      <trkpt lat="47.28338" lon="-2.01589">
        <ele>2</ele>
        <time>2019-11-03T16:32:02Z</time>
      </trkpt>
      <trkpt lat="47.28342" lon="-2.01589">
        <ele>2</ele>
        <time>2019-11-03T16:32:03Z</time>
      </trkpt>
      <trkpt lat="47.28341" lon="-2.01601">
        <ele>2</ele>
        <time>2019-11-03T16:32:04Z</time>
      </trkpt>
      <trkpt lat="47.28343" lon="-2.01604">
        <ele>2</ele>
        <time>2019-11-03T16:32:05Z</time>
      </trkpt>
      <trkpt lat="47.28344" lon="-2.01607">
        <ele>2</ele>
        <time>2019-11-03T16:32:05Z</time>
      </trkpt>
      <trkpt lat="47.28354" lon="-2.01614">
        <ele>2</ele>
        <time>2019-11-03T16:32:07Z</time>
      </trkpt>
      <trkpt lat="47.28374" lon="-2.01626">
        <ele>2</ele>
        <time>2019-11-03T16:32:12Z</time>
      </trkpt>
      <trkpt lat="47.28379" lon="-2.01627">
        <ele>2</ele>
        <time>2019-11-03T16:32:13Z</time>
      </trkpt>
      <trkpt lat="47.28389" lon="-2.0163">
        <ele>2</ele>
        <time>2019-11-03T16:32:15Z</time>
      </trkpt>
      <trkpt lat="47.28452" lon="-2.0165">
        <ele>3</ele>
        <time>2019-11-03T16:32:28Z</time>
      </trkpt>
      <trkpt lat="47.28459" lon="-2.01652">
        <ele>3</ele>
        <time>2019-11-03T16:32:29Z</time>
      </trkpt>
      <trkpt lat="47.28466" lon="-2.01654">
        <ele>3</ele>
        <time>2019-11-03T16:32:31Z</time>
      </trkpt>
      <trkpt lat="47.28474" lon="-2.01657">
        <ele>3</ele>
        <time>2019-11-03T16:32:32Z</time>
      </trkpt>
      <trkpt lat="47.28481" lon="-2.01659">
        <ele>3</ele>
        <time>2019-11-03T16:32:34Z</time>
      </trkpt>
      <trkpt lat="47.28528" lon="-2.01673">
        <ele>5</ele>
        <time>2019-11-03T16:32:43Z</time>
      </trkpt>
      <trkpt lat="47.28539" lon="-2.01677">
        <ele>5</ele>
        <time>2019-11-03T16:32:46Z</time>
      </trkpt>
      <trkpt lat="47.28552" lon="-2.01684">
        <ele>5</ele>
        <time>2019-11-03T16:32:48Z</time>
      </trkpt>
      <trkpt lat="47.28556" lon="-2.01687">
        <ele>5</ele>
        <time>2019-11-03T16:32:49Z</time>
      </trkpt>
      <trkpt lat="47.2856" lon="-2.0169">
        <ele>5</ele>
        <time>2019-11-03T16:32:50Z</time>
      </trkpt>
      <trkpt lat="47.28566" lon="-2.01695">
        <ele>5</ele>
        <time>2019-11-03T16:32:52Z</time>
      </trkpt>
      <trkpt lat="47.28571" lon="-2.017">
        <ele>5</ele>
        <time>2019-11-03T16:32:53Z</time>
      </trkpt>
      <trkpt lat="47.28585" lon="-2.01717">
        <ele>5</ele>
        <time>2019-11-03T16:32:56Z</time>
      </trkpt>
      <trkpt lat="47.28589" lon="-2.01722">
        <ele>5</ele>
        <time>2019-11-03T16:32:57Z</time>
      </trkpt>
      <trkpt lat="47.28593" lon="-2.01729">
        <ele>5</ele>
        <time>2019-11-03T16:32:59Z</time>
      </trkpt>
      <trkpt lat="47.28596" lon="-2.01734">
        <ele>5</ele>
        <time>2019-11-03T16:33:00Z</time>
      </trkpt>
      <trkpt lat="47.28606" lon="-2.01755">
        <ele>5</ele>
        <time>2019-11-03T16:33:03Z</time>
      </trkpt>
      <trkpt lat="47.28618" lon="-2.01776">
        <ele>5</ele>
        <time>2019-11-03T16:33:07Z</time>
      </trkpt>
      <trkpt lat="47.28638" lon="-2.01812">
        <ele>5</ele>
        <time>2019-11-03T16:33:13Z</time>
      </trkpt>
      <trkpt lat="47.28645" lon="-2.01825">
        <ele>5</ele>
        <time>2019-11-03T16:33:15Z</time>
      </trkpt>
      <trkpt lat="47.2869" lon="-2.01906">
        <ele>5</ele>
        <time>2019-11-03T16:33:30Z</time>
      </trkpt>
      <trkpt lat="47.28693" lon="-2.01911">
        <ele>5</ele>
        <time>2019-11-03T16:33:30Z</time>
      </trkpt>
      <trkpt lat="47.28698" lon="-2.01922">
        <ele>4</ele>
        <time>2019-11-03T16:33:32Z</time>
      </trkpt>
      <trkpt lat="47.28704" lon="-2.01936">
        <ele>4</ele>
        <time>2019-11-03T16:33:34Z</time>
      </trkpt>
      <trkpt lat="47.28709" lon="-2.01954">
        <ele>4</ele>
        <time>2019-11-03T16:33:37Z</time>
      </trkpt>
      <trkpt lat="47.2872" lon="-2.02002">
        <ele>4</ele>
        <time>2019-11-03T16:33:44Z</time>
      </trkpt>
      <trkpt lat="47.28725" lon="-2.0202">
        <ele>4</ele>
        <time>2019-11-03T16:33:47Z</time>
      </trkpt>
      <trkpt lat="47.28731" lon="-2.02037">
        <ele>4</ele>
        <time>2019-11-03T16:33:49Z</time>
      </trkpt>
      <trkpt lat="47.28739" lon="-2.02058">
        <ele>5</ele>
        <time>2019-11-03T16:33:52Z</time>
      </trkpt>
      <trkpt lat="47.28748" lon="-2.02077">
        <ele>5</ele>
        <time>2019-11-03T16:33:56Z</time>
      </trkpt>
      <trkpt lat="47.28756" lon="-2.02089">
        <ele>5</ele>
        <time>2019-11-03T16:33:58Z</time>
      </trkpt>
      <trkpt lat="47.28763" lon="-2.021">
        <ele>5</ele>
        <time>2019-11-03T16:34:00Z</time>
      </trkpt>
      <trkpt lat="47.2879" lon="-2.02141">
        <ele>5</ele>
        <time>2019-11-03T16:34:08Z</time>
      </trkpt>
      <trkpt lat="47.28795" lon="-2.02149">
        <ele>4</ele>
        <time>2019-11-03T16:34:09Z</time>
      </trkpt>
      <trkpt lat="47.28797" lon="-2.02155">
        <ele>4</ele>
        <time>2019-11-03T16:34:10Z</time>
      </trkpt>
      <trkpt lat="47.28801" lon="-2.02173">
        <ele>4</ele>
        <time>2019-11-03T16:34:13Z</time>
      </trkpt>
      <trkpt lat="47.28814" lon="-2.02229">
        <ele>4</ele>
        <time>2019-11-03T16:34:21Z</time>
      </trkpt>
      <trkpt lat="47.28818" lon="-2.02248">
        <ele>4</ele>
        <time>2019-11-03T16:34:23Z</time>
      </trkpt>
      <trkpt lat="47.28825" lon="-2.02283">
        <ele>5</ele>
        <time>2019-11-03T16:34:29Z</time>
      </trkpt>
      <trkpt lat="47.28829" lon="-2.023">
        <ele>5</ele>
        <time>2019-11-03T16:34:31Z</time>
      </trkpt>
      <trkpt lat="47.2883" lon="-2.02313">
        <ele>5</ele>
        <time>2019-11-03T16:34:33Z</time>
      </trkpt>
      <trkpt lat="47.28832" lon="-2.02334">
        <ele>5</ele>
        <time>2019-11-03T16:34:36Z</time>
      </trkpt>
      <trkpt lat="47.28833" lon="-2.02348">
        <ele>5</ele>
        <time>2019-11-03T16:34:38Z</time>
      </trkpt>
      <trkpt lat="47.28837" lon="-2.02454">
        <ele>5</ele>
        <time>2019-11-03T16:34:52Z</time>
      </trkpt>
      <trkpt lat="47.28839" lon="-2.02512">
        <ele>5</ele>
        <time>2019-11-03T16:35:00Z</time>
      </trkpt>
      <trkpt lat="47.2884" lon="-2.02555">
        <ele>5</ele>
        <time>2019-11-03T16:35:06Z</time>
      </trkpt>
      <trkpt lat="47.2884" lon="-2.02562">
        <ele>5</ele>
        <time>2019-11-03T16:35:07Z</time>
      </trkpt>
      <trkpt lat="47.28842" lon="-2.02599">
        <ele>5</ele>
        <time>2019-11-03T16:35:12Z</time>
      </trkpt>
      <trkpt lat="47.28846" lon="-2.0263">
        <ele>5</ele>
        <time>2019-11-03T16:35:16Z</time>
      </trkpt>
      <trkpt lat="47.28848" lon="-2.02644">
        <ele>5</ele>
        <time>2019-11-03T16:35:18Z</time>
      </trkpt>
      <trkpt lat="47.28852" lon="-2.02665">
        <ele>5</ele>
        <time>2019-11-03T16:35:21Z</time>
      </trkpt>
      <trkpt lat="47.28859" lon="-2.02696">
        <ele>5</ele>
        <time>2019-11-03T16:35:25Z</time>
      </trkpt>
      <trkpt lat="47.28861" lon="-2.02702">
        <ele>6</ele>
        <time>2019-11-03T16:35:26Z</time>
      </trkpt>
      <trkpt lat="47.28889" lon="-2.0269">
        <ele>6</ele>
        <time>2019-11-03T16:35:32Z</time>
      </trkpt>
      <trkpt lat="47.28892" lon="-2.02689">
        <ele>6</ele>
        <time>2019-11-03T16:35:33Z</time>
      </trkpt>
      <trkpt lat="47.28895" lon="-2.0269">
        <ele>6</ele>
        <time>2019-11-03T16:35:33Z</time>
      </trkpt>
      <trkpt lat="47.28898" lon="-2.02692">
        <ele>6</ele>
        <time>2019-11-03T16:35:34Z</time>
      </trkpt>
      <trkpt lat="47.289" lon="-2.02696">
        <ele>6</ele>
        <time>2019-11-03T16:35:35Z</time>
      </trkpt>
      <trkpt lat="47.28906" lon="-2.02714">
        <ele>6</ele>
        <time>2019-11-03T16:35:37Z</time>
      </trkpt>
      <trkpt lat="47.28909" lon="-2.02712">
        <ele>6</ele>
        <time>2019-11-03T16:35:38Z</time>
      </trkpt>
      <trkpt lat="47.28946" lon="-2.02696">
        <ele>5</ele>
        <time>2019-11-03T16:35:46Z</time>
      </trkpt>
      <trkpt lat="47.28948" lon="-2.02696">
        <ele>5</ele>
        <time>2019-11-03T16:35:46Z</time>
      </trkpt>
      <trkpt lat="47.2895" lon="-2.02701">
        <ele>5</ele>
        <time>2019-11-03T16:35:47Z</time>
      </trkpt>
      <trkpt lat="47.28975" lon="-2.02815">
        <ele>2</ele>
        <time>2019-11-03T16:36:03Z</time>
      </trkpt>
      <trkpt lat="47.28996" lon="-2.02916">
        <ele>2</ele>
        <time>2019-11-03T16:36:17Z</time>
      </trkpt>
      <trkpt lat="47.28985" lon="-2.02923">
        <ele>4</ele>
        <time>2019-11-03T16:36:20Z</time>
      </trkpt>
      <trkpt lat="47.28993" lon="-2.02983">
        <ele>4</ele>
        <time>2019-11-03T16:36:28Z</time>
      </trkpt>
      <trkpt lat="47.28996" lon="-2.03002">
        <ele>4</ele>
        <time>2019-11-03T16:36:31Z</time>
      </trkpt>
      <trkpt lat="47.28997" lon="-2.03012">
        <ele>4</ele>
        <time>2019-11-03T16:36:32Z</time>
      </trkpt>
      <trkpt lat="47.28997" lon="-2.03019">
        <ele>4</ele>
        <time>2019-11-03T16:36:33Z</time>
      </trkpt>
      <trkpt lat="47.28996" lon="-2.03023">
        <ele>4</ele>
        <time>2019-11-03T16:36:34Z</time>
      </trkpt>
      <trkpt lat="47.28993" lon="-2.03025">
        <ele>4</ele>
        <time>2019-11-03T16:36:34Z</time>
      </trkpt>
      <trkpt lat="47.28989" lon="-2.03025">
        <ele>4</ele>
        <time>2019-11-03T16:36:35Z</time>
      </trkpt>
      <trkpt lat="47.28989" lon="-2.03038">
        <ele>4</ele>
        <time>2019-11-03T16:36:37Z</time>
      </trkpt>
      <trkpt lat="47.28989" lon="-2.03045">
        <ele>5</ele>
        <time>2019-11-03T16:36:38Z</time>
      </trkpt>
      <trkpt lat="47.28989" lon="-2.0305">
        <ele>5</ele>
        <time>2019-11-03T16:36:39Z</time>
      </trkpt>
      <trkpt lat="47.28989" lon="-2.0306">
        <ele>5</ele>
        <time>2019-11-03T16:36:40Z</time>
      </trkpt>
      <trkpt lat="47.28989" lon="-2.03062">
        <ele>5</ele>
        <time>2019-11-03T16:36:40Z</time>
      </trkpt>
      <trkpt lat="47.28988" lon="-2.03128">
        <ele>5</ele>
        <time>2019-11-03T16:36:49Z</time>
      </trkpt>
      <trkpt lat="47.28987" lon="-2.03163">
        <ele>5</ele>
        <time>2019-11-03T16:36:54Z</time>
      </trkpt>
      <trkpt lat="47.28985" lon="-2.03225">
        <ele>6</ele>
        <time>2019-11-03T16:37:02Z</time>
      </trkpt>
      <trkpt lat="47.28985" lon="-2.03238">
        <ele>6</ele>
        <time>2019-11-03T16:37:04Z</time>
      </trkpt>
      <trkpt lat="47.28984" lon="-2.03246">
        <ele>6</ele>
        <time>2019-11-03T16:37:05Z</time>
      </trkpt>
      <trkpt lat="47.28984" lon="-2.03249">
        <ele>6</ele>
        <time>2019-11-03T16:37:06Z</time>
      </trkpt>
      <trkpt lat="47.28983" lon="-2.03251">
        <ele>6</ele>
        <time>2019-11-03T16:37:06Z</time>
      </trkpt>
      <trkpt lat="47.28983" lon="-2.03256">
        <ele>6</ele>
        <time>2019-11-03T16:37:07Z</time>
      </trkpt>
      <trkpt lat="47.2898" lon="-2.0327">
        <ele>6</ele>
        <time>2019-11-03T16:37:09Z</time>
      </trkpt>
      <trkpt lat="47.28978" lon="-2.03283">
        <ele>6</ele>
        <time>2019-11-03T16:37:11Z</time>
      </trkpt>
      <trkpt lat="47.28976" lon="-2.03291">
        <ele>6</ele>
        <time>2019-11-03T16:37:12Z</time>
      </trkpt>
      <trkpt lat="47.28972" lon="-2.03297">
        <ele>6</ele>
        <time>2019-11-03T16:37:13Z</time>
      </trkpt>
      <trkpt lat="47.28965" lon="-2.03304">
        <ele>6</ele>
        <time>2019-11-03T16:37:15Z</time>
      </trkpt>
      <trkpt lat="47.28965" lon="-2.03306">
        <ele>6</ele>
        <time>2019-11-03T16:37:15Z</time>
      </trkpt>
      <trkpt lat="47.28965" lon="-2.03308">
        <ele>6</ele>
        <time>2019-11-03T16:37:15Z</time>
      </trkpt>
      <trkpt lat="47.28964" lon="-2.0331">
        <ele>6</ele>
        <time>2019-11-03T16:37:15Z</time>
      </trkpt>
      <trkpt lat="47.28963" lon="-2.03312">
        <ele>6</ele>
        <time>2019-11-03T16:37:16Z</time>
      </trkpt>
      <trkpt lat="47.28962" lon="-2.03313">
        <ele>6</ele>
        <time>2019-11-03T16:37:16Z</time>
      </trkpt>
      <trkpt lat="47.28961" lon="-2.03314">
        <ele>6</ele>
        <time>2019-11-03T16:37:16Z</time>
      </trkpt>
      <trkpt lat="47.28958" lon="-2.03319">
        <ele>6</ele>
        <time>2019-11-03T16:37:17Z</time>
      </trkpt>
      <trkpt lat="47.28947" lon="-2.03371">
        <ele>6</ele>
        <time>2019-11-03T16:37:25Z</time>
      </trkpt>
      <trkpt lat="47.28942" lon="-2.03401">
        <ele>6</ele>
        <time>2019-11-03T16:37:29Z</time>
      </trkpt>
      <trkpt lat="47.28936" lon="-2.03435">
        <ele>6</ele>
        <time>2019-11-03T16:37:34Z</time>
      </trkpt>
      <trkpt lat="47.28929" lon="-2.03485">
        <ele>6</ele>
        <time>2019-11-03T16:37:40Z</time>
      </trkpt>
      <trkpt lat="47.28927" lon="-2.03493">
        <ele>6</ele>
        <time>2019-11-03T16:37:42Z</time>
      </trkpt>
      <trkpt lat="47.28927" lon="-2.03503">
        <ele>6</ele>
        <time>2019-11-03T16:37:43Z</time>
      </trkpt>
      <trkpt lat="47.28919" lon="-2.03655">
        <ele>5</ele>
        <time>2019-11-03T16:38:04Z</time>
      </trkpt>
      <trkpt lat="47.28913" lon="-2.0378">
        <ele>6</ele>
        <time>2019-11-03T16:38:21Z</time>
      </trkpt>
      <trkpt lat="47.28909" lon="-2.03861">
        <ele>8</ele>
        <time>2019-11-03T16:38:32Z</time>
      </trkpt>
      <trkpt lat="47.28907" lon="-2.03918">
        <ele>8</ele>
        <time>2019-11-03T16:38:40Z</time>
      </trkpt>
      <trkpt lat="47.28906" lon="-2.03929">
        <ele>8</ele>
        <time>2019-11-03T16:38:41Z</time>
      </trkpt>
      <trkpt lat="47.28905" lon="-2.03934">
        <ele>8</ele>
        <time>2019-11-03T16:38:42Z</time>
      </trkpt>
      <trkpt lat="47.28903" lon="-2.03945">
        <ele>8</ele>
        <time>2019-11-03T16:38:43Z</time>
      </trkpt>
      <trkpt lat="47.28899" lon="-2.03952">
        <ele>8</ele>
        <time>2019-11-03T16:38:45Z</time>
      </trkpt>
      <trkpt lat="47.289" lon="-2.03954">
        <ele>8</ele>
        <time>2019-11-03T16:38:45Z</time>
      </trkpt>
      <trkpt lat="47.289" lon="-2.03956">
        <ele>8</ele>
        <time>2019-11-03T16:38:45Z</time>
      </trkpt>
      <trkpt lat="47.289" lon="-2.03958">
        <ele>8</ele>
        <time>2019-11-03T16:38:45Z</time>
      </trkpt>
      <trkpt lat="47.289" lon="-2.03959">
        <ele>8</ele>
        <time>2019-11-03T16:38:46Z</time>
      </trkpt>
      <trkpt lat="47.28899" lon="-2.03961">
        <ele>8</ele>
        <time>2019-11-03T16:38:46Z</time>
      </trkpt>
      <trkpt lat="47.28898" lon="-2.03963">
        <ele>8</ele>
        <time>2019-11-03T16:38:46Z</time>
      </trkpt>
      <trkpt lat="47.28897" lon="-2.03964">
        <ele>8</ele>
        <time>2019-11-03T16:38:47Z</time>
      </trkpt>
      <trkpt lat="47.28896" lon="-2.03964">
        <ele>8</ele>
        <time>2019-11-03T16:38:47Z</time>
      </trkpt>
      <trkpt lat="47.28894" lon="-2.03972">
        <ele>8</ele>
        <time>2019-11-03T16:38:48Z</time>
      </trkpt>
      <trkpt lat="47.28889" lon="-2.03985">
        <ele>9</ele>
        <time>2019-11-03T16:38:50Z</time>
      </trkpt>
      <trkpt lat="47.28886" lon="-2.0399">
        <ele>9</ele>
        <time>2019-11-03T16:38:51Z</time>
      </trkpt>
      <trkpt lat="47.2888" lon="-2.04">
        <ele>9</ele>
        <time>2019-11-03T16:38:53Z</time>
      </trkpt>
      <trkpt lat="47.2887" lon="-2.04016">
        <ele>9</ele>
        <time>2019-11-03T16:38:56Z</time>
      </trkpt>
      <trkpt lat="47.28868" lon="-2.04019">
        <ele>9</ele>
        <time>2019-11-03T16:38:56Z</time>
      </trkpt>
      <trkpt lat="47.2885" lon="-2.04047">
        <ele>9</ele>
        <time>2019-11-03T16:39:01Z</time>
      </trkpt>
      <trkpt lat="47.28836" lon="-2.04068">
        <ele>9</ele>
        <time>2019-11-03T16:39:05Z</time>
      </trkpt>
      <trkpt lat="47.28796" lon="-2.04127">
        <ele>9</ele>
        <time>2019-11-03T16:39:17Z</time>
      </trkpt>
      <trkpt lat="47.28769" lon="-2.04168">
        <ele>9</ele>
        <time>2019-11-03T16:39:25Z</time>
      </trkpt>
      <trkpt lat="47.28761" lon="-2.0418">
        <ele>6</ele>
        <time>2019-11-03T16:39:27Z</time>
      </trkpt>
      <trkpt lat="47.28757" lon="-2.04187">
        <ele>6</ele>
        <time>2019-11-03T16:39:28Z</time>
      </trkpt>
      <trkpt lat="47.28751" lon="-2.04197">
        <ele>6</ele>
        <time>2019-11-03T16:39:30Z</time>
      </trkpt>
      <trkpt lat="47.28749" lon="-2.04201">
        <ele>6</ele>
        <time>2019-11-03T16:39:31Z</time>
      </trkpt>
      <trkpt lat="47.28745" lon="-2.04206">
        <ele>6</ele>
        <time>2019-11-03T16:39:32Z</time>
      </trkpt>
      <trkpt lat="47.28743" lon="-2.04215">
        <ele>6</ele>
        <time>2019-11-03T16:39:33Z</time>
      </trkpt>
      <trkpt lat="47.28734" lon="-2.04229">
        <ele>6</ele>
        <time>2019-11-03T16:39:35Z</time>
      </trkpt>
      <trkpt lat="47.28725" lon="-2.04243">
        <ele>6</ele>
        <time>2019-11-03T16:39:38Z</time>
      </trkpt>
      <trkpt lat="47.28721" lon="-2.04248">
        <ele>6</ele>
        <time>2019-11-03T16:39:39Z</time>
      </trkpt>
      <trkpt lat="47.28713" lon="-2.04257">
        <ele>6</ele>
        <time>2019-11-03T16:39:41Z</time>
      </trkpt>
      <trkpt lat="47.28706" lon="-2.04259">
        <ele>6</ele>
        <time>2019-11-03T16:39:43Z</time>
      </trkpt>
      <trkpt lat="47.28699" lon="-2.04252">
        <ele>6</ele>
        <time>2019-11-03T16:39:44Z</time>
      </trkpt>
      <trkpt lat="47.28694" lon="-2.04252">
        <ele>6</ele>
        <time>2019-11-03T16:39:45Z</time>
      </trkpt>
      <trkpt lat="47.28691" lon="-2.04263">
        <ele>2</ele>
        <time>2019-11-03T16:39:47Z</time>
      </trkpt>
      <trkpt lat="47.2867" lon="-2.04298">
        <ele>2</ele>
        <time>2019-11-03T16:39:53Z</time>
      </trkpt>
      <trkpt lat="47.28645" lon="-2.04337">
        <ele>2</ele>
        <time>2019-11-03T16:40:01Z</time>
      </trkpt>
      <trkpt lat="47.28621" lon="-2.04374">
        <ele>2</ele>
        <time>2019-11-03T16:40:08Z</time>
      </trkpt>
      <trkpt lat="47.28589" lon="-2.04422">
        <ele>2</ele>
        <time>2019-11-03T16:40:17Z</time>
      </trkpt>
      <trkpt lat="47.28526" lon="-2.04514">
        <ele>1</ele>
        <time>2019-11-03T16:40:34Z</time>
      </trkpt>
      <trkpt lat="47.28484" lon="-2.04578">
        <ele>2</ele>
        <time>2019-11-03T16:40:47Z</time>
      </trkpt>
      <trkpt lat="47.28473" lon="-2.04596">
        <ele>2</ele>
        <time>2019-11-03T16:40:50Z</time>
      </trkpt>
      <trkpt lat="47.28453" lon="-2.04637">
        <ele>2</ele>
        <time>2019-11-03T16:40:57Z</time>
      </trkpt>
      <trkpt lat="47.28419" lon="-2.04713">
        <ele>1</ele>
        <time>2019-11-03T16:41:09Z</time>
      </trkpt>
      <trkpt lat="47.28363" lon="-2.04832">
        <ele>1</ele>
        <time>2019-11-03T16:41:29Z</time>
      </trkpt>
      <trkpt lat="47.28345" lon="-2.04871">
        <ele>1</ele>
        <time>2019-11-03T16:41:35Z</time>
      </trkpt>
      <trkpt lat="47.28315" lon="-2.04937">
        <ele>1</ele>
        <time>2019-11-03T16:41:46Z</time>
      </trkpt>
      <trkpt lat="47.28283" lon="-2.05006">
        <ele>1</ele>
        <time>2019-11-03T16:41:57Z</time>
      </trkpt>
      <trkpt lat="47.28247" lon="-2.05084">
        <ele>1</ele>
        <time>2019-11-03T16:42:10Z</time>
      </trkpt>
      <trkpt lat="47.28233" lon="-2.05114">
        <ele>1</ele>
        <time>2019-11-03T16:42:15Z</time>
      </trkpt>
      <trkpt lat="47.28223" lon="-2.05136">
        <ele>1</ele>
        <time>2019-11-03T16:42:19Z</time>
      </trkpt>
      <trkpt lat="47.28217" lon="-2.05146">
        <ele>3.8</ele>
        <time>2019-11-03T16:42:21Z</time>
      </trkpt>
      <trkpt lat="47.28215" lon="-2.05149">
        <ele>3.7</ele>
        <time>2019-11-03T16:42:21Z</time>
      </trkpt>
      <trkpt lat="47.28213" lon="-2.05153">
        <ele>3.7</ele>
        <time>2019-11-03T16:42:22Z</time>
      </trkpt>
      <trkpt lat="47.28211" lon="-2.05157">
        <ele>3.6</ele>
        <time>2019-11-03T16:42:22Z</time>
      </trkpt>
      <trkpt lat="47.28209" lon="-2.05166">
        <ele>3.5</ele>
        <time>2019-11-03T16:42:24Z</time>
      </trkpt>
      <trkpt lat="47.28204" lon="-2.05181">
        <ele>3.2</ele>
        <time>2019-11-03T16:42:26Z</time>
      </trkpt>
      <trkpt lat="47.28136" lon="-2.05316">
        <ele>1</ele>
        <time>2019-11-03T16:42:49Z</time>
      </trkpt>
      <trkpt lat="47.28096" lon="-2.05401">
        <ele>2</ele>
        <time>2019-11-03T16:43:03Z</time>
      </trkpt>
      <trkpt lat="47.28071" lon="-2.05455">
        <ele>2</ele>
        <time>2019-11-03T16:43:12Z</time>
      </trkpt>
      <trkpt lat="47.28026" lon="-2.05553">
        <ele>2</ele>
        <time>2019-11-03T16:43:28Z</time>
      </trkpt>
      <trkpt lat="47.28003" lon="-2.05602">
        <ele>2</ele>
        <time>2019-11-03T16:43:36Z</time>
      </trkpt>
      <trkpt lat="47.27987" lon="-2.05636">
        <ele>2</ele>
        <time>2019-11-03T16:43:42Z</time>
      </trkpt>
      <trkpt lat="47.27972" lon="-2.05673">
        <ele>2</ele>
        <time>2019-11-03T16:43:48Z</time>
      </trkpt>
      <trkpt lat="47.27964" lon="-2.05695">
        <ele>2</ele>
        <time>2019-11-03T16:43:51Z</time>
      </trkpt>
      <trkpt lat="47.27964" lon="-2.05713">
        <ele>4</ele>
      </trkpt>
      <trkpt lat="47.27936" lon="-2.05825">
        <ele>4</ele>
      </trkpt>
      <trkpt lat="47.27931" lon="-2.05922">
        <ele>4</ele>
      </trkpt>
      <trkpt lat="47.27909" lon="-2.0606">
        <ele>4.78125</ele>
      </trkpt>
      <trkpt lat="47.27879" lon="-2.06122">
        <ele>5.4609375</ele>
      </trkpt>
      <trkpt lat="47.27862" lon="-2.06159">
        <ele>6</ele>
        <time>2019-11-03T16:46:00Z</time>
      </trkpt>
      <trkpt lat="47.27864" lon="-2.06164">
        <ele>6</ele>
        <time>2019-11-03T16:46:01Z</time>
      </trkpt>
      <trkpt lat="47.27865" lon="-2.0617">
        <ele>6</ele>
        <time>2019-11-03T16:46:02Z</time>
      </trkpt>
      <trkpt lat="47.27864" lon="-2.06176">
        <ele>6</ele>
        <time>2019-11-03T16:46:03Z</time>
      </trkpt>
      <trkpt lat="47.27861" lon="-2.06181">
        <ele>6</ele>
        <time>2019-11-03T16:46:04Z</time>
      </trkpt>
      <trkpt lat="47.2786" lon="-2.06182">
        <ele>6</ele>
        <time>2019-11-03T16:46:04Z</time>
      </trkpt>
      <trkpt lat="47.27866" lon="-2.06184">
        <ele>6</ele>
        <time>2019-11-03T16:46:05Z</time>
      </trkpt>
      <trkpt lat="47.27877" lon="-2.06187">
        <ele>6</ele>
        <time>2019-11-03T16:46:07Z</time>
      </trkpt>
      <trkpt lat="47.27897" lon="-2.06192">
        <ele>6</ele>
        <time>2019-11-03T16:46:11Z</time>
      </trkpt>
      <trkpt lat="47.27956" lon="-2.06209">
        <ele>6</ele>
        <time>2019-11-03T16:46:23Z</time>
      </trkpt>
      <trkpt lat="47.27974" lon="-2.06219">
        <ele>6</ele>
        <time>2019-11-03T16:46:27Z</time>
      </trkpt>
      <trkpt lat="47.27987" lon="-2.06255">
        <ele>6</ele>
        <time>2019-11-03T16:46:33Z</time>
      </trkpt>
      <trkpt lat="47.27999" lon="-2.06286">
        <ele>4</ele>
        <time>2019-11-03T16:46:38Z</time>
      </trkpt>
      <trkpt lat="47.28029" lon="-2.06282">
        <ele>4</ele>
        <time>2019-11-03T16:46:44Z</time>
      </trkpt>
      <trkpt lat="47.2804" lon="-2.06278">
        <ele>4</ele>
        <time>2019-11-03T16:46:46Z</time>
      </trkpt>
      <trkpt lat="47.2805" lon="-2.06268">
        <ele>4</ele>
        <time>2019-11-03T16:46:49Z</time>
      </trkpt>
      <trkpt lat="47.28066" lon="-2.06266">
        <ele>4</ele>
        <time>2019-11-03T16:46:52Z</time>
      </trkpt>
      <trkpt lat="47.2807" lon="-2.06266">
        <ele>2</ele>
        <time>2019-11-03T16:46:53Z</time>
      </trkpt>
      <trkpt lat="47.28094" lon="-2.06282">
        <ele>2</ele>
        <time>2019-11-03T16:46:58Z</time>
      </trkpt>
      <trkpt lat="47.28112" lon="-2.06291">
        <ele>2</ele>
        <time>2019-11-03T16:47:02Z</time>
      </trkpt>
      <trkpt lat="47.28119" lon="-2.06298">
        <ele>2</ele>
        <time>2019-11-03T16:47:03Z</time>
      </trkpt>
      <trkpt lat="47.28124" lon="-2.06309">
        <ele>2</ele>
        <time>2019-11-03T16:47:05Z</time>
      </trkpt>
      <trkpt lat="47.28144" lon="-2.0636">
        <ele>2</ele>
        <time>2019-11-03T16:47:13Z</time>
      </trkpt>
      <trkpt lat="47.28143" lon="-2.06395">
        <ele>2</ele>
        <time>2019-11-03T16:47:18Z</time>
      </trkpt>
      <trkpt lat="47.28134" lon="-2.06569">
        <ele>4</ele>
        <time>2019-11-03T16:47:42Z</time>
      </trkpt>
      <trkpt lat="47.2811" lon="-2.06895">
        <ele>3</ele>
        <time>2019-11-03T16:48:26Z</time>
      </trkpt>
      <trkpt lat="47.28105" lon="-2.0702">
        <ele>4</ele>
        <time>2019-11-03T16:48:43Z</time>
      </trkpt>
      <trkpt lat="47.28101" lon="-2.07163">
        <ele>4</ele>
        <time>2019-11-03T16:49:03Z</time>
      </trkpt>
      <trkpt lat="47.28103" lon="-2.07243">
        <ele>3</ele>
        <time>2019-11-03T16:49:14Z</time>
      </trkpt>
      <trkpt lat="47.28104" lon="-2.07439">
        <ele>3</ele>
        <time>2019-11-03T16:49:40Z</time>
      </trkpt>
      <trkpt lat="47.2811" lon="-2.07579">
        <ele>2</ele>
        <time>2019-11-03T16:49:59Z</time>
      </trkpt>
      <trkpt lat="47.28112" lon="-2.07652">
        <ele>4</ele>
        <time>2019-11-03T16:50:09Z</time>
      </trkpt>
      <trkpt lat="47.28108" lon="-2.07691">
        <ele>4</ele>
        <time>2019-11-03T16:50:14Z</time>
      </trkpt>
      <trkpt lat="47.28095" lon="-2.0777">
        <ele>5</ele>
        <time>2019-11-03T16:50:26Z</time>
      </trkpt>
      <trkpt lat="47.28082" lon="-2.07842">
        <ele>5</ele>
        <time>2019-11-03T16:50:36Z</time>
      </trkpt>
      <trkpt lat="47.28075" lon="-2.07877">
        <ele>5</ele>
        <time>2019-11-03T16:50:41Z</time>
      </trkpt>
      <trkpt lat="47.28069" lon="-2.07945">
        <ele>2</ele>
        <time>2019-11-03T16:50:50Z</time>
      </trkpt>
      <trkpt lat="47.28062" lon="-2.08042">
        <ele>2</ele>
        <time>2019-11-03T16:51:03Z</time>
      </trkpt>
      <trkpt lat="47.28058" lon="-2.0809">
        <ele>2</ele>
        <time>2019-11-03T16:51:10Z</time>
      </trkpt>
      <trkpt lat="47.28056" lon="-2.08135">
        <ele>2</ele>
        <time>2019-11-03T16:51:16Z</time>
      </trkpt>
      <trkpt lat="47.28056" lon="-2.08177">
        <ele>2.4</ele>
        <time>2019-11-03T16:51:22Z</time>
      </trkpt>
      <trkpt lat="47.28049" lon="-2.08244">
        <ele>2.8</ele>
        <time>2019-11-03T16:51:31Z</time>
      </trkpt>
      <trkpt lat="47.28043" lon="-2.08291">
        <ele>2.5</ele>
        <time>2019-11-03T16:51:37Z</time>
      </trkpt>
      <trkpt lat="47.28016" lon="-2.08454">
        <ele>2</ele>
        <time>2019-11-03T16:52:00Z</time>
      </trkpt>
      <trkpt lat="47.27953" lon="-2.09063">
        <ele>3</ele>
        <time>2019-11-03T16:53:24Z</time>
      </trkpt>
      <trkpt lat="47.27921" lon="-2.09373">
        <ele>2</ele>
        <time>2019-11-03T16:54:07Z</time>
      </trkpt>
      <trkpt lat="47.27861" lon="-2.09875">
        <ele>2.5</ele>
        <time>2019-11-03T16:55:16Z</time>
      </trkpt>
      <trkpt lat="47.27851" lon="-2.09938">
        <ele>3.6</ele>
        <time>2019-11-03T16:55:25Z</time>
      </trkpt>
      <trkpt lat="47.27808" lon="-2.10131">
        <ele>1</ele>
        <time>2019-11-03T16:55:52Z</time>
      </trkpt>
      <trkpt lat="47.27778" lon="-2.10245">
        <ele>2</ele>
        <time>2019-11-03T16:56:09Z</time>
      </trkpt>
      <trkpt lat="47.27667" lon="-2.10571">
        <ele>2</ele>
        <time>2019-11-03T16:56:58Z</time>
      </trkpt>
      <trkpt lat="47.27605" lon="-2.10754">
        <ele>2</ele>
        <time>2019-11-03T16:57:26Z</time>
      </trkpt>
      <trkpt lat="47.27578" lon="-2.10848">
        <ele>2</ele>
        <time>2019-11-03T16:57:40Z</time>
      </trkpt>
      <trkpt lat="47.27557" lon="-2.10932">
        <ele>1</ele>
        <time>2019-11-03T16:57:52Z</time>
      </trkpt>
      <trkpt lat="47.27531" lon="-2.11083">
        <ele>1</ele>
        <time>2019-11-03T16:58:14Z</time>
      </trkpt>
      <trkpt lat="47.27505" lon="-2.11353">
        <ele>2.2</ele>
        <time>2019-11-03T16:58:51Z</time>
      </trkpt>
      <trkpt lat="47.27494" lon="-2.11478">
        <ele>1</ele>
        <time>2019-11-03T16:59:08Z</time>
      </trkpt>
      <trkpt lat="47.27501" lon="-2.11514">
        <ele>1</ele>
        <time>2019-11-03T16:59:13Z</time>
      </trkpt>
      <trkpt lat="47.27513" lon="-2.11545">
        <ele>1</ele>
        <time>2019-11-03T16:59:18Z</time>
      </trkpt>
      <trkpt lat="47.27524" lon="-2.1159">
        <ele>3</ele>
        <time>2019-11-03T16:59:24Z</time>
      </trkpt>
      <trkpt lat="47.27526" lon="-2.11634">
        <ele>3</ele>
        <time>2019-11-03T16:59:30Z</time>
      </trkpt>
      <trkpt lat="47.27514" lon="-2.11865">
        <ele>1</ele>
        <time>2019-11-03T17:00:02Z</time>
      </trkpt>
      <trkpt lat="47.27485" lon="-2.12489">
        <ele>2</ele>
        <time>2019-11-03T17:01:27Z</time>
      </trkpt>
      <trkpt lat="47.27487" lon="-2.1252">
        <ele>2</ele>
        <time>2019-11-03T17:01:31Z</time>
      </trkpt>
      <trkpt lat="47.27479" lon="-2.12626">
        <ele>1</ele>
        <time>2019-11-03T17:01:45Z</time>
      </trkpt>
      <trkpt lat="47.27481" lon="-2.12662">
        <ele>1</ele>
        <time>2019-11-03T17:01:50Z</time>
      </trkpt>
      <trkpt lat="47.27485" lon="-2.1269">
        <ele>1</ele>
        <time>2019-11-03T17:01:54Z</time>
      </trkpt>
      <trkpt lat="47.2748" lon="-2.12733">
        <ele>1</ele>
        <time>2019-11-03T17:02:00Z</time>
      </trkpt>
      <trkpt lat="47.27476" lon="-2.128">
        <ele>-1</ele>
        <time>2019-11-03T17:02:09Z</time>
      </trkpt>
      <trkpt lat="47.2747" lon="-2.12851">
        <ele>-1</ele>
        <time>2019-11-03T17:02:16Z</time>
      </trkpt>
      <trkpt lat="47.27465" lon="-2.12883">
        <ele>-1</ele>
        <time>2019-11-03T17:02:21Z</time>
      </trkpt>
      <trkpt lat="47.27459" lon="-2.12906">
        <ele>-1</ele>
        <time>2019-11-03T17:02:24Z</time>
      </trkpt>
      <trkpt lat="47.27446" lon="-2.12933">
        <ele>-1</ele>
        <time>2019-11-03T17:02:29Z</time>
      </trkpt>
      <trkpt lat="47.27438" lon="-2.1298">
        <ele>-1</ele>
        <time>2019-11-03T17:02:35Z</time>
      </trkpt>
      <trkpt lat="47.27436" lon="-2.13038">
        <ele>3.4</ele>
        <time>2019-11-03T17:02:43Z</time>
      </trkpt>
      <trkpt lat="47.27439" lon="-2.13095">
        <ele>3.6</ele>
        <time>2019-11-03T17:02:51Z</time>
      </trkpt>
      <trkpt lat="47.27438" lon="-2.1312">
        <ele>3</ele>
        <time>2019-11-03T17:02:54Z</time>
      </trkpt>
      <trkpt lat="47.27437" lon="-2.13148">
        <ele>2</ele>
        <time>2019-11-03T17:02:58Z</time>
      </trkpt>
      <trkpt lat="47.27431" lon="-2.13203">
        <ele>2</ele>
        <time>2019-11-03T17:03:06Z</time>
      </trkpt>
      <trkpt lat="47.27429" lon="-2.13222">
        <ele>2</ele>
        <time>2019-11-03T17:03:08Z</time>
      </trkpt>
      <trkpt lat="47.27426" lon="-2.13245">
        <ele>2</ele>
        <time>2019-11-03T17:03:12Z</time>
      </trkpt>
      <trkpt lat="47.27423" lon="-2.13264">
        <ele>2</ele>
        <time>2019-11-03T17:03:14Z</time>
      </trkpt>
      <trkpt lat="47.27418" lon="-2.1328">
        <ele>2</ele>
        <time>2019-11-03T17:03:17Z</time>
      </trkpt>
      <trkpt lat="47.27412" lon="-2.13298">
        <ele>2</ele>
        <time>2019-11-03T17:03:19Z</time>
      </trkpt>
      <trkpt lat="47.27398" lon="-2.13333">
        <ele>2</ele>
        <time>2019-11-03T17:03:25Z</time>
      </trkpt>
      <trkpt lat="47.27393" lon="-2.13357">
        <ele>2</ele>
        <time>2019-11-03T17:03:28Z</time>
      </trkpt>
      <trkpt lat="47.27382" lon="-2.13401">
        <ele>1</ele>
        <time>2019-11-03T17:03:35Z</time>
      </trkpt>
      <trkpt lat="47.27367" lon="-2.13448">
        <ele>1</ele>
        <time>2019-11-03T17:03:42Z</time>
      </trkpt>
      <trkpt lat="47.27362" lon="-2.13458">
        <ele>1</ele>
        <time>2019-11-03T17:03:43Z</time>
      </trkpt>
      <trkpt lat="47.27338" lon="-2.13445">
        <ele>1</ele>
        <time>2019-11-03T17:03:48Z</time>
      </trkpt>
      <trkpt lat="47.27325" lon="-2.13444">
        <ele>1</ele>
        <time>2019-11-03T17:03:51Z</time>
      </trkpt>
      <trkpt lat="47.27305" lon="-2.13493">
        <ele>1</ele>
        <time>2019-11-03T17:03:59Z</time>
      </trkpt>
      <trkpt lat="47.27283" lon="-2.13539">
        <ele>1</ele>
        <time>2019-11-03T17:04:07Z</time>
      </trkpt>
      <trkpt lat="47.27253" lon="-2.13601">
        <ele>3</ele>
        <time>2019-11-03T17:04:17Z</time>
      </trkpt>
      <trkpt lat="47.27248" lon="-2.13612">
        <ele>3</ele>
        <time>2019-11-03T17:04:19Z</time>
      </trkpt>
      <trkpt lat="47.27216" lon="-2.13672">
        <ele>3</ele>
        <time>2019-11-03T17:04:29Z</time>
      </trkpt>
      <trkpt lat="47.27191" lon="-2.13719">
        <ele>2</ele>
        <time>2019-11-03T17:04:37Z</time>
      </trkpt>
      <trkpt lat="47.27129" lon="-2.1387">
        <ele>2</ele>
        <time>2019-11-03T17:05:01Z</time>
      </trkpt>
      <trkpt lat="47.27078" lon="-2.13992">
        <ele>2</ele>
        <time>2019-11-03T17:05:21Z</time>
      </trkpt>
      <trkpt lat="47.27064" lon="-2.14031">
        <ele>2</ele>
        <time>2019-11-03T17:05:27Z</time>
      </trkpt>
      <trkpt lat="47.27059" lon="-2.14038">
        <ele>2</ele>
        <time>2019-11-03T17:05:28Z</time>
      </trkpt>
      <trkpt lat="47.27053" lon="-2.14044">
        <ele>2</ele>
        <time>2019-11-03T17:05:29Z</time>
      </trkpt>
      <trkpt lat="47.27048" lon="-2.14081">
        <ele>2</ele>
        <time>2019-11-03T17:05:35Z</time>
      </trkpt>
      <trkpt lat="47.27042" lon="-2.14115">
        <ele>2</ele>
        <time>2019-11-03T17:05:39Z</time>
      </trkpt>
      <trkpt lat="47.27041" lon="-2.14137">
        <ele>2</ele>
        <time>2019-11-03T17:05:42Z</time>
      </trkpt>
      <trkpt lat="47.27043" lon="-2.14149">
        <ele>2</ele>
        <time>2019-11-03T17:05:44Z</time>
      </trkpt>
      <trkpt lat="47.27049" lon="-2.14157">
        <ele>2</ele>
        <time>2019-11-03T17:05:46Z</time>
      </trkpt>
      <trkpt lat="47.27053" lon="-2.1416">
        <ele>3</ele>
        <time>2019-11-03T17:05:47Z</time>
      </trkpt>
      <trkpt lat="47.27052" lon="-2.14173">
        <ele>3</ele>
        <time>2019-11-03T17:05:48Z</time>
      </trkpt>
      <trkpt lat="47.27045" lon="-2.14191">
        <ele>3</ele>
        <time>2019-11-03T17:05:51Z</time>
      </trkpt>
      <trkpt lat="47.2704" lon="-2.14211">
        <ele>3</ele>
        <time>2019-11-03T17:05:54Z</time>
      </trkpt>
      <trkpt lat="47.27039" lon="-2.14229">
        <ele>3</ele>
        <time>2019-11-03T17:05:57Z</time>
      </trkpt>
      <trkpt lat="47.27048" lon="-2.14263">
        <ele>3</ele>
        <time>2019-11-03T17:06:01Z</time>
      </trkpt>
      <trkpt lat="47.27054" lon="-2.14274">
        <ele>3</ele>
        <time>2019-11-03T17:06:03Z</time>
      </trkpt>
      <trkpt lat="47.27058" lon="-2.14283">
        <ele>3</ele>
        <time>2019-11-03T17:06:05Z</time>
      </trkpt>
      <trkpt lat="47.27066" lon="-2.14299">
        <ele>2</ele>
        <time>2019-11-03T17:06:08Z</time>
      </trkpt>
      <trkpt lat="47.27066" lon="-2.14305">
        <ele>2</ele>
        <time>2019-11-03T17:06:08Z</time>
      </trkpt>
      <trkpt lat="47.27065" lon="-2.14314">
        <ele>2</ele>
        <time>2019-11-03T17:06:09Z</time>
      </trkpt>
      <trkpt lat="47.27059" lon="-2.14349">
        <ele>2</ele>
        <time>2019-11-03T17:06:15Z</time>
      </trkpt>
      <trkpt lat="47.27056" lon="-2.14367">
        <ele>2</ele>
        <time>2019-11-03T17:06:17Z</time>
      </trkpt>
      <trkpt lat="47.27037" lon="-2.14417">
        <ele>1</ele>
        <time>2019-11-03T17:06:25Z</time>
      </trkpt>
      <trkpt lat="47.27027" lon="-2.14441">
        <ele>1</ele>
        <time>2019-11-03T17:06:29Z</time>
      </trkpt>
      <trkpt lat="47.27013" lon="-2.14475">
        <ele>1</ele>
        <time>2019-11-03T17:06:34Z</time>
      </trkpt>
      <trkpt lat="47.27002" lon="-2.14537">
        <ele>1</ele>
        <time>2019-11-03T17:06:43Z</time>
      </trkpt>
      <trkpt lat="47.26993" lon="-2.14573">
        <ele>5</ele>
        <time>2019-11-03T17:06:48Z</time>
      </trkpt>
      <trkpt lat="47.2699" lon="-2.14601">
        <ele>5</ele>
        <time>2019-11-03T17:06:52Z</time>
      </trkpt>
      <trkpt lat="47.26982" lon="-2.14641">
        <ele>5</ele>
        <time>2019-11-03T17:06:58Z</time>
      </trkpt>
      <trkpt lat="47.26971" lon="-2.14685">
        <ele>6</ele>
        <time>2019-11-03T17:07:04Z</time>
      </trkpt>
      <trkpt lat="47.26953" lon="-2.14725">
        <ele>6</ele>
        <time>2019-11-03T17:07:10Z</time>
      </trkpt>
      <trkpt lat="47.26948" lon="-2.14741">
        <ele>6</ele>
        <time>2019-11-03T17:07:13Z</time>
      </trkpt>
      <trkpt lat="47.26941" lon="-2.14775">
        <ele>6</ele>
        <time>2019-11-03T17:07:18Z</time>
      </trkpt>
      <trkpt lat="47.26936" lon="-2.14816">
        <ele>4</ele>
        <time>2019-11-03T17:07:23Z</time>
      </trkpt>
      <trkpt lat="47.26938" lon="-2.14841">
        <ele>4</ele>
        <time>2019-11-03T17:07:27Z</time>
      </trkpt>
      <trkpt lat="47.26939" lon="-2.14874">
        <ele>4</ele>
        <time>2019-11-03T17:07:31Z</time>
      </trkpt>
      <trkpt lat="47.26931" lon="-2.14916">
        <ele>4</ele>
        <time>2019-11-03T17:07:37Z</time>
      </trkpt>
      <trkpt lat="47.26925" lon="-2.14963">
        <ele>4</ele>
        <time>2019-11-03T17:07:44Z</time>
      </trkpt>
      <trkpt lat="47.26923" lon="-2.14972">
        <ele>4</ele>
        <time>2019-11-03T17:07:45Z</time>
      </trkpt>
      <trkpt lat="47.26921" lon="-2.14978">
        <ele>4</ele>
        <time>2019-11-03T17:07:46Z</time>
      </trkpt>
      <trkpt lat="47.26918" lon="-2.14982">
        <ele>4</ele>
        <time>2019-11-03T17:07:47Z</time>
      </trkpt>
      <trkpt lat="47.26913" lon="-2.14985">
        <ele>4</ele>
        <time>2019-11-03T17:07:48Z</time>
      </trkpt>
      <trkpt lat="47.26905" lon="-2.14988">
        <ele>4</ele>
        <time>2019-11-03T17:07:49Z</time>
      </trkpt>
      <trkpt lat="47.2689" lon="-2.14992">
        <ele>4</ele>
        <time>2019-11-03T17:07:52Z</time>
      </trkpt>
      <trkpt lat="47.26883" lon="-2.14995">
        <ele>4</ele>
        <time>2019-11-03T17:07:54Z</time>
      </trkpt>
      <trkpt lat="47.26877" lon="-2.14999">
        <ele>4</ele>
        <time>2019-11-03T17:07:55Z</time>
      </trkpt>
      <trkpt lat="47.26863" lon="-2.15006">
        <ele>4</ele>
        <time>2019-11-03T17:07:58Z</time>
      </trkpt>
      <trkpt lat="47.26858" lon="-2.15011">
        <ele>4</ele>
        <time>2019-11-03T17:07:59Z</time>
      </trkpt>
      <trkpt lat="47.26853" lon="-2.15016">
        <ele>3</ele>
        <time>2019-11-03T17:08:01Z</time>
      </trkpt>
      <trkpt lat="47.26862" lon="-2.15021">
        <ele>3</ele>
        <time>2019-11-03T17:08:03Z</time>
      </trkpt>
      <trkpt lat="47.26896" lon="-2.15018">
        <ele>3</ele>
        <time>2019-11-03T17:08:09Z</time>
      </trkpt>
      <trkpt lat="47.26918" lon="-2.15017">
        <ele>3</ele>
        <time>2019-11-03T17:08:14Z</time>
      </trkpt>
      <trkpt lat="47.26926" lon="-2.1502">
        <ele>3</ele>
        <time>2019-11-03T17:08:15Z</time>
      </trkpt>
      <trkpt lat="47.26933" lon="-2.15024">
        <ele>3</ele>
        <time>2019-11-03T17:08:17Z</time>
      </trkpt>
      <trkpt lat="47.2694" lon="-2.15033">
        <ele>3</ele>
        <time>2019-11-03T17:08:19Z</time>
      </trkpt>
      <trkpt lat="47.26945" lon="-2.1504">
        <ele>2</ele>
        <time>2019-11-03T17:08:20Z</time>
      </trkpt>
      <trkpt lat="47.26949" lon="-2.15049">
        <ele>2</ele>
        <time>2019-11-03T17:08:22Z</time>
      </trkpt>
      <trkpt lat="47.26952" lon="-2.15058">
        <ele>2</ele>
        <time>2019-11-03T17:08:23Z</time>
      </trkpt>
      <trkpt lat="47.26953" lon="-2.15068">
        <ele>2</ele>
        <time>2019-11-03T17:08:24Z</time>
      </trkpt>
      <trkpt lat="47.26959" lon="-2.15159">
        <ele>3</ele>
        <time>2019-11-03T17:08:37Z</time>
      </trkpt>
      <trkpt lat="47.26962" lon="-2.1517">
        <ele>3</ele>
        <time>2019-11-03T17:08:38Z</time>
      </trkpt>
      <trkpt lat="47.26965" lon="-2.15178">
        <ele>3</ele>
        <time>2019-11-03T17:08:40Z</time>
      </trkpt>
      <trkpt lat="47.26979" lon="-2.15205">
        <ele>3</ele>
        <time>2019-11-03T17:08:44Z</time>
      </trkpt>
      <trkpt lat="47.26981" lon="-2.15212">
        <ele>3</ele>
        <time>2019-11-03T17:08:45Z</time>
      </trkpt>
      <trkpt lat="47.26982" lon="-2.15223">
        <ele>3</ele>
        <time>2019-11-03T17:08:47Z</time>
      </trkpt>
      <trkpt lat="47.26983" lon="-2.1527">
        <ele>2</ele>
        <time>2019-11-03T17:08:53Z</time>
      </trkpt>
      <trkpt lat="47.26982" lon="-2.15299">
        <ele>2</ele>
        <time>2019-11-03T17:08:57Z</time>
      </trkpt>
      <trkpt lat="47.26979" lon="-2.15325">
        <ele>2</ele>
        <time>2019-11-03T17:09:01Z</time>
      </trkpt>
      <trkpt lat="47.26979" lon="-2.15343">
        <ele>2</ele>
        <time>2019-11-03T17:09:03Z</time>
      </trkpt>
      <trkpt lat="47.26978" lon="-2.15375">
        <ele>3</ele>
        <time>2019-11-03T17:09:08Z</time>
      </trkpt>
      <trkpt lat="47.26978" lon="-2.15411">
        <ele>3</ele>
        <time>2019-11-03T17:09:12Z</time>
      </trkpt>
      <trkpt lat="47.26978" lon="-2.15429">
        <ele>3</ele>
        <time>2019-11-03T17:09:15Z</time>
      </trkpt>
      <trkpt lat="47.26976" lon="-2.15441">
        <ele>3</ele>
        <time>2019-11-03T17:09:17Z</time>
      </trkpt>
      <trkpt lat="47.26974" lon="-2.15449">
        <ele>3</ele>
        <time>2019-11-03T17:09:18Z</time>
      </trkpt>
      <trkpt lat="47.26966" lon="-2.15537">
        <ele>2</ele>
        <time>2019-11-03T17:09:30Z</time>
      </trkpt>
      <trkpt lat="47.26953" lon="-2.15678">
        <ele>2</ele>
        <time>2019-11-03T17:09:49Z</time>
      </trkpt>
      <trkpt lat="47.26939" lon="-2.15837">
        <ele>2</ele>
        <time>2019-11-03T17:10:11Z</time>
      </trkpt>
      <trkpt lat="47.26937" lon="-2.15848">
        <ele>2</ele>
        <time>2019-11-03T17:10:13Z</time>
      </trkpt>
      <trkpt lat="47.26936" lon="-2.15853">
        <ele>2</ele>
        <time>2019-11-03T17:10:13Z</time>
      </trkpt>
      <trkpt lat="47.26935" lon="-2.15857">
        <ele>2</ele>
        <time>2019-11-03T17:10:14Z</time>
      </trkpt>
      <trkpt lat="47.26926" lon="-2.15879">
        <ele>2</ele>
        <time>2019-11-03T17:10:17Z</time>
      </trkpt>
      <trkpt lat="47.26923" lon="-2.15894">
        <ele>2</ele>
        <time>2019-11-03T17:10:19Z</time>
      </trkpt>
      <trkpt lat="47.26919" lon="-2.15902">
        <ele>2</ele>
        <time>2019-11-03T17:10:21Z</time>
      </trkpt>
      <trkpt lat="47.26918" lon="-2.15906">
        <ele>2</ele>
        <time>2019-11-03T17:10:21Z</time>
      </trkpt>
      <trkpt lat="47.2691" lon="-2.15996">
        <ele>5</ele>
        <time>2019-11-03T17:10:34Z</time>
      </trkpt>
      <trkpt lat="47.26909" lon="-2.16003">
        <ele>5</ele>
        <time>2019-11-03T17:10:35Z</time>
      </trkpt>
      <trkpt lat="47.26894" lon="-2.16049">
        <ele>5</ele>
        <time>2019-11-03T17:10:42Z</time>
      </trkpt>
      <trkpt lat="47.26871" lon="-2.16115">
        <ele>4</ele>
        <time>2019-11-03T17:10:52Z</time>
      </trkpt>
      <trkpt lat="47.26869" lon="-2.16121">
        <ele>4</ele>
        <time>2019-11-03T17:10:53Z</time>
      </trkpt>
      <trkpt lat="47.2686" lon="-2.1613">
        <ele>4</ele>
        <time>2019-11-03T17:10:55Z</time>
      </trkpt>
      <trkpt lat="47.26856" lon="-2.16129">
        <ele>4</ele>
        <time>2019-11-03T17:10:56Z</time>
      </trkpt>
      <trkpt lat="47.26848" lon="-2.16119">
        <ele>4</ele>
        <time>2019-11-03T17:10:58Z</time>
      </trkpt>
      <trkpt lat="47.26828" lon="-2.16116">
        <ele>3</ele>
        <time>2019-11-03T17:11:02Z</time>
      </trkpt>
      <trkpt lat="47.2681" lon="-2.16109">
        <ele>3</ele>
        <time>2019-11-03T17:11:05Z</time>
      </trkpt>
      <trkpt lat="47.26788" lon="-2.16103">
        <ele>3</ele>
        <time>2019-11-03T17:11:10Z</time>
      </trkpt>
      <trkpt lat="47.2678" lon="-2.16103">
        <ele>3</ele>
        <time>2019-11-03T17:11:12Z</time>
      </trkpt>
      <trkpt lat="47.26778" lon="-2.16105">
        <ele>3</ele>
        <time>2019-11-03T17:11:12Z</time>
      </trkpt>
      <trkpt lat="47.26774" lon="-2.16105">
        <ele>3</ele>
        <time>2019-11-03T17:11:13Z</time>
      </trkpt>
      <trkpt lat="47.26722" lon="-2.16097">
        <ele>6</ele>
        <time>2019-11-03T17:11:23Z</time>
      </trkpt>
      <trkpt lat="47.26719" lon="-2.16113">
        <ele>6</ele>
        <time>2019-11-03T17:11:26Z</time>
      </trkpt>
      <trkpt lat="47.2671" lon="-2.16175">
        <ele>6</ele>
        <time>2019-11-03T17:11:34Z</time>
      </trkpt>
      <trkpt lat="47.26708" lon="-2.16186">
        <ele>6</ele>
        <time>2019-11-03T17:11:36Z</time>
      </trkpt>
      <trkpt lat="47.26706" lon="-2.16212">
        <ele>4</ele>
        <time>2019-11-03T17:11:39Z</time>
      </trkpt>
      <trkpt lat="47.26707" lon="-2.16262">
        <ele>4</ele>
        <time>2019-11-03T17:11:46Z</time>
      </trkpt>
      <trkpt lat="47.26794" lon="-2.16248">
        <ele>5</ele>
        <time>2019-11-03T17:12:04Z</time>
      </trkpt>
      <trkpt lat="47.26794" lon="-2.16318">
        <ele>5</ele>
        <time>2019-11-03T17:12:13Z</time>
      </trkpt>
      <trkpt lat="47.26798" lon="-2.1638">
        <ele>4</ele>
        <time>2019-11-03T17:12:22Z</time>
      </trkpt>
      <trkpt lat="47.2681" lon="-2.16539">
        <ele>2</ele>
        <time>2019-11-03T17:12:44Z</time>
      </trkpt>
      <trkpt lat="47.26816" lon="-2.16621">
        <ele>3</ele>
        <time>2019-11-03T17:12:55Z</time>
      </trkpt>
      <trkpt lat="47.26822" lon="-2.16703">
        <ele>3</ele>
        <time>2019-11-03T17:13:06Z</time>
      </trkpt>
      <trkpt lat="47.26823" lon="-2.16717">
        <ele>3</ele>
        <time>2019-11-03T17:13:08Z</time>
      </trkpt>
      <trkpt lat="47.26825" lon="-2.16728">
        <ele>3</ele>
        <time>2019-11-03T17:13:10Z</time>
      </trkpt>
      <trkpt lat="47.26828" lon="-2.16783">
        <ele>4</ele>
        <time>2019-11-03T17:13:17Z</time>
      </trkpt>
      <trkpt lat="47.2683" lon="-2.16828">
        <ele>4</ele>
        <time>2019-11-03T17:13:23Z</time>
      </trkpt>
      <trkpt lat="47.2682" lon="-2.1683">
        <ele>4</ele>
        <time>2019-11-03T17:13:25Z</time>
      </trkpt>
      <trkpt lat="47.26816" lon="-2.16831">
        <ele>4</ele>
        <time>2019-11-03T17:13:26Z</time>
      </trkpt>
      <trkpt lat="47.26812" lon="-2.16832">
        <ele>4</ele>
        <time>2019-11-03T17:13:27Z</time>
      </trkpt>
      <trkpt lat="47.2681" lon="-2.16833">
        <ele>4</ele>
        <time>2019-11-03T17:13:27Z</time>
      </trkpt>
      <trkpt lat="47.26809" lon="-2.16843">
        <ele>4.72</ele>
      </trkpt>
      <trkpt lat="47.26805" lon="-2.16849">
        <ele>4.69</ele>
      </trkpt>
      <trkpt lat="47.26805" lon="-2.16849">
        <ele>4.69</ele>
      </trkpt>
      <trkpt lat="47.26793" lon="-2.16858">
        <ele>5</ele>
      </trkpt>
      <trkpt lat="47.26789" lon="-2.16869">
        <ele>4.91</ele>
      </trkpt>
      <trkpt lat="47.2678" lon="-2.16886">
        <ele>5.03</ele>
      </trkpt>
      <trkpt lat="47.26772" lon="-2.16897">
        <ele>5.4</ele>
      </trkpt>
      <trkpt lat="47.2676" lon="-2.16912">
        <ele>6.11</ele>
      </trkpt>
      <trkpt lat="47.26743" lon="-2.16929">
        <ele>6.73</ele>
      </trkpt>
      <trkpt lat="47.26733" lon="-2.16936">
        <ele>6.79</ele>
      </trkpt>
      <trkpt lat="47.26719" lon="-2.1694">
        <ele>7.01</ele>
      </trkpt>
      <trkpt lat="47.26701" lon="-2.16938">
        <ele>7.54</ele>
      </trkpt>
      <trkpt lat="47.26647" lon="-2.16929">
        <ele>8.54</ele>
      </trkpt>
      <trkpt lat="47.26585" lon="-2.16918">
        <ele>8.02</ele>
      </trkpt>
      <trkpt lat="47.26574" lon="-2.16916">
        <ele>7.87</ele>
      </trkpt>
      <trkpt lat="47.26492" lon="-2.16901">
        <ele>6.83</ele>
      </trkpt>
      <trkpt lat="47.26384" lon="-2.1688">
        <ele>7</ele>
      </trkpt>
      <trkpt lat="47.26371" lon="-2.1688">
        <ele>7</ele>
      </trkpt>
      <trkpt lat="47.26326" lon="-2.16877">
        <ele>7.25</ele>
      </trkpt>
      <trkpt lat="47.26291" lon="-2.16875">
        <ele>8.54</ele>
      </trkpt>
      <trkpt lat="47.26279" lon="-2.16875">
        <ele>8.98</ele>
      </trkpt>
      <trkpt lat="47.26257" lon="-2.16874">
        <ele>9.76</ele>
      </trkpt>
      <trkpt lat="47.2624" lon="-2.16874">
        <ele>9.81</ele>
      </trkpt>
      <trkpt lat="47.26229" lon="-2.16873">
        <ele>9.55</ele>
      </trkpt>
      <trkpt lat="47.26217" lon="-2.16874">
        <ele>9.25</ele>
      </trkpt>
      <trkpt lat="47.26213" lon="-2.16866">
        <ele>9.46</ele>
      </trkpt>
      <trkpt lat="47.26154" lon="-2.16889">
        <ele>7.85</ele>
      </trkpt>
      <trkpt lat="47.2614" lon="-2.16829">
        <ele>9</ele>
      </trkpt>
      <trkpt lat="47.26136" lon="-2.16813">
        <ele>9</ele>
      </trkpt>
      <trkpt lat="47.26131" lon="-2.16816">
        <ele>9</ele>
      </trkpt>
      <trkpt lat="47.26074" lon="-2.16843">
        <ele>9.01</ele>
      </trkpt>
      <trkpt lat="47.26066" lon="-2.16847">
        <ele>9.03</ele>
      </trkpt>
      <trkpt lat="47.25997" lon="-2.16882">
        <ele>9.54</ele>
      </trkpt>
      <trkpt lat="47.25939" lon="-2.16912">
        <ele>9.22</ele>
      </trkpt>
      <trkpt lat="47.25926" lon="-2.16928">
        <ele>8.84</ele>
      </trkpt>
      <trkpt lat="47.25917" lon="-2.16945">
        <ele>8.32</ele>
      </trkpt>
      <trkpt lat="47.25904" lon="-2.1696">
        <ele>7.96</ele>
      </trkpt>
      <trkpt lat="47.25897" lon="-2.16967">
        <ele>7.78</ele>
      </trkpt>
      <trkpt lat="47.25882" lon="-2.16987">
        <ele>7.32</ele>
      </trkpt>
      <trkpt lat="47.25875" lon="-2.16992">
        <ele>7.18</ele>
      </trkpt>
      <trkpt lat="47.25744" lon="-2.16983">
        <ele>5.71</ele>
      </trkpt>
      <trkpt lat="47.25708" lon="-2.1698">
        <ele>6.36</ele>
      </trkpt>
      <trkpt lat="47.25659" lon="-2.16976">
        <ele>6.88</ele>
      </trkpt>
      <trkpt lat="47.25626" lon="-2.16973">
        <ele>6.34</ele>
      </trkpt>
      <trkpt lat="47.25619" lon="-2.16975">
        <ele>6.21</ele>
      </trkpt>
      <trkpt lat="47.25614" lon="-2.16986">
        <ele>5.96</ele>
      </trkpt>
      <trkpt lat="47.25608" lon="-2.16987">
        <ele>5.81</ele>
      </trkpt>
      <trkpt lat="47.25602" lon="-2.16982">
        <ele>5.8</ele>
      </trkpt>
      <trkpt lat="47.256" lon="-2.16972">
        <ele>5.94</ele>
      </trkpt>
      <trkpt lat="47.25528" lon="-2.16965">
        <ele>6.23</ele>
      </trkpt>
      <trkpt lat="47.25428" lon="-2.16954">
        <ele>6.08</ele>
      </trkpt>
      <trkpt lat="47.25429" lon="-2.16895">
        <ele>5.76953125</ele>
      </trkpt>
      <trkpt lat="47.25431" lon="-2.16807">
        <ele>5.625</ele>
      </trkpt>
      <trkpt lat="47.25434" lon="-2.16714">
        <ele>6</ele>
      </trkpt>
      <trkpt lat="47.25437" lon="-2.16611">
        <ele>7</ele>
      </trkpt>
      <trkpt lat="47.25395" lon="-2.16604">
        <ele>7</ele>
      </trkpt>
      <trkpt lat="47.25356" lon="-2.16598">
        <ele>7</ele>
      </trkpt>
      <trkpt lat="47.25355" lon="-2.16603">
        <ele>7</ele>
      </trkpt>
      <trkpt lat="47.25346" lon="-2.16597">
        <ele>7</ele>
      </trkpt>
      <trkpt lat="47.25224" lon="-2.16578">
        <ele>7.03515625</ele>
      </trkpt>
      <trkpt lat="47.25254" lon="-2.16939">
        <ele>4.72265625</ele>
      </trkpt>
      <trkpt lat="47.2514" lon="-2.16922">
        <ele>5</ele>
      </trkpt>
      <trkpt lat="47.25083" lon="-2.16916">
        <ele>5</ele>
      </trkpt>
      <trkpt lat="47.24963" lon="-2.1691">
        <ele>4.35546875</ele>
      </trkpt>
      <trkpt lat="47.2493" lon="-2.16905">
        <ele>4.33203125</ele>
      </trkpt>
      <trkpt lat="47.24747" lon="-2.16958">
        <ele>5.109375</ele>
      </trkpt>
      <trkpt lat="47.24668" lon="-2.16957">
        <ele>5.45703125</ele>
      </trkpt>
      <trkpt lat="47.24645" lon="-2.16961">
        <ele>5.5</ele>
      </trkpt>
      <trkpt lat="47.24617" lon="-2.16959">
        <ele>3.87</ele>
      </trkpt>
      <trkpt lat="47.24564" lon="-2.16958">
        <ele>4.5</ele>
      </trkpt>
      <trkpt lat="47.24553" lon="-2.16958">
        <ele>4.52</ele>
      </trkpt>
      <trkpt lat="47.24501" lon="-2.16955">
        <ele>4.61</ele>
      </trkpt>
      <trkpt lat="47.24494" lon="-2.16956">
        <ele>4.76</ele>
      </trkpt>
      <trkpt lat="47.24454" lon="-2.16977">
        <ele>5.58</ele>
      </trkpt>
      <trkpt lat="47.24449" lon="-2.1698">
        <ele>5.74</ele>
      </trkpt>
      <trkpt lat="47.24438" lon="-2.16985">
        <ele>6.11</ele>
      </trkpt>
      <trkpt lat="47.24427" lon="-2.16991">
        <ele>6.55</ele>
      </trkpt>
      <trkpt lat="47.24422" lon="-2.1699">
        <ele>6.77</ele>
      </trkpt>
      <trkpt lat="47.24421" lon="-2.17003">
        <ele>6.67</ele>
      </trkpt>
      <trkpt lat="47.24418" lon="-2.17019">
        <ele>6.06</ele>
      </trkpt>
      <trkpt lat="47.24415" lon="-2.1703">
        <ele>5.57</ele>
      </trkpt>
      <trkpt lat="47.24413" lon="-2.17037">
        <ele>5.21</ele>
      </trkpt>
      <trkpt lat="47.24379" lon="-2.17044">
        <ele>4.88</ele>
      </trkpt>
      <trkpt lat="47.24322" lon="-2.17052">
        <ele>4.19</ele>
      </trkpt>
      <trkpt lat="47.24256" lon="-2.17061">
        <ele>3.35</ele>
      </trkpt>
      <trkpt lat="47.24211" lon="-2.17065">
        <ele>3.21</ele>
      </trkpt>
      <trkpt lat="47.2418" lon="-2.17069">
        <ele>3.04</ele>
      </trkpt>
      <trkpt lat="47.24107" lon="-2.17077">
        <ele>2.39</ele>
      </trkpt>
      <trkpt lat="47.24098" lon="-2.17077">
        <ele>2.42</ele>
      </trkpt>
      <trkpt lat="47.2408" lon="-2.17082">
        <ele>2.24</ele>
      </trkpt>
      <trkpt lat="47.23985" lon="-2.17113">
        <ele>3.68</ele>
      </trkpt>
      <trkpt lat="47.23948" lon="-2.17131">
        <ele>3.75</ele>
      </trkpt>
      <trkpt lat="47.23943" lon="-2.17115">
        <ele>4.72</ele>
      </trkpt>
      <trkpt lat="47.23939" lon="-2.17099">
        <ele>5.67</ele>
      </trkpt>
      <trkpt lat="47.23936" lon="-2.17087">
        <ele>6.37</ele>
      </trkpt>
      <trkpt lat="47.23931" lon="-2.17068">
        <ele>6.69</ele>
      </trkpt>
      <trkpt lat="47.23927" lon="-2.17054">
        <ele>6.79</ele>
      </trkpt>
      <trkpt lat="47.23912" lon="-2.16999">
        <ele>6.97</ele>
      </trkpt>
      <trkpt lat="47.23904" lon="-2.16964">
        <ele>6.2</ele>
      </trkpt>
      <trkpt lat="47.239" lon="-2.16939">
        <ele>5.68</ele>
      </trkpt>
      <trkpt lat="47.239" lon="-2.16928">
        <ele>5.44</ele>
      </trkpt>
      <trkpt lat="47.23892" lon="-2.16928">
        <ele>5.53</ele>
      </trkpt>
      <trkpt lat="47.23878" lon="-2.16925">
        <ele>5.61</ele>
      </trkpt>
      <trkpt lat="47.23871" lon="-2.16927">
        <ele>5.72</ele>
      </trkpt>
      <trkpt lat="47.23863" lon="-2.16934">
        <ele>5.93</ele>
      </trkpt>
      <trkpt lat="47.23858" lon="-2.16943">
        <ele>6.11</ele>
      </trkpt>
      <trkpt lat="47.23854" lon="-2.16951">
        <ele>6.27</ele>
      </trkpt>
      <trkpt lat="47.23846" lon="-2.16966">
        <ele>6.53</ele>
      </trkpt>
      <trkpt lat="47.23831" lon="-2.16988">
        <ele>6.84</ele>
      </trkpt>
      <trkpt lat="47.23815" lon="-2.17009">
        <ele>7.01</ele>
      </trkpt>
      <trkpt lat="47.23769" lon="-2.17065">
        <ele>8.39</ele>
      </trkpt>
      <trkpt lat="47.23739" lon="-2.17102">
        <ele>9.46</ele>
      </trkpt>
      <trkpt lat="47.2371" lon="-2.17143">
        <ele>9.61</ele>
      </trkpt>
      <trkpt lat="47.23693" lon="-2.17166">
        <ele>9.26</ele>
      </trkpt>
      <trkpt lat="47.23692" lon="-2.17174">
        <ele>9.18</ele>
      </trkpt>
      <trkpt lat="47.23685" lon="-2.17176">
        <ele>8.85</ele>
      </trkpt>
      <trkpt lat="47.23671" lon="-2.17193">
        <ele>8.2</ele>
      </trkpt>
      <trkpt lat="47.2366" lon="-2.17204">
        <ele>7.83</ele>
      </trkpt>
      <trkpt lat="47.23651" lon="-2.17216">
        <ele>7.63</ele>
      </trkpt>
      <trkpt lat="47.23643" lon="-2.17231">
        <ele>7.42</ele>
      </trkpt>
      <trkpt lat="47.23636" lon="-2.17247">
        <ele>7.26</ele>
      </trkpt>
      <trkpt lat="47.23631" lon="-2.17266">
        <ele>7.25</ele>
      </trkpt>
      <trkpt lat="47.23628" lon="-2.17279">
        <ele>7.26</ele>
      </trkpt>
      <trkpt lat="47.23627" lon="-2.17293">
        <ele>7.32</ele>
      </trkpt>
      <trkpt lat="47.23624" lon="-2.17305">
        <ele>7.31</ele>
      </trkpt>
      <trkpt lat="47.23618" lon="-2.17329">
        <ele>7.24</ele>
      </trkpt>
      <trkpt lat="47.23611" lon="-2.17356">
        <ele>7.18</ele>
      </trkpt>
      <trkpt lat="47.23607" lon="-2.17376">
        <ele>7.3</ele>
      </trkpt>
      <trkpt lat="47.23596" lon="-2.17409">
        <ele>7.72</ele>
      </trkpt>
      <trkpt lat="47.23585" lon="-2.17443">
        <ele>7.32</ele>
      </trkpt>
      <trkpt lat="47.23581" lon="-2.17453">
        <ele>7.16</ele>
      </trkpt>
      <trkpt lat="47.23577" lon="-2.17462">
        <ele>7.03</ele>
      </trkpt>
      <trkpt lat="47.23568" lon="-2.17486">
        <ele>6.78</ele>
      </trkpt>
      <trkpt lat="47.23563" lon="-2.17497">
        <ele>6.76</ele>
      </trkpt>
      <trkpt lat="47.23557" lon="-2.17508">
        <ele>7.28</ele>
      </trkpt>
      <trkpt lat="47.23541" lon="-2.17526">
        <ele>8.64</ele>
      </trkpt>
      <trkpt lat="47.23533" lon="-2.17534">
        <ele>9.19</ele>
      </trkpt>
      <trkpt lat="47.23523" lon="-2.17541">
        <ele>9.79</ele>
      </trkpt>
      <trkpt lat="47.2351" lon="-2.17547">
        <ele>10.39</ele>
      </trkpt>
      <trkpt lat="47.23494" lon="-2.17552">
        <ele>10.87</ele>
      </trkpt>
      <trkpt lat="47.23481" lon="-2.17552">
        <ele>10.87</ele>
      </trkpt>
      <trkpt lat="47.2346" lon="-2.17549">
        <ele>10.78</ele>
      </trkpt>
      <trkpt lat="47.23447" lon="-2.17547">
        <ele>10.69</ele>
      </trkpt>
      <trkpt lat="47.23425" lon="-2.17541">
        <ele>10.49</ele>
      </trkpt>
      <trkpt lat="47.23402" lon="-2.17536">
        <ele>10.33</ele>
      </trkpt>
      <trkpt lat="47.23394" lon="-2.17535">
        <ele>10.29</ele>
      </trkpt>
      <trkpt lat="47.23375" lon="-2.17533">
        <ele>10.29</ele>
      </trkpt>
      <trkpt lat="47.23363" lon="-2.17533">
        <ele>10.33</ele>
      </trkpt>
      <trkpt lat="47.23353" lon="-2.17536">
        <ele>10.41</ele>
      </trkpt>
      <trkpt lat="47.23349" lon="-2.17546">
        <ele>10.58</ele>
      </trkpt>
      <trkpt lat="47.23342" lon="-2.1755">
        <ele>10.62</ele>
      </trkpt>
      <trkpt lat="47.2334" lon="-2.17558">
        <ele>10.73</ele>
      </trkpt>
      <trkpt lat="47.23339" lon="-2.176">
        <ele>11.32</ele>
      </trkpt>
      <trkpt lat="47.23339" lon="-2.17614">
        <ele>11.5</ele>
      </trkpt>
      <trkpt lat="47.23334" lon="-2.17749">
        <ele>10.04</ele>
      </trkpt>
      <trkpt lat="47.23332" lon="-2.17769">
        <ele>9.82</ele>
      </trkpt>
      <trkpt lat="47.2333" lon="-2.17777">
        <ele>9.77</ele>
      </trkpt>
      <trkpt lat="47.23328" lon="-2.17789">
        <ele>9.66</ele>
      </trkpt>
      <trkpt lat="47.23324" lon="-2.17804">
        <ele>9.5</ele>
      </trkpt>
      <trkpt lat="47.23319" lon="-2.17818">
        <ele>9.3</ele>
      </trkpt>
      <trkpt lat="47.23314" lon="-2.17831">
        <ele>9.05</ele>
      </trkpt>
      <trkpt lat="47.23305" lon="-2.17848">
        <ele>8.71</ele>
      </trkpt>
      <trkpt lat="47.23297" lon="-2.17859">
        <ele>8.42</ele>
      </trkpt>
      <trkpt lat="47.23284" lon="-2.17873">
        <ele>7.96</ele>
      </trkpt>
      <trkpt lat="47.23269" lon="-2.17885">
        <ele>7.41</ele>
      </trkpt>
      <trkpt lat="47.2326" lon="-2.1789">
        <ele>7.12</ele>
      </trkpt>
      <trkpt lat="47.2324" lon="-2.17897">
        <ele>6.53</ele>
      </trkpt>
      <trkpt lat="47.2322" lon="-2.17901">
        <ele>5.99</ele>
      </trkpt>
      <trkpt lat="47.23203" lon="-2.17902">
        <ele>5.59</ele>
      </trkpt>
      <trkpt lat="47.23194" lon="-2.17902">
        <ele>5.44</ele>
      </trkpt>
      <trkpt lat="47.23179" lon="-2.179">
        <ele>5.26</ele>
      </trkpt>
      <trkpt lat="47.23172" lon="-2.17897">
        <ele>5.25</ele>
      </trkpt>
      <trkpt lat="47.23159" lon="-2.17892">
        <ele>5.17</ele>
      </trkpt>
      <trkpt lat="47.23148" lon="-2.17886">
        <ele>5.03</ele>
      </trkpt>
      <trkpt lat="47.23125" lon="-2.17868">
        <ele>5.24</ele>
      </trkpt>
      <trkpt lat="47.23112" lon="-2.17853">
        <ele>5.68</ele>
      </trkpt>
      <trkpt lat="47.23083" lon="-2.17819">
        <ele>6.81</ele>
      </trkpt>
      <trkpt lat="47.23061" lon="-2.17794">
        <ele>7.15</ele>
      </trkpt>
      <trkpt lat="47.23038" lon="-2.17767">
        <ele>8</ele>
      </trkpt>
      <trkpt lat="47.23006" lon="-2.17731">
        <ele>9.81</ele>
      </trkpt>
      <trkpt lat="47.23003" lon="-2.17726">
        <ele>10.05</ele>
      </trkpt>
      <trkpt lat="47.2297" lon="-2.17688">
        <ele>11.51</ele>
      </trkpt>
      <trkpt lat="47.22961" lon="-2.17685">
        <ele>11.22</ele>
      </trkpt>
      <trkpt lat="47.22952" lon="-2.1768">
        <ele>11.13</ele>
      </trkpt>
      <trkpt lat="47.22944" lon="-2.17672">
        <ele>11.22</ele>
      </trkpt>
      <trkpt lat="47.22936" lon="-2.17664">
        <ele>11.19</ele>
      </trkpt>
      <trkpt lat="47.22929" lon="-2.17656">
        <ele>10.81</ele>
      </trkpt>
      <trkpt lat="47.22922" lon="-2.17647">
        <ele>10.5</ele>
      </trkpt>
      <trkpt lat="47.22916" lon="-2.17641">
        <ele>10.3</ele>
      </trkpt>
      <trkpt lat="47.22915" lon="-2.17639">
        <ele>10.24</ele>
      </trkpt>
      <trkpt lat="47.22909" lon="-2.17631">
        <ele>9.93</ele>
      </trkpt>
      <trkpt lat="47.22902" lon="-2.17623">
        <ele>9.67</ele>
      </trkpt>
      <trkpt lat="47.22891" lon="-2.17609">
        <ele>9.29</ele>
      </trkpt>
      <trkpt lat="47.22887" lon="-2.17602">
        <ele>9.18</ele>
      </trkpt>
      <trkpt lat="47.22883" lon="-2.17596">
        <ele>9.11</ele>
      </trkpt>
      <trkpt lat="47.22883" lon="-2.17595">
        <ele>9.11</ele>
      </trkpt>
      <trkpt lat="47.22873" lon="-2.17572">
        <ele>9.11</ele>
      </trkpt>
      <trkpt lat="47.22869" lon="-2.17552">
        <ele>9.41</ele>
      </trkpt>
      <trkpt lat="47.2286" lon="-2.17543">
        <ele>9.43</ele>
      </trkpt>
      <trkpt lat="47.22849" lon="-2.17529">
        <ele>9.75</ele>
      </trkpt>
      <trkpt lat="47.22838" lon="-2.17528">
        <ele>9.69</ele>
      </trkpt>
      <trkpt lat="47.22829" lon="-2.17522">
        <ele>9.64</ele>
      </trkpt>
      <trkpt lat="47.22808" lon="-2.17494">
        <ele>9.38</ele>
      </trkpt>
      <trkpt lat="47.22783" lon="-2.17459">
        <ele>8.93</ele>
      </trkpt>
      <trkpt lat="47.22778" lon="-2.17452">
        <ele>8.91</ele>
      </trkpt>
      <trkpt lat="47.22771" lon="-2.17442">
        <ele>8.92</ele>
      </trkpt>
      <trkpt lat="47.22696" lon="-2.17338">
        <ele>10.5</ele>
      </trkpt>
      <trkpt lat="47.22608" lon="-2.17224">
        <ele>9.74</ele>
      </trkpt>
      <trkpt lat="47.22568" lon="-2.17173">
        <ele>10.45</ele>
      </trkpt>
      <trkpt lat="47.22518" lon="-2.1711">
        <ele>10.79</ele>
      </trkpt>
      <trkpt lat="47.22483" lon="-2.17067">
        <ele>10.85</ele>
      </trkpt>
      <trkpt lat="47.22476" lon="-2.17058">
        <ele>10.91</ele>
      </trkpt>
      <trkpt lat="47.2241" lon="-2.16982">
        <ele>12.43</ele>
      </trkpt>
      <trkpt lat="47.22389" lon="-2.16958">
        <ele>12.2</ele>
      </trkpt>
      <trkpt lat="47.22345" lon="-2.16906">
        <ele>11.09</ele>
      </trkpt>
      <trkpt lat="47.22338" lon="-2.16897">
        <ele>10.78</ele>
      </trkpt>
      <trkpt lat="47.22256" lon="-2.16803">
        <ele>9.03</ele>
      </trkpt>
      <trkpt lat="47.22238" lon="-2.16781">
        <ele>8.97</ele>
      </trkpt>
      <trkpt lat="47.2223" lon="-2.16769">
        <ele>9.07</ele>
      </trkpt>
      <trkpt lat="47.22214" lon="-2.16745">
        <ele>9.29</ele>
      </trkpt>
      <trkpt lat="47.22207" lon="-2.16728">
        <ele>9.65</ele>
      </trkpt>
      <trkpt lat="47.222" lon="-2.16716">
        <ele>9.8</ele>
      </trkpt>
      <trkpt lat="47.22184" lon="-2.16697">
        <ele>9.82</ele>
      </trkpt>
      <trkpt lat="47.22119" lon="-2.16623">
        <ele>11.34</ele>
      </trkpt>
      <trkpt lat="47.22101" lon="-2.16603">
        <ele>11.41</ele>
      </trkpt>
      <trkpt lat="47.22091" lon="-2.16591">
        <ele>11.23</ele>
      </trkpt>
      <trkpt lat="47.22083" lon="-2.16582">
        <ele>11.1</ele>
      </trkpt>
      <trkpt lat="47.22059" lon="-2.16554">
        <ele>12.25</ele>
      </trkpt>
      <trkpt lat="47.22022" lon="-2.16515">
        <ele>13.19</ele>
      </trkpt>
      <trkpt lat="47.22012" lon="-2.16503">
        <ele>13.31</ele>
      </trkpt>
      <trkpt lat="47.21984" lon="-2.1647">
        <ele>12.74</ele>
      </trkpt>
      <trkpt lat="47.21971" lon="-2.16453">
        <ele>12.57</ele>
      </trkpt>
      <trkpt lat="47.21965" lon="-2.16443">
        <ele>12.58</ele>
      </trkpt>
      <trkpt lat="47.21959" lon="-2.16431">
        <ele>12.67</ele>
      </trkpt>
      <trkpt lat="47.21952" lon="-2.16423">
        <ele>12.69</ele>
      </trkpt>
      <trkpt lat="47.21935" lon="-2.16388">
        <ele>13.32</ele>
      </trkpt>
      <trkpt lat="47.21924" lon="-2.16368">
        <ele>13.84</ele>
      </trkpt>
      <trkpt lat="47.21908" lon="-2.16336">
        <ele>14.98</ele>
      </trkpt>
      <trkpt lat="47.21856" lon="-2.16239">
        <ele>13.68</ele>
      </trkpt>
      <trkpt lat="47.21828" lon="-2.16225">
        <ele>12.59</ele>
      </trkpt>
      <trkpt lat="47.21788" lon="-2.16203">
        <ele>11.66</ele>
      </trkpt>
      <trkpt lat="47.21757" lon="-2.16186">
        <ele>11.11</ele>
      </trkpt>
      <trkpt lat="47.21698" lon="-2.16154">
        <ele>11.21</ele>
      </trkpt>
      <trkpt lat="47.21617" lon="-2.16104">
        <ele>10.7</ele>
      </trkpt>
      <trkpt lat="47.2159" lon="-2.16088">
        <ele>10.16</ele>
      </trkpt>
      <trkpt lat="47.21548" lon="-2.16062">
        <ele>8.16</ele>
      </trkpt>
      <trkpt lat="47.21539" lon="-2.16056">
        <ele>7.72</ele>
      </trkpt>
      <trkpt lat="47.21521" lon="-2.16045">
        <ele>6.91</ele>
      </trkpt>
      <trkpt lat="47.21513" lon="-2.1604">
        <ele>6.53</ele>
      </trkpt>
      <trkpt lat="47.21479" lon="-2.1602">
        <ele>5.56</ele>
      </trkpt>
      <trkpt lat="47.21465" lon="-2.16011">
        <ele>5.21</ele>
      </trkpt>
      <trkpt lat="47.21443" lon="-2.16">
        <ele>4.64</ele>
      </trkpt>
      <trkpt lat="47.21395" lon="-2.15969">
        <ele>4.1</ele>
      </trkpt>
      <trkpt lat="47.21387" lon="-2.15965">
        <ele>4.15</ele>
      </trkpt>
      <trkpt lat="47.21377" lon="-2.15959">
        <ele>4.24</ele>
      </trkpt>
      <trkpt lat="47.21327" lon="-2.15927">
        <ele>4.82</ele>
      </trkpt>
      <trkpt lat="47.21287" lon="-2.15903">
        <ele>4.46</ele>
      </trkpt>
      <trkpt lat="47.21258" lon="-2.15883">
        <ele>4.42</ele>
      </trkpt>
      <trkpt lat="47.21253" lon="-2.15879">
        <ele>4.46</ele>
      </trkpt>
      <trkpt lat="47.21237" lon="-2.15865">
        <ele>4.67</ele>
      </trkpt>
      <trkpt lat="47.21228" lon="-2.15855">
        <ele>4.81</ele>
      </trkpt>
      <trkpt lat="47.21222" lon="-2.15848">
        <ele>4.89</ele>
      </trkpt>
      <trkpt lat="47.21204" lon="-2.15822">
        <ele>4.94</ele>
      </trkpt>
      <trkpt lat="47.21189" lon="-2.158">
        <ele>4.89</ele>
      </trkpt>
      <trkpt lat="47.21178" lon="-2.15783">
        <ele>4.92</ele>
      </trkpt>
      <trkpt lat="47.21157" lon="-2.1575">
        <ele>5.24</ele>
      </trkpt>
      <trkpt lat="47.21054" lon="-2.15712">
        <ele>7.24</ele>
      </trkpt>
      <trkpt lat="47.20972" lon="-2.15682">
        <ele>7.78</ele>
      </trkpt>
      <trkpt lat="47.20937" lon="-2.15671">
        <ele>7.26</ele>
      </trkpt>
      <trkpt lat="47.20914" lon="-2.15663">
        <ele>7.06</ele>
      </trkpt>
      <trkpt lat="47.20908" lon="-2.15661">
        <ele>7.22</ele>
      </trkpt>
      <trkpt lat="47.2086" lon="-2.15645">
        <ele>8.52</ele>
      </trkpt>
      <trkpt lat="47.20831" lon="-2.15636">
        <ele>9.41</ele>
      </trkpt>
      <trkpt lat="47.20757" lon="-2.15611">
        <ele>10.27</ele>
      </trkpt>
      <trkpt lat="47.20647" lon="-2.15571">
        <ele>11.19</ele>
      </trkpt>
      <trkpt lat="47.20645" lon="-2.15579">
        <ele>11.25</ele>
      </trkpt>
      <trkpt lat="47.20638" lon="-2.15585">
        <ele>11.34</ele>
      </trkpt>
      <trkpt lat="47.20629" lon="-2.15586">
        <ele>11.46</ele>
      </trkpt>
      <trkpt lat="47.20623" lon="-2.15583">
        <ele>11.52</ele>
      </trkpt>
      <trkpt lat="47.2062" lon="-2.15577">
        <ele>11.61</ele>
      </trkpt>
      <trkpt lat="47.20617" lon="-2.15569">
        <ele>11.74</ele>
      </trkpt>
      <trkpt lat="47.20617" lon="-2.1556">
        <ele>11.82</ele>
      </trkpt>
      <trkpt lat="47.2059" lon="-2.15546">
        <ele>12.72</ele>
      </trkpt>
      <trkpt lat="47.20553" lon="-2.15534">
        <ele>12.82</ele>
      </trkpt>
      <trkpt lat="47.20518" lon="-2.15521">
        <ele>12.7</ele>
      </trkpt>
      <trkpt lat="47.2049" lon="-2.15511">
        <ele>12.72</ele>
      </trkpt>
      <trkpt lat="47.20482" lon="-2.15509">
        <ele>12.77</ele>
      </trkpt>
      <trkpt lat="47.20477" lon="-2.15508">
        <ele>12.78</ele>
      </trkpt>
      <trkpt lat="47.20471" lon="-2.15506">
        <ele>12.82</ele>
      </trkpt>
      <trkpt lat="47.20438" lon="-2.15485">
        <ele>13.58</ele>
      </trkpt>
      <trkpt lat="47.20425" lon="-2.15474">
        <ele>13.95</ele>
      </trkpt>
      <trkpt lat="47.20417" lon="-2.15463">
        <ele>14.32</ele>
      </trkpt>
      <trkpt lat="47.20407" lon="-2.15454">
        <ele>15.11</ele>
      </trkpt>
      <trkpt lat="47.20397" lon="-2.15441">
        <ele>15.95</ele>
      </trkpt>
      <trkpt lat="47.20388" lon="-2.15431">
        <ele>16.66</ele>
      </trkpt>
      <trkpt lat="47.20382" lon="-2.15422">
        <ele>17.13</ele>
      </trkpt>
      <trkpt lat="47.20374" lon="-2.15408">
        <ele>17.76</ele>
      </trkpt>
      <trkpt lat="47.20367" lon="-2.15392">
        <ele>18.36</ele>
      </trkpt>
      <trkpt lat="47.20344" lon="-2.15326">
        <ele>20.44</ele>
      </trkpt>
      <trkpt lat="47.20318" lon="-2.15274">
        <ele>20.14</ele>
      </trkpt>
      <trkpt lat="47.20311" lon="-2.15263">
        <ele>20.11</ele>
      </trkpt>
      <trkpt lat="47.20307" lon="-2.15257">
        <ele>20.09</ele>
      </trkpt>
      <trkpt lat="47.20295" lon="-2.15243">
        <ele>20.16</ele>
      </trkpt>
      <trkpt lat="47.20276" lon="-2.15223">
        <ele>20.32</ele>
      </trkpt>
      <trkpt lat="47.20268" lon="-2.15223">
        <ele>20.65</ele>
      </trkpt>
      <trkpt lat="47.20247" lon="-2.15227">
        <ele>21.37</ele>
      </trkpt>
      <trkpt lat="47.20226" lon="-2.15233">
        <ele>21.02</ele>
      </trkpt>
      <trkpt lat="47.20204" lon="-2.15243">
        <ele>20.73</ele>
      </trkpt>
      <trkpt lat="47.20193" lon="-2.15249">
        <ele>20.6</ele>
      </trkpt>
      <trkpt lat="47.20182" lon="-2.15257">
        <ele>20.54</ele>
      </trkpt>
      <trkpt lat="47.20167" lon="-2.15263">
        <ele>20.31</ele>
      </trkpt>
      <trkpt lat="47.20155" lon="-2.15266">
        <ele>20.58</ele>
      </trkpt>
      <trkpt lat="47.2014" lon="-2.15267">
        <ele>20.85</ele>
      </trkpt>
      <trkpt lat="47.20101" lon="-2.15267">
        <ele>21.5</ele>
      </trkpt>
      <trkpt lat="47.2009" lon="-2.15269">
        <ele>21.67</ele>
      </trkpt>
      <trkpt lat="47.20075" lon="-2.15274">
        <ele>22.06</ele>
      </trkpt>
      <trkpt lat="47.20065" lon="-2.15275">
        <ele>22.44</ele>
      </trkpt>
      <trkpt lat="47.20014" lon="-2.15277">
        <ele>24.43</ele>
      </trkpt>
      <trkpt lat="47.19981" lon="-2.15276">
        <ele>25.38</ele>
      </trkpt>
      <trkpt lat="47.19949" lon="-2.15273">
        <ele>25.95</ele>
      </trkpt>
      <trkpt lat="47.19919" lon="-2.15271">
        <ele>26.46</ele>
      </trkpt>
      <trkpt lat="47.19906" lon="-2.15268">
        <ele>26.73</ele>
      </trkpt>
      <trkpt lat="47.19846" lon="-2.15256">
        <ele>28.51</ele>
      </trkpt>
      <trkpt lat="47.19831" lon="-2.15251">
        <ele>28.84</ele>
      </trkpt>
      <trkpt lat="47.19819" lon="-2.1525">
        <ele>27.95</ele>
      </trkpt>
      <trkpt lat="47.19806" lon="-2.1525">
        <ele>26.99</ele>
      </trkpt>
      <trkpt lat="47.19792" lon="-2.15252">
        <ele>26.03</ele>
      </trkpt>
      <trkpt lat="47.19774" lon="-2.15262">
        <ele>25.06</ele>
      </trkpt>
      <trkpt lat="47.1976" lon="-2.15271">
        <ele>24.54</ele>
      </trkpt>
      <trkpt lat="47.19753" lon="-2.15275">
        <ele>24.36</ele>
      </trkpt>
      <trkpt lat="47.19728" lon="-2.15291">
        <ele>22.73</ele>
      </trkpt>
      <trkpt lat="47.19724" lon="-2.15259">
        <ele>21.14</ele>
      </trkpt>
      <trkpt lat="47.19724" lon="-2.15234">
        <ele>20.33</ele>
      </trkpt>
      <trkpt lat="47.19722" lon="-2.15224">
        <ele>19.93</ele>
      </trkpt>
      <trkpt lat="47.19722" lon="-2.15223">
        <ele>19.91</ele>
      </trkpt>
      <trkpt lat="47.19722" lon="-2.15223">
        <ele>19.91</ele>
      </trkpt>
      <trkpt lat="47.19722" lon="-2.15223">
        <ele>19.91</ele>
      </trkpt>
      <trkpt lat="47.19718" lon="-2.15184">
        <ele>18.67</ele>
      </trkpt>
      <trkpt lat="47.19717" lon="-2.15172">
        <ele>18.36</ele>
      </trkpt>
      <trkpt lat="47.19714" lon="-2.15132">
        <ele>18.08</ele>
      </trkpt>
      <trkpt lat="47.19714" lon="-2.1513">
        <ele>18.08</ele>
      </trkpt>
      <trkpt lat="47.19707" lon="-2.15092">
        <ele>18</ele>
      </trkpt>
      <trkpt lat="47.19707" lon="-2.15092">
        <ele>18</ele>
      </trkpt>
      <trkpt lat="47.19704" lon="-2.15073">
        <ele>18.07</ele>
      </trkpt>
      <trkpt lat="47.19703" lon="-2.15069">
        <ele>18.1</ele>
      </trkpt>
      <trkpt lat="47.19702" lon="-2.15067">
        <ele>18.12</ele>
      </trkpt>
      <trkpt lat="47.19699" lon="-2.15046">
        <ele>18.27</ele>
      </trkpt>
      <trkpt lat="47.19696" lon="-2.15025">
        <ele>18.45</ele>
      </trkpt>
      <trkpt lat="47.19689" lon="-2.14995">
        <ele>18.79</ele>
      </trkpt>
      <trkpt lat="47.19688" lon="-2.14988">
        <ele>18.88</ele>
      </trkpt>
      <trkpt lat="47.1968" lon="-2.14994">
        <ele>18.92</ele>
      </trkpt>
      <trkpt lat="47.19673" lon="-2.14998">
        <ele>18.94</ele>
      </trkpt>
      <trkpt lat="47.19642" lon="-2.15013">
        <ele>19.4</ele>
      </trkpt>
      <trkpt lat="47.19632" lon="-2.15018">
        <ele>19.53</ele>
      </trkpt>
      <trkpt lat="47.1962" lon="-2.15026">
        <ele>19.63</ele>
      </trkpt>
      <trkpt lat="47.1958" lon="-2.15057">
        <ele>19.72</ele>
      </trkpt>
      <trkpt lat="47.19568" lon="-2.15064">
        <ele>19.72</ele>
      </trkpt>
      <trkpt lat="47.19538" lon="-2.15081">
        <ele>19.64</ele>
      </trkpt>
      <trkpt lat="47.19528" lon="-2.15083">
        <ele>19.66</ele>
      </trkpt>
      <trkpt lat="47.19519" lon="-2.1508">
        <ele>19.92</ele>
      </trkpt>
      <trkpt lat="47.19507" lon="-2.15071">
        <ele>20.49</ele>
      </trkpt>
      <trkpt lat="47.1949" lon="-2.15058">
        <ele>21.41</ele>
      </trkpt>
      <trkpt lat="47.19448" lon="-2.15032">
        <ele>23.31</ele>
      </trkpt>
      <trkpt lat="47.19439" lon="-2.15029">
        <ele>23.59</ele>
      </trkpt>
      <trkpt lat="47.19433" lon="-2.15027">
        <ele>23.79</ele>
      </trkpt>
      <trkpt lat="47.19422" lon="-2.15025">
        <ele>24</ele>
      </trkpt>
      <trkpt lat="47.19413" lon="-2.15011">
        <ele>24.58</ele>
      </trkpt>
      <trkpt lat="47.19375" lon="-2.1496">
        <ele>26.19</ele>
      </trkpt>
      <trkpt lat="47.19369" lon="-2.14952">
        <ele>26.39</ele>
      </trkpt>
      <trkpt lat="47.19364" lon="-2.14944">
        <ele>26.63</ele>
      </trkpt>
      <trkpt lat="47.19344" lon="-2.14915">
        <ele>27.32</ele>
      </trkpt>
      <trkpt lat="47.19332" lon="-2.14885">
        <ele>28.07</ele>
      </trkpt>
      <trkpt lat="47.19331" lon="-2.14873">
        <ele>28.38</ele>
      </trkpt>
      <trkpt lat="47.1933" lon="-2.14862">
        <ele>28.77</ele>
      </trkpt>
      <trkpt lat="47.19331" lon="-2.14854">
        <ele>29.1</ele>
      </trkpt>
      <trkpt lat="47.19334" lon="-2.14824">
        <ele>30.12</ele>
      </trkpt>
      <trkpt lat="47.19334" lon="-2.14805">
        <ele>30.34</ele>
      </trkpt>
      <trkpt lat="47.19333" lon="-2.14786">
        <ele>30.55</ele>
      </trkpt>
      <trkpt lat="47.19331" lon="-2.14769">
        <ele>30.68</ele>
      </trkpt>
      <trkpt lat="47.19324" lon="-2.14743">
        <ele>30.51</ele>
      </trkpt>
      <trkpt lat="47.19296" lon="-2.14748">
        <ele>29.21</ele>
      </trkpt>
      <trkpt lat="47.19272" lon="-2.14754">
        <ele>27.96</ele>
      </trkpt>
      <trkpt lat="47.19247" lon="-2.14759">
        <ele>26.64</ele>
      </trkpt>
      <trkpt lat="47.19229" lon="-2.14763">
        <ele>26.32</ele>
      </trkpt>
      <trkpt lat="47.19208" lon="-2.14769">
        <ele>25.93</ele>
      </trkpt>
      <trkpt lat="47.19201" lon="-2.14771">
        <ele>25.82</ele>
      </trkpt>
      <trkpt lat="47.19147" lon="-2.14784">
        <ele>25.71</ele>
      </trkpt>
      <trkpt lat="47.19113" lon="-2.14798">
        <ele>26.61</ele>
      </trkpt>
      <trkpt lat="47.19105" lon="-2.14801">
        <ele>26.87</ele>
      </trkpt>
      <trkpt lat="47.19046" lon="-2.14839">
        <ele>28.9</ele>
      </trkpt>
      <trkpt lat="47.19004" lon="-2.14869">
        <ele>29.91</ele>
      </trkpt>
      <trkpt lat="47.18949" lon="-2.14908">
        <ele>28.78</ele>
      </trkpt>
      <trkpt lat="47.18879" lon="-2.14957">
        <ele>28.26</ele>
      </trkpt>
      <trkpt lat="47.1886" lon="-2.1497">
        <ele>28.2</ele>
      </trkpt>
      <trkpt lat="47.18831" lon="-2.14984">
        <ele>27.95</ele>
      </trkpt>
      <trkpt lat="47.18801" lon="-2.14869">
        <ele>28.53</ele>
      </trkpt>
      <trkpt lat="47.18787" lon="-2.14876">
        <ele>28.16</ele>
      </trkpt>
      <trkpt lat="47.18763" lon="-2.14882">
        <ele>27.63</ele>
      </trkpt>
      <trkpt lat="47.18746" lon="-2.14887">
        <ele>27.38</ele>
      </trkpt>
      <trkpt lat="47.18727" lon="-2.14892">
        <ele>27.38</ele>
      </trkpt>
      <trkpt lat="47.18702" lon="-2.14902">
        <ele>27.28</ele>
      </trkpt>
      <trkpt lat="47.18673" lon="-2.14915">
        <ele>27.05</ele>
      </trkpt>
      <trkpt lat="47.18646" lon="-2.14922">
        <ele>27.16</ele>
      </trkpt>
      <trkpt lat="47.18608" lon="-2.14926">
        <ele>27.42</ele>
      </trkpt>
      <trkpt lat="47.1854" lon="-2.1494">
        <ele>26.4</ele>
      </trkpt>
      <trkpt lat="47.18532" lon="-2.14943">
        <ele>26.2</ele>
      </trkpt>
      <trkpt lat="47.18507" lon="-2.14953">
        <ele>25.65</ele>
      </trkpt>
      <trkpt lat="47.18495" lon="-2.14961">
        <ele>25.59</ele>
      </trkpt>
      <trkpt lat="47.18487" lon="-2.14965">
        <ele>25.7</ele>
      </trkpt>
      <trkpt lat="47.18472" lon="-2.14973">
        <ele>25.88</ele>
      </trkpt>
      <trkpt lat="47.18441" lon="-2.14995">
        <ele>25.86</ele>
      </trkpt>
      <trkpt lat="47.18413" lon="-2.15008">
        <ele>25.98</ele>
      </trkpt>
      <trkpt lat="47.18366" lon="-2.15031">
        <ele>26.16</ele>
      </trkpt>
      <trkpt lat="47.18338" lon="-2.15046">
        <ele>25.79</ele>
      </trkpt>
      <trkpt lat="47.18311" lon="-2.15058">
        <ele>26.02</ele>
      </trkpt>
      <trkpt lat="47.18296" lon="-2.15066">
        <ele>26.35</ele>
      </trkpt>
      <trkpt lat="47.18284" lon="-2.15068">
        <ele>26.76</ele>
      </trkpt>
      <trkpt lat="47.18279" lon="-2.15068">
        <ele>27</ele>
      </trkpt>
      <trkpt lat="47.18271" lon="-2.15066">
        <ele>27.35</ele>
      </trkpt>
      <trkpt lat="47.18232" lon="-2.15041">
        <ele>28.29</ele>
      </trkpt>
      <trkpt lat="47.18229" lon="-2.15033">
        <ele>28.31</ele>
      </trkpt>
      <trkpt lat="47.18233" lon="-2.15">
        <ele>28.6</ele>
      </trkpt>
      <trkpt lat="47.18236" lon="-2.14984">
        <ele>28.72</ele>
      </trkpt>
      <trkpt lat="47.18246" lon="-2.14918">
        <ele>29</ele>
      </trkpt>
      <trkpt lat="47.18248" lon="-2.14906">
        <ele>29</ele>
      </trkpt>
      <trkpt lat="47.18257" lon="-2.14841">
        <ele>29.09</ele>
      </trkpt>
      <trkpt lat="47.18219" lon="-2.14852">
        <ele>29</ele>
      </trkpt>
      <trkpt lat="47.18205" lon="-2.14855">
        <ele>29</ele>
      </trkpt>
      <trkpt lat="47.182" lon="-2.14853">
        <ele>29</ele>
      </trkpt>
      <trkpt lat="47.18195" lon="-2.14851">
        <ele>29</ele>
      </trkpt>
      <trkpt lat="47.18183" lon="-2.14852">
        <ele>29</ele>
      </trkpt>
      <trkpt lat="47.18163" lon="-2.14858">
        <ele>28.83</ele>
      </trkpt>
      <trkpt lat="47.18139" lon="-2.14866">
        <ele>27.79</ele>
      </trkpt>
      <trkpt lat="47.18133" lon="-2.14868">
        <ele>27.55</ele>
      </trkpt>
      <trkpt lat="47.18128" lon="-2.14883">
        <ele>27.41</ele>
      </trkpt>
      <trkpt lat="47.18131" lon="-2.1489">
        <ele>27.6</ele>
      </trkpt>
      <trkpt lat="47.18133" lon="-2.14902">
        <ele>27.72</ele>
      </trkpt>
      <trkpt lat="47.18131" lon="-2.14912">
        <ele>27.68</ele>
      </trkpt>
      <trkpt lat="47.18126" lon="-2.14917">
        <ele>27.55</ele>
      </trkpt>
      <trkpt lat="47.18118" lon="-2.14922">
        <ele>27.18</ele>
      </trkpt>
      <trkpt lat="47.18112" lon="-2.14926">
        <ele>26.96</ele>
      </trkpt>
      <trkpt lat="47.1811" lon="-2.14934">
        <ele>26.81</ele>
      </trkpt>
      <trkpt lat="47.18108" lon="-2.14943">
        <ele>26.69</ele>
      </trkpt>
      <trkpt lat="47.18103" lon="-2.14949">
        <ele>26.54</ele>
      </trkpt>
      <trkpt lat="47.18099" lon="-2.14953">
        <ele>26.39</ele>
      </trkpt>
      <trkpt lat="47.18093" lon="-2.14955">
        <ele>26.24</ele>
      </trkpt>
      <trkpt lat="47.18105" lon="-2.151">
        <ele>27.26</ele>
      </trkpt>
      <trkpt lat="47.18052" lon="-2.15113">
        <ele>26.87</ele>
      </trkpt>
      <trkpt lat="47.18037" lon="-2.15118">
        <ele>26.77</ele>
      </trkpt>
      <trkpt lat="47.18018" lon="-2.15123">
        <ele>26.63</ele>
      </trkpt>
      <trkpt lat="47.17976" lon="-2.15145">
        <ele>25.34</ele>
      </trkpt>
      <trkpt lat="47.17942" lon="-2.15161">
        <ele>23.95</ele>
      </trkpt>
      <trkpt lat="47.1793" lon="-2.15169">
        <ele>23.43</ele>
      </trkpt>
      <trkpt lat="47.17902" lon="-2.15194">
        <ele>21.83</ele>
      </trkpt>
      <trkpt lat="47.17907" lon="-2.15204">
        <ele>21.76</ele>
      </trkpt>
      <trkpt lat="47.17843" lon="-2.15247">
        <ele>18.42</ele>
      </trkpt>
      <trkpt lat="47.17837" lon="-2.15254">
        <ele>18.22</ele>
      </trkpt>
      <trkpt lat="47.17827" lon="-2.15263">
        <ele>18.17</ele>
      </trkpt>
      <trkpt lat="47.17812" lon="-2.15282">
        <ele>18.25</ele>
      </trkpt>
      <trkpt lat="47.17793" lon="-2.15303">
        <ele>18.3</ele>
      </trkpt>
      <trkpt lat="47.17781" lon="-2.15321">
        <ele>18.43</ele>
      </trkpt>
      <trkpt lat="47.17772" lon="-2.15336">
        <ele>18.67</ele>
      </trkpt>
      <trkpt lat="47.17766" lon="-2.15347">
        <ele>19</ele>
      </trkpt>
      <trkpt lat="47.17748" lon="-2.15394">
        <ele>20.84</ele>
      </trkpt>
      <trkpt lat="47.17741" lon="-2.15417">
        <ele>21.68</ele>
      </trkpt>
      <trkpt lat="47.17738" lon="-2.15428">
        <ele>21.72</ele>
      </trkpt>
      <trkpt lat="47.17729" lon="-2.15463">
        <ele>21.81</ele>
      </trkpt>
      <trkpt lat="47.17722" lon="-2.15496">
        <ele>21.93</ele>
      </trkpt>
      <trkpt lat="47.17717" lon="-2.15515">
        <ele>21.76</ele>
      </trkpt>
      <trkpt lat="47.17714" lon="-2.15526">
        <ele>21.67</ele>
      </trkpt>
      <trkpt lat="47.17709" lon="-2.15536">
        <ele>21.51</ele>
      </trkpt>
      <trkpt lat="47.17696" lon="-2.15551">
        <ele>21.23</ele>
      </trkpt>
      <trkpt lat="47.17691" lon="-2.15557">
        <ele>21.16</ele>
      </trkpt>
      <trkpt lat="47.17683" lon="-2.15562">
        <ele>21.04</ele>
      </trkpt>
      <trkpt lat="47.17665" lon="-2.15581">
        <ele>20.89</ele>
      </trkpt>
      <trkpt lat="47.17659" lon="-2.15594">
        <ele>20.92</ele>
      </trkpt>
      <trkpt lat="47.1765" lon="-2.1562">
        <ele>21.25</ele>
      </trkpt>
      <trkpt lat="47.17654" lon="-2.15626">
        <ele>21.58</ele>
      </trkpt>
      <trkpt lat="47.17607" lon="-2.15665">
        <ele>21.52</ele>
      </trkpt>
      <trkpt lat="47.1761" lon="-2.15672">
        <ele>21.75</ele>
      </trkpt>
      <trkpt lat="47.17622" lon="-2.1574">
        <ele>23.28</ele>
      </trkpt>
      <trkpt lat="47.17624" lon="-2.1578">
        <ele>24.53</ele>
      </trkpt>
      <trkpt lat="47.1761" lon="-2.16182">
        <ele>17.09</ele>
      </trkpt>
      <trkpt lat="47.17602" lon="-2.16386">
        <ele>6.04</ele>
      </trkpt>
      <trkpt lat="47.17439" lon="-2.16425">
        <ele>9.21</ele>
      </trkpt>
      <trkpt lat="47.17411" lon="-2.16446">
        <ele>7.31</ele>
      </trkpt>
      <trkpt lat="47.16553" lon="-2.1672">
        <ele>9.65</ele>
      </trkpt>
      <trkpt lat="47.16279" lon="-2.17017">
        <ele>5.13</ele>
      </trkpt>
      <trkpt lat="47.16151" lon="-2.17148">
        <ele>4.92</ele>
      </trkpt>
      <trkpt lat="47.16149" lon="-2.1715">
        <ele>4.9</ele>
      </trkpt>
      <trkpt lat="47.16143" lon="-2.17162">
        <ele>4.69</ele>
      </trkpt>
      <trkpt lat="47.16131" lon="-2.17167">
        <ele>4.83</ele>
      </trkpt>
      <trkpt lat="47.16129" lon="-2.17168">
        <ele>4.85</ele>
      </trkpt>
      <trkpt lat="47.16119" lon="-2.17187">
        <ele>4.42</ele>
      </trkpt>
      <trkpt lat="47.15796" lon="-2.17508">
        <ele>5.34</ele>
      </trkpt>
      <trkpt lat="47.15768" lon="-2.17519">
        <ele>6.07</ele>
      </trkpt>
      <trkpt lat="47.15754" lon="-2.17512">
        <ele>7.13</ele>
      </trkpt>
      <trkpt lat="47.15736" lon="-2.17485">
        <ele>8.29</ele>
      </trkpt>
      <trkpt lat="47.1571" lon="-2.17447">
        <ele>8.51</ele>
      </trkpt>
      <trkpt lat="47.15707" lon="-2.17379">
        <ele>8.27</ele>
      </trkpt>
      <trkpt lat="47.15522" lon="-2.17477">
        <ele>8.84</ele>
      </trkpt>
      <trkpt lat="47.15553" lon="-2.17634">
        <ele>11.46</ele>
      </trkpt>
      <trkpt lat="47.1556" lon="-2.17804">
        <ele>10.9</ele>
      </trkpt>
      <trkpt lat="47.15568" lon="-2.18047">
        <ele>7.56</ele>
      </trkpt>
      <trkpt lat="47.15575" lon="-2.18094">
        <ele>8.39</ele>
      </trkpt>
      <trkpt lat="47.1561" lon="-2.1818">
        <ele>8.77</ele>
      </trkpt>
      <trkpt lat="47.15623" lon="-2.18299">
        <ele>11.9</ele>
      </trkpt>
      <trkpt lat="47.15637" lon="-2.18362">
        <ele>12.58</ele>
      </trkpt>
      <trkpt lat="47.15655" lon="-2.18436">
        <ele>12.8</ele>
      </trkpt>
      <trkpt lat="47.15655" lon="-2.1851">
        <ele>11.79</ele>
      </trkpt>
      <trkpt lat="47.15639" lon="-2.18602">
        <ele>9.54</ele>
      </trkpt>
      <trkpt lat="47.15641" lon="-2.18698">
        <ele>7.55</ele>
      </trkpt>
      <trkpt lat="47.15652" lon="-2.18908">
        <ele>8.59</ele>
      </trkpt>
      <trkpt lat="47.15717" lon="-2.19146">
        <ele>10.19</ele>
      </trkpt>
      <trkpt lat="47.15736" lon="-2.19242">
        <ele>9.75</ele>
      </trkpt>
      <trkpt lat="47.15749" lon="-2.19343">
        <ele>7.66</ele>
      </trkpt>
      <trkpt lat="47.15743" lon="-2.19379">
        <ele>6.6</ele>
      </trkpt>
      <trkpt lat="47.15718" lon="-2.19402">
        <ele>6.66</ele>
      </trkpt>
      <trkpt lat="47.15705" lon="-2.19408">
        <ele>6.95</ele>
      </trkpt>
      <trkpt lat="47.15705" lon="-2.19413">
        <ele>6.75</ele>
      </trkpt>
      <trkpt lat="47.15704" lon="-2.1944">
        <ele>7.04</ele>
      </trkpt>
      <trkpt lat="47.15747" lon="-2.19463">
        <ele>6.72</ele>
      </trkpt>
      <trkpt lat="47.15768" lon="-2.19494">
        <ele>7.11</ele>
      </trkpt>
      <trkpt lat="47.15778" lon="-2.1956">
        <ele>9.37</ele>
      </trkpt>
      <trkpt lat="47.15786" lon="-2.19651">
        <ele>10.49</ele>
      </trkpt>
      <trkpt lat="47.15788" lon="-2.19778">
        <ele>9.6</ele>
      </trkpt>
      <trkpt lat="47.15757" lon="-2.19983">
        <ele>7.59</ele>
      </trkpt>
      <trkpt lat="47.15717" lon="-2.20213">
        <ele>3.99</ele>
      </trkpt>
      <trkpt lat="47.1567" lon="-2.20361">
        <ele>5.34</ele>
      </trkpt>
      <trkpt lat="47.15612" lon="-2.2069">
        <ele>4.77</ele>
      </trkpt>
      <trkpt lat="47.15569" lon="-2.20945">
        <ele>5.25</ele>
      </trkpt>
      <trkpt lat="47.15517" lon="-2.21201">
        <ele>4.86</ele>
      </trkpt>
      <trkpt lat="47.15507" lon="-2.21284">
        <ele>4.82</ele>
      </trkpt>
      <trkpt lat="47.15504" lon="-2.21319">
        <ele>4.19</ele>
      </trkpt>
      <trkpt lat="47.15503" lon="-2.21326">
        <ele>4.05</ele>
      </trkpt>
      <trkpt lat="47.15488" lon="-2.21373">
        <ele>4.09</ele>
      </trkpt>
      <trkpt lat="47.15432" lon="-2.21443">
        <ele>5.55</ele>
      </trkpt>
      <trkpt lat="47.15282" lon="-2.21628">
        <ele>4.62</ele>
      </trkpt>
      <trkpt lat="47.15253" lon="-2.21674">
        <ele>5.04</ele>
      </trkpt>
      <trkpt lat="47.15247" lon="-2.21722">
        <ele>5.64</ele>
      </trkpt>
      <trkpt lat="47.15263" lon="-2.21778">
        <ele>6.27</ele>
      </trkpt>
      <trkpt lat="47.15283" lon="-2.21819">
        <ele>5.34</ele>
      </trkpt>
      <trkpt lat="47.15313" lon="-2.22">
        <ele>1.21</ele>
      </trkpt>
      <trkpt lat="47.15336" lon="-2.22144">
        <ele>5.9</ele>
      </trkpt>
      <trkpt lat="47.15337" lon="-2.2219">
        <ele>0.53</ele>
      </trkpt>
      <trkpt lat="47.15325" lon="-2.22238">
        <ele>1.84</ele>
      </trkpt>
      <trkpt lat="47.15303" lon="-2.22297">
        <ele>2</ele>
      </trkpt>
      <trkpt lat="47.15217" lon="-2.22471">
        <ele>2.87</ele>
      </trkpt>
      <trkpt lat="47.1519" lon="-2.22485">
        <ele>3.86</ele>
      </trkpt>
      <trkpt lat="47.15139" lon="-2.22484">
        <ele>4.81</ele>
      </trkpt>
      <trkpt lat="47.15096" lon="-2.22451">
        <ele>4.42</ele>
      </trkpt>
      <trkpt lat="47.15063" lon="-2.22403">
        <ele>4.28</ele>
      </trkpt>
      <trkpt lat="47.15028" lon="-2.22403">
        <ele>4.78</ele>
      </trkpt>
      <trkpt lat="47.1501" lon="-2.22399">
        <ele>5.07</ele>
      </trkpt>
      <trkpt lat="47.14989" lon="-2.22381">
        <ele>5.51</ele>
      </trkpt>
      <trkpt lat="47.14962" lon="-2.22382">
        <ele>5.68</ele>
      </trkpt>
      <trkpt lat="47.1493" lon="-2.22411">
        <ele>5.85</ele>
      </trkpt>
      <trkpt lat="47.14857" lon="-2.22535">
        <ele>6.7</ele>
      </trkpt>
      <trkpt lat="47.14827" lon="-2.22571">
        <ele>6.94</ele>
      </trkpt>
      <trkpt lat="47.14802" lon="-2.22585">
        <ele>7.37</ele>
      </trkpt>
      <trkpt lat="47.14751" lon="-2.22587">
        <ele>7.99</ele>
      </trkpt>
      <trkpt lat="47.14615" lon="-2.22618">
        <ele>7.38</ele>
      </trkpt>
      <trkpt lat="47.14586" lon="-2.22661">
        <ele>7.04</ele>
      </trkpt>
      <trkpt lat="47.14533" lon="-2.22773">
        <ele>5.13</ele>
      </trkpt>
      <trkpt lat="47.14496" lon="-2.22838">
        <ele>3.8</ele>
      </trkpt>
      <trkpt lat="47.14477" lon="-2.22855">
        <ele>2.95</ele>
      </trkpt>
      <trkpt lat="47.14477" lon="-2.22856">
        <ele>2.94</ele>
      </trkpt>
      <trkpt lat="47.14456" lon="-2.22789">
        <ele>4.82</ele>
      </trkpt>
      <trkpt lat="47.14407" lon="-2.22801">
        <ele>4.85</ele>
      </trkpt>
      <trkpt lat="47.14384" lon="-2.22805">
        <ele>4.94</ele>
      </trkpt>
      <trkpt lat="47.14363" lon="-2.22809">
        <ele>5.05</ele>
      </trkpt>
      <trkpt lat="47.14337" lon="-2.22814">
        <ele>5.21</ele>
      </trkpt>
      <trkpt lat="47.14283" lon="-2.22783">
        <ele>5.84</ele>
      </trkpt>
      <trkpt lat="47.14214" lon="-2.227">
        <ele>6.85</ele>
      </trkpt>
      <trkpt lat="47.14178" lon="-2.22655">
        <ele>7.88</ele>
      </trkpt>
      <trkpt lat="47.14122" lon="-2.2264">
        <ele>8.17</ele>
      </trkpt>
      <trkpt lat="47.14101" lon="-2.22635">
        <ele>8.3</ele>
      </trkpt>
      <trkpt lat="47.14022" lon="-2.22613">
        <ele>9.85</ele>
      </trkpt>
      <trkpt lat="47.13978" lon="-2.22611">
        <ele>10.68</ele>
      </trkpt>
      <trkpt lat="47.13969" lon="-2.22611">
        <ele>10.83</ele>
      </trkpt>
      <trkpt lat="47.13975" lon="-2.22651">
        <ele>9.92</ele>
      </trkpt>
      <trkpt lat="47.13971" lon="-2.22693">
        <ele>10.24</ele>
      </trkpt>
      <trkpt lat="47.13967" lon="-2.22793">
        <ele>12.1</ele>
      </trkpt>
      <trkpt lat="47.13962" lon="-2.2286">
        <ele>12.87</ele>
      </trkpt>
      <trkpt lat="47.1394" lon="-2.22929">
        <ele>13.55</ele>
      </trkpt>
      <trkpt lat="47.13963" lon="-2.2299">
        <ele>13.29</ele>
      </trkpt>
      <trkpt lat="47.13991" lon="-2.23061">
        <ele>12.32</ele>
      </trkpt>
      <trkpt lat="47.14025" lon="-2.23125">
        <ele>10.61</ele>
      </trkpt>
      <trkpt lat="47.14073" lon="-2.23194">
        <ele>8.65</ele>
      </trkpt>
      <trkpt lat="47.14123" lon="-2.23299">
        <ele>8.04</ele>
      </trkpt>
      <trkpt lat="47.14146" lon="-2.23359">
        <ele>6.41</ele>
      </trkpt>
      <trkpt lat="47.14098" lon="-2.2345">
        <ele>5.73</ele>
      </trkpt>
      <trkpt lat="47.14061" lon="-2.23538">
        <ele>3.76</ele>
      </trkpt>
      <trkpt lat="47.14021" lon="-2.23575">
        <ele>2.66</ele>
      </trkpt>
      <trkpt lat="47.13951" lon="-2.23608">
        <ele>3.67</ele>
      </trkpt>
      <trkpt lat="47.13921" lon="-2.23609">
        <ele>4.65</ele>
      </trkpt>
      <trkpt lat="47.13891" lon="-2.23578">
        <ele>6.71</ele>
      </trkpt>
      <trkpt lat="47.13797" lon="-2.23544">
        <ele>9.54</ele>
      </trkpt>
      <trkpt lat="47.13779" lon="-2.23537">
        <ele>10.21</ele>
      </trkpt>
      <trkpt lat="47.13687" lon="-2.23489">
        <ele>15.19</ele>
      </trkpt>
      <trkpt lat="47.13626" lon="-2.23464">
        <ele>15.74</ele>
      </trkpt>
      <trkpt lat="47.13571" lon="-2.23469">
        <ele>15.09</ele>
      </trkpt>
      <trkpt lat="47.13563" lon="-2.2362">
        <ele>16.14</ele>
      </trkpt>
      <trkpt lat="47.13569" lon="-2.23838">
        <ele>13.28</ele>
      </trkpt>
      <trkpt lat="47.13572" lon="-2.23997">
        <ele>10.35</ele>
      </trkpt>
      <trkpt lat="47.13575" lon="-2.2413">
        <ele>4.11</ele>
      </trkpt>
      <trkpt lat="47.13554" lon="-2.24261">
        <ele>2.72</ele>
      </trkpt>
      <trkpt lat="47.13569" lon="-2.24392">
        <ele>2.37</ele>
      </trkpt>
      <trkpt lat="47.13576" lon="-2.24487">
        <ele>3.89</ele>
      </trkpt>
      <trkpt lat="47.13574" lon="-2.24535">
        <ele>2.99</ele>
      </trkpt>
      <trkpt lat="47.13522" lon="-2.24519">
        <ele>4.95</ele>
      </trkpt>
      <trkpt lat="47.13516" lon="-2.24519">
        <ele>5.12</ele>
      </trkpt>
      <trkpt lat="47.1351" lon="-2.24518">
        <ele>5.31</ele>
      </trkpt>
      <trkpt lat="47.13504" lon="-2.24513">
        <ele>5.59</ele>
      </trkpt>
      <trkpt lat="47.13498" lon="-2.24505">
        <ele>5.93</ele>
      </trkpt>
      <trkpt lat="47.13491" lon="-2.24497">
        <ele>6.24</ele>
      </trkpt>
      <trkpt lat="47.13484" lon="-2.24489">
        <ele>6.51</ele>
      </trkpt>
      <trkpt lat="47.13481" lon="-2.24485">
        <ele>6.64</ele>
      </trkpt>
      <trkpt lat="47.13477" lon="-2.2448">
        <ele>6.78</ele>
      </trkpt>
      <trkpt lat="47.13474" lon="-2.24476">
        <ele>6.93</ele>
      </trkpt>
      <trkpt lat="47.1347" lon="-2.24471">
        <ele>7.07</ele>
      </trkpt>
      <trkpt lat="47.13466" lon="-2.24467">
        <ele>7.21</ele>
      </trkpt>
      <trkpt lat="47.13462" lon="-2.24463">
        <ele>7.35</ele>
      </trkpt>
      <trkpt lat="47.13458" lon="-2.24459">
        <ele>7.5</ele>
      </trkpt>
      <trkpt lat="47.13454" lon="-2.24455">
        <ele>7.63</ele>
      </trkpt>
      <trkpt lat="47.1345" lon="-2.24453">
        <ele>7.77</ele>
      </trkpt>
      <trkpt lat="47.13445" lon="-2.24451">
        <ele>7.89</ele>
      </trkpt>
      <trkpt lat="47.13441" lon="-2.2445">
        <ele>8.02</ele>
      </trkpt>
      <trkpt lat="47.13436" lon="-2.24449">
        <ele>8.15</ele>
      </trkpt>
      <trkpt lat="47.13431" lon="-2.24448">
        <ele>8.28</ele>
      </trkpt>
      <trkpt lat="47.13426" lon="-2.24446">
        <ele>8.42</ele>
      </trkpt>
      <trkpt lat="47.13421" lon="-2.24445">
        <ele>8.56</ele>
      </trkpt>
      <trkpt lat="47.13415" lon="-2.24444">
        <ele>8.7</ele>
      </trkpt>
      <trkpt lat="47.1341" lon="-2.24443">
        <ele>8.84</ele>
      </trkpt>
      <trkpt lat="47.13405" lon="-2.24442">
        <ele>8.98</ele>
      </trkpt>
      <trkpt lat="47.134" lon="-2.24441">
        <ele>9.12</ele>
      </trkpt>
      <trkpt lat="47.13395" lon="-2.24439">
        <ele>9.25</ele>
      </trkpt>
      <trkpt lat="47.1339" lon="-2.24438">
        <ele>9.39</ele>
      </trkpt>
      <trkpt lat="47.13385" lon="-2.24437">
        <ele>9.52</ele>
      </trkpt>
      <trkpt lat="47.13376" lon="-2.24434">
        <ele>9.76</ele>
      </trkpt>
      <trkpt lat="47.13368" lon="-2.24432">
        <ele>9.97</ele>
      </trkpt>
      <trkpt lat="47.13362" lon="-2.24432">
        <ele>10.13</ele>
      </trkpt>
      <trkpt lat="47.13356" lon="-2.24431">
        <ele>10.29</ele>
      </trkpt>
      <trkpt lat="47.13348" lon="-2.24429">
        <ele>10.5</ele>
      </trkpt>
      <trkpt lat="47.1334" lon="-2.24426">
        <ele>10.73</ele>
      </trkpt>
      <trkpt lat="47.13335" lon="-2.24425">
        <ele>10.85</ele>
      </trkpt>
      <trkpt lat="47.13331" lon="-2.24424">
        <ele>10.89</ele>
      </trkpt>
      <trkpt lat="47.13326" lon="-2.24422">
        <ele>10.85</ele>
      </trkpt>
      <trkpt lat="47.13321" lon="-2.24421">
        <ele>10.81</ele>
      </trkpt>
      <trkpt lat="47.13317" lon="-2.24419">
        <ele>10.78</ele>
      </trkpt>
      <trkpt lat="47.13312" lon="-2.24418">
        <ele>10.73</ele>
      </trkpt>
      <trkpt lat="47.13307" lon="-2.24417">
        <ele>10.69</ele>
      </trkpt>
      <trkpt lat="47.13303" lon="-2.24415">
        <ele>10.61</ele>
      </trkpt>
      <trkpt lat="47.13298" lon="-2.24413">
        <ele>10.52</ele>
      </trkpt>
      <trkpt lat="47.13294" lon="-2.24411">
        <ele>10.43</ele>
      </trkpt>
      <trkpt lat="47.13289" lon="-2.24409">
        <ele>10.33</ele>
      </trkpt>
      <trkpt lat="47.13285" lon="-2.24408">
        <ele>10.23</ele>
      </trkpt>
      <trkpt lat="47.13276" lon="-2.24404">
        <ele>10.01</ele>
      </trkpt>
      <trkpt lat="47.13268" lon="-2.24401">
        <ele>9.78</ele>
      </trkpt>
      <trkpt lat="47.1326" lon="-2.24397">
        <ele>9.52</ele>
      </trkpt>
      <trkpt lat="47.13255" lon="-2.24389">
        <ele>9.11</ele>
      </trkpt>
      <trkpt lat="47.13253" lon="-2.24377">
        <ele>8.67</ele>
      </trkpt>
      <trkpt lat="47.13252" lon="-2.24366">
        <ele>8.23</ele>
      </trkpt>
      <trkpt lat="47.13249" lon="-2.24356">
        <ele>7.75</ele>
      </trkpt>
      <trkpt lat="47.1325" lon="-2.24346">
        <ele>7.44</ele>
      </trkpt>
      <trkpt lat="47.13253" lon="-2.24333">
        <ele>7.13</ele>
      </trkpt>
      <trkpt lat="47.13254" lon="-2.24327">
        <ele>6.96</ele>
      </trkpt>
      <trkpt lat="47.13255" lon="-2.2432">
        <ele>6.78</ele>
      </trkpt>
      <trkpt lat="47.13256" lon="-2.24313">
        <ele>6.6</ele>
      </trkpt>
      <trkpt lat="47.13258" lon="-2.24305">
        <ele>6.42</ele>
      </trkpt>
      <trkpt lat="47.13259" lon="-2.24298">
        <ele>6.24</ele>
      </trkpt>
      <trkpt lat="47.1326" lon="-2.2429">
        <ele>6.07</ele>
      </trkpt>
      <trkpt lat="47.13262" lon="-2.24283">
        <ele>5.92</ele>
      </trkpt>
      <trkpt lat="47.13263" lon="-2.24275">
        <ele>5.75</ele>
      </trkpt>
      <trkpt lat="47.13265" lon="-2.24267">
        <ele>5.6</ele>
      </trkpt>
      <trkpt lat="47.13266" lon="-2.24259">
        <ele>5.45</ele>
      </trkpt>
      <trkpt lat="47.13268" lon="-2.24251">
        <ele>5.3</ele>
      </trkpt>
      <trkpt lat="47.13269" lon="-2.24243">
        <ele>5.12</ele>
      </trkpt>
      <trkpt lat="47.13271" lon="-2.24235">
        <ele>4.94</ele>
      </trkpt>
      <trkpt lat="47.13272" lon="-2.24227">
        <ele>4.79</ele>
      </trkpt>
      <trkpt lat="47.13274" lon="-2.24219">
        <ele>4.65</ele>
      </trkpt>
      <trkpt lat="47.13275" lon="-2.24211">
        <ele>4.53</ele>
      </trkpt>
      <trkpt lat="47.13277" lon="-2.24203">
        <ele>4.47</ele>
      </trkpt>
      <trkpt lat="47.1328" lon="-2.24196">
        <ele>4.45</ele>
      </trkpt>
      <trkpt lat="47.13281" lon="-2.24188">
        <ele>4.42</ele>
      </trkpt>
      <trkpt lat="47.13283" lon="-2.2418">
        <ele>4.35</ele>
      </trkpt>
      <trkpt lat="47.13284" lon="-2.24173">
        <ele>4.31</ele>
      </trkpt>
      <trkpt lat="47.13286" lon="-2.24166">
        <ele>4.33</ele>
      </trkpt>
      <trkpt lat="47.13288" lon="-2.24159">
        <ele>4.54</ele>
      </trkpt>
      <trkpt lat="47.1329" lon="-2.24153">
        <ele>4.76</ele>
      </trkpt>
      <trkpt lat="47.13295" lon="-2.24143">
        <ele>5.45</ele>
      </trkpt>
      <trkpt lat="47.13301" lon="-2.24135">
        <ele>6.18</ele>
      </trkpt>
      <trkpt lat="47.13307" lon="-2.24129">
        <ele>6.8</ele>
      </trkpt>
      <trkpt lat="47.13311" lon="-2.24124">
        <ele>7.31</ele>
      </trkpt>
      <trkpt lat="47.13315" lon="-2.24119">
        <ele>7.78</ele>
      </trkpt>
      <trkpt lat="47.1332" lon="-2.24111">
        <ele>8.34</ele>
      </trkpt>
      <trkpt lat="47.13323" lon="-2.24105">
        <ele>8.8</ele>
      </trkpt>
      <trkpt lat="47.13327" lon="-2.24099">
        <ele>9.26</ele>
      </trkpt>
      <trkpt lat="47.13331" lon="-2.24093">
        <ele>9.73</ele>
      </trkpt>
      <trkpt lat="47.13335" lon="-2.24087">
        <ele>10</ele>
      </trkpt>
      <trkpt lat="47.13339" lon="-2.2408">
        <ele>9.97</ele>
      </trkpt>
      <trkpt lat="47.13343" lon="-2.24074">
        <ele>9.92</ele>
      </trkpt>
      <trkpt lat="47.13347" lon="-2.24067">
        <ele>9.9</ele>
      </trkpt>
      <trkpt lat="47.13351" lon="-2.2406">
        <ele>9.9</ele>
      </trkpt>
      <trkpt lat="47.13355" lon="-2.24053">
        <ele>9.92</ele>
      </trkpt>
      <trkpt lat="47.13358" lon="-2.24046">
        <ele>9.96</ele>
      </trkpt>
      <trkpt lat="47.13362" lon="-2.24039">
        <ele>10.01</ele>
      </trkpt>
      <trkpt lat="47.13365" lon="-2.24032">
        <ele>10.08</ele>
      </trkpt>
      <trkpt lat="47.13367" lon="-2.24024">
        <ele>10.15</ele>
      </trkpt>
      <trkpt lat="47.1337" lon="-2.24016">
        <ele>10.25</ele>
      </trkpt>
      <trkpt lat="47.13372" lon="-2.24009">
        <ele>10.34</ele>
      </trkpt>
      <trkpt lat="47.13374" lon="-2.24002">
        <ele>10.45</ele>
      </trkpt>
      <trkpt lat="47.13376" lon="-2.23994">
        <ele>10.62</ele>
      </trkpt>
      <trkpt lat="47.13377" lon="-2.23987">
        <ele>10.81</ele>
      </trkpt>
      <trkpt lat="47.13379" lon="-2.2398">
        <ele>10.98</ele>
      </trkpt>
      <trkpt lat="47.1338" lon="-2.23973">
        <ele>11.14</ele>
      </trkpt>
      <trkpt lat="47.13381" lon="-2.23967">
        <ele>11.3</ele>
      </trkpt>
      <trkpt lat="47.13383" lon="-2.2396">
        <ele>11.45</ele>
      </trkpt>
      <trkpt lat="47.13385" lon="-2.23949">
        <ele>11.7</ele>
      </trkpt>
      <trkpt lat="47.13384" lon="-2.23939">
        <ele>11.85</ele>
      </trkpt>
      <trkpt lat="47.13381" lon="-2.23932">
        <ele>11.87</ele>
      </trkpt>
      <trkpt lat="47.13374" lon="-2.23932">
        <ele>11.71</ele>
      </trkpt>
      <trkpt lat="47.13369" lon="-2.23934">
        <ele>11.52</ele>
      </trkpt>
      <trkpt lat="47.13363" lon="-2.23936">
        <ele>11.35</ele>
      </trkpt>
      <trkpt lat="47.13359" lon="-2.23936">
        <ele>11.21</ele>
      </trkpt>
      <trkpt lat="47.13353" lon="-2.23937">
        <ele>11.05</ele>
      </trkpt>
      <trkpt lat="47.1335" lon="-2.23937">
        <ele>10.94</ele>
      </trkpt>
      <trkpt lat="47.13344" lon="-2.23939">
        <ele>10.73</ele>
      </trkpt>
      <trkpt lat="47.13336" lon="-2.23941">
        <ele>10.48</ele>
      </trkpt>
      <trkpt lat="47.13327" lon="-2.23943">
        <ele>10.01</ele>
      </trkpt>
      <trkpt lat="47.13319" lon="-2.23942">
        <ele>9.52</ele>
      </trkpt>
      <trkpt lat="47.13315" lon="-2.23938">
        <ele>9.4</ele>
      </trkpt>
      <trkpt lat="47.13313" lon="-2.23932">
        <ele>9.39</ele>
      </trkpt>
      <trkpt lat="47.13311" lon="-2.23924">
        <ele>9.5</ele>
      </trkpt>
      <trkpt lat="47.13311" lon="-2.23916">
        <ele>9.66</ele>
      </trkpt>
      <trkpt lat="47.1331" lon="-2.23907">
        <ele>9.99</ele>
      </trkpt>
      <trkpt lat="47.13309" lon="-2.23898">
        <ele>10.33</ele>
      </trkpt>
      <trkpt lat="47.13308" lon="-2.23889">
        <ele>10.68</ele>
      </trkpt>
      <trkpt lat="47.13307" lon="-2.2388">
        <ele>11.05</ele>
      </trkpt>
      <trkpt lat="47.13307" lon="-2.2387">
        <ele>11.42</ele>
      </trkpt>
      <trkpt lat="47.13306" lon="-2.23861">
        <ele>11.79</ele>
      </trkpt>
      <trkpt lat="47.13305" lon="-2.23852">
        <ele>12.15</ele>
      </trkpt>
      <trkpt lat="47.13304" lon="-2.23843">
        <ele>12.52</ele>
      </trkpt>
      <trkpt lat="47.13303" lon="-2.23834">
        <ele>12.88</ele>
      </trkpt>
      <trkpt lat="47.13303" lon="-2.23825">
        <ele>13.19</ele>
      </trkpt>
      <trkpt lat="47.13302" lon="-2.23817">
        <ele>13.47</ele>
      </trkpt>
      <trkpt lat="47.13301" lon="-2.23808">
        <ele>13.76</ele>
      </trkpt>
      <trkpt lat="47.13301" lon="-2.238">
        <ele>14.04</ele>
      </trkpt>
      <trkpt lat="47.133" lon="-2.23791">
        <ele>14.31</ele>
      </trkpt>
      <trkpt lat="47.13299" lon="-2.23783">
        <ele>14.58</ele>
      </trkpt>
      <trkpt lat="47.13298" lon="-2.23774">
        <ele>14.85</ele>
      </trkpt>
      <trkpt lat="47.13297" lon="-2.23766">
        <ele>15.12</ele>
      </trkpt>
      <trkpt lat="47.13296" lon="-2.23758">
        <ele>15.38</ele>
      </trkpt>
      <trkpt lat="47.13296" lon="-2.2375">
        <ele>15.64</ele>
      </trkpt>
      <trkpt lat="47.13295" lon="-2.23742">
        <ele>15.8</ele>
      </trkpt>
      <trkpt lat="47.13294" lon="-2.23734">
        <ele>15.96</ele>
      </trkpt>
      <trkpt lat="47.13294" lon="-2.23726">
        <ele>16.12</ele>
      </trkpt>
      <trkpt lat="47.13292" lon="-2.23719">
        <ele>16.27</ele>
      </trkpt>
      <trkpt lat="47.13291" lon="-2.23712">
        <ele>16.41</ele>
      </trkpt>
      <trkpt lat="47.13291" lon="-2.23705">
        <ele>16.56</ele>
      </trkpt>
      <trkpt lat="47.13289" lon="-2.23692">
        <ele>16.86</ele>
      </trkpt>
      <trkpt lat="47.13288" lon="-2.2368">
        <ele>17.13</ele>
      </trkpt>
      <trkpt lat="47.13288" lon="-2.23659">
        <ele>17.51</ele>
      </trkpt>
      <trkpt lat="47.13281" lon="-2.23657">
        <ele>17.42</ele>
      </trkpt>
      <trkpt lat="47.13274" lon="-2.23657">
        <ele>17.32</ele>
      </trkpt>
      <trkpt lat="47.13266" lon="-2.23657">
        <ele>17.22</ele>
      </trkpt>
      <trkpt lat="47.13259" lon="-2.23657">
        <ele>17.12</ele>
      </trkpt>
      <trkpt lat="47.13251" lon="-2.23657">
        <ele>17.01</ele>
      </trkpt>
      <trkpt lat="47.13243" lon="-2.23657">
        <ele>16.67</ele>
      </trkpt>
      <trkpt lat="47.13235" lon="-2.23657">
        <ele>16.28</ele>
      </trkpt>
      <trkpt lat="47.13228" lon="-2.23658">
        <ele>15.92</ele>
      </trkpt>
      <trkpt lat="47.13221" lon="-2.23659">
        <ele>15.57</ele>
      </trkpt>
      <trkpt lat="47.13214" lon="-2.2366">
        <ele>15.23</ele>
      </trkpt>
      <trkpt lat="47.13207" lon="-2.23661">
        <ele>14.9</ele>
      </trkpt>
      <trkpt lat="47.132" lon="-2.23663">
        <ele>14.59</ele>
      </trkpt>
      <trkpt lat="47.13194" lon="-2.23664">
        <ele>14.27</ele>
      </trkpt>
      <trkpt lat="47.13186" lon="-2.23665">
        <ele>13.94</ele>
      </trkpt>
      <trkpt lat="47.13179" lon="-2.23666">
        <ele>13.6</ele>
      </trkpt>
      <trkpt lat="47.13173" lon="-2.23661">
        <ele>13.23</ele>
      </trkpt>
      <trkpt lat="47.1317" lon="-2.23656">
        <ele>13.06</ele>
      </trkpt>
      <trkpt lat="47.13168" lon="-2.23651">
        <ele>12.9</ele>
      </trkpt>
      <trkpt lat="47.13166" lon="-2.23639">
        <ele>12.65</ele>
      </trkpt>
      <trkpt lat="47.13165" lon="-2.23627">
        <ele>12.34</ele>
      </trkpt>
      <trkpt lat="47.13163" lon="-2.23615">
        <ele>12.05</ele>
      </trkpt>
      <trkpt lat="47.13162" lon="-2.23604">
        <ele>11.79</ele>
      </trkpt>
      <trkpt lat="47.13161" lon="-2.23593">
        <ele>11.53</ele>
      </trkpt>
      <trkpt lat="47.1316" lon="-2.23581">
        <ele>11.28</ele>
      </trkpt>
      <trkpt lat="47.1316" lon="-2.2357">
        <ele>10.99</ele>
      </trkpt>
      <trkpt lat="47.1316" lon="-2.23558">
        <ele>10.74</ele>
      </trkpt>
      <trkpt lat="47.13161" lon="-2.23547">
        <ele>10.55</ele>
      </trkpt>
      <trkpt lat="47.13161" lon="-2.23536">
        <ele>10.36</ele>
      </trkpt>
      <trkpt lat="47.13162" lon="-2.23525">
        <ele>10.14</ele>
      </trkpt>
      <trkpt lat="47.13162" lon="-2.23515">
        <ele>9.92</ele>
      </trkpt>
      <trkpt lat="47.13163" lon="-2.23505">
        <ele>9.79</ele>
      </trkpt>
      <trkpt lat="47.13164" lon="-2.23495">
        <ele>9.45</ele>
      </trkpt>
      <trkpt lat="47.13165" lon="-2.23487">
        <ele>8.94</ele>
      </trkpt>
      <trkpt lat="47.13164" lon="-2.23478">
        <ele>8.21</ele>
      </trkpt>
      <trkpt lat="47.13164" lon="-2.23472">
        <ele>7.8</ele>
      </trkpt>
      <trkpt lat="47.1317" lon="-2.23467">
        <ele>7.86</ele>
      </trkpt>
      <trkpt lat="47.13173" lon="-2.23461">
        <ele>7.71</ele>
      </trkpt>
      <trkpt lat="47.13178" lon="-2.23454">
        <ele>7.61</ele>
      </trkpt>
      <trkpt lat="47.13183" lon="-2.23446">
        <ele>7.56</ele>
      </trkpt>
      <trkpt lat="47.13187" lon="-2.23438">
        <ele>7.46</ele>
      </trkpt>
      <trkpt lat="47.13189" lon="-2.23429">
        <ele>7.16</ele>
      </trkpt>
      <trkpt lat="47.1319" lon="-2.23419">
        <ele>6.63</ele>
      </trkpt>
      <trkpt lat="47.1319" lon="-2.2341">
        <ele>6.47</ele>
      </trkpt>
      <trkpt lat="47.1319" lon="-2.23401">
        <ele>6.34</ele>
      </trkpt>
      <trkpt lat="47.13189" lon="-2.23391">
        <ele>6.24</ele>
      </trkpt>
      <trkpt lat="47.1319" lon="-2.23381">
        <ele>6.21</ele>
      </trkpt>
      <trkpt lat="47.13191" lon="-2.23371">
        <ele>6.27</ele>
      </trkpt>
      <trkpt lat="47.13193" lon="-2.23363">
        <ele>6.43</ele>
      </trkpt>
      <trkpt lat="47.13196" lon="-2.23358">
        <ele>6.71</ele>
      </trkpt>
      <trkpt lat="47.13197" lon="-2.23352">
        <ele>6.78</ele>
      </trkpt>
      <trkpt lat="47.13196" lon="-2.23345">
        <ele>6.57</ele>
      </trkpt>
      <trkpt lat="47.13192" lon="-2.23339">
        <ele>6.12</ele>
      </trkpt>
      <trkpt lat="47.13188" lon="-2.2333">
        <ele>5.78</ele>
      </trkpt>
      <trkpt lat="47.13184" lon="-2.23319">
        <ele>5.94</ele>
      </trkpt>
      <trkpt lat="47.13181" lon="-2.23308">
        <ele>6.24</ele>
      </trkpt>
      <trkpt lat="47.1318" lon="-2.23302">
        <ele>6.46</ele>
      </trkpt>
      <trkpt lat="47.13178" lon="-2.23295">
        <ele>6.71</ele>
      </trkpt>
      <trkpt lat="47.13177" lon="-2.23287">
        <ele>7.05</ele>
      </trkpt>
      <trkpt lat="47.13177" lon="-2.23279">
        <ele>7.45</ele>
      </trkpt>
      <trkpt lat="47.13176" lon="-2.2327">
        <ele>7.91</ele>
      </trkpt>
      <trkpt lat="47.13175" lon="-2.2326">
        <ele>8.38</ele>
      </trkpt>
      <trkpt lat="47.13175" lon="-2.23251">
        <ele>8.9</ele>
      </trkpt>
      <trkpt lat="47.13174" lon="-2.23241">
        <ele>9.19</ele>
      </trkpt>
      <trkpt lat="47.13173" lon="-2.23232">
        <ele>9.45</ele>
      </trkpt>
      <trkpt lat="47.13173" lon="-2.23222">
        <ele>9.71</ele>
      </trkpt>
      <trkpt lat="47.13172" lon="-2.23212">
        <ele>9.97</ele>
      </trkpt>
      <trkpt lat="47.13171" lon="-2.23202">
        <ele>10.24</ele>
      </trkpt>
      <trkpt lat="47.1317" lon="-2.23193">
        <ele>10.5</ele>
      </trkpt>
      <trkpt lat="47.1317" lon="-2.23183">
        <ele>10.8</ele>
      </trkpt>
      <trkpt lat="47.1317" lon="-2.23174">
        <ele>11.07</ele>
      </trkpt>
      <trkpt lat="47.13169" lon="-2.23165">
        <ele>11.25</ele>
      </trkpt>
      <trkpt lat="47.13168" lon="-2.23157">
        <ele>11.05</ele>
      </trkpt>
      <trkpt lat="47.13167" lon="-2.23148">
        <ele>10.83</ele>
      </trkpt>
      <trkpt lat="47.13166" lon="-2.2314">
        <ele>10.64</ele>
      </trkpt>
      <trkpt lat="47.13166" lon="-2.23132">
        <ele>10.44</ele>
      </trkpt>
      <trkpt lat="47.13165" lon="-2.23125">
        <ele>10.31</ele>
      </trkpt>
      <trkpt lat="47.13165" lon="-2.23117">
        <ele>10.17</ele>
      </trkpt>
      <trkpt lat="47.13164" lon="-2.23109">
        <ele>10.02</ele>
      </trkpt>
      <trkpt lat="47.13164" lon="-2.23102">
        <ele>9.9</ele>
      </trkpt>
      <trkpt lat="47.13163" lon="-2.23089">
        <ele>9.69</ele>
      </trkpt>
      <trkpt lat="47.13164" lon="-2.23077">
        <ele>9.85</ele>
      </trkpt>
      <trkpt lat="47.13165" lon="-2.23067">
        <ele>10.17</ele>
      </trkpt>
      <trkpt lat="47.13165" lon="-2.2306">
        <ele>10.37</ele>
      </trkpt>
      <trkpt lat="47.13165" lon="-2.23052">
        <ele>10.49</ele>
      </trkpt>
      <trkpt lat="47.13164" lon="-2.23044">
        <ele>10.6</ele>
      </trkpt>
      <trkpt lat="47.13163" lon="-2.23036">
        <ele>10.66</ele>
      </trkpt>
      <trkpt lat="47.1316" lon="-2.23026">
        <ele>10.52</ele>
      </trkpt>
      <trkpt lat="47.13157" lon="-2.23016">
        <ele>10.31</ele>
      </trkpt>
      <trkpt lat="47.13154" lon="-2.23006">
        <ele>10.06</ele>
      </trkpt>
      <trkpt lat="47.13151" lon="-2.22995">
        <ele>9.87</ele>
      </trkpt>
      <trkpt lat="47.13148" lon="-2.22985">
        <ele>9.68</ele>
      </trkpt>
      <trkpt lat="47.13144" lon="-2.22974">
        <ele>9.43</ele>
      </trkpt>
      <trkpt lat="47.13141" lon="-2.22964">
        <ele>9.18</ele>
      </trkpt>
      <trkpt lat="47.13137" lon="-2.22954">
        <ele>8.87</ele>
      </trkpt>
      <trkpt lat="47.13134" lon="-2.22943">
        <ele>8.61</ele>
      </trkpt>
      <trkpt lat="47.13132" lon="-2.22932">
        <ele>8.37</ele>
      </trkpt>
      <trkpt lat="47.13129" lon="-2.22921">
        <ele>8.2</ele>
      </trkpt>
      <trkpt lat="47.13127" lon="-2.2291">
        <ele>8.01</ele>
      </trkpt>
      <trkpt lat="47.13126" lon="-2.22899">
        <ele>7.96</ele>
      </trkpt>
      <trkpt lat="47.13125" lon="-2.22888">
        <ele>7.99</ele>
      </trkpt>
      <trkpt lat="47.13124" lon="-2.22876">
        <ele>8.12</ele>
      </trkpt>
      <trkpt lat="47.13124" lon="-2.22865">
        <ele>8.26</ele>
      </trkpt>
      <trkpt lat="47.13124" lon="-2.22854">
        <ele>8.43</ele>
      </trkpt>
      <trkpt lat="47.13124" lon="-2.22843">
        <ele>8.67</ele>
      </trkpt>
      <trkpt lat="47.13124" lon="-2.22832">
        <ele>8.86</ele>
      </trkpt>
      <trkpt lat="47.13124" lon="-2.2282">
        <ele>8.85</ele>
      </trkpt>
      <trkpt lat="47.13125" lon="-2.22809">
        <ele>8.88</ele>
      </trkpt>
      <trkpt lat="47.13126" lon="-2.22798">
        <ele>8.95</ele>
      </trkpt>
      <trkpt lat="47.13127" lon="-2.22787">
        <ele>9</ele>
      </trkpt>
      <trkpt lat="47.13128" lon="-2.22776">
        <ele>9.06</ele>
      </trkpt>
      <trkpt lat="47.13129" lon="-2.22764">
        <ele>9.12</ele>
      </trkpt>
      <trkpt lat="47.1313" lon="-2.22753">
        <ele>9.15</ele>
      </trkpt>
      <trkpt lat="47.1313" lon="-2.22741">
        <ele>9.15</ele>
      </trkpt>
      <trkpt lat="47.1313" lon="-2.22728">
        <ele>9.03</ele>
      </trkpt>
      <trkpt lat="47.1313" lon="-2.22716">
        <ele>8.85</ele>
      </trkpt>
      <trkpt lat="47.13128" lon="-2.22704">
        <ele>8.55</ele>
      </trkpt>
      <trkpt lat="47.13125" lon="-2.22692">
        <ele>8.13</ele>
      </trkpt>
      <trkpt lat="47.13121" lon="-2.22682">
        <ele>7.64</ele>
      </trkpt>
      <trkpt lat="47.13116" lon="-2.22672">
        <ele>7.11</ele>
      </trkpt>
      <trkpt lat="47.1311" lon="-2.22663">
        <ele>6.79</ele>
      </trkpt>
      <trkpt lat="47.13105" lon="-2.22654">
        <ele>6.7</ele>
      </trkpt>
      <trkpt lat="47.13099" lon="-2.22644">
        <ele>6.74</ele>
      </trkpt>
      <trkpt lat="47.13094" lon="-2.22634">
        <ele>6.8</ele>
      </trkpt>
      <trkpt lat="47.13088" lon="-2.22625">
        <ele>6.89</ele>
      </trkpt>
      <trkpt lat="47.13082" lon="-2.22615">
        <ele>7.04</ele>
      </trkpt>
      <trkpt lat="47.1308" lon="-2.2261">
        <ele>7.14</ele>
      </trkpt>
      <trkpt lat="47.13077" lon="-2.22605">
        <ele>7.21</ele>
      </trkpt>
      <trkpt lat="47.13074" lon="-2.226">
        <ele>7.27</ele>
      </trkpt>
      <trkpt lat="47.13071" lon="-2.22594">
        <ele>7.32</ele>
      </trkpt>
      <trkpt lat="47.13067" lon="-2.22589">
        <ele>7.35</ele>
      </trkpt>
      <trkpt lat="47.13064" lon="-2.22583">
        <ele>7.37</ele>
      </trkpt>
      <trkpt lat="47.1306" lon="-2.22577">
        <ele>7.38</ele>
      </trkpt>
      <trkpt lat="47.13056" lon="-2.22572">
        <ele>7.35</ele>
      </trkpt>
      <trkpt lat="47.13052" lon="-2.22567">
        <ele>7.32</ele>
      </trkpt>
      <trkpt lat="47.13049" lon="-2.22562">
        <ele>7.33</ele>
      </trkpt>
      <trkpt lat="47.13046" lon="-2.22557">
        <ele>7.39</ele>
      </trkpt>
      <trkpt lat="47.13039" lon="-2.22547">
        <ele>7.5</ele>
      </trkpt>
      <trkpt lat="47.13034" lon="-2.22539">
        <ele>7.6</ele>
      </trkpt>
      <trkpt lat="47.13028" lon="-2.2253">
        <ele>7.76</ele>
      </trkpt>
      <trkpt lat="47.13023" lon="-2.22522">
        <ele>7.97</ele>
      </trkpt>
      <trkpt lat="47.13018" lon="-2.22513">
        <ele>8.22</ele>
      </trkpt>
      <trkpt lat="47.13013" lon="-2.22504">
        <ele>8.48</ele>
      </trkpt>
      <trkpt lat="47.13007" lon="-2.22496">
        <ele>8.62</ele>
      </trkpt>
      <trkpt lat="47.13003" lon="-2.22486">
        <ele>8.83</ele>
      </trkpt>
      <trkpt lat="47.12999" lon="-2.22476">
        <ele>9.06</ele>
      </trkpt>
      <trkpt lat="47.12996" lon="-2.22465">
        <ele>9.21</ele>
      </trkpt>
      <trkpt lat="47.12992" lon="-2.22455">
        <ele>9.26</ele>
      </trkpt>
      <trkpt lat="47.12989" lon="-2.22446">
        <ele>9.31</ele>
      </trkpt>
      <trkpt lat="47.12986" lon="-2.22435">
        <ele>9.38</ele>
      </trkpt>
      <trkpt lat="47.12983" lon="-2.22426">
        <ele>9.42</ele>
      </trkpt>
      <trkpt lat="47.1298" lon="-2.22416">
        <ele>9.36</ele>
      </trkpt>
      <trkpt lat="47.12977" lon="-2.22406">
        <ele>9.33</ele>
      </trkpt>
      <trkpt lat="47.12973" lon="-2.22395">
        <ele>9.34</ele>
      </trkpt>
      <trkpt lat="47.1297" lon="-2.22385">
        <ele>9.38</ele>
      </trkpt>
      <trkpt lat="47.12966" lon="-2.22376">
        <ele>9.33</ele>
      </trkpt>
      <trkpt lat="47.12961" lon="-2.22368">
        <ele>9.09</ele>
      </trkpt>
      <trkpt lat="47.12954" lon="-2.22362">
        <ele>8.73</ele>
      </trkpt>
      <trkpt lat="47.12948" lon="-2.22357">
        <ele>8.33</ele>
      </trkpt>
      <trkpt lat="47.12941" lon="-2.22353">
        <ele>7.9</ele>
      </trkpt>
      <trkpt lat="47.12934" lon="-2.22347">
        <ele>7.63</ele>
      </trkpt>
      <trkpt lat="47.12928" lon="-2.2234">
        <ele>7.52</ele>
      </trkpt>
      <trkpt lat="47.12923" lon="-2.22333">
        <ele>7.52</ele>
      </trkpt>
      <trkpt lat="47.12917" lon="-2.22327">
        <ele>7.42</ele>
      </trkpt>
      <trkpt lat="47.12911" lon="-2.22321">
        <ele>7.27</ele>
      </trkpt>
      <trkpt lat="47.12906" lon="-2.22314">
        <ele>7.18</ele>
      </trkpt>
      <trkpt lat="47.12902" lon="-2.22308">
        <ele>7.15</ele>
      </trkpt>
      <trkpt lat="47.12897" lon="-2.22301">
        <ele>7.13</ele>
      </trkpt>
      <trkpt lat="47.12893" lon="-2.22295">
        <ele>7.12</ele>
      </trkpt>
      <trkpt lat="47.12888" lon="-2.22288">
        <ele>7.14</ele>
      </trkpt>
      <trkpt lat="47.12883" lon="-2.22281">
        <ele>7.23</ele>
      </trkpt>
      <trkpt lat="47.12878" lon="-2.22273">
        <ele>7.26</ele>
      </trkpt>
      <trkpt lat="47.12873" lon="-2.22265">
        <ele>7.36</ele>
      </trkpt>
      <trkpt lat="47.12868" lon="-2.22256">
        <ele>7.47</ele>
      </trkpt>
      <trkpt lat="47.12862" lon="-2.22248">
        <ele>7.56</ele>
      </trkpt>
      <trkpt lat="47.12857" lon="-2.2224">
        <ele>7.51</ele>
      </trkpt>
      <trkpt lat="47.12851" lon="-2.22232">
        <ele>7.47</ele>
      </trkpt>
      <trkpt lat="47.12845" lon="-2.22225">
        <ele>7.45</ele>
      </trkpt>
      <trkpt lat="47.12839" lon="-2.22218">
        <ele>7.37</ele>
      </trkpt>
      <trkpt lat="47.12833" lon="-2.22212">
        <ele>7.31</ele>
      </trkpt>
      <trkpt lat="47.12828" lon="-2.22204">
        <ele>7.27</ele>
      </trkpt>
      <trkpt lat="47.12822" lon="-2.22196">
        <ele>7.17</ele>
      </trkpt>
      <trkpt lat="47.12817" lon="-2.22188">
        <ele>7.01</ele>
      </trkpt>
      <trkpt lat="47.12812" lon="-2.2218">
        <ele>6.77</ele>
      </trkpt>
      <trkpt lat="47.12806" lon="-2.22174">
        <ele>6.46</ele>
      </trkpt>
      <trkpt lat="47.12801" lon="-2.22166">
        <ele>6.16</ele>
      </trkpt>
      <trkpt lat="47.12798" lon="-2.22157">
        <ele>6.19</ele>
      </trkpt>
      <trkpt lat="47.12798" lon="-2.22147">
        <ele>6.63</ele>
      </trkpt>
      <trkpt lat="47.12798" lon="-2.22137">
        <ele>7.14</ele>
      </trkpt>
      <trkpt lat="47.12799" lon="-2.22128">
        <ele>7.65</ele>
      </trkpt>
      <trkpt lat="47.12801" lon="-2.2212">
        <ele>8.07</ele>
      </trkpt>
      <trkpt lat="47.12801" lon="-2.22112">
        <ele>8.44</ele>
      </trkpt>
      <trkpt lat="47.12803" lon="-2.22105">
        <ele>8.8</ele>
      </trkpt>
      <trkpt lat="47.12804" lon="-2.22096">
        <ele>9.18</ele>
      </trkpt>
      <trkpt lat="47.12802" lon="-2.2209">
        <ele>9.36</ele>
      </trkpt>
      <trkpt lat="47.12798" lon="-2.22086">
        <ele>9.45</ele>
      </trkpt>
      <trkpt lat="47.12792" lon="-2.22079">
        <ele>9.65</ele>
      </trkpt>
      <trkpt lat="47.12787" lon="-2.22075">
        <ele>9.74</ele>
      </trkpt>
      <trkpt lat="47.12782" lon="-2.22075">
        <ele>9.7</ele>
      </trkpt>
      <trkpt lat="47.12776" lon="-2.22075">
        <ele>9.64</ele>
      </trkpt>
      <trkpt lat="47.1277" lon="-2.22075">
        <ele>9.57</ele>
      </trkpt>
      <trkpt lat="47.12763" lon="-2.22076">
        <ele>9.49</ele>
      </trkpt>
      <trkpt lat="47.12757" lon="-2.22076">
        <ele>9.4</ele>
      </trkpt>
      <trkpt lat="47.12751" lon="-2.22077">
        <ele>9.33</ele>
      </trkpt>
      <trkpt lat="47.12746" lon="-2.22077">
        <ele>9.21</ele>
      </trkpt>
      <trkpt lat="47.12737" lon="-2.22077">
        <ele>8.98</ele>
      </trkpt>
      <trkpt lat="47.12731" lon="-2.22077">
        <ele>8.88</ele>
      </trkpt>
      <trkpt lat="47.12726" lon="-2.22077">
        <ele>8.73</ele>
      </trkpt>
      <trkpt lat="47.12719" lon="-2.22079">
        <ele>8.48</ele>
      </trkpt>
      <trkpt lat="47.1271" lon="-2.22079">
        <ele>8.26</ele>
      </trkpt>
      <trkpt lat="47.12706" lon="-2.2208">
        <ele>8.13</ele>
      </trkpt>
      <trkpt lat="47.12701" lon="-2.2208">
        <ele>8</ele>
      </trkpt>
      <trkpt lat="47.12696" lon="-2.2208">
        <ele>7.87</ele>
      </trkpt>
      <trkpt lat="47.12692" lon="-2.22081">
        <ele>7.74</ele>
      </trkpt>
      <trkpt lat="47.12687" lon="-2.22081">
        <ele>7.61</ele>
      </trkpt>
      <trkpt lat="47.12682" lon="-2.22082">
        <ele>7.48</ele>
      </trkpt>
      <trkpt lat="47.12678" lon="-2.22082">
        <ele>7.35</ele>
      </trkpt>
      <trkpt lat="47.12669" lon="-2.22082">
        <ele>7.1</ele>
      </trkpt>
      <trkpt lat="47.1266" lon="-2.22083">
        <ele>6.69</ele>
      </trkpt>
      <trkpt lat="47.12651" lon="-2.22084">
        <ele>6.2</ele>
      </trkpt>
      <trkpt lat="47.12647" lon="-2.22084">
        <ele>5.95</ele>
      </trkpt>
      <trkpt lat="47.12642" lon="-2.22085">
        <ele>5.69</ele>
      </trkpt>
      <trkpt lat="47.12637" lon="-2.22085">
        <ele>5.46</ele>
      </trkpt>
      <trkpt lat="47.12632" lon="-2.22085">
        <ele>5.22</ele>
      </trkpt>
      <trkpt lat="47.12628" lon="-2.22085">
        <ele>4.99</ele>
      </trkpt>
      <trkpt lat="47.12623" lon="-2.22085">
        <ele>4.78</ele>
      </trkpt>
      <trkpt lat="47.12618" lon="-2.22085">
        <ele>4.59</ele>
      </trkpt>
      <trkpt lat="47.12614" lon="-2.22084">
        <ele>4.42</ele>
      </trkpt>
      <trkpt lat="47.12609" lon="-2.22083">
        <ele>4.27</ele>
      </trkpt>
      <trkpt lat="47.12605" lon="-2.22082">
        <ele>4.15</ele>
      </trkpt>
      <trkpt lat="47.12597" lon="-2.22077">
        <ele>4</ele>
      </trkpt>
      <trkpt lat="47.12589" lon="-2.22072">
        <ele>3.96</ele>
      </trkpt>
      <trkpt lat="47.12582" lon="-2.22064">
        <ele>4.1</ele>
      </trkpt>
      <trkpt lat="47.12575" lon="-2.22055">
        <ele>4.26</ele>
      </trkpt>
      <trkpt lat="47.1257" lon="-2.22045">
        <ele>4.44</ele>
      </trkpt>
      <trkpt lat="47.12564" lon="-2.22034">
        <ele>4.6</ele>
      </trkpt>
      <trkpt lat="47.12559" lon="-2.22023">
        <ele>4.7</ele>
      </trkpt>
      <trkpt lat="47.12557" lon="-2.22018">
        <ele>4.74</ele>
      </trkpt>
      <trkpt lat="47.12555" lon="-2.22012">
        <ele>4.76</ele>
      </trkpt>
      <trkpt lat="47.12552" lon="-2.22006">
        <ele>4.77</ele>
      </trkpt>
      <trkpt lat="47.1255" lon="-2.22001">
        <ele>4.76</ele>
      </trkpt>
      <trkpt lat="47.12547" lon="-2.21995">
        <ele>4.69</ele>
      </trkpt>
      <trkpt lat="47.12545" lon="-2.21988">
        <ele>4.63</ele>
      </trkpt>
      <trkpt lat="47.12543" lon="-2.21982">
        <ele>4.61</ele>
      </trkpt>
      <trkpt lat="47.12542" lon="-2.21975">
        <ele>4.64</ele>
      </trkpt>
      <trkpt lat="47.12541" lon="-2.21968">
        <ele>4.7</ele>
      </trkpt>
      <trkpt lat="47.1254" lon="-2.2196">
        <ele>4.78</ele>
      </trkpt>
      <trkpt lat="47.12539" lon="-2.21953">
        <ele>4.86</ele>
      </trkpt>
      <trkpt lat="47.12538" lon="-2.21946">
        <ele>4.98</ele>
      </trkpt>
      <trkpt lat="47.12538" lon="-2.21939">
        <ele>5.09</ele>
      </trkpt>
      <trkpt lat="47.12537" lon="-2.21931">
        <ele>5.2</ele>
      </trkpt>
      <trkpt lat="47.12536" lon="-2.21924">
        <ele>5.31</ele>
      </trkpt>
      <trkpt lat="47.12536" lon="-2.21917">
        <ele>5.42</ele>
      </trkpt>
      <trkpt lat="47.12535" lon="-2.2191">
        <ele>5.72</ele>
      </trkpt>
      <trkpt lat="47.12534" lon="-2.21903">
        <ele>6.03</ele>
      </trkpt>
      <trkpt lat="47.12533" lon="-2.21896">
        <ele>6.33</ele>
      </trkpt>
      <trkpt lat="47.12533" lon="-2.21889">
        <ele>6.59</ele>
      </trkpt>
      <trkpt lat="47.12531" lon="-2.21882">
        <ele>6.83</ele>
      </trkpt>
      <trkpt lat="47.1253" lon="-2.21875">
        <ele>7.03</ele>
      </trkpt>
      <trkpt lat="47.12528" lon="-2.21869">
        <ele>7.18</ele>
      </trkpt>
      <trkpt lat="47.12526" lon="-2.21863">
        <ele>7.26</ele>
      </trkpt>
      <trkpt lat="47.12523" lon="-2.21857">
        <ele>7.31</ele>
      </trkpt>
      <trkpt lat="47.12519" lon="-2.21847">
        <ele>7.34</ele>
      </trkpt>
      <trkpt lat="47.12514" lon="-2.21837">
        <ele>7.32</ele>
      </trkpt>
      <trkpt lat="47.12509" lon="-2.21826">
        <ele>7.14</ele>
      </trkpt>
      <trkpt lat="47.12507" lon="-2.2182">
        <ele>7.05</ele>
      </trkpt>
      <trkpt lat="47.12504" lon="-2.21814">
        <ele>6.96</ele>
      </trkpt>
      <trkpt lat="47.12502" lon="-2.21808">
        <ele>6.9</ele>
      </trkpt>
      <trkpt lat="47.12501" lon="-2.21801">
        <ele>6.84</ele>
      </trkpt>
      <trkpt lat="47.12499" lon="-2.21795">
        <ele>6.85</ele>
      </trkpt>
      <trkpt lat="47.12498" lon="-2.21788">
        <ele>6.89</ele>
      </trkpt>
      <trkpt lat="47.12496" lon="-2.21782">
        <ele>6.91</ele>
      </trkpt>
      <trkpt lat="47.12495" lon="-2.21775">
        <ele>6.91</ele>
      </trkpt>
      <trkpt lat="47.12493" lon="-2.21769">
        <ele>6.91</ele>
      </trkpt>
      <trkpt lat="47.12492" lon="-2.21763">
        <ele>6.92</ele>
      </trkpt>
      <trkpt lat="47.1249" lon="-2.21756">
        <ele>6.95</ele>
      </trkpt>
      <trkpt lat="47.12489" lon="-2.2175">
        <ele>6.96</ele>
      </trkpt>
      <trkpt lat="47.12488" lon="-2.21743">
        <ele>6.98</ele>
      </trkpt>
      <trkpt lat="47.12487" lon="-2.21736">
        <ele>6.99</ele>
      </trkpt>
      <trkpt lat="47.12485" lon="-2.21729">
        <ele>7.01</ele>
      </trkpt>
      <trkpt lat="47.12484" lon="-2.21722">
        <ele>7.04</ele>
      </trkpt>
      <trkpt lat="47.12483" lon="-2.21714">
        <ele>7.07</ele>
      </trkpt>
      <trkpt lat="47.12483" lon="-2.21707">
        <ele>7.13</ele>
      </trkpt>
      <trkpt lat="47.12482" lon="-2.217">
        <ele>7.22</ele>
      </trkpt>
      <trkpt lat="47.12482" lon="-2.21693">
        <ele>7.35</ele>
      </trkpt>
      <trkpt lat="47.12482" lon="-2.21686">
        <ele>7.48</ele>
      </trkpt>
      <trkpt lat="47.12482" lon="-2.21678">
        <ele>7.63</ele>
      </trkpt>
      <trkpt lat="47.12483" lon="-2.21671">
        <ele>7.83</ele>
      </trkpt>
      <trkpt lat="47.12483" lon="-2.21663">
        <ele>7.96</ele>
      </trkpt>
      <trkpt lat="47.12483" lon="-2.21655">
        <ele>8.04</ele>
      </trkpt>
      <trkpt lat="47.12484" lon="-2.21646">
        <ele>8.1</ele>
      </trkpt>
      <trkpt lat="47.12484" lon="-2.21638">
        <ele>8.18</ele>
      </trkpt>
      <trkpt lat="47.12485" lon="-2.2163">
        <ele>8.26</ele>
      </trkpt>
      <trkpt lat="47.12485" lon="-2.21622">
        <ele>8.32</ele>
      </trkpt>
      <trkpt lat="47.12485" lon="-2.21613">
        <ele>8.36</ele>
      </trkpt>
      <trkpt lat="47.12486" lon="-2.21605">
        <ele>8.39</ele>
      </trkpt>
      <trkpt lat="47.12485" lon="-2.21597">
        <ele>8.33</ele>
      </trkpt>
      <trkpt lat="47.12483" lon="-2.21588">
        <ele>8.16</ele>
      </trkpt>
      <trkpt lat="47.1248" lon="-2.21581">
        <ele>7.96</ele>
      </trkpt>
      <trkpt lat="47.12477" lon="-2.21574">
        <ele>7.81</ele>
      </trkpt>
      <trkpt lat="47.12473" lon="-2.21567">
        <ele>7.64</ele>
      </trkpt>
      <trkpt lat="47.1247" lon="-2.2156">
        <ele>7.52</ele>
      </trkpt>
      <trkpt lat="47.12467" lon="-2.21553">
        <ele>7.41</ele>
      </trkpt>
      <trkpt lat="47.12464" lon="-2.21547">
        <ele>7.33</ele>
      </trkpt>
      <trkpt lat="47.1246" lon="-2.2154">
        <ele>7.27</ele>
      </trkpt>
      <trkpt lat="47.12457" lon="-2.21533">
        <ele>7.24</ele>
      </trkpt>
      <trkpt lat="47.12455" lon="-2.21526">
        <ele>7.26</ele>
      </trkpt>
      <trkpt lat="47.12453" lon="-2.21518">
        <ele>7.34</ele>
      </trkpt>
      <trkpt lat="47.12451" lon="-2.21511">
        <ele>7.46</ele>
      </trkpt>
      <trkpt lat="47.12449" lon="-2.21504">
        <ele>7.6</ele>
      </trkpt>
      <trkpt lat="47.12448" lon="-2.21497">
        <ele>7.74</ele>
      </trkpt>
      <trkpt lat="47.12447" lon="-2.2149">
        <ele>7.85</ele>
      </trkpt>
      <trkpt lat="47.12445" lon="-2.21483">
        <ele>7.94</ele>
      </trkpt>
      <trkpt lat="47.12444" lon="-2.21475">
        <ele>8.06</ele>
      </trkpt>
      <trkpt lat="47.12442" lon="-2.21468">
        <ele>8.18</ele>
      </trkpt>
      <trkpt lat="47.12442" lon="-2.2146">
        <ele>8.36</ele>
      </trkpt>
      <trkpt lat="47.12441" lon="-2.21452">
        <ele>8.58</ele>
      </trkpt>
      <trkpt lat="47.12441" lon="-2.21444">
        <ele>8.8</ele>
      </trkpt>
      <trkpt lat="47.12441" lon="-2.21436">
        <ele>9.05</ele>
      </trkpt>
      <trkpt lat="47.12442" lon="-2.21428">
        <ele>9.34</ele>
      </trkpt>
      <trkpt lat="47.12442" lon="-2.2142">
        <ele>9.64</ele>
      </trkpt>
      <trkpt lat="47.12443" lon="-2.21412">
        <ele>9.82</ele>
      </trkpt>
      <trkpt lat="47.12444" lon="-2.21404">
        <ele>9.91</ele>
      </trkpt>
      <trkpt lat="47.12445" lon="-2.21396">
        <ele>10.02</ele>
      </trkpt>
      <trkpt lat="47.12447" lon="-2.21388">
        <ele>10.13</ele>
      </trkpt>
      <trkpt lat="47.12448" lon="-2.2138">
        <ele>10.25</ele>
      </trkpt>
      <trkpt lat="47.12449" lon="-2.21372">
        <ele>10.34</ele>
      </trkpt>
      <trkpt lat="47.1245" lon="-2.21365">
        <ele>10.43</ele>
      </trkpt>
      <trkpt lat="47.12451" lon="-2.21352">
        <ele>10.55</ele>
      </trkpt>
      <trkpt lat="47.12452" lon="-2.21346">
        <ele>10.69</ele>
      </trkpt>
      <trkpt lat="47.12453" lon="-2.21339">
        <ele>10.78</ele>
      </trkpt>
      <trkpt lat="47.12454" lon="-2.21326">
        <ele>10.84</ele>
      </trkpt>
      <trkpt lat="47.12455" lon="-2.21319">
        <ele>10.76</ele>
      </trkpt>
      <trkpt lat="47.12455" lon="-2.21312">
        <ele>10.65</ele>
      </trkpt>
      <trkpt lat="47.12455" lon="-2.21305">
        <ele>10.55</ele>
      </trkpt>
      <trkpt lat="47.12455" lon="-2.21297">
        <ele>10.41</ele>
      </trkpt>
      <trkpt lat="47.12455" lon="-2.2129">
        <ele>10.27</ele>
      </trkpt>
      <trkpt lat="47.12455" lon="-2.21282">
        <ele>10.14</ele>
      </trkpt>
      <trkpt lat="47.12455" lon="-2.21275">
        <ele>10</ele>
      </trkpt>
      <trkpt lat="47.12455" lon="-2.21268">
        <ele>9.83</ele>
      </trkpt>
      <trkpt lat="47.12455" lon="-2.21261">
        <ele>9.63</ele>
      </trkpt>
      <trkpt lat="47.12455" lon="-2.21253">
        <ele>9.49</ele>
      </trkpt>
      <trkpt lat="47.12455" lon="-2.21246">
        <ele>9.29</ele>
      </trkpt>
      <trkpt lat="47.12454" lon="-2.21239">
        <ele>9.08</ele>
      </trkpt>
      <trkpt lat="47.12454" lon="-2.21231">
        <ele>8.85</ele>
      </trkpt>
      <trkpt lat="47.12454" lon="-2.21224">
        <ele>8.61</ele>
      </trkpt>
      <trkpt lat="47.12454" lon="-2.21216">
        <ele>8.36</ele>
      </trkpt>
      <trkpt lat="47.12454" lon="-2.21208">
        <ele>8.15</ele>
      </trkpt>
      <trkpt lat="47.12454" lon="-2.21201">
        <ele>7.97</ele>
      </trkpt>
      <trkpt lat="47.12454" lon="-2.21193">
        <ele>7.78</ele>
      </trkpt>
      <trkpt lat="47.12454" lon="-2.21185">
        <ele>7.57</ele>
      </trkpt>
      <trkpt lat="47.12454" lon="-2.21178">
        <ele>7.41</ele>
      </trkpt>
      <trkpt lat="47.12454" lon="-2.2117">
        <ele>7.3</ele>
      </trkpt>
      <trkpt lat="47.12455" lon="-2.21163">
        <ele>7.28</ele>
      </trkpt>
      <trkpt lat="47.12456" lon="-2.21155">
        <ele>7.34</ele>
      </trkpt>
      <trkpt lat="47.12457" lon="-2.21148">
        <ele>7.4</ele>
      </trkpt>
      <trkpt lat="47.12458" lon="-2.21141">
        <ele>7.47</ele>
      </trkpt>
      <trkpt lat="47.12459" lon="-2.21134">
        <ele>7.56</ele>
      </trkpt>
      <trkpt lat="47.1246" lon="-2.21127">
        <ele>7.62</ele>
      </trkpt>
      <trkpt lat="47.12461" lon="-2.2112">
        <ele>7.7</ele>
      </trkpt>
      <trkpt lat="47.12463" lon="-2.21113">
        <ele>7.75</ele>
      </trkpt>
      <trkpt lat="47.12464" lon="-2.21106">
        <ele>7.81</ele>
      </trkpt>
      <trkpt lat="47.12465" lon="-2.21099">
        <ele>7.87</ele>
      </trkpt>
      <trkpt lat="47.12466" lon="-2.21092">
        <ele>7.93</ele>
      </trkpt>
      <trkpt lat="47.12468" lon="-2.21085">
        <ele>7.99</ele>
      </trkpt>
      <trkpt lat="47.12469" lon="-2.21078">
        <ele>7.98</ele>
      </trkpt>
      <trkpt lat="47.1247" lon="-2.21071">
        <ele>7.93</ele>
      </trkpt>
      <trkpt lat="47.12472" lon="-2.21058">
        <ele>7.81</ele>
      </trkpt>
      <trkpt lat="47.12473" lon="-2.21051">
        <ele>7.71</ele>
      </trkpt>
      <trkpt lat="47.12474" lon="-2.21045">
        <ele>7.71</ele>
      </trkpt>
      <trkpt lat="47.12476" lon="-2.21038">
        <ele>7.64</ele>
      </trkpt>
      <trkpt lat="47.12477" lon="-2.2103">
        <ele>7.55</ele>
      </trkpt>
      <trkpt lat="47.12478" lon="-2.21023">
        <ele>7.45</ele>
      </trkpt>
      <trkpt lat="47.12479" lon="-2.21015">
        <ele>7.32</ele>
      </trkpt>
      <trkpt lat="47.12481" lon="-2.21007">
        <ele>7.19</ele>
      </trkpt>
      <trkpt lat="47.12482" lon="-2.21">
        <ele>7.07</ele>
      </trkpt>
      <trkpt lat="47.12484" lon="-2.20992">
        <ele>7.14</ele>
      </trkpt>
      <trkpt lat="47.12485" lon="-2.20985">
        <ele>7.2</ele>
      </trkpt>
      <trkpt lat="47.12486" lon="-2.20977">
        <ele>7.25</ele>
      </trkpt>
      <trkpt lat="47.12487" lon="-2.2097">
        <ele>7.3</ele>
      </trkpt>
      <trkpt lat="47.12488" lon="-2.20962">
        <ele>7.36</ele>
      </trkpt>
      <trkpt lat="47.1249" lon="-2.20955">
        <ele>7.42</ele>
      </trkpt>
      <trkpt lat="47.12491" lon="-2.20948">
        <ele>7.47</ele>
      </trkpt>
      <trkpt lat="47.12492" lon="-2.20941">
        <ele>7.5</ele>
      </trkpt>
      <trkpt lat="47.12493" lon="-2.20934">
        <ele>7.55</ele>
      </trkpt>
      <trkpt lat="47.12494" lon="-2.20927">
        <ele>7.59</ele>
      </trkpt>
      <trkpt lat="47.12496" lon="-2.20914">
        <ele>7.62</ele>
      </trkpt>
      <trkpt lat="47.12498" lon="-2.20901">
        <ele>7.77</ele>
      </trkpt>
      <trkpt lat="47.12499" lon="-2.20889">
        <ele>7.91</ele>
      </trkpt>
      <trkpt lat="47.12502" lon="-2.20877">
        <ele>8.32</ele>
      </trkpt>
      <trkpt lat="47.12503" lon="-2.20871">
        <ele>8.44</ele>
      </trkpt>
      <trkpt lat="47.12504" lon="-2.20864">
        <ele>8.53</ele>
      </trkpt>
      <trkpt lat="47.12505" lon="-2.20857">
        <ele>8.63</ele>
      </trkpt>
      <trkpt lat="47.12506" lon="-2.2085">
        <ele>8.75</ele>
      </trkpt>
      <trkpt lat="47.12507" lon="-2.20843">
        <ele>8.87</ele>
      </trkpt>
      <trkpt lat="47.12508" lon="-2.20835">
        <ele>9</ele>
      </trkpt>
      <trkpt lat="47.12509" lon="-2.20828">
        <ele>8.97</ele>
      </trkpt>
      <trkpt lat="47.1251" lon="-2.20821">
        <ele>8.91</ele>
      </trkpt>
      <trkpt lat="47.12512" lon="-2.20813">
        <ele>8.85</ele>
      </trkpt>
      <trkpt lat="47.12513" lon="-2.20806">
        <ele>8.82</ele>
      </trkpt>
      <trkpt lat="47.12515" lon="-2.20798">
        <ele>8.83</ele>
      </trkpt>
      <trkpt lat="47.12517" lon="-2.20791">
        <ele>8.84</ele>
      </trkpt>
      <trkpt lat="47.12519" lon="-2.20784">
        <ele>8.87</ele>
      </trkpt>
      <trkpt lat="47.12521" lon="-2.20776">
        <ele>8.93</ele>
      </trkpt>
      <trkpt lat="47.12523" lon="-2.20769">
        <ele>8.97</ele>
      </trkpt>
      <trkpt lat="47.12525" lon="-2.20761">
        <ele>8.93</ele>
      </trkpt>
      <trkpt lat="47.12526" lon="-2.20754">
        <ele>8.85</ele>
      </trkpt>
      <trkpt lat="47.12527" lon="-2.20747">
        <ele>8.89</ele>
      </trkpt>
      <trkpt lat="47.12528" lon="-2.20739">
        <ele>9.11</ele>
      </trkpt>
      <trkpt lat="47.12528" lon="-2.2073">
        <ele>9.31</ele>
      </trkpt>
      <trkpt lat="47.12529" lon="-2.20722">
        <ele>9.45</ele>
      </trkpt>
      <trkpt lat="47.12529" lon="-2.20713">
        <ele>9.55</ele>
      </trkpt>
      <trkpt lat="47.12528" lon="-2.20704">
        <ele>9.58</ele>
      </trkpt>
      <trkpt lat="47.12527" lon="-2.20696">
        <ele>9.56</ele>
      </trkpt>
      <trkpt lat="47.12526" lon="-2.20688">
        <ele>9.51</ele>
      </trkpt>
      <trkpt lat="47.12524" lon="-2.20681">
        <ele>9.43</ele>
      </trkpt>
      <trkpt lat="47.12523" lon="-2.20674">
        <ele>9.34</ele>
      </trkpt>
      <trkpt lat="47.12521" lon="-2.20667">
        <ele>9.27</ele>
      </trkpt>
      <trkpt lat="47.1252" lon="-2.2066">
        <ele>9.15</ele>
      </trkpt>
      <trkpt lat="47.12518" lon="-2.20654">
        <ele>9.01</ele>
      </trkpt>
      <trkpt lat="47.12517" lon="-2.20647">
        <ele>8.86</ele>
      </trkpt>
      <trkpt lat="47.12515" lon="-2.20639">
        <ele>8.72</ele>
      </trkpt>
      <trkpt lat="47.12514" lon="-2.20632">
        <ele>8.58</ele>
      </trkpt>
      <trkpt lat="47.12513" lon="-2.20625">
        <ele>8.45</ele>
      </trkpt>
      <trkpt lat="47.12511" lon="-2.20618">
        <ele>8.3</ele>
      </trkpt>
      <trkpt lat="47.1251" lon="-2.20611">
        <ele>8.2</ele>
      </trkpt>
      <trkpt lat="47.1251" lon="-2.20603">
        <ele>8.17</ele>
      </trkpt>
      <trkpt lat="47.1251" lon="-2.20596">
        <ele>8.23</ele>
      </trkpt>
      <trkpt lat="47.12511" lon="-2.20588">
        <ele>8.32</ele>
      </trkpt>
      <trkpt lat="47.12512" lon="-2.2058">
        <ele>8.38</ele>
      </trkpt>
      <trkpt lat="47.12513" lon="-2.20573">
        <ele>8.39</ele>
      </trkpt>
      <trkpt lat="47.12514" lon="-2.20565">
        <ele>8.41</ele>
      </trkpt>
      <trkpt lat="47.12515" lon="-2.20558">
        <ele>8.41</ele>
      </trkpt>
      <trkpt lat="47.12516" lon="-2.2055">
        <ele>8.37</ele>
      </trkpt>
      <trkpt lat="47.12517" lon="-2.20543">
        <ele>8.31</ele>
      </trkpt>
      <trkpt lat="47.12517" lon="-2.20536">
        <ele>8.19</ele>
      </trkpt>
      <trkpt lat="47.12516" lon="-2.20529">
        <ele>8.01</ele>
      </trkpt>
      <trkpt lat="47.12515" lon="-2.20522">
        <ele>7.76</ele>
      </trkpt>
      <trkpt lat="47.12513" lon="-2.20511">
        <ele>7.17</ele>
      </trkpt>
      <trkpt lat="47.12509" lon="-2.20501">
        <ele>6.4</ele>
      </trkpt>
      <trkpt lat="47.12507" lon="-2.2049">
        <ele>6.15</ele>
      </trkpt>
      <trkpt lat="47.12505" lon="-2.20478">
        <ele>5.95</ele>
      </trkpt>
      <trkpt lat="47.12503" lon="-2.20467">
        <ele>5.78</ele>
      </trkpt>
      <trkpt lat="47.12501" lon="-2.20455">
        <ele>5.66</ele>
      </trkpt>
      <trkpt lat="47.12498" lon="-2.20444">
        <ele>5.56</ele>
      </trkpt>
      <trkpt lat="47.12497" lon="-2.20431">
        <ele>5.62</ele>
      </trkpt>
      <trkpt lat="47.12497" lon="-2.20419">
        <ele>5.72</ele>
      </trkpt>
      <trkpt lat="47.12498" lon="-2.20406">
        <ele>5.97</ele>
      </trkpt>
      <trkpt lat="47.12502" lon="-2.20394">
        <ele>6.45</ele>
      </trkpt>
      <trkpt lat="47.12504" lon="-2.20388">
        <ele>6.75</ele>
      </trkpt>
      <trkpt lat="47.12507" lon="-2.20382">
        <ele>7.04</ele>
      </trkpt>
      <trkpt lat="47.1251" lon="-2.20377">
        <ele>7.37</ele>
      </trkpt>
      <trkpt lat="47.12513" lon="-2.2037">
        <ele>7.69</ele>
      </trkpt>
      <trkpt lat="47.12516" lon="-2.20364">
        <ele>7.96</ele>
      </trkpt>
      <trkpt lat="47.12518" lon="-2.20356">
        <ele>8.12</ele>
      </trkpt>
      <trkpt lat="47.12518" lon="-2.20347">
        <ele>8.12</ele>
      </trkpt>
      <trkpt lat="47.12518" lon="-2.20339">
        <ele>8.07</ele>
      </trkpt>
      <trkpt lat="47.12517" lon="-2.20332">
        <ele>8.1</ele>
      </trkpt>
      <trkpt lat="47.12516" lon="-2.20318">
        <ele>8.74</ele>
      </trkpt>
      <trkpt lat="47.12516" lon="-2.20315">
        <ele>8.92</ele>
      </trkpt>
      <trkpt lat="47.12516" lon="-2.20308">
        <ele>9.3</ele>
      </trkpt>
      <trkpt lat="47.1252" lon="-2.20301">
        <ele>9.84</ele>
      </trkpt>
      <trkpt lat="47.12519" lon="-2.20295">
        <ele>10.12</ele>
      </trkpt>
      <trkpt lat="47.12518" lon="-2.20283">
        <ele>10.73</ele>
      </trkpt>
      <trkpt lat="47.12517" lon="-2.2027">
        <ele>11.32</ele>
      </trkpt>
      <trkpt lat="47.12515" lon="-2.20258">
        <ele>11.91</ele>
      </trkpt>
      <trkpt lat="47.12512" lon="-2.20246">
        <ele>12.48</ele>
      </trkpt>
      <trkpt lat="47.12509" lon="-2.20235">
        <ele>12.99</ele>
      </trkpt>
      <trkpt lat="47.12505" lon="-2.20223">
        <ele>13.44</ele>
      </trkpt>
      <trkpt lat="47.12501" lon="-2.20213">
        <ele>13.84</ele>
      </trkpt>
      <trkpt lat="47.12498" lon="-2.20202">
        <ele>14.07</ele>
      </trkpt>
      <trkpt lat="47.12494" lon="-2.20191">
        <ele>14.19</ele>
      </trkpt>
      <trkpt lat="47.1249" lon="-2.20181">
        <ele>14.34</ele>
      </trkpt>
      <trkpt lat="47.12486" lon="-2.2017">
        <ele>14.46</ele>
      </trkpt>
      <trkpt lat="47.12481" lon="-2.20159">
        <ele>14.58</ele>
      </trkpt>
      <trkpt lat="47.12477" lon="-2.20148">
        <ele>14.7</ele>
      </trkpt>
      <trkpt lat="47.12473" lon="-2.20137">
        <ele>14.82</ele>
      </trkpt>
      <trkpt lat="47.12469" lon="-2.20126">
        <ele>14.96</ele>
      </trkpt>
      <trkpt lat="47.12465" lon="-2.20115">
        <ele>15.13</ele>
      </trkpt>
      <trkpt lat="47.12463" lon="-2.20104">
        <ele>15.42</ele>
      </trkpt>
      <trkpt lat="47.1246" lon="-2.20092">
        <ele>15.78</ele>
      </trkpt>
      <trkpt lat="47.12459" lon="-2.20079">
        <ele>16.26</ele>
      </trkpt>
      <trkpt lat="47.12458" lon="-2.20066">
        <ele>16.88</ele>
      </trkpt>
      <trkpt lat="47.12457" lon="-2.20052">
        <ele>17.6</ele>
      </trkpt>
      <trkpt lat="47.12458" lon="-2.20038">
        <ele>18.39</ele>
      </trkpt>
      <trkpt lat="47.12459" lon="-2.20024">
        <ele>19.26</ele>
      </trkpt>
      <trkpt lat="47.12461" lon="-2.20011">
        <ele>20.14</ele>
      </trkpt>
      <trkpt lat="47.12462" lon="-2.19998">
        <ele>20.93</ele>
      </trkpt>
      <trkpt lat="47.12464" lon="-2.19984">
        <ele>21.21</ele>
      </trkpt>
      <trkpt lat="47.12465" lon="-2.19971">
        <ele>21.45</ele>
      </trkpt>
      <trkpt lat="47.12467" lon="-2.19959">
        <ele>21.75</ele>
      </trkpt>
      <trkpt lat="47.12469" lon="-2.19947">
        <ele>22.02</ele>
      </trkpt>
      <trkpt lat="47.1247" lon="-2.19934">
        <ele>22.32</ele>
      </trkpt>
      <trkpt lat="47.12471" lon="-2.19922">
        <ele>22.51</ele>
      </trkpt>
      <trkpt lat="47.12472" lon="-2.1991">
        <ele>22.49</ele>
      </trkpt>
      <trkpt lat="47.12472" lon="-2.19899">
        <ele>22.3</ele>
      </trkpt>
      <trkpt lat="47.12473" lon="-2.19887">
        <ele>22.1</ele>
      </trkpt>
      <trkpt lat="47.12473" lon="-2.19875">
        <ele>21.9</ele>
      </trkpt>
      <trkpt lat="47.12473" lon="-2.19863">
        <ele>21.7</ele>
      </trkpt>
      <trkpt lat="47.12474" lon="-2.19851">
        <ele>21.51</ele>
      </trkpt>
      <trkpt lat="47.12474" lon="-2.1984">
        <ele>21.33</ele>
      </trkpt>
      <trkpt lat="47.12475" lon="-2.19829">
        <ele>21.2</ele>
      </trkpt>
      <trkpt lat="47.12475" lon="-2.1982">
        <ele>21.14</ele>
      </trkpt>
      <trkpt lat="47.12475" lon="-2.19807">
        <ele>21.02</ele>
      </trkpt>
      <trkpt lat="47.12476" lon="-2.19787">
        <ele>20.83</ele>
      </trkpt>
      <trkpt lat="47.12475" lon="-2.1978">
        <ele>20.71</ele>
      </trkpt>
      <trkpt lat="47.12475" lon="-2.19772">
        <ele>20.57</ele>
      </trkpt>
      <trkpt lat="47.12477" lon="-2.19766">
        <ele>20.69</ele>
      </trkpt>
      <trkpt lat="47.12477" lon="-2.19764">
        <ele>20.74</ele>
      </trkpt>
      <trkpt lat="47.12482" lon="-2.1976">
        <ele>21.13</ele>
      </trkpt>
      <trkpt lat="47.12487" lon="-2.19758">
        <ele>21.72</ele>
      </trkpt>
      <trkpt lat="47.12494" lon="-2.19753">
        <ele>22.41</ele>
      </trkpt>
      <trkpt lat="47.12499" lon="-2.1975">
        <ele>22.85</ele>
      </trkpt>
      <trkpt lat="47.12503" lon="-2.19747">
        <ele>23.12</ele>
      </trkpt>
      <trkpt lat="47.12508" lon="-2.19744">
        <ele>23.3</ele>
      </trkpt>
      <trkpt lat="47.12512" lon="-2.19741">
        <ele>23.46</ele>
      </trkpt>
      <trkpt lat="47.12517" lon="-2.19738">
        <ele>23.64</ele>
      </trkpt>
      <trkpt lat="47.12522" lon="-2.19734">
        <ele>23.8</ele>
      </trkpt>
      <trkpt lat="47.12527" lon="-2.19731">
        <ele>23.97</ele>
      </trkpt>
      <trkpt lat="47.12532" lon="-2.19727">
        <ele>24.14</ele>
      </trkpt>
      <trkpt lat="47.12536" lon="-2.19724">
        <ele>24.29</ele>
      </trkpt>
      <trkpt lat="47.12541" lon="-2.19721">
        <ele>24.43</ele>
      </trkpt>
      <trkpt lat="47.12545" lon="-2.19718">
        <ele>24.57</ele>
      </trkpt>
      <trkpt lat="47.1255" lon="-2.19715">
        <ele>24.71</ele>
      </trkpt>
      <trkpt lat="47.12554" lon="-2.19712">
        <ele>24.85</ele>
      </trkpt>
      <trkpt lat="47.12559" lon="-2.19709">
        <ele>24.97</ele>
      </trkpt>
      <trkpt lat="47.12563" lon="-2.19706">
        <ele>25.09</ele>
      </trkpt>
      <trkpt lat="47.1257" lon="-2.19701">
        <ele>25.29</ele>
      </trkpt>
      <trkpt lat="47.12578" lon="-2.19695">
        <ele>25.47</ele>
      </trkpt>
      <trkpt lat="47.12586" lon="-2.1969">
        <ele>25.65</ele>
      </trkpt>
      <trkpt lat="47.12593" lon="-2.19685">
        <ele>25.78</ele>
      </trkpt>
      <trkpt lat="47.12601" lon="-2.1968">
        <ele>25.93</ele>
      </trkpt>
      <trkpt lat="47.12608" lon="-2.19675">
        <ele>26.06</ele>
      </trkpt>
      <trkpt lat="47.12615" lon="-2.19671">
        <ele>26.22</ele>
      </trkpt>
      <trkpt lat="47.1262" lon="-2.19666">
        <ele>26.33</ele>
      </trkpt>
      <trkpt lat="47.12622" lon="-2.19659">
        <ele>26.22</ele>
      </trkpt>
      <trkpt lat="47.12621" lon="-2.19652">
        <ele>25.99</ele>
      </trkpt>
      <trkpt lat="47.12618" lon="-2.19644">
        <ele>25.71</ele>
      </trkpt>
      <trkpt lat="47.12616" lon="-2.19636">
        <ele>25.44</ele>
      </trkpt>
      <trkpt lat="47.12614" lon="-2.19628">
        <ele>25.17</ele>
      </trkpt>
      <trkpt lat="47.12611" lon="-2.1962">
        <ele>24.89</ele>
      </trkpt>
      <trkpt lat="47.12609" lon="-2.19612">
        <ele>24.6</ele>
      </trkpt>
      <trkpt lat="47.12606" lon="-2.19604">
        <ele>24.32</ele>
      </trkpt>
      <trkpt lat="47.12605" lon="-2.19597">
        <ele>24.08</ele>
      </trkpt>
      <trkpt lat="47.12602" lon="-2.19589">
        <ele>23.83</ele>
      </trkpt>
      <trkpt lat="47.126" lon="-2.19582">
        <ele>23.56</ele>
      </trkpt>
      <trkpt lat="47.12598" lon="-2.19574">
        <ele>23.2</ele>
      </trkpt>
      <trkpt lat="47.12596" lon="-2.19567">
        <ele>22.84</ele>
      </trkpt>
      <trkpt lat="47.12594" lon="-2.19559">
        <ele>22.49</ele>
      </trkpt>
      <trkpt lat="47.12592" lon="-2.19552">
        <ele>22.13</ele>
      </trkpt>
      <trkpt lat="47.12589" lon="-2.19544">
        <ele>21.77</ele>
      </trkpt>
      <trkpt lat="47.12588" lon="-2.19536">
        <ele>21.44</ele>
      </trkpt>
      <trkpt lat="47.12586" lon="-2.19529">
        <ele>21.11</ele>
      </trkpt>
      <trkpt lat="47.12581" lon="-2.19524">
        <ele>20.75</ele>
      </trkpt>
      <trkpt lat="47.12576" lon="-2.19523">
        <ele>20.37</ele>
      </trkpt>
      <trkpt lat="47.12572" lon="-2.19523">
        <ele>20.01</ele>
      </trkpt>
      <trkpt lat="47.12567" lon="-2.19521">
        <ele>19.61</ele>
      </trkpt>
      <trkpt lat="47.12568" lon="-2.19514">
        <ele>19.44</ele>
      </trkpt>
      <trkpt lat="47.1257" lon="-2.19507">
        <ele>19.35</ele>
      </trkpt>
      <trkpt lat="47.12568" lon="-2.19499">
        <ele>18.9</ele>
      </trkpt>
      <trkpt lat="47.12564" lon="-2.19492">
        <ele>18.52</ele>
      </trkpt>
      <trkpt lat="47.1256" lon="-2.19484">
        <ele>18.19</ele>
      </trkpt>
      <trkpt lat="47.12559" lon="-2.19478">
        <ele>18.03</ele>
      </trkpt>
      <trkpt lat="47.12558" lon="-2.1947">
        <ele>17.87</ele>
      </trkpt>
      <trkpt lat="47.12556" lon="-2.19462">
        <ele>17.72</ele>
      </trkpt>
      <trkpt lat="47.12554" lon="-2.19453">
        <ele>17.57</ele>
      </trkpt>
      <trkpt lat="47.12554" lon="-2.19443">
        <ele>17.49</ele>
      </trkpt>
      <trkpt lat="47.12557" lon="-2.19433">
        <ele>17.5</ele>
      </trkpt>
      <trkpt lat="47.12562" lon="-2.19424">
        <ele>17.57</ele>
      </trkpt>
      <trkpt lat="47.1257" lon="-2.19423">
        <ele>17.78</ele>
      </trkpt>
      <trkpt lat="47.12576" lon="-2.19422">
        <ele>17.93</ele>
      </trkpt>
      <trkpt lat="47.12582" lon="-2.19422">
        <ele>18.09</ele>
      </trkpt>
      <trkpt lat="47.12589" lon="-2.19421">
        <ele>18.18</ele>
      </trkpt>
      <trkpt lat="47.12596" lon="-2.1942">
        <ele>18.24</ele>
      </trkpt>
      <trkpt lat="47.12604" lon="-2.1942">
        <ele>18.33</ele>
      </trkpt>
      <trkpt lat="47.12609" lon="-2.1942">
        <ele>18.42</ele>
      </trkpt>
      <trkpt lat="47.12615" lon="-2.19421">
        <ele>18.51</ele>
      </trkpt>
      <trkpt lat="47.12621" lon="-2.19423">
        <ele>18.64</ele>
      </trkpt>
      <trkpt lat="47.12628" lon="-2.19424">
        <ele>18.76</ele>
      </trkpt>
      <trkpt lat="47.12634" lon="-2.19425">
        <ele>18.87</ele>
      </trkpt>
      <trkpt lat="47.1264" lon="-2.19426">
        <ele>18.99</ele>
      </trkpt>
      <trkpt lat="47.12646" lon="-2.19428">
        <ele>19.11</ele>
      </trkpt>
      <trkpt lat="47.12651" lon="-2.19429">
        <ele>19.22</ele>
      </trkpt>
      <trkpt lat="47.12657" lon="-2.1943">
        <ele>19.36</ele>
      </trkpt>
      <trkpt lat="47.12662" lon="-2.19431">
        <ele>19.45</ele>
      </trkpt>
      <trkpt lat="47.12668" lon="-2.19433">
        <ele>19.61</ele>
      </trkpt>
      <trkpt lat="47.12673" lon="-2.19434">
        <ele>19.84</ele>
      </trkpt>
      <trkpt lat="47.12679" lon="-2.19436">
        <ele>20.05</ele>
      </trkpt>
      <trkpt lat="47.12684" lon="-2.19436">
        <ele>20.23</ele>
      </trkpt>
      <trkpt lat="47.12689" lon="-2.19438">
        <ele>20.42</ele>
      </trkpt>
      <trkpt lat="47.12693" lon="-2.19439">
        <ele>20.6</ele>
      </trkpt>
      <trkpt lat="47.12698" lon="-2.19441">
        <ele>20.78</ele>
      </trkpt>
      <trkpt lat="47.12703" lon="-2.19442">
        <ele>20.96</ele>
      </trkpt>
      <trkpt lat="47.12708" lon="-2.19443">
        <ele>21.14</ele>
      </trkpt>
      <trkpt lat="47.12713" lon="-2.19446">
        <ele>21.33</ele>
      </trkpt>
      <trkpt lat="47.12718" lon="-2.19449">
        <ele>21.52</ele>
      </trkpt>
      <trkpt lat="47.12722" lon="-2.19452">
        <ele>21.72</ele>
      </trkpt>
      <trkpt lat="47.12726" lon="-2.19458">
        <ele>21.92</ele>
      </trkpt>
      <trkpt lat="47.12731" lon="-2.19463">
        <ele>22.12</ele>
      </trkpt>
      <trkpt lat="47.12736" lon="-2.19467">
        <ele>22.31</ele>
      </trkpt>
      <trkpt lat="47.12742" lon="-2.19469">
        <ele>22.47</ele>
      </trkpt>
      <trkpt lat="47.12748" lon="-2.19472">
        <ele>22.62</ele>
      </trkpt>
      <trkpt lat="47.12754" lon="-2.19476">
        <ele>22.84</ele>
      </trkpt>
      <trkpt lat="47.1276" lon="-2.19479">
        <ele>23.07</ele>
      </trkpt>
      <trkpt lat="47.12765" lon="-2.1948">
        <ele>23.26</ele>
      </trkpt>
      <trkpt lat="47.12771" lon="-2.19482">
        <ele>23.45</ele>
      </trkpt>
      <trkpt lat="47.12777" lon="-2.19483">
        <ele>23.65</ele>
      </trkpt>
      <trkpt lat="47.12784" lon="-2.19484">
        <ele>23.85</ele>
      </trkpt>
      <trkpt lat="47.1279" lon="-2.19481">
        <ele>24.07</ele>
      </trkpt>
      <trkpt lat="47.12797" lon="-2.19479">
        <ele>24.29</ele>
      </trkpt>
      <trkpt lat="47.12803" lon="-2.19478">
        <ele>24.52</ele>
      </trkpt>
      <trkpt lat="47.12809" lon="-2.19475">
        <ele>24.76</ele>
      </trkpt>
      <trkpt lat="47.12815" lon="-2.19472">
        <ele>25.02</ele>
      </trkpt>
      <trkpt lat="47.12821" lon="-2.19469">
        <ele>25.31</ele>
      </trkpt>
      <trkpt lat="47.12827" lon="-2.19469">
        <ele>25.51</ele>
      </trkpt>
      <trkpt lat="47.12835" lon="-2.19465">
        <ele>25.91</ele>
      </trkpt>
      <trkpt lat="47.1284" lon="-2.19462">
        <ele>26.17</ele>
      </trkpt>
      <trkpt lat="47.12845" lon="-2.19459">
        <ele>26.4</ele>
      </trkpt>
      <trkpt lat="47.1285" lon="-2.19456">
        <ele>26.63</ele>
      </trkpt>
      <trkpt lat="47.12855" lon="-2.19453">
        <ele>26.86</ele>
      </trkpt>
      <trkpt lat="47.1286" lon="-2.19451">
        <ele>27.07</ele>
      </trkpt>
      <trkpt lat="47.12865" lon="-2.19449">
        <ele>27.27</ele>
      </trkpt>
      <trkpt lat="47.12869" lon="-2.19446">
        <ele>27.46</ele>
      </trkpt>
      <trkpt lat="47.12874" lon="-2.19443">
        <ele>27.64</ele>
      </trkpt>
      <trkpt lat="47.12878" lon="-2.1944">
        <ele>27.81</ele>
      </trkpt>
      <trkpt lat="47.12883" lon="-2.19429">
        <ele>28.06</ele>
      </trkpt>
      <trkpt lat="47.12887" lon="-2.19419">
        <ele>28.28</ele>
      </trkpt>
      <trkpt lat="47.12895" lon="-2.19413">
        <ele>28.51</ele>
      </trkpt>
      <trkpt lat="47.12899" lon="-2.1941">
        <ele>28.65</ele>
      </trkpt>
      <trkpt lat="47.12901" lon="-2.19404">
        <ele>28.79</ele>
      </trkpt>
      <trkpt lat="47.12903" lon="-2.19397">
        <ele>28.9</ele>
      </trkpt>
      <trkpt lat="47.12903" lon="-2.19389">
        <ele>28.99</ele>
      </trkpt>
      <trkpt lat="47.12902" lon="-2.19381">
        <ele>29.07</ele>
      </trkpt>
      <trkpt lat="47.12901" lon="-2.19373">
        <ele>29.16</ele>
      </trkpt>
      <trkpt lat="47.12901" lon="-2.19364">
        <ele>29.26</ele>
      </trkpt>
      <trkpt lat="47.12901" lon="-2.19356">
        <ele>29.35</ele>
      </trkpt>
      <trkpt lat="47.129" lon="-2.19347">
        <ele>29.43</ele>
      </trkpt>
      <trkpt lat="47.12899" lon="-2.19339">
        <ele>29.51</ele>
      </trkpt>
      <trkpt lat="47.12898" lon="-2.19331">
        <ele>29.6</ele>
      </trkpt>
      <trkpt lat="47.12898" lon="-2.19323">
        <ele>29.69</ele>
      </trkpt>
      <trkpt lat="47.12897" lon="-2.19316">
        <ele>29.77</ele>
      </trkpt>
      <trkpt lat="47.12896" lon="-2.19304">
        <ele>29.94</ele>
      </trkpt>
      <trkpt lat="47.12901" lon="-2.19295">
        <ele>30.17</ele>
      </trkpt>
      <trkpt lat="47.12905" lon="-2.19293">
        <ele>30.28</ele>
      </trkpt>
      <trkpt lat="47.1291" lon="-2.19291">
        <ele>30.39</ele>
      </trkpt>
      <trkpt lat="47.12915" lon="-2.19289">
        <ele>30.5</ele>
      </trkpt>
      <trkpt lat="47.12921" lon="-2.19287">
        <ele>30.6</ele>
      </trkpt>
      <trkpt lat="47.12926" lon="-2.19284">
        <ele>30.68</ele>
      </trkpt>
      <trkpt lat="47.12931" lon="-2.19282">
        <ele>30.75</ele>
      </trkpt>
      <trkpt lat="47.12936" lon="-2.19279">
        <ele>30.81</ele>
      </trkpt>
      <trkpt lat="47.12942" lon="-2.19277">
        <ele>30.87</ele>
      </trkpt>
      <trkpt lat="47.12948" lon="-2.19275">
        <ele>30.92</ele>
      </trkpt>
      <trkpt lat="47.12953" lon="-2.19273">
        <ele>30.97</ele>
      </trkpt>
      <trkpt lat="47.12959" lon="-2.19271">
        <ele>31.01</ele>
      </trkpt>
      <trkpt lat="47.12965" lon="-2.19269">
        <ele>31.04</ele>
      </trkpt>
      <trkpt lat="47.12971" lon="-2.19267">
        <ele>31.06</ele>
      </trkpt>
      <trkpt lat="47.12978" lon="-2.19266">
        <ele>31.09</ele>
      </trkpt>
      <trkpt lat="47.12984" lon="-2.19264">
        <ele>31.11</ele>
      </trkpt>
      <trkpt lat="47.1299" lon="-2.19263">
        <ele>31.12</ele>
      </trkpt>
      <trkpt lat="47.12996" lon="-2.19262">
        <ele>31.13</ele>
      </trkpt>
      <trkpt lat="47.13003" lon="-2.19261">
        <ele>31.19</ele>
      </trkpt>
      <trkpt lat="47.13009" lon="-2.1926">
        <ele>31.31</ele>
      </trkpt>
      <trkpt lat="47.13015" lon="-2.19259">
        <ele>31.43</ele>
      </trkpt>
      <trkpt lat="47.1302" lon="-2.19257">
        <ele>31.55</ele>
      </trkpt>
      <trkpt lat="47.13026" lon="-2.19256">
        <ele>31.66</ele>
      </trkpt>
      <trkpt lat="47.13031" lon="-2.19254">
        <ele>31.77</ele>
      </trkpt>
      <trkpt lat="47.13036" lon="-2.19253">
        <ele>31.89</ele>
      </trkpt>
      <trkpt lat="47.13041" lon="-2.19251">
        <ele>32</ele>
      </trkpt>
      <trkpt lat="47.13046" lon="-2.1925">
        <ele>32.11</ele>
      </trkpt>
      <trkpt lat="47.13051" lon="-2.19249">
        <ele>32.24</ele>
      </trkpt>
      <trkpt lat="47.13056" lon="-2.19248">
        <ele>32.37</ele>
      </trkpt>
      <trkpt lat="47.13061" lon="-2.19247">
        <ele>32.5</ele>
      </trkpt>
      <trkpt lat="47.13065" lon="-2.19246">
        <ele>32.62</ele>
      </trkpt>
      <trkpt lat="47.13074" lon="-2.19244">
        <ele>32.86</ele>
      </trkpt>
      <trkpt lat="47.13082" lon="-2.19243">
        <ele>33.06</ele>
      </trkpt>
      <trkpt lat="47.13089" lon="-2.19241">
        <ele>33.24</ele>
      </trkpt>
      <trkpt lat="47.13096" lon="-2.19239">
        <ele>33.41</ele>
      </trkpt>
      <trkpt lat="47.13102" lon="-2.19238">
        <ele>33.55</ele>
      </trkpt>
      <trkpt lat="47.13104" lon="-2.19234">
        <ele>33.63</ele>
      </trkpt>
      <trkpt lat="47.13104" lon="-2.19233">
        <ele>33.65</ele>
      </trkpt>
      <trkpt lat="47.13104" lon="-2.19225">
        <ele>33.71</ele>
      </trkpt>
      <trkpt lat="47.13103" lon="-2.19217">
        <ele>33.78</ele>
      </trkpt>
      <trkpt lat="47.13102" lon="-2.19206">
        <ele>33.86</ele>
      </trkpt>
      <trkpt lat="47.13102" lon="-2.19195">
        <ele>33.96</ele>
      </trkpt>
      <trkpt lat="47.13102" lon="-2.19185">
        <ele>34.05</ele>
      </trkpt>
      <trkpt lat="47.13101" lon="-2.19183">
        <ele>34.06</ele>
      </trkpt>
      <trkpt lat="47.13101" lon="-2.19172">
        <ele>34.17</ele>
      </trkpt>
      <trkpt lat="47.13102" lon="-2.1916">
        <ele>34.34</ele>
      </trkpt>
      <trkpt lat="47.13103" lon="-2.19148">
        <ele>34.53</ele>
      </trkpt>
      <trkpt lat="47.13104" lon="-2.19135">
        <ele>34.72</ele>
      </trkpt>
      <trkpt lat="47.13105" lon="-2.19123">
        <ele>34.9</ele>
      </trkpt>
      <trkpt lat="47.13106" lon="-2.19111">
        <ele>35.07</ele>
      </trkpt>
      <trkpt lat="47.13107" lon="-2.19098">
        <ele>35.23</ele>
      </trkpt>
      <trkpt lat="47.13108" lon="-2.19086">
        <ele>35.38</ele>
      </trkpt>
      <trkpt lat="47.13109" lon="-2.19073">
        <ele>35.34</ele>
      </trkpt>
      <trkpt lat="47.1311" lon="-2.19061">
        <ele>35.27</ele>
      </trkpt>
      <trkpt lat="47.13111" lon="-2.1905">
        <ele>35.2</ele>
      </trkpt>
      <trkpt lat="47.13112" lon="-2.19044">
        <ele>35.17</ele>
      </trkpt>
      <trkpt lat="47.13112" lon="-2.19039">
        <ele>35.14</ele>
      </trkpt>
      <trkpt lat="47.13114" lon="-2.19028">
        <ele>35.09</ele>
      </trkpt>
      <trkpt lat="47.13115" lon="-2.19019">
        <ele>35.06</ele>
      </trkpt>
      <trkpt lat="47.13116" lon="-2.19011">
        <ele>35.03</ele>
      </trkpt>
      <trkpt lat="47.13117" lon="-2.19004">
        <ele>35.01</ele>
      </trkpt>
      <trkpt lat="47.13118" lon="-2.1899">
        <ele>35</ele>
      </trkpt>
      <trkpt lat="47.1312" lon="-2.18985">
        <ele>35</ele>
      </trkpt>
      <trkpt lat="47.13116" lon="-2.18986">
        <ele>35</ele>
      </trkpt>
      <trkpt lat="47.13106" lon="-2.18988">
        <ele>35</ele>
      </trkpt>
      <trkpt lat="47.1305" lon="-2.18999">
        <ele>34.61</ele>
      </trkpt>
      <trkpt lat="47.13043" lon="-2.18998">
        <ele>34.53</ele>
      </trkpt>
      <trkpt lat="47.12972" lon="-2.19028">
        <ele>33.44</ele>
      </trkpt>
      <trkpt lat="47.12965" lon="-2.19031">
        <ele>33.36</ele>
      </trkpt>
      <trkpt lat="47.12953" lon="-2.18977">
        <ele>33.87</ele>
      </trkpt>
      <trkpt lat="47.12933" lon="-2.189">
        <ele>34.76</ele>
      </trkpt>
      <trkpt lat="47.12922" lon="-2.18722">
        <ele>33.31</ele>
      </trkpt>
      <trkpt lat="47.1291" lon="-2.18586">
        <ele>30.95</ele>
      </trkpt>
      <trkpt lat="47.12947" lon="-2.18528">
        <ele>31.36</ele>
      </trkpt>
      <trkpt lat="47.12949" lon="-2.18444">
        <ele>30.29</ele>
      </trkpt>
      <trkpt lat="47.12951" lon="-2.18385">
        <ele>29.45</ele>
      </trkpt>
      <trkpt lat="47.12963" lon="-2.18378">
        <ele>29.65</ele>
      </trkpt>
      <trkpt lat="47.12995" lon="-2.18353">
        <ele>30.11</ele>
      </trkpt>
      <trkpt lat="47.12978" lon="-2.18265">
        <ele>29.09</ele>
      </trkpt>
      <trkpt lat="47.12977" lon="-2.18263">
        <ele>29.07</ele>
      </trkpt>
      <trkpt lat="47.12959" lon="-2.1822">
        <ele>28.82</ele>
      </trkpt>
      <trkpt lat="47.12928" lon="-2.18211">
        <ele>28.93</ele>
      </trkpt>
      <trkpt lat="47.12885" lon="-2.18196">
        <ele>28.87</ele>
      </trkpt>
      <trkpt lat="47.12858" lon="-2.1819">
        <ele>28.8</ele>
      </trkpt>
      <trkpt lat="47.12834" lon="-2.18182">
        <ele>28.82</ele>
      </trkpt>
      <trkpt lat="47.12822" lon="-2.18178">
        <ele>28.58</ele>
      </trkpt>
      <trkpt lat="47.12826" lon="-2.18126">
        <ele>27.92</ele>
      </trkpt>
      <trkpt lat="47.12835" lon="-2.18003">
        <ele>25.08</ele>
      </trkpt>
      <trkpt lat="47.1286" lon="-2.18002">
        <ele>25.06</ele>
      </trkpt>
      <trkpt lat="47.12864" lon="-2.18002">
        <ele>25.05</ele>
      </trkpt>
      <trkpt lat="47.12864" lon="-2.18">
        <ele>25</ele>
      </trkpt>
      <trkpt lat="47.12864" lon="-2.17963">
        <ele>25.04</ele>
      </trkpt>
      <trkpt lat="47.12866" lon="-2.17932">
        <ele>25.15</ele>
      </trkpt>
      <trkpt lat="47.12867" lon="-2.17921">
        <ele>25.19</ele>
      </trkpt>
      <trkpt lat="47.12894" lon="-2.17913">
        <ele>26.27</ele>
      </trkpt>
      <trkpt lat="47.12936" lon="-2.179">
        <ele>27.39</ele>
      </trkpt>
      <trkpt lat="47.12948" lon="-2.17897">
        <ele>27.47</ele>
      </trkpt>
      <trkpt lat="47.12948" lon="-2.17896">
        <ele>27.5</ele>
      </trkpt>
      <trkpt lat="47.1294" lon="-2.17828">
        <ele>29.02</ele>
      </trkpt>
      <trkpt lat="47.12958" lon="-2.17817">
        <ele>29.1</ele>
      </trkpt>
      <trkpt lat="47.12955" lon="-2.1779">
        <ele>29.24</ele>
      </trkpt>
      <trkpt lat="47.12951" lon="-2.17747">
        <ele>29.4</ele>
      </trkpt>
      <trkpt lat="47.12944" lon="-2.17709">
        <ele>29.17</ele>
      </trkpt>
      <trkpt lat="47.12943" lon="-2.17705">
        <ele>29.15</ele>
      </trkpt>
      <trkpt lat="47.12914" lon="-2.1772">
        <ele>28.94</ele>
      </trkpt>
      <trkpt lat="47.12892" lon="-2.17729">
        <ele>28.49</ele>
      </trkpt>
      <trkpt lat="47.12847" lon="-2.17734">
        <ele>27.48</ele>
      </trkpt>
      <trkpt lat="47.12845" lon="-2.17724">
        <ele>27.54</ele>
      </trkpt>
      <trkpt lat="47.12796" lon="-2.17466">
        <ele>26.52</ele>
      </trkpt>
      <trkpt lat="47.12796" lon="-2.17463">
        <ele>26.46</ele>
      </trkpt>
      <trkpt lat="47.12764" lon="-2.17472">
        <ele>25.73</ele>
      </trkpt>
      <trkpt lat="47.12735" lon="-2.17443">
        <ele>24.41</ele>
      </trkpt>
      <trkpt lat="47.12727" lon="-2.17435">
        <ele>24.1</ele>
      </trkpt>
      <trkpt lat="47.12719" lon="-2.17418">
        <ele>23.66</ele>
      </trkpt>
      <trkpt lat="47.12705" lon="-2.17386">
        <ele>22.9</ele>
      </trkpt>
      <trkpt lat="47.12669" lon="-2.17334">
        <ele>21.06</ele>
      </trkpt>
      <trkpt lat="47.12649" lon="-2.173">
        <ele>20.36</ele>
      </trkpt>
      <trkpt lat="47.12648" lon="-2.173">
        <ele>20.33</ele>
      </trkpt>
      <trkpt lat="47.12641" lon="-2.17296">
        <ele>20.09</ele>
      </trkpt>
      <trkpt lat="47.12616" lon="-2.17239">
        <ele>19.25</ele>
      </trkpt>
      <trkpt lat="47.12608" lon="-2.17208">
        <ele>19.24</ele>
      </trkpt>
      <trkpt lat="47.12601" lon="-2.1717">
        <ele>19.4</ele>
      </trkpt>
      <trkpt lat="47.12565" lon="-2.17032">
        <ele>21.46</ele>
      </trkpt>
      <trkpt lat="47.1239" lon="-2.17101">
        <ele>22.71</ele>
      </trkpt>
      <trkpt lat="47.12328" lon="-2.17175">
        <ele>22.95</ele>
      </trkpt>
      <trkpt lat="47.12209" lon="-2.17285">
        <ele>20.61</ele>
      </trkpt>
      <trkpt lat="47.12194" lon="-2.17279">
        <ele>20.32</ele>
      </trkpt>
      <trkpt lat="47.12167" lon="-2.17261">
        <ele>19.88</ele>
      </trkpt>
      <trkpt lat="47.1214" lon="-2.17136">
        <ele>19.61</ele>
      </trkpt>
      <trkpt lat="47.12105" lon="-2.16957">
        <ele>19.04</ele>
      </trkpt>
      <trkpt lat="47.12073" lon="-2.16774">
        <ele>18.37</ele>
      </trkpt>
      <trkpt lat="47.12051" lon="-2.16715">
        <ele>17.25</ele>
      </trkpt>
      <trkpt lat="47.11905" lon="-2.16832">
        <ele>9.75</ele>
      </trkpt>
      <trkpt lat="47.11848" lon="-2.16629">
        <ele>5.87</ele>
      </trkpt>
      <trkpt lat="47.11838" lon="-2.16517">
        <ele>2.63</ele>
      </trkpt>
      <trkpt lat="47.1191" lon="-2.16478">
        <ele>8.04</ele>
      </trkpt>
      <trkpt lat="47.11939" lon="-2.16459">
        <ele>8.84</ele>
      </trkpt>
      <trkpt lat="47.11882" lon="-2.16376">
        <ele>7.26</ele>
      </trkpt>
      <trkpt lat="47.1185" lon="-2.1613">
        <ele>15.63</ele>
      </trkpt>
      <trkpt lat="47.11854" lon="-2.16091">
        <ele>17.63</ele>
      </trkpt>
      <trkpt lat="47.11809" lon="-2.15871">
        <ele>19.67</ele>
      </trkpt>
      <trkpt lat="47.11805" lon="-2.15872">
        <ele>19.5</ele>
      </trkpt>
      <trkpt lat="47.11724" lon="-2.15883">
        <ele>16.9</ele>
      </trkpt>
      <trkpt lat="47.11719" lon="-2.15834">
        <ele>17.62</ele>
      </trkpt>
      <trkpt lat="47.11689" lon="-2.1573">
        <ele>21.01</ele>
      </trkpt>
      <trkpt lat="47.1167" lon="-2.15708">
        <ele>21.95</ele>
      </trkpt>
      <trkpt lat="47.11646" lon="-2.15582">
        <ele>23.76</ele>
      </trkpt>
      <trkpt lat="47.11605" lon="-2.15581">
        <ele>23.32</ele>
      </trkpt>
      <trkpt lat="47.11591" lon="-2.15453">
        <ele>25.05</ele>
      </trkpt>
      <trkpt lat="47.11585" lon="-2.15278">
        <ele>26.35</ele>
      </trkpt>
      <trkpt lat="47.11593" lon="-2.152">
        <ele>26.05</ele>
      </trkpt>
      <trkpt lat="47.11555" lon="-2.15025">
        <ele>23.35</ele>
      </trkpt>
      <trkpt lat="47.11595" lon="-2.1501">
        <ele>23.37</ele>
      </trkpt>
      <trkpt lat="47.11617" lon="-2.14917">
        <ele>21.61</ele>
      </trkpt>
      <trkpt lat="47.11625" lon="-2.14831">
        <ele>17.51</ele>
      </trkpt>
      <trkpt lat="47.11489" lon="-2.14697">
        <ele>12.19</ele>
      </trkpt>
      <trkpt lat="47.11448" lon="-2.14664">
        <ele>9.99</ele>
      </trkpt>
      <trkpt lat="47.11395" lon="-2.1464">
        <ele>10.86</ele>
      </trkpt>
      <trkpt lat="47.113" lon="-2.1463">
        <ele>5.85</ele>
      </trkpt>
      <trkpt lat="47.11272" lon="-2.14543">
        <ele>8.2</ele>
      </trkpt>
      <trkpt lat="47.11256" lon="-2.14479">
        <ele>8.75</ele>
      </trkpt>
      <trkpt lat="47.11234" lon="-2.14435">
        <ele>8.56</ele>
      </trkpt>
      <trkpt lat="47.11211" lon="-2.14247">
        <ele>9.33</ele>
      </trkpt>
      <trkpt lat="47.11217" lon="-2.14149">
        <ele>9.4</ele>
      </trkpt>
      <trkpt lat="47.1121" lon="-2.14095">
        <ele>8.64</ele>
      </trkpt>
      <trkpt lat="47.11218" lon="-2.13973">
        <ele>10.67</ele>
      </trkpt>
      <trkpt lat="47.11193" lon="-2.13934">
        <ele>8.24</ele>
      </trkpt>
      <trkpt lat="47.11191" lon="-2.1386">
        <ele>9.26</ele>
      </trkpt>
      <trkpt lat="47.11209" lon="-2.13792">
        <ele>14.1</ele>
      </trkpt>
      <trkpt lat="47.11207" lon="-2.1376">
        <ele>14.57</ele>
      </trkpt>
      <trkpt lat="47.11192" lon="-2.13704">
        <ele>14.74</ele>
      </trkpt>
      <trkpt lat="47.11199" lon="-2.1366">
        <ele>17.5</ele>
      </trkpt>
      <trkpt lat="47.11232" lon="-2.13542">
        <ele>20.59</ele>
      </trkpt>
      <trkpt lat="47.11236" lon="-2.13461">
        <ele>19.71875</ele>
      </trkpt>
      <trkpt lat="47.11236" lon="-2.13461">
        <ele>19.71875</ele>
      </trkpt>
      <trkpt lat="47.1124" lon="-2.13398">
        <ele>20.8984375</ele>
      </trkpt>
      <trkpt lat="47.11245" lon="-2.13388">
        <ele>21.63</ele>
      </trkpt>
      <trkpt lat="47.11291" lon="-2.13264">
        <ele>21.78</ele>
      </trkpt>
      <trkpt lat="47.11273" lon="-2.13118">
        <ele>19.52</ele>
      </trkpt>
      <trkpt lat="47.11286" lon="-2.13041">
        <ele>19.65</ele>
      </trkpt>
      <trkpt lat="47.11282" lon="-2.13038">
        <ele>19.4</ele>
      </trkpt>
      <trkpt lat="47.11257" lon="-2.1302">
        <ele>17.67</ele>
      </trkpt>
      <trkpt lat="47.11243" lon="-2.12952">
        <ele>15.91</ele>
      </trkpt>
      <trkpt lat="47.11234" lon="-2.12742">
        <ele>12.52</ele>
      </trkpt>
      <trkpt lat="47.11233" lon="-2.12691">
        <ele>12.43</ele>
      </trkpt>
      <trkpt lat="47.11193" lon="-2.12592">
        <ele>9.62</ele>
      </trkpt>
      <trkpt lat="47.11148" lon="-2.12463">
        <ele>7.8</ele>
      </trkpt>
      <trkpt lat="47.11151" lon="-2.12402">
        <ele>9.37</ele>
      </trkpt>
      <trkpt lat="47.11154" lon="-2.12359">
        <ele>10.73</ele>
      </trkpt>
      <trkpt lat="47.11117" lon="-2.1232">
        <ele>10.49</ele>
      </trkpt>
      <trkpt lat="47.1107" lon="-2.12274">
        <ele>9.64</ele>
      </trkpt>
      <trkpt lat="47.11045" lon="-2.12178">
        <ele>11.34</ele>
      </trkpt>
      <trkpt lat="47.11036" lon="-2.12057">
        <ele>11.1</ele>
      </trkpt>
      <trkpt lat="47.1105" lon="-2.1195">
        <ele>12.67</ele>
      </trkpt>
      <trkpt lat="47.11061" lon="-2.11729">
        <ele>11.24</ele>
      </trkpt>
      <trkpt lat="47.11061" lon="-2.11622">
        <ele>11.49</ele>
      </trkpt>
      <trkpt lat="47.11053" lon="-2.11536">
        <ele>12.3</ele>
      </trkpt>
      <trkpt lat="47.1109" lon="-2.11326">
        <ele>17.47</ele>
      </trkpt>
      <trkpt lat="47.11156" lon="-2.11132">
        <ele>20.49</ele>
      </trkpt>
      <trkpt lat="47.11224" lon="-2.10916">
        <ele>18.79</ele>
      </trkpt>
      <trkpt lat="47.11259" lon="-2.10742">
        <ele>10.7</ele>
      </trkpt>
      <trkpt lat="47.11395" lon="-2.10662">
        <ele>8.53</ele>
      </trkpt>
      <trkpt lat="47.11455" lon="-2.1061">
        <ele>12.55</ele>
      </trkpt>
      <trkpt lat="47.11455" lon="-2.10574">
        <ele>14.05</ele>
      </trkpt>
      <trkpt lat="47.11463" lon="-2.10532">
        <ele>14.13</ele>
      </trkpt>
      <trkpt lat="47.11472" lon="-2.10496">
        <ele>14.39</ele>
      </trkpt>
      <trkpt lat="47.11469" lon="-2.1045">
        <ele>11.61</ele>
      </trkpt>
      <trkpt lat="47.11463" lon="-2.10416">
        <ele>9.09</ele>
      </trkpt>
      <trkpt lat="47.11479" lon="-2.10288">
        <ele>6.65</ele>
      </trkpt>
      <trkpt lat="47.11492" lon="-2.10188">
        <ele>4.74</ele>
      </trkpt>
      <trkpt lat="47.11493" lon="-2.10108">
        <ele>5.01</ele>
      </trkpt>
      <trkpt lat="47.11499" lon="-2.10058">
        <ele>4.74</ele>
      </trkpt>
      <trkpt lat="47.11514" lon="-2.09995">
        <ele>4.93</ele>
      </trkpt>
      <trkpt lat="47.11535" lon="-2.09978">
        <ele>6.28</ele>
      </trkpt>
      <trkpt lat="47.11537" lon="-2.09877">
        <ele>5.47</ele>
      </trkpt>
      <trkpt lat="47.11537" lon="-2.09877">
        <ele>5.47</ele>
      </trkpt>
      <trkpt lat="47.11535" lon="-2.09877">
        <ele>5.35</ele>
      </trkpt>
      <trkpt lat="47.1153" lon="-2.09876">
        <ele>5</ele>
      </trkpt>
      <trkpt lat="47.11497" lon="-2.09869">
        <ele>3.12</ele>
      </trkpt>
      <trkpt lat="47.11494" lon="-2.09863">
        <ele>1.23828125</ele>
      </trkpt>
      <trkpt lat="47.11494" lon="-2.09863">
        <ele>1.234375</ele>
      </trkpt>
      <trkpt lat="47.11478" lon="-2.09856">
        <ele>4.06</ele>
      </trkpt>
      <trkpt lat="47.1147" lon="-2.09853">
        <ele>4.43</ele>
      </trkpt>
      <trkpt lat="47.11461" lon="-2.0985">
        <ele>4.86</ele>
      </trkpt>
      <trkpt lat="47.11464" lon="-2.0986">
        <ele>4.75</ele>
      </trkpt>
      <trkpt lat="47.11457" lon="-2.0986">
        <ele>5.08</ele>
      </trkpt>
      <trkpt lat="47.11457" lon="-2.0986">
        <ele>5.08</ele>
      </trkpt>
      <trkpt lat="47.11457" lon="-2.0986">
        <ele>5.08</ele>
      </trkpt>
      <trkpt lat="47.11456" lon="-2.09862">
        <ele>5.11</ele>
      </trkpt>
      <trkpt lat="47.11454" lon="-2.0987">
        <ele>5.22</ele>
      </trkpt>
      <trkpt lat="47.11449" lon="-2.09897">
        <ele>5.46</ele>
      </trkpt>
      <trkpt lat="47.11436" lon="-2.09966">
        <ele>6.69</ele>
      </trkpt>
      <trkpt lat="47.11432" lon="-2.09984">
        <ele>7.06</ele>
      </trkpt>
      <trkpt lat="47.11427" lon="-2.10014">
        <ele>7.67</ele>
      </trkpt>
      <trkpt lat="47.11426" lon="-2.10024">
        <ele>7.83</ele>
      </trkpt>
      <trkpt lat="47.11425" lon="-2.10042">
        <ele>8.08</ele>
      </trkpt>
      <trkpt lat="47.11424" lon="-2.10076">
        <ele>8.55</ele>
      </trkpt>
      <trkpt lat="47.11424" lon="-2.10082">
        <ele>8.63</ele>
      </trkpt>
      <trkpt lat="47.11423" lon="-2.10098">
        <ele>8.52</ele>
      </trkpt>
      <trkpt lat="47.11422" lon="-2.10107">
        <ele>8.47</ele>
      </trkpt>
      <trkpt lat="47.11419" lon="-2.10129">
        <ele>8.35</ele>
      </trkpt>
      <trkpt lat="47.11418" lon="-2.10138">
        <ele>8.29</ele>
      </trkpt>
      <trkpt lat="47.11415" lon="-2.10157">
        <ele>8.39</ele>
      </trkpt>
      <trkpt lat="47.11407" lon="-2.10196">
        <ele>7.86</ele>
      </trkpt>
      <trkpt lat="47.11403" lon="-2.10213">
        <ele>7.37</ele>
      </trkpt>
      <trkpt lat="47.11399" lon="-2.10229">
        <ele>7.05</ele>
      </trkpt>
      <trkpt lat="47.11395" lon="-2.10239">
        <ele>6.95</ele>
      </trkpt>
      <trkpt lat="47.11391" lon="-2.10245">
        <ele>7.02</ele>
      </trkpt>
      <trkpt lat="47.11382" lon="-2.10258">
        <ele>7.57</ele>
      </trkpt>
      <trkpt lat="47.11369" lon="-2.10278">
        <ele>8.1</ele>
      </trkpt>
      <trkpt lat="47.11357" lon="-2.10295">
        <ele>8.23</ele>
      </trkpt>
      <trkpt lat="47.11345" lon="-2.10313">
        <ele>7.94</ele>
      </trkpt>
      <trkpt lat="47.11339" lon="-2.10322">
        <ele>7.6</ele>
      </trkpt>
      <trkpt lat="47.11329" lon="-2.10333">
        <ele>7.54</ele>
      </trkpt>
      <trkpt lat="47.11319" lon="-2.10343">
        <ele>7.64</ele>
      </trkpt>
      <trkpt lat="47.11312" lon="-2.10347">
        <ele>7.82</ele>
      </trkpt>
      <trkpt lat="47.11306" lon="-2.10351">
        <ele>7.99</ele>
      </trkpt>
      <trkpt lat="47.11289" lon="-2.10364">
        <ele>8.27</ele>
      </trkpt>
      <trkpt lat="47.11283" lon="-2.10368">
        <ele>8.41</ele>
      </trkpt>
      <trkpt lat="47.11274" lon="-2.10373">
        <ele>8.58</ele>
      </trkpt>
      <trkpt lat="47.11259" lon="-2.10378">
        <ele>9.26</ele>
      </trkpt>
      <trkpt lat="47.11245" lon="-2.10383">
        <ele>9.76</ele>
      </trkpt>
      <trkpt lat="47.11239" lon="-2.10386">
        <ele>9.78</ele>
      </trkpt>
      <trkpt lat="47.11229" lon="-2.10395">
        <ele>9.33</ele>
      </trkpt>
      <trkpt lat="47.1122" lon="-2.10413">
        <ele>7.98</ele>
      </trkpt>
      <trkpt lat="47.1121" lon="-2.10429">
        <ele>7.06</ele>
      </trkpt>
      <trkpt lat="47.11206" lon="-2.10435">
        <ele>6.76</ele>
      </trkpt>
      <trkpt lat="47.11201" lon="-2.10439">
        <ele>6.73</ele>
      </trkpt>
      <trkpt lat="47.11187" lon="-2.10446">
        <ele>6.89</ele>
      </trkpt>
      <trkpt lat="47.11178" lon="-2.10449">
        <ele>7.02</ele>
      </trkpt>
      <trkpt lat="47.11168" lon="-2.1045">
        <ele>7.48</ele>
      </trkpt>
      <trkpt lat="47.11161" lon="-2.1045">
        <ele>8.01</ele>
      </trkpt>
      <trkpt lat="47.11154" lon="-2.10446">
        <ele>8.97</ele>
      </trkpt>
      <trkpt lat="47.11143" lon="-2.10438">
        <ele>10.79</ele>
      </trkpt>
      <trkpt lat="47.11128" lon="-2.10424">
        <ele>13.4</ele>
      </trkpt>
      <trkpt lat="47.11122" lon="-2.10421">
        <ele>14.22</ele>
      </trkpt>
      <trkpt lat="47.11112" lon="-2.1042">
        <ele>14.9</ele>
      </trkpt>
      <trkpt lat="47.11103" lon="-2.10423">
        <ele>15.11</ele>
      </trkpt>
      <trkpt lat="47.11098" lon="-2.10428">
        <ele>14.83</ele>
      </trkpt>
      <trkpt lat="47.11095" lon="-2.10434">
        <ele>14.38</ele>
      </trkpt>
      <trkpt lat="47.11089" lon="-2.10447">
        <ele>13.29</ele>
      </trkpt>
      <trkpt lat="47.11081" lon="-2.10468">
        <ele>11.65</ele>
      </trkpt>
      <trkpt lat="47.11076" lon="-2.10485">
        <ele>10.65</ele>
      </trkpt>
      <trkpt lat="47.11072" lon="-2.10498">
        <ele>9.9</ele>
      </trkpt>
      <trkpt lat="47.11067" lon="-2.10507">
        <ele>9.68</ele>
      </trkpt>
      <trkpt lat="47.11064" lon="-2.10513">
        <ele>9.56</ele>
      </trkpt>
      <trkpt lat="47.11053" lon="-2.10525">
        <ele>10.02</ele>
      </trkpt>
      <trkpt lat="47.11046" lon="-2.10533">
        <ele>10.16</ele>
      </trkpt>
      <trkpt lat="47.11039" lon="-2.10544">
        <ele>10.1</ele>
      </trkpt>
      <trkpt lat="47.11034" lon="-2.1055">
        <ele>10.28</ele>
      </trkpt>
      <trkpt lat="47.11023" lon="-2.10561">
        <ele>10.78</ele>
      </trkpt>
      <trkpt lat="47.11018" lon="-2.10565">
        <ele>11.08</ele>
      </trkpt>
      <trkpt lat="47.11012" lon="-2.1057">
        <ele>11.46</ele>
      </trkpt>
      <trkpt lat="47.11006" lon="-2.10578">
        <ele>11.64</ele>
      </trkpt>
      <trkpt lat="47.11001" lon="-2.10586">
        <ele>11.55</ele>
      </trkpt>
      <trkpt lat="47.10997" lon="-2.10596">
        <ele>11.18</ele>
      </trkpt>
      <trkpt lat="47.10992" lon="-2.10608">
        <ele>10.6</ele>
      </trkpt>
      <trkpt lat="47.10987" lon="-2.1062">
        <ele>10.02</ele>
      </trkpt>
      <trkpt lat="47.10986" lon="-2.1063">
        <ele>9.34</ele>
      </trkpt>
      <trkpt lat="47.10987" lon="-2.10639">
        <ele>8.54</ele>
      </trkpt>
      <trkpt lat="47.10991" lon="-2.10648">
        <ele>7.45</ele>
      </trkpt>
      <trkpt lat="47.10994" lon="-2.10656">
        <ele>6.53</ele>
      </trkpt>
      <trkpt lat="47.10993" lon="-2.10665">
        <ele>5.91</ele>
      </trkpt>
      <trkpt lat="47.1099" lon="-2.10673">
        <ele>5.55</ele>
      </trkpt>
      <trkpt lat="47.10986" lon="-2.10681">
        <ele>5.33</ele>
      </trkpt>
      <trkpt lat="47.10981" lon="-2.10688">
        <ele>5.12</ele>
      </trkpt>
      <trkpt lat="47.10973" lon="-2.10698">
        <ele>5.11</ele>
      </trkpt>
      <trkpt lat="47.10966" lon="-2.10704">
        <ele>5.22</ele>
      </trkpt>
      <trkpt lat="47.10961" lon="-2.10711">
        <ele>5.06</ele>
      </trkpt>
      <trkpt lat="47.10957" lon="-2.10718">
        <ele>4.74</ele>
      </trkpt>
      <trkpt lat="47.10952" lon="-2.10727">
        <ele>4.27</ele>
      </trkpt>
      <trkpt lat="47.10947" lon="-2.10736">
        <ele>3.9</ele>
      </trkpt>
      <trkpt lat="47.1094" lon="-2.10741">
        <ele>3.99</ele>
      </trkpt>
      <trkpt lat="47.1093" lon="-2.10744">
        <ele>4.55</ele>
      </trkpt>
      <trkpt lat="47.10923" lon="-2.10741">
        <ele>5.43</ele>
      </trkpt>
      <trkpt lat="47.10918" lon="-2.10735">
        <ele>6.46</ele>
      </trkpt>
      <trkpt lat="47.10908" lon="-2.10723">
        <ele>7.39</ele>
      </trkpt>
      <trkpt lat="47.10897" lon="-2.1072">
        <ele>7.12</ele>
      </trkpt>
      <trkpt lat="47.10888" lon="-2.10724">
        <ele>6.25</ele>
      </trkpt>
      <trkpt lat="47.10881" lon="-2.10727">
        <ele>5.51</ele>
      </trkpt>
      <trkpt lat="47.10876" lon="-2.1073">
        <ele>5</ele>
      </trkpt>
      <trkpt lat="47.10869" lon="-2.10733">
        <ele>4.35</ele>
      </trkpt>
      <trkpt lat="47.10862" lon="-2.10735">
        <ele>3.77</ele>
      </trkpt>
      <trkpt lat="47.10857" lon="-2.10735">
        <ele>3.47</ele>
      </trkpt>
      <trkpt lat="47.10852" lon="-2.10733">
        <ele>3.38</ele>
      </trkpt>
      <trkpt lat="47.10842" lon="-2.10719">
        <ele>4.13</ele>
      </trkpt>
      <trkpt lat="47.10838" lon="-2.10712">
        <ele>4.46</ele>
      </trkpt>
      <trkpt lat="47.10836" lon="-2.1071">
        <ele>4.56</ele>
      </trkpt>
      <trkpt lat="47.10836" lon="-2.1071">
        <ele>4.56</ele>
      </trkpt>
      <trkpt lat="47.10836" lon="-2.1071">
        <ele>4.56</ele>
      </trkpt>
      <trkpt lat="47.10835" lon="-2.10708">
        <ele>4.66</ele>
      </trkpt>
      <trkpt lat="47.10832" lon="-2.10703">
        <ele>4.9</ele>
      </trkpt>
      <trkpt lat="47.10827" lon="-2.10697">
        <ele>5.2</ele>
      </trkpt>
      <trkpt lat="47.10821" lon="-2.10691">
        <ele>5.38</ele>
      </trkpt>
      <trkpt lat="47.10816" lon="-2.10685">
        <ele>5.48</ele>
      </trkpt>
      <trkpt lat="47.10811" lon="-2.10677">
        <ele>5.73</ele>
      </trkpt>
      <trkpt lat="47.10807" lon="-2.10667">
        <ele>6.09</ele>
      </trkpt>
      <trkpt lat="47.10804" lon="-2.1066">
        <ele>6.46</ele>
      </trkpt>
      <trkpt lat="47.10799" lon="-2.10652">
        <ele>6.71</ele>
      </trkpt>
      <trkpt lat="47.10788" lon="-2.10642">
        <ele>6.79</ele>
      </trkpt>
      <trkpt lat="47.10776" lon="-2.10632">
        <ele>6.79</ele>
      </trkpt>
      <trkpt lat="47.10771" lon="-2.10626">
        <ele>6.86</ele>
      </trkpt>
      <trkpt lat="47.10765" lon="-2.10623">
        <ele>6.73</ele>
      </trkpt>
      <trkpt lat="47.10759" lon="-2.10618">
        <ele>6.7</ele>
      </trkpt>
      <trkpt lat="47.10753" lon="-2.10609">
        <ele>7</ele>
      </trkpt>
      <trkpt lat="47.10747" lon="-2.10599">
        <ele>7.47</ele>
      </trkpt>
      <trkpt lat="47.10743" lon="-2.10593">
        <ele>7.56</ele>
      </trkpt>
      <trkpt lat="47.10735" lon="-2.10584">
        <ele>7.53</ele>
      </trkpt>
      <trkpt lat="47.10755" lon="-2.10537">
        <ele>12.14</ele>
      </trkpt>
      <trkpt lat="47.1078" lon="-2.10481">
        <ele>16.52</ele>
      </trkpt>
      <trkpt lat="47.10789" lon="-2.10458">
        <ele>18.04</ele>
      </trkpt>
      <trkpt lat="47.10819" lon="-2.10391">
        <ele>22.35</ele>
      </trkpt>
      <trkpt lat="47.10826" lon="-2.10375">
        <ele>23.04</ele>
      </trkpt>
      <trkpt lat="47.10834" lon="-2.10358">
        <ele>23.7</ele>
      </trkpt>
      <trkpt lat="47.10838" lon="-2.10351">
        <ele>23.78</ele>
      </trkpt>
      <trkpt lat="47.10841" lon="-2.10344">
        <ele>23.86</ele>
      </trkpt>
      <trkpt lat="47.10842" lon="-2.10342">
        <ele>23.89</ele>
      </trkpt>
      <trkpt lat="47.10842" lon="-2.10342">
        <ele>23.89</ele>
      </trkpt>
      <trkpt lat="47.10846" lon="-2.10332">
        <ele>24</ele>
      </trkpt>
      <trkpt lat="47.10859" lon="-2.10304">
        <ele>24.21</ele>
      </trkpt>
      <trkpt lat="47.10885" lon="-2.10243">
        <ele>25.41</ele>
      </trkpt>
      <trkpt lat="47.10915" lon="-2.10176">
        <ele>27.72</ele>
      </trkpt>
      <trkpt lat="47.10926" lon="-2.10152">
        <ele>28.43</ele>
      </trkpt>
      <trkpt lat="47.10933" lon="-2.10138">
        <ele>28.8</ele>
      </trkpt>
      <trkpt lat="47.10938" lon="-2.10126">
        <ele>29.11</ele>
      </trkpt>
      <trkpt lat="47.10983" lon="-2.10019">
        <ele>30.61</ele>
      </trkpt>
      <trkpt lat="47.10992" lon="-2.10001">
        <ele>30.72</ele>
      </trkpt>
      <trkpt lat="47.11004" lon="-2.09973">
        <ele>30.34</ele>
      </trkpt>
      <trkpt lat="47.11016" lon="-2.09947">
        <ele>29.91</ele>
      </trkpt>
      <trkpt lat="47.11022" lon="-2.09934">
        <ele>29.77</ele>
      </trkpt>
      <trkpt lat="47.11025" lon="-2.09927">
        <ele>29.73</ele>
      </trkpt>
      <trkpt lat="47.11036" lon="-2.09903">
        <ele>29.86</ele>
      </trkpt>
      <trkpt lat="47.11043" lon="-2.09881">
        <ele>30.04</ele>
      </trkpt>
      <trkpt lat="47.11046" lon="-2.09861">
        <ele>30.1</ele>
      </trkpt>
      <trkpt lat="47.11045" lon="-2.09842">
        <ele>30.08</ele>
      </trkpt>
      <trkpt lat="47.11041" lon="-2.09822">
        <ele>29.79</ele>
      </trkpt>
      <trkpt lat="47.11036" lon="-2.09799">
        <ele>29.27</ele>
      </trkpt>
      <trkpt lat="47.11033" lon="-2.09788">
        <ele>29.04</ele>
      </trkpt>
      <trkpt lat="47.11015" lon="-2.09721">
        <ele>28.12</ele>
      </trkpt>
      <trkpt lat="47.10999" lon="-2.09664">
        <ele>27.96</ele>
      </trkpt>
      <trkpt lat="47.10983" lon="-2.09605">
        <ele>26.86</ele>
      </trkpt>
      <trkpt lat="47.10972" lon="-2.09566">
        <ele>25.87</ele>
      </trkpt>
      <trkpt lat="47.10963" lon="-2.09539">
        <ele>25.23</ele>
      </trkpt>
      <trkpt lat="47.10952" lon="-2.0951">
        <ele>24.81</ele>
      </trkpt>
      <trkpt lat="47.10928" lon="-2.09443">
        <ele>24.87</ele>
      </trkpt>
      <trkpt lat="47.10909" lon="-2.09401">
        <ele>24.98</ele>
      </trkpt>
      <trkpt lat="47.10895" lon="-2.09377">
        <ele>24.88</ele>
      </trkpt>
      <trkpt lat="47.10882" lon="-2.09355">
        <ele>24.7</ele>
      </trkpt>
      <trkpt lat="47.10872" lon="-2.09336">
        <ele>24.48</ele>
      </trkpt>
      <trkpt lat="47.10866" lon="-2.09323">
        <ele>24.52</ele>
      </trkpt>
      <trkpt lat="47.10854" lon="-2.09296">
        <ele>24.7</ele>
      </trkpt>
      <trkpt lat="47.10849" lon="-2.09279">
        <ele>24.84</ele>
      </trkpt>
      <trkpt lat="47.10847" lon="-2.09272">
        <ele>24.9</ele>
      </trkpt>
      <trkpt lat="47.10842" lon="-2.0925">
        <ele>25.11</ele>
      </trkpt>
      <trkpt lat="47.10836" lon="-2.09212">
        <ele>25.92</ele>
      </trkpt>
      <trkpt lat="47.10825" lon="-2.09148">
        <ele>27.2</ele>
      </trkpt>
      <trkpt lat="47.10818" lon="-2.09112">
        <ele>27.54</ele>
      </trkpt>
      <trkpt lat="47.10813" lon="-2.09105">
        <ele>27.56</ele>
      </trkpt>
      <trkpt lat="47.10784" lon="-2.09074">
        <ele>27.34</ele>
      </trkpt>
      <trkpt lat="47.10779" lon="-2.09069">
        <ele>27.24</ele>
      </trkpt>
      <trkpt lat="47.10772" lon="-2.09067">
        <ele>27.12</ele>
      </trkpt>
      <trkpt lat="47.10766" lon="-2.09067">
        <ele>27.04</ele>
      </trkpt>
      <trkpt lat="47.10761" lon="-2.09071">
        <ele>27.01</ele>
      </trkpt>
      <trkpt lat="47.10757" lon="-2.09053">
        <ele>26.76</ele>
      </trkpt>
      <trkpt lat="47.10746" lon="-2.09">
        <ele>25.89</ele>
      </trkpt>
      <trkpt lat="47.1074" lon="-2.0897">
        <ele>25.72</ele>
      </trkpt>
      <trkpt lat="47.10739" lon="-2.08952">
        <ele>25.67</ele>
      </trkpt>
      <trkpt lat="47.1074" lon="-2.08939">
        <ele>25.67</ele>
      </trkpt>
      <trkpt lat="47.10745" lon="-2.08925">
        <ele>25.83</ele>
      </trkpt>
      <trkpt lat="47.10753" lon="-2.08906">
        <ele>26.16</ele>
      </trkpt>
      <trkpt lat="47.10767" lon="-2.08879">
        <ele>26.57</ele>
      </trkpt>
      <trkpt lat="47.1077" lon="-2.08853">
        <ele>26.82</ele>
      </trkpt>
      <trkpt lat="47.10772" lon="-2.08835">
        <ele>26.99</ele>
      </trkpt>
      <trkpt lat="47.10771" lon="-2.08824">
        <ele>27.12</ele>
      </trkpt>
      <trkpt lat="47.10769" lon="-2.08812">
        <ele>27.26</ele>
      </trkpt>
      <trkpt lat="47.10763" lon="-2.0879">
        <ele>27.52</ele>
      </trkpt>
      <trkpt lat="47.10746" lon="-2.08731">
        <ele>28.13</ele>
      </trkpt>
      <trkpt lat="47.10741" lon="-2.08712">
        <ele>28.24</ele>
      </trkpt>
      <trkpt lat="47.10734" lon="-2.08682">
        <ele>28.43</ele>
      </trkpt>
      <trkpt lat="47.10731" lon="-2.08664">
        <ele>28.59</ele>
      </trkpt>
      <trkpt lat="47.10726" lon="-2.08653">
        <ele>28.6</ele>
      </trkpt>
      <trkpt lat="47.10721" lon="-2.08639">
        <ele>28.63</ele>
      </trkpt>
      <trkpt lat="47.10719" lon="-2.08631">
        <ele>28.64</ele>
      </trkpt>
      <trkpt lat="47.10715" lon="-2.08612">
        <ele>28.63</ele>
      </trkpt>
      <trkpt lat="47.10711" lon="-2.08586">
        <ele>28.64</ele>
      </trkpt>
      <trkpt lat="47.10708" lon="-2.08551">
        <ele>29.1</ele>
      </trkpt>
      <trkpt lat="47.10706" lon="-2.0853">
        <ele>29.31</ele>
      </trkpt>
      <trkpt lat="47.10705" lon="-2.08517">
        <ele>29.44</ele>
      </trkpt>
      <trkpt lat="47.10703" lon="-2.08505">
        <ele>29.52</ele>
      </trkpt>
      <trkpt lat="47.10701" lon="-2.08495">
        <ele>29.44</ele>
      </trkpt>
      <trkpt lat="47.10697" lon="-2.08479">
        <ele>28.9</ele>
      </trkpt>
      <trkpt lat="47.1069" lon="-2.08463">
        <ele>28.26</ele>
      </trkpt>
      <trkpt lat="47.10682" lon="-2.08446">
        <ele>27.48</ele>
      </trkpt>
      <trkpt lat="47.10666" lon="-2.08416">
        <ele>25.99</ele>
      </trkpt>
      <trkpt lat="47.1065" lon="-2.08389">
        <ele>25.73</ele>
      </trkpt>
      <trkpt lat="47.10642" lon="-2.08373">
        <ele>25.71</ele>
      </trkpt>
      <trkpt lat="47.10622" lon="-2.08337">
        <ele>25.95</ele>
      </trkpt>
      <trkpt lat="47.10611" lon="-2.08318">
        <ele>26.37</ele>
      </trkpt>
      <trkpt lat="47.106" lon="-2.08298">
        <ele>26.85</ele>
      </trkpt>
      <trkpt lat="47.10588" lon="-2.08276">
        <ele>27.37</ele>
      </trkpt>
      <trkpt lat="47.10546" lon="-2.08196">
        <ele>25.62</ele>
      </trkpt>
      <trkpt lat="47.10527" lon="-2.08157">
        <ele>24.7</ele>
      </trkpt>
      <trkpt lat="47.1052" lon="-2.08141">
        <ele>24.43</ele>
      </trkpt>
      <trkpt lat="47.10504" lon="-2.08108">
        <ele>23.93</ele>
      </trkpt>
      <trkpt lat="47.10487" lon="-2.08073">
        <ele>24.11</ele>
      </trkpt>
      <trkpt lat="47.10473" lon="-2.08047">
        <ele>24.69</ele>
      </trkpt>
      <trkpt lat="47.10451" lon="-2.08022">
        <ele>25.33</ele>
      </trkpt>
      <trkpt lat="47.1043" lon="-2.07997">
        <ele>25.98</ele>
      </trkpt>
      <trkpt lat="47.10422" lon="-2.0799">
        <ele>25.9</ele>
      </trkpt>
      <trkpt lat="47.1042" lon="-2.07977">
        <ele>25.75</ele>
      </trkpt>
      <trkpt lat="47.10416" lon="-2.07963">
        <ele>25.52</ele>
      </trkpt>
      <trkpt lat="47.10409" lon="-2.07946">
        <ele>24.88</ele>
      </trkpt>
      <trkpt lat="47.10404" lon="-2.07933">
        <ele>24.4</ele>
      </trkpt>
      <trkpt lat="47.10397" lon="-2.07911">
        <ele>23.76</ele>
      </trkpt>
      <trkpt lat="47.10389" lon="-2.07866">
        <ele>22.91</ele>
      </trkpt>
      <trkpt lat="47.10388" lon="-2.07849">
        <ele>22.74</ele>
      </trkpt>
      <trkpt lat="47.1039" lon="-2.07838">
        <ele>22.75</ele>
      </trkpt>
      <trkpt lat="47.10393" lon="-2.0783">
        <ele>22.88</ele>
      </trkpt>
      <trkpt lat="47.10389" lon="-2.07823">
        <ele>22.76</ele>
      </trkpt>
      <trkpt lat="47.10388" lon="-2.07814">
        <ele>22.77</ele>
      </trkpt>
      <trkpt lat="47.10393" lon="-2.07784">
        <ele>23.3</ele>
      </trkpt>
      <trkpt lat="47.10399" lon="-2.07757">
        <ele>23.88</ele>
      </trkpt>
      <trkpt lat="47.10406" lon="-2.07731">
        <ele>24.39</ele>
      </trkpt>
      <trkpt lat="47.10411" lon="-2.07715">
        <ele>24.72</ele>
      </trkpt>
      <trkpt lat="47.10413" lon="-2.07704">
        <ele>24.84</ele>
      </trkpt>
      <trkpt lat="47.10414" lon="-2.07691">
        <ele>24.87</ele>
      </trkpt>
      <trkpt lat="47.10412" lon="-2.07676">
        <ele>24.83</ele>
      </trkpt>
      <trkpt lat="47.10409" lon="-2.07655">
        <ele>24.84</ele>
      </trkpt>
      <trkpt lat="47.10404" lon="-2.07642">
        <ele>24.8</ele>
      </trkpt>
      <trkpt lat="47.104" lon="-2.07632">
        <ele>24.73</ele>
      </trkpt>
      <trkpt lat="47.10394" lon="-2.07612">
        <ele>24.65</ele>
      </trkpt>
      <trkpt lat="47.1039" lon="-2.07596">
        <ele>24.61</ele>
      </trkpt>
      <trkpt lat="47.10386" lon="-2.07582">
        <ele>24.55</ele>
      </trkpt>
      <trkpt lat="47.10385" lon="-2.07572">
        <ele>24.46</ele>
      </trkpt>
      <trkpt lat="47.10382" lon="-2.07563">
        <ele>24.33</ele>
      </trkpt>
      <trkpt lat="47.10378" lon="-2.07551">
        <ele>24.13</ele>
      </trkpt>
      <trkpt lat="47.10372" lon="-2.07532">
        <ele>23.84</ele>
      </trkpt>
      <trkpt lat="47.10364" lon="-2.07513">
        <ele>23.5</ele>
      </trkpt>
      <trkpt lat="47.1036" lon="-2.07502">
        <ele>23.27</ele>
      </trkpt>
      <trkpt lat="47.10355" lon="-2.07494">
        <ele>23.15</ele>
      </trkpt>
      <trkpt lat="47.10352" lon="-2.07483">
        <ele>23.25</ele>
      </trkpt>
      <trkpt lat="47.10352" lon="-2.07468">
        <ele>23.58</ele>
      </trkpt>
      <trkpt lat="47.10358" lon="-2.07454">
        <ele>24.15</ele>
      </trkpt>
      <trkpt lat="47.10362" lon="-2.07444">
        <ele>24.49</ele>
      </trkpt>
      <trkpt lat="47.10364" lon="-2.07433">
        <ele>24.78</ele>
      </trkpt>
      <trkpt lat="47.10369" lon="-2.07411">
        <ele>25.39</ele>
      </trkpt>
      <trkpt lat="47.10372" lon="-2.07391">
        <ele>25.89</ele>
      </trkpt>
      <trkpt lat="47.10375" lon="-2.07377">
        <ele>26.21</ele>
      </trkpt>
      <trkpt lat="47.10377" lon="-2.0736">
        <ele>26.55</ele>
      </trkpt>
      <trkpt lat="47.10379" lon="-2.07346">
        <ele>26.79</ele>
      </trkpt>
      <trkpt lat="47.1038" lon="-2.07336">
        <ele>26.96</ele>
      </trkpt>
      <trkpt lat="47.10381" lon="-2.07325">
        <ele>27.15</ele>
      </trkpt>
      <trkpt lat="47.10384" lon="-2.07317">
        <ele>27.32</ele>
      </trkpt>
      <trkpt lat="47.10388" lon="-2.07307">
        <ele>27.52</ele>
      </trkpt>
      <trkpt lat="47.10392" lon="-2.07298">
        <ele>27.72</ele>
      </trkpt>
      <trkpt lat="47.10399" lon="-2.07286">
        <ele>28.01</ele>
      </trkpt>
      <trkpt lat="47.10405" lon="-2.07275">
        <ele>28.3</ele>
      </trkpt>
      <trkpt lat="47.10411" lon="-2.07262">
        <ele>28.66</ele>
      </trkpt>
      <trkpt lat="47.10421" lon="-2.07238">
        <ele>29.15</ele>
      </trkpt>
      <trkpt lat="47.10429" lon="-2.07219">
        <ele>29.43</ele>
      </trkpt>
      <trkpt lat="47.10435" lon="-2.07201">
        <ele>29.72</ele>
      </trkpt>
      <trkpt lat="47.10437" lon="-2.07192">
        <ele>29.87</ele>
      </trkpt>
      <trkpt lat="47.10438" lon="-2.07183">
        <ele>30.01</ele>
      </trkpt>
      <trkpt lat="47.10439" lon="-2.07175">
        <ele>30.14</ele>
      </trkpt>
      <trkpt lat="47.10439" lon="-2.07158">
        <ele>30.39</ele>
      </trkpt>
      <trkpt lat="47.10439" lon="-2.07138">
        <ele>30.7</ele>
      </trkpt>
      <trkpt lat="47.1044" lon="-2.07116">
        <ele>31.07</ele>
      </trkpt>
      <trkpt lat="47.10443" lon="-2.07091">
        <ele>31.5</ele>
      </trkpt>
      <trkpt lat="47.10444" lon="-2.07081">
        <ele>31.66</ele>
      </trkpt>
      <trkpt lat="47.10446" lon="-2.0707">
        <ele>31.66</ele>
      </trkpt>
      <trkpt lat="47.10448" lon="-2.07061">
        <ele>31.65</ele>
      </trkpt>
      <trkpt lat="47.10452" lon="-2.07048">
        <ele>31.66</ele>
      </trkpt>
      <trkpt lat="47.10459" lon="-2.0702">
        <ele>31.63</ele>
      </trkpt>
      <trkpt lat="47.10465" lon="-2.06999">
        <ele>31.59</ele>
      </trkpt>
      <trkpt lat="47.10477" lon="-2.06968">
        <ele>32.22</ele>
      </trkpt>
      <trkpt lat="47.10495" lon="-2.06923">
        <ele>32.92</ele>
      </trkpt>
      <trkpt lat="47.10493" lon="-2.06916">
        <ele>33.02</ele>
      </trkpt>
      <trkpt lat="47.10486" lon="-2.06904">
        <ele>33.28</ele>
      </trkpt>
      <trkpt lat="47.1047" lon="-2.06875">
        <ele>33.82</ele>
      </trkpt>
      <trkpt lat="47.10448" lon="-2.06837">
        <ele>34.32</ele>
      </trkpt>
      <trkpt lat="47.10438" lon="-2.0682">
        <ele>34.38</ele>
      </trkpt>
      <trkpt lat="47.10424" lon="-2.06791">
        <ele>34.55</ele>
      </trkpt>
      <trkpt lat="47.10412" lon="-2.06766">
        <ele>34.79</ele>
      </trkpt>
      <trkpt lat="47.10405" lon="-2.06748">
        <ele>35</ele>
      </trkpt>
      <trkpt lat="47.10392" lon="-2.06717">
        <ele>35.12</ele>
      </trkpt>
      <trkpt lat="47.10368" lon="-2.06666">
        <ele>35.59</ele>
      </trkpt>
      <trkpt lat="47.10359" lon="-2.06644">
        <ele>35.88</ele>
      </trkpt>
      <trkpt lat="47.10361" lon="-2.06634">
        <ele>35.92</ele>
      </trkpt>
      <trkpt lat="47.10346" lon="-2.06608">
        <ele>36.44</ele>
      </trkpt>
      <trkpt lat="47.10331" lon="-2.06583">
        <ele>37</ele>
      </trkpt>
      <trkpt lat="47.10319" lon="-2.06563">
        <ele>36.84</ele>
      </trkpt>
      <trkpt lat="47.10309" lon="-2.06544">
        <ele>36.81</ele>
      </trkpt>
      <trkpt lat="47.10298" lon="-2.06523">
        <ele>36.88</ele>
      </trkpt>
      <trkpt lat="47.10286" lon="-2.06494">
        <ele>37.13</ele>
      </trkpt>
      <trkpt lat="47.10274" lon="-2.06466">
        <ele>37.25</ele>
      </trkpt>
      <trkpt lat="47.10271" lon="-2.06457">
        <ele>37.24</ele>
      </trkpt>
      <trkpt lat="47.10268" lon="-2.06445">
        <ele>37.2</ele>
      </trkpt>
      <trkpt lat="47.10264" lon="-2.06435">
        <ele>37.14</ele>
      </trkpt>
      <trkpt lat="47.10255" lon="-2.06407">
        <ele>37.11</ele>
      </trkpt>
      <trkpt lat="47.10248" lon="-2.06387">
        <ele>37.37</ele>
      </trkpt>
      <trkpt lat="47.10241" lon="-2.06367">
        <ele>37.64</ele>
      </trkpt>
      <trkpt lat="47.10236" lon="-2.06358">
        <ele>37.75</ele>
      </trkpt>
      <trkpt lat="47.10231" lon="-2.06348">
        <ele>37.86</ele>
      </trkpt>
      <trkpt lat="47.10226" lon="-2.06339">
        <ele>37.95</ele>
      </trkpt>
      <trkpt lat="47.10221" lon="-2.06332">
        <ele>37.99</ele>
      </trkpt>
      <trkpt lat="47.10216" lon="-2.06326">
        <ele>37.96</ele>
      </trkpt>
      <trkpt lat="47.1021" lon="-2.06319">
        <ele>37.92</ele>
      </trkpt>
      <trkpt lat="47.10201" lon="-2.06312">
        <ele>37.85</ele>
      </trkpt>
      <trkpt lat="47.10186" lon="-2.06299">
        <ele>37.69</ele>
      </trkpt>
      <trkpt lat="47.10172" lon="-2.06287">
        <ele>37.48</ele>
      </trkpt>
      <trkpt lat="47.10159" lon="-2.06278">
        <ele>37.39</ele>
      </trkpt>
      <trkpt lat="47.10154" lon="-2.06272">
        <ele>37.38</ele>
      </trkpt>
      <trkpt lat="47.10147" lon="-2.06264">
        <ele>37.36</ele>
      </trkpt>
      <trkpt lat="47.1014" lon="-2.06255">
        <ele>37.36</ele>
      </trkpt>
      <trkpt lat="47.10135" lon="-2.06245">
        <ele>37.44</ele>
      </trkpt>
      <trkpt lat="47.1013" lon="-2.06236">
        <ele>37.62</ele>
      </trkpt>
      <trkpt lat="47.10126" lon="-2.06225">
        <ele>37.79</ele>
      </trkpt>
      <trkpt lat="47.10121" lon="-2.06208">
        <ele>38.05</ele>
      </trkpt>
      <trkpt lat="47.10118" lon="-2.06196">
        <ele>38.23</ele>
      </trkpt>
      <trkpt lat="47.10105" lon="-2.06156">
        <ele>38.59</ele>
      </trkpt>
      <trkpt lat="47.10101" lon="-2.06145">
        <ele>38.43</ele>
      </trkpt>
      <trkpt lat="47.10095" lon="-2.06136">
        <ele>38.27</ele>
      </trkpt>
      <trkpt lat="47.1009" lon="-2.06127">
        <ele>38.08</ele>
      </trkpt>
      <trkpt lat="47.10087" lon="-2.0612">
        <ele>37.91</ele>
      </trkpt>
      <trkpt lat="47.10067" lon="-2.06071">
        <ele>36.94</ele>
      </trkpt>
      <trkpt lat="47.10063" lon="-2.06062">
        <ele>36.88</ele>
      </trkpt>
      <trkpt lat="47.10056" lon="-2.06065">
        <ele>36.86</ele>
      </trkpt>
      <trkpt lat="47.10051" lon="-2.06067">
        <ele>36.85</ele>
      </trkpt>
      <trkpt lat="47.10028" lon="-2.06075">
        <ele>36.87</ele>
      </trkpt>
      <trkpt lat="47.10015" lon="-2.06079">
        <ele>36.9</ele>
      </trkpt>
      <trkpt lat="47.10003" lon="-2.06079">
        <ele>36.91</ele>
      </trkpt>
      <trkpt lat="47.09995" lon="-2.06078">
        <ele>36.76</ele>
      </trkpt>
      <trkpt lat="47.09984" lon="-2.06073">
        <ele>36.39</ele>
      </trkpt>
      <trkpt lat="47.09966" lon="-2.06056">
        <ele>35.66</ele>
      </trkpt>
      <trkpt lat="47.09953" lon="-2.06042">
        <ele>35.15</ele>
      </trkpt>
      <trkpt lat="47.09942" lon="-2.06033">
        <ele>34.83</ele>
      </trkpt>
      <trkpt lat="47.09931" lon="-2.06026">
        <ele>34.53</ele>
      </trkpt>
      <trkpt lat="47.09916" lon="-2.0601">
        <ele>34.11</ele>
      </trkpt>
      <trkpt lat="47.0991" lon="-2.06003">
        <ele>33.86</ele>
      </trkpt>
      <trkpt lat="47.09881" lon="-2.05955">
        <ele>33.9</ele>
      </trkpt>
      <trkpt lat="47.09866" lon="-2.05933">
        <ele>34.09</ele>
      </trkpt>
      <trkpt lat="47.09848" lon="-2.05903">
        <ele>34.34</ele>
      </trkpt>
      <trkpt lat="47.0984" lon="-2.05886">
        <ele>34.45</ele>
      </trkpt>
      <trkpt lat="47.09833" lon="-2.05868">
        <ele>34.58</ele>
      </trkpt>
      <trkpt lat="47.09824" lon="-2.0584">
        <ele>34.93</ele>
      </trkpt>
      <trkpt lat="47.09821" lon="-2.05831">
        <ele>35.02</ele>
      </trkpt>
      <trkpt lat="47.09816" lon="-2.05811">
        <ele>35.16</ele>
      </trkpt>
      <trkpt lat="47.09807" lon="-2.05777">
        <ele>35.25</ele>
      </trkpt>
      <trkpt lat="47.09796" lon="-2.05735">
        <ele>35.02</ele>
      </trkpt>
      <trkpt lat="47.09791" lon="-2.05715">
        <ele>34.75</ele>
      </trkpt>
      <trkpt lat="47.09781" lon="-2.0568">
        <ele>34.22</ele>
      </trkpt>
      <trkpt lat="47.09772" lon="-2.0565">
        <ele>33.78</ele>
      </trkpt>
      <trkpt lat="47.09765" lon="-2.05632">
        <ele>33.53</ele>
      </trkpt>
      <trkpt lat="47.09758" lon="-2.05619">
        <ele>33.27</ele>
      </trkpt>
      <trkpt lat="47.09754" lon="-2.05613">
        <ele>33.14</ele>
      </trkpt>
      <trkpt lat="47.09749" lon="-2.05608">
        <ele>32.98</ele>
      </trkpt>
      <trkpt lat="47.09742" lon="-2.05598">
        <ele>32.71</ele>
      </trkpt>
      <trkpt lat="47.09732" lon="-2.05586">
        <ele>32.36</ele>
      </trkpt>
      <trkpt lat="47.0972" lon="-2.05572">
        <ele>32.24</ele>
      </trkpt>
      <trkpt lat="47.09699" lon="-2.0555">
        <ele>31.88</ele>
      </trkpt>
      <trkpt lat="47.09685" lon="-2.05534">
        <ele>31.53</ele>
      </trkpt>
      <trkpt lat="47.09677" lon="-2.05522">
        <ele>31.3</ele>
      </trkpt>
      <trkpt lat="47.09673" lon="-2.05515">
        <ele>31.15</ele>
      </trkpt>
      <trkpt lat="47.09658" lon="-2.05483">
        <ele>29.11</ele>
      </trkpt>
      <trkpt lat="47.09646" lon="-2.05452">
        <ele>26.62</ele>
      </trkpt>
      <trkpt lat="47.0964" lon="-2.05438">
        <ele>25.73</ele>
      </trkpt>
      <trkpt lat="47.09637" lon="-2.0543">
        <ele>25.28</ele>
      </trkpt>
      <trkpt lat="47.09631" lon="-2.05414">
        <ele>24.58</ele>
      </trkpt>
      <trkpt lat="47.09618" lon="-2.05381">
        <ele>24.06</ele>
      </trkpt>
      <trkpt lat="47.0961" lon="-2.05357">
        <ele>24.03</ele>
      </trkpt>
      <trkpt lat="47.09605" lon="-2.05341">
        <ele>24.1</ele>
      </trkpt>
      <trkpt lat="47.09602" lon="-2.05333">
        <ele>24.08</ele>
      </trkpt>
      <trkpt lat="47.09592" lon="-2.05311">
        <ele>23.02</ele>
      </trkpt>
      <trkpt lat="47.09582" lon="-2.05288">
        <ele>21.78</ele>
      </trkpt>
      <trkpt lat="47.09579" lon="-2.05281">
        <ele>21.29</ele>
      </trkpt>
      <trkpt lat="47.09576" lon="-2.0527">
        <ele>20.73</ele>
      </trkpt>
      <trkpt lat="47.09574" lon="-2.05252">
        <ele>20.21</ele>
      </trkpt>
      <trkpt lat="47.09573" lon="-2.0524">
        <ele>20.03</ele>
      </trkpt>
      <trkpt lat="47.09574" lon="-2.05233">
        <ele>19.98</ele>
      </trkpt>
      <trkpt lat="47.09578" lon="-2.05207">
        <ele>19.78</ele>
      </trkpt>
      <trkpt lat="47.09579" lon="-2.05196">
        <ele>19.59</ele>
      </trkpt>
      <trkpt lat="47.09579" lon="-2.05181">
        <ele>19.3</ele>
      </trkpt>
      <trkpt lat="47.0958" lon="-2.05162">
        <ele>19.18</ele>
      </trkpt>
      <trkpt lat="47.09581" lon="-2.05154">
        <ele>19.48</ele>
      </trkpt>
      <trkpt lat="47.09581" lon="-2.0515">
        <ele>19.62</ele>
      </trkpt>
      <trkpt lat="47.09581" lon="-2.05138">
        <ele>20.05</ele>
      </trkpt>
      <trkpt lat="47.09582" lon="-2.05126">
        <ele>20.48</ele>
      </trkpt>
      <trkpt lat="47.09599" lon="-2.051">
        <ele>21.41</ele>
      </trkpt>
      <trkpt lat="47.09609" lon="-2.05083">
        <ele>21.69</ele>
      </trkpt>
      <trkpt lat="47.09621" lon="-2.05067">
        <ele>22.25</ele>
      </trkpt>
      <trkpt lat="47.09631" lon="-2.05055">
        <ele>22.57</ele>
      </trkpt>
      <trkpt lat="47.0964" lon="-2.05041">
        <ele>22.83</ele>
      </trkpt>
      <trkpt lat="47.09654" lon="-2.0502">
        <ele>23.02</ele>
      </trkpt>
      <trkpt lat="47.0967" lon="-2.0499">
        <ele>23.61</ele>
      </trkpt>
      <trkpt lat="47.09677" lon="-2.04974">
        <ele>24.54</ele>
      </trkpt>
      <trkpt lat="47.09681" lon="-2.04962">
        <ele>25.11</ele>
      </trkpt>
      <trkpt lat="47.0968" lon="-2.04945">
        <ele>25.76</ele>
      </trkpt>
      <trkpt lat="47.09677" lon="-2.04933">
        <ele>26.23</ele>
      </trkpt>
      <trkpt lat="47.09672" lon="-2.04924">
        <ele>26.62</ele>
      </trkpt>
      <trkpt lat="47.09644" lon="-2.04879">
        <ele>29.66</ele>
      </trkpt>
      <trkpt lat="47.09628" lon="-2.04847">
        <ele>31.43</ele>
      </trkpt>
      <trkpt lat="47.09609" lon="-2.04809">
        <ele>32.38</ele>
      </trkpt>
      <trkpt lat="47.09599" lon="-2.04783">
        <ele>32.63</ele>
      </trkpt>
      <trkpt lat="47.09621" lon="-2.04749">
        <ele>32.1</ele>
      </trkpt>
      <trkpt lat="47.09627" lon="-2.04736">
        <ele>31.95</ele>
      </trkpt>
      <trkpt lat="47.0963" lon="-2.0472">
        <ele>31.88</ele>
      </trkpt>
      <trkpt lat="47.09631" lon="-2.0471">
        <ele>31.85</ele>
      </trkpt>
      <trkpt lat="47.09634" lon="-2.04683">
        <ele>31.79</ele>
      </trkpt>
      <trkpt lat="47.09636" lon="-2.04655">
        <ele>31.83</ele>
      </trkpt>
      <trkpt lat="47.09636" lon="-2.04639">
        <ele>31.95</ele>
      </trkpt>
      <trkpt lat="47.09633" lon="-2.04604">
        <ele>32.26</ele>
      </trkpt>
      <trkpt lat="47.09626" lon="-2.04525">
        <ele>32.85</ele>
      </trkpt>
      <trkpt lat="47.09624" lon="-2.04503">
        <ele>32.99</ele>
      </trkpt>
      <trkpt lat="47.09625" lon="-2.04494">
        <ele>33.15</ele>
      </trkpt>
      <trkpt lat="47.09627" lon="-2.0448">
        <ele>33.49</ele>
      </trkpt>
      <trkpt lat="47.09616" lon="-2.04482">
        <ele>33.43</ele>
      </trkpt>
      <trkpt lat="47.09607" lon="-2.04484">
        <ele>33.38</ele>
      </trkpt>
      <trkpt lat="47.09598" lon="-2.04485">
        <ele>33.35</ele>
      </trkpt>
      <trkpt lat="47.09591" lon="-2.04486">
        <ele>33.33</ele>
      </trkpt>
      <trkpt lat="47.09584" lon="-2.04487">
        <ele>33.3</ele>
      </trkpt>
      <trkpt lat="47.09576" lon="-2.04486">
        <ele>33.17</ele>
      </trkpt>
      <trkpt lat="47.09557" lon="-2.04463">
        <ele>33.39</ele>
      </trkpt>
      <trkpt lat="47.09536" lon="-2.04438">
        <ele>33.78</ele>
      </trkpt>
      <trkpt lat="47.09513" lon="-2.04411">
        <ele>34.29</ele>
      </trkpt>
      <trkpt lat="47.09507" lon="-2.04404">
        <ele>34.38</ele>
      </trkpt>
      <trkpt lat="47.095" lon="-2.04395">
        <ele>34.51</ele>
      </trkpt>
      <trkpt lat="47.09487" lon="-2.04379">
        <ele>34.64</ele>
      </trkpt>
      <trkpt lat="47.09484" lon="-2.04374">
        <ele>34.74</ele>
      </trkpt>
      <trkpt lat="47.0948" lon="-2.04366">
        <ele>34.91</ele>
      </trkpt>
      <trkpt lat="47.09475" lon="-2.04356">
        <ele>35.21</ele>
      </trkpt>
      <trkpt lat="47.09471" lon="-2.04349">
        <ele>35.43</ele>
      </trkpt>
      <trkpt lat="47.09466" lon="-2.0434">
        <ele>35.75</ele>
      </trkpt>
      <trkpt lat="47.09457" lon="-2.04328">
        <ele>36.16</ele>
      </trkpt>
      <trkpt lat="47.09451" lon="-2.04319">
        <ele>36.4</ele>
      </trkpt>
      <trkpt lat="47.09437" lon="-2.04302">
        <ele>36.83</ele>
      </trkpt>
      <trkpt lat="47.09428" lon="-2.04291">
        <ele>37.08</ele>
      </trkpt>
      <trkpt lat="47.09416" lon="-2.04276">
        <ele>37.34</ele>
      </trkpt>
      <trkpt lat="47.09409" lon="-2.04268">
        <ele>37.17</ele>
      </trkpt>
      <trkpt lat="47.09404" lon="-2.0426">
        <ele>37.05</ele>
      </trkpt>
      <trkpt lat="47.094" lon="-2.04251">
        <ele>36.96</ele>
      </trkpt>
      <trkpt lat="47.0939" lon="-2.04228">
        <ele>36.77</ele>
      </trkpt>
      <trkpt lat="47.09383" lon="-2.04206">
        <ele>36.71</ele>
      </trkpt>
      <trkpt lat="47.09376" lon="-2.04178">
        <ele>36.83</ele>
      </trkpt>
      <trkpt lat="47.09374" lon="-2.04167">
        <ele>36.92</ele>
      </trkpt>
      <trkpt lat="47.09371" lon="-2.04153">
        <ele>36.72</ele>
      </trkpt>
      <trkpt lat="47.09368" lon="-2.04141">
        <ele>36.56</ele>
      </trkpt>
      <trkpt lat="47.09362" lon="-2.04107">
        <ele>36.12</ele>
      </trkpt>
      <trkpt lat="47.09358" lon="-2.04089">
        <ele>35.9</ele>
      </trkpt>
      <trkpt lat="47.09355" lon="-2.04082">
        <ele>35.79</ele>
      </trkpt>
      <trkpt lat="47.09349" lon="-2.04082">
        <ele>35.57</ele>
      </trkpt>
      <trkpt lat="47.0933" lon="-2.0409">
        <ele>34.96</ele>
      </trkpt>
      <trkpt lat="47.09318" lon="-2.04092">
        <ele>34.82</ele>
      </trkpt>
      <trkpt lat="47.09287" lon="-2.04106">
        <ele>34.44</ele>
      </trkpt>
      <trkpt lat="47.09283" lon="-2.04112">
        <ele>34.4</ele>
      </trkpt>
      <trkpt lat="47.09269" lon="-2.04134">
        <ele>34.22</ele>
      </trkpt>
      <trkpt lat="47.09259" lon="-2.04149">
        <ele>34.11</ele>
      </trkpt>
      <trkpt lat="47.09252" lon="-2.04159">
        <ele>34.02</ele>
      </trkpt>
      <trkpt lat="47.09241" lon="-2.04175">
        <ele>34.11</ele>
      </trkpt>
      <trkpt lat="47.09219" lon="-2.04214">
        <ele>34.39</ele>
      </trkpt>
      <trkpt lat="47.09215" lon="-2.0422">
        <ele>34.47</ele>
      </trkpt>
      <trkpt lat="47.09177" lon="-2.04276">
        <ele>35.62</ele>
      </trkpt>
      <trkpt lat="47.09171" lon="-2.04284">
        <ele>35.84</ele>
      </trkpt>
      <trkpt lat="47.09161" lon="-2.04298">
        <ele>36.15</ele>
      </trkpt>
      <trkpt lat="47.09144" lon="-2.04321">
        <ele>36.55</ele>
      </trkpt>
      <trkpt lat="47.09132" lon="-2.04336">
        <ele>36.82</ele>
      </trkpt>
      <trkpt lat="47.0911" lon="-2.04359">
        <ele>37.15</ele>
      </trkpt>
      <trkpt lat="47.09104" lon="-2.04351">
        <ele>37.34</ele>
      </trkpt>
      <trkpt lat="47.09067" lon="-2.04288">
        <ele>37.71</ele>
      </trkpt>
      <trkpt lat="47.09061" lon="-2.04279">
        <ele>37.64</ele>
      </trkpt>
      <trkpt lat="47.0905" lon="-2.04261">
        <ele>37.55</ele>
      </trkpt>
      <trkpt lat="47.09037" lon="-2.0424">
        <ele>37.45</ele>
      </trkpt>
      <trkpt lat="47.09028" lon="-2.04225">
        <ele>37.34</ele>
      </trkpt>
      <trkpt lat="47.09024" lon="-2.04211">
        <ele>37.29</ele>
      </trkpt>
      <trkpt lat="47.09022" lon="-2.04198">
        <ele>37.26</ele>
      </trkpt>
      <trkpt lat="47.09019" lon="-2.04184">
        <ele>37.23</ele>
      </trkpt>
      <trkpt lat="47.09014" lon="-2.04173">
        <ele>37.17</ele>
      </trkpt>
      <trkpt lat="47.09001" lon="-2.04153">
        <ele>36.85</ele>
      </trkpt>
      <trkpt lat="47.08994" lon="-2.04143">
        <ele>36.5</ele>
      </trkpt>
      <trkpt lat="47.08984" lon="-2.04129">
        <ele>36.06</ele>
      </trkpt>
      <trkpt lat="47.08981" lon="-2.04124">
        <ele>35.91</ele>
      </trkpt>
      <trkpt lat="47.08965" lon="-2.04094">
        <ele>35.55</ele>
      </trkpt>
      <trkpt lat="47.08959" lon="-2.04081">
        <ele>35.52</ele>
      </trkpt>
      <trkpt lat="47.08948" lon="-2.04054">
        <ele>35.6</ele>
      </trkpt>
      <trkpt lat="47.08943" lon="-2.04038">
        <ele>35.69</ele>
      </trkpt>
      <trkpt lat="47.08941" lon="-2.04024">
        <ele>35.8</ele>
      </trkpt>
      <trkpt lat="47.0895" lon="-2.0402">
        <ele>35.85</ele>
      </trkpt>
      <trkpt lat="47.08959" lon="-2.04012">
        <ele>35.93</ele>
      </trkpt>
      <trkpt lat="47.08974" lon="-2.03996">
        <ele>36.08</ele>
      </trkpt>
      <trkpt lat="47.08978" lon="-2.03991">
        <ele>36.23</ele>
      </trkpt>
      <trkpt lat="47.0899" lon="-2.03975">
        <ele>36.59</ele>
      </trkpt>
      <trkpt lat="47.09006" lon="-2.03953">
        <ele>37.13</ele>
      </trkpt>
      <trkpt lat="47.09011" lon="-2.03941">
        <ele>37.36</ele>
      </trkpt>
      <trkpt lat="47.09016" lon="-2.0393">
        <ele>37.54</ele>
      </trkpt>
      <trkpt lat="47.09023" lon="-2.0392">
        <ele>37.66</ele>
      </trkpt>
      <trkpt lat="47.0902" lon="-2.0391">
        <ele>37.83</ele>
      </trkpt>
      <trkpt lat="47.09015" lon="-2.03894">
        <ele>38.08</ele>
      </trkpt>
      <trkpt lat="47.09011" lon="-2.03881">
        <ele>38.3</ele>
      </trkpt>
      <trkpt lat="47.08994" lon="-2.0382">
        <ele>38.86</ele>
      </trkpt>
      <trkpt lat="47.08988" lon="-2.03802">
        <ele>38.73</ele>
      </trkpt>
      <trkpt lat="47.08981" lon="-2.03776">
        <ele>38.64</ele>
      </trkpt>
      <trkpt lat="47.08972" lon="-2.03751">
        <ele>38.67</ele>
      </trkpt>
      <trkpt lat="47.08965" lon="-2.03729">
        <ele>39.09</ele>
      </trkpt>
      <trkpt lat="47.08958" lon="-2.03709">
        <ele>39.49</ele>
      </trkpt>
      <trkpt lat="47.08954" lon="-2.03699">
        <ele>39.72</ele>
      </trkpt>
      <trkpt lat="47.08947" lon="-2.03691">
        <ele>39.98</ele>
      </trkpt>
      <trkpt lat="47.0894" lon="-2.03684">
        <ele>40.24</ele>
      </trkpt>
      <trkpt lat="47.08926" lon="-2.03673">
        <ele>40.69</ele>
      </trkpt>
      <trkpt lat="47.08918" lon="-2.03666">
        <ele>40.97</ele>
      </trkpt>
      <trkpt lat="47.0891" lon="-2.03659">
        <ele>40.84</ele>
      </trkpt>
      <trkpt lat="47.08904" lon="-2.03651">
        <ele>40.69</ele>
      </trkpt>
      <trkpt lat="47.08891" lon="-2.03632">
        <ele>40.38</ele>
      </trkpt>
      <trkpt lat="47.08887" lon="-2.03626">
        <ele>40.28</ele>
      </trkpt>
      <trkpt lat="47.08878" lon="-2.03613">
        <ele>40.06</ele>
      </trkpt>
      <trkpt lat="47.08869" lon="-2.03602">
        <ele>39.85</ele>
      </trkpt>
      <trkpt lat="47.08857" lon="-2.03589">
        <ele>39.58</ele>
      </trkpt>
      <trkpt lat="47.08852" lon="-2.03585">
        <ele>39.45</ele>
      </trkpt>
      <trkpt lat="47.08842" lon="-2.03575">
        <ele>39.12</ele>
      </trkpt>
      <trkpt lat="47.08838" lon="-2.03571">
        <ele>38.97</ele>
      </trkpt>
      <trkpt lat="47.08833" lon="-2.03584">
        <ele>38.99</ele>
      </trkpt>
      <trkpt lat="47.08822" lon="-2.03607">
        <ele>38.7</ele>
      </trkpt>
      <trkpt lat="47.08791" lon="-2.03669">
        <ele>37.45</ele>
      </trkpt>
      <trkpt lat="47.08777" lon="-2.03697">
        <ele>36.61</ele>
      </trkpt>
      <trkpt lat="47.08761" lon="-2.03728">
        <ele>35.68</ele>
      </trkpt>
      <trkpt lat="47.08749" lon="-2.03753">
        <ele>34.9</ele>
      </trkpt>
      <trkpt lat="47.08735" lon="-2.03776">
        <ele>33.97</ele>
      </trkpt>
      <trkpt lat="47.0872" lon="-2.03802">
        <ele>33.26</ele>
      </trkpt>
      <trkpt lat="47.08709" lon="-2.03818">
        <ele>32.92</ele>
      </trkpt>
      <trkpt lat="47.08697" lon="-2.03837">
        <ele>32.74</ele>
      </trkpt>
      <trkpt lat="47.08691" lon="-2.03844">
        <ele>32.61</ele>
      </trkpt>
      <trkpt lat="47.08681" lon="-2.03853">
        <ele>32.38</ele>
      </trkpt>
      <trkpt lat="47.08669" lon="-2.03862">
        <ele>32.05</ele>
      </trkpt>
      <trkpt lat="47.08654" lon="-2.03873">
        <ele>31.31</ele>
      </trkpt>
      <trkpt lat="47.0864" lon="-2.0388">
        <ele>30.58</ele>
      </trkpt>
      <trkpt lat="47.08628" lon="-2.03885">
        <ele>29.97</ele>
      </trkpt>
      <trkpt lat="47.08622" lon="-2.0389">
        <ele>29.66</ele>
      </trkpt>
      <trkpt lat="47.08616" lon="-2.03894">
        <ele>29.42</ele>
      </trkpt>
      <trkpt lat="47.08606" lon="-2.03901">
        <ele>28.93</ele>
      </trkpt>
      <trkpt lat="47.08596" lon="-2.03912">
        <ele>28.55</ele>
      </trkpt>
      <trkpt lat="47.08587" lon="-2.0392">
        <ele>28.19</ele>
      </trkpt>
      <trkpt lat="47.08574" lon="-2.03932">
        <ele>27.65</ele>
      </trkpt>
      <trkpt lat="47.08567" lon="-2.03939">
        <ele>27.32</ele>
      </trkpt>
      <trkpt lat="47.08561" lon="-2.03945">
        <ele>27.02</ele>
      </trkpt>
      <trkpt lat="47.08554" lon="-2.03953">
        <ele>26.54</ele>
      </trkpt>
      <trkpt lat="47.08542" lon="-2.03958">
        <ele>25.76</ele>
      </trkpt>
      <trkpt lat="47.08534" lon="-2.03962">
        <ele>25.18</ele>
      </trkpt>
      <trkpt lat="47.08527" lon="-2.03969">
        <ele>24.67</ele>
      </trkpt>
      <trkpt lat="47.08519" lon="-2.0398">
        <ele>23.91</ele>
      </trkpt>
      <trkpt lat="47.08509" lon="-2.0399">
        <ele>22.93</ele>
      </trkpt>
      <trkpt lat="47.08504" lon="-2.03985">
        <ele>22.66</ele>
      </trkpt>
      <trkpt lat="47.08488" lon="-2.03937">
        <ele>22.73</ele>
      </trkpt>
      <trkpt lat="47.08477" lon="-2.03909">
        <ele>22.37</ele>
      </trkpt>
      <trkpt lat="47.08474" lon="-2.03901">
        <ele>22.22</ele>
      </trkpt>
      <trkpt lat="47.0845" lon="-2.03836">
        <ele>21.55</ele>
      </trkpt>
      <trkpt lat="47.08445" lon="-2.03827">
        <ele>21.49</ele>
      </trkpt>
      <trkpt lat="47.08434" lon="-2.038">
        <ele>21.46</ele>
      </trkpt>
      <trkpt lat="47.08414" lon="-2.03756">
        <ele>21.71</ele>
      </trkpt>
      <trkpt lat="47.08399" lon="-2.03718">
        <ele>21.7</ele>
      </trkpt>
      <trkpt lat="47.08388" lon="-2.03683">
        <ele>21.96</ele>
      </trkpt>
      <trkpt lat="47.08378" lon="-2.03644">
        <ele>22.36</ele>
      </trkpt>
      <trkpt lat="47.08376" lon="-2.03629">
        <ele>22.48</ele>
      </trkpt>
      <trkpt lat="47.0837" lon="-2.03595">
        <ele>22.75</ele>
      </trkpt>
      <trkpt lat="47.08363" lon="-2.03557">
        <ele>23.23</ele>
      </trkpt>
      <trkpt lat="47.08354" lon="-2.03507">
        <ele>24.1</ele>
      </trkpt>
      <trkpt lat="47.08351" lon="-2.03494">
        <ele>24.15</ele>
      </trkpt>
      <trkpt lat="47.08345" lon="-2.03466">
        <ele>23.79</ele>
      </trkpt>
      <trkpt lat="47.08342" lon="-2.03454">
        <ele>23.62</ele>
      </trkpt>
      <trkpt lat="47.08332" lon="-2.03395">
        <ele>23.17</ele>
      </trkpt>
      <trkpt lat="47.08328" lon="-2.03375">
        <ele>23.16</ele>
      </trkpt>
      <trkpt lat="47.08323" lon="-2.03354">
        <ele>23.15</ele>
      </trkpt>
      <trkpt lat="47.08322" lon="-2.0334">
        <ele>23.23</ele>
      </trkpt>
      <trkpt lat="47.08321" lon="-2.03327">
        <ele>23.42</ele>
      </trkpt>
      <trkpt lat="47.08322" lon="-2.03314">
        <ele>23.76</ele>
      </trkpt>
      <trkpt lat="47.08323" lon="-2.03302">
        <ele>24.16</ele>
      </trkpt>
      <trkpt lat="47.08329" lon="-2.03286">
        <ele>24.87</ele>
      </trkpt>
      <trkpt lat="47.08343" lon="-2.03256">
        <ele>26.08</ele>
      </trkpt>
      <trkpt lat="47.08356" lon="-2.03227">
        <ele>26.9</ele>
      </trkpt>
      <trkpt lat="47.08361" lon="-2.03213">
        <ele>27.27</ele>
      </trkpt>
      <trkpt lat="47.08362" lon="-2.03204">
        <ele>27.43</ele>
      </trkpt>
      <trkpt lat="47.08362" lon="-2.03201">
        <ele>27.48</ele>
      </trkpt>
      <trkpt lat="47.08362" lon="-2.03201">
        <ele>27.48</ele>
      </trkpt>
      <trkpt lat="47.08362" lon="-2.03201">
        <ele>27.48</ele>
      </trkpt>
      <trkpt lat="47.08362" lon="-2.03199">
        <ele>27.51</ele>
      </trkpt>
      <trkpt lat="47.0836" lon="-2.03189">
        <ele>27.62</ele>
      </trkpt>
      <trkpt lat="47.08355" lon="-2.03177">
        <ele>27.64</ele>
      </trkpt>
      <trkpt lat="47.08348" lon="-2.03168">
        <ele>27.5</ele>
      </trkpt>
      <trkpt lat="47.08342" lon="-2.03161">
        <ele>27.43</ele>
      </trkpt>
      <trkpt lat="47.08348" lon="-2.03153">
        <ele>27.79</ele>
      </trkpt>
      <trkpt lat="47.08354" lon="-2.03145">
        <ele>28.14</ele>
      </trkpt>
      <trkpt lat="47.08361" lon="-2.03138">
        <ele>28.45</ele>
      </trkpt>
      <trkpt lat="47.08371" lon="-2.03131">
        <ele>28.81</ele>
      </trkpt>
      <trkpt lat="47.08393" lon="-2.0312">
        <ele>29.47</ele>
      </trkpt>
      <trkpt lat="47.08394" lon="-2.03112">
        <ele>29.53</ele>
      </trkpt>
      <trkpt lat="47.08396" lon="-2.031">
        <ele>29.66</ele>
      </trkpt>
      <trkpt lat="47.08403" lon="-2.03084">
        <ele>29.83</ele>
      </trkpt>
      <trkpt lat="47.08414" lon="-2.0305">
        <ele>30.37</ele>
      </trkpt>
      <trkpt lat="47.08417" lon="-2.03036">
        <ele>30.57</ele>
      </trkpt>
      <trkpt lat="47.08419" lon="-2.03022">
        <ele>30.79</ele>
      </trkpt>
      <trkpt lat="47.0842" lon="-2.03007">
        <ele>30.99</ele>
      </trkpt>
      <trkpt lat="47.08418" lon="-2.02982">
        <ele>30.81</ele>
      </trkpt>
      <trkpt lat="47.08413" lon="-2.0294">
        <ele>30.2</ele>
      </trkpt>
      <trkpt lat="47.0841" lon="-2.02918">
        <ele>29.85</ele>
      </trkpt>
      <trkpt lat="47.08408" lon="-2.02901">
        <ele>29.4</ele>
      </trkpt>
      <trkpt lat="47.08402" lon="-2.02852">
        <ele>27.95</ele>
      </trkpt>
      <trkpt lat="47.08398" lon="-2.02822">
        <ele>27.32</ele>
      </trkpt>
      <trkpt lat="47.08394" lon="-2.02802">
        <ele>27.18</ele>
      </trkpt>
      <trkpt lat="47.08393" lon="-2.02794">
        <ele>27.13</ele>
      </trkpt>
      <trkpt lat="47.0839" lon="-2.02779">
        <ele>27.03</ele>
      </trkpt>
      <trkpt lat="47.08387" lon="-2.02764">
        <ele>26.95</ele>
      </trkpt>
      <trkpt lat="47.08386" lon="-2.02757">
        <ele>26.9</ele>
      </trkpt>
      <trkpt lat="47.08379" lon="-2.02722">
        <ele>27.48</ele>
      </trkpt>
      <trkpt lat="47.08371" lon="-2.02678">
        <ele>28.54</ele>
      </trkpt>
      <trkpt lat="47.08364" lon="-2.02648">
        <ele>29.33</ele>
      </trkpt>
      <trkpt lat="47.08358" lon="-2.02624">
        <ele>29.97</ele>
      </trkpt>
      <trkpt lat="47.08352" lon="-2.02606">
        <ele>30.46</ele>
      </trkpt>
      <trkpt lat="47.08341" lon="-2.02577">
        <ele>31.09</ele>
      </trkpt>
      <trkpt lat="47.08331" lon="-2.02548">
        <ele>30.94</ele>
      </trkpt>
      <trkpt lat="47.08327" lon="-2.0254">
        <ele>30.85</ele>
      </trkpt>
      <trkpt lat="47.08324" lon="-2.0253">
        <ele>30.73</ele>
      </trkpt>
      <trkpt lat="47.08315" lon="-2.02511">
        <ele>30.39</ele>
      </trkpt>
      <trkpt lat="47.08297" lon="-2.02479">
        <ele>29.45</ele>
      </trkpt>
      <trkpt lat="47.0828" lon="-2.02443">
        <ele>28.4</ele>
      </trkpt>
      <trkpt lat="47.08272" lon="-2.02428">
        <ele>27.94</ele>
      </trkpt>
      <trkpt lat="47.08264" lon="-2.02407">
        <ele>27.42</ele>
      </trkpt>
      <trkpt lat="47.08255" lon="-2.02373">
        <ele>26.7</ele>
      </trkpt>
      <trkpt lat="47.08247" lon="-2.02342">
        <ele>26.01</ele>
      </trkpt>
      <trkpt lat="47.08242" lon="-2.02321">
        <ele>25.86</ele>
      </trkpt>
      <trkpt lat="47.0824" lon="-2.02314">
        <ele>25.84</ele>
      </trkpt>
      <trkpt lat="47.08236" lon="-2.02302">
        <ele>25.8</ele>
      </trkpt>
      <trkpt lat="47.08228" lon="-2.02285">
        <ele>25.63</ele>
      </trkpt>
      <trkpt lat="47.0821" lon="-2.02247">
        <ele>25.06</ele>
      </trkpt>
      <trkpt lat="47.08202" lon="-2.02229">
        <ele>24.47</ele>
      </trkpt>
      <trkpt lat="47.08193" lon="-2.02211">
        <ele>23.96</ele>
      </trkpt>
      <trkpt lat="47.08175" lon="-2.02177">
        <ele>23.23</ele>
      </trkpt>
      <trkpt lat="47.0817" lon="-2.02164">
        <ele>23.07</ele>
      </trkpt>
      <trkpt lat="47.08154" lon="-2.02129">
        <ele>22.76</ele>
      </trkpt>
      <trkpt lat="47.08149" lon="-2.02119">
        <ele>22.7</ele>
      </trkpt>
      <trkpt lat="47.0814" lon="-2.02099">
        <ele>22.62</ele>
      </trkpt>
      <trkpt lat="47.08131" lon="-2.02078">
        <ele>22.66</ele>
      </trkpt>
      <trkpt lat="47.08099" lon="-2.02012">
        <ele>23.21</ele>
      </trkpt>
      <trkpt lat="47.08092" lon="-2.01996">
        <ele>23.35</ele>
      </trkpt>
      <trkpt lat="47.08084" lon="-2.0198">
        <ele>23.76</ele>
      </trkpt>
      <trkpt lat="47.08058" lon="-2.01923">
        <ele>24.92</ele>
      </trkpt>
      <trkpt lat="47.08054" lon="-2.01913">
        <ele>24.99</ele>
      </trkpt>
      <trkpt lat="47.08045" lon="-2.01891">
        <ele>25.17</ele>
      </trkpt>
      <trkpt lat="47.08036" lon="-2.01868">
        <ele>25.61</ele>
      </trkpt>
      <trkpt lat="47.08043" lon="-2.01875">
        <ele>25.52</ele>
      </trkpt>
      <trkpt lat="47.08052" lon="-2.01877">
        <ele>25.6</ele>
      </trkpt>
      <trkpt lat="47.08058" lon="-2.01876">
        <ele>25.68</ele>
      </trkpt>
      <trkpt lat="47.08068" lon="-2.01873">
        <ele>25.83</ele>
      </trkpt>
      <trkpt lat="47.08082" lon="-2.01861">
        <ele>25.99</ele>
      </trkpt>
      <trkpt lat="47.08101" lon="-2.01839">
        <ele>26.42</ele>
      </trkpt>
      <trkpt lat="47.08117" lon="-2.01824">
        <ele>27</ele>
      </trkpt>
      <trkpt lat="47.08127" lon="-2.01812">
        <ele>27.41</ele>
      </trkpt>
      <trkpt lat="47.08147" lon="-2.01789">
        <ele>27.91</ele>
      </trkpt>
      <trkpt lat="47.08155" lon="-2.01779">
        <ele>28</ele>
      </trkpt>
      <trkpt lat="47.08173" lon="-2.0176">
        <ele>27.98</ele>
      </trkpt>
      <trkpt lat="47.08201" lon="-2.01727">
        <ele>28.56</ele>
      </trkpt>
      <trkpt lat="47.08221" lon="-2.01701">
        <ele>29.18</ele>
      </trkpt>
      <trkpt lat="47.08242" lon="-2.01671">
        <ele>29.89</ele>
      </trkpt>
      <trkpt lat="47.08258" lon="-2.01646">
        <ele>30.29</ele>
      </trkpt>
      <trkpt lat="47.0827" lon="-2.01628">
        <ele>30.46</ele>
      </trkpt>
      <trkpt lat="47.08275" lon="-2.01619">
        <ele>30.54</ele>
      </trkpt>
      <trkpt lat="47.08284" lon="-2.01605">
        <ele>30.66</ele>
      </trkpt>
      <trkpt lat="47.08291" lon="-2.01595">
        <ele>30.76</ele>
      </trkpt>
      <trkpt lat="47.08295" lon="-2.01586">
        <ele>30.86</ele>
      </trkpt>
      <trkpt lat="47.083" lon="-2.01576">
        <ele>30.96</ele>
      </trkpt>
      <trkpt lat="47.08307" lon="-2.01568">
        <ele>30.99</ele>
      </trkpt>
      <trkpt lat="47.08318" lon="-2.01553">
        <ele>31.08</ele>
      </trkpt>
      <trkpt lat="47.0833" lon="-2.01544">
        <ele>31.02</ele>
      </trkpt>
      <trkpt lat="47.08355" lon="-2.01554">
        <ele>30.71</ele>
      </trkpt>
      <trkpt lat="47.08361" lon="-2.01557">
        <ele>30.64</ele>
      </trkpt>
      <trkpt lat="47.08376" lon="-2.01565">
        <ele>30.43</ele>
      </trkpt>
      <trkpt lat="47.084" lon="-2.01576">
        <ele>30.18</ele>
      </trkpt>
      <trkpt lat="47.08422" lon="-2.01585">
        <ele>30.17</ele>
      </trkpt>
      <trkpt lat="47.08432" lon="-2.01591">
        <ele>30.43</ele>
      </trkpt>
      <trkpt lat="47.08439" lon="-2.01595">
        <ele>30.58</ele>
      </trkpt>
      <trkpt lat="47.08457" lon="-2.0161">
        <ele>30.82</ele>
      </trkpt>
      <trkpt lat="47.08463" lon="-2.01615">
        <ele>30.87</ele>
      </trkpt>
      <trkpt lat="47.08494" lon="-2.01642">
        <ele>30.76</ele>
      </trkpt>
      <trkpt lat="47.08503" lon="-2.0165">
        <ele>30.62</ele>
      </trkpt>
      <trkpt lat="47.0854" lon="-2.01683">
        <ele>30.37</ele>
      </trkpt>
      <trkpt lat="47.08562" lon="-2.01704">
        <ele>30.63</ele>
      </trkpt>
      <trkpt lat="47.08567" lon="-2.01707">
        <ele>30.71</ele>
      </trkpt>
      <trkpt lat="47.08572" lon="-2.01709">
        <ele>30.8</ele>
      </trkpt>
      <trkpt lat="47.08578" lon="-2.01708">
        <ele>30.91</ele>
      </trkpt>
      <trkpt lat="47.08583" lon="-2.01703">
        <ele>30.99</ele>
      </trkpt>
      <trkpt lat="47.08587" lon="-2.01694">
        <ele>31.05</ele>
      </trkpt>
      <trkpt lat="47.08592" lon="-2.01686">
        <ele>31.1</ele>
      </trkpt>
      <trkpt lat="47.08591" lon="-2.01686">
        <ele>31.1</ele>
      </trkpt>
      <trkpt lat="47.08583" lon="-2.0167">
        <ele>31</ele>
      </trkpt>
      <trkpt lat="47.08571" lon="-2.01655">
        <ele>31.16</ele>
      </trkpt>
      <trkpt lat="47.08555" lon="-2.01633">
        <ele>31.6</ele>
      </trkpt>
      <trkpt lat="47.08546" lon="-2.01622">
        <ele>31.86</ele>
      </trkpt>
      <trkpt lat="47.08536" lon="-2.01609">
        <ele>32.21</ele>
      </trkpt>
      <trkpt lat="47.08528" lon="-2.01598">
        <ele>32.54</ele>
      </trkpt>
      <trkpt lat="47.08508" lon="-2.01571">
        <ele>33.13</ele>
      </trkpt>
      <trkpt lat="47.08499" lon="-2.01559">
        <ele>33.26</ele>
      </trkpt>
      <trkpt lat="47.08495" lon="-2.01553">
        <ele>33.19</ele>
      </trkpt>
      <trkpt lat="47.08494" lon="-2.01552">
        <ele>33.18</ele>
      </trkpt>
      <trkpt lat="47.08489" lon="-2.01545">
        <ele>33.12</ele>
      </trkpt>
      <trkpt lat="47.08472" lon="-2.01521">
        <ele>33.01</ele>
      </trkpt>
      <trkpt lat="47.08455" lon="-2.01495">
        <ele>32.95</ele>
      </trkpt>
      <trkpt lat="47.0844" lon="-2.01474">
        <ele>32.93</ele>
      </trkpt>
      <trkpt lat="47.08424" lon="-2.01445">
        <ele>33.32</ele>
      </trkpt>
      <trkpt lat="47.08414" lon="-2.01428">
        <ele>33.72</ele>
      </trkpt>
      <trkpt lat="47.08397" lon="-2.01399">
        <ele>34.16</ele>
      </trkpt>
      <trkpt lat="47.08391" lon="-2.01387">
        <ele>34.25</ele>
      </trkpt>
      <trkpt lat="47.0837" lon="-2.01355">
        <ele>34.33</ele>
      </trkpt>
      <trkpt lat="47.08355" lon="-2.01331">
        <ele>34.28</ele>
      </trkpt>
      <trkpt lat="47.08335" lon="-2.01303">
        <ele>34.37</ele>
      </trkpt>
      <trkpt lat="47.08335" lon="-2.01303">
        <ele>34.37</ele>
      </trkpt>
      <trkpt lat="47.0831" lon="-2.01272">
        <ele>34.26</ele>
      </trkpt>
      <trkpt lat="47.08295" lon="-2.01249">
        <ele>34.05</ele>
      </trkpt>
      <trkpt lat="47.08256" lon="-2.01197">
        <ele>32.45</ele>
      </trkpt>
      <trkpt lat="47.08242" lon="-2.01175">
        <ele>31.98</ele>
      </trkpt>
      <trkpt lat="47.08239" lon="-2.01171">
        <ele>31.91</ele>
      </trkpt>
      <trkpt lat="47.08234" lon="-2.01163">
        <ele>31.79</ele>
      </trkpt>
      <trkpt lat="47.08225" lon="-2.01148">
        <ele>31.61</ele>
      </trkpt>
      <trkpt lat="47.08215" lon="-2.0113">
        <ele>31.51</ele>
      </trkpt>
      <trkpt lat="47.08208" lon="-2.01113">
        <ele>31.5</ele>
      </trkpt>
      <trkpt lat="47.08204" lon="-2.01102">
        <ele>31.53</ele>
      </trkpt>
      <trkpt lat="47.08203" lon="-2.01097">
        <ele>31.55</ele>
      </trkpt>
      <trkpt lat="47.08197" lon="-2.01078">
        <ele>31.59</ele>
      </trkpt>
      <trkpt lat="47.08193" lon="-2.01066">
        <ele>31.55</ele>
      </trkpt>
      <trkpt lat="47.08184" lon="-2.01054">
        <ele>31.51</ele>
      </trkpt>
      <trkpt lat="47.08183" lon="-2.01052">
        <ele>31.5</ele>
      </trkpt>
      <trkpt lat="47.0817" lon="-2.01034">
        <ele>31.39</ele>
      </trkpt>
      <trkpt lat="47.0817" lon="-2.01034">
        <ele>31.39</ele>
      </trkpt>
      <trkpt lat="47.08139" lon="-2.00991">
        <ele>31.44</ele>
      </trkpt>
      <trkpt lat="47.08101" lon="-2.00933">
        <ele>32.59</ele>
      </trkpt>
      <trkpt lat="47.0808" lon="-2.00903">
        <ele>33.04</ele>
      </trkpt>
      <trkpt lat="47.08076" lon="-2.00897">
        <ele>33.08</ele>
      </trkpt>
      <trkpt lat="47.08068" lon="-2.00878">
        <ele>33.19</ele>
      </trkpt>
      <trkpt lat="47.08057" lon="-2.00856">
        <ele>33.31</ele>
      </trkpt>
      <trkpt lat="47.08052" lon="-2.00843">
        <ele>33.38</ele>
      </trkpt>
      <trkpt lat="47.08042" lon="-2.0082">
        <ele>33.5</ele>
      </trkpt>
      <trkpt lat="47.08039" lon="-2.00813">
        <ele>33.54</ele>
      </trkpt>
      <trkpt lat="47.08015" lon="-2.00755">
        <ele>33.82</ele>
      </trkpt>
      <trkpt lat="47.08002" lon="-2.00723">
        <ele>33.66</ele>
      </trkpt>
      <trkpt lat="47.07976" lon="-2.0066">
        <ele>33</ele>
      </trkpt>
      <trkpt lat="47.07973" lon="-2.00652">
        <ele>33</ele>
      </trkpt>
      <trkpt lat="47.07966" lon="-2.00634">
        <ele>33</ele>
      </trkpt>
      <trkpt lat="47.07939" lon="-2.00566">
        <ele>32.69</ele>
      </trkpt>
      <trkpt lat="47.07908" lon="-2.00484">
        <ele>31.17</ele>
      </trkpt>
      <trkpt lat="47.079" lon="-2.00463">
        <ele>31.35</ele>
      </trkpt>
      <trkpt lat="47.07892" lon="-2.0044">
        <ele>31.51</ele>
      </trkpt>
      <trkpt lat="47.07892" lon="-2.00439">
        <ele>31.51</ele>
      </trkpt>
      <trkpt lat="47.07892" lon="-2.00439">
        <ele>31.51</ele>
      </trkpt>
      <trkpt lat="47.07891" lon="-2.00436">
        <ele>31.53</ele>
      </trkpt>
      <trkpt lat="47.07891" lon="-2.00435">
        <ele>31.54</ele>
      </trkpt>
      <trkpt lat="47.07885" lon="-2.00405">
        <ele>31.57</ele>
      </trkpt>
      <trkpt lat="47.0788" lon="-2.00353">
        <ele>31.22</ele>
      </trkpt>
      <trkpt lat="47.07879" lon="-2.00346">
        <ele>31.17</ele>
      </trkpt>
      <trkpt lat="47.07877" lon="-2.00324">
        <ele>31.1</ele>
      </trkpt>
      <trkpt lat="47.07871" lon="-2.00272">
        <ele>31.31</ele>
      </trkpt>
      <trkpt lat="47.07865" lon="-2.0021">
        <ele>31.2</ele>
      </trkpt>
      <trkpt lat="47.07865" lon="-2.00208">
        <ele>31.19</ele>
      </trkpt>
      <trkpt lat="47.07865" lon="-2.00207">
        <ele>31.18</ele>
      </trkpt>
      <trkpt lat="47.07863" lon="-2.00172">
        <ele>31.02</ele>
      </trkpt>
      <trkpt lat="47.07863" lon="-2.00125">
        <ele>30.64</ele>
      </trkpt>
      <trkpt lat="47.07863" lon="-2.00101">
        <ele>30.43</ele>
      </trkpt>
      <trkpt lat="47.07864" lon="-2.00073">
        <ele>30.2</ele>
      </trkpt>
      <trkpt lat="47.07863" lon="-2.00062">
        <ele>30.12</ele>
      </trkpt>
      <trkpt lat="47.07859" lon="-2.00019">
        <ele>29.84</ele>
      </trkpt>
      <trkpt lat="47.07854" lon="-1.99984">
        <ele>29.65</ele>
      </trkpt>
      <trkpt lat="47.07851" lon="-1.99972">
        <ele>29.59</ele>
      </trkpt>
      <trkpt lat="47.07842" lon="-1.99954">
        <ele>29.46</ele>
      </trkpt>
      <trkpt lat="47.07837" lon="-1.99945">
        <ele>29.36</ele>
      </trkpt>
      <trkpt lat="47.07824" lon="-1.99921">
        <ele>29.04</ele>
      </trkpt>
      <trkpt lat="47.07818" lon="-1.99909">
        <ele>29</ele>
      </trkpt>
      <trkpt lat="47.07794" lon="-1.99865">
        <ele>29</ele>
      </trkpt>
      <trkpt lat="47.07786" lon="-1.99845">
        <ele>29</ele>
      </trkpt>
      <trkpt lat="47.07782" lon="-1.99837">
        <ele>29</ele>
      </trkpt>
      <trkpt lat="47.07773" lon="-1.99809">
        <ele>28.79</ele>
      </trkpt>
      <trkpt lat="47.07766" lon="-1.99788">
        <ele>28.56</ele>
      </trkpt>
      <trkpt lat="47.07757" lon="-1.99755">
        <ele>28.14</ele>
      </trkpt>
      <trkpt lat="47.07747" lon="-1.99724">
        <ele>28.34</ele>
      </trkpt>
      <trkpt lat="47.07745" lon="-1.99716">
        <ele>28.44</ele>
      </trkpt>
      <trkpt lat="47.07738" lon="-1.99696">
        <ele>28.7</ele>
      </trkpt>
      <trkpt lat="47.07737" lon="-1.99694">
        <ele>28.72</ele>
      </trkpt>
      <trkpt lat="47.07717" lon="-1.99643">
        <ele>29</ele>
      </trkpt>
      <trkpt lat="47.07701" lon="-1.99605">
        <ele>29</ele>
      </trkpt>
      <trkpt lat="47.07659" lon="-1.99504">
        <ele>28.91</ele>
      </trkpt>
      <trkpt lat="47.07652" lon="-1.99485">
        <ele>28.79</ele>
      </trkpt>
      <trkpt lat="47.07623" lon="-1.9941">
        <ele>27.87</ele>
      </trkpt>
      <trkpt lat="47.07614" lon="-1.9938">
        <ele>27.42</ele>
      </trkpt>
      <trkpt lat="47.07607" lon="-1.99359">
        <ele>27.17</ele>
      </trkpt>
      <trkpt lat="47.07601" lon="-1.99341">
        <ele>27.04</ele>
      </trkpt>
      <trkpt lat="47.076" lon="-1.99337">
        <ele>27.02</ele>
      </trkpt>
      <trkpt lat="47.07589" lon="-1.99312">
        <ele>27.02</ele>
      </trkpt>
      <trkpt lat="47.07573" lon="-1.99292">
        <ele>26.88</ele>
      </trkpt>
      <trkpt lat="47.0757" lon="-1.99289">
        <ele>26.84</ele>
      </trkpt>
      <trkpt lat="47.07564" lon="-1.99283">
        <ele>26.77</ele>
      </trkpt>
      <trkpt lat="47.07564" lon="-1.99283">
        <ele>26.77</ele>
      </trkpt>
      <trkpt lat="47.07543" lon="-1.99297">
        <ele>26.52</ele>
      </trkpt>
      <trkpt lat="47.07519" lon="-1.99307">
        <ele>26.23</ele>
      </trkpt>
      <trkpt lat="47.07484" lon="-1.99313">
        <ele>25.95</ele>
      </trkpt>
      <trkpt lat="47.07473" lon="-1.99315">
        <ele>25.93</ele>
      </trkpt>
      <trkpt lat="47.07432" lon="-1.99315">
        <ele>25.82</ele>
      </trkpt>
      <trkpt lat="47.07366" lon="-1.99305">
        <ele>26.28</ele>
      </trkpt>
      <trkpt lat="47.07354" lon="-1.99304">
        <ele>26.4</ele>
      </trkpt>
      <trkpt lat="47.07344" lon="-1.99305">
        <ele>26.53</ele>
      </trkpt>
      <trkpt lat="47.07335" lon="-1.99306">
        <ele>26.65</ele>
      </trkpt>
      <trkpt lat="47.07305" lon="-1.99314">
        <ele>26.59</ele>
      </trkpt>
      <trkpt lat="47.07286" lon="-1.99321">
        <ele>26.45</ele>
      </trkpt>
      <trkpt lat="47.07264" lon="-1.99329">
        <ele>26.2</ele>
      </trkpt>
      <trkpt lat="47.0723" lon="-1.99344">
        <ele>26.83</ele>
      </trkpt>
      <trkpt lat="47.07205" lon="-1.9936">
        <ele>27.77</ele>
      </trkpt>
      <trkpt lat="47.07193" lon="-1.99371">
        <ele>28.18</ele>
      </trkpt>
      <trkpt lat="47.07172" lon="-1.99391">
        <ele>28.84</ele>
      </trkpt>
      <trkpt lat="47.07161" lon="-1.99403">
        <ele>28.79</ele>
      </trkpt>
      <trkpt lat="47.07146" lon="-1.99416">
        <ele>28.26</ele>
      </trkpt>
      <trkpt lat="47.07115" lon="-1.99439">
        <ele>26.78</ele>
      </trkpt>
      <trkpt lat="47.07087" lon="-1.9946">
        <ele>25.59</ele>
      </trkpt>
      <trkpt lat="47.07077" lon="-1.99467">
        <ele>25.37</ele>
      </trkpt>
      <trkpt lat="47.0705" lon="-1.99485">
        <ele>25.11</ele>
      </trkpt>
      <trkpt lat="47.06998" lon="-1.99519">
        <ele>24.98</ele>
      </trkpt>
      <trkpt lat="47.06984" lon="-1.99529">
        <ele>24.87</ele>
      </trkpt>
      <trkpt lat="47.06959" lon="-1.99545">
        <ele>24.78</ele>
      </trkpt>
      <trkpt lat="47.06946" lon="-1.99554">
        <ele>24.77</ele>
      </trkpt>
      <trkpt lat="47.06921" lon="-1.99571">
        <ele>24.86</ele>
      </trkpt>
      <trkpt lat="47.06885" lon="-1.99595">
        <ele>24.72</ele>
      </trkpt>
      <trkpt lat="47.06877" lon="-1.99601">
        <ele>24.58</ele>
      </trkpt>
      <trkpt lat="47.06815" lon="-1.99643">
        <ele>23.07</ele>
      </trkpt>
      <trkpt lat="47.06747" lon="-1.99685">
        <ele>20.95</ele>
      </trkpt>
      <trkpt lat="47.06706" lon="-1.99709">
        <ele>19.92</ele>
      </trkpt>
      <trkpt lat="47.06698" lon="-1.99714">
        <ele>19.68</ele>
      </trkpt>
      <trkpt lat="47.0668" lon="-1.99724">
        <ele>19.01</ele>
      </trkpt>
      <trkpt lat="47.06635" lon="-1.99748">
        <ele>16.9</ele>
      </trkpt>
      <trkpt lat="47.06596" lon="-1.99768">
        <ele>15.08</ele>
      </trkpt>
      <trkpt lat="47.0659" lon="-1.99774">
        <ele>14.69</ele>
      </trkpt>
      <trkpt lat="47.06584" lon="-1.99782">
        <ele>14.24</ele>
      </trkpt>
      <trkpt lat="47.06559" lon="-1.99791">
        <ele>13.14</ele>
      </trkpt>
      <trkpt lat="47.06527" lon="-1.99802">
        <ele>11.88</ele>
      </trkpt>
      <trkpt lat="47.06495" lon="-1.9981">
        <ele>10.9</ele>
      </trkpt>
      <trkpt lat="47.06454" lon="-1.99815">
        <ele>10.01</ele>
      </trkpt>
      <trkpt lat="47.06408" lon="-1.99818">
        <ele>8.97</ele>
      </trkpt>
      <trkpt lat="47.064" lon="-1.99822">
        <ele>8.72</ele>
      </trkpt>
      <trkpt lat="47.06393" lon="-1.99828">
        <ele>8.48</ele>
      </trkpt>
      <trkpt lat="47.06386" lon="-1.99834">
        <ele>8.27</ele>
      </trkpt>
      <trkpt lat="47.06375" lon="-1.99842">
        <ele>7.96</ele>
      </trkpt>
      <trkpt lat="47.06372" lon="-1.9986">
        <ele>7.75</ele>
      </trkpt>
      <trkpt lat="47.06366" lon="-1.99888">
        <ele>7.39</ele>
      </trkpt>
      <trkpt lat="47.06363" lon="-1.99906">
        <ele>7.15</ele>
      </trkpt>
      <trkpt lat="47.0636" lon="-1.99922">
        <ele>7.01</ele>
      </trkpt>
      <trkpt lat="47.06357" lon="-1.99943">
        <ele>7.06</ele>
      </trkpt>
      <trkpt lat="47.06353" lon="-1.99965">
        <ele>7.16</ele>
      </trkpt>
      <trkpt lat="47.06353" lon="-1.99977">
        <ele>7.25</ele>
      </trkpt>
      <trkpt lat="47.06353" lon="-2.0008">
        <ele>6.06</ele>
      </trkpt>
      <trkpt lat="47.0633" lon="-2.00088">
        <ele>5.85</ele>
      </trkpt>
      <trkpt lat="47.06311" lon="-2.00099">
        <ele>5.41</ele>
      </trkpt>
      <trkpt lat="47.06291" lon="-2.0011">
        <ele>5.01</ele>
      </trkpt>
      <trkpt lat="47.06273" lon="-2.00121">
        <ele>4.7</ele>
      </trkpt>
      <trkpt lat="47.06235" lon="-2.0013">
        <ele>4.09</ele>
      </trkpt>
      <trkpt lat="47.06231" lon="-2.00134">
        <ele>3.94</ele>
      </trkpt>
      <trkpt lat="47.0623" lon="-2.00141">
        <ele>3.81</ele>
      </trkpt>
      <trkpt lat="47.06229" lon="-2.00168">
        <ele>3.48</ele>
      </trkpt>
      <trkpt lat="47.06225" lon="-2.00178">
        <ele>3.25</ele>
      </trkpt>
      <trkpt lat="47.06211" lon="-2.00187">
        <ele>2.92</ele>
      </trkpt>
      <trkpt lat="47.06201" lon="-2.00189">
        <ele>2.76</ele>
      </trkpt>
      <trkpt lat="47.06182" lon="-2.00193">
        <ele>2.51</ele>
      </trkpt>
      <trkpt lat="47.06169" lon="-2.00197">
        <ele>2.39</ele>
      </trkpt>
      <trkpt lat="47.06133" lon="-2.00213">
        <ele>2.15</ele>
      </trkpt>
      <trkpt lat="47.06078" lon="-2.00237">
        <ele>1.85</ele>
      </trkpt>
      <trkpt lat="47.06069" lon="-2.00227">
        <ele>1.72</ele>
      </trkpt>
      <trkpt lat="47.05964" lon="-2.00111">
        <ele>2.38</ele>
      </trkpt>
      <trkpt lat="47.05882" lon="-2.00022">
        <ele>2.26</ele>
      </trkpt>
      <trkpt lat="47.05787" lon="-1.99917">
        <ele>2.12</ele>
      </trkpt>
      <trkpt lat="47.05718" lon="-1.99842">
        <ele>2.96</ele>
      </trkpt>
      <trkpt lat="47.05695" lon="-1.99825">
        <ele>2.87</ele>
      </trkpt>
      <trkpt lat="47.05651" lon="-1.99801">
        <ele>2.54</ele>
      </trkpt>
      <trkpt lat="47.05602" lon="-1.99757">
        <ele>1.37</ele>
      </trkpt>
      <trkpt lat="47.05579" lon="-1.99738">
        <ele>1.05</ele>
      </trkpt>
      <trkpt lat="47.05538" lon="-1.997">
        <ele>1.54</ele>
      </trkpt>
      <trkpt lat="47.05474" lon="-1.99645">
        <ele>1.11</ele>
      </trkpt>
      <trkpt lat="47.05441" lon="-1.99616">
        <ele>-0.01</ele>
      </trkpt>
      <trkpt lat="47.05429" lon="-1.99605">
        <ele>-0.43</ele>
      </trkpt>
      <trkpt lat="47.05423" lon="-1.99597">
        <ele>-0.68</ele>
      </trkpt>
      <trkpt lat="47.05417" lon="-1.99587">
        <ele>-0.94</ele>
      </trkpt>
      <trkpt lat="47.05412" lon="-1.99577">
        <ele>-0.8</ele>
      </trkpt>
      <trkpt lat="47.05409" lon="-1.99566">
        <ele>-0.51</ele>
      </trkpt>
      <trkpt lat="47.05404" lon="-1.9954">
        <ele>0.1</ele>
      </trkpt>
      <trkpt lat="47.05398" lon="-1.99509">
        <ele>0.82</ele>
      </trkpt>
      <trkpt lat="47.05389" lon="-1.99472">
        <ele>1.22</ele>
      </trkpt>
      <trkpt lat="47.05372" lon="-1.99441">
        <ele>1.33</ele>
      </trkpt>
      <trkpt lat="47.05363" lon="-1.99431">
        <ele>1.29</ele>
      </trkpt>
      <trkpt lat="47.05347" lon="-1.9942">
        <ele>1.16</ele>
      </trkpt>
      <trkpt lat="47.05329" lon="-1.99415">
        <ele>0.98</ele>
      </trkpt>
      <trkpt lat="47.05306" lon="-1.99404">
        <ele>0.9</ele>
      </trkpt>
      <trkpt lat="47.05282" lon="-1.99377">
        <ele>0.82</ele>
      </trkpt>
      <trkpt lat="47.05271" lon="-1.99346">
        <ele>0.78</ele>
      </trkpt>
      <trkpt lat="47.05261" lon="-1.99302">
        <ele>0.92</ele>
      </trkpt>
      <trkpt lat="47.05249" lon="-1.99274">
        <ele>1.02</ele>
      </trkpt>
      <trkpt lat="47.05236" lon="-1.99257">
        <ele>1.16</ele>
      </trkpt>
      <trkpt lat="47.0522" lon="-1.99245">
        <ele>1.36</ele>
      </trkpt>
      <trkpt lat="47.05188" lon="-1.99239">
        <ele>1.75</ele>
      </trkpt>
      <trkpt lat="47.05169" lon="-1.99227">
        <ele>1.97</ele>
      </trkpt>
      <trkpt lat="47.05157" lon="-1.99209">
        <ele>2</ele>
      </trkpt>
      <trkpt lat="47.05085" lon="-1.99072">
        <ele>1.89</ele>
      </trkpt>
      <trkpt lat="47.05077" lon="-1.99054">
        <ele>1.69</ele>
      </trkpt>
      <trkpt lat="47.05065" lon="-1.99049">
        <ele>1.72</ele>
      </trkpt>
      <trkpt lat="47.05041" lon="-1.99044">
        <ele>1.8</ele>
      </trkpt>
      <trkpt lat="47.05002" lon="-1.99052">
        <ele>2.24</ele>
      </trkpt>
      <trkpt lat="47.04961" lon="-1.99052">
        <ele>1.66</ele>
      </trkpt>
      <trkpt lat="47.0492" lon="-1.99058">
        <ele>1.05</ele>
      </trkpt>
      <trkpt lat="47.04903" lon="-1.99065">
        <ele>1.16</ele>
      </trkpt>
      <trkpt lat="47.0488" lon="-1.99081">
        <ele>1.44</ele>
      </trkpt>
      <trkpt lat="47.04854" lon="-1.99102">
        <ele>1.92</ele>
      </trkpt>
      <trkpt lat="47.04789" lon="-1.99127">
        <ele>1.98</ele>
      </trkpt>
      <trkpt lat="47.04759" lon="-1.99132">
        <ele>1.7</ele>
      </trkpt>
      <trkpt lat="47.04737" lon="-1.99132">
        <ele>1.61</ele>
      </trkpt>
      <trkpt lat="47.04708" lon="-1.99134">
        <ele>1.72</ele>
      </trkpt>
      <trkpt lat="47.04667" lon="-1.99148">
        <ele>2.33</ele>
      </trkpt>
      <trkpt lat="47.04651" lon="-1.9915">
        <ele>3.21</ele>
      </trkpt>
      <trkpt lat="47.0464" lon="-1.99152">
        <ele>3.84</ele>
      </trkpt>
      <trkpt lat="47.04624" lon="-1.99153">
        <ele>4.66</ele>
      </trkpt>
      <trkpt lat="47.04581" lon="-1.99145">
        <ele>6.4</ele>
      </trkpt>
      <trkpt lat="47.04523" lon="-1.9913">
        <ele>4.17</ele>
      </trkpt>
      <trkpt lat="47.04489" lon="-1.99122">
        <ele>3.54</ele>
      </trkpt>
      <trkpt lat="47.04462" lon="-1.99109">
        <ele>3.69</ele>
      </trkpt>
      <trkpt lat="47.04419" lon="-1.99077">
        <ele>4.07</ele>
      </trkpt>
      <trkpt lat="47.04392" lon="-1.99067">
        <ele>4.2</ele>
      </trkpt>
      <trkpt lat="47.04358" lon="-1.99061">
        <ele>4.27</ele>
      </trkpt>
      <trkpt lat="47.0434" lon="-1.99052">
        <ele>4.37</ele>
      </trkpt>
      <trkpt lat="47.04262" lon="-1.98988">
        <ele>2.24</ele>
      </trkpt>
      <trkpt lat="47.04204" lon="-1.9894">
        <ele>1.62</ele>
      </trkpt>
      <trkpt lat="47.04152" lon="-1.98897">
        <ele>2.73</ele>
      </trkpt>
      <trkpt lat="47.04113" lon="-1.9887">
        <ele>2.43</ele>
      </trkpt>
      <trkpt lat="47.04087" lon="-1.98851">
        <ele>2.58</ele>
      </trkpt>
      <trkpt lat="47.04077" lon="-1.98841">
        <ele>2.66</ele>
      </trkpt>
      <trkpt lat="47.03955" lon="-1.98638">
        <ele>2</ele>
      </trkpt>
      <trkpt lat="47.0392" lon="-1.98584">
        <ele>2</ele>
      </trkpt>
      <trkpt lat="47.03894" lon="-1.98556">
        <ele>1.58</ele>
      </trkpt>
      <trkpt lat="47.03865" lon="-1.98528">
        <ele>1.54</ele>
      </trkpt>
      <trkpt lat="47.03844" lon="-1.98517">
        <ele>1.71</ele>
      </trkpt>
      <trkpt lat="47.03816" lon="-1.98517">
        <ele>2.22</ele>
      </trkpt>
      <trkpt lat="47.03733" lon="-1.98529">
        <ele>3.79</ele>
      </trkpt>
      <trkpt lat="47.03673" lon="-1.98543">
        <ele>3.95</ele>
      </trkpt>
      <trkpt lat="47.03648" lon="-1.98542">
        <ele>4.12</ele>
      </trkpt>
      <trkpt lat="47.03628" lon="-1.98532">
        <ele>4.51</ele>
      </trkpt>
      <trkpt lat="47.03579" lon="-1.9849">
        <ele>6.29</ele>
      </trkpt>
      <trkpt lat="47.03461" lon="-1.98389">
        <ele>5.87</ele>
      </trkpt>
      <trkpt lat="47.03327" lon="-1.98267">
        <ele>5.87</ele>
      </trkpt>
      <trkpt lat="47.03271" lon="-1.98207">
        <ele>6.61</ele>
      </trkpt>
      <trkpt lat="47.03241" lon="-1.98185">
        <ele>6.66</ele>
      </trkpt>
      <trkpt lat="47.03204" lon="-1.98161">
        <ele>4.79</ele>
      </trkpt>
      <trkpt lat="47.03175" lon="-1.98123">
        <ele>3.77</ele>
      </trkpt>
      <trkpt lat="47.0316" lon="-1.98094">
        <ele>3.6</ele>
      </trkpt>
      <trkpt lat="47.03138" lon="-1.98056">
        <ele>2.95</ele>
      </trkpt>
      <trkpt lat="47.03116" lon="-1.98027">
        <ele>2.24</ele>
      </trkpt>
      <trkpt lat="47.03103" lon="-1.98012">
        <ele>1.8</ele>
      </trkpt>
      <trkpt lat="47.03073" lon="-1.97981">
        <ele>0.9</ele>
      </trkpt>
      <trkpt lat="47.03045" lon="-1.97954">
        <ele>0.91</ele>
      </trkpt>
      <trkpt lat="47.02985" lon="-1.97907">
        <ele>0.56</ele>
      </trkpt>
      <trkpt lat="47.0296" lon="-1.97895">
        <ele>0.03</ele>
      </trkpt>
      <trkpt lat="47.02927" lon="-1.97782">
        <ele>0.07</ele>
      </trkpt>
      <trkpt lat="47.02921" lon="-1.97753">
        <ele>0.05</ele>
      </trkpt>
      <trkpt lat="47.02913" lon="-1.9764">
        <ele>0.65</ele>
      </trkpt>
      <trkpt lat="47.02909" lon="-1.97563">
        <ele>1.91</ele>
      </trkpt>
      <trkpt lat="47.0291" lon="-1.97513">
        <ele>1.92</ele>
      </trkpt>
      <trkpt lat="47.02908" lon="-1.97442">
        <ele>1.27</ele>
      </trkpt>
      <trkpt lat="47.02905" lon="-1.97341">
        <ele>1</ele>
      </trkpt>
      <trkpt lat="47.0291" lon="-1.9731">
        <ele>0.98</ele>
      </trkpt>
      <trkpt lat="47.02921" lon="-1.97282">
        <ele>0.94</ele>
      </trkpt>
      <trkpt lat="47.02937" lon="-1.97259">
        <ele>0.75</ele>
      </trkpt>
      <trkpt lat="47.02957" lon="-1.97244">
        <ele>0.55</ele>
      </trkpt>
      <trkpt lat="47.02977" lon="-1.97236">
        <ele>0.4</ele>
      </trkpt>
      <trkpt lat="47.03035" lon="-1.97219">
        <ele>0.64</ele>
      </trkpt>
      <trkpt lat="47.03153" lon="-1.9719">
        <ele>-0.08</ele>
      </trkpt>
      <trkpt lat="47.03227" lon="-1.97164">
        <ele>0.74</ele>
      </trkpt>
      <trkpt lat="47.03266" lon="-1.97153">
        <ele>0.85</ele>
      </trkpt>
      <trkpt lat="47.03308" lon="-1.97148">
        <ele>0.46</ele>
      </trkpt>
      <trkpt lat="47.03335" lon="-1.97146">
        <ele>0.28</ele>
      </trkpt>
      <trkpt lat="47.03389" lon="-1.97135">
        <ele>1.21</ele>
      </trkpt>
      <trkpt lat="47.03422" lon="-1.9712">
        <ele>1.37</ele>
      </trkpt>
      <trkpt lat="47.03424" lon="-1.971">
        <ele>1.11</ele>
      </trkpt>
      <trkpt lat="47.03425" lon="-1.97092">
        <ele>1.01</ele>
      </trkpt>
      <trkpt lat="47.03424" lon="-1.97079">
        <ele>0.91</ele>
      </trkpt>
      <trkpt lat="47.03423" lon="-1.97065">
        <ele>0.92</ele>
      </trkpt>
      <trkpt lat="47.03417" lon="-1.97042">
        <ele>0.99</ele>
      </trkpt>
      <trkpt lat="47.0341" lon="-1.9704">
        <ele>1.04</ele>
      </trkpt>
      <trkpt lat="47.03333" lon="-1.97071">
        <ele>1.14</ele>
      </trkpt>
      <trkpt lat="47.03288" lon="-1.97076">
        <ele>0.94</ele>
      </trkpt>
      <trkpt lat="47.03241" lon="-1.97086">
        <ele>1</ele>
      </trkpt>
      <trkpt lat="47.03171" lon="-1.97108">
        <ele>0.73</ele>
      </trkpt>
      <trkpt lat="47.03102" lon="-1.97121">
        <ele>0.47</ele>
      </trkpt>
      <trkpt lat="47.03073" lon="-1.97115">
        <ele>0.39</ele>
      </trkpt>
      <trkpt lat="47.02947" lon="-1.97078">
        <ele>-0.11</ele>
      </trkpt>
      <trkpt lat="47.02911" lon="-1.97073">
        <ele>-0.08</ele>
      </trkpt>
      <trkpt lat="47.0288" lon="-1.9708">
        <ele>0.83</ele>
      </trkpt>
      <trkpt lat="47.02854" lon="-1.97089">
        <ele>1.42</ele>
      </trkpt>
      <trkpt lat="47.02853" lon="-1.97089">
        <ele>1.43</ele>
      </trkpt>
      <trkpt lat="47.02847" lon="-1.97092">
        <ele>1.52</ele>
      </trkpt>
      <trkpt lat="47.02831" lon="-1.97099">
        <ele>1.62</ele>
      </trkpt>
      <trkpt lat="47.02803" lon="-1.97117">
        <ele>1.34</ele>
      </trkpt>
      <trkpt lat="47.02779" lon="-1.97142">
        <ele>1.06</ele>
      </trkpt>
      <trkpt lat="47.02754" lon="-1.97178">
        <ele>0.83</ele>
      </trkpt>
      <trkpt lat="47.02738" lon="-1.97212">
        <ele>0.25</ele>
      </trkpt>
      <trkpt lat="47.02727" lon="-1.97245">
        <ele>-0.23</ele>
      </trkpt>
      <trkpt lat="47.02721" lon="-1.97272">
        <ele>-0.43</ele>
      </trkpt>
      <trkpt lat="47.02718" lon="-1.97302">
        <ele>-0.63</ele>
      </trkpt>
      <trkpt lat="47.02714" lon="-1.9737">
        <ele>-0.68</ele>
      </trkpt>
      <trkpt lat="47.02708" lon="-1.97485">
        <ele>-0.09</ele>
      </trkpt>
      <trkpt lat="47.02706" lon="-1.97511">
        <ele>-0.07</ele>
      </trkpt>
      <trkpt lat="47.02701" lon="-1.97535">
        <ele>-0.25</ele>
      </trkpt>
      <trkpt lat="47.0269" lon="-1.97554">
        <ele>-0.47</ele>
      </trkpt>
      <trkpt lat="47.02683" lon="-1.97562">
        <ele>-0.6</ele>
      </trkpt>
      <trkpt lat="47.02675" lon="-1.97566">
        <ele>-0.72</ele>
      </trkpt>
      <trkpt lat="47.02558" lon="-1.97577">
        <ele>-1.23</ele>
      </trkpt>
      <trkpt lat="47.02484" lon="-1.97582">
        <ele>-1.98</ele>
      </trkpt>
      <trkpt lat="47.02406" lon="-1.9759">
        <ele>-1.69</ele>
      </trkpt>
      <trkpt lat="47.02334" lon="-1.97596">
        <ele>-0.18</ele>
      </trkpt>
      <trkpt lat="47.02285" lon="-1.97601">
        <ele>-1.12</ele>
      </trkpt>
      <trkpt lat="47.02279" lon="-1.97601">
        <ele>-1.24</ele>
      </trkpt>
      <trkpt lat="47.02273" lon="-1.97601">
        <ele>-1.35</ele>
      </trkpt>
      <trkpt lat="47.02261" lon="-1.97603">
        <ele>-1.57</ele>
      </trkpt>
      <trkpt lat="47.02226" lon="-1.97605">
        <ele>-1.53</ele>
      </trkpt>
      <trkpt lat="47.02194" lon="-1.97608">
        <ele>-1.23</ele>
      </trkpt>
      <trkpt lat="47.02176" lon="-1.9761">
        <ele>-1.07</ele>
      </trkpt>
      <trkpt lat="47.0217" lon="-1.97613">
        <ele>-1.02</ele>
      </trkpt>
      <trkpt lat="47.02165" lon="-1.97621">
        <ele>-1.01</ele>
      </trkpt>
      <trkpt lat="47.02148" lon="-1.97649">
        <ele>-1.05</ele>
      </trkpt>
      <trkpt lat="47.02138" lon="-1.97668">
        <ele>-1</ele>
      </trkpt>
      <trkpt lat="47.02119" lon="-1.97704">
        <ele>-1</ele>
      </trkpt>
      <trkpt lat="47.02114" lon="-1.97712">
        <ele>-1</ele>
      </trkpt>
      <trkpt lat="47.02114" lon="-1.97713">
        <ele>-1</ele>
      </trkpt>
      <trkpt lat="47.02113" lon="-1.97715">
        <ele>-1</ele>
      </trkpt>
      <trkpt lat="47.0211" lon="-1.97721">
        <ele>-1</ele>
      </trkpt>
      <trkpt lat="47.01831" lon="-1.98252">
        <ele>-1.03</ele>
      </trkpt>
      <trkpt lat="47.016" lon="-1.98684">
        <ele>-0.2</ele>
      </trkpt>
      <trkpt lat="47.01578" lon="-1.98691">
        <ele>2</ele>
      </trkpt>
      <trkpt lat="47.01569" lon="-1.98693">
        <ele>2</ele>
      </trkpt>
      <trkpt lat="47.01559" lon="-1.98692">
        <ele>2</ele>
      </trkpt>
      <trkpt lat="47.01487" lon="-1.98693">
        <ele>-0.11</ele>
      </trkpt>
      <trkpt lat="47.01345" lon="-1.98696">
        <ele>-0.09</ele>
      </trkpt>
      <trkpt lat="47.01345" lon="-1.98705">
        <ele>-0.08</ele>
      </trkpt>
      <trkpt lat="47.01346" lon="-1.98716">
        <ele>-0.06</ele>
      </trkpt>
      <trkpt lat="47.01357" lon="-1.98995">
        <ele>-0.28</ele>
      </trkpt>
      <trkpt lat="47.01366" lon="-1.99264">
        <ele>1.8</ele>
      </trkpt>
      <trkpt lat="47.01368" lon="-1.99281">
        <ele>1.8</ele>
      </trkpt>
      <trkpt lat="47.01374" lon="-1.9931">
        <ele>1.5</ele>
      </trkpt>
      <trkpt lat="47.01376" lon="-1.99397">
        <ele>1.4</ele>
      </trkpt>
      <trkpt lat="47.01382" lon="-1.99527">
        <ele>0.42</ele>
      </trkpt>
      <trkpt lat="47.01384" lon="-1.99623">
        <ele>0.21</ele>
      </trkpt>
      <trkpt lat="47.01388" lon="-1.99668">
        <ele>2</ele>
      </trkpt>
      <trkpt lat="47.01388" lon="-1.99693">
        <ele>2</ele>
      </trkpt>
      <trkpt lat="47.01381" lon="-1.99704">
        <ele>2</ele>
      </trkpt>
      <trkpt lat="47.01385" lon="-1.99718">
        <ele>2</ele>
      </trkpt>
      <trkpt lat="47.01391" lon="-1.99728">
        <ele>2</ele>
      </trkpt>
      <trkpt lat="47.01396" lon="-1.99737">
        <ele>1.9</ele>
      </trkpt>
      <trkpt lat="47.01401" lon="-1.9976">
        <ele>1.6</ele>
      </trkpt>
      <trkpt lat="47.01406" lon="-1.99805">
        <ele>1.4</ele>
      </trkpt>
      <trkpt lat="47.01412" lon="-1.99847">
        <ele>0.15</ele>
      </trkpt>
      <trkpt lat="47.01444" lon="-2.00049">
        <ele>0.34</ele>
      </trkpt>
      <trkpt lat="47.01448" lon="-2.00079">
        <ele>0.26</ele>
      </trkpt>
      <trkpt lat="47.01447" lon="-2.00094">
        <ele>0.28</ele>
      </trkpt>
      <trkpt lat="47.0144" lon="-2.00124">
        <ele>0.36</ele>
      </trkpt>
      <trkpt lat="47.01432" lon="-2.00152">
        <ele>0.26</ele>
      </trkpt>
      <trkpt lat="47.01408" lon="-2.00256">
        <ele>0.11</ele>
      </trkpt>
      <trkpt lat="47.01397" lon="-2.00299">
        <ele>0.38</ele>
      </trkpt>
      <trkpt lat="47.01393" lon="-2.0031">
        <ele>0.48</ele>
      </trkpt>
      <trkpt lat="47.01404" lon="-2.00339">
        <ele>0.43</ele>
      </trkpt>
      <trkpt lat="47.01407" lon="-2.00349">
        <ele>0.54</ele>
      </trkpt>
      <trkpt lat="47.01417" lon="-2.00366">
        <ele>0.77</ele>
      </trkpt>
      <trkpt lat="47.01425" lon="-2.00388">
        <ele>1.05</ele>
      </trkpt>
      <trkpt lat="47.01429" lon="-2.00405">
        <ele>1.29</ele>
      </trkpt>
      <trkpt lat="47.01438" lon="-2.00423">
        <ele>1.2</ele>
      </trkpt>
      <trkpt lat="47.01444" lon="-2.00443">
        <ele>0.91</ele>
      </trkpt>
      <trkpt lat="47.01451" lon="-2.00479">
        <ele>0.63</ele>
      </trkpt>
      <trkpt lat="47.01458" lon="-2.00522">
        <ele>0.5</ele>
      </trkpt>
      <trkpt lat="47.01465" lon="-2.00545">
        <ele>0.41</ele>
      </trkpt>
      <trkpt lat="47.01474" lon="-2.00554">
        <ele>0.31</ele>
      </trkpt>
      <trkpt lat="47.01481" lon="-2.00563">
        <ele>0.22</ele>
      </trkpt>
      <trkpt lat="47.01486" lon="-2.00573">
        <ele>0.17</ele>
      </trkpt>
      <trkpt lat="47.01488" lon="-2.00592">
        <ele>0.11</ele>
      </trkpt>
      <trkpt lat="47.01491" lon="-2.00609">
        <ele>0.04</ele>
      </trkpt>
      <trkpt lat="47.01501" lon="-2.00632">
        <ele>2</ele>
      </trkpt>
      <trkpt lat="47.01516" lon="-2.00671">
        <ele>2</ele>
      </trkpt>
      <trkpt lat="47.01528" lon="-2.00688">
        <ele>2.5</ele>
      </trkpt>
      <trkpt lat="47.01543" lon="-2.00704">
        <ele>2.3</ele>
      </trkpt>
      <trkpt lat="47.01559" lon="-2.00722">
        <ele>2.7</ele>
      </trkpt>
      <trkpt lat="47.01568" lon="-2.00736">
        <ele>2.3</ele>
      </trkpt>
      <trkpt lat="47.01573" lon="-2.00752">
        <ele>2.4</ele>
      </trkpt>
      <trkpt lat="47.0158" lon="-2.00799">
        <ele>2.1</ele>
      </trkpt>
      <trkpt lat="47.01587" lon="-2.00862">
        <ele>0.05</ele>
      </trkpt>
      <trkpt lat="47.0159" lon="-2.00894">
        <ele>0.14</ele>
      </trkpt>
      <trkpt lat="47.01594" lon="-2.00912">
        <ele>0.26</ele>
      </trkpt>
      <trkpt lat="47.01601" lon="-2.00923">
        <ele>0.48</ele>
      </trkpt>
      <trkpt lat="47.01611" lon="-2.00929">
        <ele>0.77</ele>
      </trkpt>
      <trkpt lat="47.01623" lon="-2.00937">
        <ele>1.08</ele>
      </trkpt>
      <trkpt lat="47.01641" lon="-2.0095">
        <ele>1.51</ele>
      </trkpt>
      <trkpt lat="47.01658" lon="-2.00961">
        <ele>1.85</ele>
      </trkpt>
      <trkpt lat="47.01659" lon="-2.00972">
        <ele>1.88</ele>
      </trkpt>
      <trkpt lat="47.01661" lon="-2.00988">
        <ele>1.93</ele>
      </trkpt>
      <trkpt lat="47.01659" lon="-2.01001">
        <ele>1.9</ele>
      </trkpt>
      <trkpt lat="47.01655" lon="-2.01013">
        <ele>1.74</ele>
      </trkpt>
      <trkpt lat="47.01647" lon="-2.01028">
        <ele>1.58</ele>
      </trkpt>
      <trkpt lat="47.01637" lon="-2.01041">
        <ele>1.5</ele>
      </trkpt>
      <trkpt lat="47.01623" lon="-2.01058">
        <ele>1.51</ele>
      </trkpt>
      <trkpt lat="47.01611" lon="-2.01074">
        <ele>1.63</ele>
      </trkpt>
      <trkpt lat="47.01609" lon="-2.01086">
        <ele>1.67</ele>
      </trkpt>
      <trkpt lat="47.01609" lon="-2.01113">
        <ele>1.44</ele>
      </trkpt>
      <trkpt lat="47.01605" lon="-2.01127">
        <ele>1.36</ele>
      </trkpt>
      <trkpt lat="47.01598" lon="-2.01137">
        <ele>1.3</ele>
      </trkpt>
      <trkpt lat="47.01583" lon="-2.01144">
        <ele>1.27</ele>
      </trkpt>
      <trkpt lat="47.01568" lon="-2.01152">
        <ele>1.3</ele>
      </trkpt>
      <trkpt lat="47.01548" lon="-2.01168">
        <ele>1.41</ele>
      </trkpt>
      <trkpt lat="47.01529" lon="-2.01194">
        <ele>1.55</ele>
      </trkpt>
      <trkpt lat="47.0151" lon="-2.01223">
        <ele>1.8</ele>
      </trkpt>
      <trkpt lat="47.01492" lon="-2.01253">
        <ele>1.94</ele>
      </trkpt>
      <trkpt lat="47.01473" lon="-2.01281">
        <ele>1.24</ele>
      </trkpt>
      <trkpt lat="47.01459" lon="-2.01294">
        <ele>0.93</ele>
      </trkpt>
      <trkpt lat="47.01444" lon="-2.01297">
        <ele>0.86</ele>
      </trkpt>
      <trkpt lat="47.01427" lon="-2.01298">
        <ele>0.85</ele>
      </trkpt>
      <trkpt lat="47.01414" lon="-2.013">
        <ele>0.8</ele>
      </trkpt>
      <trkpt lat="47.01408" lon="-2.01313">
        <ele>0.54</ele>
      </trkpt>
      <trkpt lat="47.01396" lon="-2.0133">
        <ele>0.3</ele>
      </trkpt>
      <trkpt lat="47.01379" lon="-2.01355">
        <ele>0.45</ele>
      </trkpt>
      <trkpt lat="47.01367" lon="-2.01373">
        <ele>0.6</ele>
      </trkpt>
      <trkpt lat="47.01352" lon="-2.01399">
        <ele>0.77</ele>
      </trkpt>
      <trkpt lat="47.01331" lon="-2.01442">
        <ele>0.38</ele>
      </trkpt>
      <trkpt lat="47.01321" lon="-2.01468">
        <ele>-0.11</ele>
      </trkpt>
      <trkpt lat="47.01316" lon="-2.01494">
        <ele>-0.5</ele>
      </trkpt>
      <trkpt lat="47.01307" lon="-2.01516">
        <ele>-0.24</ele>
      </trkpt>
      <trkpt lat="47.0129" lon="-2.01541">
        <ele>0.28</ele>
      </trkpt>
      <trkpt lat="47.01265" lon="-2.0158">
        <ele>0.82</ele>
      </trkpt>
      <trkpt lat="47.01247" lon="-2.0163">
        <ele>0.98</ele>
      </trkpt>
      <trkpt lat="47.01237" lon="-2.01661">
        <ele>0.85</ele>
      </trkpt>
      <trkpt lat="47.01227" lon="-2.01679">
        <ele>0.61</ele>
      </trkpt>
      <trkpt lat="47.01216" lon="-2.01705">
        <ele>0.32</ele>
      </trkpt>
      <trkpt lat="47.01204" lon="-2.01712">
        <ele>0.21</ele>
      </trkpt>
      <trkpt lat="47.01191" lon="-2.01717">
        <ele>0.12</ele>
      </trkpt>
      <trkpt lat="47.01187" lon="-2.01752">
        <ele>0.02</ele>
      </trkpt>
      <trkpt lat="47.01186" lon="-2.01783">
        <ele>0.31</ele>
      </trkpt>
      <trkpt lat="47.01186" lon="-2.01818">
        <ele>0.62</ele>
      </trkpt>
      <trkpt lat="47.01187" lon="-2.01842">
        <ele>0.75</ele>
      </trkpt>
      <trkpt lat="47.01185" lon="-2.01867">
        <ele>0.78</ele>
      </trkpt>
      <trkpt lat="47.0118" lon="-2.01897">
        <ele>0.84</ele>
      </trkpt>
      <trkpt lat="47.01174" lon="-2.01922">
        <ele>0.85</ele>
      </trkpt>
      <trkpt lat="47.01166" lon="-2.01942">
        <ele>0.7</ele>
      </trkpt>
      <trkpt lat="47.01155" lon="-2.01972">
        <ele>0.43</ele>
      </trkpt>
      <trkpt lat="47.01144" lon="-2.01984">
        <ele>0.41</ele>
      </trkpt>
      <trkpt lat="47.01129" lon="-2.01989">
        <ele>0.53</ele>
      </trkpt>
      <trkpt lat="47.01119" lon="-2.01993">
        <ele>0.61</ele>
      </trkpt>
      <trkpt lat="47.01109" lon="-2.02004">
        <ele>0.7</ele>
      </trkpt>
      <trkpt lat="47.01103" lon="-2.02016">
        <ele>0.76</ele>
      </trkpt>
      <trkpt lat="47.01096" lon="-2.02034">
        <ele>0.85</ele>
      </trkpt>
      <trkpt lat="47.01086" lon="-2.02069">
        <ele>0.97</ele>
      </trkpt>
      <trkpt lat="47.01067" lon="-2.0212">
        <ele>0.84</ele>
      </trkpt>
      <trkpt lat="47.01047" lon="-2.02182">
        <ele>0.87</ele>
      </trkpt>
      <trkpt lat="47.01024" lon="-2.02244">
        <ele>1.41</ele>
      </trkpt>
      <trkpt lat="47.01009" lon="-2.02292">
        <ele>1.33</ele>
      </trkpt>
      <trkpt lat="47.00989" lon="-2.02351">
        <ele>0.69</ele>
      </trkpt>
      <trkpt lat="47.00971" lon="-2.02407">
        <ele>0.08</ele>
      </trkpt>
      <trkpt lat="47.00961" lon="-2.02436">
        <ele>0.11</ele>
      </trkpt>
      <trkpt lat="47.00954" lon="-2.0246">
        <ele>0.29</ele>
      </trkpt>
      <trkpt lat="47.00937" lon="-2.02507">
        <ele>0.75</ele>
      </trkpt>
      <trkpt lat="47.00921" lon="-2.02561">
        <ele>0.94</ele>
      </trkpt>
      <trkpt lat="47.00914" lon="-2.02613">
        <ele>0.65</ele>
      </trkpt>
      <trkpt lat="47.00906" lon="-2.02649">
        <ele>0.32</ele>
      </trkpt>
      <trkpt lat="47.00904" lon="-2.02692">
        <ele>-0.2</ele>
      </trkpt>
      <trkpt lat="47.00906" lon="-2.02734">
        <ele>-0.79</ele>
      </trkpt>
      <trkpt lat="47.00896" lon="-2.02735">
        <ele>-0.77</ele>
      </trkpt>
      <trkpt lat="47.00887" lon="-2.02734">
        <ele>-0.74</ele>
      </trkpt>
      <trkpt lat="47.00876" lon="-2.02732">
        <ele>-0.68</ele>
      </trkpt>
      <trkpt lat="47.00864" lon="-2.02729">
        <ele>-0.6</ele>
      </trkpt>
      <trkpt lat="47.00842" lon="-2.02731">
        <ele>-0.57</ele>
      </trkpt>
      <trkpt lat="47.00815" lon="-2.02725">
        <ele>-0.25</ele>
      </trkpt>
      <trkpt lat="47.00777" lon="-2.02712">
        <ele>0.29</ele>
      </trkpt>
      <trkpt lat="47.00758" lon="-2.02707">
        <ele>0.47</ele>
      </trkpt>
      <trkpt lat="47.00739" lon="-2.02713">
        <ele>0.52</ele>
      </trkpt>
      <trkpt lat="47.00721" lon="-2.02709">
        <ele>0.67</ele>
      </trkpt>
      <trkpt lat="47.00716" lon="-2.02696">
        <ele>0.79</ele>
      </trkpt>
      <trkpt lat="47.00709" lon="-2.02671">
        <ele>0.98</ele>
      </trkpt>
      <trkpt lat="47.00705" lon="-2.0264">
        <ele>0.86</ele>
      </trkpt>
      <trkpt lat="47.00701" lon="-2.02616">
        <ele>0.75</ele>
      </trkpt>
      <trkpt lat="47.00695" lon="-2.02586">
        <ele>0.67</ele>
      </trkpt>
      <trkpt lat="47.00689" lon="-2.0257">
        <ele>0.61</ele>
      </trkpt>
      <trkpt lat="47.00679" lon="-2.02565">
        <ele>0.67</ele>
      </trkpt>
      <trkpt lat="47.00669" lon="-2.02565">
        <ele>0.77</ele>
      </trkpt>
      <trkpt lat="47.00655" lon="-2.02569">
        <ele>0.71</ele>
      </trkpt>
      <trkpt lat="47.00645" lon="-2.02576">
        <ele>0.67</ele>
      </trkpt>
      <trkpt lat="47.00635" lon="-2.02584">
        <ele>0.62</ele>
      </trkpt>
      <trkpt lat="47.00627" lon="-2.02587">
        <ele>0.54</ele>
      </trkpt>
      <trkpt lat="47.00617" lon="-2.0259">
        <ele>0.45</ele>
      </trkpt>
      <trkpt lat="47.00603" lon="-2.02594">
        <ele>0.33</ele>
      </trkpt>
      <trkpt lat="47.00589" lon="-2.02597">
        <ele>0.22</ele>
      </trkpt>
      <trkpt lat="47.00579" lon="-2.02601">
        <ele>0.24</ele>
      </trkpt>
      <trkpt lat="47.00557" lon="-2.02607">
        <ele>0.42</ele>
      </trkpt>
      <trkpt lat="47.00532" lon="-2.0262">
        <ele>0.52</ele>
      </trkpt>
      <trkpt lat="47.00495" lon="-2.02635">
        <ele>0.34</ele>
      </trkpt>
      <trkpt lat="47.0041" lon="-2.0267">
        <ele>0.04</ele>
      </trkpt>
      <trkpt lat="47.0038" lon="-2.02685">
        <ele>0.12</ele>
      </trkpt>
      <trkpt lat="47.00369" lon="-2.02694">
        <ele>0.14</ele>
      </trkpt>
      <trkpt lat="47.0035" lon="-2.02705">
        <ele>0.09</ele>
      </trkpt>
      <trkpt lat="47.00276" lon="-2.02742">
        <ele>0.57</ele>
      </trkpt>
      <trkpt lat="47.00239" lon="-2.0276">
        <ele>1</ele>
      </trkpt>
      <trkpt lat="47.00202" lon="-2.02776">
        <ele>1</ele>
      </trkpt>
      <trkpt lat="47.0016" lon="-2.02795">
        <ele>1</ele>
      </trkpt>
      <trkpt lat="47.0014" lon="-2.02801">
        <ele>1</ele>
      </trkpt>
      <trkpt lat="47.00109" lon="-2.02805">
        <ele>1</ele>
      </trkpt>
      <trkpt lat="47.00072" lon="-2.02809">
        <ele>1</ele>
      </trkpt>
      <trkpt lat="47.00028" lon="-2.02815">
        <ele>1</ele>
      </trkpt>
      <trkpt lat="46.99998" lon="-2.02817">
        <ele>1.01</ele>
      </trkpt>
      <trkpt lat="46.99971" lon="-2.02814">
        <ele>1.18</ele>
      </trkpt>
      <trkpt lat="46.99934" lon="-2.02814">
        <ele>1.42</ele>
      </trkpt>
      <trkpt lat="46.99914" lon="-2.02817">
        <ele>1.6</ele>
      </trkpt>
      <trkpt lat="46.999" lon="-2.02835">
        <ele>1.8</ele>
      </trkpt>
      <trkpt lat="46.99887" lon="-2.02859">
        <ele>1.65</ele>
      </trkpt>
      <trkpt lat="46.99873" lon="-2.02883">
        <ele>1.48</ele>
      </trkpt>
      <trkpt lat="46.9986" lon="-2.02888">
        <ele>1.32</ele>
      </trkpt>
      <trkpt lat="46.99847" lon="-2.02892">
        <ele>1.16</ele>
      </trkpt>
      <trkpt lat="46.99828" lon="-2.02893">
        <ele>1</ele>
      </trkpt>
      <trkpt lat="46.99793" lon="-2.02899">
        <ele>1</ele>
      </trkpt>
      <trkpt lat="46.99787" lon="-2.02862">
        <ele>1</ele>
      </trkpt>
      <trkpt lat="46.99772" lon="-2.02793">
        <ele>1</ele>
      </trkpt>
      <trkpt lat="46.9976" lon="-2.02741">
        <ele>1.1</ele>
      </trkpt>
      <trkpt lat="46.99749" lon="-2.02688">
        <ele>1.74</ele>
      </trkpt>
      <trkpt lat="46.99738" lon="-2.02657">
        <ele>2</ele>
      </trkpt>
      <trkpt lat="46.99728" lon="-2.0266">
        <ele>2</ele>
      </trkpt>
      <trkpt lat="46.99718" lon="-2.02663">
        <ele>2</ele>
      </trkpt>
      <trkpt lat="46.99722" lon="-2.02662">
        <ele>3</ele>
      </trkpt>
      <trkpt lat="46.99716" lon="-2.02664">
        <ele>3</ele>
      </trkpt>
      <trkpt lat="46.99699" lon="-2.0267">
        <ele>3</ele>
      </trkpt>
      <trkpt lat="46.99695" lon="-2.02672">
        <ele>3</ele>
      </trkpt>
      <trkpt lat="46.99678" lon="-2.02674">
        <ele>3</ele>
      </trkpt>
      <trkpt lat="46.99664" lon="-2.02675">
        <ele>3</ele>
      </trkpt>
      <trkpt lat="46.99649" lon="-2.02676">
        <ele>3</ele>
      </trkpt>
      <trkpt lat="46.99641" lon="-2.02677">
        <ele>3</ele>
      </trkpt>
      <trkpt lat="46.99627" lon="-2.0268">
        <ele>3</ele>
      </trkpt>
      <trkpt lat="46.99624" lon="-2.02674">
        <ele>3</ele>
      </trkpt>
      <trkpt lat="46.99607" lon="-2.02638">
        <ele>3</ele>
      </trkpt>
      <trkpt lat="46.9959" lon="-2.02599">
        <ele>3</ele>
      </trkpt>
      <trkpt lat="46.99569" lon="-2.02553">
        <ele>3</ele>
      </trkpt>
      <trkpt lat="46.99543" lon="-2.02485">
        <ele>3</ele>
      </trkpt>
      <trkpt lat="46.99495" lon="-2.02345">
        <ele>3</ele>
      </trkpt>
      <trkpt lat="46.99464" lon="-2.02254">
        <ele>3</ele>
      </trkpt>
      <trkpt lat="46.99446" lon="-2.022">
        <ele>3</ele>
      </trkpt>
      <trkpt lat="46.99425" lon="-2.02144">
        <ele>3</ele>
      </trkpt>
      <trkpt lat="46.99415" lon="-2.02114">
        <ele>3</ele>
      </trkpt>
      <trkpt lat="46.99402" lon="-2.02087">
        <ele>3</ele>
      </trkpt>
      <trkpt lat="46.99388" lon="-2.02067">
        <ele>3</ele>
      </trkpt>
      <trkpt lat="46.99364" lon="-2.02038">
        <ele>3</ele>
      </trkpt>
      <trkpt lat="46.99347" lon="-2.02021">
        <ele>3</ele>
      </trkpt>
      <trkpt lat="46.99299" lon="-2.01974">
        <ele>3.01953125</ele>
      </trkpt>
      <trkpt lat="46.99259" lon="-2.01934">
        <ele>3.77734375</ele>
      </trkpt>
      <trkpt lat="46.99222" lon="-2.01897">
        <ele>4</ele>
      </trkpt>
      <trkpt lat="46.992" lon="-2.01876">
        <ele>4</ele>
      </trkpt>
      <trkpt lat="46.99174" lon="-2.01859">
        <ele>4</ele>
      </trkpt>
      <trkpt lat="46.99127" lon="-2.01835">
        <ele>4</ele>
      </trkpt>
      <trkpt lat="46.9911" lon="-2.01822">
        <ele>4</ele>
      </trkpt>
      <trkpt lat="46.99099" lon="-2.0181">
        <ele>4</ele>
      </trkpt>
      <trkpt lat="46.99093" lon="-2.01802">
        <ele>4</ele>
      </trkpt>
      <trkpt lat="46.99089" lon="-2.01788">
        <ele>4</ele>
      </trkpt>
      <trkpt lat="46.99072" lon="-2.01712">
        <ele>4</ele>
      </trkpt>
      <trkpt lat="46.99051" lon="-2.01595">
        <ele>4</ele>
      </trkpt>
      <trkpt lat="46.99039" lon="-2.01537">
        <ele>4</ele>
      </trkpt>
      <trkpt lat="46.99035" lon="-2.01506">
        <ele>4</ele>
      </trkpt>
      <trkpt lat="46.99031" lon="-2.01462">
        <ele>4</ele>
      </trkpt>
      <trkpt lat="46.9903" lon="-2.01457">
        <ele>4</ele>
      </trkpt>
      <trkpt lat="46.9903" lon="-2.01438">
        <ele>4</ele>
      </trkpt>
      <trkpt lat="46.99024" lon="-2.01371">
        <ele>4</ele>
      </trkpt>
      <trkpt lat="46.99018" lon="-2.01288">
        <ele>4</ele>
      </trkpt>
      <trkpt lat="46.99013" lon="-2.01228">
        <ele>4</ele>
      </trkpt>
      <trkpt lat="46.99008" lon="-2.01179">
        <ele>3.60546875</ele>
      </trkpt>
      <trkpt lat="46.99004" lon="-2.01155">
        <ele>3.39453125</ele>
      </trkpt>
      <trkpt lat="46.98998" lon="-2.0113">
        <ele>3.26953125</ele>
      </trkpt>
      <trkpt lat="46.9899" lon="-2.01106">
        <ele>3.0703125</ele>
      </trkpt>
      <trkpt lat="46.98968" lon="-2.01049">
        <ele>3</ele>
      </trkpt>
      <trkpt lat="46.98951" lon="-2.01005">
        <ele>3</ele>
      </trkpt>
      <trkpt lat="46.98933" lon="-2.00958">
        <ele>3</ele>
      </trkpt>
      <trkpt lat="46.98909" lon="-2.00897">
        <ele>3</ele>
      </trkpt>
      <trkpt lat="46.98871" lon="-2.00796">
        <ele>3</ele>
      </trkpt>
      <trkpt lat="46.98848" lon="-2.00735">
        <ele>3</ele>
      </trkpt>
      <trkpt lat="46.9884" lon="-2.0071">
        <ele>3</ele>
      </trkpt>
      <trkpt lat="46.98835" lon="-2.00688">
        <ele>3</ele>
      </trkpt>
      <trkpt lat="46.98826" lon="-2.00653">
        <ele>3</ele>
      </trkpt>
      <trkpt lat="46.98819" lon="-2.00629">
        <ele>3</ele>
      </trkpt>
      <trkpt lat="46.98811" lon="-2.00607">
        <ele>3</ele>
      </trkpt>
      <trkpt lat="46.98803" lon="-2.00593">
        <ele>3</ele>
      </trkpt>
      <trkpt lat="46.98794" lon="-2.00576">
        <ele>3</ele>
      </trkpt>
      <trkpt lat="46.98783" lon="-2.00557">
        <ele>3</ele>
      </trkpt>
      <trkpt lat="46.98773" lon="-2.00535">
        <ele>3</ele>
      </trkpt>
      <trkpt lat="46.98769" lon="-2.00524">
        <ele>3</ele>
      </trkpt>
      <trkpt lat="46.98741" lon="-2.00457">
        <ele>3</ele>
      </trkpt>
      <trkpt lat="46.98725" lon="-2.00417">
        <ele>3</ele>
      </trkpt>
      <trkpt lat="46.98708" lon="-2.00376">
        <ele>3</ele>
      </trkpt>
      <trkpt lat="46.98692" lon="-2.00342">
        <ele>3</ele>
      </trkpt>
      <trkpt lat="46.98676" lon="-2.00317">
        <ele>3</ele>
      </trkpt>
      <trkpt lat="46.98641" lon="-2.00275">
        <ele>3</ele>
      </trkpt>
      <trkpt lat="46.98629" lon="-2.00266">
        <ele>3</ele>
      </trkpt>
      <trkpt lat="46.98619" lon="-2.00259">
        <ele>3</ele>
      </trkpt>
      <trkpt lat="46.9859" lon="-2.00246">
        <ele>3</ele>
      </trkpt>
      <trkpt lat="46.98568" lon="-2.0024">
        <ele>3</ele>
      </trkpt>
      <trkpt lat="46.9855" lon="-2.00232">
        <ele>3</ele>
      </trkpt>
      <trkpt lat="46.98536" lon="-2.00227">
        <ele>3</ele>
      </trkpt>
      <trkpt lat="46.98524" lon="-2.00218">
        <ele>3</ele>
      </trkpt>
      <trkpt lat="46.98511" lon="-2.00207">
        <ele>3</ele>
      </trkpt>
      <trkpt lat="46.985" lon="-2.00189">
        <ele>3</ele>
      </trkpt>
      <trkpt lat="46.98489" lon="-2.0017">
        <ele>3</ele>
      </trkpt>
      <trkpt lat="46.98481" lon="-2.00158">
        <ele>3</ele>
      </trkpt>
      <trkpt lat="46.98472" lon="-2.00149">
        <ele>3</ele>
      </trkpt>
      <trkpt lat="46.9846" lon="-2.00142">
        <ele>3</ele>
      </trkpt>
      <trkpt lat="46.98447" lon="-2.00141">
        <ele>3</ele>
      </trkpt>
      <trkpt lat="46.98432" lon="-2.00143">
        <ele>3</ele>
      </trkpt>
      <trkpt lat="46.984" lon="-2.00158">
        <ele>3</ele>
      </trkpt>
      <trkpt lat="46.98377" lon="-2.00169">
        <ele>3</ele>
      </trkpt>
      <trkpt lat="46.9838" lon="-2.00181">
        <ele>3</ele>
      </trkpt>
      <trkpt lat="46.98377" lon="-2.00169">
        <ele>3</ele>
      </trkpt>
      <trkpt lat="46.98362" lon="-2.00175">
        <ele>3</ele>
      </trkpt>
      <trkpt lat="46.98324" lon="-2.00191">
        <ele>3</ele>
      </trkpt>
      <trkpt lat="46.98302" lon="-2.00201">
        <ele>3</ele>
      </trkpt>
      <trkpt lat="46.98285" lon="-2.00204">
        <ele>3</ele>
      </trkpt>
      <trkpt lat="46.98267" lon="-2.00204">
        <ele>3</ele>
      </trkpt>
      <trkpt lat="46.98238" lon="-2.00201">
        <ele>3</ele>
      </trkpt>
      <trkpt lat="46.98184" lon="-2.00196">
        <ele>3</ele>
      </trkpt>
      <trkpt lat="46.98174" lon="-2.00195">
        <ele>3</ele>
      </trkpt>
      <trkpt lat="46.98157" lon="-2.00193">
        <ele>3</ele>
      </trkpt>
      <trkpt lat="46.9812" lon="-2.00187">
        <ele>3</ele>
      </trkpt>
      <trkpt lat="46.98097" lon="-2.00184">
        <ele>3</ele>
      </trkpt>
      <trkpt lat="46.98073" lon="-2.00178">
        <ele>3</ele>
      </trkpt>
      <trkpt lat="46.98046" lon="-2.00166">
        <ele>3</ele>
      </trkpt>
      <trkpt lat="46.98022" lon="-2.00155">
        <ele>3</ele>
      </trkpt>
      <trkpt lat="46.98018" lon="-2.00153">
        <ele>3</ele>
      </trkpt>
      <trkpt lat="46.97986" lon="-2.00138">
        <ele>3</ele>
      </trkpt>
      <trkpt lat="46.97958" lon="-2.00124">
        <ele>3</ele>
      </trkpt>
      <trkpt lat="46.97931" lon="-2.00111">
        <ele>3</ele>
      </trkpt>
      <trkpt lat="46.97918" lon="-2.00107">
        <ele>3</ele>
      </trkpt>
      <trkpt lat="46.97905" lon="-2.00106">
        <ele>3</ele>
      </trkpt>
      <trkpt lat="46.97891" lon="-2.00107">
        <ele>3</ele>
      </trkpt>
      <trkpt lat="46.97873" lon="-2.0011">
        <ele>3</ele>
      </trkpt>
      <trkpt lat="46.9783" lon="-2.00119">
        <ele>3</ele>
      </trkpt>
      <trkpt lat="46.97799" lon="-2.00124">
        <ele>3</ele>
      </trkpt>
      <trkpt lat="46.97789" lon="-2.00125">
        <ele>3</ele>
      </trkpt>
      <trkpt lat="46.97759" lon="-2.00131">
        <ele>3</ele>
      </trkpt>
      <trkpt lat="46.97721" lon="-2.00138">
        <ele>3</ele>
      </trkpt>
      <trkpt lat="46.9769" lon="-2.00143">
        <ele>3.015625</ele>
      </trkpt>
      <trkpt lat="46.97676" lon="-2.00148">
        <ele>3.046875</ele>
      </trkpt>
      <trkpt lat="46.97656" lon="-2.00149">
        <ele>3.0859375</ele>
      </trkpt>
      <trkpt lat="46.97647" lon="-2.00152">
        <ele>3.0625</ele>
      </trkpt>
      <trkpt lat="46.97626" lon="-2.00155">
        <ele>3.21875</ele>
      </trkpt>
      <trkpt lat="46.9758" lon="-2.00165">
        <ele>3.83984375</ele>
      </trkpt>
      <trkpt lat="46.97556" lon="-2.00169">
        <ele>3.76171875</ele>
      </trkpt>
      <trkpt lat="46.97548" lon="-2.0017">
        <ele>3.7421875</ele>
      </trkpt>
      <trkpt lat="46.97538" lon="-2.00169">
        <ele>3.76171875</ele>
      </trkpt>
      <trkpt lat="46.97535" lon="-2.00167">
        <ele>3.80078125</ele>
      </trkpt>
      <trkpt lat="46.9753" lon="-2.00163">
        <ele>3.87890625</ele>
      </trkpt>
      <trkpt lat="46.97525" lon="-2.00154">
        <ele>4</ele>
      </trkpt>
      <trkpt lat="46.97523" lon="-2.00146">
        <ele>4</ele>
      </trkpt>
      <trkpt lat="46.97518" lon="-2.00134">
        <ele>4</ele>
      </trkpt>
      <trkpt lat="46.97508" lon="-2.00105">
        <ele>4</ele>
      </trkpt>
      <trkpt lat="46.97506" lon="-2.00098">
        <ele>4.015625</ele>
      </trkpt>
      <trkpt lat="46.97485" lon="-2.0004">
        <ele>4.77734375</ele>
      </trkpt>
      <trkpt lat="46.97482" lon="-2.00033">
        <ele>4.83984375</ele>
      </trkpt>
      <trkpt lat="46.97474" lon="-2.00007">
        <ele>4.984375</ele>
      </trkpt>
      <trkpt lat="46.9747" lon="-1.99992">
        <ele>5</ele>
      </trkpt>
      <trkpt lat="46.97465" lon="-1.99965">
        <ele>5</ele>
      </trkpt>
      <trkpt lat="46.9747" lon="-1.99961">
        <ele>5</ele>
      </trkpt>
      <trkpt lat="46.97477" lon="-1.99954">
        <ele>5</ele>
      </trkpt>
      <trkpt lat="46.97492" lon="-1.99938">
        <ele>5</ele>
      </trkpt>
      <trkpt lat="46.97524" lon="-1.99901">
        <ele>5</ele>
      </trkpt>
      <trkpt lat="46.9752" lon="-1.9988">
        <ele>5</ele>
      </trkpt>
      <trkpt lat="46.97519" lon="-1.99875">
        <ele>5</ele>
      </trkpt>
      <trkpt lat="46.97507" lon="-1.99833">
        <ele>5</ele>
      </trkpt>
      <trkpt lat="46.97507" lon="-1.99801">
        <ele>5</ele>
      </trkpt>
      <trkpt lat="46.97482" lon="-1.99766">
        <ele>5</ele>
      </trkpt>
      <trkpt lat="46.9748" lon="-1.99762">
        <ele>5</ele>
      </trkpt>
      <trkpt lat="46.97467" lon="-1.99737">
        <ele>5</ele>
      </trkpt>
      <trkpt lat="46.97445" lon="-1.99752">
        <ele>5</ele>
      </trkpt>
      <trkpt lat="46.97435" lon="-1.99719">
        <ele>5</ele>
      </trkpt>
      <trkpt lat="46.9742" lon="-1.99668">
        <ele>5</ele>
      </trkpt>
      <trkpt lat="46.97408" lon="-1.99625">
        <ele>4.3828125</ele>
      </trkpt>
      <trkpt lat="46.974" lon="-1.99612">
        <ele>4.1484375</ele>
      </trkpt>
      <trkpt lat="46.97385" lon="-1.99594">
        <ele>4</ele>
      </trkpt>
      <trkpt lat="46.9737" lon="-1.99579">
        <ele>4</ele>
      </trkpt>
      <trkpt lat="46.97364" lon="-1.99571">
        <ele>4</ele>
      </trkpt>
      <trkpt lat="46.97359" lon="-1.99557">
        <ele>4</ele>
      </trkpt>
      <trkpt lat="46.97355" lon="-1.99548">
        <ele>4</ele>
      </trkpt>
      <trkpt lat="46.97349" lon="-1.99533">
        <ele>3.95703125</ele>
      </trkpt>
      <trkpt lat="46.97345" lon="-1.99512">
        <ele>3.83984375</ele>
      </trkpt>
      <trkpt lat="46.97339" lon="-1.99481">
        <ele>3.61328125</ele>
      </trkpt>
      <trkpt lat="46.97332" lon="-1.99448">
        <ele>3.49609375</ele>
      </trkpt>
      <trkpt lat="46.97329" lon="-1.99433">
        <ele>3.4296875</ele>
      </trkpt>
      <trkpt lat="46.97327" lon="-1.99408">
        <ele>3.21484375</ele>
      </trkpt>
      <trkpt lat="46.97326" lon="-1.99388">
        <ele>3.06640625</ele>
      </trkpt>
      <trkpt lat="46.97356" lon="-1.99333">
        <ele>2.9375</ele>
      </trkpt>
      <trkpt lat="46.97364" lon="-1.99317">
        <ele>3.0703125</ele>
      </trkpt>
      <trkpt lat="46.97368" lon="-1.99312">
        <ele>3.109375</ele>
      </trkpt>
      <trkpt lat="46.97374" lon="-1.993">
        <ele>3.1484375</ele>
      </trkpt>
      <trkpt lat="46.97379" lon="-1.99288">
        <ele>3.12890625</ele>
      </trkpt>
      <trkpt lat="46.97386" lon="-1.99266">
        <ele>2.98046875</ele>
      </trkpt>
      <trkpt lat="46.97391" lon="-1.99247">
        <ele>2.83984375</ele>
      </trkpt>
      <trkpt lat="46.97397" lon="-1.99222">
        <ele>2.71484375</ele>
      </trkpt>
      <trkpt lat="46.97391" lon="-1.99194">
        <ele>2.55859375</ele>
      </trkpt>
      <trkpt lat="46.97387" lon="-1.99175">
        <ele>2.484375</ele>
      </trkpt>
      <trkpt lat="46.97382" lon="-1.99133">
        <ele>2.38671875</ele>
      </trkpt>
      <trkpt lat="46.97378" lon="-1.99096">
        <ele>2.328125</ele>
      </trkpt>
      <trkpt lat="46.97376" lon="-1.99063">
        <ele>2.2890625</ele>
      </trkpt>
      <trkpt lat="46.97374" lon="-1.99038">
        <ele>2.25</ele>
      </trkpt>
      <trkpt lat="46.9737" lon="-1.99016">
        <ele>2.17578125</ele>
      </trkpt>
      <trkpt lat="46.9736" lon="-1.98992">
        <ele>2</ele>
      </trkpt>
      <trkpt lat="46.97348" lon="-1.98968">
        <ele>2</ele>
      </trkpt>
      <trkpt lat="46.97338" lon="-1.98944">
        <ele>2</ele>
      </trkpt>
      <trkpt lat="46.97329" lon="-1.98918">
        <ele>2</ele>
      </trkpt>
      <trkpt lat="46.97312" lon="-1.98861">
        <ele>2</ele>
      </trkpt>
      <trkpt lat="46.97296" lon="-1.98817">
        <ele>2</ele>
      </trkpt>
      <trkpt lat="46.97286" lon="-1.98797">
        <ele>2</ele>
      </trkpt>
      <trkpt lat="46.97282" lon="-1.9879">
        <ele>2</ele>
      </trkpt>
      <trkpt lat="46.97267" lon="-1.98762">
        <ele>2</ele>
      </trkpt>
      <trkpt lat="46.97257" lon="-1.98746">
        <ele>2</ele>
      </trkpt>
      <trkpt lat="46.97246" lon="-1.98723">
        <ele>2</ele>
      </trkpt>
      <trkpt lat="46.97239" lon="-1.98721">
        <ele>2</ele>
      </trkpt>
      <trkpt lat="46.97234" lon="-1.98718">
        <ele>2</ele>
      </trkpt>
      <trkpt lat="46.97229" lon="-1.98717">
        <ele>2</ele>
      </trkpt>
      <trkpt lat="46.97214" lon="-1.9872">
        <ele>2</ele>
      </trkpt>
      <trkpt lat="46.97204" lon="-1.98715">
        <ele>2</ele>
      </trkpt>
      <trkpt lat="46.97186" lon="-1.98708">
        <ele>2</ele>
      </trkpt>
      <trkpt lat="46.97173" lon="-1.98704">
        <ele>2</ele>
      </trkpt>
      <trkpt lat="46.97165" lon="-1.98703">
        <ele>2</ele>
      </trkpt>
      <trkpt lat="46.97157" lon="-1.98711">
        <ele>2</ele>
      </trkpt>
      <trkpt lat="46.9715" lon="-1.98723">
        <ele>2</ele>
      </trkpt>
      <trkpt lat="46.97136" lon="-1.98755">
        <ele>2</ele>
      </trkpt>
      <trkpt lat="46.97131" lon="-1.98759">
        <ele>2</ele>
      </trkpt>
      <trkpt lat="46.97124" lon="-1.98756">
        <ele>2</ele>
      </trkpt>
      <trkpt lat="46.97114" lon="-1.9875">
        <ele>2</ele>
      </trkpt>
      <trkpt lat="46.97103" lon="-1.98738">
        <ele>2</ele>
      </trkpt>
      <trkpt lat="46.9709" lon="-1.9872">
        <ele>2</ele>
      </trkpt>
      <trkpt lat="46.97081" lon="-1.98711">
        <ele>2</ele>
      </trkpt>
      <trkpt lat="46.97074" lon="-1.98699">
        <ele>2</ele>
      </trkpt>
      <trkpt lat="46.97062" lon="-1.98691">
        <ele>2</ele>
      </trkpt>
      <trkpt lat="46.97052" lon="-1.98695">
        <ele>2</ele>
      </trkpt>
      <trkpt lat="46.97046" lon="-1.987">
        <ele>2</ele>
      </trkpt>
      <trkpt lat="46.9703" lon="-1.9871">
        <ele>2</ele>
      </trkpt>
      <trkpt lat="46.96977" lon="-1.98746">
        <ele>2</ele>
      </trkpt>
      <trkpt lat="46.96967" lon="-1.98751">
        <ele>2</ele>
      </trkpt>
      <trkpt lat="46.96951" lon="-1.98762">
        <ele>2</ele>
      </trkpt>
      <trkpt lat="46.96933" lon="-1.98781">
        <ele>2</ele>
      </trkpt>
      <trkpt lat="46.96963" lon="-1.98856">
        <ele>2</ele>
      </trkpt>
      <trkpt lat="46.96981" lon="-1.98899">
        <ele>2</ele>
      </trkpt>
      <trkpt lat="46.96958" lon="-1.9892">
        <ele>2</ele>
      </trkpt>
      <trkpt lat="46.96933" lon="-1.98941">
        <ele>2</ele>
      </trkpt>
      <trkpt lat="46.96922" lon="-1.98952">
        <ele>2</ele>
      </trkpt>
      <trkpt lat="46.96916" lon="-1.98962">
        <ele>2</ele>
      </trkpt>
      <trkpt lat="46.96911" lon="-1.98975">
        <ele>2</ele>
      </trkpt>
      <trkpt lat="46.96905" lon="-1.98996">
        <ele>2</ele>
      </trkpt>
      <trkpt lat="46.96904" lon="-1.9901">
        <ele>2</ele>
      </trkpt>
      <trkpt lat="46.969" lon="-1.99035">
        <ele>2</ele>
      </trkpt>
      <trkpt lat="46.96898" lon="-1.99049">
        <ele>2</ele>
      </trkpt>
      <trkpt lat="46.96895" lon="-1.9906">
        <ele>2</ele>
      </trkpt>
      <trkpt lat="46.96886" lon="-1.99074">
        <ele>2</ele>
      </trkpt>
      <trkpt lat="46.96867" lon="-1.99097">
        <ele>2</ele>
      </trkpt>
      <trkpt lat="46.96845" lon="-1.99122">
        <ele>2</ele>
      </trkpt>
      <trkpt lat="46.96856" lon="-1.99143">
        <ele>2</ele>
      </trkpt>
      <trkpt lat="46.96845" lon="-1.99122">
        <ele>2</ele>
      </trkpt>
      <trkpt lat="46.96867" lon="-1.99097">
        <ele>2</ele>
      </trkpt>
      <trkpt lat="46.96845" lon="-1.99122">
        <ele>2</ele>
      </trkpt>
      <trkpt lat="46.96831" lon="-1.99134">
        <ele>2</ele>
      </trkpt>
      <trkpt lat="46.96819" lon="-1.99141">
        <ele>2</ele>
      </trkpt>
      <trkpt lat="46.96804" lon="-1.99148">
        <ele>2</ele>
      </trkpt>
      <trkpt lat="46.96789" lon="-1.9915">
        <ele>2</ele>
      </trkpt>
      <trkpt lat="46.96778" lon="-1.99152">
        <ele>2</ele>
      </trkpt>
      <trkpt lat="46.96771" lon="-1.99155">
        <ele>2</ele>
      </trkpt>
      <trkpt lat="46.96765" lon="-1.99162">
        <ele>2</ele>
      </trkpt>
      <trkpt lat="46.96759" lon="-1.99169">
        <ele>2</ele>
      </trkpt>
      <trkpt lat="46.96752" lon="-1.99173">
        <ele>2</ele>
      </trkpt>
      <trkpt lat="46.96742" lon="-1.99173">
        <ele>2</ele>
      </trkpt>
      <trkpt lat="46.96735" lon="-1.99168">
        <ele>2</ele>
      </trkpt>
      <trkpt lat="46.96729" lon="-1.99164">
        <ele>2</ele>
      </trkpt>
      <trkpt lat="46.96724" lon="-1.99158">
        <ele>2</ele>
      </trkpt>
      <trkpt lat="46.96718" lon="-1.99151">
        <ele>2</ele>
      </trkpt>
      <trkpt lat="46.96716" lon="-1.99125">
        <ele>2</ele>
      </trkpt>
      <trkpt lat="46.96716" lon="-1.99109">
        <ele>2</ele>
      </trkpt>
      <trkpt lat="46.96719" lon="-1.9909">
        <ele>2</ele>
      </trkpt>
      <trkpt lat="46.96719" lon="-1.99074">
        <ele>2</ele>
      </trkpt>
      <trkpt lat="46.96719" lon="-1.99074">
        <ele>2</ele>
      </trkpt>
      <trkpt lat="46.96713" lon="-1.99049">
        <ele>2</ele>
      </trkpt>
      <trkpt lat="46.96718" lon="-1.99061">
        <ele>2</ele>
      </trkpt>
      <trkpt lat="46.96719" lon="-1.99071">
        <ele>2</ele>
      </trkpt>
      <trkpt lat="46.96719" lon="-1.9909">
        <ele>2</ele>
      </trkpt>
      <trkpt lat="46.96716" lon="-1.99109">
        <ele>2</ele>
      </trkpt>
      <trkpt lat="46.96716" lon="-1.99125">
        <ele>2</ele>
      </trkpt>
      <trkpt lat="46.96718" lon="-1.99151">
        <ele>2</ele>
      </trkpt>
      <trkpt lat="46.96724" lon="-1.99158">
        <ele>2</ele>
      </trkpt>
      <trkpt lat="46.96729" lon="-1.99164">
        <ele>2</ele>
      </trkpt>
      <trkpt lat="46.96735" lon="-1.99168">
        <ele>2</ele>
      </trkpt>
      <trkpt lat="46.96742" lon="-1.99173">
        <ele>2</ele>
      </trkpt>
      <trkpt lat="46.96752" lon="-1.99173">
        <ele>2</ele>
      </trkpt>
      <trkpt lat="46.96759" lon="-1.99169">
        <ele>2</ele>
      </trkpt>
      <trkpt lat="46.96765" lon="-1.99162">
        <ele>2</ele>
      </trkpt>
      <trkpt lat="46.96771" lon="-1.99155">
        <ele>2</ele>
      </trkpt>
      <trkpt lat="46.96778" lon="-1.99152">
        <ele>2</ele>
      </trkpt>
      <trkpt lat="46.96789" lon="-1.9915">
        <ele>2</ele>
      </trkpt>
      <trkpt lat="46.96804" lon="-1.99148">
        <ele>2</ele>
      </trkpt>
      <trkpt lat="46.96819" lon="-1.99141">
        <ele>2</ele>
      </trkpt>
      <trkpt lat="46.96831" lon="-1.99134">
        <ele>2</ele>
      </trkpt>
      <trkpt lat="46.96845" lon="-1.99122">
        <ele>2</ele>
      </trkpt>
      <trkpt lat="46.96867" lon="-1.99097">
        <ele>2</ele>
      </trkpt>
      <trkpt lat="46.96886" lon="-1.99074">
        <ele>2</ele>
      </trkpt>
      <trkpt lat="46.96895" lon="-1.9906">
        <ele>2</ele>
      </trkpt>
      <trkpt lat="46.96898" lon="-1.99049">
        <ele>2</ele>
      </trkpt>
      <trkpt lat="46.969" lon="-1.99035">
        <ele>2</ele>
      </trkpt>
      <trkpt lat="46.96904" lon="-1.9901">
        <ele>2</ele>
      </trkpt>
      <trkpt lat="46.96905" lon="-1.98996">
        <ele>2</ele>
      </trkpt>
      <trkpt lat="46.96911" lon="-1.98975">
        <ele>2</ele>
      </trkpt>
      <trkpt lat="46.96916" lon="-1.98962">
        <ele>2</ele>
      </trkpt>
      <trkpt lat="46.96922" lon="-1.98952">
        <ele>2</ele>
      </trkpt>
      <trkpt lat="46.96933" lon="-1.98941">
        <ele>2</ele>
      </trkpt>
      <trkpt lat="46.96958" lon="-1.9892">
        <ele>2</ele>
      </trkpt>
      <trkpt lat="46.96981" lon="-1.98899">
        <ele>2</ele>
      </trkpt>
      <trkpt lat="46.96984" lon="-1.98904">
        <ele>2</ele>
      </trkpt>
      <trkpt lat="46.97005" lon="-1.98959">
        <ele>2</ele>
      </trkpt>
      <trkpt lat="46.97059" lon="-1.99085">
        <ele>2</ele>
      </trkpt>
      <trkpt lat="46.97069" lon="-1.99112">
        <ele>2</ele>
      </trkpt>
      <trkpt lat="46.97077" lon="-1.99109">
        <ele>2</ele>
      </trkpt>
      <trkpt lat="46.97084" lon="-1.9911">
        <ele>2</ele>
      </trkpt>
      <trkpt lat="46.97091" lon="-1.99118">
        <ele>2</ele>
      </trkpt>
      <trkpt lat="46.97093" lon="-1.99126">
        <ele>2</ele>
      </trkpt>
      <trkpt lat="46.97092" lon="-1.99133">
        <ele>2</ele>
      </trkpt>
      <trkpt lat="46.9709" lon="-1.99142">
        <ele>2</ele>
      </trkpt>
      <trkpt lat="46.97085" lon="-1.99152">
        <ele>2</ele>
      </trkpt>
      <trkpt lat="46.97108" lon="-1.99207">
        <ele>2</ele>
      </trkpt>
      <trkpt lat="46.9712" lon="-1.99234">
        <ele>2</ele>
      </trkpt>
      <trkpt lat="46.97147" lon="-1.99299">
        <ele>2</ele>
      </trkpt>
      <trkpt lat="46.97165" lon="-1.99343">
        <ele>2</ele>
      </trkpt>
      <trkpt lat="46.97185" lon="-1.99393">
        <ele>2</ele>
      </trkpt>
      <trkpt lat="46.97207" lon="-1.99446">
        <ele>2.05078125</ele>
      </trkpt>
      <trkpt lat="46.97214" lon="-1.99464">
        <ele>2.203125</ele>
      </trkpt>
      <trkpt lat="46.97244" lon="-1.99537">
        <ele>2.9140625</ele>
      </trkpt>
      <trkpt lat="46.97211" lon="-1.99597">
        <ele>2.95703125</ele>
      </trkpt>
      <trkpt lat="46.97188" lon="-1.99639">
        <ele>2.91015625</ele>
      </trkpt>
      <trkpt lat="46.97155" lon="-1.99697">
        <ele>2.81640625</ele>
      </trkpt>
      <trkpt lat="46.97138" lon="-1.9973">
        <ele>3</ele>
      </trkpt>
      <trkpt lat="46.97129" lon="-1.99745">
        <ele>2.84375</ele>
      </trkpt>
      <trkpt lat="46.97119" lon="-1.99767">
        <ele>2.65234375</ele>
      </trkpt>
      <trkpt lat="46.97116" lon="-1.99773">
        <ele>2.59375</ele>
      </trkpt>
      <trkpt lat="46.97113" lon="-1.99778">
        <ele>2.5546875</ele>
      </trkpt>
      <trkpt lat="46.9711" lon="-1.99792">
        <ele>2.49609375</ele>
      </trkpt>
      <trkpt lat="46.97107" lon="-1.99806">
        <ele>2.44140625</ele>
      </trkpt>
      <trkpt lat="46.97105" lon="-1.99819">
        <ele>2.40234375</ele>
      </trkpt>
      <trkpt lat="46.97098" lon="-1.99851">
        <ele>2.28515625</ele>
      </trkpt>
      <trkpt lat="46.97089" lon="-1.99896">
        <ele>2.40234375</ele>
      </trkpt>
      <trkpt lat="46.97083" lon="-1.99922">
        <ele>2.796875</ele>
      </trkpt>
      <trkpt lat="46.9708" lon="-1.99938">
        <ele>2.9609375</ele>
      </trkpt>
      <trkpt lat="46.9708" lon="-1.99946">
        <ele>2.96484375</ele>
      </trkpt>
      <trkpt lat="46.97083" lon="-1.99952">
        <ele>3</ele>
      </trkpt>
      <trkpt lat="46.97088" lon="-1.99959">
        <ele>3</ele>
      </trkpt>
      <trkpt lat="46.97092" lon="-1.99964">
        <ele>3</ele>
      </trkpt>
      <trkpt lat="46.97099" lon="-1.99969">
        <ele>3</ele>
      </trkpt>
      <trkpt lat="46.97105" lon="-1.99976">
        <ele>3</ele>
      </trkpt>
      <trkpt lat="46.97094" lon="-1.99997">
        <ele>3</ele>
      </trkpt>
      <trkpt lat="46.97072" lon="-2.0004">
        <ele>3</ele>
      </trkpt>
      <trkpt lat="46.97068" lon="-2.00047">
        <ele>3</ele>
      </trkpt>
      <trkpt lat="46.97047" lon="-2.00085">
        <ele>3</ele>
      </trkpt>
      <trkpt lat="46.97037" lon="-2.00105">
        <ele>3</ele>
      </trkpt>
      <trkpt lat="46.97026" lon="-2.00123">
        <ele>3</ele>
      </trkpt>
      <trkpt lat="46.97016" lon="-2.00139">
        <ele>3</ele>
      </trkpt>
      <trkpt lat="46.97007" lon="-2.0015">
        <ele>3</ele>
      </trkpt>
      <trkpt lat="46.96996" lon="-2.0016">
        <ele>3</ele>
      </trkpt>
      <trkpt lat="46.96999" lon="-2.00165">
        <ele>3</ele>
      </trkpt>
      <trkpt lat="46.97" lon="-2.00172">
        <ele>3</ele>
      </trkpt>
      <trkpt lat="46.97" lon="-2.00179">
        <ele>3</ele>
      </trkpt>
      <trkpt lat="46.96999" lon="-2.00188">
        <ele>3</ele>
      </trkpt>
      <trkpt lat="46.96998" lon="-2.00203">
        <ele>3</ele>
      </trkpt>
      <trkpt lat="46.9699" lon="-2.00256">
        <ele>3</ele>
      </trkpt>
      <trkpt lat="46.96983" lon="-2.00311">
        <ele>3</ele>
      </trkpt>
      <trkpt lat="46.96972" lon="-2.00375">
        <ele>3</ele>
      </trkpt>
      <trkpt lat="46.96966" lon="-2.00396">
        <ele>2.96875</ele>
      </trkpt>
      <trkpt lat="46.96947" lon="-2.00466">
        <ele>2.55859375</ele>
      </trkpt>
      <trkpt lat="46.96945" lon="-2.0048">
        <ele>2.5234375</ele>
      </trkpt>
      <trkpt lat="46.96944" lon="-2.00491">
        <ele>2.484375</ele>
      </trkpt>
      <trkpt lat="46.96944" lon="-2.00499">
        <ele>2.40625</ele>
      </trkpt>
      <trkpt lat="46.96946" lon="-2.00507">
        <ele>2.3671875</ele>
      </trkpt>
      <trkpt lat="46.96939" lon="-2.00522">
        <ele>2.1640625</ele>
      </trkpt>
      <trkpt lat="46.96932" lon="-2.00534">
        <ele>2.0546875</ele>
      </trkpt>
      <trkpt lat="46.96923" lon="-2.00543">
        <ele>2.00390625</ele>
      </trkpt>
      <trkpt lat="46.96895" lon="-2.00575">
        <ele>2.38671875</ele>
      </trkpt>
      <trkpt lat="46.9689" lon="-2.00579">
        <ele>2.46484375</ele>
      </trkpt>
      <trkpt lat="46.96884" lon="-2.00583">
        <ele>2.578125</ele>
      </trkpt>
      <trkpt lat="46.9688" lon="-2.00584">
        <ele>2.65625</ele>
      </trkpt>
      <trkpt lat="46.96875" lon="-2.00585">
        <ele>2.734375</ele>
      </trkpt>
      <trkpt lat="46.96869" lon="-2.00586">
        <ele>2.8515625</ele>
      </trkpt>
      <trkpt lat="46.9686" lon="-2.0059">
        <ele>3</ele>
      </trkpt>
      <trkpt lat="46.96853" lon="-2.00595">
        <ele>3</ele>
      </trkpt>
      <trkpt lat="46.96845" lon="-2.00602">
        <ele>3</ele>
      </trkpt>
      <trkpt lat="46.9684" lon="-2.00609">
        <ele>3</ele>
      </trkpt>
      <trkpt lat="46.96834" lon="-2.00619">
        <ele>3</ele>
      </trkpt>
      <trkpt lat="46.96828" lon="-2.0063">
        <ele>3</ele>
      </trkpt>
      <trkpt lat="46.96816" lon="-2.00649">
        <ele>3</ele>
      </trkpt>
      <trkpt lat="46.96811" lon="-2.00657">
        <ele>3</ele>
      </trkpt>
      <trkpt lat="46.96805" lon="-2.00665">
        <ele>3</ele>
      </trkpt>
      <trkpt lat="46.96786" lon="-2.00686">
        <ele>3</ele>
      </trkpt>
      <trkpt lat="46.9678" lon="-2.00693">
        <ele>3</ele>
      </trkpt>
      <trkpt lat="46.96771" lon="-2.00701">
        <ele>3</ele>
      </trkpt>
      <trkpt lat="46.96765" lon="-2.0071">
        <ele>3</ele>
      </trkpt>
      <trkpt lat="46.96758" lon="-2.00717">
        <ele>3</ele>
      </trkpt>
      <trkpt lat="46.96752" lon="-2.00726">
        <ele>3</ele>
      </trkpt>
      <trkpt lat="46.96746" lon="-2.00734">
        <ele>3</ele>
      </trkpt>
      <trkpt lat="46.96742" lon="-2.00742">
        <ele>3</ele>
      </trkpt>
      <trkpt lat="46.96738" lon="-2.00755">
        <ele>3</ele>
      </trkpt>
      <trkpt lat="46.96736" lon="-2.00768">
        <ele>3</ele>
      </trkpt>
      <trkpt lat="46.96734" lon="-2.00786">
        <ele>3</ele>
      </trkpt>
      <trkpt lat="46.96733" lon="-2.00821">
        <ele>3</ele>
      </trkpt>
      <trkpt lat="46.96734" lon="-2.00859">
        <ele>3</ele>
      </trkpt>
      <trkpt lat="46.96735" lon="-2.00872">
        <ele>3</ele>
      </trkpt>
      <trkpt lat="46.96736" lon="-2.00887">
        <ele>3</ele>
      </trkpt>
      <trkpt lat="46.96737" lon="-2.009">
        <ele>3</ele>
      </trkpt>
      <trkpt lat="46.96737" lon="-2.0091">
        <ele>3</ele>
      </trkpt>
      <trkpt lat="46.96736" lon="-2.00923">
        <ele>3</ele>
      </trkpt>
      <trkpt lat="46.96735" lon="-2.00939">
        <ele>3</ele>
      </trkpt>
      <trkpt lat="46.96734" lon="-2.00948">
        <ele>3</ele>
      </trkpt>
      <trkpt lat="46.96731" lon="-2.00959">
        <ele>3</ele>
      </trkpt>
      <trkpt lat="46.9673" lon="-2.0097">
        <ele>3</ele>
      </trkpt>
      <trkpt lat="46.96726" lon="-2.00997">
        <ele>3</ele>
      </trkpt>
      <trkpt lat="46.96723" lon="-2.01025">
        <ele>3</ele>
      </trkpt>
      <trkpt lat="46.96718" lon="-2.01057">
        <ele>3</ele>
      </trkpt>
      <trkpt lat="46.96714" lon="-2.01083">
        <ele>3</ele>
      </trkpt>
      <trkpt lat="46.96712" lon="-2.01103">
        <ele>3</ele>
      </trkpt>
      <trkpt lat="46.96711" lon="-2.01118">
        <ele>3</ele>
      </trkpt>
      <trkpt lat="46.96711" lon="-2.01133">
        <ele>3</ele>
      </trkpt>
      <trkpt lat="46.96713" lon="-2.01145">
        <ele>3</ele>
      </trkpt>
      <trkpt lat="46.96714" lon="-2.01153">
        <ele>3</ele>
      </trkpt>
      <trkpt lat="46.96716" lon="-2.01169">
        <ele>3</ele>
      </trkpt>
      <trkpt lat="46.96719" lon="-2.01194">
        <ele>3</ele>
      </trkpt>
      <trkpt lat="46.9672" lon="-2.01214">
        <ele>3</ele>
      </trkpt>
      <trkpt lat="46.96721" lon="-2.01225">
        <ele>3</ele>
      </trkpt>
      <trkpt lat="46.96722" lon="-2.01247">
        <ele>3</ele>
      </trkpt>
      <trkpt lat="46.96723" lon="-2.01271">
        <ele>3.08203125</ele>
      </trkpt>
      <trkpt lat="46.96722" lon="-2.01291">
        <ele>3.44921875</ele>
      </trkpt>
      <trkpt lat="46.96719" lon="-2.01308">
        <ele>3.7578125</ele>
      </trkpt>
      <trkpt lat="46.96712" lon="-2.01329">
        <ele>4</ele>
      </trkpt>
      <trkpt lat="46.96702" lon="-2.0135">
        <ele>4</ele>
      </trkpt>
      <trkpt lat="46.96692" lon="-2.01373">
        <ele>3.99609375</ele>
      </trkpt>
      <trkpt lat="46.96679" lon="-2.01394">
        <ele>4</ele>
      </trkpt>
      <trkpt lat="46.96665" lon="-2.01415">
        <ele>4</ele>
      </trkpt>
      <trkpt lat="46.96655" lon="-2.01431">
        <ele>4</ele>
      </trkpt>
      <trkpt lat="46.96649" lon="-2.01447">
        <ele>4</ele>
      </trkpt>
      <trkpt lat="46.96645" lon="-2.01462">
        <ele>4</ele>
      </trkpt>
      <trkpt lat="46.9664" lon="-2.01486">
        <ele>4</ele>
      </trkpt>
      <trkpt lat="46.96639" lon="-2.01505">
        <ele>4</ele>
      </trkpt>
      <trkpt lat="46.96638" lon="-2.01518">
        <ele>4</ele>
      </trkpt>
      <trkpt lat="46.96636" lon="-2.01537">
        <ele>4</ele>
      </trkpt>
      <trkpt lat="46.96633" lon="-2.01563">
        <ele>4</ele>
      </trkpt>
      <trkpt lat="46.96628" lon="-2.01589">
        <ele>4</ele>
      </trkpt>
      <trkpt lat="46.96623" lon="-2.01614">
        <ele>4</ele>
      </trkpt>
      <trkpt lat="46.96611" lon="-2.01661">
        <ele>4</ele>
      </trkpt>
      <trkpt lat="46.96608" lon="-2.01672">
        <ele>4</ele>
      </trkpt>
      <trkpt lat="46.96598" lon="-2.01701">
        <ele>4</ele>
      </trkpt>
      <trkpt lat="46.96595" lon="-2.01718">
        <ele>4</ele>
      </trkpt>
      <trkpt lat="46.96592" lon="-2.01733">
        <ele>4</ele>
      </trkpt>
      <trkpt lat="46.96589" lon="-2.01745">
        <ele>4</ele>
      </trkpt>
      <trkpt lat="46.96584" lon="-2.0176">
        <ele>4</ele>
      </trkpt>
      <trkpt lat="46.96576" lon="-2.0178">
        <ele>4</ele>
      </trkpt>
      <trkpt lat="46.96566" lon="-2.01801">
        <ele>4</ele>
      </trkpt>
      <trkpt lat="46.96553" lon="-2.01823">
        <ele>4</ele>
      </trkpt>
      <trkpt lat="46.96542" lon="-2.01848">
        <ele>4</ele>
      </trkpt>
      <trkpt lat="46.96535" lon="-2.01863">
        <ele>4</ele>
      </trkpt>
      <trkpt lat="46.9653" lon="-2.01879">
        <ele>4</ele>
      </trkpt>
      <trkpt lat="46.96529" lon="-2.01898">
        <ele>4</ele>
      </trkpt>
      <trkpt lat="46.96528" lon="-2.01916">
        <ele>4</ele>
      </trkpt>
      <trkpt lat="46.96528" lon="-2.0194">
        <ele>4</ele>
      </trkpt>
      <trkpt lat="46.96529" lon="-2.01965">
        <ele>4</ele>
      </trkpt>
      <trkpt lat="46.96531" lon="-2.01988">
        <ele>4</ele>
      </trkpt>
      <trkpt lat="46.96531" lon="-2.01995">
        <ele>4</ele>
      </trkpt>
      <trkpt lat="46.96531" lon="-2.02003">
        <ele>4</ele>
      </trkpt>
      <trkpt lat="46.96529" lon="-2.02009">
        <ele>4</ele>
      </trkpt>
      <trkpt lat="46.96523" lon="-2.02014">
        <ele>4</ele>
      </trkpt>
      <trkpt lat="46.9652" lon="-2.02019">
        <ele>4</ele>
      </trkpt>
      <trkpt lat="46.96517" lon="-2.02024">
        <ele>4</ele>
      </trkpt>
      <trkpt lat="46.96514" lon="-2.02031">
        <ele>4</ele>
      </trkpt>
      <trkpt lat="46.96498" lon="-2.02065">
        <ele>4</ele>
      </trkpt>
      <trkpt lat="46.96489" lon="-2.02075">
        <ele>4</ele>
      </trkpt>
      <trkpt lat="46.9648" lon="-2.02084">
        <ele>4</ele>
      </trkpt>
      <trkpt lat="46.96457" lon="-2.02097">
        <ele>4</ele>
      </trkpt>
      <trkpt lat="46.96443" lon="-2.02103">
        <ele>3.9609375</ele>
      </trkpt>
      <trkpt lat="46.9643" lon="-2.02112">
        <ele>3.82421875</ele>
      </trkpt>
      <trkpt lat="46.96418" lon="-2.02125">
        <ele>3.55078125</ele>
      </trkpt>
      <trkpt lat="46.96404" lon="-2.02144">
        <ele>3.1875</ele>
      </trkpt>
      <trkpt lat="46.96391" lon="-2.02171">
        <ele>3</ele>
      </trkpt>
      <trkpt lat="46.9638" lon="-2.02197">
        <ele>3</ele>
      </trkpt>
      <trkpt lat="46.96375" lon="-2.02213">
        <ele>3</ele>
      </trkpt>
      <trkpt lat="46.96373" lon="-2.02232">
        <ele>3</ele>
      </trkpt>
      <trkpt lat="46.96374" lon="-2.0225">
        <ele>3</ele>
      </trkpt>
      <trkpt lat="46.96377" lon="-2.0227">
        <ele>3</ele>
      </trkpt>
      <trkpt lat="46.96378" lon="-2.0228">
        <ele>3</ele>
      </trkpt>
      <trkpt lat="46.96375" lon="-2.0228">
        <ele>3</ele>
      </trkpt>
      <trkpt lat="46.96372" lon="-2.0228">
        <ele>3</ele>
      </trkpt>
      <trkpt lat="46.96368" lon="-2.02284">
        <ele>3</ele>
      </trkpt>
      <trkpt lat="46.96357" lon="-2.0229">
        <ele>3</ele>
      </trkpt>
      <trkpt lat="46.96353" lon="-2.02294">
        <ele>3</ele>
      </trkpt>
      <trkpt lat="46.96343" lon="-2.02308">
        <ele>3</ele>
      </trkpt>
      <trkpt lat="46.96336" lon="-2.0232">
        <ele>3</ele>
      </trkpt>
      <trkpt lat="46.96328" lon="-2.02335">
        <ele>3</ele>
      </trkpt>
      <trkpt lat="46.96323" lon="-2.02344">
        <ele>3</ele>
      </trkpt>
      <trkpt lat="46.96312" lon="-2.02362">
        <ele>3</ele>
      </trkpt>
      <trkpt lat="46.96302" lon="-2.02378">
        <ele>3</ele>
      </trkpt>
      <trkpt lat="46.96293" lon="-2.02391">
        <ele>3</ele>
      </trkpt>
      <trkpt lat="46.96271" lon="-2.02418">
        <ele>3</ele>
      </trkpt>
      <trkpt lat="46.96255" lon="-2.02438">
        <ele>3</ele>
      </trkpt>
      <trkpt lat="46.9624" lon="-2.02459">
        <ele>3</ele>
      </trkpt>
      <trkpt lat="46.96226" lon="-2.02477">
        <ele>3</ele>
      </trkpt>
      <trkpt lat="46.96221" lon="-2.02484">
        <ele>3</ele>
      </trkpt>
      <trkpt lat="46.96215" lon="-2.02494">
        <ele>3</ele>
      </trkpt>
      <trkpt lat="46.9621" lon="-2.02502">
        <ele>3</ele>
      </trkpt>
      <trkpt lat="46.96204" lon="-2.02513">
        <ele>3</ele>
      </trkpt>
      <trkpt lat="46.96196" lon="-2.02523">
        <ele>3</ele>
      </trkpt>
      <trkpt lat="46.96191" lon="-2.02531">
        <ele>3</ele>
      </trkpt>
      <trkpt lat="46.96182" lon="-2.02544">
        <ele>3</ele>
      </trkpt>
      <trkpt lat="46.96176" lon="-2.02553">
        <ele>3</ele>
      </trkpt>
      <trkpt lat="46.96169" lon="-2.0256">
        <ele>3</ele>
      </trkpt>
      <trkpt lat="46.96162" lon="-2.02569">
        <ele>3</ele>
      </trkpt>
      <trkpt lat="46.9615" lon="-2.0258">
        <ele>3</ele>
      </trkpt>
      <trkpt lat="46.96136" lon="-2.02595">
        <ele>3</ele>
      </trkpt>
      <trkpt lat="46.96127" lon="-2.02602">
        <ele>3</ele>
      </trkpt>
      <trkpt lat="46.96119" lon="-2.02612">
        <ele>3</ele>
      </trkpt>
      <trkpt lat="46.9611" lon="-2.02618">
        <ele>3</ele>
      </trkpt>
      <trkpt lat="46.96102" lon="-2.02624">
        <ele>3</ele>
      </trkpt>
      <trkpt lat="46.96094" lon="-2.02628">
        <ele>3</ele>
      </trkpt>
      <trkpt lat="46.96074" lon="-2.02644">
        <ele>3</ele>
      </trkpt>
      <trkpt lat="46.96067" lon="-2.02648">
        <ele>3</ele>
      </trkpt>
      <trkpt lat="46.96061" lon="-2.02652">
        <ele>3</ele>
      </trkpt>
      <trkpt lat="46.96053" lon="-2.02654">
        <ele>3</ele>
      </trkpt>
      <trkpt lat="46.96046" lon="-2.02654">
        <ele>3</ele>
      </trkpt>
      <trkpt lat="46.96036" lon="-2.02656">
        <ele>3</ele>
      </trkpt>
      <trkpt lat="46.96027" lon="-2.02658">
        <ele>3</ele>
      </trkpt>
      <trkpt lat="46.96018" lon="-2.0266">
        <ele>3</ele>
      </trkpt>
      <trkpt lat="46.9601" lon="-2.02667">
        <ele>3</ele>
      </trkpt>
      <trkpt lat="46.96001" lon="-2.02673">
        <ele>3</ele>
      </trkpt>
      <trkpt lat="46.95995" lon="-2.02675">
        <ele>3</ele>
      </trkpt>
      <trkpt lat="46.95993" lon="-2.02678">
        <ele>3</ele>
      </trkpt>
      <trkpt lat="46.95991" lon="-2.02682">
        <ele>3</ele>
      </trkpt>
      <trkpt lat="46.95988" lon="-2.02691">
        <ele>3</ele>
      </trkpt>
      <trkpt lat="46.95986" lon="-2.02702">
        <ele>3</ele>
      </trkpt>
      <trkpt lat="46.9599" lon="-2.02715">
        <ele>3</ele>
      </trkpt>
      <trkpt lat="46.95995" lon="-2.02729">
        <ele>3</ele>
      </trkpt>
      <trkpt lat="46.95998" lon="-2.0274">
        <ele>3</ele>
      </trkpt>
      <trkpt lat="46.95999" lon="-2.02751">
        <ele>3</ele>
      </trkpt>
      <trkpt lat="46.95999" lon="-2.02764">
        <ele>3</ele>
      </trkpt>
      <trkpt lat="46.95997" lon="-2.02781">
        <ele>3</ele>
      </trkpt>
      <trkpt lat="46.9599" lon="-2.02802">
        <ele>3</ele>
      </trkpt>
      <trkpt lat="46.95987" lon="-2.02823">
        <ele>3</ele>
      </trkpt>
      <trkpt lat="46.95985" lon="-2.0284">
        <ele>3</ele>
      </trkpt>
      <trkpt lat="46.95983" lon="-2.02854">
        <ele>3</ele>
      </trkpt>
      <trkpt lat="46.95974" lon="-2.02867">
        <ele>3</ele>
      </trkpt>
      <trkpt lat="46.95966" lon="-2.02877">
        <ele>3</ele>
      </trkpt>
      <trkpt lat="46.95956" lon="-2.02889">
        <ele>3</ele>
      </trkpt>
      <trkpt lat="46.9595" lon="-2.02903">
        <ele>3</ele>
      </trkpt>
      <trkpt lat="46.95941" lon="-2.02951">
        <ele>3</ele>
      </trkpt>
      <trkpt lat="46.95938" lon="-2.02966">
        <ele>3</ele>
      </trkpt>
      <trkpt lat="46.95933" lon="-2.02978">
        <ele>3</ele>
      </trkpt>
      <trkpt lat="46.95925" lon="-2.02989">
        <ele>3</ele>
      </trkpt>
      <trkpt lat="46.95913" lon="-2.02995">
        <ele>3</ele>
      </trkpt>
      <trkpt lat="46.95906" lon="-2.03001">
        <ele>3</ele>
      </trkpt>
      <trkpt lat="46.95905" lon="-2.03008">
        <ele>3</ele>
      </trkpt>
      <trkpt lat="46.95907" lon="-2.03026">
        <ele>3</ele>
      </trkpt>
      <trkpt lat="46.95919" lon="-2.0308">
        <ele>3</ele>
      </trkpt>
      <trkpt lat="46.95872" lon="-2.03097">
        <ele>3</ele>
      </trkpt>
      <trkpt lat="46.9585" lon="-2.03107">
        <ele>3</ele>
      </trkpt>
      <trkpt lat="46.95833" lon="-2.03111">
        <ele>3</ele>
      </trkpt>
      <trkpt lat="46.95817" lon="-2.0311">
        <ele>3</ele>
      </trkpt>
      <trkpt lat="46.95806" lon="-2.03108">
        <ele>3</ele>
      </trkpt>
      <trkpt lat="46.95788" lon="-2.03111">
        <ele>3</ele>
      </trkpt>
      <trkpt lat="46.95745" lon="-2.03125">
        <ele>3</ele>
      </trkpt>
      <trkpt lat="46.95719" lon="-2.03134">
        <ele>3</ele>
      </trkpt>
      <trkpt lat="46.95697" lon="-2.03143">
        <ele>3</ele>
      </trkpt>
      <trkpt lat="46.95684" lon="-2.03151">
        <ele>3</ele>
      </trkpt>
      <trkpt lat="46.9567" lon="-2.03161">
        <ele>3</ele>
      </trkpt>
      <trkpt lat="46.95647" lon="-2.03183">
        <ele>3</ele>
      </trkpt>
      <trkpt lat="46.95616" lon="-2.03212">
        <ele>3</ele>
      </trkpt>
      <trkpt lat="46.95592" lon="-2.03232">
        <ele>3</ele>
      </trkpt>
      <trkpt lat="46.95567" lon="-2.03251">
        <ele>3</ele>
      </trkpt>
      <trkpt lat="46.95539" lon="-2.03269">
        <ele>3</ele>
      </trkpt>
      <trkpt lat="46.95515" lon="-2.03282">
        <ele>3</ele>
      </trkpt>
      <trkpt lat="46.95486" lon="-2.03299">
        <ele>3</ele>
      </trkpt>
      <trkpt lat="46.95468" lon="-2.03308">
        <ele>3</ele>
      </trkpt>
      <trkpt lat="46.95442" lon="-2.03316">
        <ele>3</ele>
      </trkpt>
      <trkpt lat="46.95401" lon="-2.03326">
        <ele>3</ele>
      </trkpt>
      <trkpt lat="46.95398" lon="-2.03337">
        <ele>3</ele>
      </trkpt>
      <trkpt lat="46.954" lon="-2.03361">
        <ele>3</ele>
      </trkpt>
      <trkpt lat="46.95402" lon="-2.03383">
        <ele>3</ele>
      </trkpt>
      <trkpt lat="46.95403" lon="-2.03406">
        <ele>3</ele>
      </trkpt>
      <trkpt lat="46.95405" lon="-2.03432">
        <ele>3</ele>
      </trkpt>
      <trkpt lat="46.95409" lon="-2.03452">
        <ele>3</ele>
      </trkpt>
      <trkpt lat="46.95413" lon="-2.03464">
        <ele>3</ele>
      </trkpt>
      <trkpt lat="46.95421" lon="-2.03481">
        <ele>3</ele>
      </trkpt>
      <trkpt lat="46.95429" lon="-2.03501">
        <ele>3</ele>
      </trkpt>
      <trkpt lat="46.95433" lon="-2.03521">
        <ele>3</ele>
      </trkpt>
      <trkpt lat="46.95435" lon="-2.03537">
        <ele>3</ele>
      </trkpt>
      <trkpt lat="46.95435" lon="-2.03545">
        <ele>3</ele>
      </trkpt>
      <trkpt lat="46.95431" lon="-2.03554">
        <ele>3</ele>
      </trkpt>
      <trkpt lat="46.95418" lon="-2.0356">
        <ele>3</ele>
      </trkpt>
      <trkpt lat="46.95399" lon="-2.03569">
        <ele>3</ele>
      </trkpt>
      <trkpt lat="46.95387" lon="-2.03575">
        <ele>3</ele>
      </trkpt>
      <trkpt lat="46.95372" lon="-2.03586">
        <ele>3</ele>
      </trkpt>
      <trkpt lat="46.95357" lon="-2.036">
        <ele>3</ele>
      </trkpt>
      <trkpt lat="46.95343" lon="-2.03616">
        <ele>3</ele>
      </trkpt>
      <trkpt lat="46.95328" lon="-2.03627">
        <ele>3</ele>
      </trkpt>
      <trkpt lat="46.95307" lon="-2.03642">
        <ele>3</ele>
      </trkpt>
      <trkpt lat="46.95271" lon="-2.03654">
        <ele>3</ele>
      </trkpt>
      <trkpt lat="46.95247" lon="-2.03658">
        <ele>3</ele>
      </trkpt>
      <trkpt lat="46.95225" lon="-2.03662">
        <ele>3</ele>
      </trkpt>
      <trkpt lat="46.95211" lon="-2.03665">
        <ele>3</ele>
      </trkpt>
      <trkpt lat="46.95197" lon="-2.03669">
        <ele>3</ele>
      </trkpt>
      <trkpt lat="46.95178" lon="-2.03678">
        <ele>3</ele>
      </trkpt>
      <trkpt lat="46.95162" lon="-2.03687">
        <ele>3</ele>
      </trkpt>
      <trkpt lat="46.95147" lon="-2.03694">
        <ele>3</ele>
      </trkpt>
      <trkpt lat="46.95137" lon="-2.037">
        <ele>3</ele>
      </trkpt>
      <trkpt lat="46.95131" lon="-2.03706">
        <ele>3</ele>
      </trkpt>
      <trkpt lat="46.95125" lon="-2.03706">
        <ele>3</ele>
      </trkpt>
      <trkpt lat="46.95111" lon="-2.03714">
        <ele>3</ele>
      </trkpt>
      <trkpt lat="46.95096" lon="-2.03725">
        <ele>3</ele>
      </trkpt>
      <trkpt lat="46.95083" lon="-2.03731">
        <ele>3</ele>
      </trkpt>
      <trkpt lat="46.95078" lon="-2.03733">
        <ele>3</ele>
      </trkpt>
      <trkpt lat="46.95073" lon="-2.03732">
        <ele>3</ele>
      </trkpt>
      <trkpt lat="46.95071" lon="-2.0374">
        <ele>3</ele>
      </trkpt>
      <trkpt lat="46.95068" lon="-2.03743">
        <ele>3</ele>
      </trkpt>
      <trkpt lat="46.95058" lon="-2.03751">
        <ele>3</ele>
      </trkpt>
      <trkpt lat="46.95035" lon="-2.03768">
        <ele>3</ele>
      </trkpt>
      <trkpt lat="46.95008" lon="-2.0379">
        <ele>3</ele>
      </trkpt>
      <trkpt lat="46.94985" lon="-2.03807">
        <ele>3</ele>
      </trkpt>
      <trkpt lat="46.94958" lon="-2.0383">
        <ele>3</ele>
      </trkpt>
      <trkpt lat="46.94941" lon="-2.03844">
        <ele>3</ele>
      </trkpt>
      <trkpt lat="46.94921" lon="-2.0386">
        <ele>3</ele>
      </trkpt>
      <trkpt lat="46.9491" lon="-2.0387">
        <ele>3</ele>
      </trkpt>
      <trkpt lat="46.94902" lon="-2.03879">
        <ele>3</ele>
      </trkpt>
      <trkpt lat="46.94897" lon="-2.03881">
        <ele>3</ele>
      </trkpt>
      <trkpt lat="46.94886" lon="-2.03885">
        <ele>3</ele>
      </trkpt>
      <trkpt lat="46.94868" lon="-2.03893">
        <ele>3</ele>
      </trkpt>
      <trkpt lat="46.9483" lon="-2.03912">
        <ele>3</ele>
      </trkpt>
      <trkpt lat="46.94814" lon="-2.03918">
        <ele>3</ele>
      </trkpt>
      <trkpt lat="46.94792" lon="-2.03922">
        <ele>3</ele>
      </trkpt>
      <trkpt lat="46.94777" lon="-2.03927">
        <ele>3</ele>
      </trkpt>
      <trkpt lat="46.94761" lon="-2.03935">
        <ele>3</ele>
      </trkpt>
      <trkpt lat="46.94747" lon="-2.03944">
        <ele>3</ele>
      </trkpt>
      <trkpt lat="46.94732" lon="-2.03957">
        <ele>3</ele>
      </trkpt>
      <trkpt lat="46.9472" lon="-2.03972">
        <ele>3</ele>
      </trkpt>
      <trkpt lat="46.94724" lon="-2.03982">
        <ele>3</ele>
      </trkpt>
      <trkpt lat="46.94736" lon="-2.04008">
        <ele>3</ele>
      </trkpt>
      <trkpt lat="46.94749" lon="-2.04038">
        <ele>3</ele>
      </trkpt>
      <trkpt lat="46.94755" lon="-2.04055">
        <ele>3</ele>
      </trkpt>
      <trkpt lat="46.94755" lon="-2.04067">
        <ele>3</ele>
      </trkpt>
      <trkpt lat="46.94756" lon="-2.04091">
        <ele>3</ele>
      </trkpt>
      <trkpt lat="46.94758" lon="-2.04115">
        <ele>3</ele>
      </trkpt>
      <trkpt lat="46.94761" lon="-2.04143">
        <ele>3</ele>
      </trkpt>
      <trkpt lat="46.94763" lon="-2.04176">
        <ele>3</ele>
      </trkpt>
      <trkpt lat="46.94762" lon="-2.042">
        <ele>3</ele>
      </trkpt>
      <trkpt lat="46.94763" lon="-2.04208">
        <ele>3</ele>
      </trkpt>
      <trkpt lat="46.94765" lon="-2.04216">
        <ele>3</ele>
      </trkpt>
      <trkpt lat="46.94769" lon="-2.04228">
        <ele>3</ele>
      </trkpt>
      <trkpt lat="46.94782" lon="-2.04255">
        <ele>3</ele>
      </trkpt>
      <trkpt lat="46.94797" lon="-2.0429">
        <ele>3</ele>
      </trkpt>
      <trkpt lat="46.94808" lon="-2.04318">
        <ele>3</ele>
      </trkpt>
      <trkpt lat="46.94796" lon="-2.04329">
        <ele>3</ele>
      </trkpt>
      <trkpt lat="46.94777" lon="-2.04344">
        <ele>3</ele>
      </trkpt>
      <trkpt lat="46.94746" lon="-2.0437">
        <ele>3</ele>
      </trkpt>
      <trkpt lat="46.94715" lon="-2.04398">
        <ele>3</ele>
      </trkpt>
      <trkpt lat="46.94693" lon="-2.04418">
        <ele>3</ele>
      </trkpt>
      <trkpt lat="46.94655" lon="-2.04448">
        <ele>3</ele>
      </trkpt>
      <trkpt lat="46.94645" lon="-2.04456">
        <ele>3</ele>
      </trkpt>
      <trkpt lat="46.94625" lon="-2.04473">
        <ele>3</ele>
      </trkpt>
      <trkpt lat="46.94603" lon="-2.04495">
        <ele>3</ele>
      </trkpt>
      <trkpt lat="46.94589" lon="-2.04507">
        <ele>3</ele>
      </trkpt>
      <trkpt lat="46.94577" lon="-2.04518">
        <ele>3</ele>
      </trkpt>
      <trkpt lat="46.94563" lon="-2.04541">
        <ele>3</ele>
      </trkpt>
      <trkpt lat="46.9455" lon="-2.04568">
        <ele>3</ele>
      </trkpt>
      <trkpt lat="46.94538" lon="-2.04596">
        <ele>3</ele>
      </trkpt>
      <trkpt lat="46.9453" lon="-2.0463">
        <ele>3</ele>
      </trkpt>
      <trkpt lat="46.94523" lon="-2.04656">
        <ele>3</ele>
      </trkpt>
      <trkpt lat="46.94516" lon="-2.04683">
        <ele>3</ele>
      </trkpt>
      <trkpt lat="46.94504" lon="-2.04714">
        <ele>3</ele>
      </trkpt>
      <trkpt lat="46.94491" lon="-2.04741">
        <ele>3</ele>
      </trkpt>
      <trkpt lat="46.94473" lon="-2.04773">
        <ele>3</ele>
      </trkpt>
      <trkpt lat="46.94453" lon="-2.04802">
        <ele>3</ele>
      </trkpt>
      <trkpt lat="46.94433" lon="-2.04825">
        <ele>3</ele>
      </trkpt>
      <trkpt lat="46.94409" lon="-2.0486">
        <ele>3</ele>
      </trkpt>
      <trkpt lat="46.94385" lon="-2.04897">
        <ele>3</ele>
      </trkpt>
      <trkpt lat="46.94371" lon="-2.04922">
        <ele>3</ele>
      </trkpt>
      <trkpt lat="46.94354" lon="-2.04949">
        <ele>3</ele>
      </trkpt>
      <trkpt lat="46.94336" lon="-2.04972">
        <ele>3</ele>
      </trkpt>
      <trkpt lat="46.9432" lon="-2.04989">
        <ele>3</ele>
      </trkpt>
      <trkpt lat="46.94301" lon="-2.05008">
        <ele>3</ele>
      </trkpt>
      <trkpt lat="46.94284" lon="-2.05028">
        <ele>3</ele>
      </trkpt>
      <trkpt lat="46.94258" lon="-2.05059">
        <ele>3</ele>
      </trkpt>
      <trkpt lat="46.94225" lon="-2.05101">
        <ele>3</ele>
      </trkpt>
      <trkpt lat="46.94207" lon="-2.05122">
        <ele>3</ele>
      </trkpt>
      <trkpt lat="46.94195" lon="-2.05141">
        <ele>3</ele>
      </trkpt>
      <trkpt lat="46.94188" lon="-2.05153">
        <ele>3</ele>
      </trkpt>
      <trkpt lat="46.94179" lon="-2.05151">
        <ele>3</ele>
      </trkpt>
      <trkpt lat="46.9417" lon="-2.05143">
        <ele>3</ele>
      </trkpt>
      <trkpt lat="46.94162" lon="-2.05131">
        <ele>3</ele>
      </trkpt>
      <trkpt lat="46.94154" lon="-2.05124">
        <ele>3</ele>
      </trkpt>
      <trkpt lat="46.94148" lon="-2.0512">
        <ele>3</ele>
      </trkpt>
      <trkpt lat="46.9414" lon="-2.05122">
        <ele>3</ele>
      </trkpt>
      <trkpt lat="46.94132" lon="-2.05129">
        <ele>3</ele>
      </trkpt>
      <trkpt lat="46.94122" lon="-2.05141">
        <ele>3</ele>
      </trkpt>
      <trkpt lat="46.94113" lon="-2.05156">
        <ele>3</ele>
      </trkpt>
      <trkpt lat="46.94086" lon="-2.05196">
        <ele>3</ele>
      </trkpt>
      <trkpt lat="46.94074" lon="-2.05217">
        <ele>3</ele>
      </trkpt>
      <trkpt lat="46.94066" lon="-2.05234">
        <ele>3</ele>
      </trkpt>
      <trkpt lat="46.94064" lon="-2.05243">
        <ele>3</ele>
      </trkpt>
      <trkpt lat="46.94061" lon="-2.05257">
        <ele>3</ele>
      </trkpt>
      <trkpt lat="46.94059" lon="-2.05282">
        <ele>3</ele>
      </trkpt>
      <trkpt lat="46.94051" lon="-2.05327">
        <ele>3</ele>
      </trkpt>
      <trkpt lat="46.94041" lon="-2.05381">
        <ele>3</ele>
      </trkpt>
      <trkpt lat="46.94036" lon="-2.05404">
        <ele>3</ele>
      </trkpt>
      <trkpt lat="46.94032" lon="-2.05429">
        <ele>3</ele>
      </trkpt>
      <trkpt lat="46.94029" lon="-2.05452">
        <ele>3</ele>
      </trkpt>
      <trkpt lat="46.94028" lon="-2.05465">
        <ele>3</ele>
      </trkpt>
      <trkpt lat="46.94025" lon="-2.05524">
        <ele>3</ele>
      </trkpt>
      <trkpt lat="46.94021" lon="-2.05566">
        <ele>3</ele>
      </trkpt>
      <trkpt lat="46.94015" lon="-2.05631">
        <ele>3</ele>
      </trkpt>
      <trkpt lat="46.94013" lon="-2.05664">
        <ele>3</ele>
      </trkpt>
      <trkpt lat="46.94011" lon="-2.05692">
        <ele>3</ele>
      </trkpt>
      <trkpt lat="46.94011" lon="-2.05709">
        <ele>3</ele>
      </trkpt>
      <trkpt lat="46.94011" lon="-2.05729">
        <ele>3</ele>
      </trkpt>
      <trkpt lat="46.94007" lon="-2.05737">
        <ele>3</ele>
      </trkpt>
      <trkpt lat="46.94001" lon="-2.05747">
        <ele>3</ele>
      </trkpt>
      <trkpt lat="46.93985" lon="-2.05767">
        <ele>3</ele>
      </trkpt>
      <trkpt lat="46.93974" lon="-2.05782">
        <ele>3</ele>
      </trkpt>
      <trkpt lat="46.93962" lon="-2.05807">
        <ele>3</ele>
      </trkpt>
      <trkpt lat="46.93952" lon="-2.05827">
        <ele>3</ele>
      </trkpt>
      <trkpt lat="46.93938" lon="-2.05852">
        <ele>3</ele>
      </trkpt>
      <trkpt lat="46.93922" lon="-2.05873">
        <ele>3</ele>
      </trkpt>
      <trkpt lat="46.93911" lon="-2.05884">
        <ele>3</ele>
      </trkpt>
      <trkpt lat="46.93903" lon="-2.05894">
        <ele>3</ele>
      </trkpt>
      <trkpt lat="46.93881" lon="-2.05931">
        <ele>3</ele>
      </trkpt>
      <trkpt lat="46.93866" lon="-2.05957">
        <ele>3</ele>
      </trkpt>
      <trkpt lat="46.9385" lon="-2.05984">
        <ele>3</ele>
      </trkpt>
      <trkpt lat="46.93838" lon="-2.06005">
        <ele>3</ele>
      </trkpt>
      <trkpt lat="46.93817" lon="-2.06042">
        <ele>3</ele>
      </trkpt>
      <trkpt lat="46.93812" lon="-2.06056">
        <ele>3</ele>
      </trkpt>
      <trkpt lat="46.93808" lon="-2.06072">
        <ele>3</ele>
      </trkpt>
      <trkpt lat="46.93802" lon="-2.06106">
        <ele>3</ele>
      </trkpt>
      <trkpt lat="46.93797" lon="-2.06134">
        <ele>3</ele>
      </trkpt>
      <trkpt lat="46.9379" lon="-2.06175">
        <ele>3</ele>
      </trkpt>
      <trkpt lat="46.9378" lon="-2.06235">
        <ele>3</ele>
      </trkpt>
      <trkpt lat="46.93777" lon="-2.06259">
        <ele>3</ele>
      </trkpt>
      <trkpt lat="46.93772" lon="-2.06279">
        <ele>3</ele>
      </trkpt>
      <trkpt lat="46.93768" lon="-2.06316">
        <ele>3</ele>
      </trkpt>
      <trkpt lat="46.93766" lon="-2.06329">
        <ele>3</ele>
      </trkpt>
      <trkpt lat="46.93764" lon="-2.06354">
        <ele>3</ele>
      </trkpt>
      <trkpt lat="46.93762" lon="-2.06378">
        <ele>3</ele>
      </trkpt>
      <trkpt lat="46.93758" lon="-2.06405">
        <ele>3</ele>
      </trkpt>
      <trkpt lat="46.93756" lon="-2.06429">
        <ele>3</ele>
      </trkpt>
      <trkpt lat="46.93752" lon="-2.06455">
        <ele>3</ele>
      </trkpt>
      <trkpt lat="46.93747" lon="-2.06478">
        <ele>3</ele>
      </trkpt>
      <trkpt lat="46.93723" lon="-2.06539">
        <ele>3</ele>
      </trkpt>
      <trkpt lat="46.93709" lon="-2.06576">
        <ele>3</ele>
      </trkpt>
      <trkpt lat="46.9369" lon="-2.06626">
        <ele>3</ele>
      </trkpt>
      <trkpt lat="46.93678" lon="-2.06658">
        <ele>3</ele>
      </trkpt>
      <trkpt lat="46.93665" lon="-2.06689">
        <ele>3</ele>
      </trkpt>
      <trkpt lat="46.93655" lon="-2.06717">
        <ele>3</ele>
      </trkpt>
      <trkpt lat="46.93651" lon="-2.06737">
        <ele>3</ele>
      </trkpt>
      <trkpt lat="46.93647" lon="-2.06767">
        <ele>3</ele>
      </trkpt>
      <trkpt lat="46.93644" lon="-2.06795">
        <ele>3</ele>
      </trkpt>
      <trkpt lat="46.93639" lon="-2.06832">
        <ele>3</ele>
      </trkpt>
      <trkpt lat="46.93637" lon="-2.06863">
        <ele>3</ele>
      </trkpt>
      <trkpt lat="46.93635" lon="-2.06899">
        <ele>3</ele>
      </trkpt>
      <trkpt lat="46.93632" lon="-2.06932">
        <ele>3</ele>
      </trkpt>
      <trkpt lat="46.9363" lon="-2.06968">
        <ele>3</ele>
      </trkpt>
      <trkpt lat="46.93628" lon="-2.06997">
        <ele>3</ele>
      </trkpt>
      <trkpt lat="46.9363" lon="-2.07029">
        <ele>3</ele>
      </trkpt>
      <trkpt lat="46.93629" lon="-2.07039">
        <ele>3</ele>
      </trkpt>
      <trkpt lat="46.93622" lon="-2.07053">
        <ele>3</ele>
      </trkpt>
      <trkpt lat="46.93618" lon="-2.07061">
        <ele>3</ele>
      </trkpt>
      <trkpt lat="46.93601" lon="-2.07103">
        <ele>2.875</ele>
      </trkpt>
      <trkpt lat="46.9359" lon="-2.07098">
        <ele>2.97265625</ele>
      </trkpt>
      <trkpt lat="46.93575" lon="-2.0709">
        <ele>3</ele>
      </trkpt>
      <trkpt lat="46.93552" lon="-2.07087">
        <ele>3</ele>
      </trkpt>
      <trkpt lat="46.93529" lon="-2.07085">
        <ele>3</ele>
      </trkpt>
      <trkpt lat="46.93518" lon="-2.0708">
        <ele>3</ele>
      </trkpt>
      <trkpt lat="46.9351" lon="-2.07073">
        <ele>3</ele>
      </trkpt>
      <trkpt lat="46.93505" lon="-2.07078">
        <ele>3</ele>
      </trkpt>
      <trkpt lat="46.93503" lon="-2.07088">
        <ele>3</ele>
      </trkpt>
      <trkpt lat="46.93502" lon="-2.07092">
        <ele>3</ele>
      </trkpt>
      <trkpt lat="46.935" lon="-2.07099">
        <ele>3</ele>
      </trkpt>
      <trkpt lat="46.93497" lon="-2.07103">
        <ele>3</ele>
      </trkpt>
      <trkpt lat="46.93491" lon="-2.07111">
        <ele>3</ele>
      </trkpt>
      <trkpt lat="46.93485" lon="-2.07118">
        <ele>3</ele>
      </trkpt>
      <trkpt lat="46.93471" lon="-2.07127">
        <ele>3</ele>
      </trkpt>
      <trkpt lat="46.93459" lon="-2.07133">
        <ele>3</ele>
      </trkpt>
      <trkpt lat="46.93456" lon="-2.07135">
        <ele>3</ele>
      </trkpt>
      <trkpt lat="46.93413" lon="-2.07156">
        <ele>3</ele>
      </trkpt>
      <trkpt lat="46.93355" lon="-2.07182">
        <ele>3</ele>
      </trkpt>
      <trkpt lat="46.93285" lon="-2.07217">
        <ele>3</ele>
      </trkpt>
      <trkpt lat="46.9322" lon="-2.07245">
        <ele>3</ele>
      </trkpt>
      <trkpt lat="46.9315" lon="-2.07279">
        <ele>3</ele>
      </trkpt>
      <trkpt lat="46.93118" lon="-2.07294">
        <ele>3</ele>
      </trkpt>
      <trkpt lat="46.9311" lon="-2.07298">
        <ele>3</ele>
      </trkpt>
      <trkpt lat="46.93047" lon="-2.07327">
        <ele>3</ele>
      </trkpt>
      <trkpt lat="46.93039" lon="-2.07332">
        <ele>3</ele>
      </trkpt>
      <trkpt lat="46.93031" lon="-2.07335">
        <ele>3</ele>
      </trkpt>
      <trkpt lat="46.92965" lon="-2.07366">
        <ele>3</ele>
      </trkpt>
      <trkpt lat="46.92926" lon="-2.07383">
        <ele>3</ele>
      </trkpt>
      <trkpt lat="46.92894" lon="-2.07397">
        <ele>3</ele>
      </trkpt>
      <trkpt lat="46.9279" lon="-2.07444">
        <ele>3.234375</ele>
      </trkpt>
      <trkpt lat="46.92742" lon="-2.07465">
        <ele>3.46875</ele>
      </trkpt>
      <trkpt lat="46.92697" lon="-2.07487">
        <ele>3.9375</ele>
      </trkpt>
      <trkpt lat="46.92671" lon="-2.07501">
        <ele>3.84375</ele>
      </trkpt>
      <trkpt lat="46.92639" lon="-2.07517">
        <ele>4</ele>
      </trkpt>
      <trkpt lat="46.9262" lon="-2.07528">
        <ele>4</ele>
      </trkpt>
      <trkpt lat="46.9262" lon="-2.07534">
        <ele>4</ele>
      </trkpt>
      <trkpt lat="46.92619" lon="-2.07548">
        <ele>4</ele>
      </trkpt>
      <trkpt lat="46.92617" lon="-2.07563">
        <ele>4</ele>
      </trkpt>
      <trkpt lat="46.92614" lon="-2.07578">
        <ele>4</ele>
      </trkpt>
      <trkpt lat="46.92613" lon="-2.07583">
        <ele>4</ele>
      </trkpt>
      <trkpt lat="46.92609" lon="-2.07593">
        <ele>4</ele>
      </trkpt>
      <trkpt lat="46.92603" lon="-2.07604">
        <ele>4</ele>
      </trkpt>
      <trkpt lat="46.92594" lon="-2.07616">
        <ele>4</ele>
      </trkpt>
      <trkpt lat="46.92587" lon="-2.07623">
        <ele>4</ele>
      </trkpt>
      <trkpt lat="46.92578" lon="-2.07631">
        <ele>4</ele>
      </trkpt>
      <trkpt lat="46.92574" lon="-2.07636">
        <ele>4</ele>
      </trkpt>
      <trkpt lat="46.9257" lon="-2.07644">
        <ele>4</ele>
      </trkpt>
      <trkpt lat="46.92564" lon="-2.07667">
        <ele>4</ele>
      </trkpt>
      <trkpt lat="46.92561" lon="-2.07685">
        <ele>4</ele>
      </trkpt>
      <trkpt lat="46.92561" lon="-2.07704">
        <ele>4</ele>
      </trkpt>
      <trkpt lat="46.92561" lon="-2.0772">
        <ele>4</ele>
      </trkpt>
      <trkpt lat="46.92561" lon="-2.07741">
        <ele>4</ele>
      </trkpt>
      <trkpt lat="46.92561" lon="-2.07761">
        <ele>4</ele>
      </trkpt>
      <trkpt lat="46.92561" lon="-2.0778">
        <ele>4</ele>
      </trkpt>
      <trkpt lat="46.92563" lon="-2.07801">
        <ele>4</ele>
      </trkpt>
      <trkpt lat="46.92567" lon="-2.0782">
        <ele>3.9765625</ele>
      </trkpt>
      <trkpt lat="46.92571" lon="-2.07836">
        <ele>3.76171875</ele>
      </trkpt>
      <trkpt lat="46.92574" lon="-2.07845">
        <ele>3.6015625</ele>
      </trkpt>
      <trkpt lat="46.92573" lon="-2.07851">
        <ele>3.5390625</ele>
      </trkpt>
      <trkpt lat="46.9257" lon="-2.07859">
        <ele>3.4609375</ele>
      </trkpt>
      <trkpt lat="46.92563" lon="-2.0787">
        <ele>3.4296875</ele>
      </trkpt>
      <trkpt lat="46.9256" lon="-2.07881">
        <ele>3.453125</ele>
      </trkpt>
      <trkpt lat="46.92559" lon="-2.07888">
        <ele>3.47265625</ele>
      </trkpt>
      <trkpt lat="46.9256" lon="-2.07895">
        <ele>3.453125</ele>
      </trkpt>
      <trkpt lat="46.92563" lon="-2.07904">
        <ele>3.39453125</ele>
      </trkpt>
      <trkpt lat="46.92565" lon="-2.07914">
        <ele>3.359375</ele>
      </trkpt>
      <trkpt lat="46.92567" lon="-2.07922">
        <ele>3.33984375</ele>
      </trkpt>
      <trkpt lat="46.92565" lon="-2.07931">
        <ele>3.34375</ele>
      </trkpt>
      <trkpt lat="46.92562" lon="-2.0794">
        <ele>3.33203125</ele>
      </trkpt>
      <trkpt lat="46.92561" lon="-2.0795">
        <ele>3.2734375</ele>
      </trkpt>
      <trkpt lat="46.92561" lon="-2.07956">
        <ele>3.22265625</ele>
      </trkpt>
      <trkpt lat="46.92565" lon="-2.0796">
        <ele>3.15625</ele>
      </trkpt>
      <trkpt lat="46.92554" lon="-2.07967">
        <ele>3.18359375</ele>
      </trkpt>
      <trkpt lat="46.92541" lon="-2.07971">
        <ele>3.1953125</ele>
      </trkpt>
      <trkpt lat="46.9253" lon="-2.07981">
        <ele>3.06640625</ele>
      </trkpt>
      <trkpt lat="46.92517" lon="-2.07987">
        <ele>3</ele>
      </trkpt>
      <trkpt lat="46.9247" lon="-2.08015">
        <ele>3.03515625</ele>
      </trkpt>
      <trkpt lat="46.92458" lon="-2.08024">
        <ele>3.0859375</ele>
      </trkpt>
      <trkpt lat="46.92446" lon="-2.08033">
        <ele>3.0625</ele>
      </trkpt>
      <trkpt lat="46.92433" lon="-2.08045">
        <ele>3</ele>
      </trkpt>
      <trkpt lat="46.92422" lon="-2.08056">
        <ele>3</ele>
      </trkpt>
      <trkpt lat="46.92408" lon="-2.08065">
        <ele>3</ele>
      </trkpt>
      <trkpt lat="46.9238" lon="-2.08077">
        <ele>3</ele>
      </trkpt>
      <trkpt lat="46.92343" lon="-2.08097">
        <ele>3</ele>
      </trkpt>
      <trkpt lat="46.92323" lon="-2.08109">
        <ele>3</ele>
      </trkpt>
      <trkpt lat="46.923" lon="-2.08123">
        <ele>3</ele>
      </trkpt>
      <trkpt lat="46.92288" lon="-2.08134">
        <ele>3</ele>
      </trkpt>
      <trkpt lat="46.92283" lon="-2.08135">
        <ele>3</ele>
      </trkpt>
      <trkpt lat="46.9228" lon="-2.08136">
        <ele>3</ele>
      </trkpt>
      <trkpt lat="46.92273" lon="-2.08135">
        <ele>3</ele>
      </trkpt>
      <trkpt lat="46.92265" lon="-2.08135">
        <ele>3</ele>
      </trkpt>
      <trkpt lat="46.9226" lon="-2.08136">
        <ele>3</ele>
      </trkpt>
      <trkpt lat="46.9224" lon="-2.08146">
        <ele>3</ele>
      </trkpt>
      <trkpt lat="46.92229" lon="-2.0815">
        <ele>3</ele>
      </trkpt>
      <trkpt lat="46.9222" lon="-2.08151">
        <ele>3</ele>
      </trkpt>
      <trkpt lat="46.92175" lon="-2.08159">
        <ele>3</ele>
      </trkpt>
      <trkpt lat="46.92158" lon="-2.08164">
        <ele>3</ele>
      </trkpt>
      <trkpt lat="46.9214" lon="-2.08171">
        <ele>3.01953125</ele>
      </trkpt>
      <trkpt lat="46.92126" lon="-2.08176">
        <ele>3.15625</ele>
      </trkpt>
      <trkpt lat="46.92114" lon="-2.08182">
        <ele>3.21484375</ele>
      </trkpt>
      <trkpt lat="46.92106" lon="-2.08184">
        <ele>3.25</ele>
      </trkpt>
      <trkpt lat="46.92097" lon="-2.08187">
        <ele>3.28515625</ele>
      </trkpt>
      <trkpt lat="46.92086" lon="-2.0819">
        <ele>3.296875</ele>
      </trkpt>
      <trkpt lat="46.92075" lon="-2.08192">
        <ele>3.26171875</ele>
      </trkpt>
      <trkpt lat="46.92064" lon="-2.08192">
        <ele>3.26171875</ele>
      </trkpt>
      <trkpt lat="46.92061" lon="-2.08192">
        <ele>3.265625</ele>
      </trkpt>
      <trkpt lat="46.9205" lon="-2.08191">
        <ele>3.28125</ele>
      </trkpt>
      <trkpt lat="46.9204" lon="-2.08189">
        <ele>3.3203125</ele>
      </trkpt>
      <trkpt lat="46.9203" lon="-2.08184">
        <ele>3.39453125</ele>
      </trkpt>
      <trkpt lat="46.92023" lon="-2.08178">
        <ele>3.44140625</ele>
      </trkpt>
      <trkpt lat="46.92017" lon="-2.08169">
        <ele>3.51171875</ele>
      </trkpt>
      <trkpt lat="46.92008" lon="-2.0814">
        <ele>3.671875</ele>
      </trkpt>
      <trkpt lat="46.92003" lon="-2.08127">
        <ele>3.73046875</ele>
      </trkpt>
      <trkpt lat="46.91999" lon="-2.08118">
        <ele>3.7734375</ele>
      </trkpt>
      <trkpt lat="46.91993" lon="-2.08109">
        <ele>3.83203125</ele>
      </trkpt>
      <trkpt lat="46.91985" lon="-2.08102">
        <ele>3.90625</ele>
      </trkpt>
      <trkpt lat="46.91979" lon="-2.08097">
        <ele>3.98046875</ele>
      </trkpt>
      <trkpt lat="46.91968" lon="-2.08093">
        <ele>3.8828125</ele>
      </trkpt>
      <trkpt lat="46.91955" lon="-2.08093">
        <ele>3.66015625</ele>
      </trkpt>
      <trkpt lat="46.91943" lon="-2.0809">
        <ele>3.48828125</ele>
      </trkpt>
      <trkpt lat="46.91937" lon="-2.08085">
        <ele>3.44921875</ele>
      </trkpt>
      <trkpt lat="46.91926" lon="-2.08077">
        <ele>3.4140625</ele>
      </trkpt>
      <trkpt lat="46.91923" lon="-2.08088">
        <ele>3.1953125</ele>
      </trkpt>
      <trkpt lat="46.91911" lon="-2.08118">
        <ele>3</ele>
      </trkpt>
      <trkpt lat="46.91905" lon="-2.08136">
        <ele>3</ele>
      </trkpt>
      <trkpt lat="46.919" lon="-2.08148">
        <ele>3</ele>
      </trkpt>
      <trkpt lat="46.91887" lon="-2.08177">
        <ele>3</ele>
      </trkpt>
      <trkpt lat="46.91918" lon="-2.08207">
        <ele>3</ele>
      </trkpt>
      <trkpt lat="46.91939" lon="-2.08227">
        <ele>3</ele>
      </trkpt>
      <trkpt lat="46.91955" lon="-2.08251">
        <ele>3</ele>
      </trkpt>
      <trkpt lat="46.91969" lon="-2.08276">
        <ele>3</ele>
      </trkpt>
      <trkpt lat="46.9198" lon="-2.08299">
        <ele>3</ele>
      </trkpt>
      <trkpt lat="46.9199" lon="-2.08333">
        <ele>3</ele>
      </trkpt>
      <trkpt lat="46.92" lon="-2.08365">
        <ele>3</ele>
      </trkpt>
      <trkpt lat="46.92011" lon="-2.08397">
        <ele>3</ele>
      </trkpt>
      <trkpt lat="46.92033" lon="-2.08471">
        <ele>3</ele>
      </trkpt>
      <trkpt lat="46.92045" lon="-2.08507">
        <ele>3</ele>
      </trkpt>
      <trkpt lat="46.92053" lon="-2.08533">
        <ele>3</ele>
      </trkpt>
      <trkpt lat="46.92061" lon="-2.08566">
        <ele>3</ele>
      </trkpt>
      <trkpt lat="46.92068" lon="-2.08602">
        <ele>3</ele>
      </trkpt>
      <trkpt lat="46.92074" lon="-2.08645">
        <ele>3</ele>
      </trkpt>
      <trkpt lat="46.92079" lon="-2.08686">
        <ele>3</ele>
      </trkpt>
      <trkpt lat="46.92086" lon="-2.08731">
        <ele>3</ele>
      </trkpt>
      <trkpt lat="46.9209" lon="-2.08763">
        <ele>3</ele>
      </trkpt>
      <trkpt lat="46.92098" lon="-2.08814">
        <ele>3</ele>
      </trkpt>
      <trkpt lat="46.92111" lon="-2.08912">
        <ele>3</ele>
      </trkpt>
      <trkpt lat="46.92118" lon="-2.08966">
        <ele>3</ele>
      </trkpt>
      <trkpt lat="46.92124" lon="-2.09008">
        <ele>3</ele>
      </trkpt>
      <trkpt lat="46.92137" lon="-2.091">
        <ele>3</ele>
      </trkpt>
      <trkpt lat="46.92141" lon="-2.09123">
        <ele>3</ele>
      </trkpt>
      <trkpt lat="46.92142" lon="-2.09129">
        <ele>3</ele>
      </trkpt>
      <trkpt lat="46.92144" lon="-2.09146">
        <ele>3</ele>
      </trkpt>
      <trkpt lat="46.92148" lon="-2.0917">
        <ele>3</ele>
      </trkpt>
      <trkpt lat="46.92151" lon="-2.09199">
        <ele>3</ele>
      </trkpt>
      <trkpt lat="46.92155" lon="-2.09223">
        <ele>3</ele>
      </trkpt>
      <trkpt lat="46.92157" lon="-2.09243">
        <ele>3</ele>
      </trkpt>
      <trkpt lat="46.92157" lon="-2.09257">
        <ele>3</ele>
      </trkpt>
      <trkpt lat="46.92157" lon="-2.0927">
        <ele>3</ele>
      </trkpt>
      <trkpt lat="46.92152" lon="-2.09295">
        <ele>3</ele>
      </trkpt>
      <trkpt lat="46.92144" lon="-2.09325">
        <ele>3</ele>
      </trkpt>
      <trkpt lat="46.9213" lon="-2.09367">
        <ele>3</ele>
      </trkpt>
      <trkpt lat="46.9212" lon="-2.09393">
        <ele>3</ele>
      </trkpt>
      <trkpt lat="46.92112" lon="-2.09418">
        <ele>3</ele>
      </trkpt>
      <trkpt lat="46.92107" lon="-2.09432">
        <ele>3</ele>
      </trkpt>
      <trkpt lat="46.92106" lon="-2.09438">
        <ele>3</ele>
      </trkpt>
      <trkpt lat="46.92101" lon="-2.09455">
        <ele>3</ele>
      </trkpt>
      <trkpt lat="46.92094" lon="-2.09484">
        <ele>3</ele>
      </trkpt>
      <trkpt lat="46.92087" lon="-2.09525">
        <ele>3</ele>
      </trkpt>
      <trkpt lat="46.92076" lon="-2.0957">
        <ele>3</ele>
      </trkpt>
      <trkpt lat="46.92058" lon="-2.09655">
        <ele>3</ele>
      </trkpt>
      <trkpt lat="46.92047" lon="-2.09705">
        <ele>3</ele>
      </trkpt>
      <trkpt lat="46.92038" lon="-2.09751">
        <ele>3</ele>
      </trkpt>
      <trkpt lat="46.92026" lon="-2.09803">
        <ele>3</ele>
      </trkpt>
      <trkpt lat="46.92016" lon="-2.09852">
        <ele>3</ele>
      </trkpt>
      <trkpt lat="46.92008" lon="-2.09886">
        <ele>3</ele>
      </trkpt>
      <trkpt lat="46.91986" lon="-2.09987">
        <ele>3</ele>
      </trkpt>
      <trkpt lat="46.91985" lon="-2.09989">
        <ele>3</ele>
      </trkpt>
      <trkpt lat="46.91985" lon="-2.09992">
        <ele>2</ele>
      </trkpt>
      <trkpt lat="46.91976" lon="-2.10033">
        <ele>2</ele>
      </trkpt>
      <trkpt lat="46.91972" lon="-2.10066">
        <ele>2.4</ele>
      </trkpt>
      <trkpt lat="46.91971" lon="-2.10088">
        <ele>3</ele>
      </trkpt>
      <trkpt lat="46.91972" lon="-2.10101">
        <ele>3</ele>
      </trkpt>
      <trkpt lat="46.91977" lon="-2.10129">
        <ele>2.8</ele>
      </trkpt>
      <trkpt lat="46.91981" lon="-2.10144">
        <ele>2.6</ele>
      </trkpt>
      <trkpt lat="46.91988" lon="-2.1016">
        <ele>2.5</ele>
      </trkpt>
      <trkpt lat="46.92005" lon="-2.10195">
        <ele>3</ele>
      </trkpt>
      <trkpt lat="46.92041" lon="-2.1026">
        <ele>2.7</ele>
      </trkpt>
      <trkpt lat="46.92092" lon="-2.10357">
        <ele>3.9</ele>
      </trkpt>
      <trkpt lat="46.9201" lon="-2.10197">
        <ele>3</ele>
      </trkpt>
      <trkpt lat="46.9203" lon="-2.10236">
        <ele>3</ele>
      </trkpt>
      <trkpt lat="46.92046" lon="-2.10265">
        <ele>3</ele>
      </trkpt>
      <trkpt lat="46.92061" lon="-2.10293">
        <ele>3</ele>
      </trkpt>
      <trkpt lat="46.92073" lon="-2.10315">
        <ele>3</ele>
      </trkpt>
      <trkpt lat="46.92082" lon="-2.10333">
        <ele>3</ele>
      </trkpt>
      <trkpt lat="46.92089" lon="-2.10346">
        <ele>3</ele>
      </trkpt>
      <trkpt lat="46.92096" lon="-2.10358">
        <ele>3</ele>
      </trkpt>
      <trkpt lat="46.92103" lon="-2.1037">
        <ele>3</ele>
      </trkpt>
      <trkpt lat="46.92123" lon="-2.10405">
        <ele>2.58984375</ele>
      </trkpt>
      <trkpt lat="46.92142" lon="-2.10441">
        <ele>2</ele>
      </trkpt>
      <trkpt lat="46.92161" lon="-2.1048">
        <ele>2</ele>
      </trkpt>
      <trkpt lat="46.92181" lon="-2.10519">
        <ele>2</ele>
      </trkpt>
      <trkpt lat="46.92201" lon="-2.10556">
        <ele>2</ele>
      </trkpt>
      <trkpt lat="46.92229" lon="-2.10608">
        <ele>2</ele>
      </trkpt>
      <trkpt lat="46.9224" lon="-2.10633">
        <ele>2</ele>
      </trkpt>
      <trkpt lat="46.92251" lon="-2.10653">
        <ele>1.93359375</ele>
      </trkpt>
      <trkpt lat="46.92265" lon="-2.10677">
        <ele>1.5078125</ele>
      </trkpt>
      <trkpt lat="46.92281" lon="-2.10701">
        <ele>1.0625</ele>
      </trkpt>
      <trkpt lat="46.92297" lon="-2.10729">
        <ele>1</ele>
      </trkpt>
      <trkpt lat="46.92314" lon="-2.10755">
        <ele>1</ele>
      </trkpt>
      <trkpt lat="46.92332" lon="-2.10779">
        <ele>1</ele>
      </trkpt>
      <trkpt lat="46.92349" lon="-2.108">
        <ele>1</ele>
      </trkpt>
      <trkpt lat="46.92364" lon="-2.10821">
        <ele>1</ele>
      </trkpt>
      <trkpt lat="46.924" lon="-2.10871">
        <ele>0.33984375</ele>
      </trkpt>
      <trkpt lat="46.92421" lon="-2.10901">
        <ele>1</ele>
      </trkpt>
      <trkpt lat="46.92442" lon="-2.10935">
      </trkpt>
      <trkpt lat="46.92468" lon="-2.10973">
      </trkpt>
      <trkpt lat="46.92494" lon="-2.11012">
      </trkpt>
      <trkpt lat="46.92524" lon="-2.11056">
      </trkpt>
      <trkpt lat="46.9255" lon="-2.11097">
      </trkpt>
      <trkpt lat="46.92575" lon="-2.11136">
      </trkpt>
      <trkpt lat="46.92604" lon="-2.1118">
      </trkpt>
      <trkpt lat="46.92628" lon="-2.11216">
      </trkpt>
      <trkpt lat="46.92647" lon="-2.11242">
      </trkpt>
      <trkpt lat="46.92721" lon="-2.11354">
      </trkpt>
      <trkpt lat="46.92759" lon="-2.11412">
      </trkpt>
      <trkpt lat="46.92761" lon="-2.11415">
      </trkpt>
      <trkpt lat="46.92764" lon="-2.11428">
      </trkpt>
      <trkpt lat="46.92774" lon="-2.11458">
      </trkpt>
      <trkpt lat="46.92811" lon="-2.1158">
      </trkpt>
      <trkpt lat="46.92907" lon="-2.1189">
      </trkpt>
      <trkpt lat="46.92939" lon="-2.11996">
      </trkpt>
      <trkpt lat="46.92967" lon="-2.12091">
      </trkpt>
      <trkpt lat="46.92996" lon="-2.12184">
      </trkpt>
      <trkpt lat="46.93029" lon="-2.12291">
      </trkpt>
      <trkpt lat="46.93074" lon="-2.12437">
      </trkpt>
      <trkpt lat="46.93105" lon="-2.12541">
      </trkpt>
      <trkpt lat="46.9315" lon="-2.12688">
      </trkpt>
      <trkpt lat="46.93202" lon="-2.12859">
      </trkpt>
      <trkpt lat="46.93247" lon="-2.13004">
      </trkpt>
      <trkpt lat="46.93287" lon="-2.1314">
      </trkpt>
      <trkpt lat="46.93321" lon="-2.13247">
      </trkpt>
      <trkpt lat="46.93355" lon="-2.13361">
      </trkpt>
      <trkpt lat="46.93382" lon="-2.13453">
      </trkpt>
      <trkpt lat="46.93384" lon="-2.13465">
      </trkpt>
      <trkpt lat="46.93385" lon="-2.13473">
      </trkpt>
      <trkpt lat="46.93386" lon="-2.13488">
      </trkpt>
      <trkpt lat="46.93386" lon="-2.13518">
      </trkpt>
      <trkpt lat="46.93387" lon="-2.13594">
      </trkpt>
      <trkpt lat="46.93388" lon="-2.13712">
      </trkpt>
      <trkpt lat="46.93387" lon="-2.13847">
      </trkpt>
      <trkpt lat="46.93388" lon="-2.14019">
      </trkpt>
      <trkpt lat="46.93387" lon="-2.14709">
        <ele>1</ele>
      </trkpt>
      <trkpt lat="46.93388" lon="-2.14738">
        <ele>1</ele>
      </trkpt>
      <trkpt lat="46.93386" lon="-2.14749">
        <ele>1</ele>
      </trkpt>
      <trkpt lat="46.93383" lon="-2.14772">
        <ele>2.2</ele>
      </trkpt>
      <trkpt lat="46.93375" lon="-2.14801">
        <ele>2</ele>
      </trkpt>
      <trkpt lat="46.93372" lon="-2.14812">
        <ele>1.8</ele>
      </trkpt>
      <trkpt lat="46.93359" lon="-2.14852">
        <ele>0.66015625</ele>
      </trkpt>
      <trkpt lat="46.93336" lon="-2.1493">
        <ele>0.5625</ele>
      </trkpt>
      <trkpt lat="46.93301" lon="-2.15038">
        <ele>1</ele>
      </trkpt>
      <trkpt lat="46.93242" lon="-2.15222">
        <ele>1</ele>
      </trkpt>
      <trkpt lat="46.93218" lon="-2.15293">
        <ele>1</ele>
      </trkpt>
      <trkpt lat="46.93215" lon="-2.1531">
        <ele>1</ele>
      </trkpt>
      <trkpt lat="46.93215" lon="-2.15323">
        <ele>1</ele>
      </trkpt>
      <trkpt lat="46.93215" lon="-2.15353">
        <ele>1</ele>
      </trkpt>
      <trkpt lat="46.93216" lon="-2.15424">
        <ele>1</ele>
      </trkpt>
      <trkpt lat="46.93203" lon="-2.15431">
        <ele>1</ele>
      </trkpt>
      <trkpt lat="46.93184" lon="-2.15435">
        <ele>1</ele>
      </trkpt>
      <trkpt lat="46.93188" lon="-2.15435">
        <ele>1</ele>
      </trkpt>
      <trkpt lat="46.93184" lon="-2.15435">
        <ele>1</ele>
      </trkpt>
      <trkpt lat="46.93203" lon="-2.15431">
        <ele>1</ele>
      </trkpt>
      <trkpt lat="46.93216" lon="-2.15424">
        <ele>1</ele>
      </trkpt>
      <trkpt lat="46.93216" lon="-2.15437">
        <ele>1</ele>
      </trkpt>
      <trkpt lat="46.93227" lon="-2.15436">
        <ele>1</ele>
      </trkpt>
      <trkpt lat="46.93277" lon="-2.15447">
        <ele>1</ele>
      </trkpt>
      <trkpt lat="46.93337" lon="-2.15462">
        <ele>1</ele>
      </trkpt>
      <trkpt lat="46.93437" lon="-2.15485">
        <ele>1</ele>
      </trkpt>
      <trkpt lat="46.93444" lon="-2.15487">
        <ele>1</ele>
      </trkpt>
      <trkpt lat="46.93448" lon="-2.15489">
        <ele>1</ele>
      </trkpt>
      <trkpt lat="46.93454" lon="-2.15497">
        <ele>1</ele>
      </trkpt>
      <trkpt lat="46.93461" lon="-2.15506">
        <ele>1</ele>
      </trkpt>
      <trkpt lat="46.93472" lon="-2.1551">
        <ele>1</ele>
      </trkpt>
      <trkpt lat="46.93483" lon="-2.15517">
        <ele>1</ele>
      </trkpt>
      <trkpt lat="46.93503" lon="-2.15532">
        <ele>1</ele>
      </trkpt>
      <trkpt lat="46.93514" lon="-2.15539">
        <ele>1</ele>
      </trkpt>
      <trkpt lat="46.93525" lon="-2.15553">
        <ele>1</ele>
      </trkpt>
      <trkpt lat="46.93545" lon="-2.15577">
        <ele>1</ele>
      </trkpt>
      <trkpt lat="46.93566" lon="-2.15605">
        <ele>1</ele>
      </trkpt>
      <trkpt lat="46.9359" lon="-2.15638">
        <ele>1</ele>
      </trkpt>
      <trkpt lat="46.936" lon="-2.15651">
        <ele>1</ele>
      </trkpt>
      <trkpt lat="46.93605" lon="-2.1566">
        <ele>1</ele>
      </trkpt>
      <trkpt lat="46.93616" lon="-2.15669">
        <ele>1</ele>
      </trkpt>
      <trkpt lat="46.93639" lon="-2.15689">
        <ele>1</ele>
      </trkpt>
      <trkpt lat="46.9365" lon="-2.157">
        <ele>1</ele>
      </trkpt>
      <trkpt lat="46.93666" lon="-2.15709">
        <ele>1</ele>
      </trkpt>
      <trkpt lat="46.93681" lon="-2.15719">
        <ele>1</ele>
      </trkpt>
      <trkpt lat="46.93698" lon="-2.15731">
        <ele>1</ele>
      </trkpt>
      <trkpt lat="46.93725" lon="-2.15746">
        <ele>1</ele>
      </trkpt>
      <trkpt lat="46.93734" lon="-2.15752">
        <ele>1</ele>
      </trkpt>
      <trkpt lat="46.93754" lon="-2.15759">
        <ele>1</ele>
      </trkpt>
      <trkpt lat="46.9377" lon="-2.15771">
        <ele>1</ele>
      </trkpt>
      <trkpt lat="46.93808" lon="-2.15798">
        <ele>1</ele>
      </trkpt>
      <trkpt lat="46.93806" lon="-2.15805">
        <ele>1</ele>
      </trkpt>
      <trkpt lat="46.93808" lon="-2.15798">
        <ele>1</ele>
      </trkpt>
      <trkpt lat="46.93815" lon="-2.15803">
        <ele>1</ele>
      </trkpt>
      <trkpt lat="46.93838" lon="-2.15817">
        <ele>1</ele>
      </trkpt>
      <trkpt lat="46.93849" lon="-2.15826">
        <ele>1</ele>
      </trkpt>
      <trkpt lat="46.93854" lon="-2.15831">
        <ele>1</ele>
      </trkpt>
      <trkpt lat="46.93865" lon="-2.15835">
        <ele>1</ele>
      </trkpt>
      <trkpt lat="46.9387" lon="-2.15838">
        <ele>1</ele>
      </trkpt>
      <trkpt lat="46.93879" lon="-2.15847">
        <ele>1</ele>
      </trkpt>
      <trkpt lat="46.93884" lon="-2.15847">
        <ele>1</ele>
      </trkpt>
      <trkpt lat="46.93889" lon="-2.15851">
        <ele>1</ele>
      </trkpt>
      <trkpt lat="46.93907" lon="-2.15865">
        <ele>1</ele>
      </trkpt>
      <trkpt lat="46.93914" lon="-2.15873">
        <ele>1</ele>
      </trkpt>
      <trkpt lat="46.93925" lon="-2.1588">
        <ele>1</ele>
      </trkpt>
      <trkpt lat="46.93967" lon="-2.15912">
        <ele>1</ele>
      </trkpt>
      <trkpt lat="46.93975" lon="-2.15918">
        <ele>1</ele>
      </trkpt>
      <trkpt lat="46.93987" lon="-2.15925">
        <ele>1</ele>
      </trkpt>
      <trkpt lat="46.94021" lon="-2.15943">
        <ele>1</ele>
      </trkpt>
      <trkpt lat="46.94042" lon="-2.15953">
        <ele>1</ele>
      </trkpt>
      <trkpt lat="46.94054" lon="-2.15958">
        <ele>1</ele>
      </trkpt>
      <trkpt lat="46.94062" lon="-2.15969">
        <ele>1</ele>
      </trkpt>
      <trkpt lat="46.94081" lon="-2.15986">
        <ele>1</ele>
      </trkpt>
      <trkpt lat="46.94102" lon="-2.16">
        <ele>1</ele>
      </trkpt>
      <trkpt lat="46.94114" lon="-2.16007">
        <ele>1</ele>
      </trkpt>
      <trkpt lat="46.94122" lon="-2.16009">
        <ele>1</ele>
      </trkpt>
      <trkpt lat="46.94129" lon="-2.1601">
        <ele>1</ele>
      </trkpt>
      <trkpt lat="46.94139" lon="-2.16019">
        <ele>1</ele>
      </trkpt>
      <trkpt lat="46.9415" lon="-2.16024">
        <ele>1</ele>
      </trkpt>
      <trkpt lat="46.94175" lon="-2.16037">
        <ele>1</ele>
      </trkpt>
      <trkpt lat="46.94192" lon="-2.16045">
        <ele>1</ele>
      </trkpt>
      <trkpt lat="46.94202" lon="-2.16049">
        <ele>1</ele>
      </trkpt>
      <trkpt lat="46.94208" lon="-2.16049">
        <ele>1</ele>
      </trkpt>
      <trkpt lat="46.94214" lon="-2.16047">
        <ele>1</ele>
      </trkpt>
      <trkpt lat="46.94219" lon="-2.16041">
        <ele>1</ele>
      </trkpt>
      <trkpt lat="46.94221" lon="-2.16034">
        <ele>1</ele>
      </trkpt>
      <trkpt lat="46.94224" lon="-2.16022">
        <ele>1</ele>
      </trkpt>
      <trkpt lat="46.94231" lon="-2.1599">
        <ele>1</ele>
      </trkpt>
      <trkpt lat="46.94235" lon="-2.1597">
        <ele>1</ele>
      </trkpt>
      <trkpt lat="46.94237" lon="-2.15966">
        <ele>1</ele>
      </trkpt>
      <trkpt lat="46.9424" lon="-2.15962">
        <ele>1</ele>
      </trkpt>
      <trkpt lat="46.94245" lon="-2.15961">
        <ele>1</ele>
      </trkpt>
      <trkpt lat="46.94286" lon="-2.15955">
        <ele>1</ele>
      </trkpt>
      <trkpt lat="46.94316" lon="-2.15954">
        <ele>1</ele>
      </trkpt>
      <trkpt lat="46.94327" lon="-2.15953">
        <ele>1</ele>
      </trkpt>
      <trkpt lat="46.94338" lon="-2.15953">
        <ele>1</ele>
      </trkpt>
      <trkpt lat="46.94374" lon="-2.15948">
        <ele>1</ele>
      </trkpt>
      <trkpt lat="46.94397" lon="-2.15945">
        <ele>1</ele>
      </trkpt>
      <trkpt lat="46.94411" lon="-2.15945">
        <ele>1</ele>
      </trkpt>
      <trkpt lat="46.94425" lon="-2.15943">
        <ele>1</ele>
      </trkpt>
      <trkpt lat="46.94435" lon="-2.15941">
        <ele>1</ele>
      </trkpt>
      <trkpt lat="46.94441" lon="-2.15941">
        <ele>1</ele>
      </trkpt>
      <trkpt lat="46.9445" lon="-2.15944">
        <ele>1</ele>
      </trkpt>
      <trkpt lat="46.94469" lon="-2.15952">
        <ele>1</ele>
      </trkpt>
      <trkpt lat="46.94487" lon="-2.15962">
        <ele>1</ele>
      </trkpt>
      <trkpt lat="46.94516" lon="-2.15973">
        <ele>1</ele>
      </trkpt>
      <trkpt lat="46.94559" lon="-2.15992">
        <ele>1</ele>
      </trkpt>
      <trkpt lat="46.94575" lon="-2.15998">
        <ele>1</ele>
      </trkpt>
      <trkpt lat="46.94572" lon="-2.16015">
        <ele>1</ele>
      </trkpt>
      <trkpt lat="46.94575" lon="-2.15998">
        <ele>1</ele>
      </trkpt>
      <trkpt lat="46.94599" lon="-2.16007">
        <ele>1</ele>
      </trkpt>
      <trkpt lat="46.9464" lon="-2.16025">
        <ele>1</ele>
      </trkpt>
      <trkpt lat="46.9469" lon="-2.16048">
        <ele>1</ele>
      </trkpt>
      <trkpt lat="46.94723" lon="-2.16065">
        <ele>1</ele>
      </trkpt>
      <trkpt lat="46.94794" lon="-2.16097">
        <ele>1</ele>
      </trkpt>
      <trkpt lat="46.9485" lon="-2.1612">
        <ele>1</ele>
      </trkpt>
      <trkpt lat="46.94883" lon="-2.16132">
        <ele>1</ele>
      </trkpt>
      <trkpt lat="46.94908" lon="-2.16142">
        <ele>1</ele>
      </trkpt>
      <trkpt lat="46.94921" lon="-2.16155">
        <ele>1</ele>
      </trkpt>
      <trkpt lat="46.9494" lon="-2.16185">
        <ele>1</ele>
      </trkpt>
      <trkpt lat="46.94944" lon="-2.16198">
        <ele>1</ele>
      </trkpt>
      <trkpt lat="46.94946" lon="-2.16224">
        <ele>1.20703125</ele>
      </trkpt>
      <trkpt lat="46.94948" lon="-2.16238">
        <ele>1.36328125</ele>
      </trkpt>
      <trkpt lat="46.9495" lon="-2.16243">
        <ele>1.4453125</ele>
      </trkpt>
      <trkpt lat="46.94962" lon="-2.16242">
        <ele>1.58984375</ele>
      </trkpt>
      <trkpt lat="46.94974" lon="-2.16239">
        <ele>1.66796875</ele>
      </trkpt>
      <trkpt lat="46.94979" lon="-2.16239">
        <ele>1.66796875</ele>
      </trkpt>
      <trkpt lat="46.94983" lon="-2.1624">
        <ele>1.6875</ele>
      </trkpt>
      <trkpt lat="46.94994" lon="-2.1625">
        <ele>1.87890625</ele>
      </trkpt>
      <trkpt lat="46.95005" lon="-2.16269">
        <ele>2</ele>
      </trkpt>
      <trkpt lat="46.95014" lon="-2.16295">
        <ele>2</ele>
      </trkpt>
      <trkpt lat="46.95022" lon="-2.16305">
        <ele>2</ele>
      </trkpt>
      <trkpt lat="46.95038" lon="-2.16315">
        <ele>2</ele>
      </trkpt>
      <trkpt lat="46.95062" lon="-2.16328">
        <ele>2</ele>
      </trkpt>
      <trkpt lat="46.9509" lon="-2.16344">
        <ele>2</ele>
      </trkpt>
      <trkpt lat="46.95101" lon="-2.16348">
        <ele>2</ele>
      </trkpt>
      <trkpt lat="46.95108" lon="-2.16353">
        <ele>2</ele>
      </trkpt>
      <trkpt lat="46.95106" lon="-2.16361">
        <ele>2</ele>
      </trkpt>
      <trkpt lat="46.95109" lon="-2.16354">
        <ele>2</ele>
      </trkpt>
      <trkpt lat="46.95119" lon="-2.16364">
        <ele>2</ele>
      </trkpt>
      <trkpt lat="46.95123" lon="-2.16372">
        <ele>2</ele>
      </trkpt>
      <trkpt lat="46.95125" lon="-2.16378">
        <ele>2</ele>
      </trkpt>
      <trkpt lat="46.95125" lon="-2.16392">
        <ele>2</ele>
      </trkpt>
      <trkpt lat="46.95123" lon="-2.16418">
        <ele>2</ele>
      </trkpt>
      <trkpt lat="46.95124" lon="-2.16433">
        <ele>2</ele>
      </trkpt>
      <trkpt lat="46.95124" lon="-2.16439">
        <ele>2</ele>
      </trkpt>
      <trkpt lat="46.95132" lon="-2.16436">
        <ele>2</ele>
      </trkpt>
      <trkpt lat="46.95146" lon="-2.16427">
        <ele>2</ele>
      </trkpt>
      <trkpt lat="46.95164" lon="-2.16419">
        <ele>2</ele>
      </trkpt>
      <trkpt lat="46.95179" lon="-2.16412">
        <ele>2</ele>
      </trkpt>
      <trkpt lat="46.95195" lon="-2.16397">
        <ele>2.00390625</ele>
      </trkpt>
      <trkpt lat="46.95208" lon="-2.16383">
        <ele>2.17578125</ele>
      </trkpt>
      <trkpt lat="46.95212" lon="-2.16391">
        <ele>2.18359375</ele>
      </trkpt>
      <trkpt lat="46.95208" lon="-2.16383">
        <ele>2.17578125</ele>
      </trkpt>
      <trkpt lat="46.95233" lon="-2.16358">
        <ele>2.6796875</ele>
      </trkpt>
      <trkpt lat="46.95261" lon="-2.1633">
        <ele>3</ele>
      </trkpt>
      <trkpt lat="46.95282" lon="-2.16309">
        <ele>3.03125</ele>
      </trkpt>
      <trkpt lat="46.95285" lon="-2.16316">
        <ele>3</ele>
      </trkpt>
      <trkpt lat="46.95282" lon="-2.16309">
        <ele>3.03125</ele>
      </trkpt>
      <trkpt lat="46.9531" lon="-2.16367">
        <ele>2.9296875</ele>
      </trkpt>
      <trkpt lat="46.95362" lon="-2.16477">
        <ele>2</ele>
      </trkpt>
      <trkpt lat="46.95425" lon="-2.1661">
        <ele>2</ele>
      </trkpt>
      <trkpt lat="46.95441" lon="-2.16643">
        <ele>2</ele>
      </trkpt>
      <trkpt lat="46.95453" lon="-2.16666">
        <ele>2.12890625</ele>
      </trkpt>
      <trkpt lat="46.9546" lon="-2.16681">
        <ele>2.140625</ele>
      </trkpt>
      <trkpt lat="46.95463" lon="-2.16689">
        <ele>2.12890625</ele>
      </trkpt>
      <trkpt lat="46.95468" lon="-2.167">
        <ele>2.0859375</ele>
      </trkpt>
      <trkpt lat="46.95481" lon="-2.16727">
        <ele>2</ele>
      </trkpt>
      <trkpt lat="46.95468" lon="-2.167">
        <ele>2.0859375</ele>
      </trkpt>
      <trkpt lat="46.95486" lon="-2.16738">
        <ele>2</ele>
      </trkpt>
      <trkpt lat="46.955" lon="-2.16773">
        <ele>2</ele>
      </trkpt>
      <trkpt lat="46.95519" lon="-2.16814">
        <ele>2</ele>
      </trkpt>
      <trkpt lat="46.95532" lon="-2.16845">
        <ele>2</ele>
      </trkpt>
      <trkpt lat="46.95552" lon="-2.16897">
        <ele>2</ele>
      </trkpt>
      <trkpt lat="46.95577" lon="-2.16963">
        <ele>2</ele>
      </trkpt>
      <trkpt lat="46.95608" lon="-2.17049">
        <ele>2</ele>
      </trkpt>
      <trkpt lat="46.95627" lon="-2.17098">
        <ele>2</ele>
      </trkpt>
      <trkpt lat="46.95651" lon="-2.17169">
        <ele>2</ele>
      </trkpt>
      <trkpt lat="46.95664" lon="-2.17206">
        <ele>2</ele>
      </trkpt>
      <trkpt lat="46.95651" lon="-2.17169">
        <ele>2</ele>
      </trkpt>
      <trkpt lat="46.95665" lon="-2.1721">
        <ele>2</ele>
      </trkpt>
      <trkpt lat="46.95674" lon="-2.17233">
        <ele>2</ele>
      </trkpt>
      <trkpt lat="46.95679" lon="-2.17245">
        <ele>2</ele>
      </trkpt>
      <trkpt lat="46.95688" lon="-2.17275">
        <ele>2</ele>
      </trkpt>
      <trkpt lat="46.95696" lon="-2.17304">
        <ele>2</ele>
      </trkpt>
      <trkpt lat="46.95704" lon="-2.17329">
        <ele>2</ele>
      </trkpt>
      <trkpt lat="46.95712" lon="-2.17354">
        <ele>2</ele>
      </trkpt>
      <trkpt lat="46.95733" lon="-2.17411">
        <ele>2</ele>
      </trkpt>
      <trkpt lat="46.95756" lon="-2.17471">
        <ele>2</ele>
      </trkpt>
      <trkpt lat="46.9578" lon="-2.17534">
        <ele>2</ele>
      </trkpt>
      <trkpt lat="46.95799" lon="-2.17583">
        <ele>2</ele>
      </trkpt>
      <trkpt lat="46.95812" lon="-2.17613">
        <ele>2</ele>
      </trkpt>
      <trkpt lat="46.95836" lon="-2.17675">
        <ele>2</ele>
      </trkpt>
      <trkpt lat="46.95846" lon="-2.17712">
        <ele>2</ele>
      </trkpt>
      <trkpt lat="46.95857" lon="-2.17763">
        <ele>2</ele>
      </trkpt>
      <trkpt lat="46.95861" lon="-2.17788">
        <ele>1.99609375</ele>
      </trkpt>
      <trkpt lat="46.95867" lon="-2.17813">
        <ele>1.8984375</ele>
      </trkpt>
      <trkpt lat="46.95872" lon="-2.17825">
        <ele>1.80078125</ele>
      </trkpt>
      <trkpt lat="46.95879" lon="-2.17852">
        <ele>1.6875</ele>
      </trkpt>
      <trkpt lat="46.95891" lon="-2.17914">
        <ele>1.453125</ele>
      </trkpt>
      <trkpt lat="46.95912" lon="-2.18023">
        <ele>1</ele>
      </trkpt>
      <trkpt lat="46.95939" lon="-2.18168">
        <ele>1</ele>
      </trkpt>
      <trkpt lat="46.95953" lon="-2.1824">
        <ele>1</ele>
      </trkpt>
      <trkpt lat="46.95956" lon="-2.18258">
        <ele>1.01171875</ele>
      </trkpt>
      <trkpt lat="46.95962" lon="-2.18289">
        <ele>1.10546875</ele>
      </trkpt>
      <trkpt lat="46.95964" lon="-2.18303">
        <ele>1.1171875</ele>
      </trkpt>
      <trkpt lat="46.95968" lon="-2.18332">
        <ele>1.05078125</ele>
      </trkpt>
      <trkpt lat="46.95972" lon="-2.18373">
        <ele>1</ele>
      </trkpt>
      <trkpt lat="46.95972" lon="-2.18387">
        <ele>1</ele>
      </trkpt>
      <trkpt lat="46.95972" lon="-2.18405">
        <ele>1</ele>
      </trkpt>
      <trkpt lat="46.95976" lon="-2.18412">
        <ele>1</ele>
      </trkpt>
      <trkpt lat="46.95986" lon="-2.18428">
        <ele>1</ele>
      </trkpt>
      <trkpt lat="46.95988" lon="-2.18436">
        <ele>1</ele>
      </trkpt>
      <trkpt lat="46.95988" lon="-2.18444">
        <ele>1</ele>
      </trkpt>
      <trkpt lat="46.96004" lon="-2.18471">
        <ele>1</ele>
      </trkpt>
      <trkpt lat="46.96009" lon="-2.18483">
        <ele>1</ele>
      </trkpt>
      <trkpt lat="46.96016" lon="-2.18501">
        <ele>1</ele>
      </trkpt>
      <trkpt lat="46.96022" lon="-2.18517">
        <ele>1</ele>
      </trkpt>
      <trkpt lat="46.96047" lon="-2.18585">
        <ele>1</ele>
      </trkpt>
      <trkpt lat="46.9611" lon="-2.18755">
        <ele>0.51171875</ele>
      </trkpt>
      <trkpt lat="46.96135" lon="-2.18819">
        <ele>0.06640625</ele>
      </trkpt>
      <trkpt lat="46.96199" lon="-2.18993">
        <ele>1.4</ele>
      </trkpt>
      <trkpt lat="46.96226" lon="-2.19066">
        <ele>1.9</ele>
      </trkpt>
      <trkpt lat="46.96257" lon="-2.19153">
        <ele>2.4</ele>
      </trkpt>
      <trkpt lat="46.96285" lon="-2.19229">
        <ele>1.5</ele>
      </trkpt>
      <trkpt lat="46.96316" lon="-2.19312">
        <ele>2.5</ele>
      </trkpt>
      <trkpt lat="46.96314" lon="-2.19306">
        <ele>2.1</ele>
      </trkpt>
      <trkpt lat="46.96316" lon="-2.19312">
        <ele>2.5</ele>
      </trkpt>
      <trkpt lat="46.96344" lon="-2.19386">
        <ele>0.109375</ele>
      </trkpt>
      <trkpt lat="46.96373" lon="-2.19466">
        <ele>1.8</ele>
      </trkpt>
      <trkpt lat="46.96405" lon="-2.19552">
        <ele>0.19921875</ele>
      </trkpt>
      <trkpt lat="46.96396" lon="-2.19527">
        <ele>0.32421875</ele>
      </trkpt>
      <trkpt lat="46.96405" lon="-2.19552">
        <ele>0.19921875</ele>
      </trkpt>
      <trkpt lat="46.96439" lon="-2.19644">
        <ele>3.5</ele>
      </trkpt>
      <trkpt lat="46.96471" lon="-2.1973">
        <ele>0.01953125</ele>
      </trkpt>
      <trkpt lat="46.9648" lon="-2.19761">
        <ele>2.2</ele>
      </trkpt>
      <trkpt lat="46.96484" lon="-2.19771">
        <ele>3.2</ele>
      </trkpt>
      <trkpt lat="46.96487" lon="-2.19787">
        <ele>3.7</ele>
      </trkpt>
      <trkpt lat="46.96492" lon="-2.19803">
        <ele>3.1</ele>
      </trkpt>
      <trkpt lat="46.96498" lon="-2.19816">
        <ele>0.05078125</ele>
      </trkpt>
      <trkpt lat="46.96505" lon="-2.19826">
        <ele>0.11328125</ele>
      </trkpt>
      <trkpt lat="46.96516" lon="-2.19854">
        <ele>0.1640625</ele>
      </trkpt>
      <trkpt lat="46.96538" lon="-2.19916">
        <ele>2</ele>
      </trkpt>
      <trkpt lat="46.96562" lon="-2.19983">
        <ele>0.375</ele>
      </trkpt>
      <trkpt lat="46.96581" lon="-2.20031">
        <ele>0.02734375</ele>
      </trkpt>
      <trkpt lat="46.96606" lon="-2.20098">
        <ele>3</ele>
      </trkpt>
      <trkpt lat="46.96636" lon="-2.20183">
        <ele>0.03125</ele>
      </trkpt>
      <trkpt lat="46.96666" lon="-2.20265">
        <ele>0.09375</ele>
      </trkpt>
      <trkpt lat="46.96681" lon="-2.20306">
        <ele>0.2109375</ele>
      </trkpt>
      <trkpt lat="46.96688" lon="-2.20301">
        <ele>0.0859375</ele>
      </trkpt>
      <trkpt lat="46.96681" lon="-2.20306">
        <ele>0.2109375</ele>
      </trkpt>
      <trkpt lat="46.96696" lon="-2.20346">
        <ele>2.6</ele>
      </trkpt>
      <trkpt lat="46.9672" lon="-2.20409">
        <ele>0.41796875</ele>
      </trkpt>
      <trkpt lat="46.96745" lon="-2.20477">
        <ele>0.07421875</ele>
      </trkpt>
      <trkpt lat="46.96801" lon="-2.20629">
        <ele>0.06640625</ele>
      </trkpt>
      <trkpt lat="46.96833" lon="-2.20713">
        <ele>0.12109375</ele>
      </trkpt>
      <trkpt lat="46.96856" lon="-2.20777">
        <ele>0.08203125</ele>
      </trkpt>
      <trkpt lat="46.96893" lon="-2.20881">
        <ele>0.11328125</ele>
      </trkpt>
      <trkpt lat="46.96886" lon="-2.20861">
        <ele>3</ele>
      </trkpt>
      <trkpt lat="46.96893" lon="-2.20881">
        <ele>0.11328125</ele>
      </trkpt>
      <trkpt lat="46.96926" lon="-2.20965">
        <ele>2</ele>
      </trkpt>
      <trkpt lat="46.9695" lon="-2.21033">
        <ele>0.0078125</ele>
      </trkpt>
      <trkpt lat="46.96967" lon="-2.21081">
        <ele>0.0625</ele>
      </trkpt>
      <trkpt lat="46.96969" lon="-2.21122">
        <ele>0.6484375</ele>
      </trkpt>
      <trkpt lat="46.96977" lon="-2.21144">
        <ele>0.89453125</ele>
      </trkpt>
      <trkpt lat="46.96986" lon="-2.21164">
        <ele>0.7421875</ele>
      </trkpt>
      <trkpt lat="46.96989" lon="-2.2118">
        <ele>0.6875</ele>
      </trkpt>
      <trkpt lat="46.96989" lon="-2.21192">
        <ele>0.6875</ele>
      </trkpt>
      <trkpt lat="46.96994" lon="-2.21208">
        <ele>0.66015625</ele>
      </trkpt>
      <trkpt lat="46.96986" lon="-2.21219">
        <ele>0.83984375</ele>
      </trkpt>
      <trkpt lat="46.96971" lon="-2.21241">
        <ele>1</ele>
      </trkpt>
      <trkpt lat="46.96954" lon="-2.21266">
        <ele>1</ele>
      </trkpt>
      <trkpt lat="46.96929" lon="-2.21304">
        <ele>1</ele>
      </trkpt>
      <trkpt lat="46.96898" lon="-2.21353">
        <ele>1.328125</ele>
      </trkpt>
      <trkpt lat="46.96872" lon="-2.21394">
        <ele>1.79296875</ele>
      </trkpt>
      <trkpt lat="46.96862" lon="-2.21408">
        <ele>1.96484375</ele>
      </trkpt>
      <trkpt lat="46.96819" lon="-2.21473">
        <ele>2</ele>
      </trkpt>
      <trkpt lat="46.96788" lon="-2.21521">
        <ele>2</ele>
      </trkpt>
      <trkpt lat="46.96778" lon="-2.21533">
        <ele>2</ele>
      </trkpt>
      <trkpt lat="46.96769" lon="-2.21542">
        <ele>2</ele>
      </trkpt>
      <trkpt lat="46.96759" lon="-2.21547">
        <ele>2</ele>
      </trkpt>
      <trkpt lat="46.96749" lon="-2.21552">
        <ele>2.015625</ele>
      </trkpt>
      <trkpt lat="46.96746" lon="-2.21557">
        <ele>2.0546875</ele>
      </trkpt>
      <trkpt lat="46.96741" lon="-2.21564">
        <ele>2.1484375</ele>
      </trkpt>
      <trkpt lat="46.96736" lon="-2.21573">
        <ele>2.24609375</ele>
      </trkpt>
      <trkpt lat="46.96736" lon="-2.21581">
        <ele>2.24609375</ele>
      </trkpt>
      <trkpt lat="46.96737" lon="-2.21591">
        <ele>2.2265625</ele>
      </trkpt>
      <trkpt lat="46.96736" lon="-2.21602">
        <ele>2.24609375</ele>
      </trkpt>
      <trkpt lat="46.96734" lon="-2.21612">
        <ele>2.28515625</ele>
      </trkpt>
      <trkpt lat="46.96735" lon="-2.21628">
        <ele>2.265625</ele>
      </trkpt>
      <trkpt lat="46.96735" lon="-2.21634">
        <ele>2.265625</ele>
      </trkpt>
      <trkpt lat="46.96739" lon="-2.21649">
        <ele>2.1875</ele>
      </trkpt>
      <trkpt lat="46.96744" lon="-2.2166">
        <ele>2.08984375</ele>
      </trkpt>
      <trkpt lat="46.96753" lon="-2.21674">
        <ele>2</ele>
      </trkpt>
      <trkpt lat="46.9676" lon="-2.21688">
        <ele>2</ele>
      </trkpt>
      <trkpt lat="46.96769" lon="-2.217">
        <ele>2.015625</ele>
      </trkpt>
      <trkpt lat="46.968" lon="-2.21749">
        <ele>2.078125</ele>
      </trkpt>
      <trkpt lat="46.96808" lon="-2.21763">
        <ele>2</ele>
      </trkpt>
      <trkpt lat="46.96824" lon="-2.21791">
        <ele>2</ele>
      </trkpt>
      <trkpt lat="46.96834" lon="-2.21811">
        <ele>2</ele>
      </trkpt>
      <trkpt lat="46.96842" lon="-2.21828">
        <ele>2</ele>
      </trkpt>
      <trkpt lat="46.96851" lon="-2.21846">
        <ele>2</ele>
      </trkpt>
      <trkpt lat="46.96857" lon="-2.21859">
        <ele>2</ele>
      </trkpt>
      <trkpt lat="46.96863" lon="-2.21878">
        <ele>2</ele>
      </trkpt>
      <trkpt lat="46.96873" lon="-2.21902">
        <ele>2</ele>
      </trkpt>
      <trkpt lat="46.96878" lon="-2.21918">
        <ele>2</ele>
      </trkpt>
      <trkpt lat="46.96885" lon="-2.21938">
        <ele>2</ele>
      </trkpt>
      <trkpt lat="46.96892" lon="-2.21962">
        <ele>2</ele>
      </trkpt>
      <trkpt lat="46.96898" lon="-2.21982">
        <ele>2</ele>
      </trkpt>
      <trkpt lat="46.96903" lon="-2.22001">
        <ele>2</ele>
      </trkpt>
      <trkpt lat="46.96907" lon="-2.22019">
        <ele>2</ele>
      </trkpt>
      <trkpt lat="46.96914" lon="-2.22045">
        <ele>2</ele>
      </trkpt>
      <trkpt lat="46.96919" lon="-2.22077">
        <ele>2</ele>
      </trkpt>
      <trkpt lat="46.96927" lon="-2.22111">
        <ele>2</ele>
      </trkpt>
      <trkpt lat="46.96934" lon="-2.22149">
        <ele>2</ele>
      </trkpt>
      <trkpt lat="46.96942" lon="-2.22188">
        <ele>2</ele>
      </trkpt>
      <trkpt lat="46.96949" lon="-2.22222">
        <ele>2</ele>
      </trkpt>
      <trkpt lat="46.96965" lon="-2.22306">
        <ele>2</ele>
      </trkpt>
      <trkpt lat="46.96972" lon="-2.22335">
        <ele>2</ele>
      </trkpt>
      <trkpt lat="46.96978" lon="-2.22367">
        <ele>2</ele>
      </trkpt>
      <trkpt lat="46.96985" lon="-2.22402">
        <ele>2</ele>
      </trkpt>
      <trkpt lat="46.9699" lon="-2.2244">
        <ele>2</ele>
      </trkpt>
      <trkpt lat="46.96993" lon="-2.22457">
        <ele>2</ele>
      </trkpt>
      <trkpt lat="46.96995" lon="-2.22483">
        <ele>2</ele>
      </trkpt>
      <trkpt lat="46.97" lon="-2.22509">
        <ele>2</ele>
      </trkpt>
      <trkpt lat="46.97006" lon="-2.22512">
        <ele>2</ele>
      </trkpt>
      <trkpt lat="46.9701" lon="-2.22516">
        <ele>2</ele>
      </trkpt>
      <trkpt lat="46.97014" lon="-2.22522">
        <ele>2</ele>
      </trkpt>
      <trkpt lat="46.97016" lon="-2.22534">
        <ele>2</ele>
      </trkpt>
      <trkpt lat="46.97014" lon="-2.22547">
        <ele>2</ele>
      </trkpt>
      <trkpt lat="46.9701" lon="-2.22554">
        <ele>2</ele>
      </trkpt>
      <trkpt lat="46.97007" lon="-2.22558">
        <ele>2</ele>
      </trkpt>
      <trkpt lat="46.97002" lon="-2.22561">
        <ele>2</ele>
      </trkpt>
      <trkpt lat="46.96996" lon="-2.22561">
        <ele>2</ele>
      </trkpt>
      <trkpt lat="46.96991" lon="-2.2256">
        <ele>2</ele>
      </trkpt>
      <trkpt lat="46.96987" lon="-2.22556">
        <ele>2</ele>
      </trkpt>
      <trkpt lat="46.96983" lon="-2.22549">
        <ele>2</ele>
      </trkpt>
      <trkpt lat="46.9698" lon="-2.22542">
        <ele>2</ele>
      </trkpt>
      <trkpt lat="46.96979" lon="-2.22534">
        <ele>2</ele>
      </trkpt>
      <trkpt lat="46.96975" lon="-2.22531">
        <ele>2</ele>
      </trkpt>
      <trkpt lat="46.96977" lon="-2.22547">
        <ele>2</ele>
      </trkpt>
      <trkpt lat="46.96987" lon="-2.22578">
        <ele>2</ele>
      </trkpt>
      <trkpt lat="46.96989" lon="-2.22595">
        <ele>2</ele>
      </trkpt>
      <trkpt lat="46.96991" lon="-2.22616">
        <ele>2</ele>
      </trkpt>
      <trkpt lat="46.96992" lon="-2.22644">
        <ele>2</ele>
      </trkpt>
      <trkpt lat="46.96992" lon="-2.22675">
        <ele>2</ele>
      </trkpt>
      <trkpt lat="46.96993" lon="-2.22712">
        <ele>2</ele>
      </trkpt>
      <trkpt lat="46.96993" lon="-2.22737">
        <ele>2</ele>
      </trkpt>
      <trkpt lat="46.96994" lon="-2.22771">
        <ele>2</ele>
      </trkpt>
      <trkpt lat="46.96993" lon="-2.22814">
        <ele>2</ele>
      </trkpt>
      <trkpt lat="46.96992" lon="-2.22855">
        <ele>2</ele>
      </trkpt>
      <trkpt lat="46.96988" lon="-2.22952">
        <ele>2</ele>
      </trkpt>
      <trkpt lat="46.96987" lon="-2.22969">
        <ele>2</ele>
      </trkpt>
      <trkpt lat="46.96986" lon="-2.2298">
        <ele>2</ele>
      </trkpt>
      <trkpt lat="46.96985" lon="-2.22988">
        <ele>2</ele>
      </trkpt>
      <trkpt lat="46.96981" lon="-2.23027">
        <ele>2</ele>
      </trkpt>
      <trkpt lat="46.96977" lon="-2.23095">
        <ele>2</ele>
      </trkpt>
      <trkpt lat="46.96967" lon="-2.23221">
        <ele>2</ele>
      </trkpt>
      <trkpt lat="46.96964" lon="-2.23262">
        <ele>2</ele>
      </trkpt>
      <trkpt lat="46.9696" lon="-2.23295">
        <ele>2</ele>
      </trkpt>
      <trkpt lat="46.96958" lon="-2.23316">
        <ele>2</ele>
      </trkpt>
      <trkpt lat="46.96957" lon="-2.23339">
        <ele>2</ele>
      </trkpt>
      <trkpt lat="46.96958" lon="-2.23357">
        <ele>2</ele>
      </trkpt>
      <trkpt lat="46.96961" lon="-2.23371">
        <ele>2</ele>
      </trkpt>
      <trkpt lat="46.96963" lon="-2.23381">
        <ele>2</ele>
      </trkpt>
      <trkpt lat="46.96959" lon="-2.2343">
        <ele>2</ele>
      </trkpt>
      <trkpt lat="46.96956" lon="-2.23477">
        <ele>2</ele>
      </trkpt>
      <trkpt lat="46.96951" lon="-2.23532">
        <ele>2</ele>
      </trkpt>
      <trkpt lat="46.96948" lon="-2.23584">
        <ele>2</ele>
      </trkpt>
      <trkpt lat="46.96945" lon="-2.23628">
        <ele>2</ele>
      </trkpt>
      <trkpt lat="46.96943" lon="-2.23673">
        <ele>2</ele>
      </trkpt>
      <trkpt lat="46.96942" lon="-2.23692">
        <ele>2</ele>
      </trkpt>
      <trkpt lat="46.96943" lon="-2.23709">
        <ele>2</ele>
      </trkpt>
      <trkpt lat="46.96945" lon="-2.23731">
        <ele>2</ele>
      </trkpt>
      <trkpt lat="46.96949" lon="-2.23752">
        <ele>2</ele>
      </trkpt>
      <trkpt lat="46.96955" lon="-2.23772">
        <ele>2</ele>
      </trkpt>
      <trkpt lat="46.96958" lon="-2.23787">
        <ele>2</ele>
      </trkpt>
      <trkpt lat="46.96958" lon="-2.23802">
        <ele>2</ele>
      </trkpt>
      <trkpt lat="46.96952" lon="-2.2382">
        <ele>2</ele>
      </trkpt>
      <trkpt lat="46.96944" lon="-2.23835">
        <ele>2</ele>
      </trkpt>
      <trkpt lat="46.96936" lon="-2.23843">
        <ele>2</ele>
      </trkpt>
      <trkpt lat="46.96937" lon="-2.2385">
        <ele>2</ele>
      </trkpt>
      <trkpt lat="46.96937" lon="-2.23857">
        <ele>2</ele>
      </trkpt>
      <trkpt lat="46.96937" lon="-2.23866">
        <ele>2</ele>
      </trkpt>
      <trkpt lat="46.96936" lon="-2.23873">
        <ele>2</ele>
      </trkpt>
      <trkpt lat="46.96939" lon="-2.23885">
        <ele>2</ele>
      </trkpt>
      <trkpt lat="46.96941" lon="-2.23895">
        <ele>2</ele>
      </trkpt>
      <trkpt lat="46.96944" lon="-2.23908">
        <ele>2</ele>
      </trkpt>
      <trkpt lat="46.96951" lon="-2.23922">
        <ele>1.97265625</ele>
      </trkpt>
      <trkpt lat="46.96959" lon="-2.23929">
        <ele>1.86328125</ele>
      </trkpt>
      <trkpt lat="46.96964" lon="-2.23933">
        <ele>1.77734375</ele>
      </trkpt>
      <trkpt lat="46.96971" lon="-2.23938">
        <ele>1.671875</ele>
      </trkpt>
      <trkpt lat="46.96976" lon="-2.2394">
        <ele>1.578125</ele>
      </trkpt>
      <trkpt lat="46.96993" lon="-2.23935">
        <ele>1.4296875</ele>
      </trkpt>
      <trkpt lat="46.97006" lon="-2.23926">
        <ele>1.33203125</ele>
      </trkpt>
      <trkpt lat="46.97019" lon="-2.23912">
        <ele>1.2578125</ele>
      </trkpt>
      <trkpt lat="46.97033" lon="-2.23898">
        <ele>1.3828125</ele>
      </trkpt>
      <trkpt lat="46.9705" lon="-2.23883">
        <ele>1.65234375</ele>
      </trkpt>
      <trkpt lat="46.9706" lon="-2.23879">
        <ele>1.73046875</ele>
      </trkpt>
      <trkpt lat="46.97073" lon="-2.23879">
        <ele>1.73046875</ele>
      </trkpt>
      <trkpt lat="46.97098" lon="-2.23883">
        <ele>1.65234375</ele>
      </trkpt>
      <trkpt lat="46.97131" lon="-2.23889">
        <ele>1.53515625</ele>
      </trkpt>
      <trkpt lat="46.97144" lon="-2.23893">
        <ele>1.4765625</ele>
      </trkpt>
      <trkpt lat="46.97143" lon="-2.239">
        <ele>1.34375</ele>
      </trkpt>
      <trkpt lat="46.97144" lon="-2.23893">
        <ele>1.4765625</ele>
      </trkpt>
      <trkpt lat="46.97169" lon="-2.23899">
        <ele>1.36328125</ele>
      </trkpt>
      <trkpt lat="46.97256" lon="-2.23922">
        <ele>1.95703125</ele>
      </trkpt>
      <trkpt lat="46.97275" lon="-2.23927">
        <ele>1.859375</ele>
      </trkpt>
      <trkpt lat="46.973" lon="-2.23939">
        <ele>1.6484375</ele>
      </trkpt>
      <trkpt lat="46.97311" lon="-2.23946">
        <ele>1.51171875</ele>
      </trkpt>
      <trkpt lat="46.97338" lon="-2.23963">
        <ele>1.203125</ele>
      </trkpt>
      <trkpt lat="46.97373" lon="-2.23987">
        <ele>1</ele>
      </trkpt>
      <trkpt lat="46.97404" lon="-2.24006">
        <ele>1</ele>
      </trkpt>
      <trkpt lat="46.97435" lon="-2.24027">
        <ele>1</ele>
      </trkpt>
      <trkpt lat="46.97458" lon="-2.24041">
        <ele>1</ele>
      </trkpt>
      <trkpt lat="46.97477" lon="-2.24055">
        <ele>1</ele>
      </trkpt>
      <trkpt lat="46.97501" lon="-2.24071">
        <ele>1</ele>
      </trkpt>
      <trkpt lat="46.97525" lon="-2.24089">
        <ele>1</ele>
      </trkpt>
      <trkpt lat="46.97563" lon="-2.24116">
        <ele>1</ele>
      </trkpt>
      <trkpt lat="46.9757" lon="-2.24121">
        <ele>1</ele>
      </trkpt>
      <trkpt lat="46.9758" lon="-2.24133">
        <ele>1</ele>
      </trkpt>
      <trkpt lat="46.97597" lon="-2.24152">
        <ele>1</ele>
      </trkpt>
      <trkpt lat="46.97604" lon="-2.24156">
        <ele>1</ele>
      </trkpt>
      <trkpt lat="46.9761" lon="-2.24162">
        <ele>1</ele>
      </trkpt>
      <trkpt lat="46.97621" lon="-2.24166">
        <ele>1</ele>
      </trkpt>
      <trkpt lat="46.9764" lon="-2.24172">
        <ele>1</ele>
      </trkpt>
      <trkpt lat="46.97665" lon="-2.24178">
        <ele>1</ele>
      </trkpt>
      <trkpt lat="46.97679" lon="-2.24187">
        <ele>1</ele>
      </trkpt>
      <trkpt lat="46.97755" lon="-2.24236">
        <ele>1</ele>
      </trkpt>
      <trkpt lat="46.97787" lon="-2.24257">
        <ele>1</ele>
      </trkpt>
      <trkpt lat="46.9781" lon="-2.24271">
        <ele>1</ele>
      </trkpt>
      <trkpt lat="46.97832" lon="-2.24286">
        <ele>1</ele>
      </trkpt>
      <trkpt lat="46.97859" lon="-2.24303">
        <ele>1</ele>
      </trkpt>
      <trkpt lat="46.97877" lon="-2.24315">
        <ele>1</ele>
      </trkpt>
      <trkpt lat="46.97898" lon="-2.24329">
        <ele>1</ele>
      </trkpt>
      <trkpt lat="46.97911" lon="-2.24339">
        <ele>1</ele>
      </trkpt>
      <trkpt lat="46.97923" lon="-2.24352">
        <ele>1</ele>
      </trkpt>
      <trkpt lat="46.97936" lon="-2.24366">
        <ele>1</ele>
      </trkpt>
      <trkpt lat="46.97947" lon="-2.24381">
        <ele>1</ele>
      </trkpt>
      <trkpt lat="46.97972" lon="-2.24422">
        <ele>1</ele>
      </trkpt>
      <trkpt lat="46.97999" lon="-2.24465">
        <ele>1</ele>
      </trkpt>
      <trkpt lat="46.98021" lon="-2.24501">
        <ele>1</ele>
      </trkpt>
      <trkpt lat="46.98043" lon="-2.24537">
        <ele>1</ele>
      </trkpt>
      <trkpt lat="46.98063" lon="-2.24572">
        <ele>1</ele>
      </trkpt>
      <trkpt lat="46.98081" lon="-2.24601">
        <ele>1</ele>
      </trkpt>
      <trkpt lat="46.98096" lon="-2.24625">
        <ele>1</ele>
      </trkpt>
      <trkpt lat="46.9811" lon="-2.24648">
        <ele>1</ele>
      </trkpt>
      <trkpt lat="46.98125" lon="-2.24662">
        <ele>1</ele>
      </trkpt>
      <trkpt lat="46.9814" lon="-2.24669">
        <ele>1</ele>
      </trkpt>
      <trkpt lat="46.98154" lon="-2.24671">
        <ele>1</ele>
      </trkpt>
      <trkpt lat="46.98158" lon="-2.24671">
        <ele>1</ele>
      </trkpt>
      <trkpt lat="46.98165" lon="-2.24669">
        <ele>1</ele>
      </trkpt>
      <trkpt lat="46.98174" lon="-2.24665">
        <ele>1</ele>
      </trkpt>
      <trkpt lat="46.98188" lon="-2.24655">
        <ele>1</ele>
      </trkpt>
      <trkpt lat="46.98207" lon="-2.24635">
        <ele>1</ele>
      </trkpt>
      <trkpt lat="46.98223" lon="-2.24617">
        <ele>1</ele>
      </trkpt>
      <trkpt lat="46.98236" lon="-2.24602">
        <ele>1</ele>
      </trkpt>
      <trkpt lat="46.98251" lon="-2.24592">
        <ele>1</ele>
      </trkpt>
      <trkpt lat="46.98266" lon="-2.24587">
        <ele>1</ele>
      </trkpt>
      <trkpt lat="46.9828" lon="-2.24585">
        <ele>1</ele>
      </trkpt>
      <trkpt lat="46.98292" lon="-2.24587">
        <ele>1</ele>
      </trkpt>
      <trkpt lat="46.98302" lon="-2.2459">
        <ele>1</ele>
      </trkpt>
      <trkpt lat="46.98312" lon="-2.24596">
        <ele>1</ele>
      </trkpt>
      <trkpt lat="46.98326" lon="-2.24606">
        <ele>1</ele>
      </trkpt>
      <trkpt lat="46.98347" lon="-2.24622">
        <ele>1</ele>
      </trkpt>
      <trkpt lat="46.98362" lon="-2.24634">
        <ele>1</ele>
      </trkpt>
      <trkpt lat="46.98373" lon="-2.24641">
        <ele>1</ele>
      </trkpt>
      <trkpt lat="46.98385" lon="-2.24652">
        <ele>1</ele>
      </trkpt>
      <trkpt lat="46.98391" lon="-2.24658">
        <ele>1</ele>
      </trkpt>
      <trkpt lat="46.98395" lon="-2.24662">
        <ele>1</ele>
      </trkpt>
      <trkpt lat="46.98406" lon="-2.24669">
        <ele>1</ele>
      </trkpt>
      <trkpt lat="46.98419" lon="-2.24677">
        <ele>1</ele>
      </trkpt>
      <trkpt lat="46.98433" lon="-2.24685">
        <ele>1</ele>
      </trkpt>
      <trkpt lat="46.98441" lon="-2.24693">
        <ele>1</ele>
      </trkpt>
      <trkpt lat="46.98461" lon="-2.24718">
        <ele>1</ele>
      </trkpt>
      <trkpt lat="46.98487" lon="-2.24754">
        <ele>1</ele>
      </trkpt>
      <trkpt lat="46.98525" lon="-2.24809">
        <ele>1</ele>
      </trkpt>
      <trkpt lat="46.98542" lon="-2.24831">
        <ele>1</ele>
      </trkpt>
      <trkpt lat="46.98557" lon="-2.24852">
        <ele>1</ele>
      </trkpt>
      <trkpt lat="46.98578" lon="-2.24879">
        <ele>1</ele>
      </trkpt>
      <trkpt lat="46.98589" lon="-2.2489">
        <ele>1</ele>
      </trkpt>
      <trkpt lat="46.98604" lon="-2.24908">
        <ele>1</ele>
      </trkpt>
      <trkpt lat="46.98621" lon="-2.24923">
        <ele>1</ele>
      </trkpt>
      <trkpt lat="46.98637" lon="-2.24933">
        <ele>1</ele>
      </trkpt>
      <trkpt lat="46.98651" lon="-2.24942">
        <ele>1</ele>
      </trkpt>
      <trkpt lat="46.98667" lon="-2.2495">
        <ele>1</ele>
      </trkpt>
      <trkpt lat="46.98684" lon="-2.24958">
        <ele>1</ele>
      </trkpt>
      <trkpt lat="46.98702" lon="-2.24962">
        <ele>1</ele>
      </trkpt>
      <trkpt lat="46.98722" lon="-2.24965">
        <ele>1</ele>
      </trkpt>
      <trkpt lat="46.98731" lon="-2.24967">
        <ele>1</ele>
      </trkpt>
      <trkpt lat="46.98748" lon="-2.24965">
        <ele>1</ele>
      </trkpt>
      <trkpt lat="46.98756" lon="-2.24964">
        <ele>1</ele>
      </trkpt>
      <trkpt lat="46.98759" lon="-2.24963">
        <ele>1</ele>
      </trkpt>
      <trkpt lat="46.98763" lon="-2.24963">
        <ele>1</ele>
      </trkpt>
      <trkpt lat="46.98771" lon="-2.24961">
        <ele>1</ele>
      </trkpt>
      <trkpt lat="46.98788" lon="-2.24957">
        <ele>1</ele>
      </trkpt>
      <trkpt lat="46.98806" lon="-2.24948">
        <ele>1</ele>
      </trkpt>
      <trkpt lat="46.98822" lon="-2.2494">
        <ele>1</ele>
      </trkpt>
      <trkpt lat="46.98844" lon="-2.24926">
        <ele>1</ele>
      </trkpt>
      <trkpt lat="46.98858" lon="-2.24915">
        <ele>1</ele>
      </trkpt>
      <trkpt lat="46.98863" lon="-2.24911">
        <ele>1</ele>
      </trkpt>
      <trkpt lat="46.98878" lon="-2.24895">
        <ele>1</ele>
      </trkpt>
      <trkpt lat="46.9889" lon="-2.24884">
        <ele>1</ele>
      </trkpt>
      <trkpt lat="46.989" lon="-2.24876">
        <ele>1</ele>
      </trkpt>
      <trkpt lat="46.98909" lon="-2.24875">
        <ele>1</ele>
      </trkpt>
      <trkpt lat="46.98909" lon="-2.24869">
        <ele>1</ele>
      </trkpt>
      <trkpt lat="46.98909" lon="-2.24853">
        <ele>1</ele>
      </trkpt>
      <trkpt lat="46.9893" lon="-2.24832">
        <ele>1</ele>
      </trkpt>
      <trkpt lat="46.98945" lon="-2.24816">
        <ele>1</ele>
      </trkpt>
      <trkpt lat="46.98957" lon="-2.24806">
        <ele>1</ele>
      </trkpt>
      <trkpt lat="46.98972" lon="-2.2479">
        <ele>1</ele>
      </trkpt>
      <trkpt lat="46.98989" lon="-2.24771">
        <ele>1</ele>
      </trkpt>
      <trkpt lat="46.99017" lon="-2.2474">
        <ele>1</ele>
      </trkpt>
      <trkpt lat="46.99045" lon="-2.24712">
        <ele>1</ele>
      </trkpt>
      <trkpt lat="46.99055" lon="-2.24704">
        <ele>1</ele>
      </trkpt>
      <trkpt lat="46.99076" lon="-2.24688">
        <ele>1</ele>
      </trkpt>
      <trkpt lat="46.99085" lon="-2.24682">
        <ele>1</ele>
      </trkpt>
      <trkpt lat="46.99106" lon="-2.24674">
        <ele>1</ele>
      </trkpt>
      <trkpt lat="46.99118" lon="-2.2467">
        <ele>1</ele>
      </trkpt>
      <trkpt lat="46.99129" lon="-2.24668">
        <ele>1</ele>
      </trkpt>
      <trkpt lat="46.99141" lon="-2.24668">
        <ele>1</ele>
      </trkpt>
      <trkpt lat="46.99166" lon="-2.24668">
        <ele>1</ele>
      </trkpt>
      <trkpt lat="46.99182" lon="-2.2467">
        <ele>1</ele>
      </trkpt>
      <trkpt lat="46.9919" lon="-2.24671">
        <ele>1</ele>
      </trkpt>
      <trkpt lat="46.99199" lon="-2.24674">
        <ele>1</ele>
      </trkpt>
      <trkpt lat="46.99223" lon="-2.24679">
        <ele>1</ele>
      </trkpt>
      <trkpt lat="46.99245" lon="-2.24682">
        <ele>1</ele>
      </trkpt>
      <trkpt lat="46.99291" lon="-2.24692">
        <ele>0.21875</ele>
      </trkpt>
      <trkpt lat="46.99313" lon="-2.24696">
        <ele>3</ele>
      </trkpt>
      <trkpt lat="46.99326" lon="-2.24699">
        <ele>3</ele>
      </trkpt>
      <trkpt lat="46.99363" lon="-2.24706">
        <ele>3.4</ele>
      </trkpt>
      <trkpt lat="46.9937" lon="-2.24708">
        <ele>3.5</ele>
      </trkpt>
      <trkpt lat="46.99375" lon="-2.24709">
        <ele>3.5</ele>
      </trkpt>
      <trkpt lat="46.99384" lon="-2.2471">
        <ele>3.6</ele>
      </trkpt>
      <trkpt lat="46.99392" lon="-2.24712">
        <ele>3.5</ele>
      </trkpt>
      <trkpt lat="46.99398" lon="-2.24713">
        <ele>3.3</ele>
      </trkpt>
      <trkpt lat="46.99435" lon="-2.24721">
        <ele>2.9</ele>
      </trkpt>
      <trkpt lat="46.9945" lon="-2.24724">
        <ele>2.7</ele>
      </trkpt>
      <trkpt lat="46.99498" lon="-2.24734">
        <ele>2</ele>
      </trkpt>
      <trkpt lat="46.9955" lon="-2.24744">
        <ele>0.44140625</ele>
      </trkpt>
      <trkpt lat="46.99634" lon="-2.24763">
        <ele>1</ele>
      </trkpt>
      <trkpt lat="46.99654" lon="-2.24767">
        <ele>1</ele>
      </trkpt>
      <trkpt lat="46.99701" lon="-2.24777">
        <ele>1</ele>
      </trkpt>
      <trkpt lat="46.99709" lon="-2.24778">
        <ele>1</ele>
      </trkpt>
      <trkpt lat="46.99739" lon="-2.24784">
        <ele>1</ele>
      </trkpt>
      <trkpt lat="46.99751" lon="-2.24785">
        <ele>1</ele>
      </trkpt>
      <trkpt lat="46.99759" lon="-2.24782">
        <ele>1</ele>
      </trkpt>
      <trkpt lat="46.99768" lon="-2.24778">
        <ele>1</ele>
      </trkpt>
      <trkpt lat="46.99772" lon="-2.24773">
        <ele>1</ele>
      </trkpt>
      <trkpt lat="46.99777" lon="-2.24771">
        <ele>1</ele>
      </trkpt>
      <trkpt lat="46.99783" lon="-2.24772">
        <ele>1</ele>
      </trkpt>
      <trkpt lat="46.99787" lon="-2.24774">
        <ele>1</ele>
      </trkpt>
      <trkpt lat="46.99792" lon="-2.24782">
        <ele>1</ele>
      </trkpt>
      <trkpt lat="46.99795" lon="-2.24788">
        <ele>1</ele>
      </trkpt>
      <trkpt lat="46.99803" lon="-2.24794">
        <ele>1</ele>
      </trkpt>
      <trkpt lat="46.99812" lon="-2.24798">
        <ele>0.97265625</ele>
      </trkpt>
      <trkpt lat="46.99816" lon="-2.24802">
        <ele>0.98046875</ele>
      </trkpt>
      <trkpt lat="46.99823" lon="-2.24803">
        <ele>0.97265625</ele>
      </trkpt>
      <trkpt lat="46.99842" lon="-2.24807">
        <ele>0.98828125</ele>
      </trkpt>
      <trkpt lat="46.99865" lon="-2.2481">
        <ele>0.87890625</ele>
      </trkpt>
      <trkpt lat="46.99885" lon="-2.24811">
        <ele>0.53125</ele>
      </trkpt>
      <trkpt lat="46.99899" lon="-2.24811">
        <ele>0.28125</ele>
      </trkpt>
      <trkpt lat="46.99908" lon="-2.2481">
        <ele>0.10546875</ele>
      </trkpt>
      <trkpt lat="46.99925" lon="-2.24803">
        <ele>3.3</ele>
      </trkpt>
      <trkpt lat="46.9994" lon="-2.24798">
        <ele>3.9</ele>
      </trkpt>
      <trkpt lat="46.99953" lon="-2.24793">
        <ele>3.3</ele>
      </trkpt>
      <trkpt lat="46.99982" lon="-2.24781">
        <ele>3.1</ele>
      </trkpt>
      <trkpt lat="46.99981" lon="-2.24774">
        <ele>3.3</ele>
      </trkpt>
      <trkpt lat="46.99974" lon="-2.24708">
        <ele>0.0625</ele>
      </trkpt>
      <trkpt lat="46.99955" lon="-2.24595">
        <ele>0.61328125</ele>
      </trkpt>
      <trkpt lat="46.99946" lon="-2.24539">
        <ele>0.5703125</ele>
      </trkpt>
      <trkpt lat="46.99942" lon="-2.24521">
        <ele>0.5</ele>
      </trkpt>
      <trkpt lat="46.99936" lon="-2.24485">
        <ele>0.390625</ele>
      </trkpt>
      <trkpt lat="46.99936" lon="-2.24467">
        <ele>0.3984375</ele>
      </trkpt>
      <trkpt lat="46.99933" lon="-2.24454">
        <ele>0.33203125</ele>
      </trkpt>
      <trkpt lat="46.99932" lon="-2.2445">
        <ele>0.3203125</ele>
      </trkpt>
      <trkpt lat="46.99927" lon="-2.24404">
        <ele>0.29296875</ele>
      </trkpt>
      <trkpt lat="46.99917" lon="-2.24366">
        <ele>0.1015625</ele>
      </trkpt>
      <trkpt lat="46.99915" lon="-2.24315">
        <ele>0.02734375</ele>
      </trkpt>
      <trkpt lat="46.99905" lon="-2.2428">
        <ele>0.41796875</ele>
      </trkpt>
      <trkpt lat="46.99906" lon="-2.24283">
        <ele>3</ele>
        <time>2019-11-02T16:18:06Z</time>
      </trkpt>
      <trkpt lat="46.99894" lon="-2.24226">
        <ele>3</ele>
        <time>2019-11-02T16:18:07Z</time>
      </trkpt>
      <trkpt lat="46.99881" lon="-2.24143">
        <ele>3</ele>
        <time>2019-11-02T16:18:08Z</time>
      </trkpt>
      <trkpt lat="46.99873" lon="-2.24117">
        <ele>3</ele>
        <time>2019-11-02T16:18:09Z</time>
      </trkpt>
      <trkpt lat="46.99743" lon="-2.23779">
        <ele>3</ele>
        <time>2019-11-02T16:18:10Z</time>
      </trkpt>
      <trkpt lat="46.99588" lon="-2.23392">
        <ele>2</ele>
        <time>2019-11-02T16:18:11Z</time>
      </trkpt>
      <trkpt lat="46.99389" lon="-2.22885">
        <ele>3.6</ele>
        <time>2019-11-02T16:18:12Z</time>
      </trkpt>
      <trkpt lat="46.99269" lon="-2.22594">
        <ele>2.2</ele>
        <time>2019-11-02T16:18:13Z</time>
      </trkpt>
      <trkpt lat="46.99215" lon="-2.22486">
        <ele>4.1</ele>
        <time>2019-11-02T16:18:14Z</time>
      </trkpt>
      <trkpt lat="46.9915" lon="-2.22375">
        <ele>4.5</ele>
        <time>2019-11-02T16:18:15Z</time>
      </trkpt>
      <trkpt lat="46.99146" lon="-2.22358">
        <ele>1</ele>
        <time>2019-11-02T16:18:16Z</time>
      </trkpt>
      <trkpt lat="46.99147" lon="-2.2233">
        <ele>1</ele>
        <time>2019-11-02T16:18:17Z</time>
      </trkpt>
      <trkpt lat="46.99166" lon="-2.22283">
        <ele>2</ele>
        <time>2019-11-02T16:18:18Z</time>
      </trkpt>
      <trkpt lat="46.99176" lon="-2.22249">
        <ele>2</ele>
        <time>2019-11-02T16:18:19Z</time>
      </trkpt>
      <trkpt lat="46.99197" lon="-2.22201">
        <ele>2</ele>
        <time>2019-11-02T16:18:20Z</time>
      </trkpt>
      <trkpt lat="46.99265" lon="-2.22112">
        <ele>4</ele>
        <time>2019-11-02T16:18:21Z</time>
      </trkpt>
      <trkpt lat="46.99287" lon="-2.22073">
        <ele>4</ele>
        <time>2019-11-02T16:18:22Z</time>
      </trkpt>
      <trkpt lat="46.99301" lon="-2.22054">
        <ele>4</ele>
        <time>2019-11-02T16:18:23Z</time>
      </trkpt>
      <trkpt lat="46.99327" lon="-2.22033">
        <ele>4</ele>
        <time>2019-11-02T16:18:24Z</time>
      </trkpt>
      <trkpt lat="46.99412" lon="-2.22006">
        <ele>3</ele>
        <time>2019-11-02T16:18:25Z</time>
      </trkpt>
      <trkpt lat="46.9944" lon="-2.22">
        <ele>4</ele>
        <time>2019-11-02T16:18:26Z</time>
      </trkpt>
      <trkpt lat="46.99525" lon="-2.22004">
        <ele>5</ele>
        <time>2019-11-02T16:18:27Z</time>
      </trkpt>
      <trkpt lat="46.99561" lon="-2.22016">
        <ele>5</ele>
        <time>2019-11-02T16:18:28Z</time>
      </trkpt>
      <trkpt lat="46.99571" lon="-2.22012">
        <ele>5</ele>
        <time>2019-11-02T16:18:29Z</time>
      </trkpt>
      <trkpt lat="46.99587" lon="-2.22013">
        <ele>5</ele>
        <time>2019-11-02T16:18:30Z</time>
      </trkpt>
      <trkpt lat="46.9964" lon="-2.22058">
        <ele>4</ele>
        <time>2019-11-02T16:18:31Z</time>
      </trkpt>
      <trkpt lat="46.99651" lon="-2.22065">
        <ele>3</ele>
        <time>2019-11-02T16:18:32Z</time>
      </trkpt>
      <trkpt lat="46.99692" lon="-2.22074">
        <ele>4</ele>
        <time>2019-11-02T16:18:33Z</time>
      </trkpt>
      <trkpt lat="46.99699" lon="-2.22081">
        <ele>4</ele>
        <time>2019-11-02T16:18:34Z</time>
      </trkpt>
      <trkpt lat="46.99763" lon="-2.22091">
        <ele>5</ele>
        <time>2019-11-02T16:18:35Z</time>
      </trkpt>
      <trkpt lat="46.99894" lon="-2.22126">
        <ele>7</ele>
        <time>2019-11-02T16:18:36Z</time>
      </trkpt>
      <trkpt lat="46.99917" lon="-2.22129">
        <ele>7</ele>
        <time>2019-11-02T16:18:37Z</time>
      </trkpt>
      <trkpt lat="46.99949" lon="-2.2213">
        <ele>6</ele>
        <time>2019-11-02T16:18:38Z</time>
      </trkpt>
      <trkpt lat="46.99989" lon="-2.22126">
        <ele>5</ele>
        <time>2019-11-02T16:18:39Z</time>
      </trkpt>
      <trkpt lat="47.00269" lon="-2.22085">
        <ele>5</ele>
        <time>2019-11-02T16:18:40Z</time>
      </trkpt>
      <trkpt lat="47.00386" lon="-2.22075">
        <ele>4</ele>
        <time>2019-11-02T16:18:41Z</time>
      </trkpt>
      <trkpt lat="47.0046" lon="-2.22098">
        <ele>9</ele>
        <time>2019-11-02T16:18:42Z</time>
      </trkpt>
      <trkpt lat="47.00511" lon="-2.22118">
        <ele>12</ele>
        <time>2019-11-02T16:18:43Z</time>
      </trkpt>
      <trkpt lat="47.0054" lon="-2.22132">
        <ele>12</ele>
        <time>2019-11-02T16:18:44Z</time>
      </trkpt>
      <trkpt lat="47.00641" lon="-2.222">
        <ele>12</ele>
        <time>2019-11-02T16:18:45Z</time>
      </trkpt>
      <trkpt lat="47.00667" lon="-2.22213">
        <ele>12</ele>
        <time>2019-11-02T16:18:46Z</time>
      </trkpt>
      <trkpt lat="47.00704" lon="-2.22236">
        <ele>14</ele>
        <time>2019-11-02T16:18:47Z</time>
      </trkpt>
      <trkpt lat="47.00727" lon="-2.22259">
        <ele>15</ele>
        <time>2019-11-02T16:18:48Z</time>
      </trkpt>
      <trkpt lat="47.00764" lon="-2.22311">
        <ele>14</ele>
        <time>2019-11-02T16:18:49Z</time>
      </trkpt>
      <trkpt lat="47.0077" lon="-2.22324">
        <ele>13</ele>
        <time>2019-11-02T16:18:50Z</time>
      </trkpt>
      <trkpt lat="47.00929" lon="-2.22446">
        <ele>14</ele>
        <time>2019-11-02T16:18:51Z</time>
      </trkpt>
      <trkpt lat="47.00936" lon="-2.22437">
        <ele>13</ele>
        <time>2019-11-02T16:18:52Z</time>
      </trkpt>
      <trkpt lat="47.0095" lon="-2.22338">
        <ele>15</ele>
        <time>2019-11-02T16:18:53Z</time>
      </trkpt>
      <trkpt lat="47.00955" lon="-2.22337">
        <ele>15</ele>
        <time>2019-11-02T16:18:54Z</time>
      </trkpt>
      <trkpt lat="47.01229" lon="-2.22369">
        <ele>15</ele>
        <time>2019-11-02T16:18:55Z</time>
      </trkpt>
      <trkpt lat="47.01337" lon="-2.2248">
        <ele>13</ele>
        <time>2019-11-02T16:18:56Z</time>
      </trkpt>
      <trkpt lat="47.01339" lon="-2.22481">
        <ele>13</ele>
        <time>2019-11-02T16:18:57Z</time>
      </trkpt>
      <trkpt lat="47.01345" lon="-2.22472">
        <ele>14</ele>
        <time>2019-11-02T16:18:58Z</time>
      </trkpt>
      <trkpt lat="47.01349" lon="-2.22472">
        <ele>14</ele>
        <time>2019-11-02T16:18:59Z</time>
      </trkpt>
      <trkpt lat="47.01362" lon="-2.22495">
        <ele>13</ele>
        <time>2019-11-02T16:19:00Z</time>
      </trkpt>
      <trkpt lat="47.01456" lon="-2.22697">
        <ele>12</ele>
        <time>2019-11-02T16:19:01Z</time>
      </trkpt>
      <trkpt lat="47.01508" lon="-2.22861">
        <ele>10</ele>
        <time>2019-11-02T16:19:02Z</time>
      </trkpt>
      <trkpt lat="47.01577" lon="-2.23028">
        <ele>7</ele>
        <time>2019-11-02T16:19:03Z</time>
      </trkpt>
      <trkpt lat="47.01604" lon="-2.23159">
        <ele>7</ele>
        <time>2019-11-02T16:19:04Z</time>
      </trkpt>
      <trkpt lat="47.01601" lon="-2.23227">
        <ele>7</ele>
        <time>2019-11-02T16:19:05Z</time>
      </trkpt>
      <trkpt lat="47.01603" lon="-2.23365">
        <ele>6</ele>
        <time>2019-11-02T16:19:06Z</time>
      </trkpt>
      <trkpt lat="47.01616" lon="-2.2345">
        <ele>5</ele>
        <time>2019-11-02T16:19:07Z</time>
      </trkpt>
      <trkpt lat="47.01636" lon="-2.23523">
        <ele>4</ele>
        <time>2019-11-02T16:19:08Z</time>
      </trkpt>
      <trkpt lat="47.01639" lon="-2.23599">
        <ele>5</ele>
        <time>2019-11-02T16:19:09Z</time>
      </trkpt>
      <trkpt lat="47.01632" lon="-2.23629">
        <ele>5</ele>
        <time>2019-11-02T16:19:10Z</time>
      </trkpt>
      <trkpt lat="47.01633" lon="-2.23737">
        <ele>6</ele>
        <time>2019-11-02T16:19:11Z</time>
      </trkpt>
      <trkpt lat="47.01634" lon="-2.23745">
        <ele>6</ele>
        <time>2019-11-02T16:19:12Z</time>
      </trkpt>
      <trkpt lat="47.01704" lon="-2.23865">
        <ele>4</ele>
        <time>2019-11-02T16:19:13Z</time>
      </trkpt>
      <trkpt lat="47.01708" lon="-2.23931">
        <ele>4</ele>
        <time>2019-11-02T16:19:14Z</time>
      </trkpt>
      <trkpt lat="47.01697" lon="-2.23976">
        <ele>4</ele>
        <time>2019-11-02T16:19:15Z</time>
      </trkpt>
      <trkpt lat="47.01697" lon="-2.24002">
        <ele>4</ele>
        <time>2019-11-02T16:19:16Z</time>
      </trkpt>
      <trkpt lat="47.0171" lon="-2.24068">
        <ele>4</ele>
        <time>2019-11-02T16:19:17Z</time>
      </trkpt>
      <trkpt lat="47.01722" lon="-2.24221">
        <ele>4</ele>
        <time>2019-11-02T16:19:18Z</time>
      </trkpt>
      <trkpt lat="47.01868" lon="-2.2447">
        <ele>5</ele>
        <time>2019-11-02T16:19:19Z</time>
      </trkpt>
      <trkpt lat="47.01882" lon="-2.24499">
        <ele>5</ele>
        <time>2019-11-02T16:19:20Z</time>
      </trkpt>
      <trkpt lat="47.01911" lon="-2.2458">
        <ele>4</ele>
        <time>2019-11-02T16:19:21Z</time>
      </trkpt>
      <trkpt lat="47.01935" lon="-2.24623">
        <ele>3</ele>
        <time>2019-11-02T16:19:22Z</time>
      </trkpt>
      <trkpt lat="47.01962" lon="-2.24658">
        <ele>3</ele>
        <time>2019-11-02T16:19:23Z</time>
      </trkpt>
      <trkpt lat="47.02019" lon="-2.24742">
        <ele>2</ele>
        <time>2019-11-02T16:19:24Z</time>
      </trkpt>
      <trkpt lat="47.02029" lon="-2.24749">
        <ele>2</ele>
        <time>2019-11-02T16:19:25Z</time>
      </trkpt>
      <trkpt lat="47.02075" lon="-2.24761">
        <ele>3</ele>
        <time>2019-11-02T16:19:26Z</time>
      </trkpt>
      <trkpt lat="47.02138" lon="-2.24784">
        <ele>3</ele>
        <time>2019-11-02T16:19:27Z</time>
      </trkpt>
      <trkpt lat="47.02149" lon="-2.24784">
        <ele>3</ele>
        <time>2019-11-02T16:19:28Z</time>
      </trkpt>
      <trkpt lat="47.02171" lon="-2.24774">
        <ele>3</ele>
        <time>2019-11-02T16:19:29Z</time>
      </trkpt>
      <trkpt lat="47.02175" lon="-2.24776">
        <ele>3</ele>
        <time>2019-11-02T16:19:30Z</time>
      </trkpt>
      <trkpt lat="47.02179" lon="-2.24783">
        <ele>3</ele>
        <time>2019-11-02T16:19:31Z</time>
      </trkpt>
      <trkpt lat="47.02196" lon="-2.24892">
        <ele>4</ele>
        <time>2019-11-02T16:19:32Z</time>
      </trkpt>
      <trkpt lat="47.02229" lon="-2.24957">
        <ele>4</ele>
        <time>2019-11-02T16:19:33Z</time>
      </trkpt>
      <trkpt lat="47.02235" lon="-2.24993">
        <ele>5</ele>
        <time>2019-11-02T16:19:34Z</time>
      </trkpt>
      <trkpt lat="47.0224" lon="-2.24995">
        <ele>5</ele>
        <time>2019-11-02T16:19:35Z</time>
      </trkpt>
      <trkpt lat="47.02256" lon="-2.24992">
        <ele>5</ele>
        <time>2019-11-02T16:19:36Z</time>
      </trkpt>
      <trkpt lat="47.02296" lon="-2.24994">
        <ele>5</ele>
        <time>2019-11-02T16:19:37Z</time>
      </trkpt>
      <trkpt lat="47.02347" lon="-2.24999">
        <ele>5</ele>
        <time>2019-11-02T16:19:38Z</time>
      </trkpt>
      <trkpt lat="47.02351" lon="-2.25002">
        <ele>5</ele>
        <time>2019-11-02T16:19:39Z</time>
      </trkpt>
      <trkpt lat="47.02357" lon="-2.25048">
        <ele>5</ele>
        <time>2019-11-02T16:19:40Z</time>
      </trkpt>
      <trkpt lat="47.02339" lon="-2.25092">
        <ele>6</ele>
        <time>2019-11-02T16:19:41Z</time>
      </trkpt>
      <trkpt lat="47.02337" lon="-2.25113">
        <ele>5</ele>
        <time>2019-11-02T16:19:42Z</time>
      </trkpt>
      <trkpt lat="47.0235" lon="-2.25168">
        <ele>4</ele>
        <time>2019-11-02T16:19:43Z</time>
      </trkpt>
      <trkpt lat="47.02356" lon="-2.25182">
        <ele>4</ele>
        <time>2019-11-02T16:19:44Z</time>
      </trkpt>
      <trkpt lat="47.0236" lon="-2.25184">
        <ele>4</ele>
        <time>2019-11-02T16:19:45Z</time>
      </trkpt>
      <trkpt lat="47.02365" lon="-2.25183">
        <ele>4</ele>
        <time>2019-11-02T16:19:46Z</time>
      </trkpt>
      <trkpt lat="47.02463" lon="-2.25141">
        <ele>4</ele>
        <time>2019-11-02T16:19:47Z</time>
      </trkpt>
      <trkpt lat="47.02579" lon="-2.25078">
        <ele>4</ele>
        <time>2019-11-02T16:19:48Z</time>
      </trkpt>
      <trkpt lat="47.02608" lon="-2.2506">
        <ele>3</ele>
        <time>2019-11-02T16:19:49Z</time>
      </trkpt>
      <trkpt lat="47.02623" lon="-2.25061">
        <ele>3</ele>
        <time>2019-11-02T16:19:50Z</time>
      </trkpt>
      <trkpt lat="47.02662" lon="-2.25096">
        <ele>3</ele>
        <time>2019-11-02T16:19:51Z</time>
      </trkpt>
      <trkpt lat="47.02682" lon="-2.2513">
        <ele>3</ele>
        <time>2019-11-02T16:19:52Z</time>
      </trkpt>
      <trkpt lat="47.02699" lon="-2.25189">
        <ele>3</ele>
        <time>2019-11-02T16:19:53Z</time>
      </trkpt>
      <trkpt lat="47.02707" lon="-2.25227">
        <ele>3</ele>
        <time>2019-11-02T16:19:54Z</time>
      </trkpt>
      <trkpt lat="47.02708" lon="-2.25268">
        <ele>3</ele>
        <time>2019-11-02T16:19:55Z</time>
      </trkpt>
      <trkpt lat="47.02694" lon="-2.25376">
        <ele>3</ele>
        <time>2019-11-02T16:19:56Z</time>
      </trkpt>
      <trkpt lat="47.02658" lon="-2.25604">
        <ele>3</ele>
        <time>2019-11-02T16:19:57Z</time>
      </trkpt>
      <trkpt lat="47.02659" lon="-2.25628">
        <ele>4</ele>
        <time>2019-11-02T16:19:58Z</time>
      </trkpt>
      <trkpt lat="47.02662" lon="-2.25649">
        <ele>4</ele>
        <time>2019-11-02T16:19:59Z</time>
      </trkpt>
      <trkpt lat="47.02669" lon="-2.2567">
        <ele>4</ele>
        <time>2019-11-02T16:20:00Z</time>
      </trkpt>
      <trkpt lat="47.02684" lon="-2.25695">
        <ele>4</ele>
        <time>2019-11-02T16:20:01Z</time>
      </trkpt>
      <trkpt lat="47.0274" lon="-2.25762">
        <ele>3</ele>
        <time>2019-11-02T16:20:02Z</time>
      </trkpt>
      <trkpt lat="47.02755" lon="-2.25785">
        <ele>3</ele>
        <time>2019-11-02T16:20:03Z</time>
      </trkpt>
      <trkpt lat="47.02762" lon="-2.25802">
        <ele>3</ele>
        <time>2019-11-02T16:20:04Z</time>
      </trkpt>
      <trkpt lat="47.02771" lon="-2.25865">
        <ele>3</ele>
        <time>2019-11-02T16:20:05Z</time>
      </trkpt>
      <trkpt lat="47.02776" lon="-2.25991">
        <ele>3</ele>
        <time>2019-11-02T16:20:06Z</time>
      </trkpt>
      <trkpt lat="47.02778" lon="-2.26158">
        <ele>5</ele>
        <time>2019-11-02T16:20:07Z</time>
      </trkpt>
      <trkpt lat="47.02775" lon="-2.26192">
        <ele>5</ele>
        <time>2019-11-02T16:20:08Z</time>
      </trkpt>
      <trkpt lat="47.02762" lon="-2.26258">
        <ele>5</ele>
        <time>2019-11-02T16:20:09Z</time>
      </trkpt>
      <trkpt lat="47.02719" lon="-2.26439">
        <ele>6</ele>
        <time>2019-11-02T16:20:10Z</time>
      </trkpt>
      <trkpt lat="47.02696" lon="-2.26608">
        <ele>5</ele>
        <time>2019-11-02T16:20:11Z</time>
      </trkpt>
      <trkpt lat="47.02693" lon="-2.26612">
        <ele>5</ele>
        <time>2019-11-02T16:20:12Z</time>
      </trkpt>
      <trkpt lat="47.02686" lon="-2.26615">
        <ele>5</ele>
        <time>2019-11-02T16:20:13Z</time>
      </trkpt>
      <trkpt lat="47.02676" lon="-2.26615">
        <ele>5</ele>
        <time>2019-11-02T16:20:14Z</time>
      </trkpt>
      <trkpt lat="47.0265" lon="-2.26607">
        <ele>4</ele>
        <time>2019-11-02T16:20:15Z</time>
      </trkpt>
      <trkpt lat="47.02636" lon="-2.26607">
        <ele>4</ele>
        <time>2019-11-02T16:20:16Z</time>
      </trkpt>
      <trkpt lat="47.02568" lon="-2.26623">
        <ele>3</ele>
        <time>2019-11-02T16:20:17Z</time>
      </trkpt>
      <trkpt lat="47.02534" lon="-2.26641">
        <ele>3</ele>
        <time>2019-11-02T16:20:18Z</time>
      </trkpt>
      <trkpt lat="47.02482" lon="-2.26652">
        <ele>3</ele>
        <time>2019-11-02T16:20:19Z</time>
      </trkpt>
      <trkpt lat="47.02444" lon="-2.26663">
        <ele>3</ele>
        <time>2019-11-02T16:20:20Z</time>
      </trkpt>
      <trkpt lat="47.02433" lon="-2.26667">
        <ele>3</ele>
        <time>2019-11-02T16:20:21Z</time>
      </trkpt>
      <trkpt lat="47.02377" lon="-2.26712">
        <ele>3</ele>
        <time>2019-11-02T16:20:22Z</time>
      </trkpt>
      <trkpt lat="47.0236" lon="-2.26718">
        <ele>4</ele>
        <time>2019-11-02T16:20:23Z</time>
      </trkpt>
      <trkpt lat="47.02341" lon="-2.26729">
        <ele>4</ele>
        <time>2019-11-02T16:20:24Z</time>
      </trkpt>
      <trkpt lat="47.023" lon="-2.26744">
        <ele>4</ele>
        <time>2019-11-02T16:20:25Z</time>
      </trkpt>
      <trkpt lat="47.02284" lon="-2.26745">
        <ele>4</ele>
        <time>2019-11-02T16:20:26Z</time>
      </trkpt>
      <trkpt lat="47.02261" lon="-2.26742">
        <ele>4</ele>
        <time>2019-11-02T16:20:27Z</time>
      </trkpt>
      <trkpt lat="47.02223" lon="-2.26755">
        <ele>4</ele>
        <time>2019-11-02T16:20:28Z</time>
      </trkpt>
      <trkpt lat="47.02187" lon="-2.26762">
        <ele>5</ele>
        <time>2019-11-02T16:20:29Z</time>
      </trkpt>
      <trkpt lat="47.02082" lon="-2.26768">
        <ele>5</ele>
        <time>2019-11-02T16:20:30Z</time>
      </trkpt>
      <trkpt lat="47.0205" lon="-2.26761">
        <ele>5</ele>
        <time>2019-11-02T16:20:31Z</time>
      </trkpt>
      <trkpt lat="47.02047" lon="-2.26767">
        <ele>5</ele>
        <time>2019-11-02T16:20:32Z</time>
      </trkpt>
      <trkpt lat="47.02047" lon="-2.26771">
        <ele>5</ele>
        <time>2019-11-02T16:20:33Z</time>
      </trkpt>
      <trkpt lat="47.02068" lon="-2.26814">
        <ele>5</ele>
        <time>2019-11-02T16:20:34Z</time>
      </trkpt>
      <trkpt lat="47.02099" lon="-2.26962">
        <ele>4</ele>
        <time>2019-11-02T16:20:35Z</time>
      </trkpt>
      <trkpt lat="47.02124" lon="-2.27098">
        <ele>5</ele>
        <time>2019-11-02T16:20:36Z</time>
      </trkpt>
      <trkpt lat="47.02268" lon="-2.28153">
        <ele>4</ele>
        <time>2019-11-02T16:20:37Z</time>
      </trkpt>
      <trkpt lat="47.02273" lon="-2.28157">
        <ele>4</ele>
        <time>2019-11-02T16:20:38Z</time>
      </trkpt>
      <trkpt lat="47.02311" lon="-2.2815">
        <ele>5</ele>
        <time>2019-11-02T16:20:39Z</time>
      </trkpt>
      <trkpt lat="47.02343" lon="-2.2815">
        <ele>5</ele>
        <time>2019-11-02T16:20:40Z</time>
      </trkpt>
      <trkpt lat="47.02373" lon="-2.28154">
        <ele>6</ele>
        <time>2019-11-02T16:20:41Z</time>
      </trkpt>
      <trkpt lat="47.0241" lon="-2.28164">
        <ele>7</ele>
        <time>2019-11-02T16:20:42Z</time>
      </trkpt>
      <trkpt lat="47.0247" lon="-2.28185">
        <ele>8</ele>
        <time>2019-11-02T16:20:43Z</time>
      </trkpt>
      <trkpt lat="47.02517" lon="-2.28214">
        <ele>10</ele>
        <time>2019-11-02T16:20:44Z</time>
      </trkpt>
      <trkpt lat="47.02542" lon="-2.28225">
        <ele>10</ele>
        <time>2019-11-02T16:20:45Z</time>
      </trkpt>
      <trkpt lat="47.02545" lon="-2.28231">
        <ele>10</ele>
        <time>2019-11-02T16:20:46Z</time>
      </trkpt>
      <trkpt lat="47.02544" lon="-2.28243">
        <ele>10</ele>
        <time>2019-11-02T16:20:47Z</time>
      </trkpt>
      <trkpt lat="47.02514" lon="-2.28288">
        <ele>10</ele>
        <time>2019-11-02T16:20:48Z</time>
      </trkpt>
      <trkpt lat="47.02491" lon="-2.28335">
        <ele>9</ele>
        <time>2019-11-02T16:20:49Z</time>
      </trkpt>
      <trkpt lat="47.02476" lon="-2.284">
        <ele>8</ele>
        <time>2019-11-02T16:20:50Z</time>
      </trkpt>
      <trkpt lat="47.02443" lon="-2.2849">
        <ele>7</ele>
        <time>2019-11-02T16:20:51Z</time>
      </trkpt>
      <trkpt lat="47.02395" lon="-2.28663">
        <ele>6</ele>
        <time>2019-11-02T16:20:52Z</time>
      </trkpt>
      <trkpt lat="47.02392" lon="-2.28708">
        <ele>6</ele>
        <time>2019-11-02T16:20:53Z</time>
      </trkpt>
      <trkpt lat="47.02408" lon="-2.28784">
        <ele>6</ele>
        <time>2019-11-02T16:20:54Z</time>
      </trkpt>
      <trkpt lat="47.02408" lon="-2.28802">
        <ele>6</ele>
        <time>2019-11-02T16:20:55Z</time>
      </trkpt>
      <trkpt lat="47.02403" lon="-2.28834">
        <ele>6</ele>
        <time>2019-11-02T16:20:56Z</time>
      </trkpt>
      <trkpt lat="47.02401" lon="-2.28954">
        <ele>5</ele>
        <time>2019-11-02T16:20:57Z</time>
      </trkpt>
      <trkpt lat="47.02402" lon="-2.29004">
        <ele>5</ele>
        <time>2019-11-02T16:20:58Z</time>
      </trkpt>
      <trkpt lat="47.02415" lon="-2.29171">
        <ele>6</ele>
        <time>2019-11-02T16:20:59Z</time>
      </trkpt>
      <trkpt lat="47.0224" lon="-2.29257">
        <ele>4</ele>
        <time>2019-11-02T16:21:00Z</time>
      </trkpt>
      <trkpt lat="47.02094" lon="-2.29335">
        <ele>6</ele>
        <time>2019-11-02T16:21:01Z</time>
      </trkpt>
      <trkpt lat="47.0219" lon="-2.29605">
        <ele>4</ele>
        <time>2019-11-02T16:21:02Z</time>
      </trkpt>
      <trkpt lat="47.02221" lon="-2.29781">
        <ele>5</ele>
        <time>2019-11-02T16:21:03Z</time>
      </trkpt>
      <trkpt lat="47.02239" lon="-2.29848">
        <ele>6</ele>
        <time>2019-11-02T16:21:04Z</time>
      </trkpt>
      <trkpt lat="47.02261" lon="-2.29844">
        <ele>6</ele>
        <time>2019-11-02T16:21:05Z</time>
      </trkpt>
      <trkpt lat="47.02281" lon="-2.29834">
        <ele>6</ele>
        <time>2019-11-02T16:21:06Z</time>
      </trkpt>
      <trkpt lat="47.02299" lon="-2.29818">
        <ele>7</ele>
        <time>2019-11-02T16:21:07Z</time>
      </trkpt>
      <trkpt lat="47.02321" lon="-2.29789">
        <ele>7</ele>
        <time>2019-11-02T16:21:08Z</time>
      </trkpt>
      <trkpt lat="47.02344" lon="-2.29772">
        <ele>7</ele>
        <time>2019-11-02T16:21:09Z</time>
      </trkpt>
      <trkpt lat="47.02365" lon="-2.29762">
        <ele>6</ele>
        <time>2019-11-02T16:21:10Z</time>
      </trkpt>
      <trkpt lat="47.02375" lon="-2.29939">
        <ele>6</ele>
        <time>2019-11-02T16:21:11Z</time>
      </trkpt>
      <trkpt lat="47.02332" lon="-2.29958">
        <ele>8</ele>
        <time>2019-11-02T16:21:12Z</time>
      </trkpt>
      <trkpt lat="47.02264" lon="-2.29997">
        <ele>7</ele>
        <time>2019-11-02T16:21:13Z</time>
      </trkpt>
      <trkpt lat="47.02253" lon="-2.29955">
        <ele>7</ele>
        <time>2019-11-02T16:21:14Z</time>
      </trkpt>
      <trkpt lat="47.02239" lon="-2.29848">
        <ele>6</ele>
        <time>2019-11-02T16:21:15Z</time>
      </trkpt>
      <trkpt lat="47.02221" lon="-2.29781">
        <ele>5</ele>
        <time>2019-11-02T16:21:16Z</time>
      </trkpt>
      <trkpt lat="47.0219" lon="-2.29605">
        <ele>4</ele>
        <time>2019-11-02T16:21:17Z</time>
      </trkpt>
      <trkpt lat="47.02094" lon="-2.29335">
        <ele>6</ele>
        <time>2019-11-02T16:21:18Z</time>
      </trkpt>
      <trkpt lat="47.02029" lon="-2.29373">
        <ele>5</ele>
        <time>2019-11-02T16:21:19Z</time>
      </trkpt>
      <trkpt lat="47.01977" lon="-2.29391">
        <ele>4</ele>
        <time>2019-11-02T16:21:20Z</time>
      </trkpt>
      <trkpt lat="47.01881" lon="-2.29417">
        <ele>6</ele>
        <time>2019-11-02T16:21:21Z</time>
      </trkpt>
      <trkpt lat="47.01833" lon="-2.29436">
        <ele>7</ele>
        <time>2019-11-02T16:21:22Z</time>
      </trkpt>
      <trkpt lat="47.01763" lon="-2.29476">
        <ele>10</ele>
        <time>2019-11-02T16:21:23Z</time>
      </trkpt>
      <trkpt lat="47.01742" lon="-2.29389">
        <ele>10</ele>
        <time>2019-11-02T16:21:24Z</time>
      </trkpt>
      <trkpt lat="47.01671" lon="-2.2923">
        <ele>10</ele>
        <time>2019-11-02T16:21:25Z</time>
      </trkpt>
      <trkpt lat="47.01645" lon="-2.29252">
        <ele>11</ele>
        <time>2019-11-02T16:21:26Z</time>
      </trkpt>
      <trkpt lat="47.01627" lon="-2.29303">
        <ele>11</ele>
        <time>2019-11-02T16:21:27Z</time>
      </trkpt>
      <trkpt lat="47.0159" lon="-2.29362">
        <ele>12</ele>
        <time>2019-11-02T16:21:28Z</time>
      </trkpt>
      <trkpt lat="47.01569" lon="-2.29429">
        <ele>12</ele>
        <time>2019-11-02T16:21:29Z</time>
      </trkpt>
      <trkpt lat="47.01455" lon="-2.29349">
        <ele>10</ele>
        <time>2019-11-02T16:21:30Z</time>
      </trkpt>
      <trkpt lat="47.01388" lon="-2.2932">
        <ele>10</ele>
        <time>2019-11-02T16:21:31Z</time>
      </trkpt>
      <trkpt lat="47.01391" lon="-2.29252">
        <ele>9</ele>
        <time>2019-11-02T16:21:32Z</time>
      </trkpt>
      <trkpt lat="47.01425" lon="-2.29146">
        <ele>10</ele>
        <time>2019-11-02T16:21:33Z</time>
      </trkpt>
      <trkpt lat="47.01436" lon="-2.29136">
        <ele>10</ele>
        <time>2019-11-02T16:21:34Z</time>
      </trkpt>
      <trkpt lat="47.01431" lon="-2.2907">
        <ele>12</ele>
        <time>2019-11-02T16:21:35Z</time>
      </trkpt>
      <trkpt lat="47.01411" lon="-2.28978">
        <ele>10</ele>
        <time>2019-11-02T16:21:36Z</time>
      </trkpt>
      <trkpt lat="47.01402" lon="-2.28951">
        <ele>10</ele>
        <time>2019-11-02T16:21:37Z</time>
      </trkpt>
      <trkpt lat="47.01364" lon="-2.28874">
        <ele>7</ele>
        <time>2019-11-02T16:21:38Z</time>
      </trkpt>
      <trkpt lat="47.01326" lon="-2.28809">
        <ele>6</ele>
        <time>2019-11-02T16:21:39Z</time>
      </trkpt>
      <trkpt lat="47.01409" lon="-2.28692">
        <ele>5</ele>
        <time>2019-11-02T16:21:40Z</time>
      </trkpt>
      <trkpt lat="47.01373" lon="-2.28553">
        <ele>3</ele>
        <time>2019-11-02T16:21:41Z</time>
      </trkpt>
      <trkpt lat="47.01366" lon="-2.28516">
        <ele>3</ele>
        <time>2019-11-02T16:21:42Z</time>
      </trkpt>
      <trkpt lat="47.01372" lon="-2.28487">
        <ele>3</ele>
        <time>2019-11-02T16:21:43Z</time>
      </trkpt>
      <trkpt lat="47.01399" lon="-2.28438">
        <ele>3</ele>
        <time>2019-11-02T16:21:44Z</time>
      </trkpt>
      <trkpt lat="47.01406" lon="-2.28416">
        <ele>3</ele>
        <time>2019-11-02T16:21:45Z</time>
      </trkpt>
      <trkpt lat="47.01408" lon="-2.28399">
        <ele>3</ele>
        <time>2019-11-02T16:21:46Z</time>
      </trkpt>
      <trkpt lat="47.0138" lon="-2.28392">
        <ele>4</ele>
        <time>2019-11-02T16:21:47Z</time>
      </trkpt>
      <trkpt lat="47.01316" lon="-2.28369">
        <ele>4</ele>
        <time>2019-11-02T16:21:48Z</time>
      </trkpt>
      <trkpt lat="47.01301" lon="-2.28366">
        <ele>3</ele>
        <time>2019-11-02T16:21:49Z</time>
      </trkpt>
      <trkpt lat="47.01295" lon="-2.28357">
        <ele>3</ele>
        <time>2019-11-02T16:21:50Z</time>
      </trkpt>
      <trkpt lat="47.01281" lon="-2.28294">
        <ele>3</ele>
        <time>2019-11-02T16:21:51Z</time>
      </trkpt>
      <trkpt lat="47.01272" lon="-2.28267">
        <ele>3</ele>
        <time>2019-11-02T16:21:52Z</time>
      </trkpt>
      <trkpt lat="47.01255" lon="-2.28229">
        <ele>2</ele>
        <time>2019-11-02T16:21:53Z</time>
      </trkpt>
      <trkpt lat="47.01259" lon="-2.28189">
        <ele>3</ele>
        <time>2019-11-02T16:21:54Z</time>
      </trkpt>
      <trkpt lat="47.01249" lon="-2.28136">
        <ele>3</ele>
        <time>2019-11-02T16:21:55Z</time>
      </trkpt>
      <trkpt lat="47.01252" lon="-2.28111">
        <ele>3</ele>
        <time>2019-11-02T16:21:56Z</time>
      </trkpt>
      <trkpt lat="47.01271" lon="-2.28057">
        <ele>4</ele>
        <time>2019-11-02T16:21:57Z</time>
      </trkpt>
      <trkpt lat="47.01279" lon="-2.28027">
        <ele>4</ele>
        <time>2019-11-02T16:21:58Z</time>
      </trkpt>
      <trkpt lat="47.01278" lon="-2.28019">
        <ele>4</ele>
        <time>2019-11-02T16:21:59Z</time>
      </trkpt>
      <trkpt lat="47.01231" lon="-2.27975">
        <ele>4</ele>
        <time>2019-11-02T16:22:00Z</time>
      </trkpt>
      <trkpt lat="47.01183" lon="-2.27867">
        <ele>3</ele>
        <time>2019-11-02T16:22:01Z</time>
      </trkpt>
      <trkpt lat="47.01164" lon="-2.27807">
        <ele>4</ele>
        <time>2019-11-02T16:22:02Z</time>
      </trkpt>
      <trkpt lat="47.01125" lon="-2.27727">
        <ele>3</ele>
        <time>2019-11-02T16:22:03Z</time>
      </trkpt>
      <trkpt lat="47.01123" lon="-2.27711">
        <ele>4</ele>
        <time>2019-11-02T16:22:04Z</time>
      </trkpt>
      <trkpt lat="47.01127" lon="-2.27701">
        <ele>4</ele>
        <time>2019-11-02T16:22:05Z</time>
      </trkpt>
      <trkpt lat="47.01126" lon="-2.27676">
        <ele>4</ele>
        <time>2019-11-02T16:22:06Z</time>
      </trkpt>
      <trkpt lat="47.01117" lon="-2.27619">
        <ele>4</ele>
        <time>2019-11-02T16:22:07Z</time>
      </trkpt>
      <trkpt lat="47.01114" lon="-2.27612">
        <ele>4</ele>
        <time>2019-11-02T16:22:08Z</time>
      </trkpt>
      <trkpt lat="47.01046" lon="-2.27522">
        <ele>2</ele>
        <time>2019-11-02T16:22:09Z</time>
      </trkpt>
      <trkpt lat="47.01021" lon="-2.27493">
        <ele>1</ele>
        <time>2019-11-02T16:22:10Z</time>
      </trkpt>
      <trkpt lat="47.00967" lon="-2.27294">
        <ele>2</ele>
        <time>2019-11-02T16:22:11Z</time>
      </trkpt>
      <trkpt lat="47.00961" lon="-2.27268">
        <ele>1</ele>
        <time>2019-11-02T16:22:12Z</time>
      </trkpt>
      <trkpt lat="47.00962" lon="-2.2723">
        <ele>1</ele>
        <time>2019-11-02T16:22:13Z</time>
      </trkpt>
      <trkpt lat="47.00947" lon="-2.27149">
        <ele>1</ele>
        <time>2019-11-02T16:22:14Z</time>
      </trkpt>
      <trkpt lat="47.0095" lon="-2.27116">
        <ele>1</ele>
        <time>2019-11-02T16:22:15Z</time>
      </trkpt>
      <trkpt lat="47.00965" lon="-2.2709">
        <ele>1</ele>
        <time>2019-11-02T16:22:16Z</time>
      </trkpt>
      <trkpt lat="47.00992" lon="-2.27057">
        <ele>1</ele>
        <time>2019-11-02T16:22:17Z</time>
      </trkpt>
      <trkpt lat="47.01035" lon="-2.26971">
        <ele>1</ele>
        <time>2019-11-02T16:22:18Z</time>
      </trkpt>
      <trkpt lat="47.0104" lon="-2.2695">
        <ele>2</ele>
        <time>2019-11-02T16:22:19Z</time>
      </trkpt>
      <trkpt lat="47.01035" lon="-2.26941">
        <ele>2</ele>
        <time>2019-11-02T16:22:20Z</time>
      </trkpt>
      <trkpt lat="47.01024" lon="-2.2693">
        <ele>2</ele>
        <time>2019-11-02T16:22:21Z</time>
      </trkpt>
      <trkpt lat="47.0097" lon="-2.26906">
        <ele>2</ele>
        <time>2019-11-02T16:22:22Z</time>
      </trkpt>
      <trkpt lat="47.00887" lon="-2.2688">
        <ele>2</ele>
        <time>2019-11-02T16:22:23Z</time>
      </trkpt>
      <trkpt lat="47.00824" lon="-2.2687">
        <ele>1</ele>
        <time>2019-11-02T16:22:24Z</time>
      </trkpt>
      <trkpt lat="47.00817" lon="-2.26859">
        <ele>1</ele>
        <time>2019-11-02T16:22:25Z</time>
      </trkpt>
      <trkpt lat="47.00792" lon="-2.26851">
        <ele>1</ele>
        <time>2019-11-02T16:22:26Z</time>
      </trkpt>
      <trkpt lat="47.00776" lon="-2.26842">
        <ele>1</ele>
        <time>2019-11-02T16:22:27Z</time>
      </trkpt>
      <trkpt lat="47.00708" lon="-2.26782">
        <ele>2</ele>
        <time>2019-11-02T16:22:28Z</time>
      </trkpt>
      <trkpt lat="47.00662" lon="-2.26746">
        <ele>2</ele>
        <time>2019-11-02T16:22:29Z</time>
      </trkpt>
      <trkpt lat="47.00648" lon="-2.26719">
        <ele>1</ele>
        <time>2019-11-02T16:22:30Z</time>
      </trkpt>
      <trkpt lat="47.00657" lon="-2.26688">
        <ele>1</ele>
        <time>2019-11-02T16:22:31Z</time>
      </trkpt>
      <trkpt lat="47.00662" lon="-2.26619">
        <ele>3</ele>
        <time>2019-11-02T16:22:32Z</time>
      </trkpt>
      <trkpt lat="47.00667" lon="-2.2661">
        <ele>3</ele>
        <time>2019-11-02T16:22:33Z</time>
      </trkpt>
      <trkpt lat="47.00683" lon="-2.26598">
        <ele>3</ele>
        <time>2019-11-02T16:22:34Z</time>
      </trkpt>
      <trkpt lat="47.00686" lon="-2.26591">
        <ele>3</ele>
        <time>2019-11-02T16:22:35Z</time>
      </trkpt>
      <trkpt lat="47.00761" lon="-2.263">
        <ele>1</ele>
        <time>2019-11-02T16:22:36Z</time>
      </trkpt>
      <trkpt lat="47.00796" lon="-2.26153">
        <ele>1</ele>
        <time>2019-11-02T16:22:37Z</time>
      </trkpt>
      <trkpt lat="47.0082" lon="-2.26028">
        <ele>1</ele>
        <time>2019-11-02T16:22:38Z</time>
      </trkpt>
      <trkpt lat="47.00818" lon="-2.26014">
        <ele>1</ele>
        <time>2019-11-02T16:22:39Z</time>
      </trkpt>
      <trkpt lat="47.00809" lon="-2.26002">
        <ele>1</ele>
        <time>2019-11-02T16:22:40Z</time>
      </trkpt>
      <trkpt lat="47.00784" lon="-2.25985">
        <ele>1</ele>
        <time>2019-11-02T16:22:41Z</time>
      </trkpt>
      <trkpt lat="47.00772" lon="-2.2598">
        <ele>1</ele>
        <time>2019-11-02T16:22:42Z</time>
      </trkpt>
      <trkpt lat="47.00759" lon="-2.2598">
        <ele>1</ele>
        <time>2019-11-02T16:22:43Z</time>
      </trkpt>
      <trkpt lat="47.00733" lon="-2.25989">
        <ele>1</ele>
        <time>2019-11-02T16:22:44Z</time>
      </trkpt>
      <trkpt lat="47.00703" lon="-2.25995">
        <ele>1</ele>
        <time>2019-11-02T16:22:45Z</time>
      </trkpt>
      <trkpt lat="47.00672" lon="-2.25996">
        <ele>1</ele>
        <time>2019-11-02T16:22:46Z</time>
      </trkpt>
      <trkpt lat="47.00659" lon="-2.2599">
        <ele>2</ele>
        <time>2019-11-02T16:22:47Z</time>
      </trkpt>
      <trkpt lat="47.00651" lon="-2.25981">
        <ele>2</ele>
        <time>2019-11-02T16:22:48Z</time>
      </trkpt>
      <trkpt lat="47.00639" lon="-2.25952">
        <ele>2</ele>
        <time>2019-11-02T16:22:49Z</time>
      </trkpt>
      <trkpt lat="47.00637" lon="-2.25921">
        <ele>2</ele>
        <time>2019-11-02T16:22:50Z</time>
      </trkpt>
      <trkpt lat="47.0064" lon="-2.25899">
        <ele>2</ele>
        <time>2019-11-02T16:22:51Z</time>
      </trkpt>
      <trkpt lat="47.00636" lon="-2.25876">
        <ele>2</ele>
        <time>2019-11-02T16:22:52Z</time>
      </trkpt>
      <trkpt lat="47.00601" lon="-2.25849">
        <ele>2</ele>
        <time>2019-11-02T16:22:53Z</time>
      </trkpt>
      <trkpt lat="47.00589" lon="-2.25849">
        <ele>2</ele>
        <time>2019-11-02T16:22:54Z</time>
      </trkpt>
      <trkpt lat="47.00571" lon="-2.25843">
        <ele>2</ele>
        <time>2019-11-02T16:22:55Z</time>
      </trkpt>
      <trkpt lat="47.00557" lon="-2.25833">
        <ele>2</ele>
        <time>2019-11-02T16:22:56Z</time>
      </trkpt>
      <trkpt lat="47.00534" lon="-2.2581">
        <ele>2</ele>
        <time>2019-11-02T16:22:57Z</time>
      </trkpt>
      <trkpt lat="47.00508" lon="-2.25774">
        <ele>3</ele>
        <time>2019-11-02T16:22:58Z</time>
      </trkpt>
      <trkpt lat="47.0049" lon="-2.25759">
        <ele>3</ele>
        <time>2019-11-02T16:22:59Z</time>
      </trkpt>
      <trkpt lat="47.00453" lon="-2.25735">
        <ele>2</ele>
        <time>2019-11-02T16:23:00Z</time>
      </trkpt>
      <trkpt lat="47.00388" lon="-2.25698">
        <ele>1</ele>
        <time>2019-11-02T16:23:01Z</time>
      </trkpt>
      <trkpt lat="47.00324" lon="-2.25653">
        <ele>1</ele>
        <time>2019-11-02T16:23:02Z</time>
      </trkpt>
      <trkpt lat="47.00291" lon="-2.25634">
        <ele>2</ele>
        <time>2019-11-02T16:23:03Z</time>
      </trkpt>
      <trkpt lat="47.0029" lon="-2.25625">
        <ele>2</ele>
        <time>2019-11-02T16:23:04Z</time>
      </trkpt>
      <trkpt lat="47.00305" lon="-2.25577">
        <ele>1</ele>
        <time>2019-11-02T16:23:05Z</time>
      </trkpt>
      <trkpt lat="47.00305" lon="-2.25572">
        <ele>1</ele>
        <time>2019-11-02T16:23:06Z</time>
      </trkpt>
      <trkpt lat="47.00299" lon="-2.2556">
        <ele>2</ele>
        <time>2019-11-02T16:23:07Z</time>
      </trkpt>
      <trkpt lat="47.00243" lon="-2.25562">
        <ele>2</ele>
        <time>2019-11-02T16:23:08Z</time>
      </trkpt>
      <trkpt lat="47.00201" lon="-2.25568">
        <ele>3</ele>
        <time>2019-11-02T16:23:09Z</time>
      </trkpt>
      <trkpt lat="47.00166" lon="-2.25568">
        <ele>4</ele>
        <time>2019-11-02T16:23:10Z</time>
      </trkpt>
      <trkpt lat="47.00143" lon="-2.25565">
        <ele>3</ele>
        <time>2019-11-02T16:23:11Z</time>
      </trkpt>
      <trkpt lat="47.00135" lon="-2.25553">
        <ele>3</ele>
        <time>2019-11-02T16:23:12Z</time>
      </trkpt>
      <trkpt lat="47.00116" lon="-2.2545">
        <ele>2</ele>
        <time>2019-11-02T16:23:13Z</time>
      </trkpt>
      <trkpt lat="47.00087" lon="-2.25366">
        <ele>2</ele>
        <time>2019-11-02T16:23:14Z</time>
      </trkpt>
      <trkpt lat="47.00073" lon="-2.2531">
        <ele>2</ele>
        <time>2019-11-02T16:23:15Z</time>
      </trkpt>
      <trkpt lat="47.00047" lon="-2.25238">
        <ele>1</ele>
        <time>2019-11-02T16:23:16Z</time>
      </trkpt>
      <trkpt lat="47.00013" lon="-2.25162">
        <ele>2.4</ele>
        <time>2019-11-02T16:23:17Z</time>
      </trkpt>
      <trkpt lat="47.00008" lon="-2.2511">
        <ele>0.62109375</ele>
      </trkpt>
      <trkpt lat="47.00032" lon="-2.25098">
        <ele>0.2109375</ele>
      </trkpt>
      <trkpt lat="47.00037" lon="-2.25098">
        <ele>0.1875</ele>
      </trkpt>
      <trkpt lat="47.00111" lon="-2.25077">
        <ele>3</ele>
      </trkpt>
      <trkpt lat="47.00116" lon="-2.25075">
        <ele>3.1</ele>
      </trkpt>
      <trkpt lat="47.00119" lon="-2.2507">
        <ele>3.1</ele>
      </trkpt>
      <trkpt lat="47.00121" lon="-2.25063">
        <ele>3.1</ele>
      </trkpt>
      <trkpt lat="47.00122" lon="-2.25057">
        <ele>3</ele>
      </trkpt>
      <trkpt lat="47.00125" lon="-2.25051">
        <ele>3</ele>
      </trkpt>
      <trkpt lat="47.00125" lon="-2.25044">
        <ele>3</ele>
      </trkpt>
      <trkpt lat="47.00125" lon="-2.25038">
        <ele>3</ele>
      </trkpt>
      <trkpt lat="47.00126" lon="-2.25031">
        <ele>3</ele>
      </trkpt>
      <trkpt lat="47.0005" lon="-2.24755">
        <ele>0.88671875</ele>
      </trkpt>
      <trkpt lat="47.00122" lon="-2.24722">
        <ele>2.73828125</ele>
      </trkpt>
      <trkpt lat="47.00262" lon="-2.24588">
        <ele>5</ele>
      </trkpt>
      <trkpt lat="47.00331" lon="-2.24472">
        <ele>5</ele>
      </trkpt>
      <trkpt lat="47.00364" lon="-2.24389">
        <ele>5</ele>
      </trkpt>
      <trkpt lat="47.00326" lon="-2.24476">
        <ele>5</ele>
      </trkpt>
      <trkpt lat="47.00259" lon="-2.24579">
        <ele>5</ele>
      </trkpt>
      <trkpt lat="47.00188" lon="-2.2466">
        <ele>3.9375</ele>
      </trkpt>
      <trkpt lat="47.00121" lon="-2.24723">
        <ele>2.734375</ele>
      </trkpt>
      <trkpt lat="47.00045" lon="-2.24757">
        <ele>0.671875</ele>
      </trkpt>
      <trkpt lat="46.99911" lon="-2.24808">
        <ele>0.05078125</ele>
      </trkpt>
      <trkpt lat="46.99901" lon="-2.24843">
        <ele>0.2421875</ele>
      </trkpt>
      <trkpt lat="46.99838" lon="-2.24839">
        <ele>1</ele>
      </trkpt>
      <trkpt lat="46.99832" lon="-2.24838">
        <ele>1</ele>
      </trkpt>
      <trkpt lat="46.99826" lon="-2.2484">
        <ele>1</ele>
      </trkpt>
      <trkpt lat="46.99823" lon="-2.24849">
        <ele>1</ele>
      </trkpt>
      <trkpt lat="46.99822" lon="-2.24858">
        <ele>1</ele>
      </trkpt>
      <trkpt lat="46.99825" lon="-2.24866">
        <ele>1</ele>
      </trkpt>
      <trkpt lat="46.99827" lon="-2.24875">
        <ele>1</ele>
      </trkpt>
      <trkpt lat="46.9983" lon="-2.24884">
        <ele>1</ele>
      </trkpt>
      <trkpt lat="46.99833" lon="-2.24893">
        <ele>1</ele>
      </trkpt>
      <trkpt lat="46.99831" lon="-2.249">
        <ele>1</ele>
      </trkpt>
      <trkpt lat="46.99827" lon="-2.24904">
        <ele>1</ele>
      </trkpt>
      <trkpt lat="46.99822" lon="-2.24907">
        <ele>1</ele>
      </trkpt>
      <trkpt lat="46.99818" lon="-2.2491">
        <ele>1</ele>
      </trkpt>
      <trkpt lat="46.99814" lon="-2.24913">
        <ele>1</ele>
      </trkpt>
      <trkpt lat="46.99789" lon="-2.24863">
        <ele>1</ele>
      </trkpt>
      <trkpt lat="46.99787" lon="-2.24858">
        <ele>1</ele>
      </trkpt>
      <trkpt lat="46.99784" lon="-2.24852">
        <ele>1</ele>
      </trkpt>
      <trkpt lat="46.9978" lon="-2.24848">
        <ele>1</ele>
      </trkpt>
      <trkpt lat="46.99778" lon="-2.24841">
        <ele>1</ele>
      </trkpt>
      <trkpt lat="46.99777" lon="-2.24834">
        <ele>1</ele>
      </trkpt>
      <trkpt lat="46.99774" lon="-2.24828">
        <ele>1</ele>
      </trkpt>
      <trkpt lat="46.99771" lon="-2.24823">
        <ele>1</ele>
      </trkpt>
      <trkpt lat="46.99768" lon="-2.24817">
        <ele>1</ele>
      </trkpt>
      <trkpt lat="46.99765" lon="-2.24812">
        <ele>1</ele>
      </trkpt>
      <trkpt lat="46.99761" lon="-2.24807">
        <ele>1</ele>
      </trkpt>
      <trkpt lat="46.99757" lon="-2.24804">
        <ele>1</ele>
      </trkpt>
      <trkpt lat="46.9974" lon="-2.24807">
        <ele>1</ele>
      </trkpt>
      <trkpt lat="46.99742" lon="-2.24807">
        <ele>2</ele>
      </trkpt>
      <trkpt lat="46.99694" lon="-2.24796">
        <ele>2</ele>
      </trkpt>
      <trkpt lat="46.99641" lon="-2.24784">
        <ele>2.3</ele>
      </trkpt>
      <trkpt lat="46.99598" lon="-2.24773">
        <ele>2</ele>
      </trkpt>
      <trkpt lat="46.9953" lon="-2.24762">
        <ele>2</ele>
      </trkpt>
      <trkpt lat="46.99493" lon="-2.24754">
        <ele>2.1</ele>
      </trkpt>
      <trkpt lat="46.99465" lon="-2.24748">
        <ele>2</ele>
      </trkpt>
      <trkpt lat="46.9944" lon="-2.24742">
        <ele>2.3</ele>
      </trkpt>
      <trkpt lat="46.99414" lon="-2.24738">
        <ele>2.5</ele>
      </trkpt>
      <trkpt lat="46.99401" lon="-2.24735">
        <ele>3.1</ele>
      </trkpt>
      <trkpt lat="46.99391" lon="-2.24736">
        <ele>3.4</ele>
      </trkpt>
      <trkpt lat="46.99381" lon="-2.24739">
        <ele>3.6</ele>
      </trkpt>
      <trkpt lat="46.99373" lon="-2.24742">
        <ele>3.7</ele>
      </trkpt>
      <trkpt lat="46.99372" lon="-2.24743">
        <ele>3.7</ele>
      </trkpt>
      <trkpt lat="46.99372" lon="-2.24743">
        <ele>3.7</ele>
      </trkpt>
      <trkpt lat="46.99364" lon="-2.24752">
        <ele>3.9</ele>
      </trkpt>
      <trkpt lat="46.9936" lon="-2.24766">
        <ele>4</ele>
      </trkpt>
      <trkpt lat="46.99357" lon="-2.24791">
        <ele>3.9</ele>
      </trkpt>
      <trkpt lat="46.99354" lon="-2.24824">
        <ele>2.8</ele>
      </trkpt>
      <trkpt lat="46.99351" lon="-2.24856">
        <ele>2.7</ele>
      </trkpt>
      <trkpt lat="46.99348" lon="-2.24882">
        <ele>3</ele>
      </trkpt>
      <trkpt lat="46.99345" lon="-2.24908">
        <ele>3.3</ele>
      </trkpt>
      <trkpt lat="46.99338" lon="-2.24932">
        <ele>3.1</ele>
      </trkpt>
      <trkpt lat="46.99325" lon="-2.24958">
        <ele>3</ele>
      </trkpt>
      <trkpt lat="46.99311" lon="-2.24976">
        <ele>3</ele>
      </trkpt>
      <trkpt lat="46.99299" lon="-2.24985">
        <ele>3</ele>
      </trkpt>
      <trkpt lat="46.99281" lon="-2.24994">
        <ele>3</ele>
      </trkpt>
      <trkpt lat="46.99259" lon="-2.24999">
        <ele>3</ele>
      </trkpt>
      <trkpt lat="46.99242" lon="-2.25003">
        <ele>2.9</ele>
      </trkpt>
      <trkpt lat="46.99225" lon="-2.25007">
        <ele>2.8</ele>
      </trkpt>
      <trkpt lat="46.992" lon="-2.25012">
        <ele>2.6</ele>
      </trkpt>
      <trkpt lat="46.99185" lon="-2.25017">
        <ele>2.5</ele>
      </trkpt>
      <trkpt lat="46.99172" lon="-2.25023">
        <ele>2.7</ele>
      </trkpt>
      <trkpt lat="46.99157" lon="-2.25035">
        <ele>2.7</ele>
      </trkpt>
      <trkpt lat="46.99143" lon="-2.25049">
        <ele>2.2</ele>
      </trkpt>
      <trkpt lat="46.99129" lon="-2.25064">
        <ele>2.1</ele>
      </trkpt>
      <trkpt lat="46.99113" lon="-2.2508">
        <ele>2.8</ele>
      </trkpt>
      <trkpt lat="46.99095" lon="-2.25098">
        <ele>2.2</ele>
      </trkpt>
      <trkpt lat="46.99073" lon="-2.2512">
        <ele>2.4</ele>
      </trkpt>
      <trkpt lat="46.99048" lon="-2.2512">
        <ele>2.7</ele>
      </trkpt>
      <trkpt lat="46.99048" lon="-2.2512">
        <ele>2.7</ele>
      </trkpt>
      <trkpt lat="46.99031" lon="-2.2513">
        <ele>2.1</ele>
      </trkpt>
      <trkpt lat="46.99017" lon="-2.25146">
        <ele>2</ele>
      </trkpt>
      <trkpt lat="46.99003" lon="-2.25163">
        <ele>2</ele>
      </trkpt>
      <trkpt lat="46.98998" lon="-2.25171">
        <ele>2.1</ele>
      </trkpt>
      <trkpt lat="46.98995" lon="-2.25181">
        <ele>2.4</ele>
      </trkpt>
      <trkpt lat="46.98994" lon="-2.25193">
        <ele>2.7</ele>
      </trkpt>
      <trkpt lat="46.98996" lon="-2.25203">
        <ele>2.9</ele>
      </trkpt>
      <trkpt lat="46.99004" lon="-2.25224">
        <ele>2.8</ele>
      </trkpt>
      <trkpt lat="46.99008" lon="-2.25249">
        <ele>2.3</ele>
      </trkpt>
      <trkpt lat="46.99004" lon="-2.25276">
        <ele>2.2</ele>
      </trkpt>
      <trkpt lat="46.98996" lon="-2.25295">
        <ele>2</ele>
      </trkpt>
      <trkpt lat="46.98986" lon="-2.25311">
        <ele>2</ele>
      </trkpt>
      <trkpt lat="46.98974" lon="-2.25329">
        <ele>2</ele>
      </trkpt>
      <trkpt lat="46.98963" lon="-2.25348">
        <ele>2</ele>
      </trkpt>
      <trkpt lat="46.98949" lon="-2.25369">
        <ele>2</ele>
      </trkpt>
      <trkpt lat="46.98935" lon="-2.25392">
        <ele>2</ele>
      </trkpt>
      <trkpt lat="46.98924" lon="-2.25412">
        <ele>2.6</ele>
      </trkpt>
      <trkpt lat="46.98913" lon="-2.25426">
        <ele>3</ele>
      </trkpt>
      <trkpt lat="46.98909" lon="-2.25431">
        <ele>3</ele>
      </trkpt>
      <trkpt lat="46.98905" lon="-2.25435">
        <ele>3</ele>
      </trkpt>
      <trkpt lat="46.98901" lon="-2.25441">
        <ele>3</ele>
      </trkpt>
      <trkpt lat="46.98895" lon="-2.25458">
        <ele>2.9</ele>
      </trkpt>
      <trkpt lat="46.98887" lon="-2.25472">
        <ele>3</ele>
      </trkpt>
      <trkpt lat="46.98875" lon="-2.25487">
        <ele>3</ele>
      </trkpt>
      <trkpt lat="46.98868" lon="-2.25498">
        <ele>3</ele>
      </trkpt>
      <trkpt lat="46.98858" lon="-2.25508">
        <ele>3</ele>
      </trkpt>
      <trkpt lat="46.98825" lon="-2.25532">
        <ele>2</ele>
      </trkpt>
      <trkpt lat="46.98816" lon="-2.25542">
        <ele>2</ele>
      </trkpt>
      <trkpt lat="46.98786" lon="-2.25563">
        <ele>2</ele>
      </trkpt>
      <trkpt lat="46.98762" lon="-2.25579">
        <ele>2.1</ele>
      </trkpt>
      <trkpt lat="46.98747" lon="-2.25585">
        <ele>2</ele>
      </trkpt>
      <trkpt lat="46.9873" lon="-2.25591">
        <ele>2</ele>
      </trkpt>
      <trkpt lat="46.98716" lon="-2.25595">
        <ele>2</ele>
      </trkpt>
      <trkpt lat="46.98706" lon="-2.25595">
        <ele>2</ele>
      </trkpt>
      <trkpt lat="46.987" lon="-2.25595">
        <ele>2</ele>
      </trkpt>
      <trkpt lat="46.98695" lon="-2.25596">
        <ele>2</ele>
      </trkpt>
      <trkpt lat="46.98687" lon="-2.25606">
        <ele>2</ele>
      </trkpt>
      <trkpt lat="46.98678" lon="-2.25609">
        <ele>2</ele>
      </trkpt>
      <trkpt lat="46.98659" lon="-2.25609">
        <ele>2</ele>
      </trkpt>
      <trkpt lat="46.98645" lon="-2.25607">
        <ele>2</ele>
      </trkpt>
      <trkpt lat="46.98639" lon="-2.25609">
        <ele>2</ele>
      </trkpt>
      <trkpt lat="46.98626" lon="-2.25614">
        <ele>2.1</ele>
      </trkpt>
      <trkpt lat="46.9861" lon="-2.2562">
        <ele>2</ele>
      </trkpt>
      <trkpt lat="46.98593" lon="-2.25634">
        <ele>2.5</ele>
      </trkpt>
      <trkpt lat="46.98585" lon="-2.25645">
        <ele>2.8</ele>
      </trkpt>
      <trkpt lat="46.98577" lon="-2.25659">
        <ele>2.2</ele>
      </trkpt>
      <trkpt lat="46.98567" lon="-2.25683">
        <ele>2.4</ele>
      </trkpt>
      <trkpt lat="46.98559" lon="-2.25702">
        <ele>2.6</ele>
      </trkpt>
      <trkpt lat="46.98554" lon="-2.25716">
        <ele>2.2</ele>
      </trkpt>
      <trkpt lat="46.98547" lon="-2.25726">
        <ele>2</ele>
      </trkpt>
      <trkpt lat="46.98539" lon="-2.25733">
        <ele>2</ele>
      </trkpt>
      <trkpt lat="46.98519" lon="-2.2575">
        <ele>2</ele>
      </trkpt>
      <trkpt lat="46.98524" lon="-2.25764">
        <ele>2</ele>
      </trkpt>
      <trkpt lat="46.98547" lon="-2.25828">
        <ele>2</ele>
      </trkpt>
      <trkpt lat="46.98554" lon="-2.25885">
        <ele>2</ele>
      </trkpt>
      <trkpt lat="46.98554" lon="-2.25897">
        <ele>2</ele>
      </trkpt>
      <trkpt lat="46.98549" lon="-2.25921">
        <ele>2</ele>
      </trkpt>
      <trkpt lat="46.98549" lon="-2.25945">
        <ele>2</ele>
      </trkpt>
      <trkpt lat="46.9855" lon="-2.2597">
        <ele>2</ele>
      </trkpt>
      <trkpt lat="46.98558" lon="-2.2599">
        <ele>2</ele>
      </trkpt>
      <trkpt lat="46.98564" lon="-2.26013">
        <ele>2</ele>
      </trkpt>
      <trkpt lat="46.98571" lon="-2.26035">
        <ele>2</ele>
      </trkpt>
      <trkpt lat="46.98575" lon="-2.26041">
        <ele>2</ele>
      </trkpt>
      <trkpt lat="46.98579" lon="-2.26072">
        <ele>2.4</ele>
      </trkpt>
      <trkpt lat="46.98579" lon="-2.26082">
        <ele>2.2</ele>
      </trkpt>
      <trkpt lat="46.9857" lon="-2.26118">
        <ele>2.5</ele>
      </trkpt>
      <trkpt lat="46.98559" lon="-2.26148">
        <ele>2.6</ele>
      </trkpt>
      <trkpt lat="46.98551" lon="-2.26176">
        <ele>2.2</ele>
      </trkpt>
      <trkpt lat="46.98546" lon="-2.26195">
        <ele>2.3</ele>
      </trkpt>
      <trkpt lat="46.98549" lon="-2.26206">
        <ele>1.8</ele>
      </trkpt>
      <trkpt lat="46.98563" lon="-2.26215">
        <ele>1.5</ele>
      </trkpt>
      <trkpt lat="46.98573" lon="-2.26219">
        <ele>1.7</ele>
      </trkpt>
      <trkpt lat="46.98593" lon="-2.26229">
        <ele>1.8</ele>
      </trkpt>
      <trkpt lat="46.98607" lon="-2.26245">
        <ele>1.2</ele>
      </trkpt>
      <trkpt lat="46.98627" lon="-2.26266">
        <ele>1.6</ele>
      </trkpt>
      <trkpt lat="46.98648" lon="-2.26287">
        <ele>2</ele>
      </trkpt>
      <trkpt lat="46.98658" lon="-2.26302">
        <ele>1.8</ele>
      </trkpt>
      <trkpt lat="46.98658" lon="-2.26324">
        <ele>1.9</ele>
      </trkpt>
      <trkpt lat="46.98654" lon="-2.26345">
        <ele>2</ele>
      </trkpt>
      <trkpt lat="46.98647" lon="-2.2636">
        <ele>2</ele>
      </trkpt>
      <trkpt lat="46.98631" lon="-2.26389">
        <ele>2</ele>
      </trkpt>
      <trkpt lat="46.98609" lon="-2.26409">
        <ele>1.9</ele>
      </trkpt>
      <trkpt lat="46.98604" lon="-2.26418">
        <ele>1.8</ele>
      </trkpt>
      <trkpt lat="46.98601" lon="-2.26428">
        <ele>1.8</ele>
      </trkpt>
      <trkpt lat="46.98599" lon="-2.26441">
        <ele>2</ele>
      </trkpt>
      <trkpt lat="46.98591" lon="-2.26451">
        <ele>2</ele>
      </trkpt>
      <trkpt lat="46.98582" lon="-2.26477">
        <ele>2</ele>
      </trkpt>
      <trkpt lat="46.98576" lon="-2.2651">
        <ele>2</ele>
      </trkpt>
      <trkpt lat="46.98578" lon="-2.26532">
        <ele>2</ele>
      </trkpt>
      <trkpt lat="46.98579" lon="-2.26543">
        <ele>2</ele>
      </trkpt>
      <trkpt lat="46.98578" lon="-2.26553">
        <ele>2</ele>
      </trkpt>
      <trkpt lat="46.98576" lon="-2.26568">
        <ele>2</ele>
      </trkpt>
      <trkpt lat="46.98571" lon="-2.26577">
        <ele>2</ele>
      </trkpt>
      <trkpt lat="46.98565" lon="-2.26583">
        <ele>2</ele>
      </trkpt>
      <trkpt lat="46.98553" lon="-2.26585">
        <ele>2</ele>
      </trkpt>
      <trkpt lat="46.98546" lon="-2.26584">
        <ele>2</ele>
      </trkpt>
      <trkpt lat="46.98534" lon="-2.26586">
        <ele>2</ele>
      </trkpt>
      <trkpt lat="46.98514" lon="-2.2662">
        <ele>2</ele>
      </trkpt>
      <trkpt lat="46.98481" lon="-2.26694">
        <ele>2</ele>
      </trkpt>
      <trkpt lat="46.98462" lon="-2.26727">
        <ele>2</ele>
      </trkpt>
      <trkpt lat="46.98451" lon="-2.26743">
        <ele>2</ele>
      </trkpt>
      <trkpt lat="46.98453" lon="-2.26751">
        <ele>2</ele>
      </trkpt>
      <trkpt lat="46.98455" lon="-2.26757">
        <ele>2</ele>
      </trkpt>
      <trkpt lat="46.98456" lon="-2.26764">
        <ele>2</ele>
      </trkpt>
      <trkpt lat="46.98454" lon="-2.26791">
        <ele>2</ele>
      </trkpt>
      <trkpt lat="46.98452" lon="-2.26816">
        <ele>2</ele>
      </trkpt>
      <trkpt lat="46.98455" lon="-2.26825">
        <ele>2</ele>
      </trkpt>
      <trkpt lat="46.98459" lon="-2.2683">
        <ele>2</ele>
      </trkpt>
      <trkpt lat="46.98475" lon="-2.26832">
        <ele>2</ele>
      </trkpt>
      <trkpt lat="46.98496" lon="-2.26831">
        <ele>2</ele>
      </trkpt>
      <trkpt lat="46.98522" lon="-2.26835">
        <ele>2</ele>
      </trkpt>
      <trkpt lat="46.98547" lon="-2.26837">
        <ele>2</ele>
      </trkpt>
      <trkpt lat="46.98617" lon="-2.2683">
        <ele>2</ele>
      </trkpt>
      <trkpt lat="46.98661" lon="-2.26824">
        <ele>2.1</ele>
      </trkpt>
      <trkpt lat="46.98717" lon="-2.26796">
        <ele>2.4</ele>
      </trkpt>
      <trkpt lat="46.98744" lon="-2.26779">
        <ele>2.2</ele>
      </trkpt>
      <trkpt lat="46.9879" lon="-2.26765">
        <ele>2</ele>
      </trkpt>
      <trkpt lat="46.98818" lon="-2.26764">
        <ele>2</ele>
      </trkpt>
      <trkpt lat="46.98848" lon="-2.26806">
        <ele>2.5</ele>
      </trkpt>
      <trkpt lat="46.98863" lon="-2.26834">
        <ele>2.9</ele>
      </trkpt>
      <trkpt lat="46.98892" lon="-2.26891">
        <ele>3</ele>
      </trkpt>
      <trkpt lat="46.98892" lon="-2.26891">
        <ele>3</ele>
      </trkpt>
      <trkpt lat="46.98868" lon="-2.2695">
        <ele>2.9</ele>
      </trkpt>
      <trkpt lat="46.98823" lon="-2.27058">
        <ele>2.6</ele>
      </trkpt>
      <trkpt lat="46.98814" lon="-2.27082">
        <ele>2.3</ele>
      </trkpt>
      <trkpt lat="46.98789" lon="-2.27138">
        <ele>2</ele>
      </trkpt>
      <trkpt lat="46.98773" lon="-2.27182">
        <ele>2.5</ele>
      </trkpt>
      <trkpt lat="46.98758" lon="-2.2724">
        <ele>2.6</ele>
      </trkpt>
      <trkpt lat="46.98743" lon="-2.27292">
        <ele>2</ele>
      </trkpt>
      <trkpt lat="46.98743" lon="-2.27292">
        <ele>2</ele>
      </trkpt>
      <trkpt lat="46.9876" lon="-2.27312">
        <ele>2</ele>
      </trkpt>
      <trkpt lat="46.98794" lon="-2.27344">
        <ele>2</ele>
      </trkpt>
      <trkpt lat="46.98855" lon="-2.27412">
        <ele>2</ele>
      </trkpt>
      <trkpt lat="46.98894" lon="-2.27452">
        <ele>2</ele>
      </trkpt>
      <trkpt lat="46.98895" lon="-2.27453">
        <ele>2</ele>
      </trkpt>
      <trkpt lat="46.98947" lon="-2.275">
        <ele>2</ele>
      </trkpt>
      <trkpt lat="46.98966" lon="-2.27519">
        <ele>2</ele>
      </trkpt>
      <trkpt lat="46.98969" lon="-2.27528">
        <ele>2</ele>
      </trkpt>
      <trkpt lat="46.98968" lon="-2.27537">
        <ele>2</ele>
      </trkpt>
      <trkpt lat="46.98963" lon="-2.27556">
        <ele>2</ele>
      </trkpt>
      <trkpt lat="46.98948" lon="-2.276">
        <ele>2.5</ele>
      </trkpt>
      <trkpt lat="46.98934" lon="-2.27639">
        <ele>3</ele>
      </trkpt>
      <trkpt lat="46.98919" lon="-2.27681">
        <ele>2.5</ele>
      </trkpt>
      <trkpt lat="46.98907" lon="-2.277">
        <ele>2.3</ele>
      </trkpt>
      <trkpt lat="46.98903" lon="-2.27718">
        <ele>2.1</ele>
      </trkpt>
      <trkpt lat="46.98895" lon="-2.27756">
        <ele>2.2</ele>
      </trkpt>
      <trkpt lat="46.98887" lon="-2.2779">
        <ele>2.9</ele>
      </trkpt>
      <trkpt lat="46.98881" lon="-2.27813">
        <ele>2.7</ele>
      </trkpt>
      <trkpt lat="46.98872" lon="-2.27824">
        <ele>2.4</ele>
      </trkpt>
      <trkpt lat="46.98864" lon="-2.27839">
        <ele>2.1</ele>
      </trkpt>
      <trkpt lat="46.98855" lon="-2.27859">
        <ele>2</ele>
      </trkpt>
      <trkpt lat="46.98848" lon="-2.27869">
        <ele>2</ele>
      </trkpt>
      <trkpt lat="46.98849" lon="-2.27878">
        <ele>2</ele>
      </trkpt>
      <trkpt lat="46.98849" lon="-2.27878">
        <ele>2</ele>
      </trkpt>
      <trkpt lat="46.98861" lon="-2.27895">
        <ele>2</ele>
      </trkpt>
      <trkpt lat="46.98883" lon="-2.2791">
        <ele>1.8</ele>
      </trkpt>
      <trkpt lat="46.9891" lon="-2.27941">
        <ele>2</ele>
      </trkpt>
      <trkpt lat="46.98941" lon="-2.27977">
        <ele>2.1</ele>
      </trkpt>
      <trkpt lat="46.98966" lon="-2.28005">
        <ele>2</ele>
      </trkpt>
      <trkpt lat="46.98967" lon="-2.28014">
        <ele>2.1</ele>
      </trkpt>
      <trkpt lat="46.98972" lon="-2.28039">
        <ele>2</ele>
      </trkpt>
      <trkpt lat="46.98981" lon="-2.28076">
        <ele>2</ele>
      </trkpt>
      <trkpt lat="46.98989" lon="-2.2811">
        <ele>2.4</ele>
      </trkpt>
      <trkpt lat="46.98993" lon="-2.28125">
        <ele>2.3</ele>
      </trkpt>
      <trkpt lat="46.99011" lon="-2.28145">
        <ele>2</ele>
      </trkpt>
      <trkpt lat="46.9904" lon="-2.28194">
        <ele>3</ele>
      </trkpt>
      <trkpt lat="46.99054" lon="-2.28215">
        <ele>2.3</ele>
      </trkpt>
      <trkpt lat="46.99076" lon="-2.28249">
        <ele>2</ele>
      </trkpt>
      <trkpt lat="46.99098" lon="-2.28282">
        <ele>2</ele>
      </trkpt>
      <trkpt lat="46.99113" lon="-2.28299">
        <ele>2</ele>
      </trkpt>
      <trkpt lat="46.99137" lon="-2.28325">
        <ele>2</ele>
      </trkpt>
      <trkpt lat="46.99146" lon="-2.28336">
        <ele>2</ele>
      </trkpt>
      <trkpt lat="46.99177" lon="-2.28377">
        <ele>2.2</ele>
      </trkpt>
      <trkpt lat="46.99206" lon="-2.28412">
        <ele>2.1</ele>
      </trkpt>
      <trkpt lat="46.99221" lon="-2.28429">
        <ele>2</ele>
      </trkpt>
      <trkpt lat="46.99245" lon="-2.28479">
        <ele>2.2</ele>
      </trkpt>
      <trkpt lat="46.993" lon="-2.28572">
        <ele>2.4</ele>
      </trkpt>
      <trkpt lat="46.99319" lon="-2.28604">
        <ele>2</ele>
      </trkpt>
      <trkpt lat="46.99325" lon="-2.28616">
        <ele>2</ele>
      </trkpt>
      <trkpt lat="46.99329" lon="-2.28622">
        <ele>2</ele>
      </trkpt>
      <trkpt lat="46.99332" lon="-2.28629">
        <ele>2</ele>
      </trkpt>
      <trkpt lat="46.99336" lon="-2.28635">
        <ele>2</ele>
      </trkpt>
      <trkpt lat="46.99342" lon="-2.28645">
        <ele>2</ele>
      </trkpt>
      <trkpt lat="46.99351" lon="-2.28657">
        <ele>2</ele>
      </trkpt>
      <trkpt lat="46.99362" lon="-2.28672">
        <ele>2</ele>
      </trkpt>
      <trkpt lat="46.99385" lon="-2.28707">
        <ele>2</ele>
      </trkpt>
      <trkpt lat="46.9941" lon="-2.28743">
        <ele>2</ele>
      </trkpt>
      <trkpt lat="46.99436" lon="-2.2878">
        <ele>2</ele>
      </trkpt>
      <trkpt lat="46.99446" lon="-2.28794">
        <ele>2</ele>
      </trkpt>
      <trkpt lat="46.99472" lon="-2.28831">
        <ele>2.1</ele>
      </trkpt>
      <trkpt lat="46.99479" lon="-2.28845">
        <ele>2.4</ele>
      </trkpt>
      <trkpt lat="46.9948" lon="-2.28845">
        <ele>2.4</ele>
      </trkpt>
      <trkpt lat="46.99479" lon="-2.28851">
        <ele>2.6</ele>
      </trkpt>
      <trkpt lat="46.99467" lon="-2.28861">
        <ele>2.8</ele>
      </trkpt>
      <trkpt lat="46.99461" lon="-2.28867">
        <ele>2.7</ele>
      </trkpt>
      <trkpt lat="46.99456" lon="-2.28874">
        <ele>2.6</ele>
      </trkpt>
      <trkpt lat="46.99454" lon="-2.28887">
        <ele>2.7</ele>
      </trkpt>
      <trkpt lat="46.99455" lon="-2.28905">
        <ele>2.5</ele>
      </trkpt>
      <trkpt lat="46.99459" lon="-2.2892">
        <ele>2.6</ele>
      </trkpt>
      <trkpt lat="46.99464" lon="-2.28931">
        <ele>3</ele>
      </trkpt>
      <trkpt lat="46.99469" lon="-2.28939">
        <ele>3.1</ele>
      </trkpt>
      <trkpt lat="46.99473" lon="-2.28948">
        <ele>3</ele>
      </trkpt>
      <trkpt lat="46.99474" lon="-2.28958">
        <ele>2.9</ele>
      </trkpt>
      <trkpt lat="46.99471" lon="-2.28964">
        <ele>3</ele>
      </trkpt>
      <trkpt lat="46.99458" lon="-2.28965">
        <ele>3.1</ele>
      </trkpt>
      <trkpt lat="46.99419" lon="-2.2897">
        <ele>3</ele>
      </trkpt>
      <trkpt lat="46.99405" lon="-2.28977">
        <ele>2.5</ele>
      </trkpt>
      <trkpt lat="46.99396" lon="-2.28983">
        <ele>2.2</ele>
      </trkpt>
      <trkpt lat="46.99396" lon="-2.28983">
        <ele>2.2</ele>
      </trkpt>
      <trkpt lat="46.99386" lon="-2.2899">
        <ele>2</ele>
      </trkpt>
      <trkpt lat="46.9937" lon="-2.28996">
        <ele>2</ele>
      </trkpt>
      <trkpt lat="46.99303" lon="-2.29017">
        <ele>2</ele>
      </trkpt>
      <trkpt lat="46.9929" lon="-2.29017">
        <ele>2</ele>
      </trkpt>
      <trkpt lat="46.99261" lon="-2.2901">
        <ele>2</ele>
      </trkpt>
      <trkpt lat="46.99246" lon="-2.29011">
        <ele>2</ele>
      </trkpt>
      <trkpt lat="46.9924" lon="-2.29013">
        <ele>2</ele>
      </trkpt>
      <trkpt lat="46.99232" lon="-2.29017">
        <ele>2</ele>
      </trkpt>
      <trkpt lat="46.99207" lon="-2.29034">
        <ele>2.1</ele>
      </trkpt>
      <trkpt lat="46.99185" lon="-2.29048">
        <ele>2.8</ele>
      </trkpt>
      <trkpt lat="46.99175" lon="-2.29055">
        <ele>3</ele>
      </trkpt>
      <trkpt lat="46.99126" lon="-2.29073">
        <ele>2.3</ele>
      </trkpt>
      <trkpt lat="46.99088" lon="-2.29084">
        <ele>2.2</ele>
      </trkpt>
      <trkpt lat="46.99063" lon="-2.29092">
        <ele>2</ele>
      </trkpt>
      <trkpt lat="46.99048" lon="-2.29093">
        <ele>2</ele>
      </trkpt>
      <trkpt lat="46.99041" lon="-2.29096">
        <ele>2</ele>
      </trkpt>
      <trkpt lat="46.99034" lon="-2.29104">
        <ele>2</ele>
      </trkpt>
      <trkpt lat="46.99022" lon="-2.29119">
        <ele>2</ele>
      </trkpt>
      <trkpt lat="46.99002" lon="-2.29143">
        <ele>2</ele>
      </trkpt>
      <trkpt lat="46.98979" lon="-2.29163">
        <ele>2</ele>
      </trkpt>
      <trkpt lat="46.98962" lon="-2.29175">
        <ele>2</ele>
      </trkpt>
      <trkpt lat="46.98957" lon="-2.29179">
        <ele>2</ele>
      </trkpt>
      <trkpt lat="46.98947" lon="-2.29183">
        <ele>2</ele>
      </trkpt>
      <trkpt lat="46.98934" lon="-2.29193">
        <ele>2</ele>
      </trkpt>
      <trkpt lat="46.98904" lon="-2.2922">
        <ele>2</ele>
      </trkpt>
      <trkpt lat="46.98894" lon="-2.29229">
        <ele>2</ele>
      </trkpt>
      <trkpt lat="46.98887" lon="-2.29232">
        <ele>2</ele>
      </trkpt>
      <trkpt lat="46.9888" lon="-2.29232">
        <ele>2</ele>
      </trkpt>
      <trkpt lat="46.98875" lon="-2.29231">
        <ele>2</ele>
      </trkpt>
      <trkpt lat="46.98868" lon="-2.29227">
        <ele>2</ele>
      </trkpt>
      <trkpt lat="46.98861" lon="-2.2922">
        <ele>2</ele>
      </trkpt>
      <trkpt lat="46.98858" lon="-2.29212">
        <ele>2</ele>
      </trkpt>
      <trkpt lat="46.98854" lon="-2.29202">
        <ele>2</ele>
      </trkpt>
      <trkpt lat="46.9885" lon="-2.29199">
        <ele>2</ele>
      </trkpt>
      <trkpt lat="46.98675" lon="-2.29303">
        <ele>3.1</ele>
      </trkpt>
      <trkpt lat="46.98697" lon="-2.29295">
        <ele>3</ele>
      </trkpt>
      <trkpt lat="46.98722" lon="-2.29279">
        <ele>2.1</ele>
      </trkpt>
      <trkpt lat="46.98753" lon="-2.2926">
        <ele>2</ele>
      </trkpt>
      <trkpt lat="46.98779" lon="-2.29248">
        <ele>2</ele>
      </trkpt>
      <trkpt lat="46.98795" lon="-2.29238">
        <ele>2</ele>
      </trkpt>
      <trkpt lat="46.98819" lon="-2.29218">
        <ele>2</ele>
      </trkpt>
      <trkpt lat="46.98833" lon="-2.29208">
        <ele>2</ele>
      </trkpt>
      <trkpt lat="46.98842" lon="-2.29202">
        <ele>2</ele>
      </trkpt>
      <trkpt lat="46.98848" lon="-2.29199">
        <ele>2</ele>
      </trkpt>
      <trkpt lat="46.98852" lon="-2.292">
        <ele>2</ele>
      </trkpt>
      <trkpt lat="46.98675" lon="-2.29303">
        <ele>3.1</ele>
      </trkpt>
      <trkpt lat="46.98679" lon="-2.29261">
        <ele>3.6</ele>
      </trkpt>
      <trkpt lat="46.98672" lon="-2.29244">
        <ele>3.6</ele>
      </trkpt>
      <trkpt lat="46.98669" lon="-2.29215">
        <ele>3.2</ele>
      </trkpt>
      <trkpt lat="46.98664" lon="-2.29184">
        <ele>3.7</ele>
      </trkpt>
      <trkpt lat="46.98653" lon="-2.29143">
        <ele>3.5</ele>
      </trkpt>
      <trkpt lat="46.98643" lon="-2.291">
        <ele>3.9</ele>
      </trkpt>
      <trkpt lat="46.98636" lon="-2.2907">
        <ele>4.2</ele>
      </trkpt>
      <trkpt lat="46.98628" lon="-2.29005">
        <ele>4.8</ele>
      </trkpt>
      <trkpt lat="46.98625" lon="-2.28974">
        <ele>4.5</ele>
      </trkpt>
      <trkpt lat="46.98619" lon="-2.28907">
        <ele>4.9</ele>
      </trkpt>
      <trkpt lat="46.98616" lon="-2.28868">
        <ele>4.1</ele>
      </trkpt>
      <trkpt lat="46.98609" lon="-2.28814">
        <ele>4.1</ele>
      </trkpt>
      <trkpt lat="46.98603" lon="-2.28749">
        <ele>5.6</ele>
      </trkpt>
      <trkpt lat="46.986" lon="-2.28713">
        <ele>6</ele>
      </trkpt>
      <trkpt lat="46.98598" lon="-2.28697">
        <ele>6.4</ele>
      </trkpt>
      <trkpt lat="46.98589" lon="-2.28615">
        <ele>6</ele>
      </trkpt>
      <trkpt lat="46.9858" lon="-2.28525">
        <ele>5.4</ele>
      </trkpt>
      <trkpt lat="46.98571" lon="-2.28437">
        <ele>6.3</ele>
      </trkpt>
      <trkpt lat="46.98562" lon="-2.28396">
        <ele>6.2</ele>
      </trkpt>
      <trkpt lat="46.98555" lon="-2.28376">
        <ele>6.5</ele>
      </trkpt>
      <trkpt lat="46.98545" lon="-2.28352">
        <ele>6.7</ele>
      </trkpt>
      <trkpt lat="46.9853" lon="-2.28332">
        <ele>6</ele>
      </trkpt>
      <trkpt lat="46.9851" lon="-2.28314">
        <ele>6</ele>
      </trkpt>
      <trkpt lat="46.98488" lon="-2.28294">
        <ele>7.1</ele>
      </trkpt>
      <trkpt lat="46.98468" lon="-2.28265">
        <ele>8.2</ele>
      </trkpt>
      <trkpt lat="46.98432" lon="-2.28218">
        <ele>7.7</ele>
      </trkpt>
      <trkpt lat="46.98406" lon="-2.28184">
        <ele>7</ele>
      </trkpt>
      <trkpt lat="46.98372" lon="-2.28129">
        <ele>6.6</ele>
      </trkpt>
      <trkpt lat="46.98363" lon="-2.28119">
        <ele>6.9</ele>
      </trkpt>
      <trkpt lat="46.98345" lon="-2.28107">
        <ele>6.3</ele>
      </trkpt>
      <trkpt lat="46.98328" lon="-2.28092">
        <ele>5.3</ele>
      </trkpt>
      <trkpt lat="46.98313" lon="-2.28078">
        <ele>5</ele>
      </trkpt>
      <trkpt lat="46.98295" lon="-2.28066">
        <ele>4.6</ele>
      </trkpt>
      <trkpt lat="46.98269" lon="-2.28045">
        <ele>4.7</ele>
      </trkpt>
      <trkpt lat="46.98264" lon="-2.28039">
        <ele>4.7</ele>
      </trkpt>
      <trkpt lat="46.98263" lon="-2.28032">
        <ele>4.6</ele>
      </trkpt>
      <trkpt lat="46.98264" lon="-2.28024">
        <ele>4.6</ele>
      </trkpt>
      <trkpt lat="46.9828" lon="-2.27987">
        <ele>3.9</ele>
      </trkpt>
      <trkpt lat="46.98287" lon="-2.2797">
        <ele>3.7</ele>
      </trkpt>
      <trkpt lat="46.98288" lon="-2.27943">
        <ele>4.6</ele>
      </trkpt>
      <trkpt lat="46.98285" lon="-2.27891">
        <ele>5.2</ele>
      </trkpt>
      <trkpt lat="46.98284" lon="-2.27856">
        <ele>5.2</ele>
      </trkpt>
      <trkpt lat="46.98281" lon="-2.27825">
        <ele>4.8</ele>
      </trkpt>
      <trkpt lat="46.98278" lon="-2.27819">
        <ele>4.5</ele>
      </trkpt>
      <trkpt lat="46.98271" lon="-2.27819">
        <ele>4.6</ele>
      </trkpt>
      <trkpt lat="46.98262" lon="-2.27823">
        <ele>4.8</ele>
      </trkpt>
      <trkpt lat="46.98232" lon="-2.2783">
        <ele>4.4</ele>
      </trkpt>
      <trkpt lat="46.98205" lon="-2.27831">
        <ele>4</ele>
      </trkpt>
      <trkpt lat="46.98182" lon="-2.27832">
        <ele>4</ele>
      </trkpt>
      <trkpt lat="46.98162" lon="-2.27828">
        <ele>3.9</ele>
      </trkpt>
      <trkpt lat="46.98137" lon="-2.27816">
        <ele>3.7</ele>
      </trkpt>
      <trkpt lat="46.98126" lon="-2.27806">
        <ele>4</ele>
      </trkpt>
      <trkpt lat="46.98106" lon="-2.27793">
        <ele>4.1</ele>
      </trkpt>
      <trkpt lat="46.98058" lon="-2.27776">
        <ele>3.9</ele>
      </trkpt>
      <trkpt lat="46.98032" lon="-2.2777">
        <ele>4.5</ele>
      </trkpt>
      <trkpt lat="46.98007" lon="-2.27756">
        <ele>4.1</ele>
      </trkpt>
      <trkpt lat="46.97976" lon="-2.27734">
        <ele>3.1</ele>
      </trkpt>
      <trkpt lat="46.97939" lon="-2.277">
        <ele>2.9</ele>
      </trkpt>
      <trkpt lat="46.97898" lon="-2.27665">
        <ele>3</ele>
      </trkpt>
      <trkpt lat="46.97864" lon="-2.27629">
        <ele>3</ele>
      </trkpt>
      <trkpt lat="46.978" lon="-2.27549">
        <ele>3</ele>
      </trkpt>
      <trkpt lat="46.9778" lon="-2.2752">
        <ele>3</ele>
      </trkpt>
      <trkpt lat="46.9778" lon="-2.2752">
        <ele>3</ele>
      </trkpt>
      <trkpt lat="46.97764" lon="-2.27483">
        <ele>3</ele>
      </trkpt>
      <trkpt lat="46.97758" lon="-2.27459">
        <ele>3</ele>
      </trkpt>
      <trkpt lat="46.97754" lon="-2.2743">
        <ele>3</ele>
      </trkpt>
      <trkpt lat="46.9775" lon="-2.27395">
        <ele>3</ele>
      </trkpt>
      <trkpt lat="46.97747" lon="-2.27361">
        <ele>3</ele>
      </trkpt>
      <trkpt lat="46.97742" lon="-2.27333">
        <ele>3</ele>
      </trkpt>
      <trkpt lat="46.97738" lon="-2.27303">
        <ele>3</ele>
      </trkpt>
      <trkpt lat="46.97733" lon="-2.27281">
        <ele>3</ele>
      </trkpt>
      <trkpt lat="46.97732" lon="-2.27269">
        <ele>3</ele>
      </trkpt>
      <trkpt lat="46.97729" lon="-2.27254">
        <ele>3</ele>
      </trkpt>
      <trkpt lat="46.97723" lon="-2.27241">
        <ele>3</ele>
      </trkpt>
      <trkpt lat="46.9772" lon="-2.27226">
        <ele>2.9</ele>
      </trkpt>
      <trkpt lat="46.97708" lon="-2.27181">
        <ele>2.5</ele>
      </trkpt>
      <trkpt lat="46.97698" lon="-2.2714">
        <ele>2.9</ele>
      </trkpt>
      <trkpt lat="46.97682" lon="-2.27088">
        <ele>2.6</ele>
      </trkpt>
      <trkpt lat="46.97666" lon="-2.27038">
        <ele>3</ele>
      </trkpt>
      <trkpt lat="46.97652" lon="-2.26999">
        <ele>3</ele>
      </trkpt>
      <trkpt lat="46.97643" lon="-2.26974">
        <ele>2.8</ele>
      </trkpt>
      <trkpt lat="46.97624" lon="-2.2692">
        <ele>2.6</ele>
      </trkpt>
      <trkpt lat="46.97602" lon="-2.26867">
        <ele>2.9</ele>
      </trkpt>
      <trkpt lat="46.97581" lon="-2.26817">
        <ele>2.9</ele>
      </trkpt>
      <trkpt lat="46.97557" lon="-2.26773">
        <ele>3</ele>
      </trkpt>
      <trkpt lat="46.97548" lon="-2.26757">
        <ele>3</ele>
      </trkpt>
      <trkpt lat="46.97534" lon="-2.26732">
        <ele>3</ele>
      </trkpt>
      <trkpt lat="46.97534" lon="-2.26732">
        <ele>3</ele>
      </trkpt>
      <trkpt lat="46.9753" lon="-2.26726">
        <ele>3</ele>
      </trkpt>
      <trkpt lat="46.97525" lon="-2.26717">
        <ele>3</ele>
      </trkpt>
      <trkpt lat="46.97514" lon="-2.26695">
        <ele>3</ele>
      </trkpt>
      <trkpt lat="46.975" lon="-2.2667">
        <ele>3.9</ele>
      </trkpt>
      <trkpt lat="46.97481" lon="-2.26645">
        <ele>3.6</ele>
      </trkpt>
      <trkpt lat="46.97454" lon="-2.2662">
        <ele>3.1</ele>
      </trkpt>
      <trkpt lat="46.97437" lon="-2.26609">
        <ele>3.3</ele>
      </trkpt>
      <trkpt lat="46.97408" lon="-2.26589">
        <ele>4</ele>
      </trkpt>
      <trkpt lat="46.9739" lon="-2.26575">
        <ele>3.7</ele>
      </trkpt>
      <trkpt lat="46.97359" lon="-2.26536">
        <ele>3</ele>
      </trkpt>
      <trkpt lat="46.97345" lon="-2.26526">
        <ele>3</ele>
      </trkpt>
      <trkpt lat="46.97336" lon="-2.26522">
        <ele>3</ele>
      </trkpt>
      <trkpt lat="46.97336" lon="-2.26522">
        <ele>3</ele>
      </trkpt>
      <trkpt lat="46.97306" lon="-2.26511">
        <ele>3</ele>
      </trkpt>
      <trkpt lat="46.97268" lon="-2.26496">
        <ele>3</ele>
      </trkpt>
      <trkpt lat="46.97232" lon="-2.26484">
        <ele>3</ele>
      </trkpt>
      <trkpt lat="46.97203" lon="-2.26472">
        <ele>3</ele>
      </trkpt>
      <trkpt lat="46.97178" lon="-2.26453">
        <ele>3</ele>
      </trkpt>
      <trkpt lat="46.97145" lon="-2.26419">
        <ele>3</ele>
      </trkpt>
      <trkpt lat="46.97123" lon="-2.26398">
        <ele>3.2</ele>
      </trkpt>
      <trkpt lat="46.97071" lon="-2.26366">
        <ele>3</ele>
      </trkpt>
      <trkpt lat="46.96994" lon="-2.26336">
        <ele>4</ele>
      </trkpt>
      <trkpt lat="46.96947" lon="-2.26316">
        <ele>3.4</ele>
      </trkpt>
      <trkpt lat="46.96878" lon="-2.26285">
        <ele>4</ele>
      </trkpt>
      <trkpt lat="46.96869" lon="-2.26281">
        <ele>4</ele>
      </trkpt>
      <trkpt lat="46.96862" lon="-2.26282">
        <ele>4</ele>
      </trkpt>
      <trkpt lat="46.96854" lon="-2.26287">
        <ele>4</ele>
      </trkpt>
      <trkpt lat="46.96825" lon="-2.26288">
        <ele>4.1</ele>
      </trkpt>
      <trkpt lat="46.96809" lon="-2.26289">
        <ele>4.4</ele>
      </trkpt>
      <trkpt lat="46.96809" lon="-2.26289">
        <ele>4.4</ele>
      </trkpt>
      <trkpt lat="46.96802" lon="-2.26288">
        <ele>4.5</ele>
      </trkpt>
      <trkpt lat="46.96771" lon="-2.26282">
        <ele>5.4</ele>
      </trkpt>
      <trkpt lat="46.96749" lon="-2.26273">
        <ele>5.8</ele>
      </trkpt>
      <trkpt lat="46.96747" lon="-2.26252">
        <ele>5.2</ele>
      </trkpt>
      <trkpt lat="46.96744" lon="-2.26241">
        <ele>5.5</ele>
      </trkpt>
      <trkpt lat="46.96735" lon="-2.26235">
        <ele>5.8</ele>
      </trkpt>
      <trkpt lat="46.96729" lon="-2.26227">
        <ele>6</ele>
      </trkpt>
      <trkpt lat="46.96729" lon="-2.26227">
        <ele>6</ele>
      </trkpt>
      <trkpt lat="46.96734" lon="-2.26214">
        <ele>5.8</ele>
      </trkpt>
      <trkpt lat="46.96734" lon="-2.26204">
        <ele>5.4</ele>
      </trkpt>
      <trkpt lat="46.96718" lon="-2.26193">
        <ele>5.9</ele>
      </trkpt>
      <trkpt lat="46.96691" lon="-2.26173">
        <ele>5.3</ele>
      </trkpt>
      <trkpt lat="46.96681" lon="-2.26168">
        <ele>5.5</ele>
      </trkpt>
      <trkpt lat="46.96672" lon="-2.26158">
        <ele>5.5</ele>
      </trkpt>
      <trkpt lat="46.96655" lon="-2.26146">
        <ele>5.2</ele>
      </trkpt>
      <trkpt lat="46.96656" lon="-2.26146">
        <ele>5.3</ele>
      </trkpt>
      <trkpt lat="46.96645" lon="-2.2614">
        <ele>5.1</ele>
      </trkpt>
      <trkpt lat="46.96627" lon="-2.26134">
        <ele>5.4</ele>
      </trkpt>
      <trkpt lat="46.96615" lon="-2.26131">
        <ele>5.8</ele>
      </trkpt>
      <trkpt lat="46.96609" lon="-2.26129">
        <ele>5.9</ele>
      </trkpt>
      <trkpt lat="46.96605" lon="-2.26129">
        <ele>5.8</ele>
      </trkpt>
      <trkpt lat="46.96572" lon="-2.26121">
        <ele>4.6</ele>
      </trkpt>
      <trkpt lat="46.96555" lon="-2.26116">
        <ele>4</ele>
      </trkpt>
      <trkpt lat="46.96478" lon="-2.26054">
        <ele>7.3</ele>
      </trkpt>
      <trkpt lat="46.96479" lon="-2.26063">
        <ele>7.8</ele>
      </trkpt>
      <trkpt lat="46.9648" lon="-2.2607">
        <ele>8.1</ele>
      </trkpt>
      <trkpt lat="46.96482" lon="-2.26075">
        <ele>8</ele>
      </trkpt>
      <trkpt lat="46.96483" lon="-2.26076">
        <ele>8</ele>
      </trkpt>
      <trkpt lat="46.96488" lon="-2.2608">
        <ele>7.5</ele>
      </trkpt>
      <trkpt lat="46.96495" lon="-2.26085">
        <ele>6.8</ele>
      </trkpt>
      <trkpt lat="46.9651" lon="-2.26096">
        <ele>5.8</ele>
      </trkpt>
      <trkpt lat="46.96518" lon="-2.26101">
        <ele>5.2</ele>
      </trkpt>
      <trkpt lat="46.96527" lon="-2.26106">
        <ele>4.3</ele>
      </trkpt>
      <trkpt lat="46.96532" lon="-2.26108">
        <ele>4.1</ele>
      </trkpt>
      <trkpt lat="46.96533" lon="-2.26108">
        <ele>4.1</ele>
      </trkpt>
      <trkpt lat="46.96537" lon="-2.2611">
        <ele>4</ele>
      </trkpt>
      <trkpt lat="46.96541" lon="-2.26112">
        <ele>4</ele>
      </trkpt>
      <trkpt lat="46.96542" lon="-2.26112">
        <ele>4</ele>
      </trkpt>
      <trkpt lat="46.96542" lon="-2.26112">
        <ele>4</ele>
      </trkpt>
      <trkpt lat="46.96549" lon="-2.26115">
        <ele>4</ele>
      </trkpt>
      <trkpt lat="46.96548" lon="-2.26115">
        <ele>4</ele>
      </trkpt>
      <trkpt lat="46.96542" lon="-2.26112">
        <ele>4</ele>
      </trkpt>
      <trkpt lat="46.96542" lon="-2.26112">
        <ele>4</ele>
      </trkpt>
      <trkpt lat="46.96541" lon="-2.26112">
        <ele>4</ele>
      </trkpt>
      <trkpt lat="46.96537" lon="-2.2611">
        <ele>4</ele>
      </trkpt>
      <trkpt lat="46.96532" lon="-2.26108">
        <ele>4.1</ele>
      </trkpt>
      <trkpt lat="46.96531" lon="-2.26107">
        <ele>4.1</ele>
      </trkpt>
      <trkpt lat="46.96527" lon="-2.26106">
        <ele>4.3</ele>
      </trkpt>
      <trkpt lat="46.96518" lon="-2.26101">
        <ele>5.2</ele>
      </trkpt>
      <trkpt lat="46.9651" lon="-2.26096">
        <ele>5.8</ele>
      </trkpt>
      <trkpt lat="46.96495" lon="-2.26085">
        <ele>6.8</ele>
      </trkpt>
      <trkpt lat="46.96488" lon="-2.2608">
        <ele>7.5</ele>
      </trkpt>
      <trkpt lat="46.96485" lon="-2.26078">
        <ele>7.8</ele>
      </trkpt>
      <trkpt lat="46.96483" lon="-2.26076">
        <ele>8</ele>
      </trkpt>
      <trkpt lat="46.96482" lon="-2.26075">
        <ele>8</ele>
      </trkpt>
      <trkpt lat="46.9648" lon="-2.2607">
        <ele>8.1</ele>
      </trkpt>
      <trkpt lat="46.96479" lon="-2.26063">
        <ele>7.8</ele>
      </trkpt>
      <trkpt lat="46.96478" lon="-2.26054">
        <ele>7.3</ele>
      </trkpt>
      <trkpt lat="46.96476" lon="-2.2604">
        <ele>6.6</ele>
      </trkpt>
      <trkpt lat="46.96475" lon="-2.26037">
        <ele>6.5</ele>
      </trkpt>
      <trkpt lat="46.96473" lon="-2.26033">
        <ele>6.4</ele>
      </trkpt>
      <trkpt lat="46.9647" lon="-2.26029">
        <ele>6.5</ele>
      </trkpt>
      <trkpt lat="46.96458" lon="-2.26011">
        <ele>7</ele>
      </trkpt>
      <trkpt lat="46.96456" lon="-2.26007">
        <ele>7</ele>
      </trkpt>
      <trkpt lat="46.96446" lon="-2.25992">
        <ele>7.2</ele>
      </trkpt>
      <trkpt lat="46.96436" lon="-2.25976">
        <ele>7.8</ele>
      </trkpt>
      <trkpt lat="46.96423" lon="-2.25957">
        <ele>8.4</ele>
      </trkpt>
      <trkpt lat="46.9642" lon="-2.25953">
        <ele>8.4</ele>
      </trkpt>
      <trkpt lat="46.96418" lon="-2.2595">
        <ele>8.4</ele>
      </trkpt>
      <trkpt lat="46.96406" lon="-2.25931">
        <ele>8.4</ele>
      </trkpt>
      <trkpt lat="46.96399" lon="-2.25922">
        <ele>8.2</ele>
      </trkpt>
      <trkpt lat="46.96395" lon="-2.25915">
        <ele>8</ele>
      </trkpt>
      <trkpt lat="46.96386" lon="-2.25907">
        <ele>7.6</ele>
      </trkpt>
      <trkpt lat="46.96376" lon="-2.25894">
        <ele>7.6</ele>
      </trkpt>
      <trkpt lat="46.96354" lon="-2.25861">
        <ele>6.4</ele>
      </trkpt>
      <trkpt lat="46.96353" lon="-2.25851">
        <ele>5.9</ele>
      </trkpt>
      <trkpt lat="46.96349" lon="-2.25844">
        <ele>6</ele>
      </trkpt>
      <trkpt lat="46.96348" lon="-2.2584">
        <ele>5.8</ele>
      </trkpt>
      <trkpt lat="46.96348" lon="-2.25838">
        <ele>5.8</ele>
      </trkpt>
      <trkpt lat="46.96347" lon="-2.25833">
        <ele>5.5</ele>
      </trkpt>
      <trkpt lat="46.96345" lon="-2.2583">
        <ele>5.7</ele>
      </trkpt>
      <trkpt lat="46.96337" lon="-2.25824">
        <ele>6.3</ele>
      </trkpt>
      <trkpt lat="46.9633" lon="-2.25815">
        <ele>6.5</ele>
      </trkpt>
      <trkpt lat="46.96327" lon="-2.2581">
        <ele>6.4</ele>
      </trkpt>
      <trkpt lat="46.96325" lon="-2.25807">
        <ele>6.3</ele>
      </trkpt>
      <trkpt lat="46.96321" lon="-2.25801">
        <ele>6.3</ele>
      </trkpt>
      <trkpt lat="46.96315" lon="-2.2579">
        <ele>6.1</ele>
      </trkpt>
      <trkpt lat="46.96311" lon="-2.2578">
        <ele>5.9</ele>
      </trkpt>
      <trkpt lat="46.96311" lon="-2.25766">
        <ele>5.4</ele>
      </trkpt>
      <trkpt lat="46.96296" lon="-2.25753">
        <ele>5.4</ele>
      </trkpt>
      <trkpt lat="46.96295" lon="-2.25747">
        <ele>5.3</ele>
      </trkpt>
      <trkpt lat="46.96281" lon="-2.25733">
        <ele>5.8</ele>
      </trkpt>
      <trkpt lat="46.96264" lon="-2.25715">
        <ele>5.5</ele>
      </trkpt>
      <trkpt lat="46.96248" lon="-2.257">
        <ele>5</ele>
      </trkpt>
      <trkpt lat="46.96244" lon="-2.25696">
        <ele>5.2</ele>
      </trkpt>
      <trkpt lat="46.96227" lon="-2.25682">
        <ele>6.2</ele>
      </trkpt>
      <trkpt lat="46.96212" lon="-2.25669">
        <ele>7.3</ele>
      </trkpt>
      <trkpt lat="46.96205" lon="-2.25658">
        <ele>7.3</ele>
      </trkpt>
      <trkpt lat="46.9621" lon="-2.25614">
        <ele>5.2</ele>
      </trkpt>
      <trkpt lat="46.96206" lon="-2.25586">
        <ele>4.6</ele>
      </trkpt>
      <trkpt lat="46.96206" lon="-2.25586">
        <ele>4.6</ele>
      </trkpt>
      <trkpt lat="46.96186" lon="-2.25581">
        <ele>5.3</ele>
      </trkpt>
      <trkpt lat="46.96104" lon="-2.25567">
        <ele>6.9</ele>
      </trkpt>
      <trkpt lat="46.96091" lon="-2.25563">
        <ele>6.8</ele>
      </trkpt>
      <trkpt lat="46.96063" lon="-2.25548">
        <ele>6.6</ele>
      </trkpt>
      <trkpt lat="46.95992" lon="-2.25498">
        <ele>6</ele>
      </trkpt>
      <trkpt lat="46.9597" lon="-2.25481">
        <ele>6.7</ele>
      </trkpt>
      <trkpt lat="46.95959" lon="-2.25465">
        <ele>7</ele>
      </trkpt>
      <trkpt lat="46.95954" lon="-2.25444">
        <ele>7</ele>
      </trkpt>
      <trkpt lat="46.95953" lon="-2.2542">
        <ele>7</ele>
      </trkpt>
      <trkpt lat="46.95956" lon="-2.25399">
        <ele>7</ele>
      </trkpt>
      <trkpt lat="46.95962" lon="-2.2538">
        <ele>7</ele>
      </trkpt>
      <trkpt lat="46.95976" lon="-2.25353">
        <ele>7.3</ele>
      </trkpt>
      <trkpt lat="46.95989" lon="-2.25327">
        <ele>7.3</ele>
      </trkpt>
      <trkpt lat="46.96008" lon="-2.25295">
        <ele>6.7</ele>
      </trkpt>
      <trkpt lat="46.96029" lon="-2.25268">
        <ele>5.9</ele>
      </trkpt>
      <trkpt lat="46.96045" lon="-2.25247">
        <ele>5.4</ele>
      </trkpt>
      <trkpt lat="46.96054" lon="-2.25228">
        <ele>5</ele>
      </trkpt>
      <trkpt lat="46.9606" lon="-2.25213">
        <ele>4.6</ele>
      </trkpt>
      <trkpt lat="46.96067" lon="-2.25192">
        <ele>4</ele>
      </trkpt>
      <trkpt lat="46.9607" lon="-2.25174">
        <ele>3.6</ele>
      </trkpt>
      <trkpt lat="46.9607" lon="-2.2514">
        <ele>4</ele>
      </trkpt>
      <trkpt lat="46.96069" lon="-2.25097">
        <ele>5.3</ele>
      </trkpt>
      <trkpt lat="46.96074" lon="-2.25079">
        <ele>5.3</ele>
      </trkpt>
      <trkpt lat="46.96084" lon="-2.25058">
        <ele>5</ele>
      </trkpt>
      <trkpt lat="46.96099" lon="-2.25037">
        <ele>4.8</ele>
      </trkpt>
      <trkpt lat="46.96118" lon="-2.25017">
        <ele>4.9</ele>
      </trkpt>
      <trkpt lat="46.96137" lon="-2.25003">
        <ele>4.9</ele>
      </trkpt>
      <trkpt lat="46.96153" lon="-2.24995">
        <ele>4.5</ele>
      </trkpt>
      <trkpt lat="46.96174" lon="-2.24987">
        <ele>3.9</ele>
      </trkpt>
      <trkpt lat="46.96189" lon="-2.24975">
        <ele>3.9</ele>
      </trkpt>
      <trkpt lat="46.96208" lon="-2.24959">
        <ele>3.7</ele>
      </trkpt>
      <trkpt lat="46.96235" lon="-2.2494">
        <ele>4</ele>
      </trkpt>
      <trkpt lat="46.96265" lon="-2.24916">
        <ele>3.5</ele>
      </trkpt>
      <trkpt lat="46.96295" lon="-2.24893">
        <ele>3.3</ele>
      </trkpt>
      <trkpt lat="46.96327" lon="-2.24873">
        <ele>3</ele>
      </trkpt>
      <trkpt lat="46.96357" lon="-2.24851">
        <ele>3</ele>
      </trkpt>
      <trkpt lat="46.96343" lon="-2.24809">
        <ele>3.6</ele>
      </trkpt>
      <trkpt lat="46.96325" lon="-2.24754">
        <ele>4.3</ele>
      </trkpt>
      <trkpt lat="46.96316" lon="-2.24722">
        <ele>3.4</ele>
      </trkpt>
      <trkpt lat="46.96318" lon="-2.24716">
        <ele>3.3</ele>
      </trkpt>
      <trkpt lat="46.96336" lon="-2.24692">
        <ele>4.6</ele>
      </trkpt>
      <trkpt lat="46.96369" lon="-2.24662">
        <ele>4.3</ele>
      </trkpt>
      <trkpt lat="46.96394" lon="-2.24638">
        <ele>4.6</ele>
      </trkpt>
      <trkpt lat="46.96424" lon="-2.24586">
        <ele>3.4</ele>
      </trkpt>
      <trkpt lat="46.96442" lon="-2.24556">
        <ele>5.8</ele>
      </trkpt>
      <trkpt lat="46.96464" lon="-2.24517">
        <ele>5.1</ele>
      </trkpt>
      <trkpt lat="46.96481" lon="-2.24484">
        <ele>5.3</ele>
      </trkpt>
      <trkpt lat="46.965" lon="-2.24447">
        <ele>5.1</ele>
      </trkpt>
      <trkpt lat="46.96521" lon="-2.24396">
        <ele>5.4</ele>
      </trkpt>
      <trkpt lat="46.96533" lon="-2.24357">
        <ele>4.6</ele>
      </trkpt>
      <trkpt lat="46.96541" lon="-2.24329">
        <ele>4.4</ele>
      </trkpt>
      <trkpt lat="46.96546" lon="-2.24278">
        <ele>4.3</ele>
      </trkpt>
      <trkpt lat="46.96546" lon="-2.24211">
        <ele>5.3</ele>
      </trkpt>
      <trkpt lat="46.9655" lon="-2.24152">
        <ele>6</ele>
      </trkpt>
      <trkpt lat="46.96553" lon="-2.24072">
        <ele>5.6</ele>
      </trkpt>
      <trkpt lat="46.96555" lon="-2.24037">
        <ele>5.6</ele>
      </trkpt>
      <trkpt lat="46.96554" lon="-2.23998">
        <ele>6</ele>
      </trkpt>
      <trkpt lat="46.96552" lon="-2.23939">
        <ele>5.9</ele>
      </trkpt>
      <trkpt lat="46.96545" lon="-2.23904">
        <ele>5.8</ele>
      </trkpt>
      <trkpt lat="46.9654" lon="-2.23861">
        <ele>5.6</ele>
      </trkpt>
      <trkpt lat="46.96536" lon="-2.23809">
        <ele>5.7</ele>
      </trkpt>
      <trkpt lat="46.96537" lon="-2.23787">
        <ele>5.2</ele>
      </trkpt>
      <trkpt lat="46.96538" lon="-2.23776">
        <ele>5</ele>
      </trkpt>
      <trkpt lat="46.96538" lon="-2.23773">
        <ele>4.9</ele>
      </trkpt>
      <trkpt lat="46.96538" lon="-2.23773">
        <ele>4.9</ele>
      </trkpt>
      <trkpt lat="46.96541" lon="-2.23763">
        <ele>4.7</ele>
      </trkpt>
      <trkpt lat="46.9655" lon="-2.2374">
        <ele>5</ele>
      </trkpt>
      <trkpt lat="46.96555" lon="-2.23712">
        <ele>5.9</ele>
      </trkpt>
      <trkpt lat="46.96557" lon="-2.23689">
        <ele>6</ele>
      </trkpt>
      <trkpt lat="46.96557" lon="-2.23653">
        <ele>6</ele>
      </trkpt>
      <trkpt lat="46.96555" lon="-2.2362">
        <ele>5.9</ele>
      </trkpt>
      <trkpt lat="46.96555" lon="-2.23586">
        <ele>5.9</ele>
      </trkpt>
      <trkpt lat="46.96552" lon="-2.23538">
        <ele>5.6</ele>
      </trkpt>
      <trkpt lat="46.96552" lon="-2.23505">
        <ele>5.5</ele>
      </trkpt>
      <trkpt lat="46.96558" lon="-2.23498">
        <ele>6</ele>
      </trkpt>
      <trkpt lat="46.96579" lon="-2.23489">
        <ele>5.7</ele>
      </trkpt>
      <trkpt lat="46.96619" lon="-2.23467">
        <ele>4</ele>
      </trkpt>
      <trkpt lat="46.9664" lon="-2.23462">
        <ele>4</ele>
      </trkpt>
      <trkpt lat="46.96671" lon="-2.2346">
        <ele>3.4</ele>
      </trkpt>
      <trkpt lat="46.96714" lon="-2.23455">
        <ele>3</ele>
      </trkpt>
      <trkpt lat="46.96734" lon="-2.2345">
        <ele>3</ele>
      </trkpt>
      <trkpt lat="46.96734" lon="-2.2342">
        <ele>3</ele>
      </trkpt>
      <trkpt lat="46.96734" lon="-2.23348">
        <ele>3</ele>
      </trkpt>
      <trkpt lat="46.96734" lon="-2.23277">
        <ele>3</ele>
      </trkpt>
      <trkpt lat="46.96729" lon="-2.23278">
        <ele>3</ele>
      </trkpt>
      <trkpt lat="46.96708" lon="-2.23284">
        <ele>3</ele>
      </trkpt>
      <trkpt lat="46.96681" lon="-2.23297">
        <ele>3.3</ele>
      </trkpt>
      <trkpt lat="46.96633" lon="-2.23328">
        <ele>4</ele>
      </trkpt>
      <trkpt lat="46.96617" lon="-2.23334">
        <ele>4</ele>
      </trkpt>
      <trkpt lat="46.96585" lon="-2.23335">
        <ele>4.9</ele>
      </trkpt>
      <trkpt lat="46.9658" lon="-2.23329">
        <ele>5</ele>
      </trkpt>
      <trkpt lat="46.96581" lon="-2.23309">
        <ele>5</ele>
      </trkpt>
      <trkpt lat="46.96593" lon="-2.23154">
        <ele>5.2</ele>
      </trkpt>
      <trkpt lat="46.96602" lon="-2.23048">
        <ele>5.2</ele>
      </trkpt>
      <trkpt lat="46.96604" lon="-2.2303">
        <ele>5</ele>
      </trkpt>
      <trkpt lat="46.96625" lon="-2.2303">
        <ele>5</ele>
      </trkpt>
      <trkpt lat="46.96654" lon="-2.23033">
        <ele>5</ele>
      </trkpt>
      <trkpt lat="46.96671" lon="-2.23033">
        <ele>5</ele>
      </trkpt>
      <trkpt lat="46.96695" lon="-2.23033">
        <ele>5</ele>
      </trkpt>
      <trkpt lat="46.967" lon="-2.23031">
        <ele>4.8</ele>
      </trkpt>
      <trkpt lat="46.96698" lon="-2.23018">
        <ele>4.9</ele>
      </trkpt>
      <trkpt lat="46.96694" lon="-2.22986">
        <ele>5</ele>
      </trkpt>
      <trkpt lat="46.9669" lon="-2.22968">
        <ele>5.2</ele>
      </trkpt>
      <trkpt lat="46.96685" lon="-2.22951">
        <ele>5.3</ele>
      </trkpt>
      <trkpt lat="46.96676" lon="-2.22928">
        <ele>4.7</ele>
      </trkpt>
      <trkpt lat="46.9667" lon="-2.22899">
        <ele>5.4</ele>
      </trkpt>
      <trkpt lat="46.96669" lon="-2.22878">
        <ele>6.4</ele>
      </trkpt>
      <trkpt lat="46.96669" lon="-2.22841">
        <ele>7</ele>
      </trkpt>
      <trkpt lat="46.96669" lon="-2.22823">
        <ele>7</ele>
      </trkpt>
      <trkpt lat="46.96667" lon="-2.22807">
        <ele>7</ele>
      </trkpt>
      <trkpt lat="46.96668" lon="-2.22774">
        <ele>7</ele>
      </trkpt>
      <trkpt lat="46.96668" lon="-2.22732">
        <ele>7</ele>
      </trkpt>
      <trkpt lat="46.96667" lon="-2.2269">
        <ele>7</ele>
      </trkpt>
      <trkpt lat="46.96666" lon="-2.22672">
        <ele>7</ele>
      </trkpt>
      <trkpt lat="46.96664" lon="-2.22646">
        <ele>7.1</ele>
      </trkpt>
      <trkpt lat="46.96662" lon="-2.22625">
        <ele>7.1</ele>
      </trkpt>
      <trkpt lat="46.96659" lon="-2.22596">
        <ele>6.3</ele>
      </trkpt>
      <trkpt lat="46.96661" lon="-2.22588">
        <ele>6</ele>
      </trkpt>
      <trkpt lat="46.96666" lon="-2.22583">
        <ele>6</ele>
      </trkpt>
      <trkpt lat="46.96672" lon="-2.22578">
        <ele>6.1</ele>
      </trkpt>
      <trkpt lat="46.9668" lon="-2.22576">
        <ele>6</ele>
      </trkpt>
      <trkpt lat="46.96692" lon="-2.22576">
        <ele>5.8</ele>
      </trkpt>
      <trkpt lat="46.96707" lon="-2.22579">
        <ele>5.8</ele>
      </trkpt>
      <trkpt lat="46.96717" lon="-2.22581">
        <ele>5.9</ele>
      </trkpt>
      <trkpt lat="46.96735" lon="-2.22576">
        <ele>4.9</ele>
      </trkpt>
      <trkpt lat="46.96745" lon="-2.22571">
        <ele>4.3</ele>
      </trkpt>
      <trkpt lat="46.96757" lon="-2.22565">
        <ele>3.8</ele>
      </trkpt>
      <trkpt lat="46.96766" lon="-2.22561">
        <ele>3.4</ele>
      </trkpt>
      <trkpt lat="46.96769" lon="-2.22552">
        <ele>3.3</ele>
      </trkpt>
      <trkpt lat="46.9677" lon="-2.22544">
        <ele>3.3</ele>
      </trkpt>
      <trkpt lat="46.96765" lon="-2.22486">
        <ele>3.4</ele>
      </trkpt>
      <trkpt lat="46.96762" lon="-2.22462">
        <ele>3.6</ele>
      </trkpt>
      <trkpt lat="46.96753" lon="-2.22426">
        <ele>3.9</ele>
      </trkpt>
      <trkpt lat="46.96742" lon="-2.22382">
        <ele>3.8</ele>
      </trkpt>
      <trkpt lat="46.96721" lon="-2.22306">
        <ele>4</ele>
      </trkpt>
      <trkpt lat="46.96706" lon="-2.2225">
        <ele>3.6</ele>
      </trkpt>
      <trkpt lat="46.96701" lon="-2.22222">
        <ele>4.6</ele>
      </trkpt>
      <trkpt lat="46.96693" lon="-2.2218">
        <ele>4.7</ele>
      </trkpt>
      <trkpt lat="46.9668" lon="-2.22119">
        <ele>5.5</ele>
      </trkpt>
      <trkpt lat="46.9666" lon="-2.22032">
        <ele>4.8</ele>
      </trkpt>
      <trkpt lat="46.96673" lon="-2.21914">
        <ele>4.7</ele>
      </trkpt>
      <trkpt lat="46.96659" lon="-2.21732">
        <ele>3.9</ele>
      </trkpt>
      <trkpt lat="46.96658" lon="-2.21711">
        <ele>3.7</ele>
      </trkpt>
      <trkpt lat="46.96659" lon="-2.21698">
        <ele>3.4</ele>
      </trkpt>
      <trkpt lat="46.96654" lon="-2.2166">
        <ele>3.93359375</ele>
      </trkpt>
      <trkpt lat="46.96654" lon="-2.21644">
        <ele>3.9</ele>
      </trkpt>
      <trkpt lat="46.9665" lon="-2.21617">
        <ele>3.7</ele>
      </trkpt>
      <trkpt lat="46.96645" lon="-2.216">
        <ele>3.8</ele>
      </trkpt>
      <trkpt lat="46.96624" lon="-2.21541">
        <ele>4.1</ele>
      </trkpt>
      <trkpt lat="46.96601" lon="-2.21481">
        <ele>4.1</ele>
      </trkpt>
      <trkpt lat="46.96572" lon="-2.21414">
        <ele>4.3</ele>
      </trkpt>
      <trkpt lat="46.96528" lon="-2.21315">
        <ele>4</ele>
      </trkpt>
      <trkpt lat="46.96465" lon="-2.21165">
        <ele>4.2</ele>
      </trkpt>
      <trkpt lat="46.96369" lon="-2.20952">
        <ele>4</ele>
      </trkpt>
      <trkpt lat="46.96235" lon="-2.20652">
        <ele>4.6</ele>
      </trkpt>
      <trkpt lat="46.96171" lon="-2.2051">
        <ele>5</ele>
      </trkpt>
      <trkpt lat="46.96146" lon="-2.20457">
        <ele>4.4</ele>
      </trkpt>
      <trkpt lat="46.96127" lon="-2.20403">
        <ele>4.3</ele>
      </trkpt>
      <trkpt lat="46.96102" lon="-2.20335">
        <ele>4.6</ele>
      </trkpt>
      <trkpt lat="46.96082" lon="-2.20283">
        <ele>4</ele>
      </trkpt>
      <trkpt lat="46.96069" lon="-2.20257">
        <ele>4.5</ele>
      </trkpt>
      <trkpt lat="46.96042" lon="-2.20207">
        <ele>4.9</ele>
      </trkpt>
      <trkpt lat="46.9601" lon="-2.20136">
        <ele>4.6</ele>
      </trkpt>
      <trkpt lat="46.95953" lon="-2.20016">
        <ele>3.8</ele>
      </trkpt>
      <trkpt lat="46.95929" lon="-2.19969">
        <ele>3</ele>
      </trkpt>
      <trkpt lat="46.95911" lon="-2.19924">
        <ele>3.2</ele>
      </trkpt>
      <trkpt lat="46.95882" lon="-2.19856">
        <ele>3.2</ele>
      </trkpt>
      <trkpt lat="46.95807" lon="-2.1968">
        <ele>5.8</ele>
      </trkpt>
      <trkpt lat="46.95755" lon="-2.19562">
        <ele>3.9</ele>
      </trkpt>
      <trkpt lat="46.95691" lon="-2.1941">
        <ele>4.1</ele>
      </trkpt>
      <trkpt lat="46.95644" lon="-2.19291">
        <ele>4.1</ele>
      </trkpt>
      <trkpt lat="46.9561" lon="-2.1919">
        <ele>3.9</ele>
      </trkpt>
      <trkpt lat="46.95604" lon="-2.19165">
        <ele>3.3</ele>
      </trkpt>
      <trkpt lat="46.95604" lon="-2.19165">
        <ele>3.3</ele>
      </trkpt>
      <trkpt lat="46.9559" lon="-2.1912">
        <ele>4</ele>
      </trkpt>
      <trkpt lat="46.9558" lon="-2.19095">
        <ele>4.1</ele>
      </trkpt>
      <trkpt lat="46.9557" lon="-2.19081">
        <ele>4</ele>
      </trkpt>
      <trkpt lat="46.95563" lon="-2.19072">
        <ele>3.9</ele>
      </trkpt>
      <trkpt lat="46.95543" lon="-2.19048">
        <ele>4.2</ele>
      </trkpt>
      <trkpt lat="46.95543" lon="-2.19048">
        <ele>4.2</ele>
      </trkpt>
      <trkpt lat="46.95528" lon="-2.19035">
        <ele>4.2</ele>
      </trkpt>
      <trkpt lat="46.95523" lon="-2.1903">
        <ele>4.2</ele>
      </trkpt>
      <trkpt lat="46.9551" lon="-2.19017">
        <ele>4.6</ele>
      </trkpt>
      <trkpt lat="46.95418" lon="-2.18931">
        <ele>5</ele>
      </trkpt>
      <trkpt lat="46.95385" lon="-2.18905">
        <ele>5.1</ele>
      </trkpt>
      <trkpt lat="46.95385" lon="-2.18905">
        <ele>5.1</ele>
      </trkpt>
      <trkpt lat="46.95319" lon="-2.18836">
        <ele>5.1</ele>
      </trkpt>
      <trkpt lat="46.95251" lon="-2.18748">
        <ele>5</ele>
      </trkpt>
      <trkpt lat="46.95235" lon="-2.1874">
        <ele>5.5</ele>
      </trkpt>
      <trkpt lat="46.95226" lon="-2.18738">
        <ele>5.9</ele>
      </trkpt>
      <trkpt lat="46.95217" lon="-2.18729">
        <ele>6.2</ele>
      </trkpt>
      <trkpt lat="46.95216" lon="-2.18718">
        <ele>6.1</ele>
      </trkpt>
      <trkpt lat="46.95216" lon="-2.18719">
        <ele>6.1</ele>
      </trkpt>
      <trkpt lat="46.95213" lon="-2.18709">
        <ele>5.9</ele>
      </trkpt>
      <trkpt lat="46.952" lon="-2.18695">
        <ele>5.8</ele>
      </trkpt>
      <trkpt lat="46.95153" lon="-2.18664">
        <ele>5.1</ele>
      </trkpt>
      <trkpt lat="46.9512" lon="-2.18645">
        <ele>5.3</ele>
      </trkpt>
      <trkpt lat="46.94931" lon="-2.18524">
        <ele>5</ele>
      </trkpt>
      <trkpt lat="46.9487" lon="-2.18486">
        <ele>5</ele>
      </trkpt>
      <trkpt lat="46.94803" lon="-2.18442">
        <ele>5.1</ele>
      </trkpt>
      <trkpt lat="46.94717" lon="-2.18351">
        <ele>5.3</ele>
      </trkpt>
      <trkpt lat="46.94651" lon="-2.18285">
        <ele>4.1</ele>
      </trkpt>
      <trkpt lat="46.94603" lon="-2.18242">
        <ele>4</ele>
      </trkpt>
      <trkpt lat="46.94603" lon="-2.18242">
        <ele>4</ele>
      </trkpt>
      <trkpt lat="46.94595" lon="-2.18224">
        <ele>4</ele>
      </trkpt>
      <trkpt lat="46.94602" lon="-2.18196">
        <ele>3.4</ele>
      </trkpt>
      <trkpt lat="46.94616" lon="-2.18128">
        <ele>3</ele>
      </trkpt>
      <trkpt lat="46.94622" lon="-2.18081">
        <ele>3</ele>
      </trkpt>
      <trkpt lat="46.94615" lon="-2.18076">
        <ele>3</ele>
      </trkpt>
      <trkpt lat="46.94613" lon="-2.18072">
        <ele>3</ele>
      </trkpt>
      <trkpt lat="46.94614" lon="-2.18068">
        <ele>3</ele>
      </trkpt>
      <trkpt lat="46.9466" lon="-2.17972">
        <ele>2.2</ele>
      </trkpt>
      <trkpt lat="46.94661" lon="-2.17965">
        <ele>2.2</ele>
      </trkpt>
      <trkpt lat="46.94657" lon="-2.17958">
        <ele>2.3</ele>
      </trkpt>
      <trkpt lat="46.94614" lon="-2.17925">
        <ele>3</ele>
      </trkpt>
      <trkpt lat="46.9445" lon="-2.17797">
        <ele>2.4</ele>
      </trkpt>
      <trkpt lat="46.94379" lon="-2.17741">
        <ele>2.8</ele>
      </trkpt>
      <trkpt lat="46.94346" lon="-2.17719">
        <ele>3</ele>
      </trkpt>
      <trkpt lat="46.94241" lon="-2.17668">
        <ele>3</ele>
      </trkpt>
      <trkpt lat="46.94157" lon="-2.17626">
        <ele>2.8</ele>
      </trkpt>
      <trkpt lat="46.94047" lon="-2.17559">
        <ele>3</ele>
      </trkpt>
      <trkpt lat="46.94033" lon="-2.17548">
        <ele>3</ele>
      </trkpt>
      <trkpt lat="46.94025" lon="-2.17533">
        <ele>3</ele>
      </trkpt>
      <trkpt lat="46.94003" lon="-2.17474">
        <ele>2.9</ele>
      </trkpt>
      <trkpt lat="46.93993" lon="-2.17461">
        <ele>3</ele>
      </trkpt>
      <trkpt lat="46.93983" lon="-2.17452">
        <ele>3</ele>
      </trkpt>
      <trkpt lat="46.93971" lon="-2.17447">
        <ele>3</ele>
      </trkpt>
      <trkpt lat="46.93911" lon="-2.17433">
        <ele>3</ele>
      </trkpt>
      <trkpt lat="46.93895" lon="-2.17429">
        <ele>3</ele>
      </trkpt>
      <trkpt lat="46.93895" lon="-2.17429">
        <ele>3</ele>
      </trkpt>
      <trkpt lat="46.93839" lon="-2.17258">
        <ele>2.8</ele>
      </trkpt>
      <trkpt lat="46.9374" lon="-2.16973">
        <ele>2</ele>
      </trkpt>
      <trkpt lat="46.9373" lon="-2.16964">
        <ele>2</ele>
      </trkpt>
      <trkpt lat="46.9373" lon="-2.16964">
        <ele>2</ele>
      </trkpt>
      <trkpt lat="46.93724" lon="-2.16982">
        <ele>2</ele>
      </trkpt>
      <trkpt lat="46.93703" lon="-2.1708">
        <ele>2</ele>
      </trkpt>
      <trkpt lat="46.93686" lon="-2.17134">
        <ele>2</ele>
      </trkpt>
      <trkpt lat="46.9354" lon="-2.17019">
        <ele>2</ele>
      </trkpt>
      <trkpt lat="46.93483" lon="-2.16974">
        <ele>2</ele>
      </trkpt>
      <trkpt lat="46.93408" lon="-2.16915">
        <ele>2</ele>
      </trkpt>
      <trkpt lat="46.93323" lon="-2.16865">
        <ele>2</ele>
      </trkpt>
      <trkpt lat="46.93309" lon="-2.16855">
        <ele>2</ele>
      </trkpt>
      <trkpt lat="46.93295" lon="-2.16841">
        <ele>2</ele>
      </trkpt>
      <trkpt lat="46.93213" lon="-2.1673">
        <ele>3</ele>
      </trkpt>
      <trkpt lat="46.93144" lon="-2.16636">
        <ele>2.8</ele>
      </trkpt>
      <trkpt lat="46.93102" lon="-2.16578">
        <ele>2.9</ele>
      </trkpt>
      <trkpt lat="46.93084" lon="-2.16562">
        <ele>3</ele>
      </trkpt>
      <trkpt lat="46.93066" lon="-2.16552">
        <ele>3</ele>
      </trkpt>
      <trkpt lat="46.93036" lon="-2.16545">
        <ele>2.7</ele>
      </trkpt>
      <trkpt lat="46.9292" lon="-2.16521">
        <ele>3</ele>
      </trkpt>
      <trkpt lat="46.92877" lon="-2.16514">
        <ele>2.3</ele>
      </trkpt>
      <trkpt lat="46.92816" lon="-2.16504">
        <ele>2.7</ele>
      </trkpt>
      <trkpt lat="46.92757" lon="-2.16488">
        <ele>3.4</ele>
      </trkpt>
      <trkpt lat="46.92757" lon="-2.16488">
        <ele>3.4</ele>
      </trkpt>
      <trkpt lat="46.92736" lon="-2.16477">
        <ele>3.6</ele>
      </trkpt>
      <trkpt lat="46.9268" lon="-2.1645">
        <ele>4</ele>
      </trkpt>
      <trkpt lat="46.92622" lon="-2.16419">
        <ele>3</ele>
      </trkpt>
      <trkpt lat="46.92577" lon="-2.16397">
        <ele>3</ele>
      </trkpt>
      <trkpt lat="46.92507" lon="-2.16359">
        <ele>2</ele>
      </trkpt>
      <trkpt lat="46.92458" lon="-2.16336">
        <ele>2</ele>
      </trkpt>
      <trkpt lat="46.92402" lon="-2.16304">
        <ele>2</ele>
      </trkpt>
      <trkpt lat="46.92323" lon="-2.16255">
        <ele>2.3</ele>
      </trkpt>
      <trkpt lat="46.92243" lon="-2.16204">
        <ele>2.1</ele>
      </trkpt>
      <trkpt lat="46.92206" lon="-2.16187">
        <ele>2</ele>
      </trkpt>
      <trkpt lat="46.92132" lon="-2.16153">
        <ele>2.5</ele>
      </trkpt>
      <trkpt lat="46.92047" lon="-2.16111">
        <ele>2</ele>
      </trkpt>
      <trkpt lat="46.91983" lon="-2.16087">
        <ele>2</ele>
      </trkpt>
      <trkpt lat="46.91926" lon="-2.16067">
        <ele>2</ele>
      </trkpt>
      <trkpt lat="46.91901" lon="-2.16056">
        <ele>2</ele>
      </trkpt>
      <trkpt lat="46.91873" lon="-2.16037">
        <ele>2.2</ele>
      </trkpt>
      <trkpt lat="46.91826" lon="-2.15997">
        <ele>2</ele>
      </trkpt>
      <trkpt lat="46.91795" lon="-2.15977">
        <ele>2.1</ele>
      </trkpt>
      <trkpt lat="46.91746" lon="-2.15954">
        <ele>2</ele>
      </trkpt>
      <trkpt lat="46.91716" lon="-2.15942">
        <ele>2</ele>
      </trkpt>
      <trkpt lat="46.91695" lon="-2.15934">
        <ele>1.6</ele>
      </trkpt>
      <trkpt lat="46.91695" lon="-2.15934">
        <ele>1.6</ele>
      </trkpt>
      <trkpt lat="46.91667" lon="-2.15924">
        <ele>2</ele>
      </trkpt>
      <trkpt lat="46.91563" lon="-2.15889">
        <ele>2</ele>
      </trkpt>
      <trkpt lat="46.9149" lon="-2.15864">
        <ele>2</ele>
      </trkpt>
      <trkpt lat="46.91468" lon="-2.15854">
        <ele>2</ele>
      </trkpt>
      <trkpt lat="46.91452" lon="-2.15843">
        <ele>2</ele>
      </trkpt>
      <trkpt lat="46.91434" lon="-2.15827">
        <ele>2</ele>
      </trkpt>
      <trkpt lat="46.91415" lon="-2.15812">
        <ele>2</ele>
      </trkpt>
      <trkpt lat="46.91403" lon="-2.15809">
        <ele>2</ele>
      </trkpt>
      <trkpt lat="46.91387" lon="-2.15811">
        <ele>2</ele>
      </trkpt>
      <trkpt lat="46.91372" lon="-2.15817">
        <ele>2</ele>
      </trkpt>
      <trkpt lat="46.91355" lon="-2.15816">
        <ele>2</ele>
      </trkpt>
      <trkpt lat="46.91305" lon="-2.15818">
        <ele>2</ele>
      </trkpt>
      <trkpt lat="46.91259" lon="-2.15822">
        <ele>2.4</ele>
      </trkpt>
      <trkpt lat="46.91234" lon="-2.1583">
        <ele>2.9</ele>
      </trkpt>
      <trkpt lat="46.91186" lon="-2.15847">
        <ele>2.5</ele>
      </trkpt>
      <trkpt lat="46.91156" lon="-2.15863">
        <ele>2.7</ele>
      </trkpt>
      <trkpt lat="46.91137" lon="-2.15881">
        <ele>2.7</ele>
      </trkpt>
      <trkpt lat="46.91072" lon="-2.15945">
        <ele>3</ele>
      </trkpt>
      <trkpt lat="46.91066" lon="-2.1595">
        <ele>3.1</ele>
      </trkpt>
      <trkpt lat="46.91067" lon="-2.1595">
        <ele>3.1</ele>
      </trkpt>
      <trkpt lat="46.91039" lon="-2.15964">
        <ele>3.7</ele>
      </trkpt>
      <trkpt lat="46.91023" lon="-2.15963">
        <ele>3.8</ele>
      </trkpt>
      <trkpt lat="46.90931" lon="-2.15924">
        <ele>3.3</ele>
      </trkpt>
      <trkpt lat="46.9087" lon="-2.15899">
        <ele>3.1</ele>
      </trkpt>
      <trkpt lat="46.90818" lon="-2.15878">
        <ele>3.9</ele>
      </trkpt>
      <trkpt lat="46.90773" lon="-2.15852">
        <ele>4.2</ele>
      </trkpt>
      <trkpt lat="46.90715" lon="-2.15817">
        <ele>4.7</ele>
      </trkpt>
      <trkpt lat="46.90647" lon="-2.15778">
        <ele>4.7</ele>
      </trkpt>
      <trkpt lat="46.90585" lon="-2.15743">
        <ele>3.7</ele>
      </trkpt>
      <trkpt lat="46.90495" lon="-2.15698">
        <ele>3.3</ele>
      </trkpt>
      <trkpt lat="46.90469" lon="-2.15682">
        <ele>3.7</ele>
      </trkpt>
      <trkpt lat="46.90443" lon="-2.15657">
        <ele>3.7</ele>
      </trkpt>
      <trkpt lat="46.90418" lon="-2.15626">
        <ele>3.5</ele>
      </trkpt>
      <trkpt lat="46.90393" lon="-2.15587">
        <ele>3.1</ele>
      </trkpt>
      <trkpt lat="46.90364" lon="-2.1554">
        <ele>3.3</ele>
      </trkpt>
      <trkpt lat="46.90351" lon="-2.15524">
        <ele>3.6</ele>
      </trkpt>
      <trkpt lat="46.9031" lon="-2.15487">
        <ele>3.8</ele>
      </trkpt>
      <trkpt lat="46.90266" lon="-2.15447">
        <ele>4</ele>
      </trkpt>
      <trkpt lat="46.90248" lon="-2.15426">
        <ele>3.3</ele>
      </trkpt>
      <trkpt lat="46.90234" lon="-2.15405">
        <ele>2.8</ele>
      </trkpt>
      <trkpt lat="46.90215" lon="-2.15379">
        <ele>3.2</ele>
      </trkpt>
      <trkpt lat="46.90171" lon="-2.15315">
        <ele>4.1</ele>
      </trkpt>
      <trkpt lat="46.90136" lon="-2.15269">
        <ele>4.3</ele>
      </trkpt>
      <trkpt lat="46.90104" lon="-2.15235">
        <ele>4</ele>
      </trkpt>
      <trkpt lat="46.90054" lon="-2.15188">
        <ele>4</ele>
      </trkpt>
      <trkpt lat="46.90013" lon="-2.15158">
        <ele>5</ele>
      </trkpt>
      <trkpt lat="46.90006" lon="-2.15147">
        <ele>5</ele>
      </trkpt>
      <trkpt lat="46.90006" lon="-2.15147">
        <ele>5</ele>
      </trkpt>
      <trkpt lat="46.90005" lon="-2.15135">
        <ele>5</ele>
      </trkpt>
      <trkpt lat="46.90003" lon="-2.15118">
        <ele>5.1</ele>
      </trkpt>
      <trkpt lat="46.90004" lon="-2.15105">
        <ele>5.1</ele>
      </trkpt>
      <trkpt lat="46.90009" lon="-2.15091">
        <ele>5.1</ele>
      </trkpt>
      <trkpt lat="46.90016" lon="-2.15081">
        <ele>5</ele>
      </trkpt>
      <trkpt lat="46.90023" lon="-2.15081">
        <ele>5</ele>
      </trkpt>
      <trkpt lat="46.90023" lon="-2.15075">
        <ele>5</ele>
      </trkpt>
      <trkpt lat="46.90021" lon="-2.15068">
        <ele>5</ele>
      </trkpt>
      <trkpt lat="46.90017" lon="-2.15065">
        <ele>5</ele>
      </trkpt>
      <trkpt lat="46.90013" lon="-2.15063">
        <ele>5</ele>
      </trkpt>
      <trkpt lat="46.90008" lon="-2.15062">
        <ele>5</ele>
      </trkpt>
      <trkpt lat="46.90004" lon="-2.15062">
        <ele>5</ele>
      </trkpt>
      <trkpt lat="46.89999" lon="-2.15066">
        <ele>5</ele>
      </trkpt>
      <trkpt lat="46.89994" lon="-2.15067">
        <ele>5</ele>
      </trkpt>
      <trkpt lat="46.8999" lon="-2.15069">
        <ele>5</ele>
      </trkpt>
      <trkpt lat="46.89985" lon="-2.1507">
        <ele>5</ele>
      </trkpt>
      <trkpt lat="46.89981" lon="-2.15072">
        <ele>5</ele>
      </trkpt>
      <trkpt lat="46.89976" lon="-2.15073">
        <ele>5</ele>
      </trkpt>
      <trkpt lat="46.89971" lon="-2.15073">
        <ele>5.0625</ele>
      </trkpt>
      <trkpt lat="46.89966" lon="-2.15074">
        <ele>5.1171875</ele>
      </trkpt>
      <trkpt lat="46.89961" lon="-2.15074">
        <ele>5.1796875</ele>
      </trkpt>
      <trkpt lat="46.89956" lon="-2.15071">
        <ele>5.22265625</ele>
      </trkpt>
      <trkpt lat="46.89952" lon="-2.15069">
        <ele>5.2578125</ele>
      </trkpt>
      <trkpt lat="46.89948" lon="-2.15066">
        <ele>5.2734375</ele>
      </trkpt>
      <trkpt lat="46.89943" lon="-2.15064">
        <ele>5.296875</ele>
      </trkpt>
      <trkpt lat="46.89939" lon="-2.15061">
        <ele>5.30859375</ele>
      </trkpt>
      <trkpt lat="46.89934" lon="-2.1506">
        <ele>5.328125</ele>
      </trkpt>
      <trkpt lat="46.8993" lon="-2.15059">
        <ele>5.34375</ele>
      </trkpt>
      <trkpt lat="46.89926" lon="-2.15055">
        <ele>5.3203125</ele>
      </trkpt>
      <trkpt lat="46.89922" lon="-2.15052">
        <ele>5.2890625</ele>
      </trkpt>
      <trkpt lat="46.89917" lon="-2.1505">
        <ele>5.30859375</ele>
      </trkpt>
      <trkpt lat="46.89913" lon="-2.15047">
        <ele>5.3125</ele>
      </trkpt>
      <trkpt lat="46.89909" lon="-2.15044">
        <ele>5.32421875</ele>
      </trkpt>
      <trkpt lat="46.89904" lon="-2.15042">
        <ele>5.375</ele>
      </trkpt>
      <trkpt lat="46.899" lon="-2.1504">
        <ele>5.41796875</ele>
      </trkpt>
      <trkpt lat="46.89895" lon="-2.15039">
        <ele>5.48046875</ele>
      </trkpt>
      <trkpt lat="46.89891" lon="-2.15037">
        <ele>5.5390625</ele>
      </trkpt>
      <trkpt lat="46.89886" lon="-2.15034">
        <ele>5.59375</ele>
      </trkpt>
      <trkpt lat="46.89881" lon="-2.15031">
        <ele>5.6484375</ele>
      </trkpt>
      <trkpt lat="46.89877" lon="-2.15029">
        <ele>5.68359375</ele>
      </trkpt>
      <trkpt lat="46.89874" lon="-2.15023">
        <ele>5.6484375</ele>
      </trkpt>
      <trkpt lat="46.8987" lon="-2.15019">
        <ele>5.640625</ele>
      </trkpt>
      <trkpt lat="46.89866" lon="-2.15015">
        <ele>5.609375</ele>
      </trkpt>
      <trkpt lat="46.89862" lon="-2.15011">
        <ele>5.53125</ele>
      </trkpt>
      <trkpt lat="46.89858" lon="-2.15008">
        <ele>5.4375</ele>
      </trkpt>
      <trkpt lat="46.89853" lon="-2.15005">
        <ele>5.3515625</ele>
      </trkpt>
      <trkpt lat="46.89849" lon="-2.15002">
        <ele>5.27734375</ele>
      </trkpt>
      <trkpt lat="46.89818" lon="-2.14961">
        <ele>5</ele>
      </trkpt>
      <trkpt lat="46.89789" lon="-2.1491">
        <ele>5</ele>
      </trkpt>
      <trkpt lat="46.8977" lon="-2.1488">
        <ele>5</ele>
      </trkpt>
      <trkpt lat="46.89766" lon="-2.14877">
        <ele>5</ele>
      </trkpt>
      <trkpt lat="46.89762" lon="-2.14872">
        <ele>5</ele>
      </trkpt>
      <trkpt lat="46.89758" lon="-2.14869">
        <ele>4.9921875</ele>
      </trkpt>
      <trkpt lat="46.89755" lon="-2.14864">
        <ele>4.8046875</ele>
      </trkpt>
      <trkpt lat="46.8975" lon="-2.1486">
        <ele>4.62890625</ele>
      </trkpt>
      <trkpt lat="46.89746" lon="-2.14857">
        <ele>4.4375</ele>
      </trkpt>
      <trkpt lat="46.89741" lon="-2.14855">
        <ele>4.3125</ele>
      </trkpt>
      <trkpt lat="46.89737" lon="-2.14853">
        <ele>4.1953125</ele>
      </trkpt>
      <trkpt lat="46.89732" lon="-2.14851">
        <ele>4.08203125</ele>
      </trkpt>
      <trkpt lat="46.89728" lon="-2.14849">
        <ele>3.9921875</ele>
      </trkpt>
      <trkpt lat="46.89723" lon="-2.14848">
        <ele>3.90625</ele>
      </trkpt>
      <trkpt lat="46.89719" lon="-2.14848">
        <ele>3.85546875</ele>
      </trkpt>
      <trkpt lat="46.89618" lon="-2.14866">
        <ele>4.375</ele>
      </trkpt>
      <trkpt lat="46.89596" lon="-2.14862">
        <ele>4.71484375</ele>
      </trkpt>
      <trkpt lat="46.89464" lon="-2.14844">
        <ele>4.421875</ele>
      </trkpt>
      <trkpt lat="46.8946" lon="-2.1484">
        <ele>4.3359375</ele>
      </trkpt>
      <trkpt lat="46.89437" lon="-2.14842">
        <ele>4.15234375</ele>
      </trkpt>
      <trkpt lat="46.89425" lon="-2.1485">
        <ele>4.05078125</ele>
      </trkpt>
      <trkpt lat="46.8942" lon="-2.1488">
        <ele>3.9921875</ele>
      </trkpt>
      <trkpt lat="46.89406" lon="-2.14914">
        <ele>3.53515625</ele>
      </trkpt>
      <trkpt lat="46.89274" lon="-2.14944">
      </trkpt>
      <trkpt lat="46.89142" lon="-2.14975">
      </trkpt>
      <trkpt lat="46.88882" lon="-2.15034">
        <ele>3.33203125</ele>
      </trkpt>
      <trkpt lat="46.88728" lon="-2.15064">
        <ele>2.734375</ele>
      </trkpt>
      <trkpt lat="46.88671" lon="-2.15069">
        <ele>3</ele>
      </trkpt>
      <trkpt lat="46.88665" lon="-2.15065">
        <ele>3</ele>
      </trkpt>
      <trkpt lat="46.88659" lon="-2.15063">
        <ele>3</ele>
      </trkpt>
      <trkpt lat="46.88584" lon="-2.15037">
        <ele>3.0703125</ele>
      </trkpt>
      <trkpt lat="46.88536" lon="-2.15004">
        <ele>3.93359375</ele>
      </trkpt>
      <trkpt lat="46.88534" lon="-2.15017">
        <ele>3.96484375</ele>
      </trkpt>
      <trkpt lat="46.88527" lon="-2.15143">
        <ele>4</ele>
      </trkpt>
      <trkpt lat="46.88522" lon="-2.15144">
        <ele>4</ele>
      </trkpt>
      <trkpt lat="46.88521" lon="-2.15141">
        <ele>4</ele>
      </trkpt>
      <trkpt lat="46.88525" lon="-2.15032">
        <ele>4</ele>
      </trkpt>
      <trkpt lat="46.88526" lon="-2.15032">
        <ele>6.23</ele>
      </trkpt>
      <trkpt lat="46.88521" lon="-2.15023">
        <ele>6.35</ele>
      </trkpt>
      <trkpt lat="46.88514" lon="-2.15012">
        <ele>6.58</ele>
      </trkpt>
      <trkpt lat="46.88502" lon="-2.14999">
        <ele>6.96</ele>
      </trkpt>
      <trkpt lat="46.88496" lon="-2.14989">
        <ele>7.16</ele>
      </trkpt>
      <trkpt lat="46.88489" lon="-2.14977">
        <ele>7.33</ele>
      </trkpt>
      <trkpt lat="46.88479" lon="-2.14967">
        <ele>7.45</ele>
      </trkpt>
      <trkpt lat="46.88472" lon="-2.1496">
        <ele>7.49</ele>
      </trkpt>
      <trkpt lat="46.8847" lon="-2.14958">
        <ele>7.5</ele>
      </trkpt>
      <trkpt lat="46.88464" lon="-2.1495">
        <ele>7.51</ele>
      </trkpt>
      <trkpt lat="46.88458" lon="-2.1494">
        <ele>7.5</ele>
      </trkpt>
      <trkpt lat="46.88451" lon="-2.14932">
        <ele>7.44</ele>
      </trkpt>
      <trkpt lat="46.88448" lon="-2.14926">
        <ele>7.4</ele>
      </trkpt>
      <trkpt lat="46.88446" lon="-2.14924">
        <ele>7.38</ele>
      </trkpt>
      <trkpt lat="46.88446" lon="-2.14924">
        <ele>7.38</ele>
      </trkpt>
      <trkpt lat="46.88446" lon="-2.14924">
        <ele>7.38</ele>
      </trkpt>
      <trkpt lat="46.88446" lon="-2.14924">
        <ele>7.38</ele>
      </trkpt>
      <trkpt lat="46.88445" lon="-2.14922">
        <ele>7.36</ele>
      </trkpt>
      <trkpt lat="46.8844" lon="-2.14916">
        <ele>7.28</ele>
      </trkpt>
      <trkpt lat="46.88429" lon="-2.14896">
        <ele>7.15</ele>
      </trkpt>
      <trkpt lat="46.88423" lon="-2.14881">
        <ele>7.08</ele>
      </trkpt>
      <trkpt lat="46.88419" lon="-2.14865">
        <ele>7.02</ele>
      </trkpt>
      <trkpt lat="46.88414" lon="-2.14849">
        <ele>7</ele>
      </trkpt>
      <trkpt lat="46.88409" lon="-2.14833">
        <ele>7</ele>
      </trkpt>
      <trkpt lat="46.88405" lon="-2.14817">
        <ele>7.14</ele>
      </trkpt>
      <trkpt lat="46.88399" lon="-2.1479">
        <ele>7.3</ele>
      </trkpt>
      <trkpt lat="46.88398" lon="-2.14779">
        <ele>7.36</ele>
      </trkpt>
      <trkpt lat="46.88394" lon="-2.14746">
        <ele>7.41</ele>
      </trkpt>
      <trkpt lat="46.88392" lon="-2.14728">
        <ele>7.15</ele>
      </trkpt>
      <trkpt lat="46.88391" lon="-2.14715">
        <ele>6.98</ele>
      </trkpt>
      <trkpt lat="46.88391" lon="-2.14702">
        <ele>6.81</ele>
      </trkpt>
      <trkpt lat="46.88389" lon="-2.14682">
        <ele>6.52</ele>
      </trkpt>
      <trkpt lat="46.88391" lon="-2.1467">
        <ele>6.42</ele>
      </trkpt>
      <trkpt lat="46.88391" lon="-2.14661">
        <ele>6.28</ele>
      </trkpt>
      <trkpt lat="46.8839" lon="-2.14653">
        <ele>6.14</ele>
      </trkpt>
      <trkpt lat="46.88387" lon="-2.146">
        <ele>5.25</ele>
      </trkpt>
      <trkpt lat="46.88386" lon="-2.14591">
        <ele>5.12</ele>
      </trkpt>
      <trkpt lat="46.88385" lon="-2.14583">
        <ele>5</ele>
      </trkpt>
      <trkpt lat="46.88384" lon="-2.14565">
        <ele>5.09</ele>
      </trkpt>
      <trkpt lat="46.88379" lon="-2.14526">
        <ele>5.31</ele>
      </trkpt>
      <trkpt lat="46.88378" lon="-2.14517">
        <ele>5.37</ele>
      </trkpt>
      <trkpt lat="46.88377" lon="-2.14508">
        <ele>5.43</ele>
      </trkpt>
      <trkpt lat="46.88375" lon="-2.14491">
        <ele>5.61</ele>
      </trkpt>
      <trkpt lat="46.88368" lon="-2.14449">
        <ele>6.29</ele>
      </trkpt>
      <trkpt lat="46.8836" lon="-2.14401">
        <ele>6.97</ele>
      </trkpt>
      <trkpt lat="46.88359" lon="-2.14392">
        <ele>6.99</ele>
      </trkpt>
      <trkpt lat="46.88357" lon="-2.14383">
        <ele>7.01</ele>
      </trkpt>
      <trkpt lat="46.88355" lon="-2.14366">
        <ele>7.08</ele>
      </trkpt>
      <trkpt lat="46.88347" lon="-2.14314">
        <ele>7</ele>
      </trkpt>
      <trkpt lat="46.88341" lon="-2.14273">
        <ele>6.38</ele>
      </trkpt>
      <trkpt lat="46.88336" lon="-2.14265">
        <ele>6.31</ele>
      </trkpt>
      <trkpt lat="46.88331" lon="-2.14257">
        <ele>6.1</ele>
      </trkpt>
      <trkpt lat="46.88324" lon="-2.14252">
        <ele>5.82</ele>
      </trkpt>
      <trkpt lat="46.88305" lon="-2.1425">
        <ele>5.33</ele>
      </trkpt>
      <trkpt lat="46.88288" lon="-2.14248">
        <ele>4.97</ele>
      </trkpt>
      <trkpt lat="46.88222" lon="-2.14241">
        <ele>4.96</ele>
      </trkpt>
      <trkpt lat="46.88171" lon="-2.14237">
        <ele>6.21</ele>
      </trkpt>
      <trkpt lat="46.88118" lon="-2.14232">
        <ele>7.92</ele>
      </trkpt>
      <trkpt lat="46.88108" lon="-2.1423">
        <ele>8.26</ele>
      </trkpt>
      <trkpt lat="46.88099" lon="-2.14229">
        <ele>8.52</ele>
      </trkpt>
      <trkpt lat="46.8808" lon="-2.14223">
        <ele>8.91</ele>
      </trkpt>
      <trkpt lat="46.88047" lon="-2.14218">
        <ele>8.14</ele>
      </trkpt>
      <trkpt lat="46.88016" lon="-2.14215">
        <ele>7.4</ele>
      </trkpt>
      <trkpt lat="46.87966" lon="-2.14208">
        <ele>7.61</ele>
      </trkpt>
      <trkpt lat="46.87938" lon="-2.14202">
        <ele>8.05</ele>
      </trkpt>
      <trkpt lat="46.87927" lon="-2.14195">
        <ele>8.17</ele>
      </trkpt>
      <trkpt lat="46.87922" lon="-2.14187">
        <ele>8.16</ele>
      </trkpt>
      <trkpt lat="46.87911" lon="-2.14172">
        <ele>8</ele>
      </trkpt>
      <trkpt lat="46.87898" lon="-2.14144">
        <ele>7.84</ele>
      </trkpt>
      <trkpt lat="46.87893" lon="-2.1413">
        <ele>7.84</ele>
      </trkpt>
      <trkpt lat="46.87887" lon="-2.14115">
        <ele>7.87</ele>
      </trkpt>
      <trkpt lat="46.8788" lon="-2.14081">
        <ele>7.98</ele>
      </trkpt>
      <trkpt lat="46.87878" lon="-2.14069">
        <ele>7.91</ele>
      </trkpt>
      <trkpt lat="46.87875" lon="-2.14051">
        <ele>7.8</ele>
      </trkpt>
      <trkpt lat="46.87876" lon="-2.14032">
        <ele>7.68</ele>
      </trkpt>
      <trkpt lat="46.87877" lon="-2.14017">
        <ele>7.58</ele>
      </trkpt>
      <trkpt lat="46.87878" lon="-2.14004">
        <ele>7.49</ele>
      </trkpt>
      <trkpt lat="46.87879" lon="-2.1398">
        <ele>7.71</ele>
      </trkpt>
      <trkpt lat="46.87879" lon="-2.13972">
        <ele>7.82</ele>
      </trkpt>
      <trkpt lat="46.8788" lon="-2.13965">
        <ele>7.92</ele>
      </trkpt>
      <trkpt lat="46.87879" lon="-2.1393">
        <ele>8.37</ele>
      </trkpt>
      <trkpt lat="46.87878" lon="-2.13913">
        <ele>8.49</ele>
      </trkpt>
      <trkpt lat="46.87878" lon="-2.13904">
        <ele>8.38</ele>
      </trkpt>
      <trkpt lat="46.87878" lon="-2.13895">
        <ele>8.28</ele>
      </trkpt>
      <trkpt lat="46.87877" lon="-2.13858">
        <ele>7.83</ele>
      </trkpt>
      <trkpt lat="46.87873" lon="-2.13823">
        <ele>7.36</ele>
      </trkpt>
      <trkpt lat="46.87872" lon="-2.13815">
        <ele>7.24</ele>
      </trkpt>
      <trkpt lat="46.87871" lon="-2.13805">
        <ele>7.11</ele>
      </trkpt>
      <trkpt lat="46.87868" lon="-2.13774">
        <ele>6.71</ele>
      </trkpt>
      <trkpt lat="46.87865" lon="-2.13737">
        <ele>6.32</ele>
      </trkpt>
      <trkpt lat="46.87863" lon="-2.13727">
        <ele>6.26</ele>
      </trkpt>
      <trkpt lat="46.87861" lon="-2.13713">
        <ele>6.19</ele>
      </trkpt>
      <trkpt lat="46.87848" lon="-2.13656">
        <ele>6.02</ele>
      </trkpt>
      <trkpt lat="46.87846" lon="-2.1364">
        <ele>6.05</ele>
      </trkpt>
      <trkpt lat="46.87846" lon="-2.13623">
        <ele>6.08</ele>
      </trkpt>
      <trkpt lat="46.87846" lon="-2.13577">
        <ele>6.14</ele>
      </trkpt>
      <trkpt lat="46.87848" lon="-2.13564">
        <ele>6.14</ele>
      </trkpt>
      <trkpt lat="46.8785" lon="-2.13551">
        <ele>6.12</ele>
      </trkpt>
      <trkpt lat="46.87852" lon="-2.13532">
        <ele>6.09</ele>
      </trkpt>
      <trkpt lat="46.87862" lon="-2.13514">
        <ele>6.06</ele>
      </trkpt>
      <trkpt lat="46.87876" lon="-2.13501">
        <ele>6</ele>
      </trkpt>
      <trkpt lat="46.87882" lon="-2.13489">
        <ele>6.13</ele>
      </trkpt>
      <trkpt lat="46.87882" lon="-2.1348">
        <ele>6.24</ele>
      </trkpt>
      <trkpt lat="46.87882" lon="-2.13471">
        <ele>6.35</ele>
      </trkpt>
      <trkpt lat="46.87874" lon="-2.13429">
        <ele>6.85</ele>
      </trkpt>
      <trkpt lat="46.87864" lon="-2.13382">
        <ele>7.67</ele>
      </trkpt>
      <trkpt lat="46.87858" lon="-2.13356">
        <ele>8.25</ele>
      </trkpt>
      <trkpt lat="46.87855" lon="-2.13343">
        <ele>8.54</ele>
      </trkpt>
      <trkpt lat="46.87853" lon="-2.13335">
        <ele>8.72</ele>
      </trkpt>
      <trkpt lat="46.87847" lon="-2.13309">
        <ele>9.58</ele>
      </trkpt>
      <trkpt lat="46.87843" lon="-2.13292">
        <ele>10.05</ele>
      </trkpt>
      <trkpt lat="46.87835" lon="-2.13256">
        <ele>10.89</ele>
      </trkpt>
      <trkpt lat="46.87833" lon="-2.13248">
        <ele>11.04</ele>
      </trkpt>
      <trkpt lat="46.8783" lon="-2.13232">
        <ele>11.41</ele>
      </trkpt>
      <trkpt lat="46.87825" lon="-2.13202">
        <ele>12.04</ele>
      </trkpt>
      <trkpt lat="46.87825" lon="-2.13185">
        <ele>12.4</ele>
      </trkpt>
      <trkpt lat="46.87823" lon="-2.13173">
        <ele>12.6</ele>
      </trkpt>
      <trkpt lat="46.87816" lon="-2.1315">
        <ele>12.82</ele>
      </trkpt>
      <trkpt lat="46.8781" lon="-2.1312">
        <ele>12.93</ele>
      </trkpt>
      <trkpt lat="46.87812" lon="-2.13109">
        <ele>13.17</ele>
      </trkpt>
      <trkpt lat="46.87816" lon="-2.13095">
        <ele>13.59</ele>
      </trkpt>
      <trkpt lat="46.87824" lon="-2.1308">
        <ele>14.29</ele>
      </trkpt>
      <trkpt lat="46.87828" lon="-2.1307">
        <ele>14.48</ele>
      </trkpt>
      <trkpt lat="46.87831" lon="-2.13063">
        <ele>14.59</ele>
      </trkpt>
      <trkpt lat="46.8784" lon="-2.13041">
        <ele>14.4</ele>
      </trkpt>
      <trkpt lat="46.87844" lon="-2.13034">
        <ele>14.2</ele>
      </trkpt>
      <trkpt lat="46.87847" lon="-2.13027">
        <ele>13.98</ele>
      </trkpt>
      <trkpt lat="46.87852" lon="-2.13018">
        <ele>13.59</ele>
      </trkpt>
      <trkpt lat="46.87853" lon="-2.1301">
        <ele>13.34</ele>
      </trkpt>
      <trkpt lat="46.87853" lon="-2.13001">
        <ele>13.07</ele>
      </trkpt>
      <trkpt lat="46.87853" lon="-2.12989">
        <ele>12.91</ele>
      </trkpt>
      <trkpt lat="46.87851" lon="-2.12958">
        <ele>12.47</ele>
      </trkpt>
      <trkpt lat="46.8785" lon="-2.12947">
        <ele>12.3</ele>
      </trkpt>
      <trkpt lat="46.8785" lon="-2.12937">
        <ele>12.16</ele>
      </trkpt>
      <trkpt lat="46.87848" lon="-2.12909">
        <ele>11.69</ele>
      </trkpt>
      <trkpt lat="46.87846" lon="-2.12879">
        <ele>11.15</ele>
      </trkpt>
      <trkpt lat="46.87845" lon="-2.12864">
        <ele>10.86</ele>
      </trkpt>
      <trkpt lat="46.87846" lon="-2.12848">
        <ele>10.56</ele>
      </trkpt>
      <trkpt lat="46.87846" lon="-2.1283">
        <ele>10.38</ele>
      </trkpt>
      <trkpt lat="46.87846" lon="-2.12813">
        <ele>10.73</ele>
      </trkpt>
      <trkpt lat="46.87845" lon="-2.1279">
        <ele>11.17</ele>
      </trkpt>
      <trkpt lat="46.87845" lon="-2.12765">
        <ele>11.69</ele>
      </trkpt>
      <trkpt lat="46.87847" lon="-2.12737">
        <ele>12.98</ele>
      </trkpt>
      <trkpt lat="46.87848" lon="-2.12726">
        <ele>13.78</ele>
      </trkpt>
      <trkpt lat="46.87849" lon="-2.12718">
        <ele>14.43</ele>
      </trkpt>
      <trkpt lat="46.87851" lon="-2.12695">
        <ele>16.08</ele>
      </trkpt>
      <trkpt lat="46.87852" lon="-2.12667">
        <ele>18.09</ele>
      </trkpt>
      <trkpt lat="46.87854" lon="-2.12648">
        <ele>18.43</ele>
      </trkpt>
      <trkpt lat="46.87855" lon="-2.12639">
        <ele>18.55</ele>
      </trkpt>
      <trkpt lat="46.87858" lon="-2.12626">
        <ele>18.74</ele>
      </trkpt>
      <trkpt lat="46.87862" lon="-2.12615">
        <ele>18.86</ele>
      </trkpt>
      <trkpt lat="46.87863" lon="-2.12598">
        <ele>19.27</ele>
      </trkpt>
      <trkpt lat="46.87863" lon="-2.12582">
        <ele>19.51</ele>
      </trkpt>
      <trkpt lat="46.87861" lon="-2.12566">
        <ele>18.29</ele>
      </trkpt>
      <trkpt lat="46.87858" lon="-2.12546">
        <ele>16.69</ele>
      </trkpt>
      <trkpt lat="46.87852" lon="-2.12524">
        <ele>14.77</ele>
      </trkpt>
      <trkpt lat="46.87848" lon="-2.12509">
        <ele>13.34</ele>
      </trkpt>
      <trkpt lat="46.87814" lon="-2.12508">
        <ele>13.2</ele>
      </trkpt>
      <trkpt lat="46.87794" lon="-2.12505">
        <ele>13.41</ele>
      </trkpt>
      <trkpt lat="46.87778" lon="-2.12498">
        <ele>13.1</ele>
      </trkpt>
      <trkpt lat="46.87757" lon="-2.12489">
        <ele>12.66</ele>
      </trkpt>
      <trkpt lat="46.8774" lon="-2.12488">
        <ele>13.38</ele>
      </trkpt>
      <trkpt lat="46.87733" lon="-2.12486">
        <ele>13.56</ele>
      </trkpt>
      <trkpt lat="46.87728" lon="-2.12485">
        <ele>13.81</ele>
      </trkpt>
      <trkpt lat="46.87671" lon="-2.12459">
        <ele>13.89</ele>
      </trkpt>
      <trkpt lat="46.87602" lon="-2.12409">
        <ele>13.5</ele>
      </trkpt>
      <trkpt lat="46.87536" lon="-2.12359">
        <ele>10.68</ele>
      </trkpt>
      <trkpt lat="46.87472" lon="-2.12349">
        <ele>9.15</ele>
      </trkpt>
      <trkpt lat="46.87432" lon="-2.12377">
        <ele>9.9</ele>
      </trkpt>
      <trkpt lat="46.87385" lon="-2.12431">
        <ele>13.31</ele>
      </trkpt>
      <trkpt lat="46.87345" lon="-2.12436">
        <ele>12.9</ele>
      </trkpt>
      <trkpt lat="46.87303" lon="-2.12436">
        <ele>13.64</ele>
      </trkpt>
      <trkpt lat="46.87259" lon="-2.12414">
        <ele>14.3</ele>
      </trkpt>
      <trkpt lat="46.87237" lon="-2.124">
        <ele>12.98</ele>
      </trkpt>
      <trkpt lat="46.87213" lon="-2.12385">
        <ele>11.06</ele>
      </trkpt>
      <trkpt lat="46.87178" lon="-2.12364">
        <ele>8.68</ele>
      </trkpt>
      <trkpt lat="46.87137" lon="-2.1235">
        <ele>7.23</ele>
      </trkpt>
      <trkpt lat="46.87116" lon="-2.12351">
        <ele>7.21</ele>
      </trkpt>
      <trkpt lat="46.87083" lon="-2.1235">
        <ele>7</ele>
      </trkpt>
      <trkpt lat="46.87052" lon="-2.12359">
        <ele>6.84</ele>
      </trkpt>
      <trkpt lat="46.87053" lon="-2.12375">
        <ele>7.56</ele>
      </trkpt>
      <trkpt lat="46.87029" lon="-2.12382">
        <ele>7.1</ele>
      </trkpt>
      <trkpt lat="46.87017" lon="-2.12388">
        <ele>6.92</ele>
      </trkpt>
      <trkpt lat="46.86995" lon="-2.12409">
        <ele>6.69</ele>
      </trkpt>
      <trkpt lat="46.8698" lon="-2.12424">
        <ele>6.92</ele>
      </trkpt>
      <trkpt lat="46.86964" lon="-2.12454">
        <ele>8.29</ele>
      </trkpt>
      <trkpt lat="46.86925" lon="-2.12477">
        <ele>9.37</ele>
      </trkpt>
      <trkpt lat="46.86903" lon="-2.12491">
        <ele>10.34</ele>
      </trkpt>
      <trkpt lat="46.86885" lon="-2.12483">
        <ele>9.83</ele>
      </trkpt>
      <trkpt lat="46.86871" lon="-2.12477">
        <ele>9.5</ele>
      </trkpt>
      <trkpt lat="46.86855" lon="-2.12471">
        <ele>9.2</ele>
      </trkpt>
      <trkpt lat="46.86833" lon="-2.12478">
        <ele>9.67</ele>
      </trkpt>
      <trkpt lat="46.86817" lon="-2.12487">
        <ele>11.04</ele>
      </trkpt>
      <trkpt lat="46.86794" lon="-2.1248">
        <ele>11.93</ele>
      </trkpt>
      <trkpt lat="46.86782" lon="-2.12478">
        <ele>12.45</ele>
      </trkpt>
      <trkpt lat="46.86758" lon="-2.1247">
        <ele>13.45</ele>
      </trkpt>
      <trkpt lat="46.86721" lon="-2.12448">
        <ele>13.36</ele>
      </trkpt>
      <trkpt lat="46.86695" lon="-2.12424">
        <ele>12.88</ele>
      </trkpt>
      <trkpt lat="46.86679" lon="-2.12402">
        <ele>12.75</ele>
      </trkpt>
      <trkpt lat="46.86659" lon="-2.12385">
        <ele>12.88</ele>
      </trkpt>
      <trkpt lat="46.86635" lon="-2.12383">
        <ele>12.47</ele>
      </trkpt>
      <trkpt lat="46.86618" lon="-2.12395">
        <ele>12.26</ele>
      </trkpt>
      <trkpt lat="46.86601" lon="-2.12402">
        <ele>12.08</ele>
      </trkpt>
      <trkpt lat="46.86552" lon="-2.12428">
        <ele>11.11</ele>
      </trkpt>
      <trkpt lat="46.86521" lon="-2.12454">
        <ele>10.33</ele>
      </trkpt>
      <trkpt lat="46.86491" lon="-2.12451">
        <ele>9.47</ele>
      </trkpt>
      <trkpt lat="46.86472" lon="-2.1247">
        <ele>9.76</ele>
      </trkpt>
      <trkpt lat="46.86458" lon="-2.12499">
        <ele>9.99</ele>
      </trkpt>
      <trkpt lat="46.86404" lon="-2.12488">
        <ele>10.47</ele>
      </trkpt>
      <trkpt lat="46.86368" lon="-2.12497">
        <ele>11.73</ele>
      </trkpt>
      <trkpt lat="46.86354" lon="-2.12497">
        <ele>12.27</ele>
      </trkpt>
      <trkpt lat="46.86338" lon="-2.12453">
        <ele>12.84</ele>
      </trkpt>
      <trkpt lat="46.86295" lon="-2.12372">
        <ele>12.18</ele>
      </trkpt>
      <trkpt lat="46.86278" lon="-2.1231">
        <ele>11.75</ele>
      </trkpt>
      <trkpt lat="46.86272" lon="-2.12287">
        <ele>12</ele>
      </trkpt>
      <trkpt lat="46.86253" lon="-2.12241">
        <ele>12.89</ele>
      </trkpt>
      <trkpt lat="46.8621" lon="-2.12183">
        <ele>13.29</ele>
      </trkpt>
      <trkpt lat="46.86211" lon="-2.12162">
        <ele>13.49</ele>
      </trkpt>
      <trkpt lat="46.8622" lon="-2.12137">
        <ele>13.48</ele>
      </trkpt>
      <trkpt lat="46.86224" lon="-2.1212">
        <ele>13.48</ele>
      </trkpt>
      <trkpt lat="46.86228" lon="-2.121">
        <ele>13.47</ele>
      </trkpt>
      <trkpt lat="46.86227" lon="-2.12081">
        <ele>13.44</ele>
      </trkpt>
      <trkpt lat="46.86224" lon="-2.12064">
        <ele>12.63</ele>
      </trkpt>
      <trkpt lat="46.86217" lon="-2.12046">
        <ele>11.82</ele>
      </trkpt>
      <trkpt lat="46.86207" lon="-2.12038">
        <ele>11.6</ele>
      </trkpt>
      <trkpt lat="46.86181" lon="-2.12029">
        <ele>11.52</ele>
      </trkpt>
      <trkpt lat="46.86153" lon="-2.12025">
        <ele>12.04</ele>
      </trkpt>
      <trkpt lat="46.86134" lon="-2.12031">
        <ele>13.14</ele>
      </trkpt>
      <trkpt lat="46.86116" lon="-2.12018">
        <ele>13.28</ele>
      </trkpt>
      <trkpt lat="46.86097" lon="-2.12008">
        <ele>13.66</ele>
      </trkpt>
      <trkpt lat="46.86072" lon="-2.11968">
        <ele>12.29</ele>
      </trkpt>
      <trkpt lat="46.86026" lon="-2.11922">
        <ele>12.37</ele>
      </trkpt>
      <trkpt lat="46.85986" lon="-2.11886">
        <ele>11.8</ele>
      </trkpt>
      <trkpt lat="46.8597" lon="-2.11867">
        <ele>11.12</ele>
      </trkpt>
      <trkpt lat="46.85923" lon="-2.1182">
        <ele>11.73</ele>
      </trkpt>
      <trkpt lat="46.85922" lon="-2.11818">
        <ele>11.74</ele>
      </trkpt>
      <trkpt lat="46.85915" lon="-2.11811">
        <ele>11.63</ele>
      </trkpt>
      <trkpt lat="46.8591" lon="-2.11817">
        <ele>11.81</ele>
      </trkpt>
      <trkpt lat="46.85895" lon="-2.11835">
        <ele>12.24</ele>
      </trkpt>
      <trkpt lat="46.85894" lon="-2.11836">
        <ele>12.24</ele>
      </trkpt>
      <trkpt lat="46.85881" lon="-2.11858">
        <ele>12.26</ele>
      </trkpt>
      <trkpt lat="46.85865" lon="-2.11888">
        <ele>12.62</ele>
      </trkpt>
      <trkpt lat="46.85861" lon="-2.11896">
        <ele>12.75</ele>
      </trkpt>
      <trkpt lat="46.85861" lon="-2.11898">
        <ele>12.8</ele>
      </trkpt>
      <trkpt lat="46.85855" lon="-2.11942">
        <ele>13.26</ele>
      </trkpt>
      <trkpt lat="46.85831" lon="-2.11979">
        <ele>13.05</ele>
      </trkpt>
      <trkpt lat="46.85826" lon="-2.11984">
        <ele>13.18</ele>
      </trkpt>
      <trkpt lat="46.85825" lon="-2.11985">
        <ele>13.2</ele>
      </trkpt>
      <trkpt lat="46.85805" lon="-2.12005">
        <ele>13.62</ele>
      </trkpt>
      <trkpt lat="46.85794" lon="-2.12021">
        <ele>13.7</ele>
      </trkpt>
      <trkpt lat="46.85781" lon="-2.12038">
        <ele>13.81</ele>
      </trkpt>
      <trkpt lat="46.85772" lon="-2.12043">
        <ele>13.97</ele>
      </trkpt>
      <trkpt lat="46.85754" lon="-2.12057">
        <ele>14.22</ele>
      </trkpt>
      <trkpt lat="46.85702" lon="-2.12112">
        <ele>13.02</ele>
      </trkpt>
      <trkpt lat="46.85669" lon="-2.12184">
        <ele>11.29</ele>
      </trkpt>
      <trkpt lat="46.8568" lon="-2.12272">
        <ele>12.76</ele>
      </trkpt>
      <trkpt lat="46.85661" lon="-2.12291">
        <ele>12.79</ele>
      </trkpt>
      <trkpt lat="46.85632" lon="-2.12294">
        <ele>11.79</ele>
      </trkpt>
      <trkpt lat="46.8561" lon="-2.12293">
        <ele>11</ele>
      </trkpt>
      <trkpt lat="46.85578" lon="-2.12294">
        <ele>9.92</ele>
      </trkpt>
      <trkpt lat="46.85547" lon="-2.12323">
        <ele>9.83</ele>
      </trkpt>
      <trkpt lat="46.85531" lon="-2.12339">
        <ele>9.81</ele>
      </trkpt>
      <trkpt lat="46.85486" lon="-2.12394">
        <ele>10.74</ele>
      </trkpt>
      <trkpt lat="46.85472" lon="-2.12409">
        <ele>10.98</ele>
      </trkpt>
      <trkpt lat="46.85458" lon="-2.1243">
        <ele>11.49</ele>
      </trkpt>
      <trkpt lat="46.85441" lon="-2.12455">
        <ele>12.14</ele>
      </trkpt>
      <trkpt lat="46.85422" lon="-2.1247">
        <ele>12.62</ele>
      </trkpt>
      <trkpt lat="46.85403" lon="-2.12485">
        <ele>12.89</ele>
      </trkpt>
      <trkpt lat="46.85382" lon="-2.12504">
        <ele>13.26</ele>
      </trkpt>
      <trkpt lat="46.85348" lon="-2.12543">
        <ele>13.37</ele>
      </trkpt>
      <trkpt lat="46.85323" lon="-2.12563">
        <ele>12.96</ele>
      </trkpt>
      <trkpt lat="46.85304" lon="-2.12586">
        <ele>12.65</ele>
      </trkpt>
      <trkpt lat="46.85276" lon="-2.12614">
        <ele>12.38</ele>
      </trkpt>
      <trkpt lat="46.85246" lon="-2.12647">
        <ele>12.74</ele>
      </trkpt>
      <trkpt lat="46.85217" lon="-2.12679">
        <ele>12.02</ele>
      </trkpt>
      <trkpt lat="46.85196" lon="-2.12719">
        <ele>13.24</ele>
      </trkpt>
      <trkpt lat="46.85159" lon="-2.12756">
        <ele>13.73</ele>
      </trkpt>
      <trkpt lat="46.85131" lon="-2.12794">
        <ele>14.41</ele>
      </trkpt>
      <trkpt lat="46.85101" lon="-2.12791">
        <ele>12.8</ele>
      </trkpt>
      <trkpt lat="46.85082" lon="-2.12799">
        <ele>12.61</ele>
      </trkpt>
      <trkpt lat="46.85057" lon="-2.12815">
        <ele>12.36</ele>
      </trkpt>
      <trkpt lat="46.85048" lon="-2.12828">
        <ele>12.7</ele>
      </trkpt>
      <trkpt lat="46.85044" lon="-2.12833">
        <ele>12.66</ele>
      </trkpt>
      <trkpt lat="46.85034" lon="-2.12842">
        <ele>12.07</ele>
      </trkpt>
      <trkpt lat="46.85026" lon="-2.12847">
        <ele>11.49</ele>
      </trkpt>
      <trkpt lat="46.85016" lon="-2.12849">
        <ele>10.82</ele>
      </trkpt>
      <trkpt lat="46.85005" lon="-2.12854">
        <ele>10.15</ele>
      </trkpt>
      <trkpt lat="46.84993" lon="-2.12863">
        <ele>9.67</ele>
      </trkpt>
      <trkpt lat="46.84983" lon="-2.12875">
        <ele>9.62</ele>
      </trkpt>
      <trkpt lat="46.84983" lon="-2.12898">
        <ele>10.33</ele>
      </trkpt>
      <trkpt lat="46.84973" lon="-2.12917">
        <ele>10.37</ele>
      </trkpt>
      <trkpt lat="46.84962" lon="-2.1293">
        <ele>9.99</ele>
      </trkpt>
      <trkpt lat="46.84951" lon="-2.1294">
        <ele>9.73</ele>
      </trkpt>
      <trkpt lat="46.84938" lon="-2.12948">
        <ele>9.4</ele>
      </trkpt>
      <trkpt lat="46.84924" lon="-2.12956">
        <ele>9.15</ele>
      </trkpt>
      <trkpt lat="46.8491" lon="-2.12961">
        <ele>9.01</ele>
      </trkpt>
      <trkpt lat="46.849" lon="-2.12969">
        <ele>9.21</ele>
      </trkpt>
      <trkpt lat="46.84893" lon="-2.12981">
        <ele>9.57</ele>
      </trkpt>
      <trkpt lat="46.84873" lon="-2.12994">
        <ele>9.71</ele>
      </trkpt>
      <trkpt lat="46.84857" lon="-2.13005">
        <ele>9.59</ele>
      </trkpt>
      <trkpt lat="46.8485" lon="-2.13009">
        <ele>9.45</ele>
      </trkpt>
      <trkpt lat="46.84843" lon="-2.13009">
        <ele>9.31</ele>
      </trkpt>
      <trkpt lat="46.84833" lon="-2.13005">
        <ele>9.06</ele>
      </trkpt>
      <trkpt lat="46.84825" lon="-2.13002">
        <ele>8.92</ele>
      </trkpt>
      <trkpt lat="46.84816" lon="-2.13009">
        <ele>8.94</ele>
      </trkpt>
      <trkpt lat="46.8481" lon="-2.13015">
        <ele>9</ele>
      </trkpt>
      <trkpt lat="46.84805" lon="-2.13017">
        <ele>9.01</ele>
      </trkpt>
      <trkpt lat="46.84798" lon="-2.13017">
        <ele>8.96</ele>
      </trkpt>
      <trkpt lat="46.84793" lon="-2.13023">
        <ele>9.05</ele>
      </trkpt>
      <trkpt lat="46.84791" lon="-2.13031">
        <ele>9.25</ele>
      </trkpt>
      <trkpt lat="46.84785" lon="-2.13043">
        <ele>9.54</ele>
      </trkpt>
      <trkpt lat="46.84779" lon="-2.13052">
        <ele>9.8</ele>
      </trkpt>
      <trkpt lat="46.84769" lon="-2.13056">
        <ele>9.93</ele>
      </trkpt>
      <trkpt lat="46.84757" lon="-2.13061">
        <ele>10.17</ele>
      </trkpt>
      <trkpt lat="46.84745" lon="-2.13065">
        <ele>10.24</ele>
      </trkpt>
      <trkpt lat="46.84728" lon="-2.13066">
        <ele>9.86</ele>
      </trkpt>
      <trkpt lat="46.84709" lon="-2.13065">
        <ele>9.36</ele>
      </trkpt>
      <trkpt lat="46.8469" lon="-2.13066">
        <ele>8.95</ele>
      </trkpt>
      <trkpt lat="46.84678" lon="-2.13084">
        <ele>9.29</ele>
      </trkpt>
      <trkpt lat="46.84672" lon="-2.13111">
        <ele>9.76</ele>
      </trkpt>
      <trkpt lat="46.84663" lon="-2.13142">
        <ele>10.33</ele>
      </trkpt>
      <trkpt lat="46.84641" lon="-2.13145">
        <ele>9.86</ele>
      </trkpt>
      <trkpt lat="46.84635" lon="-2.13164">
        <ele>10.17</ele>
      </trkpt>
      <trkpt lat="46.84628" lon="-2.13179">
        <ele>10.23</ele>
      </trkpt>
      <trkpt lat="46.84624" lon="-2.13183">
        <ele>10.19</ele>
      </trkpt>
      <trkpt lat="46.84619" lon="-2.13188">
        <ele>10.12</ele>
      </trkpt>
      <trkpt lat="46.84612" lon="-2.13194">
        <ele>10.02</ele>
      </trkpt>
      <trkpt lat="46.84607" lon="-2.13193">
        <ele>9.89</ele>
      </trkpt>
      <trkpt lat="46.846" lon="-2.13196">
        <ele>9.74</ele>
      </trkpt>
      <trkpt lat="46.84594" lon="-2.1321">
        <ele>9.77</ele>
      </trkpt>
      <trkpt lat="46.84586" lon="-2.13216">
        <ele>9.65</ele>
      </trkpt>
      <trkpt lat="46.84579" lon="-2.13222">
        <ele>9.66</ele>
      </trkpt>
      <trkpt lat="46.84561" lon="-2.13227">
        <ele>9.76</ele>
      </trkpt>
      <trkpt lat="46.84543" lon="-2.13226">
        <ele>9.79</ele>
      </trkpt>
      <trkpt lat="46.84515" lon="-2.13249">
        <ele>10.77</ele>
      </trkpt>
      <trkpt lat="46.84493" lon="-2.13249">
        <ele>10.69</ele>
      </trkpt>
      <trkpt lat="46.84469" lon="-2.1327">
        <ele>10.07</ele>
      </trkpt>
      <trkpt lat="46.84451" lon="-2.13295">
        <ele>9.87</ele>
      </trkpt>
      <trkpt lat="46.84433" lon="-2.13307">
        <ele>9.69</ele>
      </trkpt>
      <trkpt lat="46.84415" lon="-2.13313">
        <ele>9.47</ele>
      </trkpt>
      <trkpt lat="46.84397" lon="-2.13312">
        <ele>9.01</ele>
      </trkpt>
      <trkpt lat="46.84369" lon="-2.13324">
        <ele>8.62</ele>
      </trkpt>
      <trkpt lat="46.8435" lon="-2.13333">
        <ele>8.39</ele>
      </trkpt>
      <trkpt lat="46.84335" lon="-2.13346">
        <ele>8.49</ele>
      </trkpt>
      <trkpt lat="46.84319" lon="-2.13366">
        <ele>8.61</ele>
      </trkpt>
      <trkpt lat="46.843" lon="-2.13388">
        <ele>8.53</ele>
      </trkpt>
      <trkpt lat="46.84288" lon="-2.13404">
        <ele>8.47</ele>
      </trkpt>
      <trkpt lat="46.84277" lon="-2.13411">
        <ele>8.14</ele>
      </trkpt>
      <trkpt lat="46.84256" lon="-2.13422">
        <ele>7.47</ele>
      </trkpt>
      <trkpt lat="46.84235" lon="-2.1344">
        <ele>7.73</ele>
      </trkpt>
      <trkpt lat="46.84217" lon="-2.13456">
        <ele>8.04</ele>
      </trkpt>
      <trkpt lat="46.84194" lon="-2.13465">
        <ele>7.96</ele>
      </trkpt>
      <trkpt lat="46.8418" lon="-2.13472">
        <ele>7.87</ele>
      </trkpt>
      <trkpt lat="46.84167" lon="-2.13473">
        <ele>7.68</ele>
      </trkpt>
      <trkpt lat="46.84166" lon="-2.1348">
        <ele>7.77</ele>
      </trkpt>
      <trkpt lat="46.84156" lon="-2.13484">
        <ele>7.88</ele>
      </trkpt>
      <trkpt lat="46.84152" lon="-2.13497">
        <ele>7.98</ele>
      </trkpt>
      <trkpt lat="46.84154" lon="-2.13523">
        <ele>8.47</ele>
      </trkpt>
      <trkpt lat="46.84153" lon="-2.13553">
        <ele>9.06</ele>
      </trkpt>
      <trkpt lat="46.84155" lon="-2.13576">
        <ele>9.57</ele>
      </trkpt>
      <trkpt lat="46.84156" lon="-2.136">
        <ele>9.43</ele>
      </trkpt>
      <trkpt lat="46.84156" lon="-2.13672">
        <ele>8.02</ele>
      </trkpt>
      <trkpt lat="46.84159" lon="-2.1372">
        <ele>7.06</ele>
      </trkpt>
      <trkpt lat="46.84161" lon="-2.13747">
        <ele>6.4</ele>
      </trkpt>
      <trkpt lat="46.84161" lon="-2.13771">
        <ele>6.57</ele>
      </trkpt>
      <trkpt lat="46.84162" lon="-2.138">
        <ele>6.86</ele>
      </trkpt>
      <trkpt lat="46.84169" lon="-2.13845">
        <ele>7.1</ele>
      </trkpt>
      <trkpt lat="46.84175" lon="-2.13882">
        <ele>7.37</ele>
      </trkpt>
      <trkpt lat="46.84177" lon="-2.139">
        <ele>7.56</ele>
      </trkpt>
      <trkpt lat="46.84171" lon="-2.13909">
        <ele>7.79</ele>
      </trkpt>
      <trkpt lat="46.84166" lon="-2.13917">
        <ele>8.03</ele>
      </trkpt>
      <trkpt lat="46.84161" lon="-2.13925">
        <ele>8.21</ele>
      </trkpt>
      <trkpt lat="46.84141" lon="-2.13926">
        <ele>8.9</ele>
      </trkpt>
      <trkpt lat="46.84097" lon="-2.13917">
        <ele>10.52</ele>
      </trkpt>
      <trkpt lat="46.84061" lon="-2.13906">
        <ele>10.73</ele>
      </trkpt>
      <trkpt lat="46.84019" lon="-2.13893">
        <ele>10.23</ele>
      </trkpt>
      <trkpt lat="46.83993" lon="-2.13886">
        <ele>9.86</ele>
      </trkpt>
      <trkpt lat="46.83965" lon="-2.13879">
        <ele>9.36</ele>
      </trkpt>
      <trkpt lat="46.83945" lon="-2.13874">
        <ele>9.02</ele>
      </trkpt>
      <trkpt lat="46.83922" lon="-2.13863">
        <ele>8.73</ele>
      </trkpt>
      <trkpt lat="46.83912" lon="-2.13858">
        <ele>8.7</ele>
      </trkpt>
      <trkpt lat="46.83903" lon="-2.13848">
        <ele>8.82</ele>
      </trkpt>
      <trkpt lat="46.839" lon="-2.13838">
        <ele>8.94</ele>
      </trkpt>
      <trkpt lat="46.83896" lon="-2.13832">
        <ele>8.97</ele>
      </trkpt>
      <trkpt lat="46.83886" lon="-2.13827">
        <ele>8.8</ele>
      </trkpt>
      <trkpt lat="46.83874" lon="-2.13825">
        <ele>8.76</ele>
      </trkpt>
      <trkpt lat="46.8386" lon="-2.13825">
        <ele>8.76</ele>
      </trkpt>
      <trkpt lat="46.83846" lon="-2.13822">
        <ele>8.7</ele>
      </trkpt>
      <trkpt lat="46.8383" lon="-2.13813">
        <ele>8.51</ele>
      </trkpt>
      <trkpt lat="46.83806" lon="-2.13801">
        <ele>8.23</ele>
      </trkpt>
      <trkpt lat="46.83775" lon="-2.13787">
        <ele>7.9</ele>
      </trkpt>
      <trkpt lat="46.83762" lon="-2.13783">
        <ele>7.79</ele>
      </trkpt>
      <trkpt lat="46.83748" lon="-2.1378">
        <ele>7.7</ele>
      </trkpt>
      <trkpt lat="46.83739" lon="-2.1377">
        <ele>7.44</ele>
      </trkpt>
      <trkpt lat="46.83726" lon="-2.13758">
        <ele>7.17</ele>
      </trkpt>
      <trkpt lat="46.83714" lon="-2.13753">
        <ele>7.06</ele>
      </trkpt>
      <trkpt lat="46.83706" lon="-2.13751">
        <ele>7.01</ele>
      </trkpt>
      <trkpt lat="46.837" lon="-2.1375">
        <ele>7</ele>
      </trkpt>
      <trkpt lat="46.83685" lon="-2.13753">
        <ele>7.04</ele>
      </trkpt>
      <trkpt lat="46.83663" lon="-2.13759">
        <ele>7.07</ele>
      </trkpt>
      <trkpt lat="46.8365" lon="-2.13765">
        <ele>7.05</ele>
      </trkpt>
      <trkpt lat="46.83627" lon="-2.13771">
        <ele>7.02</ele>
      </trkpt>
      <trkpt lat="46.83617" lon="-2.13771">
        <ele>6.97</ele>
      </trkpt>
      <trkpt lat="46.83607" lon="-2.13774">
        <ele>6.98</ele>
      </trkpt>
      <trkpt lat="46.83589" lon="-2.13786">
        <ele>7.3</ele>
      </trkpt>
      <trkpt lat="46.83577" lon="-2.13796">
        <ele>7.65</ele>
      </trkpt>
      <trkpt lat="46.83566" lon="-2.13804">
        <ele>7.87</ele>
      </trkpt>
      <trkpt lat="46.83555" lon="-2.13811">
        <ele>8.05</ele>
      </trkpt>
      <trkpt lat="46.8354" lon="-2.13812">
        <ele>7.98</ele>
      </trkpt>
      <trkpt lat="46.83513" lon="-2.13814">
        <ele>7.86</ele>
      </trkpt>
      <trkpt lat="46.83497" lon="-2.13816">
        <ele>7.75</ele>
      </trkpt>
      <trkpt lat="46.83463" lon="-2.1381">
        <ele>7.27</ele>
      </trkpt>
      <trkpt lat="46.83443" lon="-2.1381">
        <ele>7.04</ele>
      </trkpt>
      <trkpt lat="46.83433" lon="-2.1381">
        <ele>6.92</ele>
      </trkpt>
      <trkpt lat="46.83427" lon="-2.1381">
        <ele>6.84</ele>
      </trkpt>
      <trkpt lat="46.83416" lon="-2.13808">
        <ele>6.71</ele>
      </trkpt>
      <trkpt lat="46.83407" lon="-2.13819">
        <ele>6.95</ele>
      </trkpt>
      <trkpt lat="46.83383" lon="-2.13833">
        <ele>7.4</ele>
      </trkpt>
      <trkpt lat="46.83333" lon="-2.13863">
        <ele>7.65</ele>
      </trkpt>
      <trkpt lat="46.83318" lon="-2.1387">
        <ele>7.64</ele>
      </trkpt>
      <trkpt lat="46.83284" lon="-2.13891">
        <ele>7.72</ele>
      </trkpt>
      <trkpt lat="46.83245" lon="-2.13919">
        <ele>7.97</ele>
      </trkpt>
      <trkpt lat="46.83216" lon="-2.13938">
        <ele>7.84</ele>
      </trkpt>
      <trkpt lat="46.83194" lon="-2.13954">
        <ele>7.78</ele>
      </trkpt>
      <trkpt lat="46.83168" lon="-2.13971">
        <ele>7.67</ele>
      </trkpt>
      <trkpt lat="46.83152" lon="-2.13984">
        <ele>7.77</ele>
      </trkpt>
      <trkpt lat="46.83139" lon="-2.13997">
        <ele>7.95</ele>
      </trkpt>
      <trkpt lat="46.83128" lon="-2.14009">
        <ele>8.28</ele>
      </trkpt>
      <trkpt lat="46.83121" lon="-2.14013">
        <ele>8.4</ele>
      </trkpt>
      <trkpt lat="46.83115" lon="-2.14015">
        <ele>8.47</ele>
      </trkpt>
      <trkpt lat="46.83107" lon="-2.14012">
        <ele>8.39</ele>
      </trkpt>
      <trkpt lat="46.83099" lon="-2.14016">
        <ele>8.54</ele>
      </trkpt>
      <trkpt lat="46.83091" lon="-2.14017">
        <ele>8.6</ele>
      </trkpt>
      <trkpt lat="46.83076" lon="-2.14017">
        <ele>8.46</ele>
      </trkpt>
      <trkpt lat="46.83063" lon="-2.1401">
        <ele>7.96</ele>
      </trkpt>
      <trkpt lat="46.83056" lon="-2.1401">
        <ele>7.77</ele>
      </trkpt>
      <trkpt lat="46.83046" lon="-2.14005">
        <ele>7.31</ele>
      </trkpt>
      <trkpt lat="46.83036" lon="-2.14004">
        <ele>7.06</ele>
      </trkpt>
      <trkpt lat="46.83026" lon="-2.14002">
        <ele>6.72</ele>
      </trkpt>
      <trkpt lat="46.83015" lon="-2.13996">
        <ele>6.34</ele>
      </trkpt>
      <trkpt lat="46.83003" lon="-2.13993">
        <ele>6.06</ele>
      </trkpt>
      <trkpt lat="46.82996" lon="-2.13988">
        <ele>6.15</ele>
      </trkpt>
      <trkpt lat="46.82983" lon="-2.13985">
        <ele>6.52</ele>
      </trkpt>
      <trkpt lat="46.82974" lon="-2.13983">
        <ele>6.81</ele>
      </trkpt>
      <trkpt lat="46.82961" lon="-2.1398">
        <ele>7.18</ele>
      </trkpt>
      <trkpt lat="46.82952" lon="-2.13976">
        <ele>7.41</ele>
      </trkpt>
      <trkpt lat="46.82934" lon="-2.1397">
        <ele>7.81</ele>
      </trkpt>
      <trkpt lat="46.8292" lon="-2.13965">
        <ele>8.08</ele>
      </trkpt>
      <trkpt lat="46.8291" lon="-2.13961">
        <ele>8.1</ele>
      </trkpt>
      <trkpt lat="46.82894" lon="-2.13956">
        <ele>8.08</ele>
      </trkpt>
      <trkpt lat="46.8288" lon="-2.13957">
        <ele>8.18</ele>
      </trkpt>
      <trkpt lat="46.82874" lon="-2.13958">
        <ele>8.26</ele>
      </trkpt>
      <trkpt lat="46.82874" lon="-2.13958">
        <ele>8.26</ele>
      </trkpt>
      <trkpt lat="46.82874" lon="-2.13958">
        <ele>8.26</ele>
      </trkpt>
      <trkpt lat="46.82872" lon="-2.13958">
        <ele>8.27</ele>
      </trkpt>
      <trkpt lat="46.82867" lon="-2.13958">
        <ele>8.29</ele>
      </trkpt>
      <trkpt lat="46.82862" lon="-2.13957">
        <ele>8.29</ele>
      </trkpt>
      <trkpt lat="46.82852" lon="-2.13957">
        <ele>8.36</ele>
      </trkpt>
      <trkpt lat="46.82841" lon="-2.1396">
        <ele>8.5</ele>
      </trkpt>
      <trkpt lat="46.82825" lon="-2.13963">
        <ele>8.61</ele>
      </trkpt>
      <trkpt lat="46.82814" lon="-2.13963">
        <ele>8.5</ele>
      </trkpt>
      <trkpt lat="46.82797" lon="-2.13957">
        <ele>8.26</ele>
      </trkpt>
      <trkpt lat="46.82781" lon="-2.13954">
        <ele>8.13</ele>
      </trkpt>
      <trkpt lat="46.82773" lon="-2.13951">
        <ele>8.06</ele>
      </trkpt>
      <trkpt lat="46.82761" lon="-2.13949">
        <ele>8.02</ele>
      </trkpt>
      <trkpt lat="46.82744" lon="-2.13945">
        <ele>7.97</ele>
      </trkpt>
      <trkpt lat="46.82728" lon="-2.13944">
        <ele>7.92</ele>
      </trkpt>
      <trkpt lat="46.82712" lon="-2.13941">
        <ele>7.87</ele>
      </trkpt>
      <trkpt lat="46.82691" lon="-2.13934">
        <ele>7.85</ele>
      </trkpt>
      <trkpt lat="46.82662" lon="-2.13927">
        <ele>7.81</ele>
      </trkpt>
      <trkpt lat="46.82646" lon="-2.1392">
        <ele>7.69</ele>
      </trkpt>
      <trkpt lat="46.82635" lon="-2.13911">
        <ele>7.54</ele>
      </trkpt>
      <trkpt lat="46.82628" lon="-2.13905">
        <ele>7.38</ele>
      </trkpt>
      <trkpt lat="46.82619" lon="-2.13899">
        <ele>7.24</ele>
      </trkpt>
      <trkpt lat="46.82607" lon="-2.13899">
        <ele>7.16</ele>
      </trkpt>
      <trkpt lat="46.82592" lon="-2.13894">
        <ele>7.05</ele>
      </trkpt>
      <trkpt lat="46.82573" lon="-2.13886">
        <ele>6.83</ele>
      </trkpt>
      <trkpt lat="46.82558" lon="-2.13879">
        <ele>6.56</ele>
      </trkpt>
      <trkpt lat="46.82535" lon="-2.13871">
        <ele>6.1</ele>
      </trkpt>
      <trkpt lat="46.82495" lon="-2.13857">
        <ele>5.37</ele>
      </trkpt>
      <trkpt lat="46.8245" lon="-2.13845">
        <ele>5.83</ele>
      </trkpt>
      <trkpt lat="46.82417" lon="-2.13836">
        <ele>6.05</ele>
      </trkpt>
      <trkpt lat="46.82383" lon="-2.13825">
        <ele>6.37</ele>
      </trkpt>
      <trkpt lat="46.82329" lon="-2.13814">
        <ele>6.71</ele>
      </trkpt>
      <trkpt lat="46.82308" lon="-2.13808">
        <ele>6.39</ele>
      </trkpt>
      <trkpt lat="46.82289" lon="-2.13804">
        <ele>6.12</ele>
      </trkpt>
      <trkpt lat="46.82259" lon="-2.13794">
        <ele>5.63</ele>
      </trkpt>
      <trkpt lat="46.82235" lon="-2.13784">
        <ele>5.67</ele>
      </trkpt>
      <trkpt lat="46.82217" lon="-2.13774">
        <ele>5.81</ele>
      </trkpt>
      <trkpt lat="46.82201" lon="-2.13769">
        <ele>5.94</ele>
      </trkpt>
      <trkpt lat="46.82168" lon="-2.1376">
        <ele>6.22</ele>
      </trkpt>
      <trkpt lat="46.82143" lon="-2.13751">
        <ele>6.86</ele>
      </trkpt>
      <trkpt lat="46.82114" lon="-2.13739">
        <ele>7.85</ele>
      </trkpt>
      <trkpt lat="46.82084" lon="-2.13728">
        <ele>8.72</ele>
      </trkpt>
      <trkpt lat="46.8205" lon="-2.13718">
        <ele>9.81</ele>
      </trkpt>
      <trkpt lat="46.82042" lon="-2.13712">
        <ele>10.01</ele>
      </trkpt>
      <trkpt lat="46.82042" lon="-2.13712">
        <ele>10.02</ele>
      </trkpt>
      <trkpt lat="46.82039" lon="-2.13711">
        <ele>10.11</ele>
      </trkpt>
      <trkpt lat="46.82034" lon="-2.13709">
        <ele>10.28</ele>
      </trkpt>
      <trkpt lat="46.82029" lon="-2.13688">
        <ele>10.21</ele>
      </trkpt>
      <trkpt lat="46.82022" lon="-2.13664">
        <ele>10.2</ele>
      </trkpt>
      <trkpt lat="46.8202" lon="-2.13644">
        <ele>10.29</ele>
      </trkpt>
      <trkpt lat="46.82013" lon="-2.13618">
        <ele>10.54</ele>
      </trkpt>
      <trkpt lat="46.82009" lon="-2.13606">
        <ele>10.66</ele>
      </trkpt>
      <trkpt lat="46.82006" lon="-2.13591">
        <ele>10.8</ele>
      </trkpt>
      <trkpt lat="46.82003" lon="-2.13575">
        <ele>10.9</ele>
      </trkpt>
      <trkpt lat="46.81999" lon="-2.13557">
        <ele>11.01</ele>
      </trkpt>
      <trkpt lat="46.81996" lon="-2.13538">
        <ele>11.02</ele>
      </trkpt>
      <trkpt lat="46.81993" lon="-2.13524">
        <ele>11.02</ele>
      </trkpt>
      <trkpt lat="46.8199" lon="-2.13511">
        <ele>11.02</ele>
      </trkpt>
      <trkpt lat="46.81987" lon="-2.13498">
        <ele>10.96</ele>
      </trkpt>
      <trkpt lat="46.81985" lon="-2.13481">
        <ele>10.58</ele>
      </trkpt>
      <trkpt lat="46.81986" lon="-2.13464">
        <ele>10.2</ele>
      </trkpt>
      <trkpt lat="46.81986" lon="-2.13449">
        <ele>9.87</ele>
      </trkpt>
      <trkpt lat="46.81986" lon="-2.13429">
        <ele>9.43</ele>
      </trkpt>
      <trkpt lat="46.81987" lon="-2.13401">
        <ele>9.1</ele>
      </trkpt>
      <trkpt lat="46.81988" lon="-2.13382">
        <ele>9.02</ele>
      </trkpt>
      <trkpt lat="46.81992" lon="-2.13364">
        <ele>8.98</ele>
      </trkpt>
      <trkpt lat="46.81996" lon="-2.13346">
        <ele>8.97</ele>
      </trkpt>
      <trkpt lat="46.82" lon="-2.13328">
        <ele>8.88</ele>
      </trkpt>
      <trkpt lat="46.82005" lon="-2.13312">
        <ele>8.4</ele>
      </trkpt>
      <trkpt lat="46.82006" lon="-2.13295">
        <ele>7.97</ele>
      </trkpt>
      <trkpt lat="46.82009" lon="-2.13279">
        <ele>7.54</ele>
      </trkpt>
      <trkpt lat="46.8201" lon="-2.13268">
        <ele>7.29</ele>
      </trkpt>
      <trkpt lat="46.8201" lon="-2.13255">
        <ele>6.99</ele>
      </trkpt>
      <trkpt lat="46.82007" lon="-2.13241">
        <ele>6.9</ele>
      </trkpt>
      <trkpt lat="46.82001" lon="-2.13228">
        <ele>6.98</ele>
      </trkpt>
      <trkpt lat="46.81998" lon="-2.13222">
        <ele>7.01</ele>
      </trkpt>
      <trkpt lat="46.81989" lon="-2.13214">
        <ele>7.06</ele>
      </trkpt>
      <trkpt lat="46.81982" lon="-2.13206">
        <ele>7.11</ele>
      </trkpt>
      <trkpt lat="46.81974" lon="-2.13186">
        <ele>7.24</ele>
      </trkpt>
      <trkpt lat="46.81968" lon="-2.13178">
        <ele>7.34</ele>
      </trkpt>
      <trkpt lat="46.81957" lon="-2.13171">
        <ele>7.49</ele>
      </trkpt>
      <trkpt lat="46.81949" lon="-2.13164">
        <ele>7.55</ele>
      </trkpt>
      <trkpt lat="46.81942" lon="-2.13153">
        <ele>7.3</ele>
      </trkpt>
      <trkpt lat="46.8194" lon="-2.13144">
        <ele>7.05</ele>
      </trkpt>
      <trkpt lat="46.81937" lon="-2.13131">
        <ele>6.69</ele>
      </trkpt>
      <trkpt lat="46.81932" lon="-2.13114">
        <ele>6.14</ele>
      </trkpt>
      <trkpt lat="46.81925" lon="-2.13094">
        <ele>5.47</ele>
      </trkpt>
      <trkpt lat="46.81905" lon="-2.13079">
        <ele>5.15</ele>
      </trkpt>
      <trkpt lat="46.8189" lon="-2.13072">
        <ele>5.28</ele>
      </trkpt>
      <trkpt lat="46.81868" lon="-2.13062">
        <ele>5.35</ele>
      </trkpt>
      <trkpt lat="46.81853" lon="-2.13055">
        <ele>5.32</ele>
      </trkpt>
      <trkpt lat="46.81838" lon="-2.13049">
        <ele>5.3</ele>
      </trkpt>
      <trkpt lat="46.81828" lon="-2.13042">
        <ele>5.31</ele>
      </trkpt>
      <trkpt lat="46.81821" lon="-2.13035">
        <ele>5.37</ele>
      </trkpt>
      <trkpt lat="46.81811" lon="-2.1302">
        <ele>5.38</ele>
      </trkpt>
      <trkpt lat="46.81799" lon="-2.13">
        <ele>5.44</ele>
      </trkpt>
      <trkpt lat="46.81781" lon="-2.1298">
        <ele>6.46</ele>
      </trkpt>
      <trkpt lat="46.81763" lon="-2.12952">
        <ele>7.1</ele>
      </trkpt>
      <trkpt lat="46.81751" lon="-2.12934">
        <ele>7.35</ele>
      </trkpt>
      <trkpt lat="46.8174" lon="-2.12921">
        <ele>7.78</ele>
      </trkpt>
      <trkpt lat="46.81725" lon="-2.12896">
        <ele>8.06</ele>
      </trkpt>
      <trkpt lat="46.81706" lon="-2.12869">
        <ele>8.44</ele>
      </trkpt>
      <trkpt lat="46.817" lon="-2.12854">
        <ele>8.39</ele>
      </trkpt>
      <trkpt lat="46.81687" lon="-2.12824">
        <ele>8.11</ele>
      </trkpt>
      <trkpt lat="46.81679" lon="-2.128">
        <ele>7.62</ele>
      </trkpt>
      <trkpt lat="46.81671" lon="-2.12778">
        <ele>7.11</ele>
      </trkpt>
      <trkpt lat="46.81665" lon="-2.12767">
        <ele>6.9</ele>
      </trkpt>
      <trkpt lat="46.81659" lon="-2.12755">
        <ele>6.71</ele>
      </trkpt>
      <trkpt lat="46.81655" lon="-2.12744">
        <ele>6.59</ele>
      </trkpt>
      <trkpt lat="46.81652" lon="-2.12728">
        <ele>6.45</ele>
      </trkpt>
      <trkpt lat="46.81647" lon="-2.12709">
        <ele>6.46</ele>
      </trkpt>
      <trkpt lat="46.81644" lon="-2.12696">
        <ele>6.42</ele>
      </trkpt>
      <trkpt lat="46.81639" lon="-2.12683">
        <ele>6.56</ele>
      </trkpt>
      <trkpt lat="46.81632" lon="-2.12668">
        <ele>6.95</ele>
      </trkpt>
      <trkpt lat="46.81624" lon="-2.12648">
        <ele>6.92</ele>
      </trkpt>
      <trkpt lat="46.81613" lon="-2.12625">
        <ele>6.89</ele>
      </trkpt>
      <trkpt lat="46.81607" lon="-2.12607">
        <ele>6.59</ele>
      </trkpt>
      <trkpt lat="46.81594" lon="-2.12588">
        <ele>6.57</ele>
      </trkpt>
      <trkpt lat="46.81581" lon="-2.1258">
        <ele>6.96</ele>
      </trkpt>
      <trkpt lat="46.81575" lon="-2.12574">
        <ele>7.07</ele>
      </trkpt>
      <trkpt lat="46.81566" lon="-2.12568">
        <ele>7.34</ele>
      </trkpt>
      <trkpt lat="46.81564" lon="-2.1256">
        <ele>7.06</ele>
      </trkpt>
      <trkpt lat="46.81559" lon="-2.12549">
        <ele>6.81</ele>
      </trkpt>
      <trkpt lat="46.81554" lon="-2.12541">
        <ele>6.76</ele>
      </trkpt>
      <trkpt lat="46.81548" lon="-2.12538">
        <ele>7.03</ele>
      </trkpt>
      <trkpt lat="46.8153" lon="-2.12534">
        <ele>8.22</ele>
      </trkpt>
      <trkpt lat="46.81524" lon="-2.12506">
        <ele>7.28</ele>
      </trkpt>
      <trkpt lat="46.81509" lon="-2.12492">
        <ele>7.66</ele>
      </trkpt>
      <trkpt lat="46.81491" lon="-2.12473">
        <ele>7.75</ele>
      </trkpt>
      <trkpt lat="46.81477" lon="-2.1246">
        <ele>7.9</ele>
      </trkpt>
      <trkpt lat="46.81461" lon="-2.12449">
        <ele>8.44</ele>
      </trkpt>
      <trkpt lat="46.81445" lon="-2.1244">
        <ele>9.11</ele>
      </trkpt>
      <trkpt lat="46.81435" lon="-2.12431">
        <ele>9.37</ele>
      </trkpt>
      <trkpt lat="46.81424" lon="-2.12426">
        <ele>9.91</ele>
      </trkpt>
      <trkpt lat="46.81416" lon="-2.12413">
        <ele>9.81</ele>
      </trkpt>
      <trkpt lat="46.81396" lon="-2.12393">
        <ele>9.21</ele>
      </trkpt>
      <trkpt lat="46.81382" lon="-2.12377">
        <ele>8.66</ele>
      </trkpt>
      <trkpt lat="46.81348" lon="-2.12376">
        <ele>9.64</ele>
      </trkpt>
      <trkpt lat="46.81323" lon="-2.12407">
        <ele>11.8</ele>
      </trkpt>
      <trkpt lat="46.81301" lon="-2.12353">
        <ele>7.98</ele>
      </trkpt>
      <trkpt lat="46.8129" lon="-2.12321">
        <ele>6.85</ele>
      </trkpt>
      <trkpt lat="46.81282" lon="-2.12283">
        <ele>6.54</ele>
      </trkpt>
      <trkpt lat="46.81277" lon="-2.12281">
        <ele>6.6</ele>
      </trkpt>
      <trkpt lat="46.81279" lon="-2.12271">
        <ele>6.48</ele>
      </trkpt>
      <trkpt lat="46.81289" lon="-2.12253">
        <ele>6.11</ele>
      </trkpt>
      <trkpt lat="46.81293" lon="-2.12243">
        <ele>6.01</ele>
      </trkpt>
      <trkpt lat="46.81297" lon="-2.12234">
        <ele>5.94</ele>
      </trkpt>
      <trkpt lat="46.81303" lon="-2.12221">
        <ele>5.75</ele>
      </trkpt>
      <trkpt lat="46.81309" lon="-2.12211">
        <ele>5.51</ele>
      </trkpt>
      <trkpt lat="46.81316" lon="-2.12204">
        <ele>5.23</ele>
      </trkpt>
      <trkpt lat="46.81321" lon="-2.12199">
        <ele>4.95</ele>
      </trkpt>
      <trkpt lat="46.81327" lon="-2.12194">
        <ele>4.65</ele>
      </trkpt>
      <trkpt lat="46.81334" lon="-2.12186">
        <ele>4.22</ele>
      </trkpt>
      <trkpt lat="46.81339" lon="-2.12177">
        <ele>4</ele>
      </trkpt>
      <trkpt lat="46.8134" lon="-2.1217">
        <ele>3.89</ele>
      </trkpt>
      <trkpt lat="46.81335" lon="-2.12156">
        <ele>3.97</ele>
      </trkpt>
      <trkpt lat="46.81326" lon="-2.12135">
        <ele>4.54</ele>
      </trkpt>
      <trkpt lat="46.81311" lon="-2.12106">
        <ele>5.7</ele>
      </trkpt>
      <trkpt lat="46.81299" lon="-2.12083">
        <ele>6.84</ele>
      </trkpt>
      <trkpt lat="46.81287" lon="-2.12056">
        <ele>6.9</ele>
      </trkpt>
      <trkpt lat="46.81276" lon="-2.12036">
        <ele>6.93</ele>
      </trkpt>
      <trkpt lat="46.81265" lon="-2.12016">
        <ele>6.8</ele>
      </trkpt>
      <trkpt lat="46.81254" lon="-2.11996">
        <ele>6.64</ele>
      </trkpt>
      <trkpt lat="46.81241" lon="-2.11978">
        <ele>6.6</ele>
      </trkpt>
      <trkpt lat="46.8123" lon="-2.11958">
        <ele>6.57</ele>
      </trkpt>
      <trkpt lat="46.81222" lon="-2.11947">
        <ele>6.72</ele>
      </trkpt>
      <trkpt lat="46.81207" lon="-2.11925">
        <ele>7.25</ele>
      </trkpt>
      <trkpt lat="46.81194" lon="-2.11907">
        <ele>7.7</ele>
      </trkpt>
      <trkpt lat="46.81182" lon="-2.11896">
        <ele>8</ele>
      </trkpt>
      <trkpt lat="46.81168" lon="-2.11885">
        <ele>8.39</ele>
      </trkpt>
      <trkpt lat="46.81144" lon="-2.1187">
        <ele>8.2</ele>
      </trkpt>
      <trkpt lat="46.81126" lon="-2.11858">
        <ele>8.22</ele>
      </trkpt>
      <trkpt lat="46.8111" lon="-2.11847">
        <ele>8.37</ele>
      </trkpt>
      <trkpt lat="46.81103" lon="-2.11844">
        <ele>8.5</ele>
      </trkpt>
      <trkpt lat="46.81094" lon="-2.11837">
        <ele>8.7</ele>
      </trkpt>
      <trkpt lat="46.81082" lon="-2.11832">
        <ele>8.93</ele>
      </trkpt>
      <trkpt lat="46.81074" lon="-2.11829">
        <ele>8.74</ele>
      </trkpt>
      <trkpt lat="46.81065" lon="-2.11825">
        <ele>8.54</ele>
      </trkpt>
      <trkpt lat="46.81057" lon="-2.11815">
        <ele>8.23</ele>
      </trkpt>
      <trkpt lat="46.81045" lon="-2.11801">
        <ele>7.9</ele>
      </trkpt>
      <trkpt lat="46.81031" lon="-2.11771">
        <ele>7.54</ele>
      </trkpt>
      <trkpt lat="46.81025" lon="-2.11748">
        <ele>7.37</ele>
      </trkpt>
      <trkpt lat="46.8102" lon="-2.11731">
        <ele>7.2</ele>
      </trkpt>
      <trkpt lat="46.81015" lon="-2.11717">
        <ele>7.11</ele>
      </trkpt>
      <trkpt lat="46.81011" lon="-2.11708">
        <ele>7.11</ele>
      </trkpt>
      <trkpt lat="46.81007" lon="-2.11695">
        <ele>7.06</ele>
      </trkpt>
      <trkpt lat="46.81005" lon="-2.11672">
        <ele>6.83</ele>
      </trkpt>
      <trkpt lat="46.81005" lon="-2.11656">
        <ele>6.63</ele>
      </trkpt>
      <trkpt lat="46.81003" lon="-2.11636">
        <ele>6.5</ele>
      </trkpt>
      <trkpt lat="46.81001" lon="-2.11621">
        <ele>6.43</ele>
      </trkpt>
      <trkpt lat="46.81" lon="-2.11607">
        <ele>6.29</ele>
      </trkpt>
      <trkpt lat="46.80997" lon="-2.11598">
        <ele>6.29</ele>
      </trkpt>
      <trkpt lat="46.80988" lon="-2.11573">
        <ele>6.33</ele>
      </trkpt>
      <trkpt lat="46.80981" lon="-2.11554">
        <ele>6.33</ele>
      </trkpt>
      <trkpt lat="46.80973" lon="-2.11532">
        <ele>6.35</ele>
      </trkpt>
      <trkpt lat="46.80964" lon="-2.11509">
        <ele>6.39</ele>
      </trkpt>
      <trkpt lat="46.80953" lon="-2.11481">
        <ele>6.48</ele>
      </trkpt>
      <trkpt lat="46.80944" lon="-2.11454">
        <ele>6.63</ele>
      </trkpt>
      <trkpt lat="46.80937" lon="-2.11434">
        <ele>6.9</ele>
      </trkpt>
      <trkpt lat="46.80927" lon="-2.11406">
        <ele>7.27</ele>
      </trkpt>
      <trkpt lat="46.80921" lon="-2.11388">
        <ele>7.41</ele>
      </trkpt>
      <trkpt lat="46.80913" lon="-2.11364">
        <ele>7.52</ele>
      </trkpt>
      <trkpt lat="46.80903" lon="-2.11332">
        <ele>7.44</ele>
      </trkpt>
      <trkpt lat="46.80895" lon="-2.11304">
        <ele>6.79</ele>
      </trkpt>
      <trkpt lat="46.80887" lon="-2.11272">
        <ele>6.13</ele>
      </trkpt>
      <trkpt lat="46.80879" lon="-2.11243">
        <ele>5.85</ele>
      </trkpt>
      <trkpt lat="46.80874" lon="-2.11227">
        <ele>6.19</ele>
      </trkpt>
      <trkpt lat="46.80869" lon="-2.11213">
        <ele>6.61</ele>
      </trkpt>
      <trkpt lat="46.80864" lon="-2.11202">
        <ele>7.02</ele>
      </trkpt>
      <trkpt lat="46.8086" lon="-2.11194">
        <ele>7.43</ele>
      </trkpt>
      <trkpt lat="46.80853" lon="-2.11189">
        <ele>8.01</ele>
      </trkpt>
      <trkpt lat="46.80847" lon="-2.11179">
        <ele>8.65</ele>
      </trkpt>
      <trkpt lat="46.80837" lon="-2.11157">
        <ele>9.45</ele>
      </trkpt>
      <trkpt lat="46.80834" lon="-2.11137">
        <ele>9.21</ele>
      </trkpt>
      <trkpt lat="46.80828" lon="-2.11117">
        <ele>9.2</ele>
      </trkpt>
      <trkpt lat="46.80823" lon="-2.11103">
        <ele>9.35</ele>
      </trkpt>
      <trkpt lat="46.80818" lon="-2.11089">
        <ele>9.54</ele>
      </trkpt>
      <trkpt lat="46.80815" lon="-2.11078">
        <ele>9.71</ele>
      </trkpt>
      <trkpt lat="46.8081" lon="-2.11061">
        <ele>9.92</ele>
      </trkpt>
      <trkpt lat="46.80806" lon="-2.11043">
        <ele>10.12</ele>
      </trkpt>
      <trkpt lat="46.80804" lon="-2.11026">
        <ele>10.14</ele>
      </trkpt>
      <trkpt lat="46.80801" lon="-2.1101">
        <ele>10.44</ele>
      </trkpt>
      <trkpt lat="46.80794" lon="-2.10995">
        <ele>11.1</ele>
      </trkpt>
      <trkpt lat="46.80789" lon="-2.10977">
        <ele>11.43</ele>
      </trkpt>
      <trkpt lat="46.80787" lon="-2.10967">
        <ele>11.54</ele>
      </trkpt>
      <trkpt lat="46.80782" lon="-2.10957">
        <ele>11.88</ele>
      </trkpt>
      <trkpt lat="46.80776" lon="-2.1094">
        <ele>12.37</ele>
      </trkpt>
      <trkpt lat="46.80769" lon="-2.10927">
        <ele>12.98</ele>
      </trkpt>
      <trkpt lat="46.80763" lon="-2.10913">
        <ele>13.23</ele>
      </trkpt>
      <trkpt lat="46.80754" lon="-2.10897">
        <ele>13.09</ele>
      </trkpt>
      <trkpt lat="46.80746" lon="-2.10882">
        <ele>12.76</ele>
      </trkpt>
      <trkpt lat="46.80736" lon="-2.10862">
        <ele>12.18</ele>
      </trkpt>
      <trkpt lat="46.80731" lon="-2.1085">
        <ele>11.95</ele>
      </trkpt>
      <trkpt lat="46.80725" lon="-2.10837">
        <ele>11.87</ele>
      </trkpt>
      <trkpt lat="46.8072" lon="-2.10826">
        <ele>11.9</ele>
      </trkpt>
      <trkpt lat="46.80715" lon="-2.10816">
        <ele>12.04</ele>
      </trkpt>
      <trkpt lat="46.80709" lon="-2.10805">
        <ele>12.26</ele>
      </trkpt>
      <trkpt lat="46.80703" lon="-2.10794">
        <ele>12.42</ele>
      </trkpt>
      <trkpt lat="46.80696" lon="-2.10778">
        <ele>12.57</ele>
      </trkpt>
      <trkpt lat="46.80692" lon="-2.10768">
        <ele>12.72</ele>
      </trkpt>
      <trkpt lat="46.80688" lon="-2.1076">
        <ele>12.81</ele>
      </trkpt>
      <trkpt lat="46.80683" lon="-2.10751">
        <ele>13.06</ele>
      </trkpt>
      <trkpt lat="46.80676" lon="-2.10743">
        <ele>13.6</ele>
      </trkpt>
      <trkpt lat="46.80671" lon="-2.10736">
        <ele>13.86</ele>
      </trkpt>
      <trkpt lat="46.80666" lon="-2.10728">
        <ele>13.98</ele>
      </trkpt>
      <trkpt lat="46.80664" lon="-2.10716">
        <ele>13.5</ele>
      </trkpt>
      <trkpt lat="46.8066" lon="-2.10701">
        <ele>13.01</ele>
      </trkpt>
      <trkpt lat="46.80656" lon="-2.10685">
        <ele>12.54</ele>
      </trkpt>
      <trkpt lat="46.80651" lon="-2.10668">
        <ele>12.2</ele>
      </trkpt>
      <trkpt lat="46.80646" lon="-2.10649">
        <ele>12.08</ele>
      </trkpt>
      <trkpt lat="46.80642" lon="-2.10634">
        <ele>12.06</ele>
      </trkpt>
      <trkpt lat="46.8064" lon="-2.10625">
        <ele>12.05</ele>
      </trkpt>
      <trkpt lat="46.80638" lon="-2.10603">
        <ele>11.79</ele>
      </trkpt>
      <trkpt lat="46.80635" lon="-2.10584">
        <ele>11.78</ele>
      </trkpt>
      <trkpt lat="46.80631" lon="-2.10564">
        <ele>11.78</ele>
      </trkpt>
      <trkpt lat="46.80627" lon="-2.10551">
        <ele>11.98</ele>
      </trkpt>
      <trkpt lat="46.80623" lon="-2.10537">
        <ele>12.15</ele>
      </trkpt>
      <trkpt lat="46.80621" lon="-2.10525">
        <ele>12.2</ele>
      </trkpt>
      <trkpt lat="46.80618" lon="-2.10512">
        <ele>12.22</ele>
      </trkpt>
      <trkpt lat="46.80615" lon="-2.105">
        <ele>12.48</ele>
      </trkpt>
      <trkpt lat="46.80612" lon="-2.10489">
        <ele>12.74</ele>
      </trkpt>
      <trkpt lat="46.80608" lon="-2.10473">
        <ele>13.05</ele>
      </trkpt>
      <trkpt lat="46.80602" lon="-2.10458">
        <ele>13.54</ele>
      </trkpt>
      <trkpt lat="46.80597" lon="-2.10442">
        <ele>13.85</ele>
      </trkpt>
      <trkpt lat="46.80593" lon="-2.10428">
        <ele>14.08</ele>
      </trkpt>
      <trkpt lat="46.80591" lon="-2.10414">
        <ele>13.99</ele>
      </trkpt>
      <trkpt lat="46.80591" lon="-2.10392">
        <ele>13.59</ele>
      </trkpt>
      <trkpt lat="46.8059" lon="-2.10372">
        <ele>13.24</ele>
      </trkpt>
      <trkpt lat="46.80588" lon="-2.10357">
        <ele>13.07</ele>
      </trkpt>
      <trkpt lat="46.80584" lon="-2.10344">
        <ele>13.2</ele>
      </trkpt>
      <trkpt lat="46.80581" lon="-2.10328">
        <ele>12.93</ele>
      </trkpt>
      <trkpt lat="46.80575" lon="-2.10313">
        <ele>12.81</ele>
      </trkpt>
      <trkpt lat="46.80568" lon="-2.10291">
        <ele>12.66</ele>
      </trkpt>
      <trkpt lat="46.80566" lon="-2.10282">
        <ele>12.56</ele>
      </trkpt>
      <trkpt lat="46.80561" lon="-2.10267">
        <ele>12.55</ele>
      </trkpt>
      <trkpt lat="46.80555" lon="-2.10248">
        <ele>12.66</ele>
      </trkpt>
      <trkpt lat="46.80551" lon="-2.1023">
        <ele>11.74</ele>
      </trkpt>
      <trkpt lat="46.80544" lon="-2.10209">
        <ele>10.86</ele>
      </trkpt>
      <trkpt lat="46.80535" lon="-2.10193">
        <ele>10.52</ele>
      </trkpt>
      <trkpt lat="46.80529" lon="-2.10184">
        <ele>10.48</ele>
      </trkpt>
      <trkpt lat="46.80525" lon="-2.10173">
        <ele>10.06</ele>
      </trkpt>
      <trkpt lat="46.80524" lon="-2.10163">
        <ele>9.54</ele>
      </trkpt>
      <trkpt lat="46.80527" lon="-2.10152">
        <ele>8.96</ele>
      </trkpt>
      <trkpt lat="46.80523" lon="-2.10144">
        <ele>9</ele>
      </trkpt>
      <trkpt lat="46.80521" lon="-2.10137">
        <ele>8.98</ele>
      </trkpt>
      <trkpt lat="46.80519" lon="-2.10128">
        <ele>8.88</ele>
      </trkpt>
      <trkpt lat="46.80516" lon="-2.10119">
        <ele>8.89</ele>
      </trkpt>
      <trkpt lat="46.80512" lon="-2.10099">
        <ele>8.57</ele>
      </trkpt>
      <trkpt lat="46.80508" lon="-2.10083">
        <ele>8.32</ele>
      </trkpt>
      <trkpt lat="46.80504" lon="-2.10057">
        <ele>9.31</ele>
      </trkpt>
      <trkpt lat="46.80497" lon="-2.10022">
        <ele>10.66</ele>
      </trkpt>
      <trkpt lat="46.80494" lon="-2.10003">
        <ele>11.43</ele>
      </trkpt>
      <trkpt lat="46.8049" lon="-2.09989">
        <ele>11.96</ele>
      </trkpt>
      <trkpt lat="46.80483" lon="-2.0997">
        <ele>12.82</ele>
      </trkpt>
      <trkpt lat="46.80473" lon="-2.09933">
        <ele>14.8</ele>
      </trkpt>
      <trkpt lat="46.80465" lon="-2.099">
        <ele>15.55</ele>
      </trkpt>
      <trkpt lat="46.80459" lon="-2.09884">
        <ele>15.69</ele>
      </trkpt>
      <trkpt lat="46.80448" lon="-2.09871">
        <ele>16.86</ele>
      </trkpt>
      <trkpt lat="46.80435" lon="-2.09857">
        <ele>18.52</ele>
      </trkpt>
      <trkpt lat="46.80416" lon="-2.09838">
        <ele>21.2</ele>
      </trkpt>
      <trkpt lat="46.80395" lon="-2.09815">
        <ele>20.32</ele>
      </trkpt>
      <trkpt lat="46.80388" lon="-2.09804">
        <ele>19.7</ele>
      </trkpt>
      <trkpt lat="46.80382" lon="-2.09784">
        <ele>18.34</ele>
      </trkpt>
      <trkpt lat="46.80378" lon="-2.09761">
        <ele>16.69</ele>
      </trkpt>
      <trkpt lat="46.80367" lon="-2.0974">
        <ele>16.52</ele>
      </trkpt>
      <trkpt lat="46.8036" lon="-2.09727">
        <ele>17.01</ele>
      </trkpt>
      <trkpt lat="46.80352" lon="-2.09711">
        <ele>17.66</ele>
      </trkpt>
      <trkpt lat="46.8035" lon="-2.09697">
        <ele>17.8</ele>
      </trkpt>
      <trkpt lat="46.80345" lon="-2.09672">
        <ele>18.16</ele>
      </trkpt>
      <trkpt lat="46.80334" lon="-2.09647">
        <ele>19.4</ele>
      </trkpt>
      <trkpt lat="46.80319" lon="-2.09614">
        <ele>19.31</ele>
      </trkpt>
      <trkpt lat="46.80308" lon="-2.09589">
        <ele>19.8</ele>
      </trkpt>
      <trkpt lat="46.80298" lon="-2.0956">
        <ele>19.28</ele>
      </trkpt>
      <trkpt lat="46.80293" lon="-2.09538">
        <ele>18.67</ele>
      </trkpt>
      <trkpt lat="46.80288" lon="-2.09514">
        <ele>18.16</ele>
      </trkpt>
      <trkpt lat="46.80281" lon="-2.09492">
        <ele>18.39</ele>
      </trkpt>
      <trkpt lat="46.80276" lon="-2.09474">
        <ele>18.84</ele>
      </trkpt>
      <trkpt lat="46.80272" lon="-2.09461">
        <ele>19.28</ele>
      </trkpt>
      <trkpt lat="46.80269" lon="-2.0945">
        <ele>19.6</ele>
      </trkpt>
      <trkpt lat="46.80266" lon="-2.09438">
        <ele>19.97</ele>
      </trkpt>
      <trkpt lat="46.80255" lon="-2.09436">
        <ele>22.05</ele>
      </trkpt>
      <trkpt lat="46.80254" lon="-2.0942">
        <ele>22.27</ele>
      </trkpt>
      <trkpt lat="46.80253" lon="-2.09404">
        <ele>21.86</ele>
      </trkpt>
      <trkpt lat="46.80251" lon="-2.09391">
        <ele>21.82</ele>
      </trkpt>
      <trkpt lat="46.8025" lon="-2.09375">
        <ele>21.48</ele>
      </trkpt>
      <trkpt lat="46.80247" lon="-2.09365">
        <ele>21.06</ele>
      </trkpt>
      <trkpt lat="46.80244" lon="-2.09346">
        <ele>20.45</ele>
      </trkpt>
      <trkpt lat="46.80241" lon="-2.0933">
        <ele>19.97</ele>
      </trkpt>
      <trkpt lat="46.80237" lon="-2.09307">
        <ele>19.31</ele>
      </trkpt>
      <trkpt lat="46.80231" lon="-2.0929">
        <ele>19.07</ele>
      </trkpt>
      <trkpt lat="46.80223" lon="-2.0927">
        <ele>19.25</ele>
      </trkpt>
      <trkpt lat="46.80216" lon="-2.09253">
        <ele>19.72</ele>
      </trkpt>
      <trkpt lat="46.80208" lon="-2.09234">
        <ele>19.87</ele>
      </trkpt>
      <trkpt lat="46.80197" lon="-2.09209">
        <ele>20.21</ele>
      </trkpt>
      <trkpt lat="46.80191" lon="-2.09193">
        <ele>20.45</ele>
      </trkpt>
      <trkpt lat="46.80182" lon="-2.09171">
        <ele>20.97</ele>
      </trkpt>
      <trkpt lat="46.80177" lon="-2.09156">
        <ele>21.29</ele>
      </trkpt>
      <trkpt lat="46.80171" lon="-2.09144">
        <ele>21.75</ele>
      </trkpt>
      <trkpt lat="46.80166" lon="-2.0913">
        <ele>22.07</ele>
      </trkpt>
      <trkpt lat="46.80162" lon="-2.09119">
        <ele>21.64</ele>
      </trkpt>
      <trkpt lat="46.80159" lon="-2.09106">
        <ele>21.26</ele>
      </trkpt>
      <trkpt lat="46.80156" lon="-2.09091">
        <ele>20.88</ele>
      </trkpt>
      <trkpt lat="46.80154" lon="-2.09063">
        <ele>20.23</ele>
      </trkpt>
      <trkpt lat="46.80152" lon="-2.09037">
        <ele>19.66</ele>
      </trkpt>
      <trkpt lat="46.80148" lon="-2.09003">
        <ele>19.2</ele>
      </trkpt>
      <trkpt lat="46.80145" lon="-2.08977">
        <ele>17.74</ele>
      </trkpt>
      <trkpt lat="46.8014" lon="-2.08953">
        <ele>16.53</ele>
      </trkpt>
      <trkpt lat="46.80134" lon="-2.08919">
        <ele>15.07</ele>
      </trkpt>
      <trkpt lat="46.80129" lon="-2.08896">
        <ele>14.31</ele>
      </trkpt>
      <trkpt lat="46.80123" lon="-2.0888">
        <ele>14.05</ele>
      </trkpt>
      <trkpt lat="46.80117" lon="-2.0887">
        <ele>14.15</ele>
      </trkpt>
      <trkpt lat="46.8011" lon="-2.08863">
        <ele>14.59</ele>
      </trkpt>
      <trkpt lat="46.80106" lon="-2.08852">
        <ele>14.4</ele>
      </trkpt>
      <trkpt lat="46.80105" lon="-2.0884">
        <ele>13.85</ele>
      </trkpt>
      <trkpt lat="46.80105" lon="-2.08823">
        <ele>12.96</ele>
      </trkpt>
      <trkpt lat="46.80105" lon="-2.08804">
        <ele>12.12</ele>
      </trkpt>
      <trkpt lat="46.801" lon="-2.08787">
        <ele>11.76</ele>
      </trkpt>
      <trkpt lat="46.80089" lon="-2.08757">
        <ele>11.02</ele>
      </trkpt>
      <trkpt lat="46.80083" lon="-2.08741">
        <ele>10.69</ele>
      </trkpt>
      <trkpt lat="46.80074" lon="-2.08723">
        <ele>11.56</ele>
      </trkpt>
      <trkpt lat="46.80069" lon="-2.08704">
        <ele>11.83</ele>
      </trkpt>
      <trkpt lat="46.8006" lon="-2.08689">
        <ele>12.63</ele>
      </trkpt>
      <trkpt lat="46.80054" lon="-2.08679">
        <ele>13.11</ele>
      </trkpt>
      <trkpt lat="46.80049" lon="-2.08665">
        <ele>13.41</ele>
      </trkpt>
      <trkpt lat="46.80046" lon="-2.08655">
        <ele>13.69</ele>
      </trkpt>
      <trkpt lat="46.80043" lon="-2.0864">
        <ele>13.85</ele>
      </trkpt>
      <trkpt lat="46.8004" lon="-2.08628">
        <ele>13.98</ele>
      </trkpt>
      <trkpt lat="46.80036" lon="-2.08611">
        <ele>14.22</ele>
      </trkpt>
      <trkpt lat="46.80034" lon="-2.08595">
        <ele>14.11</ele>
      </trkpt>
      <trkpt lat="46.80031" lon="-2.08572">
        <ele>14.13</ele>
      </trkpt>
      <trkpt lat="46.8003" lon="-2.08549">
        <ele>13.98</ele>
      </trkpt>
      <trkpt lat="46.80028" lon="-2.08527">
        <ele>13.98</ele>
      </trkpt>
      <trkpt lat="46.80023" lon="-2.08504">
        <ele>14.25</ele>
      </trkpt>
      <trkpt lat="46.80019" lon="-2.08486">
        <ele>14.4</ele>
      </trkpt>
      <trkpt lat="46.80014" lon="-2.08456">
        <ele>14.34</ele>
      </trkpt>
      <trkpt lat="46.80003" lon="-2.08418">
        <ele>14.72</ele>
      </trkpt>
      <trkpt lat="46.79993" lon="-2.08386">
        <ele>13.79</ele>
      </trkpt>
      <trkpt lat="46.79983" lon="-2.08354">
        <ele>12.98</ele>
      </trkpt>
      <trkpt lat="46.79974" lon="-2.08342">
        <ele>13.45</ele>
      </trkpt>
      <trkpt lat="46.79969" lon="-2.08324">
        <ele>13.3</ele>
      </trkpt>
      <trkpt lat="46.79966" lon="-2.08293">
        <ele>12.41</ele>
      </trkpt>
      <trkpt lat="46.79961" lon="-2.08266">
        <ele>11.91</ele>
      </trkpt>
      <trkpt lat="46.79951" lon="-2.0824">
        <ele>11.87</ele>
      </trkpt>
      <trkpt lat="46.79943" lon="-2.08221">
        <ele>11.83</ele>
      </trkpt>
      <trkpt lat="46.79936" lon="-2.08199">
        <ele>11.4</ele>
      </trkpt>
      <trkpt lat="46.79931" lon="-2.08181">
        <ele>10.89</ele>
      </trkpt>
      <trkpt lat="46.79929" lon="-2.0815">
        <ele>9.86</ele>
      </trkpt>
      <trkpt lat="46.79927" lon="-2.08117">
        <ele>9.17</ele>
      </trkpt>
      <trkpt lat="46.79926" lon="-2.08079">
        <ele>8.41</ele>
      </trkpt>
      <trkpt lat="46.79925" lon="-2.08062">
        <ele>8.25</ele>
      </trkpt>
      <trkpt lat="46.79925" lon="-2.08049">
        <ele>8.07</ele>
      </trkpt>
      <trkpt lat="46.79923" lon="-2.08032">
        <ele>8.02</ele>
      </trkpt>
      <trkpt lat="46.7992" lon="-2.08018">
        <ele>7.99</ele>
      </trkpt>
      <trkpt lat="46.79914" lon="-2.07993">
        <ele>8.08</ele>
      </trkpt>
      <trkpt lat="46.799" lon="-2.07957">
        <ele>8.37</ele>
      </trkpt>
      <trkpt lat="46.79896" lon="-2.07928">
        <ele>8.18</ele>
      </trkpt>
      <trkpt lat="46.79889" lon="-2.07901">
        <ele>8.26</ele>
      </trkpt>
      <trkpt lat="46.79884" lon="-2.07878">
        <ele>8.49</ele>
      </trkpt>
      <trkpt lat="46.79875" lon="-2.07858">
        <ele>8.99</ele>
      </trkpt>
      <trkpt lat="46.79862" lon="-2.07834">
        <ele>9.94</ele>
      </trkpt>
      <trkpt lat="46.79853" lon="-2.07819">
        <ele>10.83</ele>
      </trkpt>
      <trkpt lat="46.79844" lon="-2.07798">
        <ele>11.97</ele>
      </trkpt>
      <trkpt lat="46.79839" lon="-2.07785">
        <ele>12.62</ele>
      </trkpt>
      <trkpt lat="46.79836" lon="-2.07771">
        <ele>13.27</ele>
      </trkpt>
      <trkpt lat="46.79833" lon="-2.07761">
        <ele>13.76</ele>
      </trkpt>
      <trkpt lat="46.79829" lon="-2.0775">
        <ele>14.18</ele>
      </trkpt>
      <trkpt lat="46.79827" lon="-2.07739">
        <ele>13.77</ele>
      </trkpt>
      <trkpt lat="46.79825" lon="-2.07728">
        <ele>13.37</ele>
      </trkpt>
      <trkpt lat="46.79823" lon="-2.07717">
        <ele>12.99</ele>
      </trkpt>
      <trkpt lat="46.7982" lon="-2.07697">
        <ele>12.3</ele>
      </trkpt>
      <trkpt lat="46.79815" lon="-2.0769">
        <ele>12.31</ele>
      </trkpt>
      <trkpt lat="46.7981" lon="-2.07683">
        <ele>12.34</ele>
      </trkpt>
      <trkpt lat="46.79804" lon="-2.07679">
        <ele>12.6</ele>
      </trkpt>
      <trkpt lat="46.79794" lon="-2.07676">
        <ele>13.19</ele>
      </trkpt>
      <trkpt lat="46.7978" lon="-2.07672">
        <ele>13.99</ele>
      </trkpt>
      <trkpt lat="46.79767" lon="-2.07668">
        <ele>14.82</ele>
      </trkpt>
      <trkpt lat="46.79752" lon="-2.07664">
        <ele>15.76</ele>
      </trkpt>
      <trkpt lat="46.79735" lon="-2.07658">
        <ele>15.89</ele>
      </trkpt>
      <trkpt lat="46.79721" lon="-2.07659">
        <ele>16.12</ele>
      </trkpt>
      <trkpt lat="46.79709" lon="-2.07667">
        <ele>16.5</ele>
      </trkpt>
      <trkpt lat="46.79699" lon="-2.07675">
        <ele>16.82</ele>
      </trkpt>
      <trkpt lat="46.79683" lon="-2.07683">
        <ele>17.19</ele>
      </trkpt>
      <trkpt lat="46.79668" lon="-2.07692">
        <ele>17.6</ele>
      </trkpt>
      <trkpt lat="46.79654" lon="-2.07701">
        <ele>17.75</ele>
      </trkpt>
      <trkpt lat="46.79638" lon="-2.07708">
        <ele>17.82</ele>
      </trkpt>
      <trkpt lat="46.79626" lon="-2.07715">
        <ele>17.88</ele>
      </trkpt>
      <trkpt lat="46.79605" lon="-2.0772">
        <ele>17.81</ele>
      </trkpt>
      <trkpt lat="46.79588" lon="-2.07728">
        <ele>17.78</ele>
      </trkpt>
      <trkpt lat="46.79566" lon="-2.07738">
        <ele>17.19</ele>
      </trkpt>
      <trkpt lat="46.79559" lon="-2.07741">
        <ele>16.9</ele>
      </trkpt>
      <trkpt lat="46.79551" lon="-2.07741">
        <ele>16.57</ele>
      </trkpt>
      <trkpt lat="46.79544" lon="-2.07743">
        <ele>16.25</ele>
      </trkpt>
      <trkpt lat="46.79536" lon="-2.07744">
        <ele>15.88</ele>
      </trkpt>
      <trkpt lat="46.79524" lon="-2.07746">
        <ele>15.32</ele>
      </trkpt>
      <trkpt lat="46.79518" lon="-2.0775">
        <ele>14.87</ele>
      </trkpt>
      <trkpt lat="46.79509" lon="-2.07751">
        <ele>14.47</ele>
      </trkpt>
      <trkpt lat="46.79498" lon="-2.07758">
        <ele>13.98</ele>
      </trkpt>
      <trkpt lat="46.79487" lon="-2.07768">
        <ele>13.38</ele>
      </trkpt>
      <trkpt lat="46.7948" lon="-2.07775">
        <ele>12.97</ele>
      </trkpt>
      <trkpt lat="46.79471" lon="-2.07789">
        <ele>12.43</ele>
      </trkpt>
      <trkpt lat="46.79464" lon="-2.07805">
        <ele>11.95</ele>
      </trkpt>
      <trkpt lat="46.79457" lon="-2.07827">
        <ele>11.37</ele>
      </trkpt>
      <trkpt lat="46.79451" lon="-2.07846">
        <ele>10.92</ele>
      </trkpt>
      <trkpt lat="46.79445" lon="-2.07862">
        <ele>10.35</ele>
      </trkpt>
      <trkpt lat="46.79435" lon="-2.07878">
        <ele>9.53</ele>
      </trkpt>
      <trkpt lat="46.79428" lon="-2.07888">
        <ele>8.94</ele>
      </trkpt>
      <trkpt lat="46.79417" lon="-2.07901">
        <ele>8.05</ele>
      </trkpt>
      <trkpt lat="46.79401" lon="-2.07908">
        <ele>8</ele>
      </trkpt>
      <trkpt lat="46.79393" lon="-2.07914">
        <ele>8</ele>
      </trkpt>
      <trkpt lat="46.79387" lon="-2.07917">
        <ele>8</ele>
      </trkpt>
      <trkpt lat="46.7938" lon="-2.07921">
        <ele>7.98</ele>
      </trkpt>
      <trkpt lat="46.79373" lon="-2.07922">
        <ele>7.97</ele>
      </trkpt>
      <trkpt lat="46.79366" lon="-2.07924">
        <ele>7.95</ele>
      </trkpt>
      <trkpt lat="46.79361" lon="-2.0793">
        <ele>7.89</ele>
      </trkpt>
      <trkpt lat="46.79354" lon="-2.07934">
        <ele>7.85</ele>
      </trkpt>
      <trkpt lat="46.79345" lon="-2.07936">
        <ele>7.8</ele>
      </trkpt>
      <trkpt lat="46.79338" lon="-2.07943">
        <ele>7.7</ele>
      </trkpt>
      <trkpt lat="46.79333" lon="-2.07953">
        <ele>7.55</ele>
      </trkpt>
      <trkpt lat="46.79327" lon="-2.0796">
        <ele>7.36</ele>
      </trkpt>
      <trkpt lat="46.79321" lon="-2.07967">
        <ele>7.19</ele>
      </trkpt>
      <trkpt lat="46.79316" lon="-2.07977">
        <ele>7.01</ele>
      </trkpt>
      <trkpt lat="46.79302" lon="-2.0799">
        <ele>6.7</ele>
      </trkpt>
      <trkpt lat="46.79289" lon="-2.08">
        <ele>6.46</ele>
      </trkpt>
      <trkpt lat="46.79279" lon="-2.08027">
        <ele>6.35</ele>
      </trkpt>
      <trkpt lat="46.79269" lon="-2.08038">
        <ele>6.23</ele>
      </trkpt>
      <trkpt lat="46.79262" lon="-2.0804">
        <ele>6.14</ele>
      </trkpt>
      <trkpt lat="46.79255" lon="-2.08043">
        <ele>6.06</ele>
      </trkpt>
      <trkpt lat="46.79248" lon="-2.08047">
        <ele>5.98</ele>
      </trkpt>
      <trkpt lat="46.79238" lon="-2.08053">
        <ele>5.85</ele>
      </trkpt>
      <trkpt lat="46.79223" lon="-2.08068">
        <ele>5.68</ele>
      </trkpt>
      <trkpt lat="46.79215" lon="-2.08077">
        <ele>5.58</ele>
      </trkpt>
      <trkpt lat="46.79206" lon="-2.08082">
        <ele>5.47</ele>
      </trkpt>
      <trkpt lat="46.792" lon="-2.08088">
        <ele>5.4</ele>
      </trkpt>
      <trkpt lat="46.79194" lon="-2.08094">
        <ele>5.33</ele>
      </trkpt>
      <trkpt lat="46.79189" lon="-2.08099">
        <ele>5.27</ele>
      </trkpt>
      <trkpt lat="46.79185" lon="-2.08107">
        <ele>5.22</ele>
      </trkpt>
      <trkpt lat="46.79185" lon="-2.08115">
        <ele>5.22</ele>
      </trkpt>
      <trkpt lat="46.79185" lon="-2.08125">
        <ele>5.21</ele>
      </trkpt>
      <trkpt lat="46.79184" lon="-2.08134">
        <ele>5.21</ele>
      </trkpt>
      <trkpt lat="46.79181" lon="-2.08145">
        <ele>5.17</ele>
      </trkpt>
      <trkpt lat="46.79176" lon="-2.08153">
        <ele>5.12</ele>
      </trkpt>
      <trkpt lat="46.79164" lon="-2.08176">
        <ele>4.93</ele>
      </trkpt>
      <trkpt lat="46.79153" lon="-2.08164">
        <ele>4.5</ele>
      </trkpt>
      <trkpt lat="46.7914" lon="-2.08153">
        <ele>4.09</ele>
      </trkpt>
      <trkpt lat="46.79123" lon="-2.08138">
        <ele>3.62</ele>
      </trkpt>
      <trkpt lat="46.79109" lon="-2.08124">
        <ele>3.26</ele>
      </trkpt>
      <trkpt lat="46.79097" lon="-2.08114">
        <ele>3.02</ele>
      </trkpt>
      <trkpt lat="46.79082" lon="-2.081">
        <ele>2.82</ele>
      </trkpt>
      <trkpt lat="46.79067" lon="-2.08086">
        <ele>3.18</ele>
      </trkpt>
      <trkpt lat="46.79057" lon="-2.08077">
        <ele>3.46</ele>
      </trkpt>
      <trkpt lat="46.79042" lon="-2.08066">
        <ele>3.81</ele>
      </trkpt>
      <trkpt lat="46.79032" lon="-2.08059">
        <ele>3.95</ele>
      </trkpt>
      <trkpt lat="46.7902" lon="-2.08051">
        <ele>4.04</ele>
      </trkpt>
      <trkpt lat="46.79012" lon="-2.08047">
        <ele>4.04</ele>
      </trkpt>
      <trkpt lat="46.79002" lon="-2.08042">
        <ele>4.01</ele>
      </trkpt>
      <trkpt lat="46.78988" lon="-2.08036">
        <ele>4.14</ele>
      </trkpt>
      <trkpt lat="46.78982" lon="-2.08034">
        <ele>2.0078125</ele>
      </trkpt>
      <trkpt lat="46.7895" lon="-2.08027">
        <ele>2.453125</ele>
      </trkpt>
      <trkpt lat="46.78842" lon="-2.08041">
        <ele>3.53125</ele>
      </trkpt>
      <trkpt lat="46.78773" lon="-2.08047">
        <ele>4.76953125</ele>
      </trkpt>
      <trkpt lat="46.78715" lon="-2.08029">
        <ele>4.96484375</ele>
      </trkpt>
      <trkpt lat="46.78661" lon="-2.07943">
        <ele>4.21484375</ele>
      </trkpt>
      <trkpt lat="46.78646" lon="-2.07904">
        <ele>4.390625</ele>
      </trkpt>
      <trkpt lat="46.7862" lon="-2.07865">
        <ele>4.5390625</ele>
      </trkpt>
      <trkpt lat="46.78537" lon="-2.07667">
        <ele>4.96484375</ele>
      </trkpt>
      <trkpt lat="46.78536" lon="-2.07645">
        <ele>4.921875</ele>
      </trkpt>
      <trkpt lat="46.78537" lon="-2.07635">
        <ele>4.953125</ele>
      </trkpt>
      <trkpt lat="46.78533" lon="-2.07632">
        <ele>4.84375</ele>
      </trkpt>
      <trkpt lat="46.78529" lon="-2.07622">
        <ele>4.7578125</ele>
      </trkpt>
      <trkpt lat="46.78519" lon="-2.07609">
        <ele>4.5625</ele>
      </trkpt>
      <trkpt lat="46.78508" lon="-2.07596">
        <ele>4.4609375</ele>
      </trkpt>
      <trkpt lat="46.78504" lon="-2.07588">
        <ele>7.67</ele>
      </trkpt>
      <trkpt lat="46.78496" lon="-2.0757">
        <ele>7.76</ele>
      </trkpt>
      <trkpt lat="46.78488" lon="-2.07553">
        <ele>6.9</ele>
      </trkpt>
      <trkpt lat="46.78477" lon="-2.07528">
        <ele>5.25</ele>
      </trkpt>
      <trkpt lat="46.78469" lon="-2.07507">
        <ele>3.57</ele>
      </trkpt>
      <trkpt lat="46.7846" lon="-2.07482">
        <ele>2.53</ele>
      </trkpt>
      <trkpt lat="46.78447" lon="-2.07457">
        <ele>2.4</ele>
      </trkpt>
      <trkpt lat="46.7844" lon="-2.07438">
        <ele>3.13</ele>
      </trkpt>
      <trkpt lat="46.7843" lon="-2.07414">
        <ele>4.58</ele>
      </trkpt>
      <trkpt lat="46.78418" lon="-2.07386">
        <ele>5.12</ele>
      </trkpt>
      <trkpt lat="46.78405" lon="-2.07358">
        <ele>5.09</ele>
      </trkpt>
      <trkpt lat="46.78393" lon="-2.0733">
        <ele>4.52</ele>
      </trkpt>
      <trkpt lat="46.78381" lon="-2.07304">
        <ele>4.53</ele>
      </trkpt>
      <trkpt lat="46.78375" lon="-2.07293">
        <ele>4.74</ele>
      </trkpt>
      <trkpt lat="46.78371" lon="-2.07278">
        <ele>5.26</ele>
      </trkpt>
      <trkpt lat="46.78368" lon="-2.07266">
        <ele>5.87</ele>
      </trkpt>
      <trkpt lat="46.78362" lon="-2.07256">
        <ele>6.25</ele>
      </trkpt>
      <trkpt lat="46.78354" lon="-2.07244">
        <ele>6.53</ele>
      </trkpt>
      <trkpt lat="46.78346" lon="-2.07227">
        <ele>6.49</ele>
      </trkpt>
      <trkpt lat="46.78337" lon="-2.07205">
        <ele>6.58</ele>
      </trkpt>
      <trkpt lat="46.78326" lon="-2.07184">
        <ele>6.07</ele>
      </trkpt>
      <trkpt lat="46.78315" lon="-2.07162">
        <ele>5.08</ele>
      </trkpt>
      <trkpt lat="46.783" lon="-2.07133">
        <ele>4.5</ele>
      </trkpt>
      <trkpt lat="46.78288" lon="-2.07111">
        <ele>4.65</ele>
      </trkpt>
      <trkpt lat="46.78284" lon="-2.07101">
        <ele>4.91</ele>
      </trkpt>
      <trkpt lat="46.7828" lon="-2.07084">
        <ele>5.67</ele>
      </trkpt>
      <trkpt lat="46.78259" lon="-2.07043">
        <ele>6.94</ele>
      </trkpt>
      <trkpt lat="46.78254" lon="-2.07032">
        <ele>7.45</ele>
      </trkpt>
      <trkpt lat="46.78248" lon="-2.07022">
        <ele>7.77</ele>
      </trkpt>
      <trkpt lat="46.78243" lon="-2.07018">
        <ele>7.46</ele>
      </trkpt>
      <trkpt lat="46.78238" lon="-2.07013">
        <ele>7.21</ele>
      </trkpt>
      <trkpt lat="46.78233" lon="-2.07006">
        <ele>6.92</ele>
      </trkpt>
      <trkpt lat="46.78226" lon="-2.06991">
        <ele>6.66</ele>
      </trkpt>
      <trkpt lat="46.78221" lon="-2.06982">
        <ele>6.31</ele>
      </trkpt>
      <trkpt lat="46.78211" lon="-2.06964">
        <ele>5.84</ele>
      </trkpt>
      <trkpt lat="46.782" lon="-2.06946">
        <ele>5.44</ele>
      </trkpt>
      <trkpt lat="46.78189" lon="-2.06928">
        <ele>5.18</ele>
      </trkpt>
      <trkpt lat="46.78181" lon="-2.06912">
        <ele>5.14</ele>
      </trkpt>
      <trkpt lat="46.78174" lon="-2.06901">
        <ele>5</ele>
      </trkpt>
      <trkpt lat="46.78164" lon="-2.06883">
        <ele>5.05</ele>
      </trkpt>
      <trkpt lat="46.78155" lon="-2.06869">
        <ele>5.16</ele>
      </trkpt>
      <trkpt lat="46.78154" lon="-2.0685">
        <ele>5.77</ele>
      </trkpt>
      <trkpt lat="46.78152" lon="-2.06838">
        <ele>6.13</ele>
      </trkpt>
      <trkpt lat="46.78147" lon="-2.06827">
        <ele>6.06</ele>
      </trkpt>
      <trkpt lat="46.78143" lon="-2.06822">
        <ele>5.93</ele>
      </trkpt>
      <trkpt lat="46.7814" lon="-2.06813">
        <ele>5.87</ele>
      </trkpt>
      <trkpt lat="46.78139" lon="-2.06802">
        <ele>5.93</ele>
      </trkpt>
      <trkpt lat="46.78136" lon="-2.06794">
        <ele>5.92</ele>
      </trkpt>
      <trkpt lat="46.78131" lon="-2.0679">
        <ele>5.89</ele>
      </trkpt>
      <trkpt lat="46.78131" lon="-2.0679">
        <ele>5.89</ele>
      </trkpt>
      <trkpt lat="46.78131" lon="-2.0679">
        <ele>5.89</ele>
      </trkpt>
      <trkpt lat="46.7813" lon="-2.06788">
        <ele>5.89</ele>
      </trkpt>
      <trkpt lat="46.78126" lon="-2.06783">
        <ele>5.92</ele>
      </trkpt>
      <trkpt lat="46.78109" lon="-2.0676">
        <ele>6.39</ele>
      </trkpt>
      <trkpt lat="46.78094" lon="-2.06732">
        <ele>8.17</ele>
      </trkpt>
      <trkpt lat="46.78064" lon="-2.06715">
        <ele>8.64</ele>
      </trkpt>
      <trkpt lat="46.78046" lon="-2.06687">
        <ele>10.19</ele>
      </trkpt>
      <trkpt lat="46.78031" lon="-2.0666">
        <ele>11.5</ele>
      </trkpt>
      <trkpt lat="46.78023" lon="-2.06639">
        <ele>11.15</ele>
      </trkpt>
      <trkpt lat="46.78019" lon="-2.0661">
        <ele>11.12</ele>
      </trkpt>
      <trkpt lat="46.77992" lon="-2.06586">
        <ele>9.92</ele>
      </trkpt>
      <trkpt lat="46.7797" lon="-2.06546">
        <ele>9.58</ele>
      </trkpt>
      <trkpt lat="46.77952" lon="-2.06513">
        <ele>10.45</ele>
      </trkpt>
      <trkpt lat="46.77941" lon="-2.06496">
        <ele>10.71</ele>
      </trkpt>
      <trkpt lat="46.77942" lon="-2.0646">
        <ele>10.71</ele>
      </trkpt>
      <trkpt lat="46.7794" lon="-2.06432">
        <ele>10.59</ele>
      </trkpt>
      <trkpt lat="46.77938" lon="-2.06417">
        <ele>10.51</ele>
      </trkpt>
      <trkpt lat="46.7793" lon="-2.06397">
        <ele>9.94</ele>
      </trkpt>
      <trkpt lat="46.77918" lon="-2.0638">
        <ele>9.57</ele>
      </trkpt>
      <trkpt lat="46.77906" lon="-2.06368">
        <ele>8.95</ele>
      </trkpt>
      <trkpt lat="46.77891" lon="-2.0636">
        <ele>8.18</ele>
      </trkpt>
      <trkpt lat="46.77854" lon="-2.06353">
        <ele>6.62</ele>
      </trkpt>
      <trkpt lat="46.77843" lon="-2.06329">
        <ele>6.62</ele>
      </trkpt>
      <trkpt lat="46.77827" lon="-2.06299">
        <ele>7.55</ele>
      </trkpt>
      <trkpt lat="46.77809" lon="-2.0627">
        <ele>7.63</ele>
      </trkpt>
      <trkpt lat="46.77785" lon="-2.06227">
        <ele>7.21</ele>
      </trkpt>
      <trkpt lat="46.77771" lon="-2.06201">
        <ele>7.48</ele>
      </trkpt>
      <trkpt lat="46.77748" lon="-2.06167">
        <ele>8.82</ele>
      </trkpt>
      <trkpt lat="46.77732" lon="-2.06139">
        <ele>7.58</ele>
      </trkpt>
      <trkpt lat="46.77716" lon="-2.06111">
        <ele>6.52</ele>
      </trkpt>
      <trkpt lat="46.77705" lon="-2.06094">
        <ele>5.93</ele>
      </trkpt>
      <trkpt lat="46.77693" lon="-2.06074">
        <ele>5.4</ele>
      </trkpt>
      <trkpt lat="46.77674" lon="-2.06046">
        <ele>5.45</ele>
      </trkpt>
      <trkpt lat="46.77657" lon="-2.06019">
        <ele>6.07</ele>
      </trkpt>
      <trkpt lat="46.77642" lon="-2.05996">
        <ele>5.68</ele>
      </trkpt>
      <trkpt lat="46.77625" lon="-2.05971">
        <ele>4.88</ele>
      </trkpt>
      <trkpt lat="46.77611" lon="-2.0595">
        <ele>4.86</ele>
      </trkpt>
      <trkpt lat="46.77594" lon="-2.05924">
        <ele>5.67</ele>
      </trkpt>
      <trkpt lat="46.77577" lon="-2.05898">
        <ele>5.85</ele>
      </trkpt>
      <trkpt lat="46.77566" lon="-2.0588">
        <ele>5.56</ele>
      </trkpt>
      <trkpt lat="46.77548" lon="-2.05853">
        <ele>5.52</ele>
      </trkpt>
      <trkpt lat="46.77535" lon="-2.05834">
        <ele>5.82</ele>
      </trkpt>
      <trkpt lat="46.77525" lon="-2.0582">
        <ele>6.16</ele>
      </trkpt>
      <trkpt lat="46.77522" lon="-2.05815">
        <ele>6.33</ele>
      </trkpt>
      <trkpt lat="46.77518" lon="-2.05809">
        <ele>6.57</ele>
      </trkpt>
      <trkpt lat="46.77515" lon="-2.05805">
        <ele>6.76</ele>
      </trkpt>
      <trkpt lat="46.77507" lon="-2.05793">
        <ele>7.36</ele>
      </trkpt>
      <trkpt lat="46.77502" lon="-2.05788">
        <ele>7.71</ele>
      </trkpt>
      <trkpt lat="46.77501" lon="-2.05786">
        <ele>7.83</ele>
      </trkpt>
      <trkpt lat="46.77501" lon="-2.05786">
        <ele>7.83</ele>
      </trkpt>
      <trkpt lat="46.77501" lon="-2.05786">
        <ele>7.83</ele>
      </trkpt>
      <trkpt lat="46.77496" lon="-2.05778">
        <ele>8.06</ele>
      </trkpt>
      <trkpt lat="46.77488" lon="-2.05767">
        <ele>8.26</ele>
      </trkpt>
      <trkpt lat="46.77476" lon="-2.05751">
        <ele>8.52</ele>
      </trkpt>
      <trkpt lat="46.77467" lon="-2.05743">
        <ele>8.02</ele>
      </trkpt>
      <trkpt lat="46.7746" lon="-2.05738">
        <ele>7.62</ele>
      </trkpt>
      <trkpt lat="46.77455" lon="-2.05732">
        <ele>7.29</ele>
      </trkpt>
      <trkpt lat="46.7745" lon="-2.05723">
        <ele>6.9</ele>
      </trkpt>
      <trkpt lat="46.77446" lon="-2.05717">
        <ele>6.62</ele>
      </trkpt>
      <trkpt lat="46.77443" lon="-2.0571">
        <ele>6.4</ele>
      </trkpt>
      <trkpt lat="46.7744" lon="-2.05703">
        <ele>6.13</ele>
      </trkpt>
      <trkpt lat="46.77434" lon="-2.05695">
        <ele>5.7</ele>
      </trkpt>
      <trkpt lat="46.77429" lon="-2.05687">
        <ele>5.2</ele>
      </trkpt>
      <trkpt lat="46.7742" lon="-2.05674">
        <ele>4.33</ele>
      </trkpt>
      <trkpt lat="46.77404" lon="-2.05654">
        <ele>4.6</ele>
      </trkpt>
      <trkpt lat="46.7739" lon="-2.05634">
        <ele>5.6</ele>
      </trkpt>
      <trkpt lat="46.77382" lon="-2.05624">
        <ele>6</ele>
      </trkpt>
      <trkpt lat="46.77373" lon="-2.05612">
        <ele>6.47</ele>
      </trkpt>
      <trkpt lat="46.77365" lon="-2.05601">
        <ele>6.88</ele>
      </trkpt>
      <trkpt lat="46.77356" lon="-2.05588">
        <ele>7.25</ele>
      </trkpt>
      <trkpt lat="46.77348" lon="-2.05578">
        <ele>7.44</ele>
      </trkpt>
      <trkpt lat="46.77337" lon="-2.05563">
        <ele>7.93</ele>
      </trkpt>
      <trkpt lat="46.77327" lon="-2.05548">
        <ele>8.34</ele>
      </trkpt>
      <trkpt lat="46.77316" lon="-2.05535">
        <ele>8.37</ele>
      </trkpt>
      <trkpt lat="46.77308" lon="-2.05525">
        <ele>8.24</ele>
      </trkpt>
      <trkpt lat="46.77299" lon="-2.05512">
        <ele>8.12</ele>
      </trkpt>
      <trkpt lat="46.77288" lon="-2.05496">
        <ele>7.59</ele>
      </trkpt>
      <trkpt lat="46.77275" lon="-2.05479">
        <ele>6.44</ele>
      </trkpt>
      <trkpt lat="46.77265" lon="-2.05465">
        <ele>5.98</ele>
      </trkpt>
      <trkpt lat="46.77255" lon="-2.05451">
        <ele>5.7</ele>
      </trkpt>
      <trkpt lat="46.77247" lon="-2.0544">
        <ele>5.65</ele>
      </trkpt>
      <trkpt lat="46.77237" lon="-2.05427">
        <ele>5.61</ele>
      </trkpt>
      <trkpt lat="46.77227" lon="-2.05414">
        <ele>5.36</ele>
      </trkpt>
      <trkpt lat="46.77213" lon="-2.05395">
        <ele>4.66</ele>
      </trkpt>
      <trkpt lat="46.77197" lon="-2.05374">
        <ele>4.3</ele>
      </trkpt>
      <trkpt lat="46.77182" lon="-2.05354">
        <ele>4.42</ele>
      </trkpt>
      <trkpt lat="46.77174" lon="-2.05342">
        <ele>4.7</ele>
      </trkpt>
      <trkpt lat="46.77163" lon="-2.05329">
        <ele>4.96</ele>
      </trkpt>
      <trkpt lat="46.77156" lon="-2.05319">
        <ele>4.93</ele>
      </trkpt>
      <trkpt lat="46.77149" lon="-2.05309">
        <ele>4.95</ele>
      </trkpt>
      <trkpt lat="46.77141" lon="-2.05298">
        <ele>5</ele>
      </trkpt>
      <trkpt lat="46.77131" lon="-2.05285">
        <ele>5.11</ele>
      </trkpt>
      <trkpt lat="46.77123" lon="-2.05273">
        <ele>5.29</ele>
      </trkpt>
      <trkpt lat="46.77112" lon="-2.05259">
        <ele>5.57</ele>
      </trkpt>
      <trkpt lat="46.77102" lon="-2.05246">
        <ele>5.83</ele>
      </trkpt>
      <trkpt lat="46.77093" lon="-2.05234">
        <ele>6</ele>
      </trkpt>
      <trkpt lat="46.77079" lon="-2.05215">
        <ele>6.37</ele>
      </trkpt>
      <trkpt lat="46.77073" lon="-2.05207">
        <ele>6.29</ele>
      </trkpt>
      <trkpt lat="46.77064" lon="-2.05193">
        <ele>6.26</ele>
      </trkpt>
      <trkpt lat="46.77059" lon="-2.05182">
        <ele>6.35</ele>
      </trkpt>
      <trkpt lat="46.77057" lon="-2.05175">
        <ele>6.5</ele>
      </trkpt>
      <trkpt lat="46.77056" lon="-2.05163">
        <ele>6.75</ele>
      </trkpt>
      <trkpt lat="46.77061" lon="-2.05147">
        <ele>7.11</ele>
      </trkpt>
      <trkpt lat="46.77069" lon="-2.0513">
        <ele>7.46</ele>
      </trkpt>
      <trkpt lat="46.77077" lon="-2.05109">
        <ele>7.45</ele>
      </trkpt>
      <trkpt lat="46.77085" lon="-2.05092">
        <ele>7.19</ele>
      </trkpt>
      <trkpt lat="46.77095" lon="-2.05067">
        <ele>6.14</ele>
      </trkpt>
      <trkpt lat="46.77106" lon="-2.05036">
        <ele>4.92</ele>
      </trkpt>
      <trkpt lat="46.77112" lon="-2.05022">
        <ele>4.48</ele>
      </trkpt>
      <trkpt lat="46.77117" lon="-2.05007">
        <ele>4.05</ele>
      </trkpt>
      <trkpt lat="46.77123" lon="-2.04988">
        <ele>3.88</ele>
      </trkpt>
      <trkpt lat="46.77131" lon="-2.04964">
        <ele>3.83</ele>
      </trkpt>
      <trkpt lat="46.77136" lon="-2.04945">
        <ele>3.67</ele>
      </trkpt>
      <trkpt lat="46.77138" lon="-2.04934">
        <ele>3.54</ele>
      </trkpt>
      <trkpt lat="46.77139" lon="-2.04925">
        <ele>3.43</ele>
      </trkpt>
      <trkpt lat="46.77139" lon="-2.04917">
        <ele>3.34</ele>
      </trkpt>
      <trkpt lat="46.77138" lon="-2.04909">
        <ele>3.35</ele>
      </trkpt>
      <trkpt lat="46.77136" lon="-2.04899">
        <ele>3.37</ele>
      </trkpt>
      <trkpt lat="46.77135" lon="-2.04889">
        <ele>3.38</ele>
      </trkpt>
      <trkpt lat="46.77134" lon="-2.04877">
        <ele>3.39</ele>
      </trkpt>
      <trkpt lat="46.77133" lon="-2.04869">
        <ele>3.41</ele>
      </trkpt>
      <trkpt lat="46.77131" lon="-2.04862">
        <ele>3.43</ele>
      </trkpt>
      <trkpt lat="46.77126" lon="-2.0485">
        <ele>3.48</ele>
      </trkpt>
      <trkpt lat="46.77121" lon="-2.0484">
        <ele>3.55</ele>
      </trkpt>
      <trkpt lat="46.77115" lon="-2.04828">
        <ele>3.41</ele>
      </trkpt>
      <trkpt lat="46.77109" lon="-2.04813">
        <ele>2.88</ele>
      </trkpt>
      <trkpt lat="46.77102" lon="-2.04796">
        <ele>2.32</ele>
      </trkpt>
      <trkpt lat="46.77094" lon="-2.04777">
        <ele>1.75</ele>
      </trkpt>
      <trkpt lat="46.77086" lon="-2.04755">
        <ele>1.13</ele>
      </trkpt>
      <trkpt lat="46.77079" lon="-2.04737">
        <ele>0.88</ele>
      </trkpt>
      <trkpt lat="46.77071" lon="-2.04717">
        <ele>0.71</ele>
      </trkpt>
      <trkpt lat="46.77062" lon="-2.04694">
        <ele>0.5</ele>
      </trkpt>
      <trkpt lat="46.77056" lon="-2.04677">
        <ele>0.35</ele>
      </trkpt>
      <trkpt lat="46.77049" lon="-2.0466">
        <ele>0.45</ele>
      </trkpt>
      <trkpt lat="46.77044" lon="-2.0465">
        <ele>0.83</ele>
      </trkpt>
      <trkpt lat="46.7704" lon="-2.0464">
        <ele>1.28</ele>
      </trkpt>
      <trkpt lat="46.77034" lon="-2.04629">
        <ele>1.88</ele>
      </trkpt>
      <trkpt lat="46.77029" lon="-2.04618">
        <ele>2.55</ele>
      </trkpt>
      <trkpt lat="46.77021" lon="-2.04606">
        <ele>3.47</ele>
      </trkpt>
      <trkpt lat="46.77012" lon="-2.04593">
        <ele>4.74</ele>
      </trkpt>
      <trkpt lat="46.77003" lon="-2.0458">
        <ele>5.73</ele>
      </trkpt>
      <trkpt lat="46.7699" lon="-2.0456">
        <ele>5.06</ele>
      </trkpt>
      <trkpt lat="46.76979" lon="-2.04543">
        <ele>4.52</ele>
      </trkpt>
      <trkpt lat="46.76969" lon="-2.04529">
        <ele>4.27</ele>
      </trkpt>
      <trkpt lat="46.76962" lon="-2.04519">
        <ele>4.17</ele>
      </trkpt>
      <trkpt lat="46.76957" lon="-2.0451">
        <ele>4.15</ele>
      </trkpt>
      <trkpt lat="46.76949" lon="-2.04501">
        <ele>4.22</ele>
      </trkpt>
      <trkpt lat="46.76942" lon="-2.04488">
        <ele>4</ele>
      </trkpt>
      <trkpt lat="46.76934" lon="-2.04476">
        <ele>3.79</ele>
      </trkpt>
      <trkpt lat="46.76926" lon="-2.04464">
        <ele>3.53</ele>
      </trkpt>
      <trkpt lat="46.76915" lon="-2.04449">
        <ele>3.2</ele>
      </trkpt>
      <trkpt lat="46.76908" lon="-2.04436">
        <ele>2.92</ele>
      </trkpt>
      <trkpt lat="46.76901" lon="-2.04426">
        <ele>2.82</ele>
      </trkpt>
      <trkpt lat="46.76898" lon="-2.0442">
        <ele>2.77</ele>
      </trkpt>
      <trkpt lat="46.7689" lon="-2.04411">
        <ele>2.86</ele>
      </trkpt>
      <trkpt lat="46.76882" lon="-2.04401">
        <ele>2.92</ele>
      </trkpt>
      <trkpt lat="46.76872" lon="-2.04392">
        <ele>2.99</ele>
      </trkpt>
      <trkpt lat="46.76861" lon="-2.0438">
        <ele>2.96</ele>
      </trkpt>
      <trkpt lat="46.76849" lon="-2.0437">
        <ele>2.96</ele>
      </trkpt>
      <trkpt lat="46.76829" lon="-2.04349">
        <ele>2.58</ele>
      </trkpt>
      <trkpt lat="46.76819" lon="-2.04344">
        <ele>2.5</ele>
      </trkpt>
      <trkpt lat="46.76804" lon="-2.04333">
        <ele>2.35</ele>
      </trkpt>
      <trkpt lat="46.7679" lon="-2.04318">
        <ele>2.52</ele>
      </trkpt>
      <trkpt lat="46.76777" lon="-2.04305">
        <ele>2.68</ele>
      </trkpt>
      <trkpt lat="46.76762" lon="-2.0429">
        <ele>2.86</ele>
      </trkpt>
      <trkpt lat="46.76755" lon="-2.04281">
        <ele>2.94</ele>
      </trkpt>
      <trkpt lat="46.76753" lon="-2.04271">
        <ele>2.97</ele>
      </trkpt>
      <trkpt lat="46.76744" lon="-2.04258">
        <ele>2.99</ele>
      </trkpt>
      <trkpt lat="46.76732" lon="-2.04243">
        <ele>3.02</ele>
      </trkpt>
      <trkpt lat="46.76728" lon="-2.04234">
        <ele>3.05</ele>
      </trkpt>
      <trkpt lat="46.76718" lon="-2.04217">
        <ele>3.15</ele>
      </trkpt>
      <trkpt lat="46.76711" lon="-2.04205">
        <ele>3.25</ele>
      </trkpt>
      <trkpt lat="46.76704" lon="-2.04198">
        <ele>3.35</ele>
      </trkpt>
      <trkpt lat="46.76698" lon="-2.04191">
        <ele>3.44</ele>
      </trkpt>
      <trkpt lat="46.767" lon="-2.04177">
        <ele>3.53</ele>
      </trkpt>
      <trkpt lat="46.76699" lon="-2.04168">
        <ele>3.6</ele>
      </trkpt>
      <trkpt lat="46.76694" lon="-2.04155">
        <ele>3.86</ele>
      </trkpt>
      <trkpt lat="46.76688" lon="-2.04139">
        <ele>4.16</ele>
      </trkpt>
      <trkpt lat="46.76676" lon="-2.04111">
        <ele>4.64</ele>
      </trkpt>
      <trkpt lat="46.76669" lon="-2.04094">
        <ele>4.87</ele>
      </trkpt>
      <trkpt lat="46.76663" lon="-2.04076">
        <ele>5.09</ele>
      </trkpt>
      <trkpt lat="46.76655" lon="-2.04058">
        <ele>5.28</ele>
      </trkpt>
      <trkpt lat="46.76648" lon="-2.04039">
        <ele>5.45</ele>
      </trkpt>
      <trkpt lat="46.76641" lon="-2.04019">
        <ele>5.62</ele>
      </trkpt>
      <trkpt lat="46.76633" lon="-2.03998">
        <ele>5.83</ele>
      </trkpt>
      <trkpt lat="46.76628" lon="-2.03983">
        <ele>6.16</ele>
      </trkpt>
      <trkpt lat="46.76624" lon="-2.03968">
        <ele>6.39</ele>
      </trkpt>
      <trkpt lat="46.76621" lon="-2.03953">
        <ele>6.56</ele>
      </trkpt>
      <trkpt lat="46.76619" lon="-2.03934">
        <ele>6.71</ele>
      </trkpt>
      <trkpt lat="46.76616" lon="-2.03918">
        <ele>6.79</ele>
      </trkpt>
      <trkpt lat="46.76615" lon="-2.03903">
        <ele>7.34</ele>
      </trkpt>
      <trkpt lat="46.76614" lon="-2.03881">
        <ele>8.3</ele>
      </trkpt>
      <trkpt lat="46.76614" lon="-2.03855">
        <ele>9.42</ele>
      </trkpt>
      <trkpt lat="46.76613" lon="-2.0383">
        <ele>10.45</ele>
      </trkpt>
      <trkpt lat="46.76613" lon="-2.03812">
        <ele>10.93</ele>
      </trkpt>
      <trkpt lat="46.76613" lon="-2.03795">
        <ele>11.39</ele>
      </trkpt>
      <trkpt lat="46.76613" lon="-2.03774">
        <ele>11.99</ele>
      </trkpt>
      <trkpt lat="46.76611" lon="-2.03756">
        <ele>12.48</ele>
      </trkpt>
      <trkpt lat="46.76609" lon="-2.03736">
        <ele>12.74</ele>
      </trkpt>
      <trkpt lat="46.76607" lon="-2.03708">
        <ele>12.86</ele>
      </trkpt>
      <trkpt lat="46.76603" lon="-2.03683">
        <ele>12.95</ele>
      </trkpt>
      <trkpt lat="46.76597" lon="-2.03659">
        <ele>12.81</ele>
      </trkpt>
      <trkpt lat="46.76593" lon="-2.0364">
        <ele>12.33</ele>
      </trkpt>
      <trkpt lat="46.7659" lon="-2.03625">
        <ele>11.96</ele>
      </trkpt>
      <trkpt lat="46.76586" lon="-2.03607">
        <ele>11.55</ele>
      </trkpt>
      <trkpt lat="46.76578" lon="-2.03582">
        <ele>10.92</ele>
      </trkpt>
      <trkpt lat="46.76574" lon="-2.03563">
        <ele>10.46</ele>
      </trkpt>
      <trkpt lat="46.76567" lon="-2.03545">
        <ele>10.06</ele>
      </trkpt>
      <trkpt lat="46.76559" lon="-2.03524">
        <ele>9.7</ele>
      </trkpt>
      <trkpt lat="46.76553" lon="-2.03509">
        <ele>9.5</ele>
      </trkpt>
      <trkpt lat="46.7654" lon="-2.03495">
        <ele>9.42</ele>
      </trkpt>
      <trkpt lat="46.76528" lon="-2.03475">
        <ele>9.16</ele>
      </trkpt>
      <trkpt lat="46.76518" lon="-2.03458">
        <ele>8.89</ele>
      </trkpt>
      <trkpt lat="46.76509" lon="-2.03444">
        <ele>8.61</ele>
      </trkpt>
      <trkpt lat="46.76499" lon="-2.03426">
        <ele>8.23</ele>
      </trkpt>
      <trkpt lat="46.76493" lon="-2.03398">
        <ele>7.67</ele>
      </trkpt>
      <trkpt lat="46.76494" lon="-2.03386">
        <ele>7.36</ele>
      </trkpt>
      <trkpt lat="46.76492" lon="-2.03374">
        <ele>7.11</ele>
      </trkpt>
      <trkpt lat="46.76484" lon="-2.03351">
        <ele>6.78</ele>
      </trkpt>
      <trkpt lat="46.7648" lon="-2.0334">
        <ele>6.62</ele>
      </trkpt>
      <trkpt lat="46.7647" lon="-2.03318">
        <ele>6.74</ele>
      </trkpt>
      <trkpt lat="46.7646" lon="-2.03299">
        <ele>7.14</ele>
      </trkpt>
      <trkpt lat="46.76452" lon="-2.03283">
        <ele>7.57</ele>
      </trkpt>
      <trkpt lat="46.76443" lon="-2.03263">
        <ele>8.28</ele>
      </trkpt>
      <trkpt lat="46.76432" lon="-2.03243">
        <ele>8.85</ele>
      </trkpt>
      <trkpt lat="46.76425" lon="-2.03231">
        <ele>8.87</ele>
      </trkpt>
      <trkpt lat="46.76415" lon="-2.03213">
        <ele>8.71</ele>
      </trkpt>
      <trkpt lat="46.76406" lon="-2.03191">
        <ele>8.31</ele>
      </trkpt>
      <trkpt lat="46.76393" lon="-2.03166">
        <ele>8.14</ele>
      </trkpt>
      <trkpt lat="46.76384" lon="-2.03143">
        <ele>8.35</ele>
      </trkpt>
      <trkpt lat="46.76379" lon="-2.03132">
        <ele>8.44</ele>
      </trkpt>
      <trkpt lat="46.76376" lon="-2.03116">
        <ele>8.37</ele>
      </trkpt>
      <trkpt lat="46.76374" lon="-2.03098">
        <ele>8.21</ele>
      </trkpt>
      <trkpt lat="46.76373" lon="-2.03082">
        <ele>8.06</ele>
      </trkpt>
      <trkpt lat="46.76374" lon="-2.03064">
        <ele>8.15</ele>
      </trkpt>
      <trkpt lat="46.76373" lon="-2.03045">
        <ele>8.29</ele>
      </trkpt>
      <trkpt lat="46.76373" lon="-2.03026">
        <ele>8.41</ele>
      </trkpt>
      <trkpt lat="46.7637" lon="-2.03003">
        <ele>8.66</ele>
      </trkpt>
      <trkpt lat="46.76365" lon="-2.02981">
        <ele>8.72</ele>
      </trkpt>
      <trkpt lat="46.76361" lon="-2.02964">
        <ele>8.72</ele>
      </trkpt>
      <trkpt lat="46.76354" lon="-2.02944">
        <ele>8.76</ele>
      </trkpt>
      <trkpt lat="46.76347" lon="-2.02927">
        <ele>8.78</ele>
      </trkpt>
      <trkpt lat="46.76339" lon="-2.02913">
        <ele>8.8</ele>
      </trkpt>
      <trkpt lat="46.76331" lon="-2.02905">
        <ele>8.75</ele>
      </trkpt>
      <trkpt lat="46.76324" lon="-2.02896">
        <ele>8.68</ele>
      </trkpt>
      <trkpt lat="46.76307" lon="-2.02884">
        <ele>8.62</ele>
      </trkpt>
      <trkpt lat="46.76288" lon="-2.02872">
        <ele>8.43</ele>
      </trkpt>
      <trkpt lat="46.76271" lon="-2.0286">
        <ele>8.14</ele>
      </trkpt>
      <trkpt lat="46.76263" lon="-2.02853">
        <ele>7.88</ele>
      </trkpt>
      <trkpt lat="46.7625" lon="-2.02841">
        <ele>7.38</ele>
      </trkpt>
      <trkpt lat="46.76239" lon="-2.02827">
        <ele>7.41</ele>
      </trkpt>
      <trkpt lat="46.76231" lon="-2.02815">
        <ele>7.7</ele>
      </trkpt>
      <trkpt lat="46.76222" lon="-2.02805">
        <ele>8.02</ele>
      </trkpt>
      <trkpt lat="46.76212" lon="-2.02794">
        <ele>8.38</ele>
      </trkpt>
      <trkpt lat="46.76196" lon="-2.0278">
        <ele>8.95</ele>
      </trkpt>
      <trkpt lat="46.76178" lon="-2.02767">
        <ele>9.6</ele>
      </trkpt>
      <trkpt lat="46.76164" lon="-2.02755">
        <ele>10.04</ele>
      </trkpt>
      <trkpt lat="46.76143" lon="-2.02738">
        <ele>9.91</ele>
      </trkpt>
      <trkpt lat="46.76119" lon="-2.02719">
        <ele>9.41</ele>
      </trkpt>
      <trkpt lat="46.76103" lon="-2.02705">
        <ele>8.84</ele>
      </trkpt>
      <trkpt lat="46.76078" lon="-2.02684">
        <ele>7.74</ele>
      </trkpt>
      <trkpt lat="46.76068" lon="-2.02675">
        <ele>7.19</ele>
      </trkpt>
      <trkpt lat="46.76057" lon="-2.02666">
        <ele>6.69</ele>
      </trkpt>
      <trkpt lat="46.76049" lon="-2.02656">
        <ele>6.59</ele>
      </trkpt>
      <trkpt lat="46.76037" lon="-2.0264">
        <ele>6.45</ele>
      </trkpt>
      <trkpt lat="46.76025" lon="-2.02623">
        <ele>6.3</ele>
      </trkpt>
      <trkpt lat="46.76011" lon="-2.02603">
        <ele>6.13</ele>
      </trkpt>
      <trkpt lat="46.75998" lon="-2.02586">
        <ele>6.02</ele>
      </trkpt>
      <trkpt lat="46.75991" lon="-2.02576">
        <ele>6.02</ele>
      </trkpt>
      <trkpt lat="46.75986" lon="-2.0257">
        <ele>6</ele>
      </trkpt>
      <trkpt lat="46.75981" lon="-2.02565">
        <ele>6</ele>
      </trkpt>
      <trkpt lat="46.75973" lon="-2.02566">
        <ele>6.12</ele>
      </trkpt>
      <trkpt lat="46.75963" lon="-2.0256">
        <ele>6.16</ele>
      </trkpt>
      <trkpt lat="46.75961" lon="-2.02545">
        <ele>6</ele>
      </trkpt>
      <trkpt lat="46.75954" lon="-2.02533">
        <ele>5.95</ele>
      </trkpt>
      <trkpt lat="46.75944" lon="-2.02525">
        <ele>5.97</ele>
      </trkpt>
      <trkpt lat="46.75938" lon="-2.0252">
        <ele>5.98</ele>
      </trkpt>
      <trkpt lat="46.75923" lon="-2.02509">
        <ele>6.04</ele>
      </trkpt>
      <trkpt lat="46.75906" lon="-2.02502">
        <ele>6.03</ele>
      </trkpt>
      <trkpt lat="46.75891" lon="-2.02497">
        <ele>6</ele>
      </trkpt>
      <trkpt lat="46.75877" lon="-2.02493">
        <ele>6</ele>
      </trkpt>
      <trkpt lat="46.75858" lon="-2.02487">
        <ele>6</ele>
      </trkpt>
      <trkpt lat="46.75848" lon="-2.02484">
        <ele>6</ele>
      </trkpt>
      <trkpt lat="46.75818" lon="-2.0248">
        <ele>5.77</ele>
      </trkpt>
      <trkpt lat="46.75806" lon="-2.02481">
        <ele>5.61</ele>
      </trkpt>
      <trkpt lat="46.75791" lon="-2.02478">
        <ele>5.36</ele>
      </trkpt>
      <trkpt lat="46.75782" lon="-2.02474">
        <ele>5.19</ele>
      </trkpt>
      <trkpt lat="46.7577" lon="-2.02472">
        <ele>4.98</ele>
      </trkpt>
      <trkpt lat="46.75758" lon="-2.02469">
        <ele>4.77</ele>
      </trkpt>
      <trkpt lat="46.75744" lon="-2.02467">
        <ele>4.6</ele>
      </trkpt>
      <trkpt lat="46.75732" lon="-2.02462">
        <ele>4.54</ele>
      </trkpt>
      <trkpt lat="46.75716" lon="-2.0245">
        <ele>4.41</ele>
      </trkpt>
      <trkpt lat="46.7571" lon="-2.02443">
        <ele>4.32</ele>
      </trkpt>
      <trkpt lat="46.75693" lon="-2.02423">
        <ele>4.07</ele>
      </trkpt>
      <trkpt lat="46.7568" lon="-2.02407">
        <ele>4.09</ele>
      </trkpt>
      <trkpt lat="46.75665" lon="-2.02385">
        <ele>4.32</ele>
      </trkpt>
      <trkpt lat="46.75657" lon="-2.02374">
        <ele>4.14</ele>
      </trkpt>
      <trkpt lat="46.75651" lon="-2.02368">
        <ele>3.99</ele>
      </trkpt>
      <trkpt lat="46.75644" lon="-2.0236">
        <ele>3.77</ele>
      </trkpt>
      <trkpt lat="46.75637" lon="-2.02353">
        <ele>3.53</ele>
      </trkpt>
      <trkpt lat="46.75629" lon="-2.02345">
        <ele>3.17</ele>
      </trkpt>
      <trkpt lat="46.75615" lon="-2.02334">
        <ele>2.54</ele>
      </trkpt>
      <trkpt lat="46.75603" lon="-2.02324">
        <ele>1.8</ele>
      </trkpt>
      <trkpt lat="46.75591" lon="-2.02316">
        <ele>1.15</ele>
      </trkpt>
      <trkpt lat="46.75577" lon="-2.02304">
        <ele>0.86</ele>
      </trkpt>
      <trkpt lat="46.75563" lon="-2.02293">
        <ele>1.13</ele>
      </trkpt>
      <trkpt lat="46.75547" lon="-2.02282">
        <ele>1.31</ele>
      </trkpt>
      <trkpt lat="46.75534" lon="-2.02271">
        <ele>1.3</ele>
      </trkpt>
      <trkpt lat="46.75521" lon="-2.02259">
        <ele>1.11</ele>
      </trkpt>
      <trkpt lat="46.7551" lon="-2.02248">
        <ele>0.9</ele>
      </trkpt>
      <trkpt lat="46.75501" lon="-2.02235">
        <ele>1.17</ele>
      </trkpt>
      <trkpt lat="46.75496" lon="-2.0222">
        <ele>1.45</ele>
      </trkpt>
      <trkpt lat="46.75491" lon="-2.02202">
        <ele>1.8</ele>
      </trkpt>
      <trkpt lat="46.75484" lon="-2.02181">
        <ele>2.21</ele>
      </trkpt>
      <trkpt lat="46.75477" lon="-2.02156">
        <ele>2.52</ele>
      </trkpt>
      <trkpt lat="46.7547" lon="-2.02134">
        <ele>2.58</ele>
      </trkpt>
      <trkpt lat="46.7546" lon="-2.02116">
        <ele>2.66</ele>
      </trkpt>
      <trkpt lat="46.75451" lon="-2.02098">
        <ele>2.69</ele>
      </trkpt>
      <trkpt lat="46.75441" lon="-2.02084">
        <ele>2.72</ele>
      </trkpt>
      <trkpt lat="46.75427" lon="-2.02063">
        <ele>2.42</ele>
      </trkpt>
      <trkpt lat="46.75413" lon="-2.02046">
        <ele>2.2</ele>
      </trkpt>
      <trkpt lat="46.75401" lon="-2.02033">
        <ele>2.26</ele>
      </trkpt>
      <trkpt lat="46.75391" lon="-2.02021">
        <ele>2.35</ele>
      </trkpt>
      <trkpt lat="46.75383" lon="-2.02012">
        <ele>2.44</ele>
      </trkpt>
      <trkpt lat="46.7537" lon="-2.01996">
        <ele>2.66</ele>
      </trkpt>
      <trkpt lat="46.75358" lon="-2.0198">
        <ele>2.96</ele>
      </trkpt>
      <trkpt lat="46.75353" lon="-2.01973">
        <ele>3.04</ele>
      </trkpt>
      <trkpt lat="46.75346" lon="-2.01963">
        <ele>3.16</ele>
      </trkpt>
      <trkpt lat="46.75339" lon="-2.01951">
        <ele>3.24</ele>
      </trkpt>
      <trkpt lat="46.75329" lon="-2.01934">
        <ele>3.26</ele>
      </trkpt>
      <trkpt lat="46.75319" lon="-2.01918">
        <ele>3.19</ele>
      </trkpt>
      <trkpt lat="46.75311" lon="-2.01903">
        <ele>3.07</ele>
      </trkpt>
      <trkpt lat="46.75306" lon="-2.01894">
        <ele>2.98</ele>
      </trkpt>
      <trkpt lat="46.75294" lon="-2.01875">
        <ele>2.73</ele>
      </trkpt>
      <trkpt lat="46.75286" lon="-2.01862">
        <ele>2.55</ele>
      </trkpt>
      <trkpt lat="46.75276" lon="-2.01851">
        <ele>2.36</ele>
      </trkpt>
      <trkpt lat="46.75266" lon="-2.01835">
        <ele>2.03</ele>
      </trkpt>
      <trkpt lat="46.75254" lon="-2.01819">
        <ele>2.17</ele>
      </trkpt>
      <trkpt lat="46.75242" lon="-2.01802">
        <ele>2.5</ele>
      </trkpt>
      <trkpt lat="46.7523" lon="-2.01787">
        <ele>2.77</ele>
      </trkpt>
      <trkpt lat="46.75217" lon="-2.01771">
        <ele>2.95</ele>
      </trkpt>
      <trkpt lat="46.75199" lon="-2.01746">
        <ele>3.03</ele>
      </trkpt>
      <trkpt lat="46.75189" lon="-2.01731">
        <ele>3.16</ele>
      </trkpt>
      <trkpt lat="46.7517" lon="-2.017">
        <ele>3.58</ele>
      </trkpt>
      <trkpt lat="46.75162" lon="-2.01687">
        <ele>3.84</ele>
      </trkpt>
      <trkpt lat="46.75152" lon="-2.01669">
        <ele>4.16</ele>
      </trkpt>
      <trkpt lat="46.7514" lon="-2.01648">
        <ele>3.96</ele>
      </trkpt>
      <trkpt lat="46.75131" lon="-2.01634">
        <ele>3.83</ele>
      </trkpt>
      <trkpt lat="46.75123" lon="-2.01631">
        <ele>3.89</ele>
      </trkpt>
      <trkpt lat="46.75117" lon="-2.0163">
        <ele>3.97</ele>
      </trkpt>
      <trkpt lat="46.75111" lon="-2.01626">
        <ele>4.02</ele>
      </trkpt>
      <trkpt lat="46.75107" lon="-2.01622">
        <ele>4.02</ele>
      </trkpt>
      <trkpt lat="46.75103" lon="-2.01613">
        <ele>3.97</ele>
      </trkpt>
      <trkpt lat="46.75101" lon="-2.01604">
        <ele>3.87</ele>
      </trkpt>
      <trkpt lat="46.75101" lon="-2.01593">
        <ele>3.73</ele>
      </trkpt>
      <trkpt lat="46.75096" lon="-2.01585">
        <ele>3.73</ele>
      </trkpt>
      <trkpt lat="46.75086" lon="-2.01575">
        <ele>3.83</ele>
      </trkpt>
      <trkpt lat="46.75072" lon="-2.01555">
        <ele>3.71</ele>
      </trkpt>
      <trkpt lat="46.7506" lon="-2.01539">
        <ele>3.62</ele>
      </trkpt>
      <trkpt lat="46.75048" lon="-2.01523">
        <ele>3.58</ele>
      </trkpt>
      <trkpt lat="46.75038" lon="-2.0151">
        <ele>3.6</ele>
      </trkpt>
      <trkpt lat="46.75034" lon="-2.01504">
        <ele>3.61</ele>
      </trkpt>
      <trkpt lat="46.75029" lon="-2.01497">
        <ele>3.65</ele>
      </trkpt>
      <trkpt lat="46.75022" lon="-2.01486">
        <ele>3.73</ele>
      </trkpt>
      <trkpt lat="46.7501" lon="-2.01466">
        <ele>3.89</ele>
      </trkpt>
      <trkpt lat="46.74995" lon="-2.01444">
        <ele>4.2</ele>
      </trkpt>
      <trkpt lat="46.74981" lon="-2.01419">
        <ele>4.91</ele>
      </trkpt>
      <trkpt lat="46.74966" lon="-2.01396">
        <ele>5.37</ele>
      </trkpt>
      <trkpt lat="46.74959" lon="-2.01386">
        <ele>5.57</ele>
      </trkpt>
      <trkpt lat="46.74955" lon="-2.01375">
        <ele>5.67</ele>
      </trkpt>
      <trkpt lat="46.74947" lon="-2.01366">
        <ele>5.94</ele>
      </trkpt>
      <trkpt lat="46.74938" lon="-2.01359">
        <ele>6.26</ele>
      </trkpt>
      <trkpt lat="46.7493" lon="-2.01353">
        <ele>6.59</ele>
      </trkpt>
      <trkpt lat="46.74924" lon="-2.01349">
        <ele>6.84</ele>
      </trkpt>
      <trkpt lat="46.74916" lon="-2.01344">
        <ele>7.14</ele>
      </trkpt>
      <trkpt lat="46.74902" lon="-2.01337">
        <ele>7.39</ele>
      </trkpt>
      <trkpt lat="46.74886" lon="-2.01327">
        <ele>7.57</ele>
      </trkpt>
      <trkpt lat="46.74876" lon="-2.01323">
        <ele>7.59</ele>
      </trkpt>
      <trkpt lat="46.74865" lon="-2.01316">
        <ele>7.52</ele>
      </trkpt>
      <trkpt lat="46.74854" lon="-2.01311">
        <ele>7.42</ele>
      </trkpt>
      <trkpt lat="46.74845" lon="-2.01306">
        <ele>7.26</ele>
      </trkpt>
      <trkpt lat="46.74831" lon="-2.01299">
        <ele>6.96</ele>
      </trkpt>
      <trkpt lat="46.74822" lon="-2.01293">
        <ele>6.86</ele>
      </trkpt>
      <trkpt lat="46.74812" lon="-2.01289">
        <ele>6.87</ele>
      </trkpt>
      <trkpt lat="46.74802" lon="-2.01281">
        <ele>6.72</ele>
      </trkpt>
      <trkpt lat="46.74787" lon="-2.01273">
        <ele>6.72</ele>
      </trkpt>
      <trkpt lat="46.74776" lon="-2.01265">
        <ele>6.72</ele>
      </trkpt>
      <trkpt lat="46.74768" lon="-2.01261">
        <ele>6.8</ele>
      </trkpt>
      <trkpt lat="46.74762" lon="-2.01257">
        <ele>6.86</ele>
      </trkpt>
      <trkpt lat="46.74751" lon="-2.0125">
        <ele>6.97</ele>
      </trkpt>
      <trkpt lat="46.74738" lon="-2.01243">
        <ele>7.17</ele>
      </trkpt>
      <trkpt lat="46.74724" lon="-2.01234">
        <ele>7.42</ele>
      </trkpt>
      <trkpt lat="46.74706" lon="-2.01223">
        <ele>7.75</ele>
      </trkpt>
      <trkpt lat="46.74694" lon="-2.01214">
        <ele>8.03</ele>
      </trkpt>
      <trkpt lat="46.7468" lon="-2.01204">
        <ele>8.34</ele>
      </trkpt>
      <trkpt lat="46.74669" lon="-2.01196">
        <ele>8.61</ele>
      </trkpt>
      <trkpt lat="46.74657" lon="-2.01186">
        <ele>8.47</ele>
      </trkpt>
      <trkpt lat="46.74646" lon="-2.01175">
        <ele>8.34</ele>
      </trkpt>
      <trkpt lat="46.74637" lon="-2.01163">
        <ele>8.21</ele>
      </trkpt>
      <trkpt lat="46.74627" lon="-2.01152">
        <ele>7.77</ele>
      </trkpt>
      <trkpt lat="46.7462" lon="-2.01144">
        <ele>7.45</ele>
      </trkpt>
      <trkpt lat="46.74608" lon="-2.01131">
        <ele>6.8</ele>
      </trkpt>
      <trkpt lat="46.74597" lon="-2.01118">
        <ele>6.12</ele>
      </trkpt>
      <trkpt lat="46.74584" lon="-2.01102">
        <ele>5.1</ele>
      </trkpt>
      <trkpt lat="46.74576" lon="-2.01092">
        <ele>4.78</ele>
      </trkpt>
      <trkpt lat="46.74563" lon="-2.01076">
        <ele>4.56</ele>
      </trkpt>
      <trkpt lat="46.74552" lon="-2.01065">
        <ele>4.68</ele>
      </trkpt>
      <trkpt lat="46.74541" lon="-2.01051">
        <ele>4.72</ele>
      </trkpt>
      <trkpt lat="46.74532" lon="-2.01042">
        <ele>4.85</ele>
      </trkpt>
      <trkpt lat="46.74524" lon="-2.01032">
        <ele>4.92</ele>
      </trkpt>
      <trkpt lat="46.74512" lon="-2.01021">
        <ele>5.08</ele>
      </trkpt>
      <trkpt lat="46.74502" lon="-2.01014">
        <ele>5.25</ele>
      </trkpt>
      <trkpt lat="46.74493" lon="-2.01005">
        <ele>5.03</ele>
      </trkpt>
      <trkpt lat="46.74478" lon="-2.00992">
        <ele>4.57</ele>
      </trkpt>
      <trkpt lat="46.74465" lon="-2.00981">
        <ele>4.22</ele>
      </trkpt>
      <trkpt lat="46.74451" lon="-2.00968">
        <ele>3.87</ele>
      </trkpt>
      <trkpt lat="46.74439" lon="-2.00958">
        <ele>3.62</ele>
      </trkpt>
      <trkpt lat="46.74426" lon="-2.00947">
        <ele>3.4</ele>
      </trkpt>
      <trkpt lat="46.74416" lon="-2.00939">
        <ele>3.26</ele>
      </trkpt>
      <trkpt lat="46.74408" lon="-2.00932">
        <ele>3.17</ele>
      </trkpt>
      <trkpt lat="46.74397" lon="-2.00922">
        <ele>3.04</ele>
      </trkpt>
      <trkpt lat="46.74387" lon="-2.00913">
        <ele>2.97</ele>
      </trkpt>
      <trkpt lat="46.74374" lon="-2.00901">
        <ele>2.91</ele>
      </trkpt>
      <trkpt lat="46.74363" lon="-2.00893">
        <ele>2.9</ele>
      </trkpt>
      <trkpt lat="46.74352" lon="-2.00881">
        <ele>2.91</ele>
      </trkpt>
      <trkpt lat="46.74342" lon="-2.0087">
        <ele>2.94</ele>
      </trkpt>
      <trkpt lat="46.74332" lon="-2.00857">
        <ele>2.98</ele>
      </trkpt>
      <trkpt lat="46.74322" lon="-2.00841">
        <ele>2.76</ele>
      </trkpt>
      <trkpt lat="46.74313" lon="-2.00826">
        <ele>2.46</ele>
      </trkpt>
      <trkpt lat="46.74306" lon="-2.00815">
        <ele>2.26</ele>
      </trkpt>
      <trkpt lat="46.74301" lon="-2.00808">
        <ele>2.15</ele>
      </trkpt>
      <trkpt lat="46.74295" lon="-2.00805">
        <ele>2.05</ele>
      </trkpt>
      <trkpt lat="46.74283" lon="-2.00798">
        <ele>1.88</ele>
      </trkpt>
      <trkpt lat="46.74264" lon="-2.00788">
        <ele>1.7</ele>
      </trkpt>
      <trkpt lat="46.74243" lon="-2.00776">
        <ele>1.68</ele>
      </trkpt>
      <trkpt lat="46.74233" lon="-2.00771">
        <ele>1.7</ele>
      </trkpt>
      <trkpt lat="46.74213" lon="-2.00759">
        <ele>1.59</ele>
      </trkpt>
      <trkpt lat="46.74199" lon="-2.00751">
        <ele>1.4</ele>
      </trkpt>
      <trkpt lat="46.74182" lon="-2.0074">
        <ele>1.4</ele>
      </trkpt>
      <trkpt lat="46.74169" lon="-2.00733">
        <ele>1.44</ele>
      </trkpt>
      <trkpt lat="46.74157" lon="-2.00724">
        <ele>1.63</ele>
      </trkpt>
      <trkpt lat="46.74144" lon="-2.00716">
        <ele>1.75</ele>
      </trkpt>
      <trkpt lat="46.74128" lon="-2.00706">
        <ele>1.79</ele>
      </trkpt>
      <trkpt lat="46.74117" lon="-2.00699">
        <ele>1.72</ele>
      </trkpt>
      <trkpt lat="46.74102" lon="-2.0069">
        <ele>1.54</ele>
      </trkpt>
      <trkpt lat="46.74097" lon="-2.00686">
        <ele>1.45</ele>
      </trkpt>
      <trkpt lat="46.7409" lon="-2.00683">
        <ele>1.31</ele>
      </trkpt>
      <trkpt lat="46.74076" lon="-2.00681">
        <ele>1.39</ele>
      </trkpt>
      <trkpt lat="46.74063" lon="-2.0068">
        <ele>1.82</ele>
      </trkpt>
      <trkpt lat="46.74052" lon="-2.00679">
        <ele>2.18</ele>
      </trkpt>
      <trkpt lat="46.74041" lon="-2.00678">
        <ele>2.52</ele>
      </trkpt>
      <trkpt lat="46.74033" lon="-2.00677">
        <ele>2.77</ele>
      </trkpt>
      <trkpt lat="46.74025" lon="-2.00676">
        <ele>3.04</ele>
      </trkpt>
      <trkpt lat="46.74018" lon="-2.00668">
        <ele>3.33</ele>
      </trkpt>
      <trkpt lat="46.74016" lon="-2.00658">
        <ele>3.43</ele>
      </trkpt>
      <trkpt lat="46.74017" lon="-2.00648">
        <ele>3.45</ele>
      </trkpt>
      <trkpt lat="46.7402" lon="-2.0063">
        <ele>3.4</ele>
      </trkpt>
      <trkpt lat="46.74025" lon="-2.00597">
        <ele>3.36</ele>
      </trkpt>
      <trkpt lat="46.74032" lon="-2.00553">
        <ele>3.15</ele>
      </trkpt>
      <trkpt lat="46.74041" lon="-2.005">
        <ele>3</ele>
      </trkpt>
      <trkpt lat="46.74046" lon="-2.00466">
        <ele>3</ele>
      </trkpt>
      <trkpt lat="46.74052" lon="-2.00418">
        <ele>3</ele>
      </trkpt>
      <trkpt lat="46.74055" lon="-2.00401">
        <ele>2.94</ele>
      </trkpt>
      <trkpt lat="46.74058" lon="-2.00384">
        <ele>2.85</ele>
      </trkpt>
      <trkpt lat="46.74059" lon="-2.00363">
        <ele>2.73</ele>
      </trkpt>
      <trkpt lat="46.74062" lon="-2.00342">
        <ele>2.56</ele>
      </trkpt>
      <trkpt lat="46.74065" lon="-2.00329">
        <ele>2.52</ele>
      </trkpt>
      <trkpt lat="46.74068" lon="-2.00314">
        <ele>2.77</ele>
      </trkpt>
      <trkpt lat="46.74075" lon="-2.00289">
        <ele>3.23</ele>
      </trkpt>
      <trkpt lat="46.74081" lon="-2.0026">
        <ele>3.8</ele>
      </trkpt>
      <trkpt lat="46.74089" lon="-2.00231">
        <ele>4.38</ele>
      </trkpt>
      <trkpt lat="46.74095" lon="-2.00208">
        <ele>4.8</ele>
      </trkpt>
      <trkpt lat="46.74102" lon="-2.00188">
        <ele>5.11</ele>
      </trkpt>
      <trkpt lat="46.74106" lon="-2.00167">
        <ele>5.44</ele>
      </trkpt>
      <trkpt lat="46.74112" lon="-2.00145">
        <ele>5.56</ele>
      </trkpt>
      <trkpt lat="46.74116" lon="-2.00128">
        <ele>5.69</ele>
      </trkpt>
      <trkpt lat="46.74123" lon="-2.00079">
        <ele>6.04</ele>
      </trkpt>
      <trkpt lat="46.74127" lon="-2.0005">
        <ele>5.98</ele>
      </trkpt>
      <trkpt lat="46.7413" lon="-2.00017">
        <ele>5.98</ele>
      </trkpt>
      <trkpt lat="46.74132" lon="-1.9997">
        <ele>6.21</ele>
      </trkpt>
      <trkpt lat="46.74135" lon="-1.99944">
        <ele>6.42</ele>
      </trkpt>
      <trkpt lat="46.74136" lon="-1.99919">
        <ele>6.62</ele>
      </trkpt>
      <trkpt lat="46.74139" lon="-1.9986">
        <ele>6.9</ele>
      </trkpt>
      <trkpt lat="46.74143" lon="-1.99816">
        <ele>6.76</ele>
      </trkpt>
      <trkpt lat="46.74144" lon="-1.99788">
        <ele>6.35</ele>
      </trkpt>
      <trkpt lat="46.74145" lon="-1.99761">
        <ele>5.93</ele>
      </trkpt>
      <trkpt lat="46.74148" lon="-1.9972">
        <ele>5.65</ele>
      </trkpt>
      <trkpt lat="46.74151" lon="-1.99688">
        <ele>5.57</ele>
      </trkpt>
      <trkpt lat="46.74153" lon="-1.99663">
        <ele>5.56</ele>
      </trkpt>
      <trkpt lat="46.74155" lon="-1.99642">
        <ele>5.93</ele>
      </trkpt>
      <trkpt lat="46.74158" lon="-1.99627">
        <ele>6.15</ele>
      </trkpt>
      <trkpt lat="46.74163" lon="-1.9961">
        <ele>6.45</ele>
      </trkpt>
      <trkpt lat="46.74171" lon="-1.9958">
        <ele>6.9</ele>
      </trkpt>
      <trkpt lat="46.74178" lon="-1.99558">
        <ele>6.53</ele>
      </trkpt>
      <trkpt lat="46.74185" lon="-1.99535">
        <ele>6.08</ele>
      </trkpt>
      <trkpt lat="46.74195" lon="-1.99502">
        <ele>5.35</ele>
      </trkpt>
      <trkpt lat="46.74199" lon="-1.99479">
        <ele>5.12</ele>
      </trkpt>
      <trkpt lat="46.74205" lon="-1.99452">
        <ele>4.81</ele>
      </trkpt>
      <trkpt lat="46.74208" lon="-1.99422">
        <ele>4.55</ele>
      </trkpt>
      <trkpt lat="46.7421" lon="-1.99406">
        <ele>4.57</ele>
      </trkpt>
      <trkpt lat="46.74212" lon="-1.99391">
        <ele>4.68</ele>
      </trkpt>
      <trkpt lat="46.74213" lon="-1.99378">
        <ele>4.78</ele>
      </trkpt>
      <trkpt lat="46.74213" lon="-1.99361">
        <ele>5</ele>
      </trkpt>
      <trkpt lat="46.74213" lon="-1.99349">
        <ele>5.14</ele>
      </trkpt>
      <trkpt lat="46.74212" lon="-1.9934">
        <ele>5.3</ele>
      </trkpt>
      <trkpt lat="46.74208" lon="-1.99331">
        <ele>5.47</ele>
      </trkpt>
      <trkpt lat="46.74201" lon="-1.99324">
        <ele>5.51</ele>
      </trkpt>
      <trkpt lat="46.74189" lon="-1.99324">
        <ele>5.85</ele>
      </trkpt>
      <trkpt lat="46.74183" lon="-1.9932">
        <ele>5.88</ele>
      </trkpt>
      <trkpt lat="46.74178" lon="-1.99316">
        <ele>5.87</ele>
      </trkpt>
      <trkpt lat="46.74172" lon="-1.99306">
        <ele>5.56</ele>
      </trkpt>
      <trkpt lat="46.74167" lon="-1.99297">
        <ele>5.24</ele>
      </trkpt>
      <trkpt lat="46.74165" lon="-1.99285">
        <ele>4.7</ele>
      </trkpt>
      <trkpt lat="46.74153" lon="-1.99282">
        <ele>4.68</ele>
      </trkpt>
      <trkpt lat="46.74141" lon="-1.9928">
        <ele>4.74</ele>
      </trkpt>
      <trkpt lat="46.7412" lon="-1.99278">
        <ele>4.91</ele>
      </trkpt>
      <trkpt lat="46.74114" lon="-1.99278">
        <ele>4.97</ele>
      </trkpt>
      <trkpt lat="46.74108" lon="-1.99277">
        <ele>5</ele>
      </trkpt>
      <trkpt lat="46.74095" lon="-1.99276">
        <ele>5.1</ele>
      </trkpt>
      <trkpt lat="46.74085" lon="-1.99274">
        <ele>5.14</ele>
      </trkpt>
      <trkpt lat="46.74069" lon="-1.99273">
        <ele>5.79</ele>
      </trkpt>
      <trkpt lat="46.74049" lon="-1.99269">
        <ele>6.71</ele>
      </trkpt>
      <trkpt lat="46.74035" lon="-1.99269">
        <ele>7.42</ele>
      </trkpt>
      <trkpt lat="46.7402" lon="-1.99267">
        <ele>8.17</ele>
      </trkpt>
      <trkpt lat="46.74006" lon="-1.99264">
        <ele>8.82</ele>
      </trkpt>
      <trkpt lat="46.7399" lon="-1.99259">
        <ele>9.12</ele>
      </trkpt>
      <trkpt lat="46.73975" lon="-1.99254">
        <ele>9.05</ele>
      </trkpt>
      <trkpt lat="46.73971" lon="-1.99249">
        <ele>8.98</ele>
      </trkpt>
      <trkpt lat="46.73962" lon="-1.99247">
        <ele>8.87</ele>
      </trkpt>
      <trkpt lat="46.73951" lon="-1.99241">
        <ele>8.61</ele>
      </trkpt>
      <trkpt lat="46.73943" lon="-1.99237">
        <ele>8.48</ele>
      </trkpt>
      <trkpt lat="46.73935" lon="-1.99234">
        <ele>8.4</ele>
      </trkpt>
      <trkpt lat="46.73927" lon="-1.99229">
        <ele>8.23</ele>
      </trkpt>
      <trkpt lat="46.7392" lon="-1.99221">
        <ele>7.93</ele>
      </trkpt>
      <trkpt lat="46.73897" lon="-1.992">
        <ele>7.6</ele>
      </trkpt>
      <trkpt lat="46.73884" lon="-1.99189">
        <ele>7.49</ele>
      </trkpt>
      <trkpt lat="46.73871" lon="-1.99177">
        <ele>7.4</ele>
      </trkpt>
      <trkpt lat="46.73861" lon="-1.99168">
        <ele>7.35</ele>
      </trkpt>
      <trkpt lat="46.73855" lon="-1.9916">
        <ele>7.53</ele>
      </trkpt>
      <trkpt lat="46.73843" lon="-1.9915">
        <ele>7.81</ele>
      </trkpt>
      <trkpt lat="46.73833" lon="-1.9914">
        <ele>8</ele>
      </trkpt>
      <trkpt lat="46.73818" lon="-1.99125">
        <ele>7.91</ele>
      </trkpt>
      <trkpt lat="46.73806" lon="-1.9911">
        <ele>7.9</ele>
      </trkpt>
      <trkpt lat="46.73794" lon="-1.991">
        <ele>7.91</ele>
      </trkpt>
      <trkpt lat="46.73784" lon="-1.9909">
        <ele>7.95</ele>
      </trkpt>
      <trkpt lat="46.73778" lon="-1.99083">
        <ele>8</ele>
      </trkpt>
      <trkpt lat="46.73771" lon="-1.99076">
        <ele>8.02</ele>
      </trkpt>
      <trkpt lat="46.73761" lon="-1.99065">
        <ele>8.03</ele>
      </trkpt>
      <trkpt lat="46.73753" lon="-1.99058">
        <ele>8.01</ele>
      </trkpt>
      <trkpt lat="46.73744" lon="-1.99049">
        <ele>8.12</ele>
      </trkpt>
      <trkpt lat="46.73736" lon="-1.99041">
        <ele>8.26</ele>
      </trkpt>
      <trkpt lat="46.73725" lon="-1.99029">
        <ele>8.41</ele>
      </trkpt>
      <trkpt lat="46.73716" lon="-1.99021">
        <ele>8.51</ele>
      </trkpt>
      <trkpt lat="46.73705" lon="-1.99012">
        <ele>8.62</ele>
      </trkpt>
      <trkpt lat="46.73695" lon="-1.99002">
        <ele>8.67</ele>
      </trkpt>
      <trkpt lat="46.73686" lon="-1.98995">
        <ele>8.67</ele>
      </trkpt>
      <trkpt lat="46.73678" lon="-1.98988">
        <ele>8.59</ele>
      </trkpt>
      <trkpt lat="46.73672" lon="-1.98982">
        <ele>8.53</ele>
      </trkpt>
      <trkpt lat="46.7366" lon="-1.98972">
        <ele>8.27</ele>
      </trkpt>
      <trkpt lat="46.73649" lon="-1.9896">
        <ele>7.94</ele>
      </trkpt>
      <trkpt lat="46.73639" lon="-1.9895">
        <ele>7.68</ele>
      </trkpt>
      <trkpt lat="46.73629" lon="-1.98941">
        <ele>7.46</ele>
      </trkpt>
      <trkpt lat="46.73622" lon="-1.98933">
        <ele>7.28</ele>
      </trkpt>
      <trkpt lat="46.73613" lon="-1.98924">
        <ele>7.11</ele>
      </trkpt>
      <trkpt lat="46.73604" lon="-1.98916">
        <ele>6.98</ele>
      </trkpt>
      <trkpt lat="46.73595" lon="-1.98907">
        <ele>6.77</ele>
      </trkpt>
      <trkpt lat="46.73587" lon="-1.98899">
        <ele>6.57</ele>
      </trkpt>
      <trkpt lat="46.73581" lon="-1.98893">
        <ele>6.55</ele>
      </trkpt>
      <trkpt lat="46.73572" lon="-1.98884">
        <ele>6.77</ele>
      </trkpt>
      <trkpt lat="46.73563" lon="-1.98876">
        <ele>6.99</ele>
      </trkpt>
      <trkpt lat="46.73557" lon="-1.98874">
        <ele>7.26</ele>
      </trkpt>
      <trkpt lat="46.73552" lon="-1.98864">
        <ele>7.25</ele>
      </trkpt>
      <trkpt lat="46.73538" lon="-1.98851">
        <ele>7.6</ele>
      </trkpt>
      <trkpt lat="46.73522" lon="-1.98834">
        <ele>7.97</ele>
      </trkpt>
      <trkpt lat="46.73504" lon="-1.98817">
        <ele>8.45</ele>
      </trkpt>
      <trkpt lat="46.73487" lon="-1.988">
        <ele>8.63</ele>
      </trkpt>
      <trkpt lat="46.73474" lon="-1.98788">
        <ele>8.68</ele>
      </trkpt>
      <trkpt lat="46.73463" lon="-1.98777">
        <ele>8.68</ele>
      </trkpt>
      <trkpt lat="46.73455" lon="-1.98769">
        <ele>8.65</ele>
      </trkpt>
      <trkpt lat="46.73441" lon="-1.98755">
        <ele>8.56</ele>
      </trkpt>
      <trkpt lat="46.73433" lon="-1.98747">
        <ele>8.59</ele>
      </trkpt>
      <trkpt lat="46.73423" lon="-1.98737">
        <ele>8.84</ele>
      </trkpt>
      <trkpt lat="46.73412" lon="-1.98726">
        <ele>8.94</ele>
      </trkpt>
      <trkpt lat="46.73406" lon="-1.98719">
        <ele>8.87</ele>
      </trkpt>
      <trkpt lat="46.734" lon="-1.98714">
        <ele>8.81</ele>
      </trkpt>
      <trkpt lat="46.73396" lon="-1.9871">
        <ele>8.75</ele>
      </trkpt>
      <trkpt lat="46.73391" lon="-1.98707">
        <ele>8.69</ele>
      </trkpt>
      <trkpt lat="46.73384" lon="-1.98705">
        <ele>8.61</ele>
      </trkpt>
      <trkpt lat="46.73377" lon="-1.98703">
        <ele>8.53</ele>
      </trkpt>
      <trkpt lat="46.73372" lon="-1.98698">
        <ele>8.46</ele>
      </trkpt>
      <trkpt lat="46.73376" lon="-1.98683">
        <ele>8.51</ele>
      </trkpt>
      <trkpt lat="46.73379" lon="-1.98668">
        <ele>8.55</ele>
      </trkpt>
      <trkpt lat="46.73379" lon="-1.98656">
        <ele>8.55</ele>
      </trkpt>
      <trkpt lat="46.73381" lon="-1.98642">
        <ele>8.57</ele>
      </trkpt>
      <trkpt lat="46.73382" lon="-1.98625">
        <ele>8.58</ele>
      </trkpt>
      <trkpt lat="46.73382" lon="-1.98611">
        <ele>8.58</ele>
      </trkpt>
      <trkpt lat="46.73381" lon="-1.98597">
        <ele>8.57</ele>
      </trkpt>
      <trkpt lat="46.7338" lon="-1.98585">
        <ele>8.56</ele>
      </trkpt>
      <trkpt lat="46.73379" lon="-1.98571">
        <ele>8.6</ele>
      </trkpt>
      <trkpt lat="46.73375" lon="-1.98552">
        <ele>8.69</ele>
      </trkpt>
      <trkpt lat="46.73369" lon="-1.98537">
        <ele>8.82</ele>
      </trkpt>
      <trkpt lat="46.73363" lon="-1.98521">
        <ele>9.06</ele>
      </trkpt>
      <trkpt lat="46.73356" lon="-1.98506">
        <ele>9.37</ele>
      </trkpt>
      <trkpt lat="46.73349" lon="-1.98493">
        <ele>9.62</ele>
      </trkpt>
      <trkpt lat="46.73341" lon="-1.98484">
        <ele>9.81</ele>
      </trkpt>
      <trkpt lat="46.73331" lon="-1.98472">
        <ele>10</ele>
      </trkpt>
      <trkpt lat="46.73318" lon="-1.98458">
        <ele>10</ele>
      </trkpt>
      <trkpt lat="46.73306" lon="-1.98447">
        <ele>10</ele>
      </trkpt>
      <trkpt lat="46.73295" lon="-1.98436">
        <ele>10</ele>
      </trkpt>
      <trkpt lat="46.73283" lon="-1.98422">
        <ele>10</ele>
      </trkpt>
      <trkpt lat="46.73269" lon="-1.98409">
        <ele>10.12</ele>
      </trkpt>
      <trkpt lat="46.73262" lon="-1.98402">
        <ele>10.2</ele>
      </trkpt>
      <trkpt lat="46.73246" lon="-1.98388">
        <ele>10.41</ele>
      </trkpt>
      <trkpt lat="46.73231" lon="-1.98373">
        <ele>10.86</ele>
      </trkpt>
      <trkpt lat="46.73211" lon="-1.98354">
        <ele>11.34</ele>
      </trkpt>
      <trkpt lat="46.73202" lon="-1.98345">
        <ele>11.52</ele>
      </trkpt>
      <trkpt lat="46.7319" lon="-1.98335">
        <ele>11.71</ele>
      </trkpt>
      <trkpt lat="46.7318" lon="-1.98327">
        <ele>11.91</ele>
      </trkpt>
      <trkpt lat="46.73168" lon="-1.98317">
        <ele>12</ele>
      </trkpt>
      <trkpt lat="46.73151" lon="-1.98306">
        <ele>11.81</ele>
      </trkpt>
      <trkpt lat="46.73137" lon="-1.983">
        <ele>11.64</ele>
      </trkpt>
      <trkpt lat="46.73122" lon="-1.98294">
        <ele>11.47</ele>
      </trkpt>
      <trkpt lat="46.7311" lon="-1.98288">
        <ele>11.32</ele>
      </trkpt>
      <trkpt lat="46.73092" lon="-1.98281">
        <ele>11.1</ele>
      </trkpt>
      <trkpt lat="46.73077" lon="-1.98274">
        <ele>10.95</ele>
      </trkpt>
      <trkpt lat="46.73062" lon="-1.98268">
        <ele>10.8</ele>
      </trkpt>
      <trkpt lat="46.73043" lon="-1.9826">
        <ele>10.58</ele>
      </trkpt>
      <trkpt lat="46.73029" lon="-1.98254">
        <ele>10.38</ele>
      </trkpt>
      <trkpt lat="46.72999" lon="-1.98242">
        <ele>10.02</ele>
      </trkpt>
      <trkpt lat="46.72977" lon="-1.98234">
        <ele>10.55</ele>
      </trkpt>
      <trkpt lat="46.72962" lon="-1.98227">
        <ele>10.91</ele>
      </trkpt>
      <trkpt lat="46.72937" lon="-1.98215">
        <ele>11.52</ele>
      </trkpt>
      <trkpt lat="46.72902" lon="-1.98201">
        <ele>11.14</ele>
      </trkpt>
      <trkpt lat="46.72883" lon="-1.98193">
        <ele>10.1</ele>
      </trkpt>
      <trkpt lat="46.72855" lon="-1.98181">
        <ele>8.77</ele>
      </trkpt>
      <trkpt lat="46.7283" lon="-1.9817">
        <ele>8.03</ele>
      </trkpt>
      <trkpt lat="46.72808" lon="-1.98162">
        <ele>9.06</ele>
      </trkpt>
      <trkpt lat="46.7279" lon="-1.98154">
        <ele>9.85</ele>
      </trkpt>
      <trkpt lat="46.72765" lon="-1.98145">
        <ele>10.64</ele>
      </trkpt>
      <trkpt lat="46.72744" lon="-1.98134">
        <ele>10.97</ele>
      </trkpt>
      <trkpt lat="46.72731" lon="-1.98128">
        <ele>10.9</ele>
      </trkpt>
      <trkpt lat="46.72717" lon="-1.98119">
        <ele>10.77</ele>
      </trkpt>
      <trkpt lat="46.72694" lon="-1.98103">
        <ele>10.48</ele>
      </trkpt>
      <trkpt lat="46.72675" lon="-1.98091">
        <ele>10.18</ele>
      </trkpt>
      <trkpt lat="46.72658" lon="-1.98077">
        <ele>9.81</ele>
      </trkpt>
      <trkpt lat="46.72638" lon="-1.98066">
        <ele>9.45</ele>
      </trkpt>
      <trkpt lat="46.72617" lon="-1.98051">
        <ele>9.01</ele>
      </trkpt>
      <trkpt lat="46.72596" lon="-1.98037">
        <ele>8.6</ele>
      </trkpt>
      <trkpt lat="46.72586" lon="-1.98029">
        <ele>8.38</ele>
      </trkpt>
      <trkpt lat="46.7257" lon="-1.98017">
        <ele>8.3</ele>
      </trkpt>
      <trkpt lat="46.72554" lon="-1.98008">
        <ele>8.38</ele>
      </trkpt>
      <trkpt lat="46.72537" lon="-1.97997">
        <ele>8.51</ele>
      </trkpt>
      <trkpt lat="46.72517" lon="-1.97982">
        <ele>8.4</ele>
      </trkpt>
      <trkpt lat="46.725" lon="-1.97971">
        <ele>8.31</ele>
      </trkpt>
      <trkpt lat="46.72484" lon="-1.97956">
        <ele>8.25</ele>
      </trkpt>
      <trkpt lat="46.72475" lon="-1.97942">
        <ele>8.12</ele>
      </trkpt>
      <trkpt lat="46.72464" lon="-1.97928">
        <ele>8.07</ele>
      </trkpt>
      <trkpt lat="46.72454" lon="-1.97916">
        <ele>8.09</ele>
      </trkpt>
      <trkpt lat="46.72447" lon="-1.97905">
        <ele>8.02</ele>
      </trkpt>
      <trkpt lat="46.72433" lon="-1.97888">
        <ele>7.77</ele>
      </trkpt>
      <trkpt lat="46.72417" lon="-1.97867">
        <ele>7.22</ele>
      </trkpt>
      <trkpt lat="46.72402" lon="-1.97851">
        <ele>7.03</ele>
      </trkpt>
      <trkpt lat="46.72393" lon="-1.97834">
        <ele>6.86</ele>
      </trkpt>
      <trkpt lat="46.72392" lon="-1.97824">
        <ele>6.97</ele>
      </trkpt>
      <trkpt lat="46.7238" lon="-1.97802">
        <ele>7.53</ele>
      </trkpt>
      <trkpt lat="46.72363" lon="-1.97772">
        <ele>8.2</ele>
      </trkpt>
      <trkpt lat="46.72353" lon="-1.97756">
        <ele>8.5</ele>
      </trkpt>
      <trkpt lat="46.72346" lon="-1.97742">
        <ele>8.82</ele>
      </trkpt>
      <trkpt lat="46.72332" lon="-1.97715">
        <ele>9.51</ele>
      </trkpt>
      <trkpt lat="46.72316" lon="-1.97689">
        <ele>10.46</ele>
      </trkpt>
      <trkpt lat="46.723" lon="-1.9766">
        <ele>11.22</ele>
      </trkpt>
      <trkpt lat="46.72283" lon="-1.97633">
        <ele>11.72</ele>
      </trkpt>
      <trkpt lat="46.72264" lon="-1.97601">
        <ele>11.98</ele>
      </trkpt>
      <trkpt lat="46.72245" lon="-1.97566">
        <ele>11.8</ele>
      </trkpt>
      <trkpt lat="46.72232" lon="-1.97544">
        <ele>11.63</ele>
      </trkpt>
      <trkpt lat="46.72216" lon="-1.97518">
        <ele>11.53</ele>
      </trkpt>
      <trkpt lat="46.72204" lon="-1.97497">
        <ele>11.45</ele>
      </trkpt>
      <trkpt lat="46.72187" lon="-1.97466">
        <ele>10.54</ele>
      </trkpt>
      <trkpt lat="46.72176" lon="-1.97446">
        <ele>9.95</ele>
      </trkpt>
      <trkpt lat="46.72165" lon="-1.97428">
        <ele>9.44</ele>
      </trkpt>
      <trkpt lat="46.72154" lon="-1.97407">
        <ele>9.37</ele>
      </trkpt>
      <trkpt lat="46.72145" lon="-1.97394">
        <ele>9.58</ele>
      </trkpt>
      <trkpt lat="46.72136" lon="-1.97376">
        <ele>9.69</ele>
      </trkpt>
      <trkpt lat="46.7212" lon="-1.97348">
        <ele>9.56</ele>
      </trkpt>
      <trkpt lat="46.72109" lon="-1.97329">
        <ele>9.31</ele>
      </trkpt>
      <trkpt lat="46.72096" lon="-1.97307">
        <ele>9.16</ele>
      </trkpt>
      <trkpt lat="46.72082" lon="-1.97282">
        <ele>9</ele>
      </trkpt>
      <trkpt lat="46.72068" lon="-1.97255">
        <ele>9</ele>
      </trkpt>
      <trkpt lat="46.72054" lon="-1.97231">
        <ele>9.53</ele>
      </trkpt>
      <trkpt lat="46.72041" lon="-1.97207">
        <ele>10.02</ele>
      </trkpt>
      <trkpt lat="46.72029" lon="-1.97182">
        <ele>10.4</ele>
      </trkpt>
      <trkpt lat="46.72014" lon="-1.97154">
        <ele>10.65</ele>
      </trkpt>
      <trkpt lat="46.72006" lon="-1.97137">
        <ele>10.85</ele>
      </trkpt>
      <trkpt lat="46.71998" lon="-1.9712">
        <ele>11.16</ele>
      </trkpt>
      <trkpt lat="46.71987" lon="-1.97102">
        <ele>11.75</ele>
      </trkpt>
      <trkpt lat="46.71972" lon="-1.97078">
        <ele>12.43</ele>
      </trkpt>
      <trkpt lat="46.71952" lon="-1.97041">
        <ele>13.36</ele>
      </trkpt>
      <trkpt lat="46.71937" lon="-1.97011">
        <ele>14.27</ele>
      </trkpt>
      <trkpt lat="46.71921" lon="-1.96981">
        <ele>14.91</ele>
      </trkpt>
      <trkpt lat="46.71907" lon="-1.96954">
        <ele>15.05</ele>
      </trkpt>
      <trkpt lat="46.71905" lon="-1.9695">
        <ele>15.06</ele>
      </trkpt>
      <trkpt lat="46.71903" lon="-1.96946">
        <ele>15.06</ele>
      </trkpt>
      <trkpt lat="46.71895" lon="-1.96931">
        <ele>15.04</ele>
      </trkpt>
      <trkpt lat="46.71884" lon="-1.96913">
        <ele>15.01</ele>
      </trkpt>
      <trkpt lat="46.71876" lon="-1.96905">
        <ele>15</ele>
      </trkpt>
      <trkpt lat="46.71873" lon="-1.969">
        <ele>14.99</ele>
      </trkpt>
      <trkpt lat="46.71871" lon="-1.96897">
        <ele>14.98</ele>
      </trkpt>
      <trkpt lat="46.71868" lon="-1.96892">
        <ele>14.95</ele>
      </trkpt>
      <trkpt lat="46.71861" lon="-1.96882">
        <ele>14.86</ele>
      </trkpt>
      <trkpt lat="46.71845" lon="-1.96881">
        <ele>14.69</ele>
      </trkpt>
      <trkpt lat="46.71841" lon="-1.96886">
        <ele>14.7</ele>
      </trkpt>
      <trkpt lat="46.71837" lon="-1.96889">
        <ele>14.7</ele>
      </trkpt>
      <trkpt lat="46.71835" lon="-1.96892">
        <ele>14.72</ele>
      </trkpt>
      <trkpt lat="46.71827" lon="-1.96906">
        <ele>14.72</ele>
      </trkpt>
      <trkpt lat="46.71818" lon="-1.96927">
        <ele>14.73</ele>
      </trkpt>
      <trkpt lat="46.71807" lon="-1.96953">
        <ele>14.65</ele>
      </trkpt>
      <trkpt lat="46.71801" lon="-1.96967">
        <ele>14.58</ele>
      </trkpt>
      <trkpt lat="46.71797" lon="-1.96975">
        <ele>14.53</ele>
      </trkpt>
      <trkpt lat="46.71794" lon="-1.96983">
        <ele>14.48</ele>
      </trkpt>
      <trkpt lat="46.71784" lon="-1.97011">
        <ele>14.23</ele>
      </trkpt>
      <trkpt lat="46.71778" lon="-1.97022">
        <ele>14.1</ele>
      </trkpt>
      <trkpt lat="46.71774" lon="-1.97031">
        <ele>14.01</ele>
      </trkpt>
      <trkpt lat="46.71764" lon="-1.97046">
        <ele>13.87</ele>
      </trkpt>
      <trkpt lat="46.71753" lon="-1.97062">
        <ele>13.81</ele>
      </trkpt>
      <trkpt lat="46.71731" lon="-1.97088">
        <ele>13.72</ele>
      </trkpt>
      <trkpt lat="46.71714" lon="-1.97118">
        <ele>13.16</ele>
      </trkpt>
      <trkpt lat="46.7171" lon="-1.97124">
        <ele>13.03</ele>
      </trkpt>
      <trkpt lat="46.71705" lon="-1.97132">
        <ele>12.87</ele>
      </trkpt>
      <trkpt lat="46.71699" lon="-1.97141">
        <ele>12.69</ele>
      </trkpt>
      <trkpt lat="46.71671" lon="-1.97183">
        <ele>12.04</ele>
      </trkpt>
      <trkpt lat="46.71642" lon="-1.97229">
        <ele>11.71</ele>
      </trkpt>
      <trkpt lat="46.71625" lon="-1.97258">
        <ele>11.5</ele>
      </trkpt>
      <trkpt lat="46.71622" lon="-1.97263">
        <ele>11.48</ele>
      </trkpt>
      <trkpt lat="46.71619" lon="-1.97269">
        <ele>11.46</ele>
      </trkpt>
      <trkpt lat="46.71613" lon="-1.9728">
        <ele>11.46</ele>
      </trkpt>
      <trkpt lat="46.71597" lon="-1.97309">
        <ele>11.64</ele>
      </trkpt>
      <trkpt lat="46.71584" lon="-1.97333">
        <ele>11.99</ele>
      </trkpt>
      <trkpt lat="46.7158" lon="-1.9734">
        <ele>12</ele>
      </trkpt>
      <trkpt lat="46.71578" lon="-1.97343">
        <ele>12</ele>
      </trkpt>
      <trkpt lat="46.71574" lon="-1.97352">
        <ele>12</ele>
      </trkpt>
      <trkpt lat="46.71563" lon="-1.97371">
        <ele>12</ele>
      </trkpt>
      <trkpt lat="46.71555" lon="-1.97384">
        <ele>12</ele>
      </trkpt>
      <trkpt lat="46.71551" lon="-1.97391">
        <ele>12</ele>
      </trkpt>
      <trkpt lat="46.71547" lon="-1.97397">
        <ele>12</ele>
      </trkpt>
      <trkpt lat="46.71535" lon="-1.97416">
        <ele>12</ele>
      </trkpt>
      <trkpt lat="46.71529" lon="-1.97427">
        <ele>12</ele>
      </trkpt>
      <trkpt lat="46.71526" lon="-1.97432">
        <ele>12</ele>
      </trkpt>
      <trkpt lat="46.71523" lon="-1.97438">
        <ele>12</ele>
      </trkpt>
      <trkpt lat="46.71514" lon="-1.97454">
        <ele>12</ele>
      </trkpt>
      <trkpt lat="46.71507" lon="-1.97468">
        <ele>12</ele>
      </trkpt>
      <trkpt lat="46.71502" lon="-1.97473">
        <ele>12</ele>
      </trkpt>
      <trkpt lat="46.715" lon="-1.97477">
        <ele>12</ele>
      </trkpt>
      <trkpt lat="46.71494" lon="-1.97488">
        <ele>11.86</ele>
      </trkpt>
      <trkpt lat="46.7148" lon="-1.97511">
        <ele>11.29</ele>
      </trkpt>
      <trkpt lat="46.71467" lon="-1.97533">
        <ele>10.56</ele>
      </trkpt>
      <trkpt lat="46.7146" lon="-1.97544">
        <ele>10.24</ele>
      </trkpt>
      <trkpt lat="46.71457" lon="-1.9755">
        <ele>10.08</ele>
      </trkpt>
      <trkpt lat="46.71454" lon="-1.97555">
        <ele>9.93</ele>
      </trkpt>
      <trkpt lat="46.7144" lon="-1.97579">
        <ele>9.34</ele>
      </trkpt>
      <trkpt lat="46.71432" lon="-1.97593">
        <ele>9</ele>
      </trkpt>
      <trkpt lat="46.71429" lon="-1.97597">
        <ele>8.91</ele>
      </trkpt>
      <trkpt lat="46.71426" lon="-1.976">
        <ele>8.85</ele>
      </trkpt>
      <trkpt lat="46.71423" lon="-1.97604">
        <ele>8.77</ele>
      </trkpt>
      <trkpt lat="46.7142" lon="-1.97614">
        <ele>8.63</ele>
      </trkpt>
      <trkpt lat="46.71415" lon="-1.97624">
        <ele>8.54</ele>
      </trkpt>
      <trkpt lat="46.71409" lon="-1.97629">
        <ele>8.55</ele>
      </trkpt>
      <trkpt lat="46.71406" lon="-1.9763">
        <ele>8.58</ele>
      </trkpt>
      <trkpt lat="46.71402" lon="-1.97633">
        <ele>8.61</ele>
      </trkpt>
      <trkpt lat="46.71401" lon="-1.97635">
        <ele>8.62</ele>
      </trkpt>
      <trkpt lat="46.71396" lon="-1.97638">
        <ele>8.67</ele>
      </trkpt>
      <trkpt lat="46.7139" lon="-1.97644">
        <ele>8.74</ele>
      </trkpt>
      <trkpt lat="46.71383" lon="-1.9765">
        <ele>8.85</ele>
      </trkpt>
      <trkpt lat="46.71378" lon="-1.97656">
        <ele>8.94</ele>
      </trkpt>
      <trkpt lat="46.71374" lon="-1.97661">
        <ele>9.03</ele>
      </trkpt>
      <trkpt lat="46.71369" lon="-1.97667">
        <ele>9.14</ele>
      </trkpt>
      <trkpt lat="46.71364" lon="-1.97672">
        <ele>9.13</ele>
      </trkpt>
      <trkpt lat="46.71358" lon="-1.97679">
        <ele>9.11</ele>
      </trkpt>
      <trkpt lat="46.71354" lon="-1.97685">
        <ele>9.06</ele>
      </trkpt>
      <trkpt lat="46.7135" lon="-1.9769">
        <ele>9.03</ele>
      </trkpt>
      <trkpt lat="46.71347" lon="-1.97696">
        <ele>8.97</ele>
      </trkpt>
      <trkpt lat="46.71344" lon="-1.97701">
        <ele>8.9</ele>
      </trkpt>
      <trkpt lat="46.71341" lon="-1.97708">
        <ele>8.81</ele>
      </trkpt>
      <trkpt lat="46.71337" lon="-1.97718">
        <ele>8.68</ele>
      </trkpt>
      <trkpt lat="46.71331" lon="-1.97729">
        <ele>8.47</ele>
      </trkpt>
      <trkpt lat="46.71324" lon="-1.97738">
        <ele>8.18</ele>
      </trkpt>
      <trkpt lat="46.71313" lon="-1.97748">
        <ele>7.79</ele>
      </trkpt>
      <trkpt lat="46.71306" lon="-1.97754">
        <ele>7.55</ele>
      </trkpt>
      <trkpt lat="46.713" lon="-1.97759">
        <ele>7.32</ele>
      </trkpt>
      <trkpt lat="46.71289" lon="-1.97768">
        <ele>6.93</ele>
      </trkpt>
      <trkpt lat="46.71284" lon="-1.97773">
        <ele>6.74</ele>
      </trkpt>
      <trkpt lat="46.7128" lon="-1.97778">
        <ele>6.58</ele>
      </trkpt>
      <trkpt lat="46.71277" lon="-1.97781">
        <ele>6.45</ele>
      </trkpt>
      <trkpt lat="46.71274" lon="-1.97786">
        <ele>6.31</ele>
      </trkpt>
      <trkpt lat="46.71271" lon="-1.97791">
        <ele>6.13</ele>
      </trkpt>
      <trkpt lat="46.71268" lon="-1.97798">
        <ele>5.95</ele>
      </trkpt>
      <trkpt lat="46.71266" lon="-1.97803">
        <ele>5.79</ele>
      </trkpt>
      <trkpt lat="46.71265" lon="-1.97809">
        <ele>5.64</ele>
      </trkpt>
      <trkpt lat="46.71261" lon="-1.97817">
        <ele>5.41</ele>
      </trkpt>
      <trkpt lat="46.7126" lon="-1.9782">
        <ele>5.35</ele>
      </trkpt>
      <trkpt lat="46.71259" lon="-1.97825">
        <ele>5.21</ele>
      </trkpt>
      <trkpt lat="46.71253" lon="-1.97838">
        <ele>4.88</ele>
      </trkpt>
      <trkpt lat="46.71247" lon="-1.97852">
        <ele>4.65</ele>
      </trkpt>
      <trkpt lat="46.71241" lon="-1.97864">
        <ele>4.56</ele>
      </trkpt>
      <trkpt lat="46.71234" lon="-1.97876">
        <ele>4.55</ele>
      </trkpt>
      <trkpt lat="46.71227" lon="-1.97887">
        <ele>4.6</ele>
      </trkpt>
      <trkpt lat="46.71222" lon="-1.97896">
        <ele>4.67</ele>
      </trkpt>
      <trkpt lat="46.71217" lon="-1.97906">
        <ele>4.75</ele>
      </trkpt>
      <trkpt lat="46.71213" lon="-1.97912">
        <ele>4.84</ele>
      </trkpt>
      <trkpt lat="46.71208" lon="-1.97919">
        <ele>4.97</ele>
      </trkpt>
      <trkpt lat="46.71203" lon="-1.97922">
        <ele>5.07</ele>
      </trkpt>
      <trkpt lat="46.71195" lon="-1.9793">
        <ele>5.19</ele>
      </trkpt>
      <trkpt lat="46.71187" lon="-1.97936">
        <ele>5.32</ele>
      </trkpt>
      <trkpt lat="46.7118" lon="-1.97941">
        <ele>5.48</ele>
      </trkpt>
      <trkpt lat="46.71176" lon="-1.97945">
        <ele>5.54</ele>
      </trkpt>
      <trkpt lat="46.71171" lon="-1.97949">
        <ele>5.61</ele>
      </trkpt>
      <trkpt lat="46.71167" lon="-1.97953">
        <ele>5.68</ele>
      </trkpt>
      <trkpt lat="46.71162" lon="-1.97957">
        <ele>5.72</ele>
      </trkpt>
      <trkpt lat="46.71161" lon="-1.97965">
        <ele>5.49</ele>
      </trkpt>
      <trkpt lat="46.71163" lon="-1.9797">
        <ele>5.22</ele>
      </trkpt>
      <trkpt lat="46.71166" lon="-1.97979">
        <ele>4.79</ele>
      </trkpt>
      <trkpt lat="46.71166" lon="-1.97979">
        <ele>4.76</ele>
      </trkpt>
      <trkpt lat="46.71166" lon="-1.97986">
        <ele>4.57</ele>
      </trkpt>
      <trkpt lat="46.71165" lon="-1.97991">
        <ele>4.39</ele>
      </trkpt>
      <trkpt lat="46.71164" lon="-1.97996">
        <ele>4.23</ele>
      </trkpt>
      <trkpt lat="46.71164" lon="-1.9801">
        <ele>3.75</ele>
      </trkpt>
      <trkpt lat="46.71151" lon="-1.98023">
        <ele>3.73</ele>
      </trkpt>
      <trkpt lat="46.71141" lon="-1.9803">
        <ele>3.73</ele>
      </trkpt>
      <trkpt lat="46.71129" lon="-1.9803">
        <ele>4.05</ele>
      </trkpt>
      <trkpt lat="46.71118" lon="-1.98037">
        <ele>4.01</ele>
      </trkpt>
      <trkpt lat="46.71101" lon="-1.98042">
        <ele>4.07</ele>
      </trkpt>
      <trkpt lat="46.71086" lon="-1.98046">
        <ele>4.09</ele>
      </trkpt>
      <trkpt lat="46.71072" lon="-1.98042">
        <ele>4.63</ele>
      </trkpt>
      <trkpt lat="46.71056" lon="-1.98048">
        <ele>4.38</ele>
      </trkpt>
      <trkpt lat="46.7104" lon="-1.98052">
        <ele>4.28</ele>
      </trkpt>
      <trkpt lat="46.71033" lon="-1.9805">
        <ele>4.53</ele>
      </trkpt>
      <trkpt lat="46.71026" lon="-1.98048">
        <ele>4.73</ele>
      </trkpt>
      <trkpt lat="46.71017" lon="-1.98058">
        <ele>4.23</ele>
      </trkpt>
      <trkpt lat="46.71001" lon="-1.98061">
        <ele>4.34</ele>
      </trkpt>
      <trkpt lat="46.70975" lon="-1.98063">
        <ele>4.31</ele>
      </trkpt>
      <trkpt lat="46.70968" lon="-1.98063">
        <ele>4.33</ele>
      </trkpt>
      <trkpt lat="46.70959" lon="-1.98048">
        <ele>5.32</ele>
      </trkpt>
      <trkpt lat="46.70953" lon="-1.98043">
        <ele>5.69</ele>
      </trkpt>
      <trkpt lat="46.70947" lon="-1.98038">
        <ele>6.09</ele>
      </trkpt>
      <trkpt lat="46.70933" lon="-1.9803">
        <ele>6.73</ele>
      </trkpt>
      <trkpt lat="46.70921" lon="-1.98027">
        <ele>7.01</ele>
      </trkpt>
      <trkpt lat="46.70897" lon="-1.98007">
        <ele>7.12</ele>
      </trkpt>
      <trkpt lat="46.7088" lon="-1.97997">
        <ele>6.5</ele>
      </trkpt>
      <trkpt lat="46.70871" lon="-1.97993">
        <ele>5.96</ele>
      </trkpt>
      <trkpt lat="46.70861" lon="-1.97973">
        <ele>6.2</ele>
      </trkpt>
      <trkpt lat="46.70843" lon="-1.97957">
        <ele>6</ele>
      </trkpt>
      <trkpt lat="46.70821" lon="-1.97945">
        <ele>5.99</ele>
      </trkpt>
      <trkpt lat="46.70805" lon="-1.97932">
        <ele>6.32</ele>
      </trkpt>
      <trkpt lat="46.70792" lon="-1.97914">
        <ele>7.07</ele>
      </trkpt>
      <trkpt lat="46.70785" lon="-1.97915">
        <ele>6.9</ele>
      </trkpt>
      <trkpt lat="46.70779" lon="-1.97911">
        <ele>6.85</ele>
      </trkpt>
      <trkpt lat="46.70772" lon="-1.97909">
        <ele>6.75</ele>
      </trkpt>
      <trkpt lat="46.70741" lon="-1.979">
        <ele>6.51</ele>
      </trkpt>
      <trkpt lat="46.70734" lon="-1.97899">
        <ele>6.45</ele>
      </trkpt>
      <trkpt lat="46.7072" lon="-1.97899">
        <ele>6.29</ele>
      </trkpt>
      <trkpt lat="46.70709" lon="-1.97897">
        <ele>6.2</ele>
      </trkpt>
      <trkpt lat="46.70696" lon="-1.97897">
        <ele>6.06</ele>
      </trkpt>
      <trkpt lat="46.70684" lon="-1.97898">
        <ele>5.87</ele>
      </trkpt>
      <trkpt lat="46.70675" lon="-1.97899">
        <ele>5.72</ele>
      </trkpt>
      <trkpt lat="46.70665" lon="-1.97902">
        <ele>5.52</ele>
      </trkpt>
      <trkpt lat="46.70642" lon="-1.97903">
        <ele>5.53</ele>
      </trkpt>
      <trkpt lat="46.70631" lon="-1.97906">
        <ele>5.44</ele>
      </trkpt>
      <trkpt lat="46.70626" lon="-1.97909">
        <ele>5.33</ele>
      </trkpt>
      <trkpt lat="46.70612" lon="-1.97912">
        <ele>5.21</ele>
      </trkpt>
      <trkpt lat="46.70602" lon="-1.97916">
        <ele>5.05</ele>
      </trkpt>
      <trkpt lat="46.70594" lon="-1.97919">
        <ele>4.91</ele>
      </trkpt>
      <trkpt lat="46.7058" lon="-1.97923">
        <ele>4.67</ele>
      </trkpt>
      <trkpt lat="46.70571" lon="-1.97925">
        <ele>4.58</ele>
      </trkpt>
      <trkpt lat="46.70564" lon="-1.97927">
        <ele>4.49</ele>
      </trkpt>
      <trkpt lat="46.70559" lon="-1.97927">
        <ele>4.45</ele>
      </trkpt>
      <trkpt lat="46.70551" lon="-1.97929">
        <ele>4.38</ele>
      </trkpt>
      <trkpt lat="46.70543" lon="-1.97928">
        <ele>4.4</ele>
      </trkpt>
      <trkpt lat="46.70533" lon="-1.97926">
        <ele>4.47</ele>
      </trkpt>
      <trkpt lat="46.70526" lon="-1.97924">
        <ele>4.56</ele>
      </trkpt>
      <trkpt lat="46.70514" lon="-1.9792">
        <ele>4.8</ele>
      </trkpt>
      <trkpt lat="46.70504" lon="-1.97916">
        <ele>5.04</ele>
      </trkpt>
      <trkpt lat="46.70494" lon="-1.97912">
        <ele>5.11</ele>
      </trkpt>
      <trkpt lat="46.70487" lon="-1.97909">
        <ele>5.02</ele>
      </trkpt>
      <trkpt lat="46.70478" lon="-1.97904">
        <ele>5.04</ele>
      </trkpt>
      <trkpt lat="46.70471" lon="-1.97899">
        <ele>5.06</ele>
      </trkpt>
      <trkpt lat="46.70462" lon="-1.97893">
        <ele>5.16</ele>
      </trkpt>
      <trkpt lat="46.70453" lon="-1.97886">
        <ele>5.38</ele>
      </trkpt>
      <trkpt lat="46.70443" lon="-1.97877">
        <ele>5.67</ele>
      </trkpt>
      <trkpt lat="46.70431" lon="-1.97865">
        <ele>6.11</ele>
      </trkpt>
      <trkpt lat="46.7042" lon="-1.97854">
        <ele>6.63</ele>
      </trkpt>
      <trkpt lat="46.70409" lon="-1.97843">
        <ele>6.87</ele>
      </trkpt>
      <trkpt lat="46.70399" lon="-1.97831">
        <ele>7.01</ele>
      </trkpt>
      <trkpt lat="46.70391" lon="-1.97823">
        <ele>7</ele>
      </trkpt>
      <trkpt lat="46.70383" lon="-1.97815">
        <ele>7.1</ele>
      </trkpt>
      <trkpt lat="46.70373" lon="-1.97806">
        <ele>7.39</ele>
      </trkpt>
      <trkpt lat="46.70368" lon="-1.978">
        <ele>7.71</ele>
      </trkpt>
      <trkpt lat="46.70356" lon="-1.97789">
        <ele>8.55</ele>
      </trkpt>
      <trkpt lat="46.70348" lon="-1.9778">
        <ele>9.42</ele>
      </trkpt>
      <trkpt lat="46.70338" lon="-1.97769">
        <ele>10.65</ele>
      </trkpt>
      <trkpt lat="46.70329" lon="-1.97758">
        <ele>11.4</ele>
      </trkpt>
      <trkpt lat="46.70317" lon="-1.97747">
        <ele>10.72</ele>
      </trkpt>
      <trkpt lat="46.70304" lon="-1.97734">
        <ele>9.69</ele>
      </trkpt>
      <trkpt lat="46.70291" lon="-1.97722">
        <ele>8.98</ele>
      </trkpt>
      <trkpt lat="46.70283" lon="-1.97713">
        <ele>8.9</ele>
      </trkpt>
      <trkpt lat="46.70273" lon="-1.97703">
        <ele>9</ele>
      </trkpt>
      <trkpt lat="46.70266" lon="-1.97695">
        <ele>9.24</ele>
      </trkpt>
      <trkpt lat="46.70258" lon="-1.97686">
        <ele>9.84</ele>
      </trkpt>
      <trkpt lat="46.7025" lon="-1.97679">
        <ele>10.4</ele>
      </trkpt>
      <trkpt lat="46.70244" lon="-1.97673">
        <ele>10.78</ele>
      </trkpt>
      <trkpt lat="46.70236" lon="-1.97664">
        <ele>11.07</ele>
      </trkpt>
      <trkpt lat="46.7023" lon="-1.97656">
        <ele>10.9</ele>
      </trkpt>
      <trkpt lat="46.70222" lon="-1.97648">
        <ele>10.74</ele>
      </trkpt>
      <trkpt lat="46.70215" lon="-1.97639">
        <ele>10.77</ele>
      </trkpt>
      <trkpt lat="46.70206" lon="-1.9763">
        <ele>10.93</ele>
      </trkpt>
      <trkpt lat="46.70195" lon="-1.97614">
        <ele>11.61</ele>
      </trkpt>
      <trkpt lat="46.70182" lon="-1.97597">
        <ele>12.72</ele>
      </trkpt>
      <trkpt lat="46.70171" lon="-1.97583">
        <ele>13.96</ele>
      </trkpt>
      <trkpt lat="46.7016" lon="-1.97568">
        <ele>13.17</ele>
      </trkpt>
      <trkpt lat="46.70148" lon="-1.9755">
        <ele>11.85</ele>
      </trkpt>
      <trkpt lat="46.70138" lon="-1.97537">
        <ele>11.07</ele>
      </trkpt>
      <trkpt lat="46.70128" lon="-1.97523">
        <ele>10.54</ele>
      </trkpt>
      <trkpt lat="46.7012" lon="-1.97512">
        <ele>10.37</ele>
      </trkpt>
      <trkpt lat="46.7011" lon="-1.975">
        <ele>10.25</ele>
      </trkpt>
      <trkpt lat="46.70105" lon="-1.97493">
        <ele>10.16</ele>
      </trkpt>
      <trkpt lat="46.70098" lon="-1.97484">
        <ele>10.16</ele>
      </trkpt>
      <trkpt lat="46.7009" lon="-1.97472">
        <ele>10.36</ele>
      </trkpt>
      <trkpt lat="46.70082" lon="-1.97461">
        <ele>10.72</ele>
      </trkpt>
      <trkpt lat="46.70073" lon="-1.97449">
        <ele>10.87</ele>
      </trkpt>
      <trkpt lat="46.70065" lon="-1.97439">
        <ele>10.97</ele>
      </trkpt>
      <trkpt lat="46.70056" lon="-1.97426">
        <ele>11.28</ele>
      </trkpt>
      <trkpt lat="46.70048" lon="-1.97414">
        <ele>11.53</ele>
      </trkpt>
      <trkpt lat="46.7004" lon="-1.97404">
        <ele>11.27</ele>
      </trkpt>
      <trkpt lat="46.70033" lon="-1.97395">
        <ele>11.18</ele>
      </trkpt>
      <trkpt lat="46.70025" lon="-1.97384">
        <ele>11.18</ele>
      </trkpt>
      <trkpt lat="46.70019" lon="-1.97376">
        <ele>11.26</ele>
      </trkpt>
      <trkpt lat="46.70014" lon="-1.9737">
        <ele>11.36</ele>
      </trkpt>
      <trkpt lat="46.70009" lon="-1.97362">
        <ele>11.59</ele>
      </trkpt>
      <trkpt lat="46.70003" lon="-1.97355">
        <ele>11.78</ele>
      </trkpt>
      <trkpt lat="46.69995" lon="-1.97345">
        <ele>11.76</ele>
      </trkpt>
      <trkpt lat="46.69987" lon="-1.97336">
        <ele>11.41</ele>
      </trkpt>
      <trkpt lat="46.69982" lon="-1.97332">
        <ele>11.09</ele>
      </trkpt>
      <trkpt lat="46.69978" lon="-1.97326">
        <ele>10.64</ele>
      </trkpt>
      <trkpt lat="46.6997" lon="-1.97318">
        <ele>9.95</ele>
      </trkpt>
      <trkpt lat="46.69961" lon="-1.97311">
        <ele>9.25</ele>
      </trkpt>
      <trkpt lat="46.69953" lon="-1.97304">
        <ele>8.78</ele>
      </trkpt>
      <trkpt lat="46.69946" lon="-1.97298">
        <ele>8.38</ele>
      </trkpt>
      <trkpt lat="46.69938" lon="-1.97293">
        <ele>7.97</ele>
      </trkpt>
      <trkpt lat="46.6993" lon="-1.97286">
        <ele>7.71</ele>
      </trkpt>
      <trkpt lat="46.69918" lon="-1.97277">
        <ele>7.45</ele>
      </trkpt>
      <trkpt lat="46.6991" lon="-1.97271">
        <ele>7.47</ele>
      </trkpt>
      <trkpt lat="46.69902" lon="-1.97266">
        <ele>7.5</ele>
      </trkpt>
      <trkpt lat="46.69895" lon="-1.9726">
        <ele>7.55</ele>
      </trkpt>
      <trkpt lat="46.69884" lon="-1.9725">
        <ele>7.83</ele>
      </trkpt>
      <trkpt lat="46.69863" lon="-1.97232">
        <ele>7.98</ele>
      </trkpt>
      <trkpt lat="46.69851" lon="-1.97225">
        <ele>8.13</ele>
      </trkpt>
      <trkpt lat="46.69839" lon="-1.97216">
        <ele>8.54</ele>
      </trkpt>
      <trkpt lat="46.69825" lon="-1.97205">
        <ele>8.98</ele>
      </trkpt>
      <trkpt lat="46.69814" lon="-1.97195">
        <ele>9.31</ele>
      </trkpt>
      <trkpt lat="46.69804" lon="-1.97188">
        <ele>9.48</ele>
      </trkpt>
      <trkpt lat="46.69794" lon="-1.97181">
        <ele>9.63</ele>
      </trkpt>
      <trkpt lat="46.69784" lon="-1.97172">
        <ele>9.86</ele>
      </trkpt>
      <trkpt lat="46.6977" lon="-1.97161">
        <ele>9.88</ele>
      </trkpt>
      <trkpt lat="46.6976" lon="-1.97151">
        <ele>9.84</ele>
      </trkpt>
      <trkpt lat="46.6975" lon="-1.97141">
        <ele>9.94</ele>
      </trkpt>
      <trkpt lat="46.6974" lon="-1.97131">
        <ele>9.58</ele>
      </trkpt>
      <trkpt lat="46.69735" lon="-1.97124">
        <ele>9.47</ele>
      </trkpt>
      <trkpt lat="46.69726" lon="-1.97115">
        <ele>9.2</ele>
      </trkpt>
      <trkpt lat="46.69716" lon="-1.97104">
        <ele>9.06</ele>
      </trkpt>
      <trkpt lat="46.69709" lon="-1.97096">
        <ele>8.94</ele>
      </trkpt>
      <trkpt lat="46.69698" lon="-1.97085">
        <ele>8.82</ele>
      </trkpt>
      <trkpt lat="46.69686" lon="-1.97073">
        <ele>8.66</ele>
      </trkpt>
      <trkpt lat="46.69677" lon="-1.97063">
        <ele>8.7</ele>
      </trkpt>
      <trkpt lat="46.69668" lon="-1.97053">
        <ele>8.86</ele>
      </trkpt>
      <trkpt lat="46.69656" lon="-1.97042">
        <ele>8.74</ele>
      </trkpt>
      <trkpt lat="46.69647" lon="-1.97032">
        <ele>8.77</ele>
      </trkpt>
      <trkpt lat="46.69637" lon="-1.9702">
        <ele>8.88</ele>
      </trkpt>
      <trkpt lat="46.69629" lon="-1.97012">
        <ele>8.91</ele>
      </trkpt>
      <trkpt lat="46.69621" lon="-1.97003">
        <ele>9.01</ele>
      </trkpt>
      <trkpt lat="46.69605" lon="-1.96986">
        <ele>8.72</ele>
      </trkpt>
      <trkpt lat="46.6959" lon="-1.96971">
        <ele>8.4</ele>
      </trkpt>
      <trkpt lat="46.69577" lon="-1.96958">
        <ele>8.16</ele>
      </trkpt>
      <trkpt lat="46.69567" lon="-1.96949">
        <ele>8.06</ele>
      </trkpt>
      <trkpt lat="46.69552" lon="-1.96934">
        <ele>8.21</ele>
      </trkpt>
      <trkpt lat="46.69546" lon="-1.96928">
        <ele>8.37</ele>
      </trkpt>
      <trkpt lat="46.69535" lon="-1.96918">
        <ele>8.78</ele>
      </trkpt>
      <trkpt lat="46.69525" lon="-1.96907">
        <ele>9.18</ele>
      </trkpt>
      <trkpt lat="46.69509" lon="-1.96891">
        <ele>9.94</ele>
      </trkpt>
      <trkpt lat="46.69494" lon="-1.96877">
        <ele>10.5</ele>
      </trkpt>
      <trkpt lat="46.69482" lon="-1.96865">
        <ele>10.7</ele>
      </trkpt>
      <trkpt lat="46.69473" lon="-1.96856">
        <ele>10.87</ele>
      </trkpt>
      <trkpt lat="46.69461" lon="-1.96844">
        <ele>11.2</ele>
      </trkpt>
      <trkpt lat="46.69448" lon="-1.96832">
        <ele>11.56</ele>
      </trkpt>
      <trkpt lat="46.69435" lon="-1.96819">
        <ele>11.47</ele>
      </trkpt>
      <trkpt lat="46.69419" lon="-1.96804">
        <ele>11.47</ele>
      </trkpt>
      <trkpt lat="46.69407" lon="-1.96791">
        <ele>10.96</ele>
      </trkpt>
      <trkpt lat="46.69394" lon="-1.96778">
        <ele>10.32</ele>
      </trkpt>
      <trkpt lat="46.69385" lon="-1.96768">
        <ele>9.93</ele>
      </trkpt>
      <trkpt lat="46.69372" lon="-1.96754">
        <ele>9.45</ele>
      </trkpt>
      <trkpt lat="46.6936" lon="-1.96735">
        <ele>9.24</ele>
      </trkpt>
      <trkpt lat="46.69351" lon="-1.96718">
        <ele>9.25</ele>
      </trkpt>
      <trkpt lat="46.69343" lon="-1.96702">
        <ele>9.52</ele>
      </trkpt>
      <trkpt lat="46.69337" lon="-1.96686">
        <ele>10.06</ele>
      </trkpt>
      <trkpt lat="46.69331" lon="-1.96668">
        <ele>10.61</ele>
      </trkpt>
      <trkpt lat="46.69325" lon="-1.96648">
        <ele>10.47</ele>
      </trkpt>
      <trkpt lat="46.6932" lon="-1.96622">
        <ele>10.56</ele>
      </trkpt>
      <trkpt lat="46.69317" lon="-1.96601">
        <ele>10.85</ele>
      </trkpt>
      <trkpt lat="46.69315" lon="-1.96585">
        <ele>11.15</ele>
      </trkpt>
      <trkpt lat="46.69313" lon="-1.96564">
        <ele>11.12</ele>
      </trkpt>
      <trkpt lat="46.69312" lon="-1.96546">
        <ele>11.11</ele>
      </trkpt>
      <trkpt lat="46.69314" lon="-1.96511">
        <ele>11.33</ele>
      </trkpt>
      <trkpt lat="46.69315" lon="-1.96485">
        <ele>11.85</ele>
      </trkpt>
      <trkpt lat="46.69317" lon="-1.96458">
        <ele>12.65</ele>
      </trkpt>
      <trkpt lat="46.69319" lon="-1.96424">
        <ele>13.65</ele>
      </trkpt>
      <trkpt lat="46.69321" lon="-1.96397">
        <ele>14.12</ele>
      </trkpt>
      <trkpt lat="46.69324" lon="-1.96368">
        <ele>14.47</ele>
      </trkpt>
      <trkpt lat="46.69325" lon="-1.96344">
        <ele>14.66</ele>
      </trkpt>
      <trkpt lat="46.69326" lon="-1.96326">
        <ele>14.66</ele>
      </trkpt>
      <trkpt lat="46.69327" lon="-1.9631">
        <ele>14.53</ele>
      </trkpt>
      <trkpt lat="46.69327" lon="-1.96294">
        <ele>14.32</ele>
      </trkpt>
      <trkpt lat="46.69326" lon="-1.96259">
        <ele>13.92</ele>
      </trkpt>
      <trkpt lat="46.69325" lon="-1.96227">
        <ele>12.92</ele>
      </trkpt>
      <trkpt lat="46.69325" lon="-1.9621">
        <ele>12.23</ele>
      </trkpt>
      <trkpt lat="46.69325" lon="-1.96189">
        <ele>11.38</ele>
      </trkpt>
      <trkpt lat="46.69325" lon="-1.96168">
        <ele>10.52</ele>
      </trkpt>
      <trkpt lat="46.69325" lon="-1.96152">
        <ele>9.28</ele>
      </trkpt>
      <trkpt lat="46.69326" lon="-1.96144">
        <ele>8.69</ele>
      </trkpt>
      <trkpt lat="46.69326" lon="-1.96141">
        <ele>8.5</ele>
      </trkpt>
      <trkpt lat="46.69326" lon="-1.96141">
        <ele>8.49</ele>
      </trkpt>
      <trkpt lat="46.69326" lon="-1.96141">
        <ele>8.49</ele>
      </trkpt>
      <trkpt lat="46.69329" lon="-1.96133">
        <ele>7.92</ele>
      </trkpt>
      <trkpt lat="46.69331" lon="-1.96126">
        <ele>7.47</ele>
      </trkpt>
      <trkpt lat="46.69342" lon="-1.9611">
        <ele>6.24</ele>
      </trkpt>
      <trkpt lat="46.69354" lon="-1.96098">
        <ele>5.34</ele>
      </trkpt>
      <trkpt lat="46.69368" lon="-1.96085">
        <ele>4.54</ele>
      </trkpt>
      <trkpt lat="46.6938" lon="-1.96075">
        <ele>4.26</ele>
      </trkpt>
      <trkpt lat="46.69392" lon="-1.96065">
        <ele>4.05</ele>
      </trkpt>
      <trkpt lat="46.69394" lon="-1.96063">
        <ele>4</ele>
      </trkpt>
      <trkpt lat="46.694" lon="-1.96057">
        <ele>3.86</ele>
      </trkpt>
      <trkpt lat="46.694" lon="-1.96057">
        <ele>3.86</ele>
      </trkpt>
      <trkpt lat="46.69408" lon="-1.96047">
        <ele>3.61</ele>
      </trkpt>
      <trkpt lat="46.69415" lon="-1.96038">
        <ele>3.36</ele>
      </trkpt>
      <trkpt lat="46.69422" lon="-1.96027">
        <ele>3.14</ele>
      </trkpt>
      <trkpt lat="46.69427" lon="-1.96017">
        <ele>2.96</ele>
      </trkpt>
      <trkpt lat="46.69433" lon="-1.96005">
        <ele>2.75</ele>
      </trkpt>
      <trkpt lat="46.69435" lon="-1.95998">
        <ele>2.67</ele>
      </trkpt>
      <trkpt lat="46.69441" lon="-1.95978">
        <ele>2.97</ele>
      </trkpt>
      <trkpt lat="46.69443" lon="-1.95971">
        <ele>3.05</ele>
      </trkpt>
      <trkpt lat="46.69443" lon="-1.95968">
        <ele>3.09</ele>
      </trkpt>
      <trkpt lat="46.69445" lon="-1.95957">
        <ele>3.18</ele>
      </trkpt>
      <trkpt lat="46.69446" lon="-1.95949">
        <ele>3.25</ele>
      </trkpt>
      <trkpt lat="46.69447" lon="-1.95935">
        <ele>3.39</ele>
      </trkpt>
      <trkpt lat="46.69449" lon="-1.9592">
        <ele>3.55</ele>
      </trkpt>
      <trkpt lat="46.69451" lon="-1.95898">
        <ele>3.59</ele>
      </trkpt>
      <trkpt lat="46.69453" lon="-1.95872">
        <ele>3.59</ele>
      </trkpt>
      <trkpt lat="46.69456" lon="-1.95849">
        <ele>3.77</ele>
      </trkpt>
      <trkpt lat="46.69459" lon="-1.95813">
        <ele>4.55</ele>
      </trkpt>
      <trkpt lat="46.69462" lon="-1.95786">
        <ele>5.5</ele>
      </trkpt>
      <trkpt lat="46.69464" lon="-1.95763">
        <ele>6.27</ele>
      </trkpt>
      <trkpt lat="46.69467" lon="-1.95744">
        <ele>6.75</ele>
      </trkpt>
      <trkpt lat="46.69471" lon="-1.95723">
        <ele>7.03</ele>
      </trkpt>
      <trkpt lat="46.69476" lon="-1.95701">
        <ele>7.31</ele>
      </trkpt>
      <trkpt lat="46.69478" lon="-1.95687">
        <ele>7.54</ele>
      </trkpt>
      <trkpt lat="46.69483" lon="-1.95667">
        <ele>7.94</ele>
      </trkpt>
      <trkpt lat="46.69487" lon="-1.95648">
        <ele>8.02</ele>
      </trkpt>
      <trkpt lat="46.69491" lon="-1.9563">
        <ele>8.12</ele>
      </trkpt>
      <trkpt lat="46.69494" lon="-1.95615">
        <ele>8.12</ele>
      </trkpt>
      <trkpt lat="46.69498" lon="-1.95598">
        <ele>8.12</ele>
      </trkpt>
      <trkpt lat="46.69502" lon="-1.95585">
        <ele>8.07</ele>
      </trkpt>
      <trkpt lat="46.69507" lon="-1.95568">
        <ele>7.99</ele>
      </trkpt>
      <trkpt lat="46.69513" lon="-1.95553">
        <ele>7.96</ele>
      </trkpt>
      <trkpt lat="46.6952" lon="-1.95538">
        <ele>7.94</ele>
      </trkpt>
      <trkpt lat="46.69527" lon="-1.95523">
        <ele>7.93</ele>
      </trkpt>
      <trkpt lat="46.69533" lon="-1.95509">
        <ele>7.91</ele>
      </trkpt>
      <trkpt lat="46.69542" lon="-1.95483">
        <ele>7.42</ele>
      </trkpt>
      <trkpt lat="46.69546" lon="-1.95471">
        <ele>7.21</ele>
      </trkpt>
      <trkpt lat="46.69548" lon="-1.95459">
        <ele>7.01</ele>
      </trkpt>
      <trkpt lat="46.6955" lon="-1.95442">
        <ele>6.65</ele>
      </trkpt>
      <trkpt lat="46.69549" lon="-1.95427">
        <ele>6.15</ele>
      </trkpt>
      <trkpt lat="46.69547" lon="-1.95411">
        <ele>5.88</ele>
      </trkpt>
      <trkpt lat="46.69543" lon="-1.95392">
        <ele>6.15</ele>
      </trkpt>
      <trkpt lat="46.69539" lon="-1.95374">
        <ele>6.6</ele>
      </trkpt>
      <trkpt lat="46.69536" lon="-1.95358">
        <ele>7.05</ele>
      </trkpt>
      <trkpt lat="46.69534" lon="-1.95347">
        <ele>7.36</ele>
      </trkpt>
      <trkpt lat="46.69531" lon="-1.95332">
        <ele>7.83</ele>
      </trkpt>
      <trkpt lat="46.69529" lon="-1.9532">
        <ele>7.42</ele>
      </trkpt>
      <trkpt lat="46.69527" lon="-1.95309">
        <ele>7.02</ele>
      </trkpt>
      <trkpt lat="46.69525" lon="-1.95297">
        <ele>6.62</ele>
      </trkpt>
      <trkpt lat="46.69523" lon="-1.95286">
        <ele>6.27</ele>
      </trkpt>
      <trkpt lat="46.69524" lon="-1.95269">
        <ele>5.88</ele>
      </trkpt>
      <trkpt lat="46.69527" lon="-1.95257">
        <ele>5.75</ele>
      </trkpt>
      <trkpt lat="46.69531" lon="-1.95244">
        <ele>5.63</ele>
      </trkpt>
      <trkpt lat="46.69537" lon="-1.95236">
        <ele>5.62</ele>
      </trkpt>
      <trkpt lat="46.69548" lon="-1.95224">
        <ele>5.79</ele>
      </trkpt>
      <trkpt lat="46.69553" lon="-1.95218">
        <ele>5.91</ele>
      </trkpt>
      <trkpt lat="46.69559" lon="-1.95213">
        <ele>6.06</ele>
      </trkpt>
      <trkpt lat="46.69567" lon="-1.95205">
        <ele>6.3</ele>
      </trkpt>
      <trkpt lat="46.69578" lon="-1.9519">
        <ele>6.47</ele>
      </trkpt>
      <trkpt lat="46.69583" lon="-1.95183">
        <ele>6.59</ele>
      </trkpt>
      <trkpt lat="46.69588" lon="-1.95179">
        <ele>6.65</ele>
      </trkpt>
      <trkpt lat="46.69601" lon="-1.95163">
        <ele>6.65</ele>
      </trkpt>
      <trkpt lat="46.69609" lon="-1.95153">
        <ele>6.51</ele>
      </trkpt>
      <trkpt lat="46.69613" lon="-1.95145">
        <ele>6.4</ele>
      </trkpt>
      <trkpt lat="46.69616" lon="-1.95136">
        <ele>6.23</ele>
      </trkpt>
      <trkpt lat="46.69623" lon="-1.95122">
        <ele>6.22</ele>
      </trkpt>
      <trkpt lat="46.6963" lon="-1.95101">
        <ele>6.19</ele>
      </trkpt>
      <trkpt lat="46.69636" lon="-1.95089">
        <ele>6.5</ele>
      </trkpt>
      <trkpt lat="46.69644" lon="-1.95069">
        <ele>6.86</ele>
      </trkpt>
      <trkpt lat="46.69648" lon="-1.95057">
        <ele>7.02</ele>
      </trkpt>
      <trkpt lat="46.69653" lon="-1.95046">
        <ele>7.2</ele>
      </trkpt>
      <trkpt lat="46.69655" lon="-1.95041">
        <ele>7.25</ele>
      </trkpt>
      <trkpt lat="46.69657" lon="-1.95034">
        <ele>7.3</ele>
      </trkpt>
      <trkpt lat="46.69662" lon="-1.95023">
        <ele>7.38</ele>
      </trkpt>
      <trkpt lat="46.69665" lon="-1.95015">
        <ele>7.41</ele>
      </trkpt>
      <trkpt lat="46.69671" lon="-1.94999">
        <ele>7.02</ele>
      </trkpt>
      <trkpt lat="46.69677" lon="-1.94985">
        <ele>6.62</ele>
      </trkpt>
      <trkpt lat="46.69683" lon="-1.94975">
        <ele>6.34</ele>
      </trkpt>
      <trkpt lat="46.69691" lon="-1.94962">
        <ele>6.04</ele>
      </trkpt>
      <trkpt lat="46.69699" lon="-1.94953">
        <ele>5.91</ele>
      </trkpt>
      <trkpt lat="46.69708" lon="-1.94942">
        <ele>5.74</ele>
      </trkpt>
      <trkpt lat="46.69717" lon="-1.94932">
        <ele>5.65</ele>
      </trkpt>
      <trkpt lat="46.69725" lon="-1.94923">
        <ele>5.58</ele>
      </trkpt>
      <trkpt lat="46.69732" lon="-1.94916">
        <ele>5.52</ele>
      </trkpt>
      <trkpt lat="46.69745" lon="-1.949">
        <ele>5.29</ele>
      </trkpt>
      <trkpt lat="46.69751" lon="-1.94892">
        <ele>5.1</ele>
      </trkpt>
      <trkpt lat="46.69756" lon="-1.94882">
        <ele>4.79</ele>
      </trkpt>
      <trkpt lat="46.6976" lon="-1.94867">
        <ele>4.35</ele>
      </trkpt>
      <trkpt lat="46.69768" lon="-1.94844">
        <ele>3.78</ele>
      </trkpt>
      <trkpt lat="46.69776" lon="-1.9482">
        <ele>3.31</ele>
      </trkpt>
      <trkpt lat="46.69784" lon="-1.94798">
        <ele>3.08</ele>
      </trkpt>
      <trkpt lat="46.69791" lon="-1.9478">
        <ele>2.99</ele>
      </trkpt>
      <trkpt lat="46.69796" lon="-1.94762">
        <ele>2.97</ele>
      </trkpt>
      <trkpt lat="46.69803" lon="-1.94742">
        <ele>3.23</ele>
      </trkpt>
      <trkpt lat="46.69808" lon="-1.94726">
        <ele>3.56</ele>
      </trkpt>
      <trkpt lat="46.6981" lon="-1.94714">
        <ele>3.74</ele>
      </trkpt>
      <trkpt lat="46.6981" lon="-1.94705">
        <ele>3.77</ele>
      </trkpt>
      <trkpt lat="46.69807" lon="-1.9469">
        <ele>3.66</ele>
      </trkpt>
      <trkpt lat="46.69801" lon="-1.9466">
        <ele>3.49</ele>
      </trkpt>
      <trkpt lat="46.69795" lon="-1.94638">
        <ele>3.35</ele>
      </trkpt>
      <trkpt lat="46.69791" lon="-1.94617">
        <ele>3.25</ele>
      </trkpt>
      <trkpt lat="46.69785" lon="-1.9459">
        <ele>3.08</ele>
      </trkpt>
      <trkpt lat="46.69781" lon="-1.94572">
        <ele>3.01</ele>
      </trkpt>
      <trkpt lat="46.69775" lon="-1.9455">
        <ele>3.06</ele>
      </trkpt>
      <trkpt lat="46.6977" lon="-1.94531">
        <ele>3.16</ele>
      </trkpt>
      <trkpt lat="46.69763" lon="-1.94511">
        <ele>3.27</ele>
      </trkpt>
      <trkpt lat="46.69757" lon="-1.94491">
        <ele>3.36</ele>
      </trkpt>
      <trkpt lat="46.69752" lon="-1.94476">
        <ele>3.36</ele>
      </trkpt>
      <trkpt lat="46.69749" lon="-1.94465">
        <ele>3.35</ele>
      </trkpt>
      <trkpt lat="46.69742" lon="-1.94449">
        <ele>3.25</ele>
      </trkpt>
      <trkpt lat="46.69736" lon="-1.9443">
        <ele>3.17</ele>
      </trkpt>
      <trkpt lat="46.69729" lon="-1.9441">
        <ele>3.17</ele>
      </trkpt>
      <trkpt lat="46.69724" lon="-1.94394">
        <ele>3.31</ele>
      </trkpt>
      <trkpt lat="46.69718" lon="-1.94375">
        <ele>3.47</ele>
      </trkpt>
      <trkpt lat="46.69711" lon="-1.94358">
        <ele>3.56</ele>
      </trkpt>
      <trkpt lat="46.69706" lon="-1.94341">
        <ele>3.73</ele>
      </trkpt>
      <trkpt lat="46.69702" lon="-1.94328">
        <ele>3.75</ele>
      </trkpt>
      <trkpt lat="46.69697" lon="-1.94316">
        <ele>3.75</ele>
      </trkpt>
      <trkpt lat="46.69694" lon="-1.94305">
        <ele>3.77</ele>
      </trkpt>
      <trkpt lat="46.69691" lon="-1.94292">
        <ele>3.87</ele>
      </trkpt>
      <trkpt lat="46.69686" lon="-1.94269">
        <ele>4.1</ele>
      </trkpt>
      <trkpt lat="46.69681" lon="-1.94252">
        <ele>4.31</ele>
      </trkpt>
      <trkpt lat="46.69677" lon="-1.94233">
        <ele>4.38</ele>
      </trkpt>
      <trkpt lat="46.69672" lon="-1.94215">
        <ele>4.47</ele>
      </trkpt>
      <trkpt lat="46.69667" lon="-1.94193">
        <ele>4.68</ele>
      </trkpt>
      <trkpt lat="46.69663" lon="-1.94176">
        <ele>4.76</ele>
      </trkpt>
      <trkpt lat="46.6966" lon="-1.94161">
        <ele>4.56</ele>
      </trkpt>
      <trkpt lat="46.69655" lon="-1.94146">
        <ele>3.99</ele>
      </trkpt>
      <trkpt lat="46.69652" lon="-1.94133">
        <ele>3.54</ele>
      </trkpt>
      <trkpt lat="46.6965" lon="-1.94125">
        <ele>3.3</ele>
      </trkpt>
      <trkpt lat="46.69654" lon="-1.94117">
        <ele>3.13</ele>
      </trkpt>
      <trkpt lat="46.69653" lon="-1.94107">
        <ele>2.82</ele>
      </trkpt>
      <trkpt lat="46.69647" lon="-1.94102">
        <ele>2.69</ele>
      </trkpt>
      <trkpt lat="46.69637" lon="-1.94109">
        <ele>2.85</ele>
      </trkpt>
      <trkpt lat="46.69629" lon="-1.94116">
        <ele>2.92</ele>
      </trkpt>
      <trkpt lat="46.69623" lon="-1.94117">
        <ele>2.89</ele>
      </trkpt>
      <trkpt lat="46.69618" lon="-1.94118">
        <ele>2.85</ele>
      </trkpt>
      <trkpt lat="46.6961" lon="-1.94114">
        <ele>2.78</ele>
      </trkpt>
      <trkpt lat="46.69606" lon="-1.94104">
        <ele>2.75</ele>
      </trkpt>
      <trkpt lat="46.69598" lon="-1.94085">
        <ele>2.82</ele>
      </trkpt>
      <trkpt lat="46.69593" lon="-1.94072">
        <ele>3.02</ele>
      </trkpt>
      <trkpt lat="46.69588" lon="-1.94061">
        <ele>3.22</ele>
      </trkpt>
      <trkpt lat="46.69581" lon="-1.94048">
        <ele>3.39</ele>
      </trkpt>
      <trkpt lat="46.69581" lon="-1.94048">
        <ele>3.39</ele>
      </trkpt>
      <trkpt lat="46.69572" lon="-1.94024">
        <ele>3.57</ele>
      </trkpt>
      <trkpt lat="46.69562" lon="-1.94004">
        <ele>3.69</ele>
      </trkpt>
      <trkpt lat="46.69553" lon="-1.93986">
        <ele>3.8</ele>
      </trkpt>
      <trkpt lat="46.69546" lon="-1.93972">
        <ele>3.89</ele>
      </trkpt>
      <trkpt lat="46.69542" lon="-1.9396">
        <ele>3.98</ele>
      </trkpt>
      <trkpt lat="46.69535" lon="-1.93941">
        <ele>4.12</ele>
      </trkpt>
      <trkpt lat="46.69529" lon="-1.93924">
        <ele>4.26</ele>
      </trkpt>
      <trkpt lat="46.69525" lon="-1.93911">
        <ele>4.29</ele>
      </trkpt>
      <trkpt lat="46.6952" lon="-1.93894">
        <ele>4.16</ele>
      </trkpt>
      <trkpt lat="46.69507" lon="-1.93869">
        <ele>3.66</ele>
      </trkpt>
      <trkpt lat="46.69499" lon="-1.93854">
        <ele>3.23</ele>
      </trkpt>
      <trkpt lat="46.69491" lon="-1.93836">
        <ele>2.92</ele>
      </trkpt>
      <trkpt lat="46.69481" lon="-1.93816">
        <ele>2.98</ele>
      </trkpt>
      <trkpt lat="46.69471" lon="-1.93796">
        <ele>3.1</ele>
      </trkpt>
      <trkpt lat="46.69461" lon="-1.9378">
        <ele>3.18</ele>
      </trkpt>
      <trkpt lat="46.69454" lon="-1.9376">
        <ele>3.32</ele>
      </trkpt>
      <trkpt lat="46.69446" lon="-1.93747">
        <ele>3.33</ele>
      </trkpt>
      <trkpt lat="46.69441" lon="-1.93731">
        <ele>3.22</ele>
      </trkpt>
      <trkpt lat="46.69435" lon="-1.93716">
        <ele>3.13</ele>
      </trkpt>
      <trkpt lat="46.69431" lon="-1.93701">
        <ele>3.07</ele>
      </trkpt>
      <trkpt lat="46.69428" lon="-1.93686">
        <ele>3.03</ele>
      </trkpt>
      <trkpt lat="46.69424" lon="-1.93673">
        <ele>3.01</ele>
      </trkpt>
      <trkpt lat="46.69421" lon="-1.93659">
        <ele>2.83</ele>
      </trkpt>
      <trkpt lat="46.69418" lon="-1.93644">
        <ele>2.46</ele>
      </trkpt>
      <trkpt lat="46.69418" lon="-1.93632">
        <ele>2.18</ele>
      </trkpt>
      <trkpt lat="46.6942" lon="-1.93615">
        <ele>1.8</ele>
      </trkpt>
      <trkpt lat="46.69425" lon="-1.93602">
        <ele>1.59</ele>
      </trkpt>
      <trkpt lat="46.69429" lon="-1.93595">
        <ele>1.54</ele>
      </trkpt>
      <trkpt lat="46.69435" lon="-1.9359">
        <ele>1.56</ele>
      </trkpt>
      <trkpt lat="46.69443" lon="-1.93585">
        <ele>1.67</ele>
      </trkpt>
      <trkpt lat="46.69453" lon="-1.93582">
        <ele>1.87</ele>
      </trkpt>
      <trkpt lat="46.69467" lon="-1.9358">
        <ele>2.21</ele>
      </trkpt>
      <trkpt lat="46.6948" lon="-1.93576">
        <ele>2.56</ele>
      </trkpt>
      <trkpt lat="46.69491" lon="-1.93571">
        <ele>2.9</ele>
      </trkpt>
      <trkpt lat="46.69503" lon="-1.93568">
        <ele>3.22</ele>
      </trkpt>
      <trkpt lat="46.69516" lon="-1.93567">
        <ele>3.35</ele>
      </trkpt>
      <trkpt lat="46.69526" lon="-1.9357">
        <ele>3.42</ele>
      </trkpt>
      <trkpt lat="46.69538" lon="-1.93574">
        <ele>3.51</ele>
      </trkpt>
      <trkpt lat="46.69549" lon="-1.93578">
        <ele>3.61</ele>
      </trkpt>
      <trkpt lat="46.69556" lon="-1.93581">
        <ele>3.69</ele>
      </trkpt>
      <trkpt lat="46.69567" lon="-1.93582">
        <ele>3.81</ele>
      </trkpt>
      <trkpt lat="46.69575" lon="-1.93581">
        <ele>3.91</ele>
      </trkpt>
      <trkpt lat="46.69582" lon="-1.93577">
        <ele>3.98</ele>
      </trkpt>
      <trkpt lat="46.69586" lon="-1.93572">
        <ele>3.96</ele>
      </trkpt>
      <trkpt lat="46.69592" lon="-1.93569">
        <ele>3.9</ele>
      </trkpt>
      <trkpt lat="46.69598" lon="-1.93569">
        <ele>3.83</ele>
      </trkpt>
      <trkpt lat="46.69605" lon="-1.93571">
        <ele>3.74</ele>
      </trkpt>
      <trkpt lat="46.69609" lon="-1.93564">
        <ele>3.69</ele>
      </trkpt>
      <trkpt lat="46.6961" lon="-1.93549">
        <ele>3.69</ele>
      </trkpt>
      <trkpt lat="46.69616" lon="-1.93538">
        <ele>3.61</ele>
      </trkpt>
      <trkpt lat="46.69622" lon="-1.93524">
        <ele>3.53</ele>
      </trkpt>
      <trkpt lat="46.69626" lon="-1.93509">
        <ele>3.49</ele>
      </trkpt>
      <trkpt lat="46.69629" lon="-1.93493">
        <ele>3.55</ele>
      </trkpt>
      <trkpt lat="46.6963" lon="-1.93476">
        <ele>3.76</ele>
      </trkpt>
      <trkpt lat="46.69629" lon="-1.93462">
        <ele>3.96</ele>
      </trkpt>
      <trkpt lat="46.69627" lon="-1.93444">
        <ele>4.18</ele>
      </trkpt>
      <trkpt lat="46.69624" lon="-1.93436">
        <ele>4.26</ele>
      </trkpt>
      <trkpt lat="46.69617" lon="-1.93432">
        <ele>4.25</ele>
      </trkpt>
      <trkpt lat="46.69612" lon="-1.93424">
        <ele>4.28</ele>
      </trkpt>
      <trkpt lat="46.69605" lon="-1.9342">
        <ele>4.24</ele>
      </trkpt>
      <trkpt lat="46.69597" lon="-1.93417">
        <ele>4.16</ele>
      </trkpt>
      <trkpt lat="46.69587" lon="-1.93413">
        <ele>4.13</ele>
      </trkpt>
      <trkpt lat="46.69576" lon="-1.93411">
        <ele>4.05</ele>
      </trkpt>
      <trkpt lat="46.69565" lon="-1.93407">
        <ele>4.02</ele>
      </trkpt>
      <trkpt lat="46.69549" lon="-1.93395">
        <ele>4.1</ele>
      </trkpt>
      <trkpt lat="46.69535" lon="-1.93389">
        <ele>4.07</ele>
      </trkpt>
      <trkpt lat="46.69519" lon="-1.93381">
        <ele>4.09</ele>
      </trkpt>
      <trkpt lat="46.69509" lon="-1.93376">
        <ele>4.08</ele>
      </trkpt>
      <trkpt lat="46.69497" lon="-1.93371">
        <ele>4.07</ele>
      </trkpt>
      <trkpt lat="46.69484" lon="-1.93366">
        <ele>4.03</ele>
      </trkpt>
      <trkpt lat="46.69471" lon="-1.93361">
        <ele>3.99</ele>
      </trkpt>
      <trkpt lat="46.69458" lon="-1.93355">
        <ele>3.97</ele>
      </trkpt>
      <trkpt lat="46.69446" lon="-1.93347">
        <ele>4.02</ele>
      </trkpt>
      <trkpt lat="46.69431" lon="-1.93344">
        <ele>3.92</ele>
      </trkpt>
      <trkpt lat="46.69419" lon="-1.93338">
        <ele>3.91</ele>
      </trkpt>
      <trkpt lat="46.69409" lon="-1.93337">
        <ele>3.92</ele>
      </trkpt>
      <trkpt lat="46.694" lon="-1.93336">
        <ele>3.95</ele>
      </trkpt>
      <trkpt lat="46.69392" lon="-1.93341">
        <ele>3.86</ele>
      </trkpt>
      <trkpt lat="46.69385" lon="-1.93347">
        <ele>3.79</ele>
      </trkpt>
      <trkpt lat="46.69376" lon="-1.93337">
        <ele>3.95</ele>
      </trkpt>
      <trkpt lat="46.69372" lon="-1.93333">
        <ele>4</ele>
      </trkpt>
      <trkpt lat="46.69367" lon="-1.93331">
        <ele>4</ele>
      </trkpt>
      <trkpt lat="46.6936" lon="-1.93329">
        <ele>4</ele>
      </trkpt>
      <trkpt lat="46.69341" lon="-1.93326">
        <ele>4</ele>
      </trkpt>
      <trkpt lat="46.6933" lon="-1.93326">
        <ele>3.96</ele>
      </trkpt>
      <trkpt lat="46.69311" lon="-1.93323">
        <ele>3.76</ele>
      </trkpt>
      <trkpt lat="46.69298" lon="-1.93322">
        <ele>3.64</ele>
      </trkpt>
      <trkpt lat="46.69285" lon="-1.9332">
        <ele>3.51</ele>
      </trkpt>
      <trkpt lat="46.69269" lon="-1.93315">
        <ele>3.4</ele>
      </trkpt>
      <trkpt lat="46.69261" lon="-1.93315">
        <ele>3.32</ele>
      </trkpt>
      <trkpt lat="46.6925" lon="-1.93313">
        <ele>3.24</ele>
      </trkpt>
      <trkpt lat="46.6924" lon="-1.93311">
        <ele>3.2</ele>
      </trkpt>
      <trkpt lat="46.6923" lon="-1.9331">
        <ele>3.15</ele>
      </trkpt>
      <trkpt lat="46.69221" lon="-1.93311">
        <ele>3.09</ele>
      </trkpt>
      <trkpt lat="46.69214" lon="-1.93312">
        <ele>3.04</ele>
      </trkpt>
      <trkpt lat="46.69207" lon="-1.9331">
        <ele>2.99</ele>
      </trkpt>
      <trkpt lat="46.692" lon="-1.93309">
        <ele>2.94</ele>
      </trkpt>
      <trkpt lat="46.6919" lon="-1.93311">
        <ele>2.89</ele>
      </trkpt>
      <trkpt lat="46.6918" lon="-1.93312">
        <ele>2.82</ele>
      </trkpt>
      <trkpt lat="46.6917" lon="-1.93311">
        <ele>2.75</ele>
      </trkpt>
      <trkpt lat="46.69162" lon="-1.93305">
        <ele>2.64</ele>
      </trkpt>
      <trkpt lat="46.69157" lon="-1.93299">
        <ele>2.54</ele>
      </trkpt>
      <trkpt lat="46.69152" lon="-1.93287">
        <ele>2.35</ele>
      </trkpt>
      <trkpt lat="46.69143" lon="-1.93275">
        <ele>2.1</ele>
      </trkpt>
      <trkpt lat="46.69135" lon="-1.93258">
        <ele>1.76</ele>
      </trkpt>
      <trkpt lat="46.69129" lon="-1.93245">
        <ele>1.63</ele>
      </trkpt>
      <trkpt lat="46.69122" lon="-1.93234">
        <ele>1.75</ele>
      </trkpt>
      <trkpt lat="46.69118" lon="-1.93227">
        <ele>1.81</ele>
      </trkpt>
      <trkpt lat="46.69113" lon="-1.93217">
        <ele>1.89</ele>
      </trkpt>
      <trkpt lat="46.69108" lon="-1.93208">
        <ele>1.95</ele>
      </trkpt>
      <trkpt lat="46.69103" lon="-1.932">
        <ele>1.98</ele>
      </trkpt>
      <trkpt lat="46.69099" lon="-1.93189">
        <ele>2.05</ele>
      </trkpt>
      <trkpt lat="46.69091" lon="-1.93177">
        <ele>2.04</ele>
      </trkpt>
      <trkpt lat="46.69083" lon="-1.9317">
        <ele>1.95</ele>
      </trkpt>
      <trkpt lat="46.69077" lon="-1.93166">
        <ele>1.93</ele>
      </trkpt>
      <trkpt lat="46.69071" lon="-1.93165">
        <ele>1.91</ele>
      </trkpt>
      <trkpt lat="46.69064" lon="-1.93162">
        <ele>1.91</ele>
      </trkpt>
      <trkpt lat="46.69051" lon="-1.93159">
        <ele>1.83</ele>
      </trkpt>
      <trkpt lat="46.69041" lon="-1.93159">
        <ele>1.73</ele>
      </trkpt>
      <trkpt lat="46.69032" lon="-1.93159">
        <ele>1.62</ele>
      </trkpt>
      <trkpt lat="46.69017" lon="-1.93159">
        <ele>1.47</ele>
      </trkpt>
      <trkpt lat="46.68994" lon="-1.9316">
        <ele>1.31</ele>
      </trkpt>
      <trkpt lat="46.68975" lon="-1.93162">
        <ele>1.42</ele>
      </trkpt>
      <trkpt lat="46.68955" lon="-1.93165">
        <ele>1.57</ele>
      </trkpt>
      <trkpt lat="46.68936" lon="-1.93169">
        <ele>1.75</ele>
      </trkpt>
      <trkpt lat="46.68921" lon="-1.93174">
        <ele>1.86</ele>
      </trkpt>
      <trkpt lat="46.68909" lon="-1.9318">
        <ele>2.04</ele>
      </trkpt>
      <trkpt lat="46.68893" lon="-1.9319">
        <ele>2.37</ele>
      </trkpt>
      <trkpt lat="46.68877" lon="-1.93201">
        <ele>2.74</ele>
      </trkpt>
      <trkpt lat="46.68861" lon="-1.93211">
        <ele>3.15</ele>
      </trkpt>
      <trkpt lat="46.68843" lon="-1.93223">
        <ele>3.68</ele>
      </trkpt>
      <trkpt lat="46.68828" lon="-1.93232">
        <ele>3.99</ele>
      </trkpt>
      <trkpt lat="46.68809" lon="-1.93239">
        <ele>3.96</ele>
      </trkpt>
      <trkpt lat="46.68785" lon="-1.93237">
        <ele>3.91</ele>
      </trkpt>
      <trkpt lat="46.68769" lon="-1.93233">
        <ele>3.84</ele>
      </trkpt>
      <trkpt lat="46.68761" lon="-1.93232">
        <ele>3.82</ele>
      </trkpt>
      <trkpt lat="46.68743" lon="-1.93228">
        <ele>3.74</ele>
      </trkpt>
      <trkpt lat="46.68716" lon="-1.93225">
        <ele>3.69</ele>
      </trkpt>
      <trkpt lat="46.68696" lon="-1.93222">
        <ele>3.66</ele>
      </trkpt>
      <trkpt lat="46.68678" lon="-1.93215">
        <ele>3.58</ele>
      </trkpt>
      <trkpt lat="46.68666" lon="-1.93208">
        <ele>3.52</ele>
      </trkpt>
      <trkpt lat="46.68641" lon="-1.93194">
        <ele>3.74</ele>
      </trkpt>
      <trkpt lat="46.6863" lon="-1.93186">
        <ele>3.78</ele>
      </trkpt>
      <trkpt lat="46.68623" lon="-1.93179">
        <ele>3.75</ele>
      </trkpt>
      <trkpt lat="46.68614" lon="-1.93173">
        <ele>3.74</ele>
      </trkpt>
      <trkpt lat="46.68593" lon="-1.93155">
        <ele>3.9</ele>
      </trkpt>
      <trkpt lat="46.68579" lon="-1.93144">
        <ele>4.02</ele>
      </trkpt>
      <trkpt lat="46.68565" lon="-1.93128">
        <ele>4.02</ele>
      </trkpt>
      <trkpt lat="46.68551" lon="-1.93117">
        <ele>3.93</ele>
      </trkpt>
      <trkpt lat="46.68527" lon="-1.93094">
        <ele>3.49</ele>
      </trkpt>
      <trkpt lat="46.68511" lon="-1.93079">
        <ele>3.13</ele>
      </trkpt>
      <trkpt lat="46.68501" lon="-1.93071">
        <ele>3.02</ele>
      </trkpt>
      <trkpt lat="46.68491" lon="-1.9306">
        <ele>3</ele>
      </trkpt>
      <trkpt lat="46.68481" lon="-1.93051">
        <ele>3</ele>
      </trkpt>
      <trkpt lat="46.6847" lon="-1.93039">
        <ele>3</ele>
      </trkpt>
      <trkpt lat="46.68462" lon="-1.93028">
        <ele>3</ele>
      </trkpt>
      <trkpt lat="46.68451" lon="-1.9302">
        <ele>3</ele>
      </trkpt>
      <trkpt lat="46.68444" lon="-1.93007">
        <ele>3</ele>
      </trkpt>
      <trkpt lat="46.68437" lon="-1.92997">
        <ele>3.04</ele>
      </trkpt>
      <trkpt lat="46.68431" lon="-1.92988">
        <ele>3.14</ele>
      </trkpt>
      <trkpt lat="46.68425" lon="-1.92978">
        <ele>3.26</ele>
      </trkpt>
      <trkpt lat="46.68417" lon="-1.92969">
        <ele>3.37</ele>
      </trkpt>
      <trkpt lat="46.68407" lon="-1.92953">
        <ele>3.45</ele>
      </trkpt>
      <trkpt lat="46.68396" lon="-1.92939">
        <ele>3.49</ele>
      </trkpt>
      <trkpt lat="46.68386" lon="-1.92923">
        <ele>3.55</ele>
      </trkpt>
      <trkpt lat="46.68378" lon="-1.92912">
        <ele>3.56</ele>
      </trkpt>
      <trkpt lat="46.6837" lon="-1.92902">
        <ele>3.54</ele>
      </trkpt>
      <trkpt lat="46.68361" lon="-1.92891">
        <ele>3.54</ele>
      </trkpt>
      <trkpt lat="46.68354" lon="-1.92882">
        <ele>3.56</ele>
      </trkpt>
      <trkpt lat="46.68346" lon="-1.92871">
        <ele>3.62</ele>
      </trkpt>
      <trkpt lat="46.68339" lon="-1.92859">
        <ele>3.71</ele>
      </trkpt>
      <trkpt lat="46.68331" lon="-1.92846">
        <ele>3.79</ele>
      </trkpt>
      <trkpt lat="46.68321" lon="-1.92833">
        <ele>3.72</ele>
      </trkpt>
      <trkpt lat="46.68314" lon="-1.92822">
        <ele>3.58</ele>
      </trkpt>
      <trkpt lat="46.68304" lon="-1.92805">
        <ele>3.41</ele>
      </trkpt>
      <trkpt lat="46.68299" lon="-1.92795">
        <ele>3.36</ele>
      </trkpt>
      <trkpt lat="46.68292" lon="-1.92781">
        <ele>3.32</ele>
      </trkpt>
      <trkpt lat="46.68284" lon="-1.92767">
        <ele>3.29</ele>
      </trkpt>
      <trkpt lat="46.68278" lon="-1.92754">
        <ele>3.31</ele>
      </trkpt>
      <trkpt lat="46.68272" lon="-1.92744">
        <ele>3.32</ele>
      </trkpt>
      <trkpt lat="46.68265" lon="-1.92735">
        <ele>3.33</ele>
      </trkpt>
      <trkpt lat="46.68255" lon="-1.92723">
        <ele>3.36</ele>
      </trkpt>
      <trkpt lat="46.68244" lon="-1.92712">
        <ele>3.38</ele>
      </trkpt>
      <trkpt lat="46.68229" lon="-1.92698">
        <ele>3.32</ele>
      </trkpt>
      <trkpt lat="46.68222" lon="-1.92688">
        <ele>3.24</ele>
      </trkpt>
      <trkpt lat="46.68212" lon="-1.92679">
        <ele>3.08</ele>
      </trkpt>
      <trkpt lat="46.68206" lon="-1.92669">
        <ele>2.94</ele>
      </trkpt>
      <trkpt lat="46.68198" lon="-1.92658">
        <ele>3.04</ele>
      </trkpt>
      <trkpt lat="46.68192" lon="-1.92648">
        <ele>3.31</ele>
      </trkpt>
      <trkpt lat="46.68182" lon="-1.92626">
        <ele>4.03</ele>
      </trkpt>
      <trkpt lat="46.68173" lon="-1.9261">
        <ele>4.7</ele>
      </trkpt>
      <trkpt lat="46.68167" lon="-1.92599">
        <ele>5.26</ele>
      </trkpt>
      <trkpt lat="46.6816" lon="-1.92588">
        <ele>5.63</ele>
      </trkpt>
      <trkpt lat="46.68144" lon="-1.92566">
        <ele>5.63</ele>
      </trkpt>
      <trkpt lat="46.68127" lon="-1.92539">
        <ele>5.8</ele>
      </trkpt>
      <trkpt lat="46.68112" lon="-1.92522">
        <ele>6.13</ele>
      </trkpt>
      <trkpt lat="46.68109" lon="-1.92515">
        <ele>6.32</ele>
      </trkpt>
      <trkpt lat="46.68099" lon="-1.9249">
        <ele>6.81</ele>
      </trkpt>
      <trkpt lat="46.68086" lon="-1.92457">
        <ele>6.97</ele>
      </trkpt>
      <trkpt lat="46.68073" lon="-1.92427">
        <ele>6.63</ele>
      </trkpt>
      <trkpt lat="46.68064" lon="-1.92404">
        <ele>6.22</ele>
      </trkpt>
      <trkpt lat="46.68058" lon="-1.92388">
        <ele>5.94</ele>
      </trkpt>
      <trkpt lat="46.6805" lon="-1.92373">
        <ele>5.7</ele>
      </trkpt>
      <trkpt lat="46.68041" lon="-1.92362">
        <ele>5.49</ele>
      </trkpt>
      <trkpt lat="46.68027" lon="-1.92346">
        <ele>5.27</ele>
      </trkpt>
      <trkpt lat="46.68015" lon="-1.92331">
        <ele>5.16</ele>
      </trkpt>
      <trkpt lat="46.67995" lon="-1.92309">
        <ele>4.57</ele>
      </trkpt>
      <trkpt lat="46.6798" lon="-1.92291">
        <ele>4.03</ele>
      </trkpt>
      <trkpt lat="46.67968" lon="-1.92277">
        <ele>3.7</ele>
      </trkpt>
      <trkpt lat="46.67956" lon="-1.92263">
        <ele>3.47</ele>
      </trkpt>
      <trkpt lat="46.67946" lon="-1.92251">
        <ele>3.35</ele>
      </trkpt>
      <trkpt lat="46.67937" lon="-1.92243">
        <ele>3.23</ele>
      </trkpt>
      <trkpt lat="46.67928" lon="-1.92235">
        <ele>3.11</ele>
      </trkpt>
      <trkpt lat="46.67918" lon="-1.92228">
        <ele>3.02</ele>
      </trkpt>
      <trkpt lat="46.67911" lon="-1.92224">
        <ele>3.05</ele>
      </trkpt>
      <trkpt lat="46.67898" lon="-1.92219">
        <ele>3.14</ele>
      </trkpt>
      <trkpt lat="46.67887" lon="-1.92217">
        <ele>3.22</ele>
      </trkpt>
      <trkpt lat="46.67878" lon="-1.92214">
        <ele>3.26</ele>
      </trkpt>
      <trkpt lat="46.67869" lon="-1.92207">
        <ele>3.28</ele>
      </trkpt>
      <trkpt lat="46.67858" lon="-1.92195">
        <ele>3.24</ele>
      </trkpt>
      <trkpt lat="46.67849" lon="-1.92184">
        <ele>3.17</ele>
      </trkpt>
      <trkpt lat="46.67847" lon="-1.92174">
        <ele>3.08</ele>
      </trkpt>
      <trkpt lat="46.67843" lon="-1.92168">
        <ele>3.02</ele>
      </trkpt>
      <trkpt lat="46.67837" lon="-1.92158">
        <ele>2.89</ele>
      </trkpt>
      <trkpt lat="46.67834" lon="-1.92144">
        <ele>2.73</ele>
      </trkpt>
      <trkpt lat="46.6783" lon="-1.92125">
        <ele>2.67</ele>
      </trkpt>
      <trkpt lat="46.67829" lon="-1.92114">
        <ele>2.58</ele>
      </trkpt>
      <trkpt lat="46.67828" lon="-1.92099">
        <ele>2.46</ele>
      </trkpt>
      <trkpt lat="46.67823" lon="-1.92083">
        <ele>2.5</ele>
      </trkpt>
      <trkpt lat="46.67819" lon="-1.92065">
        <ele>2.66</ele>
      </trkpt>
      <trkpt lat="46.67812" lon="-1.92048">
        <ele>2.93</ele>
      </trkpt>
      <trkpt lat="46.67803" lon="-1.92031">
        <ele>3.21</ele>
      </trkpt>
      <trkpt lat="46.67792" lon="-1.92014">
        <ele>3.59</ele>
      </trkpt>
      <trkpt lat="46.67776" lon="-1.91995">
        <ele>4.03</ele>
      </trkpt>
      <trkpt lat="46.67767" lon="-1.9198">
        <ele>4.24</ele>
      </trkpt>
      <trkpt lat="46.67758" lon="-1.91965">
        <ele>4.37</ele>
      </trkpt>
      <trkpt lat="46.67728" lon="-1.9191">
        <ele>4.35</ele>
      </trkpt>
      <trkpt lat="46.6771" lon="-1.91881">
        <ele>3.89</ele>
      </trkpt>
      <trkpt lat="46.67697" lon="-1.91859">
        <ele>3.44</ele>
      </trkpt>
      <trkpt lat="46.6769" lon="-1.91848">
        <ele>3.19</ele>
      </trkpt>
      <trkpt lat="46.67682" lon="-1.91832">
        <ele>2.81</ele>
      </trkpt>
      <trkpt lat="46.67656" lon="-1.91777">
        <ele>3.18</ele>
      </trkpt>
      <trkpt lat="46.67645" lon="-1.91756">
        <ele>3.28</ele>
      </trkpt>
      <trkpt lat="46.6763" lon="-1.91728">
        <ele>3.73</ele>
      </trkpt>
      <trkpt lat="46.67618" lon="-1.91704">
        <ele>4.04</ele>
      </trkpt>
      <trkpt lat="46.6761" lon="-1.91687">
        <ele>4.17</ele>
      </trkpt>
      <trkpt lat="46.67603" lon="-1.91672">
        <ele>4.21</ele>
      </trkpt>
      <trkpt lat="46.67594" lon="-1.91653">
        <ele>4.13</ele>
      </trkpt>
      <trkpt lat="46.67582" lon="-1.91631">
        <ele>4.09</ele>
      </trkpt>
      <trkpt lat="46.67575" lon="-1.91611">
        <ele>4.48</ele>
      </trkpt>
      <trkpt lat="46.67568" lon="-1.91594">
        <ele>4.76</ele>
      </trkpt>
      <trkpt lat="46.67565" lon="-1.91585">
        <ele>4.92</ele>
      </trkpt>
      <trkpt lat="46.67558" lon="-1.91572">
        <ele>4.95</ele>
      </trkpt>
      <trkpt lat="46.67544" lon="-1.91542">
        <ele>4.67</ele>
      </trkpt>
      <trkpt lat="46.67539" lon="-1.91528">
        <ele>4.4</ele>
      </trkpt>
      <trkpt lat="46.6753" lon="-1.9151">
        <ele>4.01</ele>
      </trkpt>
      <trkpt lat="46.67525" lon="-1.91498">
        <ele>3.68</ele>
      </trkpt>
      <trkpt lat="46.67514" lon="-1.91479">
        <ele>3.63</ele>
      </trkpt>
      <trkpt lat="46.67504" lon="-1.91461">
        <ele>3.51</ele>
      </trkpt>
      <trkpt lat="46.67496" lon="-1.91446">
        <ele>3.49</ele>
      </trkpt>
      <trkpt lat="46.67491" lon="-1.9143">
        <ele>3.43</ele>
      </trkpt>
      <trkpt lat="46.67484" lon="-1.9141">
        <ele>3.44</ele>
      </trkpt>
      <trkpt lat="46.67478" lon="-1.91398">
        <ele>3.64</ele>
      </trkpt>
      <trkpt lat="46.67467" lon="-1.91393">
        <ele>3.84</ele>
      </trkpt>
      <trkpt lat="46.67457" lon="-1.91384">
        <ele>4.02</ele>
      </trkpt>
      <trkpt lat="46.67446" lon="-1.91365">
        <ele>4.11</ele>
      </trkpt>
      <trkpt lat="46.67438" lon="-1.91351">
        <ele>4.1</ele>
      </trkpt>
      <trkpt lat="46.67419" lon="-1.91323">
        <ele>3.75</ele>
      </trkpt>
      <trkpt lat="46.67415" lon="-1.91311">
        <ele>3.56</ele>
      </trkpt>
      <trkpt lat="46.67408" lon="-1.91299">
        <ele>3.74</ele>
      </trkpt>
      <trkpt lat="46.67402" lon="-1.91288">
        <ele>3.93</ele>
      </trkpt>
      <trkpt lat="46.67395" lon="-1.91275">
        <ele>4.21</ele>
      </trkpt>
      <trkpt lat="46.67389" lon="-1.91264">
        <ele>4.53</ele>
      </trkpt>
      <trkpt lat="46.67381" lon="-1.91248">
        <ele>4.93</ele>
      </trkpt>
      <trkpt lat="46.67376" lon="-1.91238">
        <ele>5.11</ele>
      </trkpt>
      <trkpt lat="46.67372" lon="-1.91229">
        <ele>5.19</ele>
      </trkpt>
      <trkpt lat="46.67369" lon="-1.91218">
        <ele>5.15</ele>
      </trkpt>
      <trkpt lat="46.67367" lon="-1.91209">
        <ele>5.02</ele>
      </trkpt>
      <trkpt lat="46.67363" lon="-1.912">
        <ele>4.94</ele>
      </trkpt>
      <trkpt lat="46.6736" lon="-1.9119">
        <ele>4.77</ele>
      </trkpt>
      <trkpt lat="46.67358" lon="-1.91183">
        <ele>4.64</ele>
      </trkpt>
      <trkpt lat="46.67356" lon="-1.91178">
        <ele>4.57</ele>
      </trkpt>
      <trkpt lat="46.67356" lon="-1.91176">
        <ele>4.54</ele>
      </trkpt>
      <trkpt lat="46.67355" lon="-1.91175">
        <ele>4.52</ele>
      </trkpt>
      <trkpt lat="46.67353" lon="-1.91167">
        <ele>4.31</ele>
      </trkpt>
      <trkpt lat="46.67349" lon="-1.91158">
        <ele>4.29</ele>
      </trkpt>
      <trkpt lat="46.67346" lon="-1.9115">
        <ele>4.25</ele>
      </trkpt>
      <trkpt lat="46.67339" lon="-1.91134">
        <ele>4.08</ele>
      </trkpt>
      <trkpt lat="46.6733" lon="-1.91116">
        <ele>4.05</ele>
      </trkpt>
      <trkpt lat="46.67323" lon="-1.91105">
        <ele>4.25</ele>
      </trkpt>
      <trkpt lat="46.67317" lon="-1.91092">
        <ele>4.4</ele>
      </trkpt>
      <trkpt lat="46.6731" lon="-1.91079">
        <ele>4.62</ele>
      </trkpt>
      <trkpt lat="46.67303" lon="-1.91062">
        <ele>4.82</ele>
      </trkpt>
      <trkpt lat="46.67297" lon="-1.91048">
        <ele>4.86</ele>
      </trkpt>
      <trkpt lat="46.67289" lon="-1.9103">
        <ele>4.83</ele>
      </trkpt>
      <trkpt lat="46.67283" lon="-1.91019">
        <ele>4.76</ele>
      </trkpt>
      <trkpt lat="46.67275" lon="-1.91003">
        <ele>4.5</ele>
      </trkpt>
      <trkpt lat="46.67265" lon="-1.90984">
        <ele>4.13</ele>
      </trkpt>
      <trkpt lat="46.67255" lon="-1.9097">
        <ele>3.83</ele>
      </trkpt>
      <trkpt lat="46.67241" lon="-1.90951">
        <ele>3.64</ele>
      </trkpt>
      <trkpt lat="46.67232" lon="-1.90939">
        <ele>3.58</ele>
      </trkpt>
      <trkpt lat="46.67226" lon="-1.90931">
        <ele>3.47</ele>
      </trkpt>
      <trkpt lat="46.6722" lon="-1.90922">
        <ele>3.31</ele>
      </trkpt>
      <trkpt lat="46.67207" lon="-1.90903">
        <ele>3.2</ele>
      </trkpt>
      <trkpt lat="46.67196" lon="-1.90884">
        <ele>3.06</ele>
      </trkpt>
      <trkpt lat="46.67187" lon="-1.90869">
        <ele>2.84</ele>
      </trkpt>
      <trkpt lat="46.67178" lon="-1.90849">
        <ele>2.39</ele>
      </trkpt>
      <trkpt lat="46.67166" lon="-1.90827">
        <ele>2.15</ele>
      </trkpt>
      <trkpt lat="46.67158" lon="-1.90815">
        <ele>2.55</ele>
      </trkpt>
      <trkpt lat="46.67151" lon="-1.90799">
        <ele>2.89</ele>
      </trkpt>
      <trkpt lat="46.67151" lon="-1.90799">
        <ele>2.89</ele>
      </trkpt>
      <trkpt lat="46.6715" lon="-1.908">
        <ele>2.88</ele>
      </trkpt>
      <trkpt lat="46.67146" lon="-1.90804">
        <ele>2.86</ele>
      </trkpt>
      <trkpt lat="46.67144" lon="-1.90805">
        <ele>2.85</ele>
      </trkpt>
      <trkpt lat="46.67144" lon="-1.90805">
        <ele>2.85</ele>
      </trkpt>
      <trkpt lat="46.67144" lon="-1.90805">
        <ele>2.85</ele>
      </trkpt>
      <trkpt lat="46.6714" lon="-1.90811">
        <ele>2.84</ele>
      </trkpt>
      <trkpt lat="46.67138" lon="-1.90813">
        <ele>2.84</ele>
      </trkpt>
      <trkpt lat="46.67129" lon="-1.90824">
        <ele>2.92</ele>
      </trkpt>
      <trkpt lat="46.67129" lon="-1.90825">
        <ele>2.92</ele>
      </trkpt>
      <trkpt lat="46.67112" lon="-1.90846">
        <ele>3.85</ele>
      </trkpt>
      <trkpt lat="46.67101" lon="-1.90863">
        <ele>4.92</ele>
      </trkpt>
      <trkpt lat="46.67096" lon="-1.90863">
        <ele>5.08</ele>
      </trkpt>
      <trkpt lat="46.6709" lon="-1.90859">
        <ele>5.06</ele>
      </trkpt>
      <trkpt lat="46.67076" lon="-1.90852">
        <ele>5.1</ele>
      </trkpt>
      <trkpt lat="46.67061" lon="-1.90844">
        <ele>5.27</ele>
      </trkpt>
      <trkpt lat="46.67044" lon="-1.90838">
        <ele>5.6</ele>
      </trkpt>
      <trkpt lat="46.67026" lon="-1.90834">
        <ele>6.09</ele>
      </trkpt>
      <trkpt lat="46.67008" lon="-1.90829">
        <ele>6.47</ele>
      </trkpt>
      <trkpt lat="46.66992" lon="-1.90827">
        <ele>6.53</ele>
      </trkpt>
      <trkpt lat="46.66978" lon="-1.90825">
        <ele>6.3</ele>
      </trkpt>
      <trkpt lat="46.66969" lon="-1.90825">
        <ele>6.22</ele>
      </trkpt>
      <trkpt lat="46.66962" lon="-1.90822">
        <ele>6.05</ele>
      </trkpt>
      <trkpt lat="46.66955" lon="-1.90821">
        <ele>5.96</ele>
      </trkpt>
      <trkpt lat="46.66943" lon="-1.90823">
        <ele>5.95</ele>
      </trkpt>
      <trkpt lat="46.6693" lon="-1.90829">
        <ele>6.03</ele>
      </trkpt>
      <trkpt lat="46.66915" lon="-1.90835">
        <ele>5.94</ele>
      </trkpt>
      <trkpt lat="46.66902" lon="-1.90845">
        <ele>5.56</ele>
      </trkpt>
      <trkpt lat="46.66888" lon="-1.90859">
        <ele>5.29</ele>
      </trkpt>
      <trkpt lat="46.66875" lon="-1.90871">
        <ele>5.18</ele>
      </trkpt>
      <trkpt lat="46.66862" lon="-1.90881">
        <ele>5.16</ele>
      </trkpt>
      <trkpt lat="46.6685" lon="-1.90893">
        <ele>5.31</ele>
      </trkpt>
      <trkpt lat="46.66836" lon="-1.90904">
        <ele>5.58</ele>
      </trkpt>
      <trkpt lat="46.66822" lon="-1.90912">
        <ele>5.69</ele>
      </trkpt>
      <trkpt lat="46.6681" lon="-1.90913">
        <ele>5.57</ele>
      </trkpt>
      <trkpt lat="46.66794" lon="-1.9092">
        <ele>5.63</ele>
      </trkpt>
      <trkpt lat="46.66777" lon="-1.90933">
        <ele>5.78</ele>
      </trkpt>
      <trkpt lat="46.66764" lon="-1.90946">
        <ele>5.93</ele>
      </trkpt>
      <trkpt lat="46.66759" lon="-1.9095">
        <ele>5.96</ele>
      </trkpt>
      <trkpt lat="46.66755" lon="-1.90956">
        <ele>6.05</ele>
      </trkpt>
      <trkpt lat="46.66751" lon="-1.9097">
        <ele>6.3</ele>
      </trkpt>
      <trkpt lat="46.66747" lon="-1.9099">
        <ele>6.77</ele>
      </trkpt>
      <trkpt lat="46.6674" lon="-1.91013">
        <ele>6.98</ele>
      </trkpt>
      <trkpt lat="46.6674" lon="-1.91032">
        <ele>6.95</ele>
      </trkpt>
      <trkpt lat="46.66743" lon="-1.91044">
        <ele>6.95</ele>
      </trkpt>
      <trkpt lat="46.66739" lon="-1.91053">
        <ele>6.92</ele>
      </trkpt>
      <trkpt lat="46.66731" lon="-1.91067">
        <ele>6.82</ele>
      </trkpt>
      <trkpt lat="46.66712" lon="-1.91091">
        <ele>6.63</ele>
      </trkpt>
      <trkpt lat="46.66703" lon="-1.91099">
        <ele>6.62</ele>
      </trkpt>
      <trkpt lat="46.66692" lon="-1.91105">
        <ele>6.56</ele>
      </trkpt>
      <trkpt lat="46.66683" lon="-1.91105">
        <ele>6.45</ele>
      </trkpt>
      <trkpt lat="46.66674" lon="-1.91089">
        <ele>6.16</ele>
      </trkpt>
      <trkpt lat="46.66669" lon="-1.9107">
        <ele>6.19</ele>
      </trkpt>
      <trkpt lat="46.66667" lon="-1.91054">
        <ele>6.35</ele>
      </trkpt>
      <trkpt lat="46.66668" lon="-1.90998">
        <ele>7.05</ele>
      </trkpt>
      <trkpt lat="46.66669" lon="-1.90984">
        <ele>7.35</ele>
      </trkpt>
      <trkpt lat="46.66672" lon="-1.90966">
        <ele>7.71</ele>
      </trkpt>
      <trkpt lat="46.66678" lon="-1.90943">
        <ele>7.98</ele>
      </trkpt>
      <trkpt lat="46.66684" lon="-1.9092">
        <ele>8.11</ele>
      </trkpt>
      <trkpt lat="46.66691" lon="-1.90902">
        <ele>7.73</ele>
      </trkpt>
      <trkpt lat="46.66696" lon="-1.90881">
        <ele>7.26</ele>
      </trkpt>
      <trkpt lat="46.66699" lon="-1.90858">
        <ele>6.75</ele>
      </trkpt>
      <trkpt lat="46.66699" lon="-1.90837">
        <ele>6.5</ele>
      </trkpt>
      <trkpt lat="46.667" lon="-1.90811">
        <ele>6.27</ele>
      </trkpt>
      <trkpt lat="46.66703" lon="-1.90778">
        <ele>5.69</ele>
      </trkpt>
      <trkpt lat="46.66702" lon="-1.90751">
        <ele>5.63</ele>
      </trkpt>
      <trkpt lat="46.66698" lon="-1.90725">
        <ele>5.61</ele>
      </trkpt>
      <trkpt lat="46.66691" lon="-1.9069">
        <ele>5.65</ele>
      </trkpt>
      <trkpt lat="46.66682" lon="-1.90665">
        <ele>5.87</ele>
      </trkpt>
      <trkpt lat="46.66675" lon="-1.90641">
        <ele>5.85</ele>
      </trkpt>
      <trkpt lat="46.66667" lon="-1.90622">
        <ele>5.9</ele>
      </trkpt>
      <trkpt lat="46.66661" lon="-1.90616">
        <ele>6.02</ele>
      </trkpt>
      <trkpt lat="46.66653" lon="-1.90614">
        <ele>6.3</ele>
      </trkpt>
      <trkpt lat="46.66645" lon="-1.90612">
        <ele>6.55</ele>
      </trkpt>
      <trkpt lat="46.66633" lon="-1.9061">
        <ele>6.98</ele>
      </trkpt>
      <trkpt lat="46.66611" lon="-1.90609">
        <ele>7.79</ele>
      </trkpt>
      <trkpt lat="46.66604" lon="-1.90603">
        <ele>7.89</ele>
      </trkpt>
      <trkpt lat="46.66587" lon="-1.90598">
        <ele>8.4</ele>
      </trkpt>
      <trkpt lat="46.66564" lon="-1.90599">
        <ele>8.33</ele>
      </trkpt>
      <trkpt lat="46.66544" lon="-1.90601">
        <ele>8.17</ele>
      </trkpt>
      <trkpt lat="46.66533" lon="-1.90601">
        <ele>8.04</ele>
      </trkpt>
      <trkpt lat="46.66518" lon="-1.906">
        <ele>7.83</ele>
      </trkpt>
      <trkpt lat="46.66505" lon="-1.90596">
        <ele>7.54</ele>
      </trkpt>
      <trkpt lat="46.66489" lon="-1.90591">
        <ele>6.99</ele>
      </trkpt>
      <trkpt lat="46.66477" lon="-1.90586">
        <ele>6.52</ele>
      </trkpt>
      <trkpt lat="46.66467" lon="-1.90583">
        <ele>6.19</ele>
      </trkpt>
      <trkpt lat="46.66458" lon="-1.90581">
        <ele>5.9</ele>
      </trkpt>
      <trkpt lat="46.66444" lon="-1.90583">
        <ele>5.64</ele>
      </trkpt>
      <trkpt lat="46.66432" lon="-1.90588">
        <ele>5.44</ele>
      </trkpt>
      <trkpt lat="46.6642" lon="-1.90596">
        <ele>5.25</ele>
      </trkpt>
      <trkpt lat="46.66408" lon="-1.90602">
        <ele>4.89</ele>
      </trkpt>
      <trkpt lat="46.66393" lon="-1.90603">
        <ele>4.33</ele>
      </trkpt>
      <trkpt lat="46.66388" lon="-1.9061">
        <ele>4.19</ele>
      </trkpt>
      <trkpt lat="46.66383" lon="-1.90621">
        <ele>4.05</ele>
      </trkpt>
      <trkpt lat="46.66375" lon="-1.9063">
        <ele>3.77</ele>
      </trkpt>
      <trkpt lat="46.66361" lon="-1.90633">
        <ele>3.21</ele>
      </trkpt>
      <trkpt lat="46.66339" lon="-1.90631">
        <ele>2.24</ele>
      </trkpt>
      <trkpt lat="46.66309" lon="-1.90622">
        <ele>2.16</ele>
      </trkpt>
      <trkpt lat="46.66284" lon="-1.90617">
        <ele>2.35</ele>
      </trkpt>
      <trkpt lat="46.66253" lon="-1.90614">
        <ele>2.61</ele>
      </trkpt>
      <trkpt lat="46.66235" lon="-1.9061">
        <ele>3.09</ele>
      </trkpt>
      <trkpt lat="46.66221" lon="-1.90602">
        <ele>3.56</ele>
      </trkpt>
      <trkpt lat="46.66205" lon="-1.906">
        <ele>4</ele>
      </trkpt>
      <trkpt lat="46.66166" lon="-1.90597">
        <ele>4.98</ele>
      </trkpt>
      <trkpt lat="46.66143" lon="-1.90591">
        <ele>4.43</ele>
      </trkpt>
      <trkpt lat="46.66127" lon="-1.90574">
        <ele>3.99</ele>
      </trkpt>
      <trkpt lat="46.66106" lon="-1.90502">
        <ele>3.28</ele>
      </trkpt>
      <trkpt lat="46.6609" lon="-1.90426">
        <ele>3.83</ele>
      </trkpt>
      <trkpt lat="46.66092" lon="-1.90397">
        <ele>4.54</ele>
      </trkpt>
      <trkpt lat="46.66091" lon="-1.90372">
        <ele>5.34</ele>
      </trkpt>
      <trkpt lat="46.66087" lon="-1.90358">
        <ele>5.97</ele>
      </trkpt>
      <trkpt lat="46.66084" lon="-1.90344">
        <ele>6.58</ele>
      </trkpt>
      <trkpt lat="46.66083" lon="-1.90323">
        <ele>7.23</ele>
      </trkpt>
      <trkpt lat="46.66083" lon="-1.903">
        <ele>7.81</ele>
      </trkpt>
      <trkpt lat="46.66085" lon="-1.90281">
        <ele>8.2</ele>
      </trkpt>
      <trkpt lat="46.66089" lon="-1.90265">
        <ele>8.38</ele>
      </trkpt>
      <trkpt lat="46.66095" lon="-1.90244">
        <ele>8.49</ele>
      </trkpt>
      <trkpt lat="46.66099" lon="-1.90226">
        <ele>8.52</ele>
      </trkpt>
      <trkpt lat="46.66105" lon="-1.90209">
        <ele>8.43</ele>
      </trkpt>
      <trkpt lat="46.66114" lon="-1.9019">
        <ele>8.27</ele>
      </trkpt>
      <trkpt lat="46.6612" lon="-1.90179">
        <ele>8.09</ele>
      </trkpt>
      <trkpt lat="46.66122" lon="-1.9016">
        <ele>8.12</ele>
      </trkpt>
      <trkpt lat="46.66122" lon="-1.90141">
        <ele>7.98</ele>
      </trkpt>
      <trkpt lat="46.66121" lon="-1.90126">
        <ele>7.99</ele>
      </trkpt>
      <trkpt lat="46.66119" lon="-1.9011">
        <ele>7.99</ele>
      </trkpt>
      <trkpt lat="46.66116" lon="-1.90097">
        <ele>8.1</ele>
      </trkpt>
      <trkpt lat="46.66109" lon="-1.90087">
        <ele>8.48</ele>
      </trkpt>
      <trkpt lat="46.66101" lon="-1.90073">
        <ele>8.61</ele>
      </trkpt>
      <trkpt lat="46.66094" lon="-1.90064">
        <ele>8.7</ele>
      </trkpt>
      <trkpt lat="46.66087" lon="-1.90058">
        <ele>8.86</ele>
      </trkpt>
      <trkpt lat="46.66082" lon="-1.9005">
        <ele>8.83</ele>
      </trkpt>
      <trkpt lat="46.6608" lon="-1.90036">
        <ele>8.44</ele>
      </trkpt>
      <trkpt lat="46.66081" lon="-1.90024">
        <ele>7.98</ele>
      </trkpt>
      <trkpt lat="46.66081" lon="-1.90009">
        <ele>7.46</ele>
      </trkpt>
      <trkpt lat="46.66076" lon="-1.90002">
        <ele>7.51</ele>
      </trkpt>
      <trkpt lat="46.6607" lon="-1.90002">
        <ele>7.84</ele>
      </trkpt>
      <trkpt lat="46.66064" lon="-1.89996">
        <ele>8.04</ele>
      </trkpt>
      <trkpt lat="46.66058" lon="-1.89988">
        <ele>8.06</ele>
      </trkpt>
      <trkpt lat="46.6605" lon="-1.89983">
        <ele>8.25</ele>
      </trkpt>
      <trkpt lat="46.66042" lon="-1.8998">
        <ele>8.54</ele>
      </trkpt>
      <trkpt lat="46.66033" lon="-1.8998">
        <ele>8.96</ele>
      </trkpt>
      <trkpt lat="46.66024" lon="-1.89973">
        <ele>9</ele>
      </trkpt>
      <trkpt lat="46.66016" lon="-1.8997">
        <ele>9.18</ele>
      </trkpt>
      <trkpt lat="46.66004" lon="-1.89955">
        <ele>8.62</ele>
      </trkpt>
      <trkpt lat="46.65997" lon="-1.89949">
        <ele>8.29</ele>
      </trkpt>
      <trkpt lat="46.65988" lon="-1.89946">
        <ele>8.12</ele>
      </trkpt>
      <trkpt lat="46.65975" lon="-1.89942">
        <ele>7.86</ele>
      </trkpt>
      <trkpt lat="46.65967" lon="-1.89936">
        <ele>7.53</ele>
      </trkpt>
      <trkpt lat="46.65961" lon="-1.8993">
        <ele>7.19</ele>
      </trkpt>
      <trkpt lat="46.65955" lon="-1.89922">
        <ele>6.82</ele>
      </trkpt>
      <trkpt lat="46.65945" lon="-1.89916">
        <ele>6.66</ele>
      </trkpt>
      <trkpt lat="46.65933" lon="-1.89911">
        <ele>6.75</ele>
      </trkpt>
      <trkpt lat="46.65922" lon="-1.89906">
        <ele>6.81</ele>
      </trkpt>
      <trkpt lat="46.65911" lon="-1.89902">
        <ele>7.01</ele>
      </trkpt>
      <trkpt lat="46.659" lon="-1.89894">
        <ele>7.27</ele>
      </trkpt>
      <trkpt lat="46.65887" lon="-1.89887">
        <ele>7.57</ele>
      </trkpt>
      <trkpt lat="46.65875" lon="-1.89877">
        <ele>7.8</ele>
      </trkpt>
      <trkpt lat="46.65862" lon="-1.89867">
        <ele>7.99</ele>
      </trkpt>
      <trkpt lat="46.65847" lon="-1.89857">
        <ele>8.18</ele>
      </trkpt>
      <trkpt lat="46.65835" lon="-1.89845">
        <ele>8.26</ele>
      </trkpt>
      <trkpt lat="46.65823" lon="-1.89835">
        <ele>8.15</ele>
      </trkpt>
      <trkpt lat="46.65811" lon="-1.89826">
        <ele>8.04</ele>
      </trkpt>
      <trkpt lat="46.65796" lon="-1.89819">
        <ele>8.02</ele>
      </trkpt>
      <trkpt lat="46.65781" lon="-1.89815">
        <ele>8.09</ele>
      </trkpt>
      <trkpt lat="46.65763" lon="-1.89805">
        <ele>8.11</ele>
      </trkpt>
      <trkpt lat="46.65743" lon="-1.89792">
        <ele>8.05</ele>
      </trkpt>
      <trkpt lat="46.65724" lon="-1.89778">
        <ele>7.98</ele>
      </trkpt>
      <trkpt lat="46.65705" lon="-1.89767">
        <ele>8.16</ele>
      </trkpt>
      <trkpt lat="46.65688" lon="-1.89757">
        <ele>8.48</ele>
      </trkpt>
      <trkpt lat="46.65671" lon="-1.89747">
        <ele>8.94</ele>
      </trkpt>
      <trkpt lat="46.65656" lon="-1.89736">
        <ele>8.79</ele>
      </trkpt>
      <trkpt lat="46.65647" lon="-1.89725">
        <ele>8.59</ele>
      </trkpt>
      <trkpt lat="46.65638" lon="-1.89722">
        <ele>8.3</ele>
      </trkpt>
      <trkpt lat="46.65628" lon="-1.8972">
        <ele>7.99</ele>
      </trkpt>
      <trkpt lat="46.65619" lon="-1.89712">
        <ele>7.74</ele>
      </trkpt>
      <trkpt lat="46.65609" lon="-1.89706">
        <ele>7.47</ele>
      </trkpt>
      <trkpt lat="46.65601" lon="-1.89702">
        <ele>7.21</ele>
      </trkpt>
      <trkpt lat="46.6558" lon="-1.89689">
        <ele>6.7</ele>
      </trkpt>
      <trkpt lat="46.65559" lon="-1.89678">
        <ele>6.61</ele>
      </trkpt>
      <trkpt lat="46.65541" lon="-1.89668">
        <ele>6.49</ele>
      </trkpt>
      <trkpt lat="46.65522" lon="-1.89652">
        <ele>6.52</ele>
      </trkpt>
      <trkpt lat="46.65505" lon="-1.89639">
        <ele>6.69</ele>
      </trkpt>
      <trkpt lat="46.65488" lon="-1.89626">
        <ele>7.05</ele>
      </trkpt>
      <trkpt lat="46.65475" lon="-1.89616">
        <ele>7.27</ele>
      </trkpt>
      <trkpt lat="46.65467" lon="-1.89612">
        <ele>7.33</ele>
      </trkpt>
      <trkpt lat="46.65456" lon="-1.89603">
        <ele>7.37</ele>
      </trkpt>
      <trkpt lat="46.65452" lon="-1.89599">
        <ele>7.37</ele>
      </trkpt>
      <trkpt lat="46.6544" lon="-1.89605">
        <ele>7.32</ele>
      </trkpt>
      <trkpt lat="46.65429" lon="-1.89618">
        <ele>7.38</ele>
      </trkpt>
      <trkpt lat="46.65413" lon="-1.89636">
        <ele>7.7</ele>
      </trkpt>
      <trkpt lat="46.65401" lon="-1.89655">
        <ele>8.18</ele>
      </trkpt>
      <trkpt lat="46.65388" lon="-1.89678">
        <ele>8.63</ele>
      </trkpt>
      <trkpt lat="46.65379" lon="-1.89698">
        <ele>8.75</ele>
      </trkpt>
      <trkpt lat="46.65365" lon="-1.89712">
        <ele>8.91</ele>
      </trkpt>
      <trkpt lat="46.65349" lon="-1.89726">
        <ele>9.05</ele>
      </trkpt>
      <trkpt lat="46.65336" lon="-1.89739">
        <ele>9.09</ele>
      </trkpt>
      <trkpt lat="46.65325" lon="-1.89752">
        <ele>8.96</ele>
      </trkpt>
      <trkpt lat="46.65314" lon="-1.89759">
        <ele>8.77</ele>
      </trkpt>
      <trkpt lat="46.65301" lon="-1.89764">
        <ele>8.66</ele>
      </trkpt>
      <trkpt lat="46.65296" lon="-1.89757">
        <ele>8.83</ele>
      </trkpt>
      <trkpt lat="46.6529" lon="-1.89748">
        <ele>9.01</ele>
      </trkpt>
      <trkpt lat="46.65283" lon="-1.89738">
        <ele>9.05</ele>
      </trkpt>
      <trkpt lat="46.65275" lon="-1.89729">
        <ele>9.07</ele>
      </trkpt>
      <trkpt lat="46.65264" lon="-1.89717">
        <ele>9.06</ele>
      </trkpt>
      <trkpt lat="46.65249" lon="-1.89706">
        <ele>9</ele>
      </trkpt>
      <trkpt lat="46.65238" lon="-1.89702">
        <ele>8.98</ele>
      </trkpt>
      <trkpt lat="46.65225" lon="-1.89701">
        <ele>8.95</ele>
      </trkpt>
      <trkpt lat="46.65215" lon="-1.897">
        <ele>8.92</ele>
      </trkpt>
      <trkpt lat="46.65206" lon="-1.89706">
        <ele>8.97</ele>
      </trkpt>
      <trkpt lat="46.65196" lon="-1.89716">
        <ele>9.12</ele>
      </trkpt>
      <trkpt lat="46.65184" lon="-1.89729">
        <ele>9.4</ele>
      </trkpt>
      <trkpt lat="46.65171" lon="-1.89743">
        <ele>9.78</ele>
      </trkpt>
      <trkpt lat="46.65157" lon="-1.89757">
        <ele>10.23</ele>
      </trkpt>
      <trkpt lat="46.65147" lon="-1.8976">
        <ele>10.47</ele>
      </trkpt>
      <trkpt lat="46.65139" lon="-1.89758">
        <ele>10.67</ele>
      </trkpt>
      <trkpt lat="46.6513" lon="-1.89753">
        <ele>10.88</ele>
      </trkpt>
      <trkpt lat="46.65118" lon="-1.89745">
        <ele>11.09</ele>
      </trkpt>
      <trkpt lat="46.65104" lon="-1.89735">
        <ele>11.28</ele>
      </trkpt>
      <trkpt lat="46.65098" lon="-1.89725">
        <ele>11.3</ele>
      </trkpt>
      <trkpt lat="46.65093" lon="-1.89714">
        <ele>11.28</ele>
      </trkpt>
      <trkpt lat="46.65087" lon="-1.89705">
        <ele>11.37</ele>
      </trkpt>
      <trkpt lat="46.6508" lon="-1.897">
        <ele>11.5</ele>
      </trkpt>
      <trkpt lat="46.65071" lon="-1.89697">
        <ele>11.76</ele>
      </trkpt>
      <trkpt lat="46.65062" lon="-1.89696">
        <ele>12.03</ele>
      </trkpt>
      <trkpt lat="46.65055" lon="-1.89673">
        <ele>12.08</ele>
      </trkpt>
      <trkpt lat="46.65048" lon="-1.8966">
        <ele>12.18</ele>
      </trkpt>
      <trkpt lat="46.65041" lon="-1.89644">
        <ele>12.27</ele>
      </trkpt>
      <trkpt lat="46.65025" lon="-1.89626">
        <ele>12.6</ele>
      </trkpt>
      <trkpt lat="46.65017" lon="-1.89616">
        <ele>12.8</ele>
      </trkpt>
      <trkpt lat="46.65008" lon="-1.89602">
        <ele>12.93</ele>
      </trkpt>
      <trkpt lat="46.65002" lon="-1.89585">
        <ele>12.95</ele>
      </trkpt>
      <trkpt lat="46.64991" lon="-1.89562">
        <ele>13</ele>
      </trkpt>
      <trkpt lat="46.64979" lon="-1.8952">
        <ele>13</ele>
      </trkpt>
      <trkpt lat="46.6497" lon="-1.89476">
        <ele>13.21</ele>
      </trkpt>
      <trkpt lat="46.64951" lon="-1.89437">
        <ele>13.89</ele>
      </trkpt>
      <trkpt lat="46.64939" lon="-1.89411">
        <ele>14.58</ele>
      </trkpt>
      <trkpt lat="46.64927" lon="-1.8936">
        <ele>16.02</ele>
      </trkpt>
      <trkpt lat="46.649" lon="-1.89303">
        <ele>16.71</ele>
      </trkpt>
      <trkpt lat="46.64895" lon="-1.89311">
        <ele>16.8</ele>
      </trkpt>
      <trkpt lat="46.64887" lon="-1.89314">
        <ele>16.85</ele>
      </trkpt>
      <trkpt lat="46.64881" lon="-1.89319">
        <ele>16.9</ele>
      </trkpt>
      <trkpt lat="46.64872" lon="-1.89325">
        <ele>16.95</ele>
      </trkpt>
      <trkpt lat="46.64863" lon="-1.89328">
        <ele>16.98</ele>
      </trkpt>
      <trkpt lat="46.64853" lon="-1.89329">
        <ele>16.99</ele>
      </trkpt>
      <trkpt lat="46.64846" lon="-1.89332">
        <ele>17</ele>
      </trkpt>
      <trkpt lat="46.64842" lon="-1.89339">
        <ele>16.87</ele>
      </trkpt>
      <trkpt lat="46.64837" lon="-1.89348">
        <ele>16.64</ele>
      </trkpt>
      <trkpt lat="46.6483" lon="-1.89352">
        <ele>16.63</ele>
      </trkpt>
      <trkpt lat="46.64824" lon="-1.8936">
        <ele>16.62</ele>
      </trkpt>
      <trkpt lat="46.64816" lon="-1.89366">
        <ele>16.72</ele>
      </trkpt>
      <trkpt lat="46.64809" lon="-1.89376">
        <ele>16.69</ele>
      </trkpt>
      <trkpt lat="46.64806" lon="-1.89387">
        <ele>16.57</ele>
      </trkpt>
      <trkpt lat="46.64803" lon="-1.89398">
        <ele>16.45</ele>
      </trkpt>
      <trkpt lat="46.64799" lon="-1.89405">
        <ele>16.44</ele>
      </trkpt>
      <trkpt lat="46.64793" lon="-1.89409">
        <ele>16.58</ele>
      </trkpt>
      <trkpt lat="46.64787" lon="-1.8941">
        <ele>16.79</ele>
      </trkpt>
      <trkpt lat="46.6478" lon="-1.89414">
        <ele>16.94</ele>
      </trkpt>
      <trkpt lat="46.64782" lon="-1.89424">
        <ele>16.8</ele>
      </trkpt>
      <trkpt lat="46.64779" lon="-1.89437">
        <ele>16.78</ele>
      </trkpt>
      <trkpt lat="46.64773" lon="-1.89445">
        <ele>16.94</ele>
      </trkpt>
      <trkpt lat="46.64765" lon="-1.89447">
        <ele>17.16</ele>
      </trkpt>
      <trkpt lat="46.64756" lon="-1.89446">
        <ele>17.44</ele>
      </trkpt>
      <trkpt lat="46.64749" lon="-1.89439">
        <ele>17.73</ele>
      </trkpt>
      <trkpt lat="46.64743" lon="-1.89435">
        <ele>17.76</ele>
      </trkpt>
      <trkpt lat="46.64737" lon="-1.89434">
        <ele>17.76</ele>
      </trkpt>
      <trkpt lat="46.64728" lon="-1.89431">
        <ele>17.79</ele>
      </trkpt>
      <trkpt lat="46.64718" lon="-1.89425">
        <ele>17.87</ele>
      </trkpt>
      <trkpt lat="46.64709" lon="-1.89424">
        <ele>17.87</ele>
      </trkpt>
      <trkpt lat="46.64699" lon="-1.89422">
        <ele>17.9</ele>
      </trkpt>
      <trkpt lat="46.64688" lon="-1.8942">
        <ele>17.94</ele>
      </trkpt>
      <trkpt lat="46.64679" lon="-1.89415">
        <ele>18.02</ele>
      </trkpt>
      <trkpt lat="46.64666" lon="-1.89406">
        <ele>18.12</ele>
      </trkpt>
      <trkpt lat="46.64657" lon="-1.89403">
        <ele>18.05</ele>
      </trkpt>
      <trkpt lat="46.64649" lon="-1.89397">
        <ele>18.03</ele>
      </trkpt>
      <trkpt lat="46.64645" lon="-1.8939">
        <ele>18.06</ele>
      </trkpt>
      <trkpt lat="46.64639" lon="-1.8938">
        <ele>18.1</ele>
      </trkpt>
      <trkpt lat="46.64632" lon="-1.89368">
        <ele>18.16</ele>
      </trkpt>
      <trkpt lat="46.64624" lon="-1.89358">
        <ele>18.19</ele>
      </trkpt>
      <trkpt lat="46.64617" lon="-1.89353">
        <ele>18.16</ele>
      </trkpt>
      <trkpt lat="46.64608" lon="-1.89349">
        <ele>18.11</ele>
      </trkpt>
      <trkpt lat="46.64597" lon="-1.89347">
        <ele>18</ele>
      </trkpt>
      <trkpt lat="46.64584" lon="-1.89345">
        <ele>17.87</ele>
      </trkpt>
      <trkpt lat="46.64573" lon="-1.89342">
        <ele>17.91</ele>
      </trkpt>
      <trkpt lat="46.6457" lon="-1.89336">
        <ele>17.98</ele>
      </trkpt>
      <trkpt lat="46.64559" lon="-1.89331">
        <ele>17.98</ele>
      </trkpt>
      <trkpt lat="46.64544" lon="-1.89334">
        <ele>17.99</ele>
      </trkpt>
      <trkpt lat="46.64531" lon="-1.8934">
        <ele>17.97</ele>
      </trkpt>
      <trkpt lat="46.6452" lon="-1.89354">
        <ele>17.94</ele>
      </trkpt>
      <trkpt lat="46.64507" lon="-1.89371">
        <ele>17.96</ele>
      </trkpt>
      <trkpt lat="46.64493" lon="-1.89377">
        <ele>17.88</ele>
      </trkpt>
      <trkpt lat="46.64477" lon="-1.89378">
        <ele>17.58</ele>
      </trkpt>
      <trkpt lat="46.64463" lon="-1.89381">
        <ele>17.3</ele>
      </trkpt>
      <trkpt lat="46.6445" lon="-1.89381">
        <ele>17.05</ele>
      </trkpt>
      <trkpt lat="46.64435" lon="-1.89376">
        <ele>16.82</ele>
      </trkpt>
      <trkpt lat="46.64427" lon="-1.89374">
        <ele>16.69</ele>
      </trkpt>
      <trkpt lat="46.64417" lon="-1.89368">
        <ele>16.59</ele>
      </trkpt>
      <trkpt lat="46.64403" lon="-1.89346">
        <ele>16.69</ele>
      </trkpt>
      <trkpt lat="46.64385" lon="-1.89348">
        <ele>16.45</ele>
      </trkpt>
      <trkpt lat="46.64379" lon="-1.89353">
        <ele>16.31</ele>
      </trkpt>
      <trkpt lat="46.64374" lon="-1.89352">
        <ele>16.26</ele>
      </trkpt>
      <trkpt lat="46.6436" lon="-1.89345">
        <ele>16.19</ele>
      </trkpt>
      <trkpt lat="46.64346" lon="-1.89353">
        <ele>15.92</ele>
      </trkpt>
      <trkpt lat="46.64338" lon="-1.8936">
        <ele>15.73</ele>
      </trkpt>
      <trkpt lat="46.64303" lon="-1.8937">
        <ele>14.69</ele>
      </trkpt>
      <trkpt lat="46.64287" lon="-1.89408">
        <ele>13.47</ele>
      </trkpt>
      <trkpt lat="46.64281" lon="-1.89434">
        <ele>13.19</ele>
      </trkpt>
      <trkpt lat="46.6428" lon="-1.89467">
        <ele>13.31</ele>
      </trkpt>
      <trkpt lat="46.64271" lon="-1.89472">
        <ele>12.94</ele>
      </trkpt>
      <trkpt lat="46.64217" lon="-1.89457">
        <ele>12.02</ele>
      </trkpt>
      <trkpt lat="46.64176" lon="-1.89446">
        <ele>12.25</ele>
      </trkpt>
      <trkpt lat="46.64161" lon="-1.89439">
        <ele>12.26</ele>
      </trkpt>
      <trkpt lat="46.64143" lon="-1.89434">
        <ele>11.8</ele>
      </trkpt>
      <trkpt lat="46.64128" lon="-1.8943">
        <ele>11.36</ele>
      </trkpt>
      <trkpt lat="46.64113" lon="-1.89426">
        <ele>10.92</ele>
      </trkpt>
      <trkpt lat="46.64096" lon="-1.89419">
        <ele>10.41</ele>
      </trkpt>
      <trkpt lat="46.64084" lon="-1.89418">
        <ele>10.03</ele>
      </trkpt>
      <trkpt lat="46.6407" lon="-1.89418">
        <ele>9.52</ele>
      </trkpt>
      <trkpt lat="46.64048" lon="-1.89419">
        <ele>8.7</ele>
      </trkpt>
      <trkpt lat="46.6401" lon="-1.89426">
        <ele>7.35</ele>
      </trkpt>
      <trkpt lat="46.64002" lon="-1.8943">
        <ele>7.07</ele>
      </trkpt>
      <trkpt lat="46.6399" lon="-1.89431">
        <ele>6.7</ele>
      </trkpt>
      <trkpt lat="46.6398" lon="-1.89431">
        <ele>6.39</ele>
      </trkpt>
      <trkpt lat="46.63969" lon="-1.89429">
        <ele>6.1</ele>
      </trkpt>
      <trkpt lat="46.6396" lon="-1.89437">
        <ele>5.68</ele>
      </trkpt>
      <trkpt lat="46.6395" lon="-1.8944">
        <ele>5.29</ele>
      </trkpt>
      <trkpt lat="46.63928" lon="-1.89437">
        <ele>4.66</ele>
      </trkpt>
      <trkpt lat="46.63922" lon="-1.89432">
        <ele>4.62</ele>
      </trkpt>
      <trkpt lat="46.63914" lon="-1.89427">
        <ele>4.49</ele>
      </trkpt>
      <trkpt lat="46.63903" lon="-1.89425">
        <ele>4.11</ele>
      </trkpt>
      <trkpt lat="46.63891" lon="-1.89411">
        <ele>4.03</ele>
      </trkpt>
      <trkpt lat="46.63865" lon="-1.89376">
        <ele>4.88</ele>
      </trkpt>
      <trkpt lat="46.63857" lon="-1.89365">
        <ele>5.35</ele>
      </trkpt>
      <trkpt lat="46.63852" lon="-1.89357">
        <ele>5.71</ele>
      </trkpt>
      <trkpt lat="46.63843" lon="-1.89342">
        <ele>6.51</ele>
      </trkpt>
      <trkpt lat="46.63835" lon="-1.8933">
        <ele>7.06</ele>
      </trkpt>
      <trkpt lat="46.63828" lon="-1.89319">
        <ele>6.83</ele>
      </trkpt>
      <trkpt lat="46.63816" lon="-1.89304">
        <ele>6.49</ele>
      </trkpt>
      <trkpt lat="46.63806" lon="-1.89288">
        <ele>6.46</ele>
      </trkpt>
      <trkpt lat="46.63796" lon="-1.89274">
        <ele>6.63</ele>
      </trkpt>
      <trkpt lat="46.63795" lon="-1.89264">
        <ele>6.98</ele>
      </trkpt>
      <trkpt lat="46.63791" lon="-1.89254">
        <ele>7.33</ele>
      </trkpt>
      <trkpt lat="46.63784" lon="-1.89245">
        <ele>7.57</ele>
      </trkpt>
      <trkpt lat="46.63774" lon="-1.89236">
        <ele>7.78</ele>
      </trkpt>
      <trkpt lat="46.63765" lon="-1.89229">
        <ele>7.94</ele>
      </trkpt>
      <trkpt lat="46.63751" lon="-1.89219">
        <ele>8.13</ele>
      </trkpt>
      <trkpt lat="46.63731" lon="-1.89205">
        <ele>8.06</ele>
      </trkpt>
      <trkpt lat="46.63713" lon="-1.89192">
        <ele>8.06</ele>
      </trkpt>
      <trkpt lat="46.63691" lon="-1.89179">
        <ele>8.05</ele>
      </trkpt>
      <trkpt lat="46.63674" lon="-1.89166">
        <ele>8.2</ele>
      </trkpt>
      <trkpt lat="46.63669" lon="-1.89161">
        <ele>8.32</ele>
      </trkpt>
      <trkpt lat="46.63663" lon="-1.8916">
        <ele>8.14</ele>
      </trkpt>
      <trkpt lat="46.63658" lon="-1.89161">
        <ele>7.75</ele>
      </trkpt>
      <trkpt lat="46.63652" lon="-1.89163">
        <ele>7.31</ele>
      </trkpt>
      <trkpt lat="46.63639" lon="-1.89154">
        <ele>7.03</ele>
      </trkpt>
      <trkpt lat="46.63621" lon="-1.89139">
        <ele>6.96</ele>
      </trkpt>
      <trkpt lat="46.6361" lon="-1.89125">
        <ele>7.24</ele>
      </trkpt>
      <trkpt lat="46.63599" lon="-1.89116">
        <ele>7.34</ele>
      </trkpt>
      <trkpt lat="46.6359" lon="-1.89107">
        <ele>7.58</ele>
      </trkpt>
      <trkpt lat="46.63583" lon="-1.89098">
        <ele>7.97</ele>
      </trkpt>
      <trkpt lat="46.63575" lon="-1.89091">
        <ele>7.82</ele>
      </trkpt>
      <trkpt lat="46.63564" lon="-1.89081">
        <ele>7.44</ele>
      </trkpt>
      <trkpt lat="46.63549" lon="-1.89073">
        <ele>6.47</ele>
      </trkpt>
      <trkpt lat="46.63537" lon="-1.89061">
        <ele>5.97</ele>
      </trkpt>
      <trkpt lat="46.63529" lon="-1.89052">
        <ele>5.68</ele>
      </trkpt>
      <trkpt lat="46.63521" lon="-1.89036">
        <ele>5.76</ele>
      </trkpt>
      <trkpt lat="46.63515" lon="-1.89018">
        <ele>6.1</ele>
      </trkpt>
      <trkpt lat="46.63505" lon="-1.88996">
        <ele>6.52</ele>
      </trkpt>
      <trkpt lat="46.63494" lon="-1.8897">
        <ele>6.95</ele>
      </trkpt>
      <trkpt lat="46.63485" lon="-1.88949">
        <ele>7.12</ele>
      </trkpt>
      <trkpt lat="46.63461" lon="-1.88893">
        <ele>7.23</ele>
      </trkpt>
      <trkpt lat="46.63456" lon="-1.88881">
        <ele>7.21</ele>
      </trkpt>
      <trkpt lat="46.63452" lon="-1.88871">
        <ele>7.27</ele>
      </trkpt>
      <trkpt lat="46.63446" lon="-1.88856">
        <ele>7.3</ele>
      </trkpt>
      <trkpt lat="46.63441" lon="-1.88844">
        <ele>7.18</ele>
      </trkpt>
      <trkpt lat="46.63436" lon="-1.88831">
        <ele>7.14</ele>
      </trkpt>
      <trkpt lat="46.63423" lon="-1.88804">
        <ele>6.71</ele>
      </trkpt>
      <trkpt lat="46.63417" lon="-1.88785">
        <ele>6.72</ele>
      </trkpt>
      <trkpt lat="46.63405" lon="-1.8876">
        <ele>6.84</ele>
      </trkpt>
      <trkpt lat="46.63387" lon="-1.88741">
        <ele>6.48</ele>
      </trkpt>
      <trkpt lat="46.63379" lon="-1.88732">
        <ele>6.51</ele>
      </trkpt>
      <trkpt lat="46.63364" lon="-1.88718">
        <ele>6.4</ele>
      </trkpt>
      <trkpt lat="46.6335" lon="-1.88706">
        <ele>6.29</ele>
      </trkpt>
      <trkpt lat="46.63339" lon="-1.887">
        <ele>5.98</ele>
      </trkpt>
      <trkpt lat="46.63332" lon="-1.88693">
        <ele>6.06</ele>
      </trkpt>
      <trkpt lat="46.63322" lon="-1.88681">
        <ele>5.99</ele>
      </trkpt>
      <trkpt lat="46.6331" lon="-1.88667">
        <ele>5.73</ele>
      </trkpt>
      <trkpt lat="46.63304" lon="-1.88657">
        <ele>5.53</ele>
      </trkpt>
      <trkpt lat="46.63291" lon="-1.88631">
        <ele>5.24</ele>
      </trkpt>
      <trkpt lat="46.63279" lon="-1.88605">
        <ele>5.2</ele>
      </trkpt>
      <trkpt lat="46.63266" lon="-1.8858">
        <ele>5.25</ele>
      </trkpt>
      <trkpt lat="46.6326" lon="-1.88569">
        <ele>5.32</ele>
      </trkpt>
      <trkpt lat="46.63255" lon="-1.88561">
        <ele>5.38</ele>
      </trkpt>
      <trkpt lat="46.63247" lon="-1.88555">
        <ele>5.22</ele>
      </trkpt>
      <trkpt lat="46.63241" lon="-1.88547">
        <ele>5.12</ele>
      </trkpt>
      <trkpt lat="46.63236" lon="-1.88544">
        <ele>4.89</ele>
      </trkpt>
      <trkpt lat="46.63228" lon="-1.88537">
        <ele>4.62</ele>
      </trkpt>
      <trkpt lat="46.63222" lon="-1.88526">
        <ele>4.49</ele>
      </trkpt>
      <trkpt lat="46.63218" lon="-1.88516">
        <ele>4.47</ele>
      </trkpt>
      <trkpt lat="46.63214" lon="-1.88504">
        <ele>4.47</ele>
      </trkpt>
      <trkpt lat="46.63209" lon="-1.88491">
        <ele>4.47</ele>
      </trkpt>
      <trkpt lat="46.63202" lon="-1.88479">
        <ele>4.29</ele>
      </trkpt>
      <trkpt lat="46.63196" lon="-1.8847">
        <ele>4.08</ele>
      </trkpt>
      <trkpt lat="46.6319" lon="-1.88458">
        <ele>4.09</ele>
      </trkpt>
      <trkpt lat="46.6318" lon="-1.88441">
        <ele>4</ele>
      </trkpt>
      <trkpt lat="46.63175" lon="-1.8843">
        <ele>4.07</ele>
      </trkpt>
      <trkpt lat="46.63169" lon="-1.88419">
        <ele>4.12</ele>
      </trkpt>
      <trkpt lat="46.63167" lon="-1.88405">
        <ele>4.13</ele>
      </trkpt>
      <trkpt lat="46.63166" lon="-1.88391">
        <ele>4.28</ele>
      </trkpt>
      <trkpt lat="46.63167" lon="-1.88377">
        <ele>4.51</ele>
      </trkpt>
      <trkpt lat="46.63168" lon="-1.88362">
        <ele>4.73</ele>
      </trkpt>
      <trkpt lat="46.63169" lon="-1.88349">
        <ele>5.02</ele>
      </trkpt>
      <trkpt lat="46.6317" lon="-1.88338">
        <ele>5.17</ele>
      </trkpt>
      <trkpt lat="46.63171" lon="-1.88324">
        <ele>5.48</ele>
      </trkpt>
      <trkpt lat="46.63169" lon="-1.88314">
        <ele>5.61</ele>
      </trkpt>
      <trkpt lat="46.63165" lon="-1.88303">
        <ele>5.62</ele>
      </trkpt>
      <trkpt lat="46.63167" lon="-1.8829">
        <ele>6.04</ele>
      </trkpt>
      <trkpt lat="46.6317" lon="-1.8828">
        <ele>6.45</ele>
      </trkpt>
      <trkpt lat="46.63167" lon="-1.88266">
        <ele>6.65</ele>
      </trkpt>
      <trkpt lat="46.63164" lon="-1.88249">
        <ele>6.78</ele>
      </trkpt>
      <trkpt lat="46.63161" lon="-1.88232">
        <ele>7.11</ele>
      </trkpt>
      <trkpt lat="46.63159" lon="-1.88219">
        <ele>7.37</ele>
      </trkpt>
      <trkpt lat="46.63154" lon="-1.88216">
        <ele>6.95</ele>
      </trkpt>
      <trkpt lat="46.63149" lon="-1.88214">
        <ele>6.47</ele>
      </trkpt>
      <trkpt lat="46.63142" lon="-1.88209">
        <ele>5.95</ele>
      </trkpt>
      <trkpt lat="46.63138" lon="-1.88199">
        <ele>5.9</ele>
      </trkpt>
      <trkpt lat="46.63137" lon="-1.88187">
        <ele>6.18</ele>
      </trkpt>
      <trkpt lat="46.63139" lon="-1.88177">
        <ele>6.68</ele>
      </trkpt>
      <trkpt lat="46.63138" lon="-1.88167">
        <ele>6.93</ele>
      </trkpt>
      <trkpt lat="46.63136" lon="-1.88154">
        <ele>7.18</ele>
      </trkpt>
      <trkpt lat="46.63132" lon="-1.88141">
        <ele>7.28</ele>
      </trkpt>
      <trkpt lat="46.63127" lon="-1.88128">
        <ele>7.29</ele>
      </trkpt>
      <trkpt lat="46.63126" lon="-1.88112">
        <ele>7.92</ele>
      </trkpt>
      <trkpt lat="46.63126" lon="-1.88102">
        <ele>8.27</ele>
      </trkpt>
      <trkpt lat="46.63124" lon="-1.88094">
        <ele>8.46</ele>
      </trkpt>
      <trkpt lat="46.6312" lon="-1.88085">
        <ele>8.58</ele>
      </trkpt>
      <trkpt lat="46.63114" lon="-1.88075">
        <ele>8.7</ele>
      </trkpt>
      <trkpt lat="46.63108" lon="-1.88065">
        <ele>8.99</ele>
      </trkpt>
      <trkpt lat="46.63102" lon="-1.88057">
        <ele>9.2</ele>
      </trkpt>
      <trkpt lat="46.63093" lon="-1.88047">
        <ele>9.54</ele>
      </trkpt>
      <trkpt lat="46.63078" lon="-1.88029">
        <ele>10.03</ele>
      </trkpt>
      <trkpt lat="46.63067" lon="-1.88014">
        <ele>9.88</ele>
      </trkpt>
      <trkpt lat="46.63058" lon="-1.88">
        <ele>9.6</ele>
      </trkpt>
      <trkpt lat="46.63052" lon="-1.87992">
        <ele>9.2</ele>
      </trkpt>
      <trkpt lat="46.63049" lon="-1.8798">
        <ele>9.24</ele>
      </trkpt>
      <trkpt lat="46.63047" lon="-1.8797">
        <ele>9.24</ele>
      </trkpt>
      <trkpt lat="46.63043" lon="-1.87964">
        <ele>9.02</ele>
      </trkpt>
      <trkpt lat="46.63039" lon="-1.8796">
        <ele>8.64</ele>
      </trkpt>
      <trkpt lat="46.63036" lon="-1.87953">
        <ele>8.5</ele>
      </trkpt>
      <trkpt lat="46.63031" lon="-1.87934">
        <ele>8.54</ele>
      </trkpt>
      <trkpt lat="46.63024" lon="-1.87908">
        <ele>8.48</ele>
      </trkpt>
      <trkpt lat="46.63017" lon="-1.87883">
        <ele>8.5</ele>
      </trkpt>
      <trkpt lat="46.63011" lon="-1.8787">
        <ele>8.43</ele>
      </trkpt>
      <trkpt lat="46.63008" lon="-1.87857">
        <ele>8.67</ele>
      </trkpt>
      <trkpt lat="46.63007" lon="-1.87846">
        <ele>9.03</ele>
      </trkpt>
      <trkpt lat="46.63007" lon="-1.87836">
        <ele>9.47</ele>
      </trkpt>
      <trkpt lat="46.63005" lon="-1.87826">
        <ele>9.61</ele>
      </trkpt>
      <trkpt lat="46.63001" lon="-1.87813">
        <ele>9.61</ele>
      </trkpt>
      <trkpt lat="46.62997" lon="-1.87799">
        <ele>9.51</ele>
      </trkpt>
      <trkpt lat="46.6299" lon="-1.87783">
        <ele>9.23</ele>
      </trkpt>
      <trkpt lat="46.6298" lon="-1.87761">
        <ele>8.81</ele>
      </trkpt>
      <trkpt lat="46.6297" lon="-1.87741">
        <ele>8.55</ele>
      </trkpt>
      <trkpt lat="46.62958" lon="-1.8772">
        <ele>8.61</ele>
      </trkpt>
      <trkpt lat="46.62951" lon="-1.8771">
        <ele>8.53</ele>
      </trkpt>
      <trkpt lat="46.62942" lon="-1.8771">
        <ele>7.88</ele>
      </trkpt>
      <trkpt lat="46.62935" lon="-1.87709">
        <ele>7.41</ele>
      </trkpt>
      <trkpt lat="46.6293" lon="-1.87703">
        <ele>7.35</ele>
      </trkpt>
      <trkpt lat="46.62923" lon="-1.87698">
        <ele>7.24</ele>
      </trkpt>
      <trkpt lat="46.62918" lon="-1.87691">
        <ele>7.34</ele>
      </trkpt>
      <trkpt lat="46.62909" lon="-1.87679">
        <ele>7.37</ele>
      </trkpt>
      <trkpt lat="46.62903" lon="-1.87668">
        <ele>7.46</ele>
      </trkpt>
      <trkpt lat="46.62891" lon="-1.87647">
        <ele>6.6</ele>
      </trkpt>
      <trkpt lat="46.62885" lon="-1.87635">
        <ele>6.3</ele>
      </trkpt>
      <trkpt lat="46.62881" lon="-1.87624">
        <ele>6.27</ele>
      </trkpt>
      <trkpt lat="46.62883" lon="-1.87612">
        <ele>6.68</ele>
      </trkpt>
      <trkpt lat="46.62889" lon="-1.87604">
        <ele>7.23</ele>
      </trkpt>
      <trkpt lat="46.62891" lon="-1.87594">
        <ele>7.55</ele>
      </trkpt>
      <trkpt lat="46.62884" lon="-1.8758">
        <ele>7.52</ele>
      </trkpt>
      <trkpt lat="46.62876" lon="-1.87565">
        <ele>7.7</ele>
      </trkpt>
      <trkpt lat="46.62866" lon="-1.87547">
        <ele>7.98</ele>
      </trkpt>
      <trkpt lat="46.62857" lon="-1.8753">
        <ele>8.31</ele>
      </trkpt>
      <trkpt lat="46.62847" lon="-1.87514">
        <ele>8.71</ele>
      </trkpt>
      <trkpt lat="46.62839" lon="-1.87505">
        <ele>8.92</ele>
      </trkpt>
      <trkpt lat="46.62829" lon="-1.87496">
        <ele>8.99</ele>
      </trkpt>
      <trkpt lat="46.62819" lon="-1.87489">
        <ele>8.96</ele>
      </trkpt>
      <trkpt lat="46.62803" lon="-1.87479">
        <ele>8.88</ele>
      </trkpt>
      <trkpt lat="46.62765" lon="-1.87457">
        <ele>8.69</ele>
      </trkpt>
      <trkpt lat="46.62742" lon="-1.87443">
        <ele>8.43</ele>
      </trkpt>
      <trkpt lat="46.62732" lon="-1.87438">
        <ele>8.19</ele>
      </trkpt>
      <trkpt lat="46.62723" lon="-1.87432">
        <ele>8.06</ele>
      </trkpt>
      <trkpt lat="46.62716" lon="-1.87425">
        <ele>8</ele>
      </trkpt>
      <trkpt lat="46.62709" lon="-1.87417">
        <ele>8</ele>
      </trkpt>
      <trkpt lat="46.627" lon="-1.87406">
        <ele>7.73</ele>
      </trkpt>
      <trkpt lat="46.62692" lon="-1.87392">
        <ele>7.41</ele>
      </trkpt>
      <trkpt lat="46.62687" lon="-1.87387">
        <ele>7.21</ele>
      </trkpt>
      <trkpt lat="46.62679" lon="-1.87378">
        <ele>6.89</ele>
      </trkpt>
      <trkpt lat="46.62672" lon="-1.87369">
        <ele>6.59</ele>
      </trkpt>
      <trkpt lat="46.62662" lon="-1.87367">
        <ele>6.46</ele>
      </trkpt>
      <trkpt lat="46.62654" lon="-1.87363">
        <ele>6.54</ele>
      </trkpt>
      <trkpt lat="46.62629" lon="-1.87357">
        <ele>6.92</ele>
      </trkpt>
      <trkpt lat="46.62623" lon="-1.87361">
        <ele>7.02</ele>
      </trkpt>
      <trkpt lat="46.62615" lon="-1.87359">
        <ele>7.16</ele>
      </trkpt>
      <trkpt lat="46.6261" lon="-1.8736">
        <ele>7.25</ele>
      </trkpt>
      <trkpt lat="46.62603" lon="-1.87362">
        <ele>7.34</ele>
      </trkpt>
      <trkpt lat="46.62598" lon="-1.87365">
        <ele>7.4</ele>
      </trkpt>
      <trkpt lat="46.62592" lon="-1.87365">
        <ele>7.48</ele>
      </trkpt>
      <trkpt lat="46.62586" lon="-1.87369">
        <ele>7.54</ele>
      </trkpt>
      <trkpt lat="46.62576" lon="-1.87369">
        <ele>7.52</ele>
      </trkpt>
      <trkpt lat="46.62565" lon="-1.87372">
        <ele>7.42</ele>
      </trkpt>
      <trkpt lat="46.62553" lon="-1.87374">
        <ele>7.33</ele>
      </trkpt>
      <trkpt lat="46.62544" lon="-1.87373">
        <ele>7.27</ele>
      </trkpt>
      <trkpt lat="46.62533" lon="-1.87371">
        <ele>7.21</ele>
      </trkpt>
      <trkpt lat="46.62521" lon="-1.87368">
        <ele>7.14</ele>
      </trkpt>
      <trkpt lat="46.62511" lon="-1.87367">
        <ele>7.08</ele>
      </trkpt>
      <trkpt lat="46.62502" lon="-1.87366">
        <ele>7.01</ele>
      </trkpt>
      <trkpt lat="46.62493" lon="-1.87366">
        <ele>6.98</ele>
      </trkpt>
      <trkpt lat="46.62484" lon="-1.87368">
        <ele>6.95</ele>
      </trkpt>
      <trkpt lat="46.62473" lon="-1.87368">
        <ele>6.92</ele>
      </trkpt>
      <trkpt lat="46.62461" lon="-1.8737">
        <ele>6.85</ele>
      </trkpt>
      <trkpt lat="46.62453" lon="-1.8737">
        <ele>6.81</ele>
      </trkpt>
      <trkpt lat="46.62445" lon="-1.8737">
        <ele>6.79</ele>
      </trkpt>
      <trkpt lat="46.62433" lon="-1.87367">
        <ele>6.83</ele>
      </trkpt>
      <trkpt lat="46.62424" lon="-1.87364">
        <ele>6.9</ele>
      </trkpt>
      <trkpt lat="46.62413" lon="-1.87361">
        <ele>6.92</ele>
      </trkpt>
      <trkpt lat="46.62398" lon="-1.87357">
        <ele>6.81</ele>
      </trkpt>
      <trkpt lat="46.6239" lon="-1.87351">
        <ele>7.01</ele>
      </trkpt>
      <trkpt lat="46.62378" lon="-1.87347">
        <ele>7.09</ele>
      </trkpt>
      <trkpt lat="46.6237" lon="-1.87345">
        <ele>7.2</ele>
      </trkpt>
      <trkpt lat="46.6236" lon="-1.87341">
        <ele>7.41</ele>
      </trkpt>
      <trkpt lat="46.62348" lon="-1.87335">
        <ele>7.87</ele>
      </trkpt>
      <trkpt lat="46.62333" lon="-1.87329">
        <ele>8.01</ele>
      </trkpt>
      <trkpt lat="46.62317" lon="-1.87321">
        <ele>6.78</ele>
      </trkpt>
      <trkpt lat="46.62302" lon="-1.87314">
        <ele>5.81</ele>
      </trkpt>
      <trkpt lat="46.6229" lon="-1.87308">
        <ele>5.28</ele>
      </trkpt>
      <trkpt lat="46.62282" lon="-1.87303">
        <ele>4.99</ele>
      </trkpt>
      <trkpt lat="46.62269" lon="-1.87294">
        <ele>4.84</ele>
      </trkpt>
      <trkpt lat="46.62258" lon="-1.87285">
        <ele>4.98</ele>
      </trkpt>
      <trkpt lat="46.62248" lon="-1.87281">
        <ele>5.07</ele>
      </trkpt>
      <trkpt lat="46.62239" lon="-1.87276">
        <ele>5.5</ele>
      </trkpt>
      <trkpt lat="46.62226" lon="-1.87266">
        <ele>6.48</ele>
      </trkpt>
      <trkpt lat="46.62218" lon="-1.87259">
        <ele>7.15</ele>
      </trkpt>
      <trkpt lat="46.6221" lon="-1.87253">
        <ele>7.72</ele>
      </trkpt>
      <trkpt lat="46.62201" lon="-1.87247">
        <ele>8.02</ele>
      </trkpt>
      <trkpt lat="46.62191" lon="-1.87241">
        <ele>8.08</ele>
      </trkpt>
      <trkpt lat="46.62184" lon="-1.87237">
        <ele>8.12</ele>
      </trkpt>
      <trkpt lat="46.62179" lon="-1.87232">
        <ele>8.19</ele>
      </trkpt>
      <trkpt lat="46.62169" lon="-1.87229">
        <ele>8.24</ele>
      </trkpt>
      <trkpt lat="46.62157" lon="-1.87225">
        <ele>8.08</ele>
      </trkpt>
      <trkpt lat="46.62144" lon="-1.87215">
        <ele>7.88</ele>
      </trkpt>
      <trkpt lat="46.62134" lon="-1.87216">
        <ele>7.62</ele>
      </trkpt>
      <trkpt lat="46.62123" lon="-1.87216">
        <ele>7.36</ele>
      </trkpt>
      <trkpt lat="46.6211" lon="-1.87221">
        <ele>6.99</ele>
      </trkpt>
      <trkpt lat="46.621" lon="-1.87226">
        <ele>6.69</ele>
      </trkpt>
      <trkpt lat="46.62089" lon="-1.87232">
        <ele>6.35</ele>
      </trkpt>
      <trkpt lat="46.62077" lon="-1.87235">
        <ele>6.14</ele>
      </trkpt>
      <trkpt lat="46.62069" lon="-1.87241">
        <ele>6</ele>
      </trkpt>
      <trkpt lat="46.62059" lon="-1.87245">
        <ele>5.83</ele>
      </trkpt>
      <trkpt lat="46.62047" lon="-1.87247">
        <ele>5.64</ele>
      </trkpt>
      <trkpt lat="46.62039" lon="-1.87245">
        <ele>5.61</ele>
      </trkpt>
      <trkpt lat="46.62032" lon="-1.87242">
        <ele>5.64</ele>
      </trkpt>
      <trkpt lat="46.6202" lon="-1.87237">
        <ele>5.75</ele>
      </trkpt>
      <trkpt lat="46.62009" lon="-1.8723">
        <ele>5.97</ele>
      </trkpt>
      <trkpt lat="46.62" lon="-1.87228">
        <ele>6.07</ele>
      </trkpt>
      <trkpt lat="46.61994" lon="-1.87224">
        <ele>6.02</ele>
      </trkpt>
      <trkpt lat="46.6198" lon="-1.87217">
        <ele>5.84</ele>
      </trkpt>
      <trkpt lat="46.61972" lon="-1.87211">
        <ele>5.82</ele>
      </trkpt>
      <trkpt lat="46.61958" lon="-1.87202">
        <ele>5.86</ele>
      </trkpt>
      <trkpt lat="46.61949" lon="-1.87198">
        <ele>5.83</ele>
      </trkpt>
      <trkpt lat="46.61932" lon="-1.87188">
        <ele>5.96</ele>
      </trkpt>
      <trkpt lat="46.61923" lon="-1.87183">
        <ele>6</ele>
      </trkpt>
      <trkpt lat="46.61913" lon="-1.87176">
        <ele>6.12</ele>
      </trkpt>
      <trkpt lat="46.61907" lon="-1.8717">
        <ele>6.34</ele>
      </trkpt>
      <trkpt lat="46.619" lon="-1.87169">
        <ele>6.03</ele>
      </trkpt>
      <trkpt lat="46.61895" lon="-1.87169">
        <ele>5.83</ele>
      </trkpt>
      <trkpt lat="46.61885" lon="-1.87162">
        <ele>5.63</ele>
      </trkpt>
      <trkpt lat="46.61877" lon="-1.87154">
        <ele>5.45</ele>
      </trkpt>
      <trkpt lat="46.61869" lon="-1.87149">
        <ele>5.29</ele>
      </trkpt>
      <trkpt lat="46.61862" lon="-1.87142">
        <ele>5.25</ele>
      </trkpt>
      <trkpt lat="46.61856" lon="-1.87132">
        <ele>5.4</ele>
      </trkpt>
      <trkpt lat="46.61851" lon="-1.87121">
        <ele>5.7</ele>
      </trkpt>
      <trkpt lat="46.61847" lon="-1.87111">
        <ele>6.01</ele>
      </trkpt>
      <trkpt lat="46.6184" lon="-1.87102">
        <ele>6.23</ele>
      </trkpt>
      <trkpt lat="46.61833" lon="-1.87095">
        <ele>6.43</ele>
      </trkpt>
      <trkpt lat="46.61827" lon="-1.87094">
        <ele>6.21</ele>
      </trkpt>
      <trkpt lat="46.61819" lon="-1.87096">
        <ele>5.77</ele>
      </trkpt>
      <trkpt lat="46.6181" lon="-1.87097">
        <ele>5.32</ele>
      </trkpt>
      <trkpt lat="46.61794" lon="-1.87083">
        <ele>5.13</ele>
      </trkpt>
      <trkpt lat="46.61782" lon="-1.87071">
        <ele>5.19</ele>
      </trkpt>
      <trkpt lat="46.61769" lon="-1.87057">
        <ele>5.37</ele>
      </trkpt>
      <trkpt lat="46.61755" lon="-1.87043">
        <ele>5.6</ele>
      </trkpt>
      <trkpt lat="46.61744" lon="-1.87029">
        <ele>5.86</ele>
      </trkpt>
      <trkpt lat="46.61742" lon="-1.87016">
        <ele>6.44</ele>
      </trkpt>
      <trkpt lat="46.61725" lon="-1.86993">
        <ele>6.01</ele>
      </trkpt>
      <trkpt lat="46.61716" lon="-1.86986">
        <ele>5.45</ele>
      </trkpt>
      <trkpt lat="46.61707" lon="-1.86976">
        <ele>4.94</ele>
      </trkpt>
      <trkpt lat="46.61698" lon="-1.86967">
        <ele>4.55</ele>
      </trkpt>
      <trkpt lat="46.61691" lon="-1.86958">
        <ele>4.3</ele>
      </trkpt>
      <trkpt lat="46.61686" lon="-1.86949">
        <ele>4.19</ele>
      </trkpt>
      <trkpt lat="46.6168" lon="-1.86938">
        <ele>4.09</ele>
      </trkpt>
      <trkpt lat="46.61676" lon="-1.86929">
        <ele>4.17</ele>
      </trkpt>
      <trkpt lat="46.61675" lon="-1.8692">
        <ele>4.38</ele>
      </trkpt>
      <trkpt lat="46.6167" lon="-1.86908">
        <ele>4.31</ele>
      </trkpt>
      <trkpt lat="46.61665" lon="-1.86899">
        <ele>4.11</ele>
      </trkpt>
      <trkpt lat="46.6166" lon="-1.8689">
        <ele>3.91</ele>
      </trkpt>
      <trkpt lat="46.61656" lon="-1.86877">
        <ele>3.83</ele>
      </trkpt>
      <trkpt lat="46.61654" lon="-1.86866">
        <ele>3.87</ele>
      </trkpt>
      <trkpt lat="46.61651" lon="-1.86852">
        <ele>3.82</ele>
      </trkpt>
      <trkpt lat="46.61646" lon="-1.86831">
        <ele>3.76</ele>
      </trkpt>
      <trkpt lat="46.61644" lon="-1.86818">
        <ele>3.74</ele>
      </trkpt>
      <trkpt lat="46.61641" lon="-1.86798">
        <ele>3.72</ele>
      </trkpt>
      <trkpt lat="46.61638" lon="-1.86779">
        <ele>3.68</ele>
      </trkpt>
      <trkpt lat="46.61635" lon="-1.86765">
        <ele>3.63</ele>
      </trkpt>
      <trkpt lat="46.61631" lon="-1.86743">
        <ele>3.45</ele>
      </trkpt>
      <trkpt lat="46.61628" lon="-1.86718">
        <ele>3.38</ele>
      </trkpt>
      <trkpt lat="46.61625" lon="-1.86703">
        <ele>3.31</ele>
      </trkpt>
      <trkpt lat="46.6162" lon="-1.8669">
        <ele>2.97</ele>
      </trkpt>
      <trkpt lat="46.61616" lon="-1.86681">
        <ele>2.72</ele>
      </trkpt>
      <trkpt lat="46.61613" lon="-1.86674">
        <ele>2.49</ele>
      </trkpt>
      <trkpt lat="46.61612" lon="-1.86667">
        <ele>2.41</ele>
      </trkpt>
      <trkpt lat="46.61611" lon="-1.86656">
        <ele>2.54</ele>
      </trkpt>
      <trkpt lat="46.61609" lon="-1.86643">
        <ele>2.67</ele>
      </trkpt>
      <trkpt lat="46.61609" lon="-1.8663">
        <ele>2.92</ele>
      </trkpt>
      <trkpt lat="46.61611" lon="-1.86618">
        <ele>3.3</ele>
      </trkpt>
      <trkpt lat="46.61613" lon="-1.86606">
        <ele>3.67</ele>
      </trkpt>
      <trkpt lat="46.61614" lon="-1.86591">
        <ele>4.04</ele>
      </trkpt>
      <trkpt lat="46.61615" lon="-1.86578">
        <ele>4.42</ele>
      </trkpt>
      <trkpt lat="46.61616" lon="-1.86561">
        <ele>4.82</ele>
      </trkpt>
      <trkpt lat="46.61616" lon="-1.86548">
        <ele>5.11</ele>
      </trkpt>
      <trkpt lat="46.61615" lon="-1.86535">
        <ele>5.34</ele>
      </trkpt>
      <trkpt lat="46.61612" lon="-1.8652">
        <ele>5.55</ele>
      </trkpt>
      <trkpt lat="46.61605" lon="-1.86487">
        <ele>5.82</ele>
      </trkpt>
      <trkpt lat="46.6161" lon="-1.86478">
        <ele>6.03</ele>
      </trkpt>
      <trkpt lat="46.61618" lon="-1.8647">
        <ele>6.41</ele>
      </trkpt>
      <trkpt lat="46.61625" lon="-1.86463">
        <ele>6.7</ele>
      </trkpt>
      <trkpt lat="46.61631" lon="-1.86457">
        <ele>7.03</ele>
      </trkpt>
      <trkpt lat="46.61635" lon="-1.86448">
        <ele>7.24</ele>
      </trkpt>
      <trkpt lat="46.61625" lon="-1.86441">
        <ele>6.86</ele>
      </trkpt>
      <trkpt lat="46.6162" lon="-1.86445">
        <ele>6.59</ele>
      </trkpt>
      <trkpt lat="46.61612" lon="-1.86448">
        <ele>6.24</ele>
      </trkpt>
      <trkpt lat="46.61604" lon="-1.86446">
        <ele>5.9</ele>
      </trkpt>
      <trkpt lat="46.61596" lon="-1.86422">
        <ele>5.62</ele>
      </trkpt>
      <trkpt lat="46.61585" lon="-1.86382">
        <ele>5.5</ele>
      </trkpt>
      <trkpt lat="46.61638" lon="-1.86342">
        <ele>7.36</ele>
      </trkpt>
      <trkpt lat="46.61634" lon="-1.86326">
        <ele>7.23</ele>
      </trkpt>
      <trkpt lat="46.61623" lon="-1.86294">
        <ele>7.22</ele>
      </trkpt>
      <trkpt lat="46.61622" lon="-1.86284">
        <ele>7.29</ele>
      </trkpt>
      <trkpt lat="46.61618" lon="-1.86277">
        <ele>7.34</ele>
      </trkpt>
      <trkpt lat="46.61612" lon="-1.86272">
        <ele>7.4</ele>
      </trkpt>
      <trkpt lat="46.61609" lon="-1.8625">
        <ele>7.69</ele>
      </trkpt>
      <trkpt lat="46.6161" lon="-1.86232">
        <ele>7.54</ele>
      </trkpt>
      <trkpt lat="46.61605" lon="-1.86214">
        <ele>7.42</ele>
      </trkpt>
      <trkpt lat="46.61595" lon="-1.86197">
        <ele>7.32</ele>
      </trkpt>
      <trkpt lat="46.61589" lon="-1.86191">
        <ele>7.27</ele>
      </trkpt>
      <trkpt lat="46.6158" lon="-1.86187">
        <ele>7.28</ele>
      </trkpt>
      <trkpt lat="46.61574" lon="-1.86192">
        <ele>7.38</ele>
      </trkpt>
      <trkpt lat="46.61567" lon="-1.86195">
        <ele>7.46</ele>
      </trkpt>
      <trkpt lat="46.61562" lon="-1.86199">
        <ele>7.55</ele>
      </trkpt>
      <trkpt lat="46.61556" lon="-1.862">
        <ele>7.6</ele>
      </trkpt>
      <trkpt lat="46.61549" lon="-1.86195">
        <ele>7.61</ele>
      </trkpt>
      <trkpt lat="46.61543" lon="-1.86188">
        <ele>7.61</ele>
      </trkpt>
      <trkpt lat="46.6154" lon="-1.86177">
        <ele>7.58</ele>
      </trkpt>
      <trkpt lat="46.61536" lon="-1.86168">
        <ele>7.57</ele>
      </trkpt>
      <trkpt lat="46.61529" lon="-1.8616">
        <ele>7.39</ele>
      </trkpt>
      <trkpt lat="46.6152" lon="-1.86158">
        <ele>7.38</ele>
      </trkpt>
      <trkpt lat="46.61514" lon="-1.86159">
        <ele>7.5</ele>
      </trkpt>
      <trkpt lat="46.61507" lon="-1.86163">
        <ele>7.76</ele>
      </trkpt>
      <trkpt lat="46.61502" lon="-1.86166">
        <ele>7.95</ele>
      </trkpt>
      <trkpt lat="46.61495" lon="-1.86172">
        <ele>8</ele>
      </trkpt>
      <trkpt lat="46.61487" lon="-1.86175">
        <ele>7.98</ele>
      </trkpt>
      <trkpt lat="46.61482" lon="-1.86171">
        <ele>7.99</ele>
      </trkpt>
      <trkpt lat="46.61478" lon="-1.86163">
        <ele>7.82</ele>
      </trkpt>
      <trkpt lat="46.61475" lon="-1.8615">
        <ele>7.25</ele>
      </trkpt>
      <trkpt lat="46.6147" lon="-1.86132">
        <ele>6.5</ele>
      </trkpt>
      <trkpt lat="46.61467" lon="-1.86119">
        <ele>5.92</ele>
      </trkpt>
      <trkpt lat="46.6146" lon="-1.86092">
        <ele>4.83</ele>
      </trkpt>
      <trkpt lat="46.61452" lon="-1.86063">
        <ele>4.34</ele>
      </trkpt>
      <trkpt lat="46.61444" lon="-1.86004">
        <ele>3.73</ele>
      </trkpt>
      <trkpt lat="46.6144" lon="-1.86002">
        <ele>3.74</ele>
      </trkpt>
      <trkpt lat="46.6144" lon="-1.8599">
        <ele>3.95</ele>
      </trkpt>
      <trkpt lat="46.61432" lon="-1.85914">
        <ele>5.88</ele>
      </trkpt>
      <trkpt lat="46.61426" lon="-1.85864">
        <ele>7.15</ele>
      </trkpt>
      <trkpt lat="46.61421" lon="-1.85863">
        <ele>7.23</ele>
      </trkpt>
      <trkpt lat="46.61329" lon="-1.86081">
        <ele>4.83</ele>
      </trkpt>
      <trkpt lat="46.61316" lon="-1.86072">
        <ele>4.48</ele>
      </trkpt>
      <trkpt lat="46.61305" lon="-1.86056">
        <ele>4.54</ele>
      </trkpt>
      <trkpt lat="46.61294" lon="-1.86039">
        <ele>4.69</ele>
      </trkpt>
      <trkpt lat="46.61283" lon="-1.86017">
        <ele>5.11</ele>
      </trkpt>
      <trkpt lat="46.61274" lon="-1.86002">
        <ele>5.49</ele>
      </trkpt>
      <trkpt lat="46.61264" lon="-1.85981">
        <ele>6.14</ele>
      </trkpt>
      <trkpt lat="46.61259" lon="-1.85966">
        <ele>6.72</ele>
      </trkpt>
      <trkpt lat="46.61253" lon="-1.85944">
        <ele>7.68</ele>
      </trkpt>
      <trkpt lat="46.6125" lon="-1.85928">
        <ele>8.44</ele>
      </trkpt>
      <trkpt lat="46.61249" lon="-1.85911">
        <ele>9.03</ele>
      </trkpt>
      <trkpt lat="46.61247" lon="-1.85896">
        <ele>9.17</ele>
      </trkpt>
      <trkpt lat="46.61244" lon="-1.85878">
        <ele>9.33</ele>
      </trkpt>
      <trkpt lat="46.61238" lon="-1.85858">
        <ele>9.48</ele>
      </trkpt>
      <trkpt lat="46.61233" lon="-1.85847">
        <ele>9.57</ele>
      </trkpt>
      <trkpt lat="46.61227" lon="-1.85831">
        <ele>9.76</ele>
      </trkpt>
      <trkpt lat="46.61224" lon="-1.85811">
        <ele>10.05</ele>
      </trkpt>
      <trkpt lat="46.61223" lon="-1.85793">
        <ele>10.31</ele>
      </trkpt>
      <trkpt lat="46.6122" lon="-1.85776">
        <ele>10.58</ele>
      </trkpt>
      <trkpt lat="46.61216" lon="-1.85757">
        <ele>10.89</ele>
      </trkpt>
      <trkpt lat="46.61214" lon="-1.85736">
        <ele>11.33</ele>
      </trkpt>
      <trkpt lat="46.6121" lon="-1.85716">
        <ele>11.81</ele>
      </trkpt>
      <trkpt lat="46.61204" lon="-1.85697">
        <ele>12.27</ele>
      </trkpt>
      <trkpt lat="46.61193" lon="-1.85668">
        <ele>12.96</ele>
      </trkpt>
      <trkpt lat="46.61191" lon="-1.85662">
        <ele>13</ele>
      </trkpt>
      <trkpt lat="46.61188" lon="-1.85655">
        <ele>13</ele>
      </trkpt>
      <trkpt lat="46.61184" lon="-1.85636">
        <ele>13</ele>
      </trkpt>
      <trkpt lat="46.61182" lon="-1.85617">
        <ele>13</ele>
      </trkpt>
      <trkpt lat="46.6118" lon="-1.856">
        <ele>13</ele>
      </trkpt>
      <trkpt lat="46.61179" lon="-1.85581">
        <ele>13</ele>
      </trkpt>
      <trkpt lat="46.61174" lon="-1.85568">
        <ele>12.98</ele>
      </trkpt>
      <trkpt lat="46.6117" lon="-1.85555">
        <ele>12.99</ele>
      </trkpt>
      <trkpt lat="46.61163" lon="-1.85549">
        <ele>12.92</ele>
      </trkpt>
      <trkpt lat="46.61156" lon="-1.85546">
        <ele>12.73</ele>
      </trkpt>
      <trkpt lat="46.61146" lon="-1.8554">
        <ele>12.51</ele>
      </trkpt>
      <trkpt lat="46.61139" lon="-1.85534">
        <ele>12.4</ele>
      </trkpt>
      <trkpt lat="46.61135" lon="-1.85527">
        <ele>12.37</ele>
      </trkpt>
      <trkpt lat="46.61132" lon="-1.85517">
        <ele>12.41</ele>
      </trkpt>
      <trkpt lat="46.61129" lon="-1.85508">
        <ele>12.46</ele>
      </trkpt>
      <trkpt lat="46.61124" lon="-1.85501">
        <ele>12.48</ele>
      </trkpt>
      <trkpt lat="46.61118" lon="-1.85498">
        <ele>12.44</ele>
      </trkpt>
      <trkpt lat="46.61111" lon="-1.85498">
        <ele>12.36</ele>
      </trkpt>
      <trkpt lat="46.61103" lon="-1.85492">
        <ele>12.38</ele>
      </trkpt>
      <trkpt lat="46.61098" lon="-1.85483">
        <ele>12.52</ele>
      </trkpt>
      <trkpt lat="46.61093" lon="-1.85474">
        <ele>12.68</ele>
      </trkpt>
      <trkpt lat="46.61089" lon="-1.85465">
        <ele>12.85</ele>
      </trkpt>
      <trkpt lat="46.61084" lon="-1.85462">
        <ele>12.92</ele>
      </trkpt>
      <trkpt lat="46.61075" lon="-1.85458">
        <ele>12.86</ele>
      </trkpt>
      <trkpt lat="46.6106" lon="-1.85447">
        <ele>12.81</ele>
      </trkpt>
      <trkpt lat="46.61052" lon="-1.85443">
        <ele>12.73</ele>
      </trkpt>
      <trkpt lat="46.61034" lon="-1.85435">
        <ele>12.5</ele>
      </trkpt>
      <trkpt lat="46.61015" lon="-1.85426">
        <ele>12.23</ele>
      </trkpt>
      <trkpt lat="46.60996" lon="-1.85416">
        <ele>11.95</ele>
      </trkpt>
      <trkpt lat="46.60966" lon="-1.85402">
        <ele>11.67</ele>
      </trkpt>
      <trkpt lat="46.60941" lon="-1.85388">
        <ele>11.53</ele>
      </trkpt>
      <trkpt lat="46.60925" lon="-1.8538">
        <ele>11.49</ele>
      </trkpt>
      <trkpt lat="46.60914" lon="-1.85376">
        <ele>11.43</ele>
      </trkpt>
      <trkpt lat="46.60905" lon="-1.8537">
        <ele>11.28</ele>
      </trkpt>
      <trkpt lat="46.60893" lon="-1.85363">
        <ele>11.08</ele>
      </trkpt>
      <trkpt lat="46.60883" lon="-1.85354">
        <ele>10.95</ele>
      </trkpt>
      <trkpt lat="46.60868" lon="-1.8534">
        <ele>10.77</ele>
      </trkpt>
      <trkpt lat="46.60841" lon="-1.85316">
        <ele>10.38</ele>
      </trkpt>
      <trkpt lat="46.60809" lon="-1.85287">
        <ele>10.26</ele>
      </trkpt>
      <trkpt lat="46.60779" lon="-1.85264">
        <ele>10.18</ele>
      </trkpt>
      <trkpt lat="46.60766" lon="-1.8525">
        <ele>10.19</ele>
      </trkpt>
      <trkpt lat="46.60703" lon="-1.8522">
        <ele>8.92</ele>
      </trkpt>
      <trkpt lat="46.60639" lon="-1.8519">
        <ele>8.67</ele>
      </trkpt>
      <trkpt lat="46.60614" lon="-1.85179">
        <ele>8.5</ele>
      </trkpt>
      <trkpt lat="46.60576" lon="-1.8516">
        <ele>7.85</ele>
      </trkpt>
      <trkpt lat="46.60536" lon="-1.85142">
        <ele>7.47</ele>
      </trkpt>
      <trkpt lat="46.60503" lon="-1.85127">
        <ele>7.48</ele>
      </trkpt>
      <trkpt lat="46.6047" lon="-1.85111">
        <ele>7.67</ele>
      </trkpt>
      <trkpt lat="46.60404" lon="-1.8508">
        <ele>7.81</ele>
      </trkpt>
      <trkpt lat="46.60354" lon="-1.85057">
        <ele>6.94</ele>
      </trkpt>
      <trkpt lat="46.60285" lon="-1.85025">
        <ele>5.89</ele>
      </trkpt>
      <trkpt lat="46.60271" lon="-1.85019">
        <ele>5.65</ele>
      </trkpt>
      <trkpt lat="46.60264" lon="-1.85014">
        <ele>5.48</ele>
      </trkpt>
      <trkpt lat="46.60266" lon="-1.85007">
        <ele>5.34</ele>
      </trkpt>
      <trkpt lat="46.60269" lon="-1.84998">
        <ele>5.17</ele>
      </trkpt>
      <trkpt lat="46.60271" lon="-1.84988">
        <ele>4.99</ele>
      </trkpt>
      <trkpt lat="46.60273" lon="-1.84977">
        <ele>4.79</ele>
      </trkpt>
      <trkpt lat="46.60273" lon="-1.84958">
        <ele>4.42</ele>
      </trkpt>
      <trkpt lat="46.60275" lon="-1.84945">
        <ele>4.17</ele>
      </trkpt>
      <trkpt lat="46.60275" lon="-1.84936">
        <ele>4</ele>
      </trkpt>
      <trkpt lat="46.60278" lon="-1.84927">
        <ele>3.88</ele>
      </trkpt>
      <trkpt lat="46.60281" lon="-1.84921">
        <ele>3.83</ele>
      </trkpt>
      <trkpt lat="46.60283" lon="-1.84903">
        <ele>4.08</ele>
      </trkpt>
      <trkpt lat="46.60291" lon="-1.84852">
        <ele>5.17</ele>
      </trkpt>
      <trkpt lat="46.60296" lon="-1.84816">
        <ele>5.75</ele>
      </trkpt>
      <trkpt lat="46.60302" lon="-1.84776">
        <ele>6.32</ele>
      </trkpt>
      <trkpt lat="46.60307" lon="-1.84741">
        <ele>6.57</ele>
      </trkpt>
      <trkpt lat="46.60311" lon="-1.84717">
        <ele>6.25</ele>
      </trkpt>
      <trkpt lat="46.60314" lon="-1.84711">
        <ele>6.09</ele>
      </trkpt>
      <trkpt lat="46.60319" lon="-1.84704">
        <ele>5.89</ele>
      </trkpt>
      <trkpt lat="46.60328" lon="-1.84673">
        <ele>5.27</ele>
      </trkpt>
      <trkpt lat="46.60338" lon="-1.84668">
        <ele>5.07</ele>
      </trkpt>
      <trkpt lat="46.60343" lon="-1.84636">
        <ele>5.11</ele>
      </trkpt>
      <trkpt lat="46.6035" lon="-1.84606">
        <ele>5.2</ele>
      </trkpt>
      <trkpt lat="46.60355" lon="-1.84579">
        <ele>5.26</ele>
      </trkpt>
      <trkpt lat="46.60358" lon="-1.84562">
        <ele>5.29</ele>
      </trkpt>
      <trkpt lat="46.60359" lon="-1.84542">
        <ele>5.31</ele>
      </trkpt>
      <trkpt lat="46.6036" lon="-1.84524">
        <ele>5.32</ele>
      </trkpt>
      <trkpt lat="46.60357" lon="-1.84509">
        <ele>5.29</ele>
      </trkpt>
      <trkpt lat="46.60357" lon="-1.84496">
        <ele>5.23</ele>
      </trkpt>
      <trkpt lat="46.60357" lon="-1.84494">
        <ele>5.22</ele>
      </trkpt>
      <trkpt lat="46.60356" lon="-1.84489">
        <ele>5.14</ele>
      </trkpt>
      <trkpt lat="46.60355" lon="-1.84483">
        <ele>5.06</ele>
      </trkpt>
      <trkpt lat="46.60354" lon="-1.84471">
        <ele>4.9</ele>
      </trkpt>
      <trkpt lat="46.60295" lon="-1.84477">
        <ele>5.86</ele>
      </trkpt>
      <trkpt lat="46.60257" lon="-1.84483">
        <ele>7.16</ele>
      </trkpt>
      <trkpt lat="46.60213" lon="-1.84469">
        <ele>8.68</ele>
      </trkpt>
      <trkpt lat="46.60177" lon="-1.84459">
        <ele>10.01</ele>
      </trkpt>
      <trkpt lat="46.60127" lon="-1.84442">
        <ele>10.11</ele>
      </trkpt>
      <trkpt lat="46.60093" lon="-1.84435">
        <ele>10.16</ele>
      </trkpt>
      <trkpt lat="46.60068" lon="-1.8443">
        <ele>9.49</ele>
      </trkpt>
      <trkpt lat="46.60052" lon="-1.84431">
        <ele>8.78</ele>
      </trkpt>
      <trkpt lat="46.60012" lon="-1.8443">
        <ele>7.02</ele>
      </trkpt>
      <trkpt lat="46.5997" lon="-1.84427">
        <ele>5.55</ele>
      </trkpt>
      <trkpt lat="46.59931" lon="-1.84429">
        <ele>4.55</ele>
      </trkpt>
      <trkpt lat="46.59918" lon="-1.84436">
        <ele>4.27</ele>
      </trkpt>
      <trkpt lat="46.59905" lon="-1.84447">
        <ele>4.12</ele>
      </trkpt>
      <trkpt lat="46.59889" lon="-1.84464">
        <ele>3.87</ele>
      </trkpt>
      <trkpt lat="46.5988" lon="-1.84469">
        <ele>3.64</ele>
      </trkpt>
      <trkpt lat="46.59869" lon="-1.8447">
        <ele>3.32</ele>
      </trkpt>
      <trkpt lat="46.59853" lon="-1.84465">
        <ele>2.94</ele>
      </trkpt>
      <trkpt lat="46.59839" lon="-1.8446">
        <ele>2.63</ele>
      </trkpt>
      <trkpt lat="46.59825" lon="-1.8445">
        <ele>2.57</ele>
      </trkpt>
      <trkpt lat="46.59813" lon="-1.84425">
        <ele>2.87</ele>
      </trkpt>
      <trkpt lat="46.59799" lon="-1.84387">
        <ele>3.2</ele>
      </trkpt>
      <trkpt lat="46.59788" lon="-1.84355">
        <ele>3.34</ele>
      </trkpt>
      <trkpt lat="46.59767" lon="-1.84296">
        <ele>2.85</ele>
      </trkpt>
      <trkpt lat="46.59749" lon="-1.84251">
        <ele>2</ele>
      </trkpt>
      <trkpt lat="46.59708" lon="-1.84173">
        <ele>3.35</ele>
      </trkpt>
      <trkpt lat="46.59672" lon="-1.84098">
        <ele>3.01</ele>
      </trkpt>
      <trkpt lat="46.59653" lon="-1.84049">
        <ele>2.74</ele>
      </trkpt>
      <trkpt lat="46.59646" lon="-1.84028">
        <ele>2.67</ele>
      </trkpt>
      <trkpt lat="46.5964" lon="-1.84004">
        <ele>2.67</ele>
      </trkpt>
      <trkpt lat="46.59636" lon="-1.83979">
        <ele>2.63</ele>
      </trkpt>
      <trkpt lat="46.59633" lon="-1.83932">
        <ele>2.6</ele>
      </trkpt>
      <trkpt lat="46.59628" lon="-1.83913">
        <ele>2.54</ele>
      </trkpt>
      <trkpt lat="46.59615" lon="-1.83897">
        <ele>2.38</ele>
      </trkpt>
      <trkpt lat="46.59596" lon="-1.83864">
        <ele>2.15</ele>
      </trkpt>
      <trkpt lat="46.5958" lon="-1.83834">
        <ele>1.96</ele>
      </trkpt>
      <trkpt lat="46.59569" lon="-1.83812">
        <ele>1.58</ele>
      </trkpt>
      <trkpt lat="46.59562" lon="-1.83787">
        <ele>1.18</ele>
      </trkpt>
      <trkpt lat="46.59556" lon="-1.83731">
        <ele>0.74</ele>
      </trkpt>
      <trkpt lat="46.59554" lon="-1.83678">
        <ele>0.95</ele>
      </trkpt>
      <trkpt lat="46.5956" lon="-1.83629">
        <ele>1.2</ele>
      </trkpt>
      <trkpt lat="46.59565" lon="-1.83612">
        <ele>1.37</ele>
      </trkpt>
      <trkpt lat="46.59566" lon="-1.83582">
        <ele>1.57</ele>
      </trkpt>
      <trkpt lat="46.59564" lon="-1.83555">
        <ele>1.2</ele>
      </trkpt>
      <trkpt lat="46.59562" lon="-1.8353">
        <ele>0.85</ele>
      </trkpt>
      <trkpt lat="46.5956" lon="-1.83494">
        <ele>0.47</ele>
      </trkpt>
      <trkpt lat="46.59556" lon="-1.83481">
        <ele>0.49</ele>
      </trkpt>
      <trkpt lat="46.59554" lon="-1.83459">
        <ele>0.64</ele>
      </trkpt>
      <trkpt lat="46.59553" lon="-1.83444">
        <ele>0.77</ele>
      </trkpt>
      <trkpt lat="46.59554" lon="-1.83428">
        <ele>0.91</ele>
      </trkpt>
      <trkpt lat="46.59556" lon="-1.83416">
        <ele>1.02</ele>
      </trkpt>
      <trkpt lat="46.5956" lon="-1.83403">
        <ele>1.43</ele>
      </trkpt>
      <trkpt lat="46.59565" lon="-1.83394">
        <ele>1.75</ele>
      </trkpt>
      <trkpt lat="46.59568" lon="-1.83384">
        <ele>2.12</ele>
      </trkpt>
      <trkpt lat="46.59569" lon="-1.83369">
        <ele>2.6</ele>
      </trkpt>
      <trkpt lat="46.59568" lon="-1.83357">
        <ele>3.03</ele>
      </trkpt>
      <trkpt lat="46.59567" lon="-1.83345">
        <ele>3.42</ele>
      </trkpt>
      <trkpt lat="46.59566" lon="-1.83333">
        <ele>3.79</ele>
      </trkpt>
      <trkpt lat="46.59567" lon="-1.83321">
        <ele>3.83</ele>
      </trkpt>
      <trkpt lat="46.5957" lon="-1.8331">
        <ele>3.88</ele>
      </trkpt>
      <trkpt lat="46.59573" lon="-1.83299">
        <ele>3.92</ele>
      </trkpt>
      <trkpt lat="46.59572" lon="-1.83289">
        <ele>3.93</ele>
      </trkpt>
      <trkpt lat="46.59557" lon="-1.83298">
        <ele>3.82</ele>
      </trkpt>
      <trkpt lat="46.59548" lon="-1.83303">
        <ele>3.73</ele>
      </trkpt>
      <trkpt lat="46.59537" lon="-1.83309">
        <ele>3.6</ele>
      </trkpt>
      <trkpt lat="46.59509" lon="-1.83328">
        <ele>3.17</ele>
      </trkpt>
      <trkpt lat="46.59475" lon="-1.8335">
        <ele>2.35</ele>
      </trkpt>
      <trkpt lat="46.59473" lon="-1.83351">
        <ele>2.32</ele>
      </trkpt>
      <trkpt lat="46.59473" lon="-1.83351">
        <ele>2.32</ele>
      </trkpt>
      <trkpt lat="46.59462" lon="-1.83359">
        <ele>2.06</ele>
      </trkpt>
      <trkpt lat="46.5945" lon="-1.83366">
        <ele>1.85</ele>
      </trkpt>
      <trkpt lat="46.59443" lon="-1.83371">
        <ele>1.73</ele>
      </trkpt>
      <trkpt lat="46.59436" lon="-1.83373">
        <ele>1.64</ele>
      </trkpt>
      <trkpt lat="46.59428" lon="-1.83374">
        <ele>1.59</ele>
      </trkpt>
      <trkpt lat="46.59418" lon="-1.83374">
        <ele>1.52</ele>
      </trkpt>
      <trkpt lat="46.59406" lon="-1.83368">
        <ele>1.69</ele>
      </trkpt>
      <trkpt lat="46.59394" lon="-1.83362">
        <ele>1.84</ele>
      </trkpt>
      <trkpt lat="46.59378" lon="-1.83352">
        <ele>1.98</ele>
      </trkpt>
      <trkpt lat="46.59356" lon="-1.83341">
        <ele>2.04</ele>
      </trkpt>
      <trkpt lat="46.59336" lon="-1.83334">
        <ele>2</ele>
      </trkpt>
      <trkpt lat="46.59326" lon="-1.8333">
        <ele>1.96</ele>
      </trkpt>
      <trkpt lat="46.59317" lon="-1.83328">
        <ele>1.95</ele>
      </trkpt>
      <trkpt lat="46.59306" lon="-1.83326">
        <ele>1.94</ele>
      </trkpt>
      <trkpt lat="46.59298" lon="-1.83323">
        <ele>1.93</ele>
      </trkpt>
      <trkpt lat="46.59288" lon="-1.8332">
        <ele>1.93</ele>
      </trkpt>
      <trkpt lat="46.5927" lon="-1.83319">
        <ele>1.96</ele>
      </trkpt>
      <trkpt lat="46.59272" lon="-1.83338">
        <ele>2.02</ele>
      </trkpt>
      <trkpt lat="46.59273" lon="-1.83357">
        <ele>2.08</ele>
      </trkpt>
      <trkpt lat="46.59274" lon="-1.83382">
        <ele>2.17</ele>
      </trkpt>
      <trkpt lat="46.59275" lon="-1.83399">
        <ele>2.24</ele>
      </trkpt>
      <trkpt lat="46.59274" lon="-1.83415">
        <ele>2.29</ele>
      </trkpt>
      <trkpt lat="46.59272" lon="-1.83425">
        <ele>2.31</ele>
      </trkpt>
      <trkpt lat="46.59268" lon="-1.83438">
        <ele>2.36</ele>
      </trkpt>
      <trkpt lat="46.59257" lon="-1.83472">
        <ele>2.64</ele>
      </trkpt>
      <trkpt lat="46.59253" lon="-1.83486">
        <ele>2.81</ele>
      </trkpt>
      <trkpt lat="46.5925" lon="-1.83497">
        <ele>2.97</ele>
      </trkpt>
      <trkpt lat="46.59246" lon="-1.83502">
        <ele>3</ele>
      </trkpt>
      <trkpt lat="46.59239" lon="-1.83508">
        <ele>2.99</ele>
      </trkpt>
      <trkpt lat="46.5923" lon="-1.83511">
        <ele>2.97</ele>
      </trkpt>
      <trkpt lat="46.59189" lon="-1.83519">
        <ele>2.83</ele>
      </trkpt>
      <trkpt lat="46.5918" lon="-1.83523">
        <ele>2.77</ele>
      </trkpt>
      <trkpt lat="46.5917" lon="-1.8353">
        <ele>2.66</ele>
      </trkpt>
      <trkpt lat="46.5916" lon="-1.83543">
        <ele>2.57</ele>
      </trkpt>
      <trkpt lat="46.5914" lon="-1.83569">
        <ele>2.5</ele>
      </trkpt>
      <trkpt lat="46.59111" lon="-1.83618">
        <ele>2.54</ele>
      </trkpt>
      <trkpt lat="46.5909" lon="-1.83658">
        <ele>2.85</ele>
      </trkpt>
      <trkpt lat="46.59074" lon="-1.83693">
        <ele>2.86</ele>
      </trkpt>
      <trkpt lat="46.59061" lon="-1.8372">
        <ele>2.74</ele>
      </trkpt>
      <trkpt lat="46.59051" lon="-1.83733">
        <ele>2.66</ele>
      </trkpt>
      <trkpt lat="46.5904" lon="-1.83742">
        <ele>2.66</ele>
      </trkpt>
      <trkpt lat="46.59021" lon="-1.83755">
        <ele>2.68</ele>
      </trkpt>
      <trkpt lat="46.59009" lon="-1.83763">
        <ele>2.74</ele>
      </trkpt>
      <trkpt lat="46.58997" lon="-1.83768">
        <ele>2.87</ele>
      </trkpt>
      <trkpt lat="46.58959" lon="-1.83784">
        <ele>3.67</ele>
      </trkpt>
      <trkpt lat="46.58924" lon="-1.83796">
        <ele>4.16</ele>
      </trkpt>
      <trkpt lat="46.58879" lon="-1.83813">
        <ele>4.74</ele>
      </trkpt>
      <trkpt lat="46.5885" lon="-1.83827">
        <ele>4.91</ele>
      </trkpt>
      <trkpt lat="46.58821" lon="-1.8384">
        <ele>5.14</ele>
      </trkpt>
      <trkpt lat="46.58786" lon="-1.83854">
        <ele>5.64</ele>
      </trkpt>
      <trkpt lat="46.58754" lon="-1.83867">
        <ele>6.09</ele>
      </trkpt>
      <trkpt lat="46.58721" lon="-1.83882">
        <ele>6.39</ele>
      </trkpt>
      <trkpt lat="46.58676" lon="-1.83895">
        <ele>7.05</ele>
      </trkpt>
      <trkpt lat="46.58642" lon="-1.83911">
        <ele>7.67</ele>
      </trkpt>
      <trkpt lat="46.58635" lon="-1.83914">
        <ele>7.8</ele>
      </trkpt>
      <trkpt lat="46.5863" lon="-1.83917">
        <ele>7.88</ele>
      </trkpt>
      <trkpt lat="46.58624" lon="-1.8392">
        <ele>7.94</ele>
      </trkpt>
      <trkpt lat="46.58613" lon="-1.83928">
        <ele>7.97</ele>
      </trkpt>
      <trkpt lat="46.58603" lon="-1.83936">
        <ele>7.93</ele>
      </trkpt>
      <trkpt lat="46.58593" lon="-1.83944">
        <ele>7.87</ele>
      </trkpt>
      <trkpt lat="46.58581" lon="-1.83948">
        <ele>7.97</ele>
      </trkpt>
      <trkpt lat="46.58567" lon="-1.8395">
        <ele>8.31</ele>
      </trkpt>
      <trkpt lat="46.5856" lon="-1.83952">
        <ele>8.45</ele>
      </trkpt>
      <trkpt lat="46.58555" lon="-1.83957">
        <ele>8.41</ele>
      </trkpt>
      <trkpt lat="46.58546" lon="-1.83959">
        <ele>8.58</ele>
      </trkpt>
      <trkpt lat="46.58534" lon="-1.83957">
        <ele>9.03</ele>
      </trkpt>
      <trkpt lat="46.58519" lon="-1.83951">
        <ele>9.77</ele>
      </trkpt>
      <trkpt lat="46.58504" lon="-1.83944">
        <ele>10.56</ele>
      </trkpt>
      <trkpt lat="46.58488" lon="-1.83936">
        <ele>11.33</ele>
      </trkpt>
      <trkpt lat="46.58465" lon="-1.83921">
        <ele>12.62</ele>
      </trkpt>
      <trkpt lat="46.5845" lon="-1.8391">
        <ele>13.12</ele>
      </trkpt>
      <trkpt lat="46.58435" lon="-1.83896">
        <ele>13.32</ele>
      </trkpt>
      <trkpt lat="46.58424" lon="-1.83879">
        <ele>13.37</ele>
      </trkpt>
      <trkpt lat="46.58414" lon="-1.83859">
        <ele>13.29</ele>
      </trkpt>
      <trkpt lat="46.58394" lon="-1.83837">
        <ele>13.02</ele>
      </trkpt>
      <trkpt lat="46.58386" lon="-1.83822">
        <ele>12.91</ele>
      </trkpt>
      <trkpt lat="46.58373" lon="-1.83802">
        <ele>12.82</ele>
      </trkpt>
      <trkpt lat="46.58364" lon="-1.83769">
        <ele>12.71</ele>
      </trkpt>
      <trkpt lat="46.58353" lon="-1.83767">
        <ele>12.81</ele>
      </trkpt>
      <trkpt lat="46.58339" lon="-1.83765">
        <ele>12.94</ele>
      </trkpt>
      <trkpt lat="46.58318" lon="-1.8376">
        <ele>12.82</ele>
      </trkpt>
      <trkpt lat="46.5831" lon="-1.83758">
        <ele>12.72</ele>
      </trkpt>
      <trkpt lat="46.58298" lon="-1.83768">
        <ele>12.57</ele>
      </trkpt>
      <trkpt lat="46.58283" lon="-1.83776">
        <ele>12.4</ele>
      </trkpt>
      <trkpt lat="46.58268" lon="-1.83787">
        <ele>12.22</ele>
      </trkpt>
      <trkpt lat="46.58261" lon="-1.83787">
        <ele>12.13</ele>
      </trkpt>
      <trkpt lat="46.58253" lon="-1.83781">
        <ele>12.03</ele>
      </trkpt>
      <trkpt lat="46.58248" lon="-1.83769">
        <ele>12.02</ele>
      </trkpt>
      <trkpt lat="46.58244" lon="-1.83751">
        <ele>12.08</ele>
      </trkpt>
      <trkpt lat="46.5824" lon="-1.83733">
        <ele>12.5</ele>
      </trkpt>
      <trkpt lat="46.58234" lon="-1.83725">
        <ele>12.74</ele>
      </trkpt>
      <trkpt lat="46.58219" lon="-1.83721">
        <ele>12.94</ele>
      </trkpt>
      <trkpt lat="46.58205" lon="-1.83719">
        <ele>13.09</ele>
      </trkpt>
      <trkpt lat="46.58191" lon="-1.83718">
        <ele>13.2</ele>
      </trkpt>
      <trkpt lat="46.58181" lon="-1.83715">
        <ele>13.32</ele>
      </trkpt>
      <trkpt lat="46.5817" lon="-1.83714">
        <ele>13.41</ele>
      </trkpt>
      <trkpt lat="46.58153" lon="-1.83711">
        <ele>13.98</ele>
      </trkpt>
      <trkpt lat="46.58136" lon="-1.83719">
        <ele>14.48</ele>
      </trkpt>
      <trkpt lat="46.58122" lon="-1.83733">
        <ele>14.81</ele>
      </trkpt>
      <trkpt lat="46.5811" lon="-1.83734">
        <ele>15.22</ele>
      </trkpt>
      <trkpt lat="46.58096" lon="-1.8372">
        <ele>15.89</ele>
      </trkpt>
      <trkpt lat="46.58077" lon="-1.83694">
        <ele>16.77</ele>
      </trkpt>
      <trkpt lat="46.58067" lon="-1.8367">
        <ele>17.16</ele>
      </trkpt>
      <trkpt lat="46.58058" lon="-1.83643">
        <ele>17.02</ele>
      </trkpt>
      <trkpt lat="46.58049" lon="-1.83615">
        <ele>16.8</ele>
      </trkpt>
      <trkpt lat="46.58039" lon="-1.83577">
        <ele>16.58</ele>
      </trkpt>
      <trkpt lat="46.58029" lon="-1.83537">
        <ele>17.01</ele>
      </trkpt>
      <trkpt lat="46.58024" lon="-1.83506">
        <ele>17.37</ele>
      </trkpt>
      <trkpt lat="46.58014" lon="-1.83467">
        <ele>17.87</ele>
      </trkpt>
      <trkpt lat="46.58003" lon="-1.83443">
        <ele>18</ele>
      </trkpt>
      <trkpt lat="46.57984" lon="-1.83417">
        <ele>17.81</ele>
      </trkpt>
      <trkpt lat="46.57978" lon="-1.83406">
        <ele>17.85</ele>
      </trkpt>
      <trkpt lat="46.57971" lon="-1.8339">
        <ele>17.86</ele>
      </trkpt>
      <trkpt lat="46.57959" lon="-1.83375">
        <ele>17.53</ele>
      </trkpt>
      <trkpt lat="46.57952" lon="-1.83364">
        <ele>17.23</ele>
      </trkpt>
      <trkpt lat="46.57949" lon="-1.83345">
        <ele>16.99</ele>
      </trkpt>
      <trkpt lat="46.57946" lon="-1.83335">
        <ele>16.78</ele>
      </trkpt>
      <trkpt lat="46.57942" lon="-1.83321">
        <ele>16.43</ele>
      </trkpt>
      <trkpt lat="46.57935" lon="-1.83295">
        <ele>15.72</ele>
      </trkpt>
      <trkpt lat="46.57928" lon="-1.83276">
        <ele>15.09</ele>
      </trkpt>
      <trkpt lat="46.57923" lon="-1.83261">
        <ele>14.58</ele>
      </trkpt>
      <trkpt lat="46.57918" lon="-1.83248">
        <ele>14.1</ele>
      </trkpt>
      <trkpt lat="46.57908" lon="-1.83229">
        <ele>14.28</ele>
      </trkpt>
      <trkpt lat="46.57898" lon="-1.83208">
        <ele>14.39</ele>
      </trkpt>
      <trkpt lat="46.57888" lon="-1.83196">
        <ele>14.32</ele>
      </trkpt>
      <trkpt lat="46.57881" lon="-1.83187">
        <ele>14.22</ele>
      </trkpt>
      <trkpt lat="46.57875" lon="-1.83183">
        <ele>14.09</ele>
      </trkpt>
      <trkpt lat="46.57865" lon="-1.83172">
        <ele>13.82</ele>
      </trkpt>
      <trkpt lat="46.57852" lon="-1.83158">
        <ele>13.61</ele>
      </trkpt>
      <trkpt lat="46.57843" lon="-1.83129">
        <ele>14.04</ele>
      </trkpt>
      <trkpt lat="46.57838" lon="-1.83106">
        <ele>14.49</ele>
      </trkpt>
      <trkpt lat="46.5784" lon="-1.83088">
        <ele>14.9</ele>
      </trkpt>
      <trkpt lat="46.57846" lon="-1.83059">
        <ele>15.21</ele>
      </trkpt>
      <trkpt lat="46.57845" lon="-1.8304">
        <ele>15.37</ele>
      </trkpt>
      <trkpt lat="46.57846" lon="-1.83015">
        <ele>15.58</ele>
      </trkpt>
      <trkpt lat="46.57846" lon="-1.82989">
        <ele>15.41</ele>
      </trkpt>
      <trkpt lat="46.57841" lon="-1.82956">
        <ele>14.73</ele>
      </trkpt>
      <trkpt lat="46.57839" lon="-1.82936">
        <ele>14.27</ele>
      </trkpt>
      <trkpt lat="46.57836" lon="-1.82918">
        <ele>13.97</ele>
      </trkpt>
      <trkpt lat="46.57833" lon="-1.8291">
        <ele>14.01</ele>
      </trkpt>
      <trkpt lat="46.57828" lon="-1.82895">
        <ele>14.49</ele>
      </trkpt>
      <trkpt lat="46.57825" lon="-1.82884">
        <ele>14.79</ele>
      </trkpt>
      <trkpt lat="46.57821" lon="-1.82875">
        <ele>15.13</ele>
      </trkpt>
      <trkpt lat="46.57818" lon="-1.82859">
        <ele>15.31</ele>
      </trkpt>
      <trkpt lat="46.57822" lon="-1.82843">
        <ele>14.93</ele>
      </trkpt>
      <trkpt lat="46.57823" lon="-1.82824">
        <ele>14.73</ele>
      </trkpt>
      <trkpt lat="46.57822" lon="-1.82812">
        <ele>14.65</ele>
      </trkpt>
      <trkpt lat="46.57816" lon="-1.82799">
        <ele>14.88</ele>
      </trkpt>
      <trkpt lat="46.57809" lon="-1.82784">
        <ele>15.11</ele>
      </trkpt>
      <trkpt lat="46.57806" lon="-1.82773">
        <ele>15.07</ele>
      </trkpt>
      <trkpt lat="46.57806" lon="-1.82746">
        <ele>14.71</ele>
      </trkpt>
      <trkpt lat="46.57801" lon="-1.82729">
        <ele>15.23</ele>
      </trkpt>
      <trkpt lat="46.57798" lon="-1.82717">
        <ele>15.56</ele>
      </trkpt>
      <trkpt lat="46.57794" lon="-1.82696">
        <ele>16.04</ele>
      </trkpt>
      <trkpt lat="46.57788" lon="-1.8267">
        <ele>16.6</ele>
      </trkpt>
      <trkpt lat="46.57784" lon="-1.82649">
        <ele>17</ele>
      </trkpt>
      <trkpt lat="46.57774" lon="-1.82621">
        <ele>17.38</ele>
      </trkpt>
      <trkpt lat="46.5777" lon="-1.82592">
        <ele>17.46</ele>
      </trkpt>
      <trkpt lat="46.57766" lon="-1.82581">
        <ele>17.39</ele>
      </trkpt>
      <trkpt lat="46.5776" lon="-1.8255">
        <ele>17.3</ele>
      </trkpt>
      <trkpt lat="46.57751" lon="-1.82531">
        <ele>17.04</ele>
      </trkpt>
      <trkpt lat="46.57742" lon="-1.82517">
        <ele>16.83</ele>
      </trkpt>
      <trkpt lat="46.57729" lon="-1.82511">
        <ele>16.53</ele>
      </trkpt>
      <trkpt lat="46.57708" lon="-1.82506">
        <ele>16.02</ele>
      </trkpt>
      <trkpt lat="46.57692" lon="-1.82504">
        <ele>15.65</ele>
      </trkpt>
      <trkpt lat="46.57675" lon="-1.82498">
        <ele>15.2</ele>
      </trkpt>
      <trkpt lat="46.57661" lon="-1.8249">
        <ele>15</ele>
      </trkpt>
      <trkpt lat="46.57649" lon="-1.82482">
        <ele>15</ele>
      </trkpt>
      <trkpt lat="46.57641" lon="-1.8247">
        <ele>15</ele>
      </trkpt>
      <trkpt lat="46.57638" lon="-1.82453">
        <ele>15</ele>
      </trkpt>
      <trkpt lat="46.57635" lon="-1.82431">
        <ele>15</ele>
      </trkpt>
      <trkpt lat="46.57633" lon="-1.82401">
        <ele>14.71</ele>
      </trkpt>
      <trkpt lat="46.57632" lon="-1.82382">
        <ele>14.35</ele>
      </trkpt>
      <trkpt lat="46.5763" lon="-1.82369">
        <ele>14.12</ele>
      </trkpt>
      <trkpt lat="46.57625" lon="-1.82349">
        <ele>13.78</ele>
      </trkpt>
      <trkpt lat="46.57625" lon="-1.82339">
        <ele>13.6</ele>
      </trkpt>
      <trkpt lat="46.57629" lon="-1.8232">
        <ele>12.9</ele>
      </trkpt>
      <trkpt lat="46.57632" lon="-1.82308">
        <ele>12.33</ele>
      </trkpt>
      <trkpt lat="46.57634" lon="-1.82289">
        <ele>11.47</ele>
      </trkpt>
      <trkpt lat="46.57636" lon="-1.82279">
        <ele>11.02</ele>
      </trkpt>
      <trkpt lat="46.5764" lon="-1.82271">
        <ele>10.57</ele>
      </trkpt>
      <trkpt lat="46.57644" lon="-1.82263">
        <ele>10.11</ele>
      </trkpt>
      <trkpt lat="46.5762" lon="-1.82254">
        <ele>10.26</ele>
      </trkpt>
      <trkpt lat="46.57606" lon="-1.82248">
        <ele>10.33</ele>
      </trkpt>
      <trkpt lat="46.57586" lon="-1.82238">
        <ele>10.36</ele>
      </trkpt>
      <trkpt lat="46.57571" lon="-1.82232">
        <ele>10.33</ele>
      </trkpt>
      <trkpt lat="46.57558" lon="-1.82224">
        <ele>10.16</ele>
      </trkpt>
      <trkpt lat="46.5753" lon="-1.82212">
        <ele>10.12</ele>
      </trkpt>
      <trkpt lat="46.57464" lon="-1.8218">
        <ele>11</ele>
      </trkpt>
      <trkpt lat="46.57455" lon="-1.82174">
        <ele>11.28</ele>
      </trkpt>
      <trkpt lat="46.5744" lon="-1.82165">
        <ele>11.86</ele>
      </trkpt>
      <trkpt lat="46.57429" lon="-1.82158">
        <ele>12.24</ele>
      </trkpt>
      <trkpt lat="46.5742" lon="-1.82155">
        <ele>12.56</ele>
      </trkpt>
      <trkpt lat="46.57407" lon="-1.82146">
        <ele>12.31</ele>
      </trkpt>
      <trkpt lat="46.57393" lon="-1.8213">
        <ele>11.45</ele>
      </trkpt>
      <trkpt lat="46.57381" lon="-1.8212">
        <ele>10.74</ele>
      </trkpt>
      <trkpt lat="46.57368" lon="-1.82107">
        <ele>9.71</ele>
      </trkpt>
      <trkpt lat="46.57357" lon="-1.82103">
        <ele>9.14</ele>
      </trkpt>
      <trkpt lat="46.57335" lon="-1.82104">
        <ele>8.33</ele>
      </trkpt>
      <trkpt lat="46.57315" lon="-1.82112">
        <ele>8.73</ele>
      </trkpt>
      <trkpt lat="46.57305" lon="-1.82117">
        <ele>8.99</ele>
      </trkpt>
      <trkpt lat="46.57292" lon="-1.82121">
        <ele>9.25</ele>
      </trkpt>
      <trkpt lat="46.57277" lon="-1.82124">
        <ele>9.42</ele>
      </trkpt>
      <trkpt lat="46.57261" lon="-1.82127">
        <ele>9.61</ele>
      </trkpt>
      <trkpt lat="46.57251" lon="-1.82127">
        <ele>9.63</ele>
      </trkpt>
      <trkpt lat="46.5724" lon="-1.82125">
        <ele>10.03</ele>
      </trkpt>
      <trkpt lat="46.57234" lon="-1.82118">
        <ele>10.08</ele>
      </trkpt>
      <trkpt lat="46.57224" lon="-1.821">
        <ele>10.03</ele>
      </trkpt>
      <trkpt lat="46.57213" lon="-1.82059">
        <ele>9.84</ele>
      </trkpt>
      <trkpt lat="46.57202" lon="-1.82022">
        <ele>9.96</ele>
      </trkpt>
      <trkpt lat="46.57194" lon="-1.81996">
        <ele>10.21</ele>
      </trkpt>
      <trkpt lat="46.57186" lon="-1.81973">
        <ele>10.07</ele>
      </trkpt>
      <trkpt lat="46.57179" lon="-1.81953">
        <ele>9.84</ele>
      </trkpt>
      <trkpt lat="46.5717" lon="-1.81922">
        <ele>9.03</ele>
      </trkpt>
      <trkpt lat="46.57159" lon="-1.81906">
        <ele>9.07</ele>
      </trkpt>
      <trkpt lat="46.57143" lon="-1.81886">
        <ele>9.21</ele>
      </trkpt>
      <trkpt lat="46.57123" lon="-1.81875">
        <ele>10.13</ele>
      </trkpt>
      <trkpt lat="46.57103" lon="-1.81867">
        <ele>11.15</ele>
      </trkpt>
      <trkpt lat="46.57088" lon="-1.81861">
        <ele>12.04</ele>
      </trkpt>
      <trkpt lat="46.57068" lon="-1.81856">
        <ele>10.95</ele>
      </trkpt>
      <trkpt lat="46.57054" lon="-1.81855">
        <ele>9.9</ele>
      </trkpt>
      <trkpt lat="46.57044" lon="-1.81855">
        <ele>9.21</ele>
      </trkpt>
      <trkpt lat="46.57034" lon="-1.81858">
        <ele>8.63</ele>
      </trkpt>
      <trkpt lat="46.5702" lon="-1.81865">
        <ele>8</ele>
      </trkpt>
      <trkpt lat="46.57012" lon="-1.81868">
        <ele>7.57</ele>
      </trkpt>
      <trkpt lat="46.57003" lon="-1.81873">
        <ele>7.15</ele>
      </trkpt>
      <trkpt lat="46.56993" lon="-1.81879">
        <ele>6.88</ele>
      </trkpt>
      <trkpt lat="46.56982" lon="-1.81891">
        <ele>6.92</ele>
      </trkpt>
      <trkpt lat="46.56974" lon="-1.81904">
        <ele>7.01</ele>
      </trkpt>
      <trkpt lat="46.56962" lon="-1.81921">
        <ele>6.83</ele>
      </trkpt>
      <trkpt lat="46.5695" lon="-1.81954">
        <ele>7.01</ele>
      </trkpt>
      <trkpt lat="46.56943" lon="-1.81973">
        <ele>7.19</ele>
      </trkpt>
      <trkpt lat="46.56932" lon="-1.81999">
        <ele>7.53</ele>
      </trkpt>
      <trkpt lat="46.56927" lon="-1.82025">
        <ele>10.01</ele>
      </trkpt>
      <trkpt lat="46.5692" lon="-1.8204">
        <ele>11.7</ele>
      </trkpt>
      <trkpt lat="46.56915" lon="-1.82041">
        <ele>12.04</ele>
      </trkpt>
      <trkpt lat="46.56907" lon="-1.82039">
        <ele>12.32</ele>
      </trkpt>
      <trkpt lat="46.56897" lon="-1.82035">
        <ele>12.56</ele>
      </trkpt>
      <trkpt lat="46.56887" lon="-1.82027">
        <ele>12.29</ele>
      </trkpt>
      <trkpt lat="46.56877" lon="-1.82019">
        <ele>11.99</ele>
      </trkpt>
      <trkpt lat="46.56866" lon="-1.82008">
        <ele>11.54</ele>
      </trkpt>
      <trkpt lat="46.56857" lon="-1.81995">
        <ele>11.12</ele>
      </trkpt>
      <trkpt lat="46.56851" lon="-1.81985">
        <ele>11.31</ele>
      </trkpt>
      <trkpt lat="46.5685" lon="-1.81974">
        <ele>11.11</ele>
      </trkpt>
      <trkpt lat="46.56847" lon="-1.81955">
        <ele>10.86</ele>
      </trkpt>
      <trkpt lat="46.56847" lon="-1.81942">
        <ele>10.49</ele>
      </trkpt>
      <trkpt lat="46.56848" lon="-1.81925">
        <ele>10</ele>
      </trkpt>
      <trkpt lat="46.56847" lon="-1.81909">
        <ele>9.75</ele>
      </trkpt>
      <trkpt lat="46.56847" lon="-1.81895">
        <ele>9.63</ele>
      </trkpt>
      <trkpt lat="46.56842" lon="-1.81871">
        <ele>9.74</ele>
      </trkpt>
      <trkpt lat="46.56839" lon="-1.81853">
        <ele>9.74</ele>
      </trkpt>
      <trkpt lat="46.56831" lon="-1.81823">
        <ele>9.57</ele>
      </trkpt>
      <trkpt lat="46.56818" lon="-1.81805">
        <ele>9.39</ele>
      </trkpt>
      <trkpt lat="46.56809" lon="-1.81793">
        <ele>9.37</ele>
      </trkpt>
      <trkpt lat="46.56804" lon="-1.81786">
        <ele>9.39</ele>
      </trkpt>
      <trkpt lat="46.56799" lon="-1.81776">
        <ele>9.35</ele>
      </trkpt>
      <trkpt lat="46.56792" lon="-1.81763">
        <ele>9.36</ele>
      </trkpt>
      <trkpt lat="46.56777" lon="-1.81744">
        <ele>9.75</ele>
      </trkpt>
      <trkpt lat="46.56759" lon="-1.8172">
        <ele>9.63</ele>
      </trkpt>
      <trkpt lat="46.56748" lon="-1.81705">
        <ele>9.39</ele>
      </trkpt>
      <trkpt lat="46.56728" lon="-1.81684">
        <ele>8.99</ele>
      </trkpt>
      <trkpt lat="46.56709" lon="-1.81664">
        <ele>8.84</ele>
      </trkpt>
      <trkpt lat="46.56696" lon="-1.81646">
        <ele>8.76</ele>
      </trkpt>
      <trkpt lat="46.56682" lon="-1.81625">
        <ele>8.67</ele>
      </trkpt>
      <trkpt lat="46.56671" lon="-1.81605">
        <ele>8.55</ele>
      </trkpt>
      <trkpt lat="46.56664" lon="-1.8159">
        <ele>8.24</ele>
      </trkpt>
      <trkpt lat="46.56658" lon="-1.81566">
        <ele>7.7</ele>
      </trkpt>
      <trkpt lat="46.56655" lon="-1.8155">
        <ele>7.48</ele>
      </trkpt>
      <trkpt lat="46.56642" lon="-1.81502">
        <ele>7.51</ele>
      </trkpt>
      <trkpt lat="46.56631" lon="-1.81451">
        <ele>6.92</ele>
      </trkpt>
      <trkpt lat="46.56619" lon="-1.81426">
        <ele>7.16</ele>
      </trkpt>
      <trkpt lat="46.56605" lon="-1.81403">
        <ele>7.59</ele>
      </trkpt>
      <trkpt lat="46.56599" lon="-1.81394">
        <ele>7.61</ele>
      </trkpt>
      <trkpt lat="46.56595" lon="-1.81383">
        <ele>7.44</ele>
      </trkpt>
      <trkpt lat="46.56587" lon="-1.8137">
        <ele>7.46</ele>
      </trkpt>
      <trkpt lat="46.56577" lon="-1.81352">
        <ele>7.76</ele>
      </trkpt>
      <trkpt lat="46.56557" lon="-1.8134">
        <ele>9.97</ele>
      </trkpt>
      <trkpt lat="46.56545" lon="-1.81329">
        <ele>11.21</ele>
      </trkpt>
      <trkpt lat="46.56531" lon="-1.81319">
        <ele>12.54</ele>
      </trkpt>
      <trkpt lat="46.56516" lon="-1.8131">
        <ele>13.93</ele>
      </trkpt>
      <trkpt lat="46.56509" lon="-1.81301">
        <ele>14.13</ele>
      </trkpt>
      <trkpt lat="46.565" lon="-1.81279">
        <ele>13.52</ele>
      </trkpt>
      <trkpt lat="46.56488" lon="-1.81258">
        <ele>13.19</ele>
      </trkpt>
      <trkpt lat="46.56477" lon="-1.81242">
        <ele>13.27</ele>
      </trkpt>
      <trkpt lat="46.56444" lon="-1.81205">
        <ele>12.99</ele>
      </trkpt>
      <trkpt lat="46.56424" lon="-1.8119">
        <ele>13.31</ele>
      </trkpt>
      <trkpt lat="46.56412" lon="-1.81171">
        <ele>11.88</ele>
      </trkpt>
      <trkpt lat="46.56408" lon="-1.81159">
        <ele>11.15</ele>
      </trkpt>
      <trkpt lat="46.56404" lon="-1.81147">
        <ele>10.63</ele>
      </trkpt>
      <trkpt lat="46.564" lon="-1.81137">
        <ele>10.33</ele>
      </trkpt>
      <trkpt lat="46.56394" lon="-1.81131">
        <ele>10.51</ele>
      </trkpt>
      <trkpt lat="46.56389" lon="-1.8112">
        <ele>10.37</ele>
      </trkpt>
      <trkpt lat="46.5638" lon="-1.811">
        <ele>10.18</ele>
      </trkpt>
      <trkpt lat="46.56375" lon="-1.81078">
        <ele>9.8</ele>
      </trkpt>
      <trkpt lat="46.56366" lon="-1.81056">
        <ele>10.06</ele>
      </trkpt>
      <trkpt lat="46.56352" lon="-1.81031">
        <ele>10.52</ele>
      </trkpt>
      <trkpt lat="46.56341" lon="-1.80997">
        <ele>10.01</ele>
      </trkpt>
      <trkpt lat="46.56319" lon="-1.80994">
        <ele>10.82</ele>
      </trkpt>
      <trkpt lat="46.5629" lon="-1.80992">
        <ele>11.38</ele>
      </trkpt>
      <trkpt lat="46.56238" lon="-1.80991">
        <ele>11.33</ele>
      </trkpt>
      <trkpt lat="46.5619" lon="-1.80995">
        <ele>7.7</ele>
      </trkpt>
      <trkpt lat="46.56167" lon="-1.81026">
        <ele>8.25</ele>
      </trkpt>
      <trkpt lat="46.56156" lon="-1.81074">
        <ele>11.61</ele>
      </trkpt>
      <trkpt lat="46.56147" lon="-1.8108">
        <ele>11.58</ele>
      </trkpt>
      <trkpt lat="46.56139" lon="-1.81081">
        <ele>11.13</ele>
      </trkpt>
      <trkpt lat="46.56125" lon="-1.81076">
        <ele>10</ele>
      </trkpt>
      <trkpt lat="46.56116" lon="-1.81069">
        <ele>9.06</ele>
      </trkpt>
      <trkpt lat="46.56107" lon="-1.81059">
        <ele>7.99</ele>
      </trkpt>
      <trkpt lat="46.56092" lon="-1.81044">
        <ele>6.48</ele>
      </trkpt>
      <trkpt lat="46.56076" lon="-1.81025">
        <ele>5.32</ele>
      </trkpt>
      <trkpt lat="46.56057" lon="-1.81002">
        <ele>4.46</ele>
      </trkpt>
      <trkpt lat="46.56046" lon="-1.80989">
        <ele>4.32</ele>
      </trkpt>
      <trkpt lat="46.56034" lon="-1.80978">
        <ele>4.33</ele>
      </trkpt>
      <trkpt lat="46.56017" lon="-1.80968">
        <ele>4.42</ele>
      </trkpt>
      <trkpt lat="46.56007" lon="-1.80962">
        <ele>4.45</ele>
      </trkpt>
      <trkpt lat="46.55992" lon="-1.80952">
        <ele>4.73</ele>
      </trkpt>
      <trkpt lat="46.55986" lon="-1.80946">
        <ele>4.89</ele>
      </trkpt>
      <trkpt lat="46.5597" lon="-1.80938">
        <ele>5.26</ele>
      </trkpt>
      <trkpt lat="46.55943" lon="-1.80927">
        <ele>5.75</ele>
      </trkpt>
      <trkpt lat="46.55925" lon="-1.80919">
        <ele>5.91</ele>
      </trkpt>
      <trkpt lat="46.55912" lon="-1.80912">
        <ele>5.99</ele>
      </trkpt>
      <trkpt lat="46.55892" lon="-1.80896">
        <ele>5.98</ele>
      </trkpt>
      <trkpt lat="46.55882" lon="-1.80888">
        <ele>5.93</ele>
      </trkpt>
      <trkpt lat="46.55875" lon="-1.80881">
        <ele>5.86</ele>
      </trkpt>
      <trkpt lat="46.55866" lon="-1.80875">
        <ele>5.81</ele>
      </trkpt>
      <trkpt lat="46.55859" lon="-1.80874">
        <ele>5.82</ele>
      </trkpt>
      <trkpt lat="46.55847" lon="-1.80872">
        <ele>5.85</ele>
      </trkpt>
      <trkpt lat="46.55825" lon="-1.80873">
        <ele>5.9</ele>
      </trkpt>
      <trkpt lat="46.55815" lon="-1.80873">
        <ele>5.84</ele>
      </trkpt>
      <trkpt lat="46.55796" lon="-1.80873">
        <ele>5.73</ele>
      </trkpt>
      <trkpt lat="46.55784" lon="-1.80873">
        <ele>5.66</ele>
      </trkpt>
      <trkpt lat="46.55779" lon="-1.80874">
        <ele>5.66</ele>
      </trkpt>
      <trkpt lat="46.5577" lon="-1.80889">
        <ele>5.82</ele>
      </trkpt>
      <trkpt lat="46.55762" lon="-1.80901">
        <ele>5.93</ele>
      </trkpt>
      <trkpt lat="46.55757" lon="-1.80911">
        <ele>6.01</ele>
      </trkpt>
      <trkpt lat="46.55724" lon="-1.80969">
        <ele>7.29</ele>
      </trkpt>
      <trkpt lat="46.5572" lon="-1.80975">
        <ele>7.35</ele>
      </trkpt>
      <trkpt lat="46.55701" lon="-1.81009">
        <ele>7.44</ele>
      </trkpt>
      <trkpt lat="46.55694" lon="-1.81021">
        <ele>7.48</ele>
      </trkpt>
      <trkpt lat="46.55667" lon="-1.8106">
        <ele>7.45</ele>
      </trkpt>
      <trkpt lat="46.5565" lon="-1.81096">
        <ele>7.67</ele>
      </trkpt>
      <trkpt lat="46.55651" lon="-1.81107">
        <ele>7.93</ele>
      </trkpt>
      <trkpt lat="46.55648" lon="-1.8113">
        <ele>8.34</ele>
      </trkpt>
      <trkpt lat="46.55615" lon="-1.81197">
        <ele>8.18</ele>
      </trkpt>
      <trkpt lat="46.55582" lon="-1.81264">
        <ele>6.97</ele>
      </trkpt>
      <trkpt lat="46.55591" lon="-1.81283">
        <ele>7.59</ele>
      </trkpt>
      <trkpt lat="46.55605" lon="-1.81308">
        <ele>8.75</ele>
      </trkpt>
      <trkpt lat="46.55616" lon="-1.81322">
        <ele>9.66</ele>
      </trkpt>
      <trkpt lat="46.55629" lon="-1.81337">
        <ele>10.95</ele>
      </trkpt>
      <trkpt lat="46.55632" lon="-1.81348">
        <ele>11.66</ele>
      </trkpt>
      <trkpt lat="46.55632" lon="-1.81359">
        <ele>12.05</ele>
      </trkpt>
      <trkpt lat="46.55633" lon="-1.8137">
        <ele>12.61</ele>
      </trkpt>
      <trkpt lat="46.55623" lon="-1.81402">
        <ele>13.28</ele>
      </trkpt>
      <trkpt lat="46.55614" lon="-1.81425">
        <ele>13.55</ele>
      </trkpt>
      <trkpt lat="46.55607" lon="-1.81447">
        <ele>13.56</ele>
      </trkpt>
      <trkpt lat="46.556" lon="-1.8148">
        <ele>13.85</ele>
      </trkpt>
      <trkpt lat="46.55593" lon="-1.81499">
        <ele>14.1</ele>
      </trkpt>
      <trkpt lat="46.55575" lon="-1.81531">
        <ele>14.15</ele>
      </trkpt>
      <trkpt lat="46.55566" lon="-1.81548">
        <ele>13.98</ele>
      </trkpt>
      <trkpt lat="46.5556" lon="-1.81561">
        <ele>13.92</ele>
      </trkpt>
      <trkpt lat="46.5555" lon="-1.81579">
        <ele>13.86</ele>
      </trkpt>
      <trkpt lat="46.55532" lon="-1.81584">
        <ele>12.93</ele>
      </trkpt>
      <trkpt lat="46.55523" lon="-1.81597">
        <ele>13.47</ele>
      </trkpt>
      <trkpt lat="46.55521" lon="-1.81608">
        <ele>14.23</ele>
      </trkpt>
      <trkpt lat="46.55515" lon="-1.81616">
        <ele>14.71</ele>
      </trkpt>
      <trkpt lat="46.55502" lon="-1.81623">
        <ele>14.89</ele>
      </trkpt>
      <trkpt lat="46.55492" lon="-1.81621">
        <ele>14.22</ele>
      </trkpt>
      <trkpt lat="46.55481" lon="-1.81624">
        <ele>13.85</ele>
      </trkpt>
      <trkpt lat="46.55476" lon="-1.8162">
        <ele>13.16</ele>
      </trkpt>
      <trkpt lat="46.5547" lon="-1.81586">
        <ele>9.1</ele>
      </trkpt>
      <trkpt lat="46.5547" lon="-1.81576">
        <ele>8.62</ele>
      </trkpt>
      <trkpt lat="46.55462" lon="-1.81557">
        <ele>7.6</ele>
      </trkpt>
      <trkpt lat="46.55448" lon="-1.81523">
        <ele>6.18</ele>
      </trkpt>
      <trkpt lat="46.5542" lon="-1.8147">
        <ele>4.7</ele>
      </trkpt>
      <trkpt lat="46.55394" lon="-1.81433">
        <ele>4.47</ele>
      </trkpt>
      <trkpt lat="46.55366" lon="-1.81392">
        <ele>4.31</ele>
      </trkpt>
      <trkpt lat="46.55345" lon="-1.81358">
        <ele>4.16</ele>
      </trkpt>
      <trkpt lat="46.55329" lon="-1.81326">
        <ele>4</ele>
      </trkpt>
      <trkpt lat="46.55324" lon="-1.81302">
        <ele>4</ele>
      </trkpt>
      <trkpt lat="46.55318" lon="-1.81284">
        <ele>4</ele>
      </trkpt>
      <trkpt lat="46.55316" lon="-1.81272">
        <ele>4</ele>
      </trkpt>
      <trkpt lat="46.55309" lon="-1.81261">
        <ele>4</ele>
      </trkpt>
      <trkpt lat="46.553" lon="-1.81239">
        <ele>4.05</ele>
      </trkpt>
      <trkpt lat="46.55296" lon="-1.81227">
        <ele>4.13</ele>
      </trkpt>
      <trkpt lat="46.55283" lon="-1.81216">
        <ele>4.25</ele>
      </trkpt>
      <trkpt lat="46.55261" lon="-1.812">
        <ele>4.53</ele>
      </trkpt>
      <trkpt lat="46.55234" lon="-1.8118">
        <ele>4.66</ele>
      </trkpt>
      <trkpt lat="46.55204" lon="-1.81162">
        <ele>4.43</ele>
      </trkpt>
      <trkpt lat="46.55193" lon="-1.81152">
        <ele>4.26</ele>
      </trkpt>
      <trkpt lat="46.55184" lon="-1.81141">
        <ele>4.14</ele>
      </trkpt>
      <trkpt lat="46.55178" lon="-1.81134">
        <ele>4.08</ele>
      </trkpt>
      <trkpt lat="46.55172" lon="-1.81129">
        <ele>4.03</ele>
      </trkpt>
      <trkpt lat="46.55167" lon="-1.81123">
        <ele>4</ele>
      </trkpt>
      <trkpt lat="46.55141" lon="-1.81093">
        <ele>3.41</ele>
      </trkpt>
      <trkpt lat="46.55113" lon="-1.81065">
        <ele>2.92</ele>
      </trkpt>
      <trkpt lat="46.55089" lon="-1.81037">
        <ele>2.69</ele>
      </trkpt>
      <trkpt lat="46.55065" lon="-1.8101">
        <ele>3.13</ele>
      </trkpt>
      <trkpt lat="46.55057" lon="-1.81001">
        <ele>3.31</ele>
      </trkpt>
      <trkpt lat="46.55046" lon="-1.80992">
        <ele>3.51</ele>
      </trkpt>
      <trkpt lat="46.55033" lon="-1.80991">
        <ele>3.65</ele>
      </trkpt>
      <trkpt lat="46.55021" lon="-1.81002">
        <ele>3.74</ele>
      </trkpt>
      <trkpt lat="46.55007" lon="-1.8103">
        <ele>3.89</ele>
      </trkpt>
      <trkpt lat="46.54998" lon="-1.81042">
        <ele>3.99</ele>
      </trkpt>
      <trkpt lat="46.54992" lon="-1.81043">
        <ele>3.95</ele>
      </trkpt>
      <trkpt lat="46.54979" lon="-1.81035">
        <ele>3.89</ele>
      </trkpt>
      <trkpt lat="46.54964" lon="-1.81021">
        <ele>3.89</ele>
      </trkpt>
      <trkpt lat="46.54956" lon="-1.81013">
        <ele>3.92</ele>
      </trkpt>
      <trkpt lat="46.54935" lon="-1.80994">
        <ele>4.11</ele>
      </trkpt>
      <trkpt lat="46.54923" lon="-1.80984">
        <ele>4.36</ele>
      </trkpt>
      <trkpt lat="46.54912" lon="-1.80971">
        <ele>4.77</ele>
      </trkpt>
      <trkpt lat="46.54899" lon="-1.8096">
        <ele>5.18</ele>
      </trkpt>
      <trkpt lat="46.54877" lon="-1.80938">
        <ele>5.74</ele>
      </trkpt>
      <trkpt lat="46.54863" lon="-1.80923">
        <ele>5.94</ele>
      </trkpt>
      <trkpt lat="46.54824" lon="-1.80883">
        <ele>5.53</ele>
      </trkpt>
      <trkpt lat="46.54814" lon="-1.80903">
        <ele>5.64</ele>
      </trkpt>
      <trkpt lat="46.54809" lon="-1.80913">
        <ele>5.68</ele>
      </trkpt>
      <trkpt lat="46.54804" lon="-1.80925">
        <ele>5.62</ele>
      </trkpt>
      <trkpt lat="46.54798" lon="-1.80938">
        <ele>5.47</ele>
      </trkpt>
      <trkpt lat="46.5479" lon="-1.80955">
        <ele>5.25</ele>
      </trkpt>
      <trkpt lat="46.54781" lon="-1.80973">
        <ele>4.95</ele>
      </trkpt>
      <trkpt lat="46.54776" lon="-1.80987">
        <ele>4.74</ele>
      </trkpt>
      <trkpt lat="46.5477" lon="-1.80997">
        <ele>4.52</ele>
      </trkpt>
      <trkpt lat="46.54764" lon="-1.81004">
        <ele>4.5</ele>
      </trkpt>
      <trkpt lat="46.54759" lon="-1.81012">
        <ele>4.84</ele>
      </trkpt>
      <trkpt lat="46.54755" lon="-1.81021">
        <ele>5.27</ele>
      </trkpt>
      <trkpt lat="46.54751" lon="-1.81033">
        <ele>5.98</ele>
      </trkpt>
      <trkpt lat="46.54745" lon="-1.81048">
        <ele>6.95</ele>
      </trkpt>
      <trkpt lat="46.5474" lon="-1.81061">
        <ele>7.78</ele>
      </trkpt>
      <trkpt lat="46.54733" lon="-1.81075">
        <ele>8.73</ele>
      </trkpt>
      <trkpt lat="46.54723" lon="-1.81105">
        <ele>10.74</ele>
      </trkpt>
      <trkpt lat="46.54691" lon="-1.81091">
        <ele>10.15</ele>
      </trkpt>
      <trkpt lat="46.54657" lon="-1.81083">
        <ele>10.39</ele>
      </trkpt>
      <trkpt lat="46.54622" lon="-1.8106">
        <ele>10.18</ele>
      </trkpt>
      <trkpt lat="46.5459" lon="-1.81038">
        <ele>8.98</ele>
      </trkpt>
      <trkpt lat="46.5457" lon="-1.81023">
        <ele>7.67</ele>
      </trkpt>
      <trkpt lat="46.54557" lon="-1.81011">
        <ele>6.55</ele>
      </trkpt>
      <trkpt lat="46.54549" lon="-1.80999">
        <ele>5.38</ele>
      </trkpt>
      <trkpt lat="46.54542" lon="-1.81003">
        <ele>5.84</ele>
      </trkpt>
      <trkpt lat="46.54536" lon="-1.81017">
        <ele>7.36</ele>
      </trkpt>
      <trkpt lat="46.5453" lon="-1.81022">
        <ele>8.05</ele>
      </trkpt>
      <trkpt lat="46.54522" lon="-1.81025">
        <ele>8.48</ele>
      </trkpt>
      <trkpt lat="46.54515" lon="-1.81028">
        <ele>8.81</ele>
      </trkpt>
      <trkpt lat="46.54508" lon="-1.81026">
        <ele>8.72</ele>
      </trkpt>
      <trkpt lat="46.54495" lon="-1.81024">
        <ele>8.46</ele>
      </trkpt>
      <trkpt lat="46.54483" lon="-1.81022">
        <ele>8.06</ele>
      </trkpt>
      <trkpt lat="46.54471" lon="-1.81022">
        <ele>7.89</ele>
      </trkpt>
      <trkpt lat="46.54462" lon="-1.81021">
        <ele>7.72</ele>
      </trkpt>
      <trkpt lat="46.54449" lon="-1.81024">
        <ele>7.75</ele>
      </trkpt>
      <trkpt lat="46.5444" lon="-1.8103">
        <ele>7.92</ele>
      </trkpt>
      <trkpt lat="46.5443" lon="-1.81036">
        <ele>8.06</ele>
      </trkpt>
      <trkpt lat="46.54423" lon="-1.81037">
        <ele>7.95</ele>
      </trkpt>
      <trkpt lat="46.54418" lon="-1.81026">
        <ele>7.28</ele>
      </trkpt>
      <trkpt lat="46.54415" lon="-1.81019">
        <ele>6.83</ele>
      </trkpt>
      <trkpt lat="46.5441" lon="-1.81007">
        <ele>6.08</ele>
      </trkpt>
      <trkpt lat="46.54403" lon="-1.80989">
        <ele>5.27</ele>
      </trkpt>
      <trkpt lat="46.54396" lon="-1.8098">
        <ele>4.84</ele>
      </trkpt>
      <trkpt lat="46.54389" lon="-1.80972">
        <ele>4.44</ele>
      </trkpt>
      <trkpt lat="46.54382" lon="-1.80964">
        <ele>4.07</ele>
      </trkpt>
      <trkpt lat="46.54379" lon="-1.80957">
        <ele>3.86</ele>
      </trkpt>
      <trkpt lat="46.54377" lon="-1.80947">
        <ele>3.6</ele>
      </trkpt>
      <trkpt lat="46.54373" lon="-1.80933">
        <ele>3.25</ele>
      </trkpt>
      <trkpt lat="46.54371" lon="-1.80926">
        <ele>3.08</ele>
      </trkpt>
      <trkpt lat="46.54369" lon="-1.80913">
        <ele>2.82</ele>
      </trkpt>
      <trkpt lat="46.54369" lon="-1.80903">
        <ele>2.7</ele>
      </trkpt>
      <trkpt lat="46.5437" lon="-1.8089">
        <ele>2.55</ele>
      </trkpt>
      <trkpt lat="46.5437" lon="-1.8088">
        <ele>2.43</ele>
      </trkpt>
      <trkpt lat="46.54369" lon="-1.80869">
        <ele>2.28</ele>
      </trkpt>
      <trkpt lat="46.5437" lon="-1.8086">
        <ele>2.19</ele>
      </trkpt>
      <trkpt lat="46.5437" lon="-1.80847">
        <ele>2.04</ele>
      </trkpt>
      <trkpt lat="46.54368" lon="-1.80833">
        <ele>1.83</ele>
      </trkpt>
      <trkpt lat="46.54364" lon="-1.8082">
        <ele>1.57</ele>
      </trkpt>
      <trkpt lat="46.54358" lon="-1.80811">
        <ele>1.33</ele>
      </trkpt>
      <trkpt lat="46.54353" lon="-1.80804">
        <ele>1.11</ele>
      </trkpt>
      <trkpt lat="46.5435" lon="-1.80789">
        <ele>0.87</ele>
      </trkpt>
      <trkpt lat="46.54349" lon="-1.80775">
        <ele>0.67</ele>
      </trkpt>
      <trkpt lat="46.54348" lon="-1.80762">
        <ele>0.5</ele>
      </trkpt>
      <trkpt lat="46.54348" lon="-1.80752">
        <ele>0.38</ele>
      </trkpt>
      <trkpt lat="46.54348" lon="-1.80743">
        <ele>0.41</ele>
      </trkpt>
      <trkpt lat="46.54348" lon="-1.80732">
        <ele>0.5</ele>
      </trkpt>
      <trkpt lat="46.54348" lon="-1.80722">
        <ele>0.58</ele>
      </trkpt>
      <trkpt lat="46.54349" lon="-1.80711">
        <ele>0.67</ele>
      </trkpt>
      <trkpt lat="46.5435" lon="-1.807">
        <ele>0.76</ele>
      </trkpt>
      <trkpt lat="46.54353" lon="-1.8069">
        <ele>0.85</ele>
      </trkpt>
      <trkpt lat="46.54359" lon="-1.80677">
        <ele>0.95</ele>
      </trkpt>
      <trkpt lat="46.54362" lon="-1.8067">
        <ele>0.99</ele>
      </trkpt>
      <trkpt lat="46.54366" lon="-1.80663">
        <ele>1.04</ele>
      </trkpt>
      <trkpt lat="46.54368" lon="-1.80649">
        <ele>1.21</ele>
      </trkpt>
      <trkpt lat="46.54368" lon="-1.8064">
        <ele>1.32</ele>
      </trkpt>
      <trkpt lat="46.54367" lon="-1.80626">
        <ele>1.49</ele>
      </trkpt>
      <trkpt lat="46.54364" lon="-1.80613">
        <ele>1.65</ele>
      </trkpt>
      <trkpt lat="46.54361" lon="-1.80598">
        <ele>1.82</ele>
      </trkpt>
      <trkpt lat="46.54357" lon="-1.80589">
        <ele>1.93</ele>
      </trkpt>
      <trkpt lat="46.54355" lon="-1.80581">
        <ele>2.01</ele>
      </trkpt>
      <trkpt lat="46.54351" lon="-1.80571">
        <ele>2.03</ele>
      </trkpt>
      <trkpt lat="46.54347" lon="-1.80557">
        <ele>2.05</ele>
      </trkpt>
      <trkpt lat="46.54344" lon="-1.80544">
        <ele>2.06</ele>
      </trkpt>
      <trkpt lat="46.54341" lon="-1.80532">
        <ele>2.06</ele>
      </trkpt>
      <trkpt lat="46.5434" lon="-1.80522">
        <ele>2.06</ele>
      </trkpt>
      <trkpt lat="46.5434" lon="-1.8051">
        <ele>2.07</ele>
      </trkpt>
      <trkpt lat="46.5434" lon="-1.80496">
        <ele>2.08</ele>
      </trkpt>
      <trkpt lat="46.54339" lon="-1.80482">
        <ele>2.07</ele>
      </trkpt>
      <trkpt lat="46.54335" lon="-1.80467">
        <ele>2.02</ele>
      </trkpt>
      <trkpt lat="46.5433" lon="-1.80453">
        <ele>1.94</ele>
      </trkpt>
      <trkpt lat="46.54327" lon="-1.80444">
        <ele>1.87</ele>
      </trkpt>
      <trkpt lat="46.54322" lon="-1.80436">
        <ele>1.77</ele>
      </trkpt>
      <trkpt lat="46.54318" lon="-1.80419">
        <ele>1.64</ele>
      </trkpt>
      <trkpt lat="46.54318" lon="-1.80408">
        <ele>1.64</ele>
      </trkpt>
      <trkpt lat="46.54318" lon="-1.80399">
        <ele>1.63</ele>
      </trkpt>
      <trkpt lat="46.54316" lon="-1.80389">
        <ele>1.59</ele>
      </trkpt>
      <trkpt lat="46.54316" lon="-1.80379">
        <ele>1.58</ele>
      </trkpt>
      <trkpt lat="46.54314" lon="-1.8037">
        <ele>1.54</ele>
      </trkpt>
      <trkpt lat="46.54312" lon="-1.80359">
        <ele>1.49</ele>
      </trkpt>
      <trkpt lat="46.54308" lon="-1.80346">
        <ele>1.4</ele>
      </trkpt>
      <trkpt lat="46.54304" lon="-1.80336">
        <ele>1.3</ele>
      </trkpt>
      <trkpt lat="46.54301" lon="-1.80329">
        <ele>1.31</ele>
      </trkpt>
      <trkpt lat="46.54298" lon="-1.80323">
        <ele>1.34</ele>
      </trkpt>
      <trkpt lat="46.54295" lon="-1.80312">
        <ele>1.45</ele>
      </trkpt>
      <trkpt lat="46.54293" lon="-1.80299">
        <ele>1.65</ele>
      </trkpt>
      <trkpt lat="46.54294" lon="-1.8029">
        <ele>1.82</ele>
      </trkpt>
      <trkpt lat="46.54296" lon="-1.8028">
        <ele>2.03</ele>
      </trkpt>
      <trkpt lat="46.543" lon="-1.80273">
        <ele>2.21</ele>
      </trkpt>
      <trkpt lat="46.54302" lon="-1.80265">
        <ele>2.38</ele>
      </trkpt>
      <trkpt lat="46.54299" lon="-1.80249">
        <ele>2.6</ele>
      </trkpt>
      <trkpt lat="46.54294" lon="-1.80229">
        <ele>2.65</ele>
      </trkpt>
      <trkpt lat="46.54298" lon="-1.80222">
        <ele>2.71</ele>
      </trkpt>
      <trkpt lat="46.54302" lon="-1.80217">
        <ele>2.77</ele>
      </trkpt>
      <trkpt lat="46.54305" lon="-1.80208">
        <ele>2.83</ele>
      </trkpt>
      <trkpt lat="46.54307" lon="-1.80201">
        <ele>2.87</ele>
      </trkpt>
      <trkpt lat="46.54305" lon="-1.80194">
        <ele>2.89</ele>
      </trkpt>
      <trkpt lat="46.543" lon="-1.80188">
        <ele>2.9</ele>
      </trkpt>
      <trkpt lat="46.54294" lon="-1.80179">
        <ele>2.93</ele>
      </trkpt>
      <trkpt lat="46.54288" lon="-1.80169">
        <ele>2.98</ele>
      </trkpt>
      <trkpt lat="46.54282" lon="-1.80162">
        <ele>3.02</ele>
      </trkpt>
      <trkpt lat="46.54274" lon="-1.80157">
        <ele>3.03</ele>
      </trkpt>
      <trkpt lat="46.54265" lon="-1.80159">
        <ele>3.02</ele>
      </trkpt>
      <trkpt lat="46.54257" lon="-1.80164">
        <ele>3</ele>
      </trkpt>
      <trkpt lat="46.54248" lon="-1.80171">
        <ele>2.93</ele>
      </trkpt>
      <trkpt lat="46.54236" lon="-1.8018">
        <ele>2.63</ele>
      </trkpt>
      <trkpt lat="46.54226" lon="-1.80188">
        <ele>2.38</ele>
      </trkpt>
      <trkpt lat="46.54217" lon="-1.80194">
        <ele>2.14</ele>
      </trkpt>
      <trkpt lat="46.5421" lon="-1.80199">
        <ele>1.95</ele>
      </trkpt>
      <trkpt lat="46.54205" lon="-1.80202">
        <ele>1.81</ele>
      </trkpt>
      <trkpt lat="46.542" lon="-1.80204">
        <ele>1.68</ele>
      </trkpt>
      <trkpt lat="46.54189" lon="-1.80206">
        <ele>1.46</ele>
      </trkpt>
      <trkpt lat="46.54177" lon="-1.80207">
        <ele>1.22</ele>
      </trkpt>
      <trkpt lat="46.54168" lon="-1.80207">
        <ele>1.07</ele>
      </trkpt>
      <trkpt lat="46.5416" lon="-1.80207">
        <ele>1.07</ele>
      </trkpt>
      <trkpt lat="46.54151" lon="-1.80207">
        <ele>1.13</ele>
      </trkpt>
      <trkpt lat="46.54142" lon="-1.80205">
        <ele>1.21</ele>
      </trkpt>
      <trkpt lat="46.54134" lon="-1.80203">
        <ele>1.31</ele>
      </trkpt>
      <trkpt lat="46.54125" lon="-1.802">
        <ele>1.39</ele>
      </trkpt>
      <trkpt lat="46.54114" lon="-1.80197">
        <ele>1.5</ele>
      </trkpt>
      <trkpt lat="46.54104" lon="-1.80192">
        <ele>1.62</ele>
      </trkpt>
      <trkpt lat="46.54097" lon="-1.80191">
        <ele>1.66</ele>
      </trkpt>
      <trkpt lat="46.54086" lon="-1.8019">
        <ele>1.72</ele>
      </trkpt>
      <trkpt lat="46.54076" lon="-1.80189">
        <ele>1.73</ele>
      </trkpt>
      <trkpt lat="46.54067" lon="-1.80189">
        <ele>1.73</ele>
      </trkpt>
      <trkpt lat="46.5406" lon="-1.80188">
        <ele>1.74</ele>
      </trkpt>
      <trkpt lat="46.54053" lon="-1.80188">
        <ele>1.74</ele>
      </trkpt>
      <trkpt lat="46.54046" lon="-1.80188">
        <ele>1.75</ele>
      </trkpt>
      <trkpt lat="46.54039" lon="-1.80188">
        <ele>1.75</ele>
      </trkpt>
      <trkpt lat="46.54033" lon="-1.80185">
        <ele>1.78</ele>
      </trkpt>
      <trkpt lat="46.54028" lon="-1.8019">
        <ele>1.72</ele>
      </trkpt>
      <trkpt lat="46.54028" lon="-1.8019">
        <ele>1.72</ele>
      </trkpt>
      <trkpt lat="46.54026" lon="-1.80191">
        <ele>1.71</ele>
      </trkpt>
      <trkpt lat="46.54022" lon="-1.80195">
        <ele>1.66</ele>
      </trkpt>
      <trkpt lat="46.5402" lon="-1.80205">
        <ele>1.54</ele>
      </trkpt>
      <trkpt lat="46.54017" lon="-1.80213">
        <ele>1.45</ele>
      </trkpt>
      <trkpt lat="46.54012" lon="-1.8022">
        <ele>1.36</ele>
      </trkpt>
      <trkpt lat="46.54006" lon="-1.80227">
        <ele>1.27</ele>
      </trkpt>
      <trkpt lat="46.53989" lon="-1.80253">
        <ele>0.97</ele>
      </trkpt>
      <trkpt lat="46.53975" lon="-1.8027">
        <ele>0.83</ele>
      </trkpt>
      <trkpt lat="46.53961" lon="-1.80285">
        <ele>0.78</ele>
      </trkpt>
      <trkpt lat="46.53946" lon="-1.80302">
        <ele>0.78</ele>
      </trkpt>
      <trkpt lat="46.53928" lon="-1.80318">
        <ele>0.88</ele>
      </trkpt>
      <trkpt lat="46.53918" lon="-1.80327">
        <ele>0.98</ele>
      </trkpt>
      <trkpt lat="46.53874" lon="-1.80359">
        <ele>1.2</ele>
      </trkpt>
      <trkpt lat="46.53859" lon="-1.80371">
        <ele>1.07</ele>
      </trkpt>
      <trkpt lat="46.53844" lon="-1.80381">
        <ele>0.89</ele>
      </trkpt>
      <trkpt lat="46.5383" lon="-1.8039">
        <ele>0.61</ele>
      </trkpt>
      <trkpt lat="46.5382" lon="-1.80398">
        <ele>0.38</ele>
      </trkpt>
      <trkpt lat="46.53797" lon="-1.80412">
        <ele>0.07</ele>
      </trkpt>
      <trkpt lat="46.53785" lon="-1.80417">
        <ele>2.7</ele>
      </trkpt>
      <trkpt lat="46.53774" lon="-1.80421">
        <ele>2.6</ele>
      </trkpt>
      <trkpt lat="46.53762" lon="-1.80427">
        <ele>1.9</ele>
      </trkpt>
      <trkpt lat="46.53746" lon="-1.80435">
        <ele>0.01</ele>
      </trkpt>
      <trkpt lat="46.5373" lon="-1.80441">
        <ele>0.07</ele>
      </trkpt>
      <trkpt lat="46.53714" lon="-1.80449">
        <ele>0.17</ele>
      </trkpt>
      <trkpt lat="46.53687" lon="-1.80463">
        <ele>0.42</ele>
      </trkpt>
      <trkpt lat="46.53669" lon="-1.80471">
        <ele>0.64</ele>
      </trkpt>
      <trkpt lat="46.53655" lon="-1.80477">
        <ele>0.58</ele>
      </trkpt>
      <trkpt lat="46.53643" lon="-1.8048">
        <ele>0.47</ele>
      </trkpt>
      <trkpt lat="46.53633" lon="-1.80483">
        <ele>0.38</ele>
      </trkpt>
      <trkpt lat="46.53619" lon="-1.8049">
        <ele>0.3</ele>
      </trkpt>
      <trkpt lat="46.53594" lon="-1.80516">
        <ele>0.29</ele>
      </trkpt>
      <trkpt lat="46.53582" lon="-1.80526">
        <ele>0.31</ele>
      </trkpt>
      <trkpt lat="46.53562" lon="-1.80541">
        <ele>0.37</ele>
      </trkpt>
      <trkpt lat="46.53539" lon="-1.80558">
        <ele>0.12</ele>
      </trkpt>
      <trkpt lat="46.5352" lon="-1.80572">
        <ele>-0.35</ele>
      </trkpt>
      <trkpt lat="46.53499" lon="-1.80589">
        <ele>-0.92</ele>
      </trkpt>
      <trkpt lat="46.53478" lon="-1.80603">
        <ele>-0.44</ele>
      </trkpt>
      <trkpt lat="46.53466" lon="-1.8061">
        <ele>-0.14</ele>
      </trkpt>
      <trkpt lat="46.53448" lon="-1.80621">
        <ele>0.36</ele>
      </trkpt>
      <trkpt lat="46.53441" lon="-1.80626">
        <ele>0.57</ele>
      </trkpt>
      <trkpt lat="46.53436" lon="-1.80629">
        <ele>0.72</ele>
      </trkpt>
      <trkpt lat="46.53426" lon="-1.80603">
        <ele>0.33</ele>
      </trkpt>
      <trkpt lat="46.53423" lon="-1.80595">
        <ele>0.2</ele>
      </trkpt>
      <trkpt lat="46.53422" lon="-1.80593">
        <ele>0.16</ele>
      </trkpt>
      <trkpt lat="46.53422" lon="-1.80593">
        <ele>0.16</ele>
      </trkpt>
      <trkpt lat="46.53417" lon="-1.80598">
        <ele>0.36</ele>
      </trkpt>
      <trkpt lat="46.53409" lon="-1.80607">
        <ele>0.68</ele>
      </trkpt>
      <trkpt lat="46.53396" lon="-1.80618">
        <ele>1.13</ele>
      </trkpt>
      <trkpt lat="46.53376" lon="-1.80632">
        <ele>1.58</ele>
      </trkpt>
      <trkpt lat="46.53362" lon="-1.80644">
        <ele>1.81</ele>
      </trkpt>
      <trkpt lat="46.53337" lon="-1.80664">
        <ele>2</ele>
      </trkpt>
      <trkpt lat="46.53328" lon="-1.80671">
        <ele>1.79</ele>
      </trkpt>
      <trkpt lat="46.53319" lon="-1.80676">
        <ele>1.49</ele>
      </trkpt>
      <trkpt lat="46.5331" lon="-1.8068">
        <ele>1.19</ele>
      </trkpt>
      <trkpt lat="46.533" lon="-1.80686">
        <ele>0.93</ele>
      </trkpt>
      <trkpt lat="46.5329" lon="-1.80695">
        <ele>0.64</ele>
      </trkpt>
      <trkpt lat="46.53284" lon="-1.80699">
        <ele>0.49</ele>
      </trkpt>
      <trkpt lat="46.53274" lon="-1.80708">
        <ele>0.3</ele>
      </trkpt>
      <trkpt lat="46.53265" lon="-1.80714">
        <ele>0.16</ele>
      </trkpt>
      <trkpt lat="46.53256" lon="-1.80722">
        <ele>0.05</ele>
      </trkpt>
      <trkpt lat="46.53249" lon="-1.80728">
        <ele>0.03</ele>
      </trkpt>
      <trkpt lat="46.53237" lon="-1.80735">
        <ele>0.3</ele>
      </trkpt>
      <trkpt lat="46.53224" lon="-1.80743">
        <ele>0.63</ele>
      </trkpt>
      <trkpt lat="46.53203" lon="-1.80755">
        <ele>1.06</ele>
      </trkpt>
      <trkpt lat="46.53178" lon="-1.80769">
        <ele>1.34</ele>
      </trkpt>
      <trkpt lat="46.53164" lon="-1.80779">
        <ele>1.37</ele>
      </trkpt>
      <trkpt lat="46.53151" lon="-1.80789">
        <ele>1.44</ele>
      </trkpt>
      <trkpt lat="46.53138" lon="-1.80799">
        <ele>1.51</ele>
      </trkpt>
      <trkpt lat="46.53125" lon="-1.80809">
        <ele>1.58</ele>
      </trkpt>
      <trkpt lat="46.53109" lon="-1.80823">
        <ele>1.63</ele>
      </trkpt>
      <trkpt lat="46.531" lon="-1.8083">
        <ele>1.68</ele>
      </trkpt>
      <trkpt lat="46.5309" lon="-1.80833">
        <ele>1.86</ele>
      </trkpt>
      <trkpt lat="46.53082" lon="-1.8084">
        <ele>1.92</ele>
      </trkpt>
      <trkpt lat="46.53072" lon="-1.80849">
        <ele>1.81</ele>
      </trkpt>
      <trkpt lat="46.5306" lon="-1.80856">
        <ele>1.72</ele>
      </trkpt>
      <trkpt lat="46.5305" lon="-1.80867">
        <ele>1.6</ele>
      </trkpt>
      <trkpt lat="46.53042" lon="-1.80876">
        <ele>1.48</ele>
      </trkpt>
      <trkpt lat="46.53035" lon="-1.80881">
        <ele>1.42</ele>
      </trkpt>
      <trkpt lat="46.53023" lon="-1.80886">
        <ele>1.37</ele>
      </trkpt>
      <trkpt lat="46.53018" lon="-1.80888">
        <ele>1.35</ele>
      </trkpt>
      <trkpt lat="46.53013" lon="-1.80891">
        <ele>1.31</ele>
      </trkpt>
      <trkpt lat="46.53005" lon="-1.80891">
        <ele>1.31</ele>
      </trkpt>
      <trkpt lat="46.52989" lon="-1.8089">
        <ele>1.45</ele>
      </trkpt>
      <trkpt lat="46.52978" lon="-1.80887">
        <ele>1.62</ele>
      </trkpt>
      <trkpt lat="46.52971" lon="-1.80888">
        <ele>1.69</ele>
      </trkpt>
      <trkpt lat="46.52965" lon="-1.80889">
        <ele>1.76</ele>
      </trkpt>
      <trkpt lat="46.52956" lon="-1.80885">
        <ele>1.9</ele>
      </trkpt>
      <trkpt lat="46.52946" lon="-1.80879">
        <ele>2.1</ele>
      </trkpt>
      <trkpt lat="46.52936" lon="-1.80878">
        <ele>2.24</ele>
      </trkpt>
      <trkpt lat="46.52926" lon="-1.80876">
        <ele>2.37</ele>
      </trkpt>
      <trkpt lat="46.52916" lon="-1.80873">
        <ele>2.52</ele>
      </trkpt>
      <trkpt lat="46.52906" lon="-1.80872">
        <ele>2.54</ele>
      </trkpt>
      <trkpt lat="46.52901" lon="-1.80865">
        <ele>2.62</ele>
      </trkpt>
      <trkpt lat="46.52902" lon="-1.80857">
        <ele>2.72</ele>
      </trkpt>
      <trkpt lat="46.52901" lon="-1.80846">
        <ele>2.85</ele>
      </trkpt>
      <trkpt lat="46.52899" lon="-1.80836">
        <ele>2.97</ele>
      </trkpt>
      <trkpt lat="46.52892" lon="-1.80824">
        <ele>3.11</ele>
      </trkpt>
      <trkpt lat="46.52885" lon="-1.80811">
        <ele>3.27</ele>
      </trkpt>
      <trkpt lat="46.52872" lon="-1.80794">
        <ele>3.47</ele>
      </trkpt>
      <trkpt lat="46.5286" lon="-1.80779">
        <ele>3.66</ele>
      </trkpt>
      <trkpt lat="46.52853" lon="-1.80772">
        <ele>3.73</ele>
      </trkpt>
      <trkpt lat="46.52844" lon="-1.8077">
        <ele>3.76</ele>
      </trkpt>
      <trkpt lat="46.52834" lon="-1.80768">
        <ele>3.78</ele>
      </trkpt>
      <trkpt lat="46.52822" lon="-1.80764">
        <ele>3.59</ele>
      </trkpt>
      <trkpt lat="46.52814" lon="-1.80759">
        <ele>3.46</ele>
      </trkpt>
      <trkpt lat="46.52809" lon="-1.80755">
        <ele>3.38</ele>
      </trkpt>
      <trkpt lat="46.52809" lon="-1.80741">
        <ele>3.39</ele>
      </trkpt>
      <trkpt lat="46.52808" lon="-1.80729">
        <ele>3.37</ele>
      </trkpt>
      <trkpt lat="46.52805" lon="-1.80711">
        <ele>3.33</ele>
      </trkpt>
      <trkpt lat="46.52802" lon="-1.80692">
        <ele>3.34</ele>
      </trkpt>
      <trkpt lat="46.52799" lon="-1.80685">
        <ele>3.36</ele>
      </trkpt>
      <trkpt lat="46.52794" lon="-1.8068">
        <ele>3.41</ele>
      </trkpt>
      <trkpt lat="46.52791" lon="-1.80671">
        <ele>3.48</ele>
      </trkpt>
      <trkpt lat="46.52792" lon="-1.80662">
        <ele>3.5</ele>
      </trkpt>
      <trkpt lat="46.52793" lon="-1.80649">
        <ele>3.49</ele>
      </trkpt>
      <trkpt lat="46.52794" lon="-1.80637">
        <ele>3.47</ele>
      </trkpt>
      <trkpt lat="46.52794" lon="-1.80624">
        <ele>3.47</ele>
      </trkpt>
      <trkpt lat="46.52793" lon="-1.8061">
        <ele>3.49</ele>
      </trkpt>
      <trkpt lat="46.52789" lon="-1.80606">
        <ele>3.54</ele>
      </trkpt>
      <trkpt lat="46.52783" lon="-1.80616">
        <ele>3.61</ele>
      </trkpt>
      <trkpt lat="46.52775" lon="-1.80621">
        <ele>3.7</ele>
      </trkpt>
      <trkpt lat="46.52766" lon="-1.8063">
        <ele>3.81</ele>
      </trkpt>
      <trkpt lat="46.52759" lon="-1.80634">
        <ele>3.89</ele>
      </trkpt>
      <trkpt lat="46.5274" lon="-1.80648">
        <ele>3.68</ele>
      </trkpt>
      <trkpt lat="46.52722" lon="-1.80659">
        <ele>3.06</ele>
      </trkpt>
      <trkpt lat="46.52709" lon="-1.80666">
        <ele>2.54</ele>
      </trkpt>
      <trkpt lat="46.52703" lon="-1.8067">
        <ele>2.27</ele>
      </trkpt>
      <trkpt lat="46.52698" lon="-1.80672">
        <ele>2.06</ele>
      </trkpt>
      <trkpt lat="46.52689" lon="-1.80675">
        <ele>1.73</ele>
      </trkpt>
      <trkpt lat="46.52677" lon="-1.80678">
        <ele>1.34</ele>
      </trkpt>
      <trkpt lat="46.52663" lon="-1.80679">
        <ele>1.12</ele>
      </trkpt>
      <trkpt lat="46.52652" lon="-1.80679">
        <ele>1.51</ele>
      </trkpt>
      <trkpt lat="46.52644" lon="-1.8068">
        <ele>1.78</ele>
      </trkpt>
      <trkpt lat="46.52632" lon="-1.8068">
        <ele>2.17</ele>
      </trkpt>
      <trkpt lat="46.52622" lon="-1.80679">
        <ele>2.54</ele>
      </trkpt>
      <trkpt lat="46.52606" lon="-1.80678">
        <ele>3.07</ele>
      </trkpt>
      <trkpt lat="46.52585" lon="-1.80681">
        <ele>3.76</ele>
      </trkpt>
      <trkpt lat="46.52564" lon="-1.80685">
        <ele>3.73</ele>
      </trkpt>
      <trkpt lat="46.5255" lon="-1.80688">
        <ele>3.64</ele>
      </trkpt>
      <trkpt lat="46.52538" lon="-1.8069">
        <ele>3.56</ele>
      </trkpt>
      <trkpt lat="46.52529" lon="-1.80695">
        <ele>3.45</ele>
      </trkpt>
      <trkpt lat="46.52519" lon="-1.80701">
        <ele>3.27</ele>
      </trkpt>
      <trkpt lat="46.52513" lon="-1.80707">
        <ele>3.11</ele>
      </trkpt>
      <trkpt lat="46.5251" lon="-1.80721">
        <ele>2.78</ele>
      </trkpt>
      <trkpt lat="46.52508" lon="-1.80739">
        <ele>2.34</ele>
      </trkpt>
      <trkpt lat="46.52507" lon="-1.80747">
        <ele>2.14</ele>
      </trkpt>
      <trkpt lat="46.52506" lon="-1.80759">
        <ele>2.06</ele>
      </trkpt>
      <trkpt lat="46.52504" lon="-1.80771">
        <ele>2.04</ele>
      </trkpt>
      <trkpt lat="46.52495" lon="-1.80768">
        <ele>1.92</ele>
      </trkpt>
      <trkpt lat="46.52487" lon="-1.80766">
        <ele>1.81</ele>
      </trkpt>
      <trkpt lat="46.52477" lon="-1.80762">
        <ele>1.68</ele>
      </trkpt>
      <trkpt lat="46.52466" lon="-1.80758">
        <ele>1.56</ele>
      </trkpt>
      <trkpt lat="46.52459" lon="-1.80755">
        <ele>1.48</ele>
      </trkpt>
      <trkpt lat="46.52451" lon="-1.80752">
        <ele>1.4</ele>
      </trkpt>
      <trkpt lat="46.52442" lon="-1.80755">
        <ele>1.26</ele>
      </trkpt>
      <trkpt lat="46.52438" lon="-1.8078">
        <ele>1</ele>
      </trkpt>
      <trkpt lat="46.52436" lon="-1.80822">
        <ele>0.58</ele>
      </trkpt>
      <trkpt lat="46.52433" lon="-1.80872">
        <ele>1.14</ele>
      </trkpt>
      <trkpt lat="46.5243" lon="-1.80901">
        <ele>1.68</ele>
      </trkpt>
      <trkpt lat="46.52429" lon="-1.80936">
        <ele>2.19</ele>
      </trkpt>
      <trkpt lat="46.52428" lon="-1.80969">
        <ele>2.54</ele>
      </trkpt>
      <trkpt lat="46.52426" lon="-1.80999">
        <ele>2.88</ele>
      </trkpt>
      <trkpt lat="46.52422" lon="-1.8101">
        <ele>3.42</ele>
      </trkpt>
      <trkpt lat="46.5242" lon="-1.81029">
        <ele>4.36</ele>
      </trkpt>
      <trkpt lat="46.52418" lon="-1.81044">
        <ele>5.09</ele>
      </trkpt>
      <trkpt lat="46.52416" lon="-1.81062">
        <ele>6.02</ele>
      </trkpt>
      <trkpt lat="46.52415" lon="-1.81085">
        <ele>7.18</ele>
      </trkpt>
      <trkpt lat="46.52413" lon="-1.81103">
        <ele>8.56</ele>
      </trkpt>
      <trkpt lat="46.5241" lon="-1.81133">
        <ele>10.92</ele>
      </trkpt>
      <trkpt lat="46.52405" lon="-1.81157">
        <ele>12.84</ele>
      </trkpt>
      <trkpt lat="46.52401" lon="-1.81183">
        <ele>14.07</ele>
      </trkpt>
      <trkpt lat="46.52397" lon="-1.81205">
        <ele>14.64</ele>
      </trkpt>
      <trkpt lat="46.52393" lon="-1.81228">
        <ele>15.17</ele>
      </trkpt>
      <trkpt lat="46.5239" lon="-1.81251">
        <ele>15.65</ele>
      </trkpt>
      <trkpt lat="46.52387" lon="-1.81267">
        <ele>15.97</ele>
      </trkpt>
      <trkpt lat="46.52384" lon="-1.8129">
        <ele>16.36</ele>
      </trkpt>
      <trkpt lat="46.5238" lon="-1.81315">
        <ele>16.75</ele>
      </trkpt>
      <trkpt lat="46.52378" lon="-1.81325">
        <ele>16.9</ele>
      </trkpt>
      <trkpt lat="46.52373" lon="-1.8133">
        <ele>16.96</ele>
      </trkpt>
      <trkpt lat="46.52366" lon="-1.81331">
        <ele>16.98</ele>
      </trkpt>
      <trkpt lat="46.52356" lon="-1.81335">
        <ele>17</ele>
      </trkpt>
      <trkpt lat="46.52348" lon="-1.81337">
        <ele>16.99</ele>
      </trkpt>
      <trkpt lat="46.52336" lon="-1.81342">
        <ele>17</ele>
      </trkpt>
      <trkpt lat="46.52324" lon="-1.81341">
        <ele>16.9</ele>
      </trkpt>
      <trkpt lat="46.52312" lon="-1.81338">
        <ele>16.76</ele>
      </trkpt>
      <trkpt lat="46.52296" lon="-1.81334">
        <ele>16.55</ele>
      </trkpt>
      <trkpt lat="46.52288" lon="-1.81333">
        <ele>16.46</ele>
      </trkpt>
      <trkpt lat="46.52279" lon="-1.81332">
        <ele>16.37</ele>
      </trkpt>
      <trkpt lat="46.52268" lon="-1.81333">
        <ele>16.22</ele>
      </trkpt>
      <trkpt lat="46.52257" lon="-1.81336">
        <ele>16.11</ele>
      </trkpt>
      <trkpt lat="46.52244" lon="-1.81339">
        <ele>16.14</ele>
      </trkpt>
      <trkpt lat="46.52232" lon="-1.81342">
        <ele>16.29</ele>
      </trkpt>
      <trkpt lat="46.52224" lon="-1.81343">
        <ele>16.39</ele>
      </trkpt>
      <trkpt lat="46.52216" lon="-1.81341">
        <ele>16.46</ele>
      </trkpt>
      <trkpt lat="46.5221" lon="-1.81333">
        <ele>16.49</ele>
      </trkpt>
      <trkpt lat="46.52202" lon="-1.8132">
        <ele>16.8</ele>
      </trkpt>
      <trkpt lat="46.52196" lon="-1.81307">
        <ele>17.08</ele>
      </trkpt>
      <trkpt lat="46.52189" lon="-1.81296">
        <ele>17.3</ele>
      </trkpt>
      <trkpt lat="46.5218" lon="-1.81288">
        <ele>17.48</ele>
      </trkpt>
      <trkpt lat="46.52165" lon="-1.81282">
        <ele>17.64</ele>
      </trkpt>
      <trkpt lat="46.52152" lon="-1.81277">
        <ele>17.97</ele>
      </trkpt>
      <trkpt lat="46.52138" lon="-1.8127">
        <ele>18.26</ele>
      </trkpt>
      <trkpt lat="46.52127" lon="-1.81256">
        <ele>18.48</ele>
      </trkpt>
      <trkpt lat="46.52118" lon="-1.81243">
        <ele>18.55</ele>
      </trkpt>
      <trkpt lat="46.5211" lon="-1.81241">
        <ele>18.64</ele>
      </trkpt>
      <trkpt lat="46.52101" lon="-1.81245">
        <ele>18.77</ele>
      </trkpt>
      <trkpt lat="46.52088" lon="-1.8126">
        <ele>19.04</ele>
      </trkpt>
      <trkpt lat="46.52078" lon="-1.81267">
        <ele>19.05</ele>
      </trkpt>
      <trkpt lat="46.52066" lon="-1.81281">
        <ele>18.73</ele>
      </trkpt>
      <trkpt lat="46.52056" lon="-1.81289">
        <ele>18.37</ele>
      </trkpt>
      <trkpt lat="46.52049" lon="-1.8129">
        <ele>18.06</ele>
      </trkpt>
      <trkpt lat="46.52033" lon="-1.81288">
        <ele>17.43</ele>
      </trkpt>
      <trkpt lat="46.52012" lon="-1.8129">
        <ele>16.54</ele>
      </trkpt>
      <trkpt lat="46.51998" lon="-1.81294">
        <ele>15.97</ele>
      </trkpt>
      <trkpt lat="46.51983" lon="-1.81299">
        <ele>16.08</ele>
      </trkpt>
      <trkpt lat="46.51969" lon="-1.81301">
        <ele>16.23</ele>
      </trkpt>
      <trkpt lat="46.51955" lon="-1.81305">
        <ele>16.39</ele>
      </trkpt>
      <trkpt lat="46.51938" lon="-1.81305">
        <ele>16.66</ele>
      </trkpt>
      <trkpt lat="46.51924" lon="-1.813">
        <ele>16.89</ele>
      </trkpt>
      <trkpt lat="46.51911" lon="-1.8129">
        <ele>17.32</ele>
      </trkpt>
      <trkpt lat="46.51897" lon="-1.81274">
        <ele>18.26</ele>
      </trkpt>
      <trkpt lat="46.51897" lon="-1.81273">
        <ele>18.28</ele>
      </trkpt>
      <trkpt lat="46.51885" lon="-1.8126">
        <ele>19.19</ele>
      </trkpt>
      <trkpt lat="46.51874" lon="-1.81246">
        <ele>20.02</ele>
      </trkpt>
      <trkpt lat="46.51868" lon="-1.81239">
        <ele>20.36</ele>
      </trkpt>
      <trkpt lat="46.51862" lon="-1.81225">
        <ele>20.46</ele>
      </trkpt>
      <trkpt lat="46.51859" lon="-1.81214">
        <ele>20.4</ele>
      </trkpt>
      <trkpt lat="46.51851" lon="-1.81186">
        <ele>20.07</ele>
      </trkpt>
      <trkpt lat="46.51845" lon="-1.81168">
        <ele>19.78</ele>
      </trkpt>
      <trkpt lat="46.51837" lon="-1.81148">
        <ele>19.47</ele>
      </trkpt>
      <trkpt lat="46.51829" lon="-1.81133">
        <ele>19.2</ele>
      </trkpt>
      <trkpt lat="46.51826" lon="-1.81127">
        <ele>19.08</ele>
      </trkpt>
      <trkpt lat="46.5182" lon="-1.81115">
        <ele>18.91</ele>
      </trkpt>
      <trkpt lat="46.51813" lon="-1.81101">
        <ele>18.76</ele>
      </trkpt>
      <trkpt lat="46.51803" lon="-1.81071">
        <ele>18.76</ele>
      </trkpt>
      <trkpt lat="46.51803" lon="-1.8106">
        <ele>18.81</ele>
      </trkpt>
      <trkpt lat="46.518" lon="-1.81048">
        <ele>18.88</ele>
      </trkpt>
      <trkpt lat="46.51796" lon="-1.81033">
        <ele>18.96</ele>
      </trkpt>
      <trkpt lat="46.51792" lon="-1.81021">
        <ele>19</ele>
      </trkpt>
      <trkpt lat="46.51786" lon="-1.81009">
        <ele>19.01</ele>
      </trkpt>
      <trkpt lat="46.5178" lon="-1.80998">
        <ele>18.83</ele>
      </trkpt>
      <trkpt lat="46.5177" lon="-1.80987">
        <ele>18.03</ele>
      </trkpt>
      <trkpt lat="46.51756" lon="-1.80978">
        <ele>17.2</ele>
      </trkpt>
      <trkpt lat="46.51745" lon="-1.80973">
        <ele>16.53</ele>
      </trkpt>
      <trkpt lat="46.51734" lon="-1.80968">
        <ele>15.71</ele>
      </trkpt>
      <trkpt lat="46.51724" lon="-1.80963">
        <ele>14.83</ele>
      </trkpt>
      <trkpt lat="46.51714" lon="-1.80961">
        <ele>14.23</ele>
      </trkpt>
      <trkpt lat="46.51705" lon="-1.80963">
        <ele>14.11</ele>
      </trkpt>
      <trkpt lat="46.51698" lon="-1.80966">
        <ele>14.11</ele>
      </trkpt>
      <trkpt lat="46.51691" lon="-1.80971">
        <ele>14.36</ele>
      </trkpt>
      <trkpt lat="46.51683" lon="-1.80969">
        <ele>13.91</ele>
      </trkpt>
      <trkpt lat="46.51675" lon="-1.80969">
        <ele>13.6</ele>
      </trkpt>
      <trkpt lat="46.51666" lon="-1.80971">
        <ele>13.51</ele>
      </trkpt>
      <trkpt lat="46.51659" lon="-1.80972">
        <ele>13.66</ele>
      </trkpt>
      <trkpt lat="46.51654" lon="-1.80972">
        <ele>13.62</ele>
      </trkpt>
      <trkpt lat="46.51649" lon="-1.80976">
        <ele>14.12</ele>
      </trkpt>
      <trkpt lat="46.51641" lon="-1.80985">
        <ele>15.1</ele>
      </trkpt>
      <trkpt lat="46.51635" lon="-1.80992">
        <ele>15.82</ele>
      </trkpt>
      <trkpt lat="46.51627" lon="-1.80996">
        <ele>16.15</ele>
      </trkpt>
      <trkpt lat="46.51618" lon="-1.80998">
        <ele>16.23</ele>
      </trkpt>
      <trkpt lat="46.51609" lon="-1.80999">
        <ele>16.2</ele>
      </trkpt>
      <trkpt lat="46.516" lon="-1.80999">
        <ele>16.09</ele>
      </trkpt>
      <trkpt lat="46.51588" lon="-1.80997">
        <ele>15.78</ele>
      </trkpt>
      <trkpt lat="46.51576" lon="-1.80995">
        <ele>15.98</ele>
      </trkpt>
      <trkpt lat="46.5157" lon="-1.8099">
        <ele>16.03</ele>
      </trkpt>
      <trkpt lat="46.51564" lon="-1.80985">
        <ele>16.1</ele>
      </trkpt>
      <trkpt lat="46.51548" lon="-1.80979">
        <ele>16.82</ele>
      </trkpt>
      <trkpt lat="46.51534" lon="-1.80977">
        <ele>17.68</ele>
      </trkpt>
      <trkpt lat="46.51523" lon="-1.80974">
        <ele>18.39</ele>
      </trkpt>
      <trkpt lat="46.51512" lon="-1.80978">
        <ele>19.28</ele>
      </trkpt>
      <trkpt lat="46.51506" lon="-1.80988">
        <ele>20.19</ele>
      </trkpt>
      <trkpt lat="46.515" lon="-1.80999">
        <ele>20.94</ele>
      </trkpt>
      <trkpt lat="46.51488" lon="-1.81015">
        <ele>21.02</ele>
      </trkpt>
      <trkpt lat="46.51475" lon="-1.81032">
        <ele>20.79</ele>
      </trkpt>
      <trkpt lat="46.51454" lon="-1.81054">
        <ele>19.86</ele>
      </trkpt>
      <trkpt lat="46.51442" lon="-1.81075">
        <ele>19.15</ele>
      </trkpt>
      <trkpt lat="46.51434" lon="-1.81096">
        <ele>18.54</ele>
      </trkpt>
      <trkpt lat="46.51428" lon="-1.81111">
        <ele>18.23</ele>
      </trkpt>
      <trkpt lat="46.51419" lon="-1.8114">
        <ele>17.83</ele>
      </trkpt>
      <trkpt lat="46.51402" lon="-1.81168">
        <ele>17.65</ele>
      </trkpt>
      <trkpt lat="46.51391" lon="-1.81187">
        <ele>17.47</ele>
      </trkpt>
      <trkpt lat="46.5138" lon="-1.81205">
        <ele>17.32</ele>
      </trkpt>
      <trkpt lat="46.51367" lon="-1.81225">
        <ele>17.23</ele>
      </trkpt>
      <trkpt lat="46.51359" lon="-1.81238">
        <ele>17.2</ele>
      </trkpt>
      <trkpt lat="46.51354" lon="-1.81247">
        <ele>17.22</ele>
      </trkpt>
      <trkpt lat="46.51348" lon="-1.81257">
        <ele>17.11</ele>
      </trkpt>
      <trkpt lat="46.51341" lon="-1.81269">
        <ele>16.88</ele>
      </trkpt>
      <trkpt lat="46.51326" lon="-1.81285">
        <ele>16.4</ele>
      </trkpt>
      <trkpt lat="46.51307" lon="-1.81301">
        <ele>15.84</ele>
      </trkpt>
      <trkpt lat="46.5129" lon="-1.81313">
        <ele>15.47</ele>
      </trkpt>
      <trkpt lat="46.5126" lon="-1.81337">
        <ele>15.12</ele>
      </trkpt>
      <trkpt lat="46.51243" lon="-1.81349">
        <ele>15.17</ele>
      </trkpt>
      <trkpt lat="46.51218" lon="-1.81367">
        <ele>15.78</ele>
      </trkpt>
      <trkpt lat="46.51209" lon="-1.8137">
        <ele>15.98</ele>
      </trkpt>
      <trkpt lat="46.51201" lon="-1.81372">
        <ele>16.17</ele>
      </trkpt>
      <trkpt lat="46.51191" lon="-1.81366">
        <ele>16.42</ele>
      </trkpt>
      <trkpt lat="46.5118" lon="-1.8136">
        <ele>16.68</ele>
      </trkpt>
      <trkpt lat="46.5117" lon="-1.81349">
        <ele>16.92</ele>
      </trkpt>
      <trkpt lat="46.5116" lon="-1.81338">
        <ele>16.85</ele>
      </trkpt>
      <trkpt lat="46.51151" lon="-1.81331">
        <ele>16.6</ele>
      </trkpt>
      <trkpt lat="46.51144" lon="-1.81331">
        <ele>16.43</ele>
      </trkpt>
      <trkpt lat="46.51138" lon="-1.81335">
        <ele>16.31</ele>
      </trkpt>
      <trkpt lat="46.51131" lon="-1.81341">
        <ele>16.11</ele>
      </trkpt>
      <trkpt lat="46.51127" lon="-1.81348">
        <ele>15.96</ele>
      </trkpt>
      <trkpt lat="46.51122" lon="-1.81362">
        <ele>15.75</ele>
      </trkpt>
      <trkpt lat="46.51119" lon="-1.81375">
        <ele>15.57</ele>
      </trkpt>
      <trkpt lat="46.51115" lon="-1.81394">
        <ele>15.32</ele>
      </trkpt>
      <trkpt lat="46.51113" lon="-1.81409">
        <ele>15.14</ele>
      </trkpt>
      <trkpt lat="46.51112" lon="-1.81424">
        <ele>14.99</ele>
      </trkpt>
      <trkpt lat="46.5111" lon="-1.81445">
        <ele>14.84</ele>
      </trkpt>
      <trkpt lat="46.51108" lon="-1.81461">
        <ele>14.73</ele>
      </trkpt>
      <trkpt lat="46.51105" lon="-1.81477">
        <ele>14.61</ele>
      </trkpt>
      <trkpt lat="46.51102" lon="-1.81495">
        <ele>14.47</ele>
      </trkpt>
      <trkpt lat="46.51099" lon="-1.81512">
        <ele>14.21</ele>
      </trkpt>
      <trkpt lat="46.51097" lon="-1.81527">
        <ele>13.96</ele>
      </trkpt>
      <trkpt lat="46.51097" lon="-1.81543">
        <ele>13.73</ele>
      </trkpt>
      <trkpt lat="46.51095" lon="-1.81554">
        <ele>13.53</ele>
      </trkpt>
      <trkpt lat="46.5109" lon="-1.81566">
        <ele>13.3</ele>
      </trkpt>
      <trkpt lat="46.51083" lon="-1.8158">
        <ele>13.04</ele>
      </trkpt>
      <trkpt lat="46.51074" lon="-1.81596">
        <ele>12.28</ele>
      </trkpt>
      <trkpt lat="46.51068" lon="-1.81605">
        <ele>11.85</ele>
      </trkpt>
      <trkpt lat="46.51064" lon="-1.81615">
        <ele>11.46</ele>
      </trkpt>
      <trkpt lat="46.5106" lon="-1.81629">
        <ele>11.1</ele>
      </trkpt>
      <trkpt lat="46.51056" lon="-1.81647">
        <ele>10.68</ele>
      </trkpt>
      <trkpt lat="46.51052" lon="-1.81669">
        <ele>10.21</ele>
      </trkpt>
      <trkpt lat="46.51047" lon="-1.81694">
        <ele>9.63</ele>
      </trkpt>
      <trkpt lat="46.51044" lon="-1.8171">
        <ele>9.25</ele>
      </trkpt>
      <trkpt lat="46.51041" lon="-1.81729">
        <ele>8.87</ele>
      </trkpt>
      <trkpt lat="46.51039" lon="-1.81745">
        <ele>8.55</ele>
      </trkpt>
      <trkpt lat="46.51037" lon="-1.81761">
        <ele>7.72</ele>
      </trkpt>
      <trkpt lat="46.51036" lon="-1.81795">
        <ele>5.57</ele>
      </trkpt>
      <trkpt lat="46.51035" lon="-1.81816">
        <ele>4.23</ele>
      </trkpt>
      <trkpt lat="46.51036" lon="-1.81834">
        <ele>3.11</ele>
      </trkpt>
      <trkpt lat="46.51032" lon="-1.81846">
        <ele>2.85</ele>
      </trkpt>
      <trkpt lat="46.51022" lon="-1.8185">
        <ele>2.93</ele>
      </trkpt>
      <trkpt lat="46.5099" lon="-1.81842">
        <ele>3.35</ele>
      </trkpt>
      <trkpt lat="46.50968" lon="-1.81826">
        <ele>3.18</ele>
      </trkpt>
      <trkpt lat="46.50952" lon="-1.81816">
        <ele>3.08</ele>
      </trkpt>
      <trkpt lat="46.50934" lon="-1.81807">
        <ele>2.88</ele>
      </trkpt>
      <trkpt lat="46.50916" lon="-1.818">
        <ele>2.59</ele>
      </trkpt>
      <trkpt lat="46.50902" lon="-1.81794">
        <ele>2.53</ele>
      </trkpt>
      <trkpt lat="46.50885" lon="-1.81786">
        <ele>2.46</ele>
      </trkpt>
      <trkpt lat="46.50874" lon="-1.81777">
        <ele>2.5</ele>
      </trkpt>
      <trkpt lat="46.50863" lon="-1.81766">
        <ele>2.53</ele>
      </trkpt>
      <trkpt lat="46.50851" lon="-1.81755">
        <ele>2.49</ele>
      </trkpt>
      <trkpt lat="46.50835" lon="-1.81744">
        <ele>2.27</ele>
      </trkpt>
      <trkpt lat="46.50822" lon="-1.81736">
        <ele>2.24</ele>
      </trkpt>
      <trkpt lat="46.5081" lon="-1.81732">
        <ele>2.14</ele>
      </trkpt>
      <trkpt lat="46.50796" lon="-1.81725">
        <ele>2.14</ele>
      </trkpt>
      <trkpt lat="46.50783" lon="-1.81723">
        <ele>1.98</ele>
      </trkpt>
      <trkpt lat="46.50774" lon="-1.8172">
        <ele>1.9</ele>
      </trkpt>
      <trkpt lat="46.50763" lon="-1.81718">
        <ele>1.81</ele>
      </trkpt>
      <trkpt lat="46.50746" lon="-1.81716">
        <ele>1.57</ele>
      </trkpt>
      <trkpt lat="46.5073" lon="-1.81714">
        <ele>1.49</ele>
      </trkpt>
      <trkpt lat="46.50721" lon="-1.81709">
        <ele>1.63</ele>
      </trkpt>
      <trkpt lat="46.50706" lon="-1.81702">
        <ele>1.77</ele>
      </trkpt>
      <trkpt lat="46.50695" lon="-1.81699">
        <ele>1.8</ele>
      </trkpt>
      <trkpt lat="46.50679" lon="-1.81693">
        <ele>1.87</ele>
      </trkpt>
      <trkpt lat="46.50661" lon="-1.81688">
        <ele>1.92</ele>
      </trkpt>
      <trkpt lat="46.50645" lon="-1.81683">
        <ele>2.01</ele>
      </trkpt>
      <trkpt lat="46.50635" lon="-1.81683">
        <ele>1.92</ele>
      </trkpt>
      <trkpt lat="46.50626" lon="-1.81685">
        <ele>1.72</ele>
      </trkpt>
      <trkpt lat="46.50616" lon="-1.81688">
        <ele>1.54</ele>
      </trkpt>
      <trkpt lat="46.50606" lon="-1.81683">
        <ele>1.63</ele>
      </trkpt>
      <trkpt lat="46.50593" lon="-1.81666">
        <ele>2.15</ele>
      </trkpt>
      <trkpt lat="46.5058" lon="-1.81648">
        <ele>2.62</ele>
      </trkpt>
      <trkpt lat="46.50566" lon="-1.81634">
        <ele>2.91</ele>
      </trkpt>
      <trkpt lat="46.50553" lon="-1.81622">
        <ele>3.26</ele>
      </trkpt>
      <trkpt lat="46.50539" lon="-1.81608">
        <ele>3.8</ele>
      </trkpt>
      <trkpt lat="46.50528" lon="-1.81597">
        <ele>4.29</ele>
      </trkpt>
      <trkpt lat="46.50521" lon="-1.8159">
        <ele>4.63</ele>
      </trkpt>
      <trkpt lat="46.50513" lon="-1.81577">
        <ele>5.08</ele>
      </trkpt>
      <trkpt lat="46.50506" lon="-1.8157">
        <ele>5.17</ele>
      </trkpt>
      <trkpt lat="46.50496" lon="-1.81564">
        <ele>5.16</ele>
      </trkpt>
      <trkpt lat="46.50485" lon="-1.81557">
        <ele>5.02</ele>
      </trkpt>
      <trkpt lat="46.50477" lon="-1.81551">
        <ele>4.95</ele>
      </trkpt>
      <trkpt lat="46.50467" lon="-1.81543">
        <ele>4.89</ele>
      </trkpt>
      <trkpt lat="46.50458" lon="-1.81535">
        <ele>4.87</ele>
      </trkpt>
      <trkpt lat="46.50449" lon="-1.81524">
        <ele>4.92</ele>
      </trkpt>
      <trkpt lat="46.50439" lon="-1.81514">
        <ele>4.97</ele>
      </trkpt>
      <trkpt lat="46.50429" lon="-1.81501">
        <ele>5.13</ele>
      </trkpt>
      <trkpt lat="46.50421" lon="-1.81489">
        <ele>5.19</ele>
      </trkpt>
      <trkpt lat="46.50411" lon="-1.81473">
        <ele>5.33</ele>
      </trkpt>
      <trkpt lat="46.50403" lon="-1.81459">
        <ele>5.5</ele>
      </trkpt>
      <trkpt lat="46.50398" lon="-1.81447">
        <ele>5.63</ele>
      </trkpt>
      <trkpt lat="46.50392" lon="-1.81436">
        <ele>5.76</ele>
      </trkpt>
      <trkpt lat="46.50384" lon="-1.81424">
        <ele>5.92</ele>
      </trkpt>
      <trkpt lat="46.50378" lon="-1.81414">
        <ele>6.05</ele>
      </trkpt>
      <trkpt lat="46.50371" lon="-1.81405">
        <ele>6.22</ele>
      </trkpt>
      <trkpt lat="46.50365" lon="-1.81402">
        <ele>6.29</ele>
      </trkpt>
      <trkpt lat="46.50358" lon="-1.81395">
        <ele>6.45</ele>
      </trkpt>
      <trkpt lat="46.50352" lon="-1.81385">
        <ele>6.69</ele>
      </trkpt>
      <trkpt lat="46.50347" lon="-1.81371">
        <ele>7</ele>
      </trkpt>
      <trkpt lat="46.50341" lon="-1.81353">
        <ele>7.45</ele>
      </trkpt>
      <trkpt lat="46.50336" lon="-1.81337">
        <ele>7.86</ele>
      </trkpt>
      <trkpt lat="46.50333" lon="-1.8132">
        <ele>7.99</ele>
      </trkpt>
      <trkpt lat="46.50329" lon="-1.81304">
        <ele>7.89</ele>
      </trkpt>
      <trkpt lat="46.50325" lon="-1.81284">
        <ele>7.81</ele>
      </trkpt>
      <trkpt lat="46.50324" lon="-1.81268">
        <ele>7.77</ele>
      </trkpt>
      <trkpt lat="46.5032" lon="-1.81254">
        <ele>7.68</ele>
      </trkpt>
      <trkpt lat="46.50314" lon="-1.81227">
        <ele>7.87</ele>
      </trkpt>
      <trkpt lat="46.50308" lon="-1.81198">
        <ele>8.2</ele>
      </trkpt>
      <trkpt lat="46.50303" lon="-1.81178">
        <ele>8.45</ele>
      </trkpt>
      <trkpt lat="46.50298" lon="-1.8116">
        <ele>8.69</ele>
      </trkpt>
      <trkpt lat="46.50293" lon="-1.81136">
        <ele>9.07</ele>
      </trkpt>
      <trkpt lat="46.50289" lon="-1.81113">
        <ele>9.44</ele>
      </trkpt>
      <trkpt lat="46.50282" lon="-1.81093">
        <ele>9.81</ele>
      </trkpt>
      <trkpt lat="46.50279" lon="-1.81076">
        <ele>9.97</ele>
      </trkpt>
      <trkpt lat="46.50276" lon="-1.81064">
        <ele>9.93</ele>
      </trkpt>
      <trkpt lat="46.50277" lon="-1.81051">
        <ele>9.88</ele>
      </trkpt>
      <trkpt lat="46.50275" lon="-1.81037">
        <ele>9.84</ele>
      </trkpt>
      <trkpt lat="46.5027" lon="-1.81023">
        <ele>9.82</ele>
      </trkpt>
      <trkpt lat="46.50266" lon="-1.8101">
        <ele>9.83</ele>
      </trkpt>
      <trkpt lat="46.50263" lon="-1.80989">
        <ele>10.1</ele>
      </trkpt>
      <trkpt lat="46.50259" lon="-1.8097">
        <ele>10.58</ele>
      </trkpt>
      <trkpt lat="46.50255" lon="-1.80948">
        <ele>11.15</ele>
      </trkpt>
      <trkpt lat="46.50253" lon="-1.80923">
        <ele>11.77</ele>
      </trkpt>
      <trkpt lat="46.5025" lon="-1.809">
        <ele>11.98</ele>
      </trkpt>
      <trkpt lat="46.50248" lon="-1.80891">
        <ele>11.91</ele>
      </trkpt>
      <trkpt lat="46.50246" lon="-1.80883">
        <ele>11.88</ele>
      </trkpt>
      <trkpt lat="46.50243" lon="-1.80873">
        <ele>11.81</ele>
      </trkpt>
      <trkpt lat="46.50241" lon="-1.80865">
        <ele>11.77</ele>
      </trkpt>
      <trkpt lat="46.50234" lon="-1.80847">
        <ele>11.72</ele>
      </trkpt>
      <trkpt lat="46.5023" lon="-1.80833">
        <ele>11.76</ele>
      </trkpt>
      <trkpt lat="46.50227" lon="-1.8082">
        <ele>11.93</ele>
      </trkpt>
      <trkpt lat="46.50199" lon="-1.80769">
        <ele>13.25</ele>
      </trkpt>
      <trkpt lat="46.50171" lon="-1.80709">
        <ele>13.04296875</ele>
      </trkpt>
      <trkpt lat="46.50132" lon="-1.80628">
        <ele>12.734375</ele>
      </trkpt>
      <trkpt lat="46.50096" lon="-1.80539">
        <ele>13.36328125</ele>
      </trkpt>
      <trkpt lat="46.50078" lon="-1.80479">
        <ele>14.1953125</ele>
      </trkpt>
      <trkpt lat="46.50046" lon="-1.80494">
        <ele>15</ele>
      </trkpt>
      <trkpt lat="46.50001" lon="-1.80507">
        <ele>14.88671875</ele>
      </trkpt>
      <trkpt lat="46.49953" lon="-1.80513">
        <ele>14.12109375</ele>
      </trkpt>
      <trkpt lat="46.49946" lon="-1.8047">
        <ele>14.57421875</ele>
      </trkpt>
      <trkpt lat="46.49935" lon="-1.80396">
        <ele>14.984375</ele>
      </trkpt>
      <trkpt lat="46.49929" lon="-1.80336">
        <ele>15</ele>
      </trkpt>
      <trkpt lat="46.49929" lon="-1.803">
        <ele>15</ele>
      </trkpt>
      <trkpt lat="46.49899" lon="-1.8028">
        <ele>15</ele>
      </trkpt>
      <trkpt lat="46.49838" lon="-1.80254">
        <ele>14.046875</ele>
      </trkpt>
      <trkpt lat="46.49803" lon="-1.80279">
        <ele>14</ele>
      </trkpt>
      <trkpt lat="46.49641" lon="-1.80183">
        <ele>14.125</ele>
      </trkpt>
      <trkpt lat="46.49609" lon="-1.8016">
        <ele>13.859375</ele>
      </trkpt>
      <trkpt lat="46.49594" lon="-1.80185">
        <ele>14.30859375</ele>
      </trkpt>
      <trkpt lat="46.49599" lon="-1.80196">
        <ele>14.5078125</ele>
      </trkpt>
    </trkseg>
  </trk>
</gpx>